<?xml version="1.0" encoding="UTF-8" standalone="no" ?>
<gpx xmlns="http://www.topografix.com/GPX/1/1" xmlns:xsi="http://www.w3.org/2001/XMLSchema-instance" xsi:schemaLocation="http://www.topografix.com/GPX/1/1 http://www.topografix.com/GPX/1/1/gpx.xsd" version="1.1" creator="VisuGPX - https://www.visugpx.com">
  <metadata>
    <name>GR800 J3 l'Etoile,  Pont-Rémy</name>
    <desc><![CDATA[Long, Coquerel,]]></desc>
  </metadata>
  <trk>
    <name><![CDATA[GR800 J3 l'Etoile,  Pont-Rémy_1]]></name>
    <trkseg>
      <trkpt lat="50.01659" lon="2.04216">
        <ele>12.3</ele>
        <time>2022-04-17T08:44:46Z</time>
      </trkpt>
      <trkpt lat="50.01659" lon="2.04216">
        <ele>12.3</ele>
        <time>2022-04-17T08:44:47Z</time>
      </trkpt>
      <trkpt lat="50.01659" lon="2.04216">
        <ele>12.3</ele>
        <time>2022-04-17T08:44:48Z</time>
      </trkpt>
      <trkpt lat="50.01659" lon="2.04216">
        <ele>12.3</ele>
        <time>2022-04-17T08:44:49Z</time>
      </trkpt>
      <trkpt lat="50.01659" lon="2.04216">
        <ele>12.3</ele>
        <time>2022-04-17T08:44:50Z</time>
      </trkpt>
      <trkpt lat="50.01659" lon="2.04216">
        <ele>12.3</ele>
        <time>2022-04-17T08:44:51Z</time>
      </trkpt>
      <trkpt lat="50.01659" lon="2.04216">
        <ele>12.3</ele>
        <time>2022-04-17T08:44:52Z</time>
      </trkpt>
      <trkpt lat="50.01659" lon="2.04216">
        <ele>12.3</ele>
        <time>2022-04-17T08:44:53Z</time>
      </trkpt>
      <trkpt lat="50.01659" lon="2.04216">
        <ele>12.3</ele>
        <time>2022-04-17T08:44:54Z</time>
      </trkpt>
      <trkpt lat="50.01659" lon="2.04216">
        <ele>12.3</ele>
        <time>2022-04-17T08:44:55Z</time>
      </trkpt>
      <trkpt lat="50.01659" lon="2.04216">
        <ele>12.3</ele>
        <time>2022-04-17T08:44:56Z</time>
      </trkpt>
      <trkpt lat="50.01659" lon="2.04216">
        <ele>12.3</ele>
        <time>2022-04-17T08:44:57Z</time>
      </trkpt>
      <trkpt lat="50.01659" lon="2.04216">
        <ele>12.3</ele>
        <time>2022-04-17T08:44:58Z</time>
      </trkpt>
      <trkpt lat="50.01659" lon="2.04216">
        <ele>12.3</ele>
        <time>2022-04-17T08:44:59Z</time>
      </trkpt>
      <trkpt lat="50.01659" lon="2.04216">
        <ele>12.3</ele>
        <time>2022-04-17T08:45:00Z</time>
      </trkpt>
      <trkpt lat="50.01659" lon="2.04216">
        <ele>12.3</ele>
        <time>2022-04-17T08:45:02Z</time>
      </trkpt>
      <trkpt lat="50.01659" lon="2.04215">
        <ele>12.3</ele>
        <time>2022-04-17T08:45:03Z</time>
      </trkpt>
      <trkpt lat="50.01659" lon="2.04215">
        <ele>12.3</ele>
        <time>2022-04-17T08:45:04Z</time>
      </trkpt>
      <trkpt lat="50.0166" lon="2.04214">
        <ele>12.3</ele>
        <time>2022-04-17T08:45:05Z</time>
      </trkpt>
      <trkpt lat="50.0166" lon="2.04214">
        <ele>12.3</ele>
        <time>2022-04-17T08:45:07Z</time>
      </trkpt>
      <trkpt lat="50.0166" lon="2.04214">
        <ele>12.3</ele>
        <time>2022-04-17T08:45:08Z</time>
      </trkpt>
      <trkpt lat="50.0166" lon="2.04214">
        <ele>12.3</ele>
        <time>2022-04-17T08:45:09Z</time>
      </trkpt>
      <trkpt lat="50.0166" lon="2.04213">
        <ele>12.3</ele>
        <time>2022-04-17T08:45:12Z</time>
      </trkpt>
      <trkpt lat="50.0166" lon="2.04213">
        <ele>12.3</ele>
        <time>2022-04-17T08:45:13Z</time>
      </trkpt>
      <trkpt lat="50.0166" lon="2.04212">
        <ele>12.3</ele>
        <time>2022-04-17T08:45:15Z</time>
      </trkpt>
      <trkpt lat="50.0166" lon="2.04212">
        <ele>12.3</ele>
        <time>2022-04-17T08:45:16Z</time>
      </trkpt>
      <trkpt lat="50.0166" lon="2.04212">
        <ele>12.3</ele>
        <time>2022-04-17T08:45:17Z</time>
      </trkpt>
      <trkpt lat="50.0166" lon="2.04212">
        <ele>12.3</ele>
        <time>2022-04-17T08:45:18Z</time>
      </trkpt>
      <trkpt lat="50.01659" lon="2.04214">
        <ele>12.3</ele>
        <time>2022-04-17T08:45:20Z</time>
      </trkpt>
      <trkpt lat="50.01659" lon="2.04215">
        <ele>12.3</ele>
        <time>2022-04-17T08:45:21Z</time>
      </trkpt>
      <trkpt lat="50.01659" lon="2.04215">
        <ele>12.3</ele>
        <time>2022-04-17T08:45:22Z</time>
      </trkpt>
      <trkpt lat="50.01659" lon="2.04215">
        <ele>12.3</ele>
        <time>2022-04-17T08:45:23Z</time>
      </trkpt>
      <trkpt lat="50.01659" lon="2.04215">
        <ele>12.3</ele>
        <time>2022-04-17T08:45:24Z</time>
      </trkpt>
      <trkpt lat="50.01659" lon="2.04215">
        <ele>12.3</ele>
        <time>2022-04-17T08:45:25Z</time>
      </trkpt>
      <trkpt lat="50.01659" lon="2.04215">
        <ele>12.3</ele>
        <time>2022-04-17T08:45:26Z</time>
      </trkpt>
      <trkpt lat="50.01659" lon="2.04215">
        <ele>12.3</ele>
        <time>2022-04-17T08:45:27Z</time>
      </trkpt>
      <trkpt lat="50.01659" lon="2.04215">
        <ele>12.3</ele>
        <time>2022-04-17T08:45:28Z</time>
      </trkpt>
      <trkpt lat="50.01659" lon="2.04214">
        <ele>12.3</ele>
        <time>2022-04-17T08:45:29Z</time>
      </trkpt>
      <trkpt lat="50.01659" lon="2.04214">
        <ele>12.3</ele>
        <time>2022-04-17T08:45:30Z</time>
      </trkpt>
      <trkpt lat="50.0166" lon="2.04214">
        <ele>12.3</ele>
        <time>2022-04-17T08:45:31Z</time>
      </trkpt>
      <trkpt lat="50.0166" lon="2.04214">
        <ele>12.3</ele>
        <time>2022-04-17T08:45:32Z</time>
      </trkpt>
      <trkpt lat="50.0166" lon="2.04214">
        <ele>12.3</ele>
        <time>2022-04-17T08:45:33Z</time>
      </trkpt>
      <trkpt lat="50.0166" lon="2.04213">
        <ele>12.3</ele>
        <time>2022-04-17T08:45:34Z</time>
      </trkpt>
      <trkpt lat="50.0166" lon="2.04213">
        <ele>12.3</ele>
        <time>2022-04-17T08:45:35Z</time>
      </trkpt>
      <trkpt lat="50.0166" lon="2.04213">
        <ele>12.3</ele>
        <time>2022-04-17T08:45:36Z</time>
      </trkpt>
      <trkpt lat="50.0166" lon="2.04213">
        <ele>12.3</ele>
        <time>2022-04-17T08:45:37Z</time>
      </trkpt>
      <trkpt lat="50.0166" lon="2.04213">
        <ele>12.4</ele>
        <time>2022-04-17T08:45:38Z</time>
      </trkpt>
      <trkpt lat="50.0166" lon="2.04212">
        <ele>12.4</ele>
        <time>2022-04-17T08:45:39Z</time>
      </trkpt>
      <trkpt lat="50.0166" lon="2.04212">
        <ele>12.4</ele>
        <time>2022-04-17T08:45:41Z</time>
      </trkpt>
      <trkpt lat="50.01661" lon="2.04212">
        <ele>12.4</ele>
        <time>2022-04-17T08:45:42Z</time>
      </trkpt>
      <trkpt lat="50.01661" lon="2.04212">
        <ele>12.4</ele>
        <time>2022-04-17T08:45:43Z</time>
      </trkpt>
      <trkpt lat="50.01661" lon="2.04212">
        <ele>12.4</ele>
        <time>2022-04-17T08:45:44Z</time>
      </trkpt>
      <trkpt lat="50.01661" lon="2.04212">
        <ele>12.4</ele>
        <time>2022-04-17T08:45:45Z</time>
      </trkpt>
      <trkpt lat="50.01661" lon="2.04211">
        <ele>12.4</ele>
        <time>2022-04-17T08:45:46Z</time>
      </trkpt>
      <trkpt lat="50.01661" lon="2.04211">
        <ele>12.4</ele>
        <time>2022-04-17T08:45:47Z</time>
      </trkpt>
      <trkpt lat="50.01661" lon="2.04211">
        <ele>12.4</ele>
        <time>2022-04-17T08:45:48Z</time>
      </trkpt>
      <trkpt lat="50.01661" lon="2.04211">
        <ele>12.4</ele>
        <time>2022-04-17T08:45:50Z</time>
      </trkpt>
      <trkpt lat="50.01661" lon="2.04211">
        <ele>12.4</ele>
        <time>2022-04-17T08:45:51Z</time>
      </trkpt>
      <trkpt lat="50.01661" lon="2.0421">
        <ele>12.4</ele>
        <time>2022-04-17T08:45:52Z</time>
      </trkpt>
      <trkpt lat="50.01665" lon="2.04208">
        <ele>12.4</ele>
        <time>2022-04-17T08:45:54Z</time>
      </trkpt>
      <trkpt lat="50.01667" lon="2.04206">
        <ele>12.4</ele>
        <time>2022-04-17T08:45:55Z</time>
      </trkpt>
      <trkpt lat="50.01668" lon="2.04206">
        <ele>12.4</ele>
        <time>2022-04-17T08:45:56Z</time>
      </trkpt>
      <trkpt lat="50.0167" lon="2.04205">
        <ele>12.3</ele>
        <time>2022-04-17T08:45:57Z</time>
      </trkpt>
      <trkpt lat="50.0167" lon="2.04203">
        <ele>12.3</ele>
        <time>2022-04-17T08:45:58Z</time>
      </trkpt>
      <trkpt lat="50.01671" lon="2.04201">
        <ele>12.2</ele>
        <time>2022-04-17T08:46:00Z</time>
      </trkpt>
      <trkpt lat="50.01672" lon="2.04199">
        <ele>12.2</ele>
        <time>2022-04-17T08:46:01Z</time>
      </trkpt>
      <trkpt lat="50.01673" lon="2.04198">
        <ele>12.1</ele>
        <time>2022-04-17T08:46:02Z</time>
      </trkpt>
      <trkpt lat="50.01673" lon="2.04195">
        <ele>12.1</ele>
        <time>2022-04-17T08:46:04Z</time>
      </trkpt>
      <trkpt lat="50.01673" lon="2.04193">
        <ele>12</ele>
        <time>2022-04-17T08:46:05Z</time>
      </trkpt>
      <trkpt lat="50.01674" lon="2.04189">
        <ele>12</ele>
        <time>2022-04-17T08:46:06Z</time>
      </trkpt>
      <trkpt lat="50.01674" lon="2.04188">
        <ele>12</ele>
        <time>2022-04-17T08:46:07Z</time>
      </trkpt>
      <trkpt lat="50.01674" lon="2.04187">
        <ele>11.9</ele>
        <time>2022-04-17T08:46:08Z</time>
      </trkpt>
      <trkpt lat="50.01675" lon="2.04185">
        <ele>11.9</ele>
        <time>2022-04-17T08:46:09Z</time>
      </trkpt>
      <trkpt lat="50.01676" lon="2.04183">
        <ele>11.8</ele>
        <time>2022-04-17T08:46:10Z</time>
      </trkpt>
      <trkpt lat="50.01677" lon="2.04182">
        <ele>11.8</ele>
        <time>2022-04-17T08:46:12Z</time>
      </trkpt>
      <trkpt lat="50.01678" lon="2.04181">
        <ele>11.7</ele>
        <time>2022-04-17T08:46:13Z</time>
      </trkpt>
      <trkpt lat="50.01678" lon="2.04179">
        <ele>11.7</ele>
        <time>2022-04-17T08:46:14Z</time>
      </trkpt>
      <trkpt lat="50.01679" lon="2.04178">
        <ele>11.6</ele>
        <time>2022-04-17T08:46:15Z</time>
      </trkpt>
      <trkpt lat="50.0168" lon="2.04177">
        <ele>11.6</ele>
        <time>2022-04-17T08:46:16Z</time>
      </trkpt>
      <trkpt lat="50.0168" lon="2.04176">
        <ele>11.5</ele>
        <time>2022-04-17T08:46:17Z</time>
      </trkpt>
      <trkpt lat="50.01681" lon="2.04176">
        <ele>11.5</ele>
        <time>2022-04-17T08:46:18Z</time>
      </trkpt>
      <trkpt lat="50.01682" lon="2.04177">
        <ele>11.5</ele>
        <time>2022-04-17T08:46:20Z</time>
      </trkpt>
      <trkpt lat="50.01682" lon="2.04177">
        <ele>11.5</ele>
        <time>2022-04-17T08:46:21Z</time>
      </trkpt>
      <trkpt lat="50.01683" lon="2.04177">
        <ele>11.5</ele>
        <time>2022-04-17T08:46:22Z</time>
      </trkpt>
      <trkpt lat="50.01684" lon="2.04177">
        <ele>11.5</ele>
        <time>2022-04-17T08:46:23Z</time>
      </trkpt>
      <trkpt lat="50.01686" lon="2.04177">
        <ele>11.5</ele>
        <time>2022-04-17T08:46:24Z</time>
      </trkpt>
      <trkpt lat="50.01686" lon="2.04178">
        <ele>11.5</ele>
        <time>2022-04-17T08:46:25Z</time>
      </trkpt>
      <trkpt lat="50.01687" lon="2.04178">
        <ele>11.5</ele>
        <time>2022-04-17T08:46:26Z</time>
      </trkpt>
      <trkpt lat="50.01688" lon="2.04179">
        <ele>11.5</ele>
        <time>2022-04-17T08:46:28Z</time>
      </trkpt>
      <trkpt lat="50.0169" lon="2.04179">
        <ele>11.5</ele>
        <time>2022-04-17T08:46:29Z</time>
      </trkpt>
      <trkpt lat="50.01691" lon="2.0418">
        <ele>11.5</ele>
        <time>2022-04-17T08:46:30Z</time>
      </trkpt>
      <trkpt lat="50.01693" lon="2.04181">
        <ele>11.5</ele>
        <time>2022-04-17T08:46:31Z</time>
      </trkpt>
      <trkpt lat="50.01696" lon="2.04183">
        <ele>11.5</ele>
        <time>2022-04-17T08:46:32Z</time>
      </trkpt>
      <trkpt lat="50.01696" lon="2.04184">
        <ele>11.5</ele>
        <time>2022-04-17T08:46:33Z</time>
      </trkpt>
      <trkpt lat="50.01699" lon="2.04187">
        <ele>11.5</ele>
        <time>2022-04-17T08:46:35Z</time>
      </trkpt>
      <trkpt lat="50.01701" lon="2.04188">
        <ele>11.5</ele>
        <time>2022-04-17T08:46:36Z</time>
      </trkpt>
      <trkpt lat="50.01703" lon="2.04189">
        <ele>11.5</ele>
        <time>2022-04-17T08:46:37Z</time>
      </trkpt>
      <trkpt lat="50.01704" lon="2.0419">
        <ele>11.5</ele>
        <time>2022-04-17T08:46:38Z</time>
      </trkpt>
      <trkpt lat="50.01707" lon="2.04192">
        <ele>11.4</ele>
        <time>2022-04-17T08:46:39Z</time>
      </trkpt>
      <trkpt lat="50.01708" lon="2.04193">
        <ele>11.4</ele>
        <time>2022-04-17T08:46:40Z</time>
      </trkpt>
      <trkpt lat="50.0171" lon="2.04194">
        <ele>11.4</ele>
        <time>2022-04-17T08:46:41Z</time>
      </trkpt>
      <trkpt lat="50.01711" lon="2.04196">
        <ele>11.4</ele>
        <time>2022-04-17T08:46:43Z</time>
      </trkpt>
      <trkpt lat="50.01713" lon="2.04197">
        <ele>11.4</ele>
        <time>2022-04-17T08:46:44Z</time>
      </trkpt>
      <trkpt lat="50.01715" lon="2.04198">
        <ele>11.4</ele>
        <time>2022-04-17T08:46:45Z</time>
      </trkpt>
      <trkpt lat="50.01716" lon="2.04199">
        <ele>11.4</ele>
        <time>2022-04-17T08:46:46Z</time>
      </trkpt>
      <trkpt lat="50.01718" lon="2.042">
        <ele>11.4</ele>
        <time>2022-04-17T08:46:47Z</time>
      </trkpt>
      <trkpt lat="50.0172" lon="2.04202">
        <ele>11.4</ele>
        <time>2022-04-17T08:46:49Z</time>
      </trkpt>
      <trkpt lat="50.01721" lon="2.04203">
        <ele>11.4</ele>
        <time>2022-04-17T08:46:51Z</time>
      </trkpt>
      <trkpt lat="50.01722" lon="2.04204">
        <ele>11.4</ele>
        <time>2022-04-17T08:46:52Z</time>
      </trkpt>
      <trkpt lat="50.01722" lon="2.04204">
        <ele>11.4</ele>
        <time>2022-04-17T08:46:53Z</time>
      </trkpt>
      <trkpt lat="50.01724" lon="2.04205">
        <ele>11.4</ele>
        <time>2022-04-17T08:46:54Z</time>
      </trkpt>
      <trkpt lat="50.01726" lon="2.04206">
        <ele>11.4</ele>
        <time>2022-04-17T08:46:56Z</time>
      </trkpt>
      <trkpt lat="50.01727" lon="2.04207">
        <ele>11.4</ele>
        <time>2022-04-17T08:46:58Z</time>
      </trkpt>
      <trkpt lat="50.01729" lon="2.04208">
        <ele>11.4</ele>
        <time>2022-04-17T08:46:59Z</time>
      </trkpt>
      <trkpt lat="50.0173" lon="2.04209">
        <ele>11.4</ele>
        <time>2022-04-17T08:47:00Z</time>
      </trkpt>
      <trkpt lat="50.01732" lon="2.0421">
        <ele>11.4</ele>
        <time>2022-04-17T08:47:01Z</time>
      </trkpt>
      <trkpt lat="50.01734" lon="2.04212">
        <ele>11.4</ele>
        <time>2022-04-17T08:47:03Z</time>
      </trkpt>
      <trkpt lat="50.01736" lon="2.04214">
        <ele>11.4</ele>
        <time>2022-04-17T08:47:05Z</time>
      </trkpt>
      <trkpt lat="50.01739" lon="2.04216">
        <ele>11.4</ele>
        <time>2022-04-17T08:47:06Z</time>
      </trkpt>
      <trkpt lat="50.0174" lon="2.04217">
        <ele>11.4</ele>
        <time>2022-04-17T08:47:07Z</time>
      </trkpt>
      <trkpt lat="50.01742" lon="2.04218">
        <ele>11.4</ele>
        <time>2022-04-17T08:47:08Z</time>
      </trkpt>
      <trkpt lat="50.01743" lon="2.04219">
        <ele>11.4</ele>
        <time>2022-04-17T08:47:10Z</time>
      </trkpt>
      <trkpt lat="50.01744" lon="2.0422">
        <ele>11.4</ele>
        <time>2022-04-17T08:47:11Z</time>
      </trkpt>
      <trkpt lat="50.01746" lon="2.0422">
        <ele>11.4</ele>
        <time>2022-04-17T08:47:12Z</time>
      </trkpt>
      <trkpt lat="50.01747" lon="2.04221">
        <ele>11.4</ele>
        <time>2022-04-17T08:47:13Z</time>
      </trkpt>
      <trkpt lat="50.01748" lon="2.04221">
        <ele>11.4</ele>
        <time>2022-04-17T08:47:14Z</time>
      </trkpt>
      <trkpt lat="50.0175" lon="2.04221">
        <ele>11.4</ele>
        <time>2022-04-17T08:47:15Z</time>
      </trkpt>
      <trkpt lat="50.01752" lon="2.04221">
        <ele>11.4</ele>
        <time>2022-04-17T08:47:17Z</time>
      </trkpt>
      <trkpt lat="50.01753" lon="2.0422">
        <ele>11.4</ele>
        <time>2022-04-17T08:47:18Z</time>
      </trkpt>
      <trkpt lat="50.01754" lon="2.04219">
        <ele>11.4</ele>
        <time>2022-04-17T08:47:19Z</time>
      </trkpt>
      <trkpt lat="50.01755" lon="2.04219">
        <ele>11.4</ele>
        <time>2022-04-17T08:47:20Z</time>
      </trkpt>
      <trkpt lat="50.01756" lon="2.04219">
        <ele>11.3</ele>
        <time>2022-04-17T08:47:21Z</time>
      </trkpt>
      <trkpt lat="50.01757" lon="2.04219">
        <ele>11.3</ele>
        <time>2022-04-17T08:47:22Z</time>
      </trkpt>
      <trkpt lat="50.01758" lon="2.04219">
        <ele>11.3</ele>
        <time>2022-04-17T08:47:23Z</time>
      </trkpt>
      <trkpt lat="50.01758" lon="2.04218">
        <ele>11.3</ele>
        <time>2022-04-17T08:47:25Z</time>
      </trkpt>
      <trkpt lat="50.01759" lon="2.04217">
        <ele>11.3</ele>
        <time>2022-04-17T08:47:26Z</time>
      </trkpt>
      <trkpt lat="50.0176" lon="2.04217">
        <ele>11.3</ele>
        <time>2022-04-17T08:47:27Z</time>
      </trkpt>
      <trkpt lat="50.01761" lon="2.04217">
        <ele>11.3</ele>
        <time>2022-04-17T08:47:28Z</time>
      </trkpt>
      <trkpt lat="50.01762" lon="2.04217">
        <ele>11.3</ele>
        <time>2022-04-17T08:47:29Z</time>
      </trkpt>
      <trkpt lat="50.01763" lon="2.04217">
        <ele>11.3</ele>
        <time>2022-04-17T08:47:30Z</time>
      </trkpt>
      <trkpt lat="50.01765" lon="2.04216">
        <ele>11.3</ele>
        <time>2022-04-17T08:47:31Z</time>
      </trkpt>
      <trkpt lat="50.01765" lon="2.04216">
        <ele>11.3</ele>
        <time>2022-04-17T08:47:33Z</time>
      </trkpt>
      <trkpt lat="50.01766" lon="2.04217">
        <ele>11.3</ele>
        <time>2022-04-17T08:47:34Z</time>
      </trkpt>
      <trkpt lat="50.01768" lon="2.04217">
        <ele>11.3</ele>
        <time>2022-04-17T08:47:35Z</time>
      </trkpt>
      <trkpt lat="50.01769" lon="2.04217">
        <ele>11.3</ele>
        <time>2022-04-17T08:47:36Z</time>
      </trkpt>
      <trkpt lat="50.0177" lon="2.04218">
        <ele>11.3</ele>
        <time>2022-04-17T08:47:37Z</time>
      </trkpt>
      <trkpt lat="50.01771" lon="2.04218">
        <ele>11.3</ele>
        <time>2022-04-17T08:47:38Z</time>
      </trkpt>
      <trkpt lat="50.01772" lon="2.04218">
        <ele>11.3</ele>
        <time>2022-04-17T08:47:39Z</time>
      </trkpt>
      <trkpt lat="50.01773" lon="2.04219">
        <ele>11.3</ele>
        <time>2022-04-17T08:47:41Z</time>
      </trkpt>
      <trkpt lat="50.01773" lon="2.04219">
        <ele>11.3</ele>
        <time>2022-04-17T08:47:42Z</time>
      </trkpt>
      <trkpt lat="50.01774" lon="2.04219">
        <ele>11.3</ele>
        <time>2022-04-17T08:47:43Z</time>
      </trkpt>
      <trkpt lat="50.01775" lon="2.04219">
        <ele>11.3</ele>
        <time>2022-04-17T08:47:44Z</time>
      </trkpt>
      <trkpt lat="50.01777" lon="2.0422">
        <ele>11.3</ele>
        <time>2022-04-17T08:47:45Z</time>
      </trkpt>
      <trkpt lat="50.01778" lon="2.0422">
        <ele>11.3</ele>
        <time>2022-04-17T08:47:46Z</time>
      </trkpt>
      <trkpt lat="50.01779" lon="2.04221">
        <ele>11.3</ele>
        <time>2022-04-17T08:47:47Z</time>
      </trkpt>
      <trkpt lat="50.01781" lon="2.04222">
        <ele>11.3</ele>
        <time>2022-04-17T08:47:49Z</time>
      </trkpt>
      <trkpt lat="50.01782" lon="2.04222">
        <ele>11.3</ele>
        <time>2022-04-17T08:47:50Z</time>
      </trkpt>
      <trkpt lat="50.01784" lon="2.04223">
        <ele>11.3</ele>
        <time>2022-04-17T08:47:51Z</time>
      </trkpt>
      <trkpt lat="50.01785" lon="2.04223">
        <ele>11.2</ele>
        <time>2022-04-17T08:47:52Z</time>
      </trkpt>
      <trkpt lat="50.01787" lon="2.04224">
        <ele>11.2</ele>
        <time>2022-04-17T08:47:53Z</time>
      </trkpt>
      <trkpt lat="50.01789" lon="2.04224">
        <ele>11.2</ele>
        <time>2022-04-17T08:47:55Z</time>
      </trkpt>
      <trkpt lat="50.0179" lon="2.04224">
        <ele>11.2</ele>
        <time>2022-04-17T08:47:56Z</time>
      </trkpt>
      <trkpt lat="50.01791" lon="2.04223">
        <ele>11.2</ele>
        <time>2022-04-17T08:47:57Z</time>
      </trkpt>
      <trkpt lat="50.01791" lon="2.04223">
        <ele>11.2</ele>
        <time>2022-04-17T08:47:58Z</time>
      </trkpt>
      <trkpt lat="50.01789" lon="2.0422">
        <ele>11.2</ele>
        <time>2022-04-17T08:47:59Z</time>
      </trkpt>
      <trkpt lat="50.01789" lon="2.04219">
        <ele>11.2</ele>
        <time>2022-04-17T08:48:01Z</time>
      </trkpt>
      <trkpt lat="50.0179" lon="2.04219">
        <ele>11.2</ele>
        <time>2022-04-17T08:48:03Z</time>
      </trkpt>
      <trkpt lat="50.01791" lon="2.04219">
        <ele>11.2</ele>
        <time>2022-04-17T08:48:04Z</time>
      </trkpt>
      <trkpt lat="50.01793" lon="2.04217">
        <ele>11.2</ele>
        <time>2022-04-17T08:48:06Z</time>
      </trkpt>
      <trkpt lat="50.01794" lon="2.04217">
        <ele>11.2</ele>
        <time>2022-04-17T08:48:07Z</time>
      </trkpt>
      <trkpt lat="50.01795" lon="2.04216">
        <ele>11.2</ele>
        <time>2022-04-17T08:48:08Z</time>
      </trkpt>
      <trkpt lat="50.01798" lon="2.04214">
        <ele>11.2</ele>
        <time>2022-04-17T08:48:10Z</time>
      </trkpt>
      <trkpt lat="50.018" lon="2.04213">
        <ele>11.2</ele>
        <time>2022-04-17T08:48:11Z</time>
      </trkpt>
      <trkpt lat="50.01801" lon="2.04213">
        <ele>11.2</ele>
        <time>2022-04-17T08:48:12Z</time>
      </trkpt>
      <trkpt lat="50.01802" lon="2.04211">
        <ele>11.2</ele>
        <time>2022-04-17T08:48:14Z</time>
      </trkpt>
      <trkpt lat="50.01804" lon="2.04209">
        <ele>11.2</ele>
        <time>2022-04-17T08:48:15Z</time>
      </trkpt>
      <trkpt lat="50.01806" lon="2.04207">
        <ele>11.2</ele>
        <time>2022-04-17T08:48:16Z</time>
      </trkpt>
      <trkpt lat="50.01806" lon="2.04206">
        <ele>11.2</ele>
        <time>2022-04-17T08:48:17Z</time>
      </trkpt>
      <trkpt lat="50.01807" lon="2.04206">
        <ele>11.2</ele>
        <time>2022-04-17T08:48:19Z</time>
      </trkpt>
      <trkpt lat="50.01807" lon="2.04205">
        <ele>11.2</ele>
        <time>2022-04-17T08:48:20Z</time>
      </trkpt>
      <trkpt lat="50.01808" lon="2.04204">
        <ele>11.2</ele>
        <time>2022-04-17T08:48:22Z</time>
      </trkpt>
      <trkpt lat="50.01808" lon="2.04203">
        <ele>11.2</ele>
        <time>2022-04-17T08:48:23Z</time>
      </trkpt>
      <trkpt lat="50.01809" lon="2.04203">
        <ele>11.2</ele>
        <time>2022-04-17T08:48:24Z</time>
      </trkpt>
      <trkpt lat="50.0181" lon="2.04201">
        <ele>11.2</ele>
        <time>2022-04-17T08:48:25Z</time>
      </trkpt>
      <trkpt lat="50.01811" lon="2.042">
        <ele>11.2</ele>
        <time>2022-04-17T08:48:26Z</time>
      </trkpt>
      <trkpt lat="50.01812" lon="2.042">
        <ele>11.2</ele>
        <time>2022-04-17T08:48:27Z</time>
      </trkpt>
      <trkpt lat="50.01814" lon="2.04198">
        <ele>11.2</ele>
        <time>2022-04-17T08:48:28Z</time>
      </trkpt>
      <trkpt lat="50.01814" lon="2.04197">
        <ele>11.2</ele>
        <time>2022-04-17T08:48:30Z</time>
      </trkpt>
      <trkpt lat="50.01815" lon="2.04197">
        <ele>11.2</ele>
        <time>2022-04-17T08:48:32Z</time>
      </trkpt>
      <trkpt lat="50.01816" lon="2.04196">
        <ele>11.2</ele>
        <time>2022-04-17T08:48:33Z</time>
      </trkpt>
      <trkpt lat="50.01817" lon="2.04196">
        <ele>11.2</ele>
        <time>2022-04-17T08:48:34Z</time>
      </trkpt>
      <trkpt lat="50.01818" lon="2.04195">
        <ele>11.2</ele>
        <time>2022-04-17T08:48:35Z</time>
      </trkpt>
      <trkpt lat="50.01819" lon="2.04195">
        <ele>11.2</ele>
        <time>2022-04-17T08:48:36Z</time>
      </trkpt>
      <trkpt lat="50.0182" lon="2.04195">
        <ele>11.2</ele>
        <time>2022-04-17T08:48:37Z</time>
      </trkpt>
      <trkpt lat="50.01821" lon="2.04195">
        <ele>11.2</ele>
        <time>2022-04-17T08:48:39Z</time>
      </trkpt>
      <trkpt lat="50.01823" lon="2.04194">
        <ele>11.2</ele>
        <time>2022-04-17T08:48:40Z</time>
      </trkpt>
      <trkpt lat="50.01824" lon="2.04194">
        <ele>11.2</ele>
        <time>2022-04-17T08:48:41Z</time>
      </trkpt>
      <trkpt lat="50.01826" lon="2.04193">
        <ele>11.2</ele>
        <time>2022-04-17T08:48:42Z</time>
      </trkpt>
      <trkpt lat="50.01827" lon="2.04193">
        <ele>11.2</ele>
        <time>2022-04-17T08:48:43Z</time>
      </trkpt>
      <trkpt lat="50.01829" lon="2.04192">
        <ele>11.2</ele>
        <time>2022-04-17T08:48:44Z</time>
      </trkpt>
      <trkpt lat="50.0183" lon="2.04192">
        <ele>11.2</ele>
        <time>2022-04-17T08:48:45Z</time>
      </trkpt>
      <trkpt lat="50.01831" lon="2.04191">
        <ele>11.2</ele>
        <time>2022-04-17T08:48:47Z</time>
      </trkpt>
      <trkpt lat="50.01832" lon="2.04191">
        <ele>11.2</ele>
        <time>2022-04-17T08:48:48Z</time>
      </trkpt>
      <trkpt lat="50.01833" lon="2.04191">
        <ele>11.2</ele>
        <time>2022-04-17T08:48:49Z</time>
      </trkpt>
      <trkpt lat="50.01834" lon="2.0419">
        <ele>11.2</ele>
        <time>2022-04-17T08:48:50Z</time>
      </trkpt>
      <trkpt lat="50.01835" lon="2.04191">
        <ele>11.2</ele>
        <time>2022-04-17T08:48:51Z</time>
      </trkpt>
      <trkpt lat="50.01836" lon="2.04193">
        <ele>11.2</ele>
        <time>2022-04-17T08:48:53Z</time>
      </trkpt>
      <trkpt lat="50.01836" lon="2.04194">
        <ele>11.2</ele>
        <time>2022-04-17T08:48:54Z</time>
      </trkpt>
      <trkpt lat="50.01835" lon="2.04194">
        <ele>11.2</ele>
        <time>2022-04-17T08:48:55Z</time>
      </trkpt>
      <trkpt lat="50.01835" lon="2.04195">
        <ele>11.2</ele>
        <time>2022-04-17T08:48:56Z</time>
      </trkpt>
      <trkpt lat="50.01835" lon="2.04195">
        <ele>11.2</ele>
        <time>2022-04-17T08:48:58Z</time>
      </trkpt>
      <trkpt lat="50.01835" lon="2.04195">
        <ele>11.2</ele>
        <time>2022-04-17T08:49:00Z</time>
      </trkpt>
      <trkpt lat="50.01835" lon="2.04195">
        <ele>11.2</ele>
        <time>2022-04-17T08:49:01Z</time>
      </trkpt>
      <trkpt lat="50.01835" lon="2.04195">
        <ele>11.2</ele>
        <time>2022-04-17T08:49:03Z</time>
      </trkpt>
      <trkpt lat="50.01835" lon="2.04195">
        <ele>11.2</ele>
        <time>2022-04-17T08:49:04Z</time>
      </trkpt>
      <trkpt lat="50.01835" lon="2.04195">
        <ele>11.2</ele>
        <time>2022-04-17T08:49:05Z</time>
      </trkpt>
      <trkpt lat="50.01835" lon="2.04195">
        <ele>11.2</ele>
        <time>2022-04-17T08:49:06Z</time>
      </trkpt>
      <trkpt lat="50.01835" lon="2.04195">
        <ele>11.2</ele>
        <time>2022-04-17T08:49:07Z</time>
      </trkpt>
      <trkpt lat="50.01835" lon="2.04195">
        <ele>11.2</ele>
        <time>2022-04-17T08:49:08Z</time>
      </trkpt>
      <trkpt lat="50.01835" lon="2.04195">
        <ele>11.2</ele>
        <time>2022-04-17T08:49:10Z</time>
      </trkpt>
      <trkpt lat="50.01835" lon="2.04194">
        <ele>11.2</ele>
        <time>2022-04-17T08:49:11Z</time>
      </trkpt>
      <trkpt lat="50.01835" lon="2.04194">
        <ele>11.2</ele>
        <time>2022-04-17T08:49:13Z</time>
      </trkpt>
      <trkpt lat="50.01835" lon="2.04194">
        <ele>11.2</ele>
        <time>2022-04-17T08:49:14Z</time>
      </trkpt>
      <trkpt lat="50.01835" lon="2.04194">
        <ele>11.2</ele>
        <time>2022-04-17T08:49:15Z</time>
      </trkpt>
      <trkpt lat="50.01835" lon="2.04194">
        <ele>11.2</ele>
        <time>2022-04-17T08:49:16Z</time>
      </trkpt>
      <trkpt lat="50.01835" lon="2.04194">
        <ele>11.2</ele>
        <time>2022-04-17T08:49:18Z</time>
      </trkpt>
      <trkpt lat="50.01835" lon="2.04194">
        <ele>11.2</ele>
        <time>2022-04-17T08:49:19Z</time>
      </trkpt>
      <trkpt lat="50.01835" lon="2.04194">
        <ele>11.2</ele>
        <time>2022-04-17T08:49:20Z</time>
      </trkpt>
      <trkpt lat="50.01835" lon="2.04194">
        <ele>11.2</ele>
        <time>2022-04-17T08:49:21Z</time>
      </trkpt>
      <trkpt lat="50.01834" lon="2.04195">
        <ele>11.2</ele>
        <time>2022-04-17T08:49:23Z</time>
      </trkpt>
      <trkpt lat="50.01835" lon="2.04196">
        <ele>11.2</ele>
        <time>2022-04-17T08:49:24Z</time>
      </trkpt>
      <trkpt lat="50.01835" lon="2.04196">
        <ele>11.2</ele>
        <time>2022-04-17T08:49:25Z</time>
      </trkpt>
      <trkpt lat="50.01835" lon="2.04196">
        <ele>11.2</ele>
        <time>2022-04-17T08:49:26Z</time>
      </trkpt>
      <trkpt lat="50.01835" lon="2.04197">
        <ele>11.2</ele>
        <time>2022-04-17T08:49:28Z</time>
      </trkpt>
      <trkpt lat="50.01835" lon="2.04197">
        <ele>11.2</ele>
        <time>2022-04-17T08:49:29Z</time>
      </trkpt>
      <trkpt lat="50.01835" lon="2.04197">
        <ele>11.2</ele>
        <time>2022-04-17T08:49:31Z</time>
      </trkpt>
      <trkpt lat="50.01836" lon="2.04197">
        <ele>11.2</ele>
        <time>2022-04-17T08:49:33Z</time>
      </trkpt>
      <trkpt lat="50.01837" lon="2.04197">
        <ele>11.2</ele>
        <time>2022-04-17T08:49:34Z</time>
      </trkpt>
      <trkpt lat="50.01838" lon="2.04197">
        <ele>11.2</ele>
        <time>2022-04-17T08:49:35Z</time>
      </trkpt>
      <trkpt lat="50.0184" lon="2.04197">
        <ele>11.2</ele>
        <time>2022-04-17T08:49:36Z</time>
      </trkpt>
      <trkpt lat="50.0184" lon="2.04197">
        <ele>11.2</ele>
        <time>2022-04-17T08:49:37Z</time>
      </trkpt>
      <trkpt lat="50.01841" lon="2.04197">
        <ele>11.1</ele>
        <time>2022-04-17T08:49:38Z</time>
      </trkpt>
      <trkpt lat="50.01842" lon="2.04196">
        <ele>11.1</ele>
        <time>2022-04-17T08:49:39Z</time>
      </trkpt>
      <trkpt lat="50.01843" lon="2.04196">
        <ele>11.1</ele>
        <time>2022-04-17T08:49:41Z</time>
      </trkpt>
      <trkpt lat="50.01844" lon="2.04194">
        <ele>11.1</ele>
        <time>2022-04-17T08:49:42Z</time>
      </trkpt>
      <trkpt lat="50.01846" lon="2.04193">
        <ele>11.1</ele>
        <time>2022-04-17T08:49:43Z</time>
      </trkpt>
      <trkpt lat="50.01847" lon="2.04192">
        <ele>11.1</ele>
        <time>2022-04-17T08:49:44Z</time>
      </trkpt>
      <trkpt lat="50.01847" lon="2.0419">
        <ele>11.1</ele>
        <time>2022-04-17T08:49:46Z</time>
      </trkpt>
      <trkpt lat="50.01848" lon="2.04189">
        <ele>11.1</ele>
        <time>2022-04-17T08:49:47Z</time>
      </trkpt>
      <trkpt lat="50.01849" lon="2.04188">
        <ele>11.1</ele>
        <time>2022-04-17T08:49:48Z</time>
      </trkpt>
      <trkpt lat="50.0185" lon="2.04187">
        <ele>11.1</ele>
        <time>2022-04-17T08:49:49Z</time>
      </trkpt>
      <trkpt lat="50.01851" lon="2.04186">
        <ele>11.1</ele>
        <time>2022-04-17T08:49:50Z</time>
      </trkpt>
      <trkpt lat="50.01852" lon="2.04186">
        <ele>11.1</ele>
        <time>2022-04-17T08:49:52Z</time>
      </trkpt>
      <trkpt lat="50.01853" lon="2.04186">
        <ele>11.1</ele>
        <time>2022-04-17T08:49:53Z</time>
      </trkpt>
      <trkpt lat="50.01853" lon="2.04186">
        <ele>11.1</ele>
        <time>2022-04-17T08:49:54Z</time>
      </trkpt>
      <trkpt lat="50.01854" lon="2.04186">
        <ele>11.1</ele>
        <time>2022-04-17T08:49:55Z</time>
      </trkpt>
      <trkpt lat="50.01855" lon="2.04185">
        <ele>11.1</ele>
        <time>2022-04-17T08:49:56Z</time>
      </trkpt>
      <trkpt lat="50.01857" lon="2.04183">
        <ele>11.1</ele>
        <time>2022-04-17T08:49:58Z</time>
      </trkpt>
      <trkpt lat="50.01858" lon="2.04181">
        <ele>11.1</ele>
        <time>2022-04-17T08:50:00Z</time>
      </trkpt>
      <trkpt lat="50.01859" lon="2.04181">
        <ele>11.1</ele>
        <time>2022-04-17T08:50:01Z</time>
      </trkpt>
      <trkpt lat="50.01861" lon="2.04179">
        <ele>11.1</ele>
        <time>2022-04-17T08:50:02Z</time>
      </trkpt>
      <trkpt lat="50.01862" lon="2.04179">
        <ele>11.1</ele>
        <time>2022-04-17T08:50:03Z</time>
      </trkpt>
      <trkpt lat="50.01862" lon="2.04178">
        <ele>11.1</ele>
        <time>2022-04-17T08:50:04Z</time>
      </trkpt>
      <trkpt lat="50.01864" lon="2.04177">
        <ele>11.1</ele>
        <time>2022-04-17T08:50:05Z</time>
      </trkpt>
      <trkpt lat="50.01865" lon="2.04176">
        <ele>11.1</ele>
        <time>2022-04-17T08:50:06Z</time>
      </trkpt>
      <trkpt lat="50.01865" lon="2.04176">
        <ele>11.1</ele>
        <time>2022-04-17T08:50:07Z</time>
      </trkpt>
      <trkpt lat="50.01868" lon="2.04175">
        <ele>11.1</ele>
        <time>2022-04-17T08:50:09Z</time>
      </trkpt>
      <trkpt lat="50.01869" lon="2.04175">
        <ele>11.1</ele>
        <time>2022-04-17T08:50:10Z</time>
      </trkpt>
      <trkpt lat="50.01871" lon="2.04173">
        <ele>11.1</ele>
        <time>2022-04-17T08:50:12Z</time>
      </trkpt>
      <trkpt lat="50.01872" lon="2.04172">
        <ele>11.1</ele>
        <time>2022-04-17T08:50:14Z</time>
      </trkpt>
      <trkpt lat="50.01874" lon="2.04171">
        <ele>11.1</ele>
        <time>2022-04-17T08:50:15Z</time>
      </trkpt>
      <trkpt lat="50.01876" lon="2.0417">
        <ele>11.1</ele>
        <time>2022-04-17T08:50:17Z</time>
      </trkpt>
      <trkpt lat="50.01878" lon="2.04169">
        <ele>11.1</ele>
        <time>2022-04-17T08:50:18Z</time>
      </trkpt>
      <trkpt lat="50.01879" lon="2.04169">
        <ele>11.1</ele>
        <time>2022-04-17T08:50:19Z</time>
      </trkpt>
      <trkpt lat="50.0188" lon="2.04168">
        <ele>11.1</ele>
        <time>2022-04-17T08:50:20Z</time>
      </trkpt>
      <trkpt lat="50.01881" lon="2.04167">
        <ele>11.1</ele>
        <time>2022-04-17T08:50:21Z</time>
      </trkpt>
      <trkpt lat="50.01883" lon="2.04166">
        <ele>11.1</ele>
        <time>2022-04-17T08:50:22Z</time>
      </trkpt>
      <trkpt lat="50.01884" lon="2.04166">
        <ele>11</ele>
        <time>2022-04-17T08:50:23Z</time>
      </trkpt>
      <trkpt lat="50.01885" lon="2.04165">
        <ele>11</ele>
        <time>2022-04-17T08:50:24Z</time>
      </trkpt>
      <trkpt lat="50.01886" lon="2.04164">
        <ele>11</ele>
        <time>2022-04-17T08:50:26Z</time>
      </trkpt>
      <trkpt lat="50.01888" lon="2.04162">
        <ele>11</ele>
        <time>2022-04-17T08:50:27Z</time>
      </trkpt>
      <trkpt lat="50.01889" lon="2.04161">
        <ele>11</ele>
        <time>2022-04-17T08:50:28Z</time>
      </trkpt>
      <trkpt lat="50.0189" lon="2.04161">
        <ele>11</ele>
        <time>2022-04-17T08:50:29Z</time>
      </trkpt>
      <trkpt lat="50.01892" lon="2.04159">
        <ele>11</ele>
        <time>2022-04-17T08:50:31Z</time>
      </trkpt>
      <trkpt lat="50.01894" lon="2.04158">
        <ele>11</ele>
        <time>2022-04-17T08:50:33Z</time>
      </trkpt>
      <trkpt lat="50.01895" lon="2.04158">
        <ele>11</ele>
        <time>2022-04-17T08:50:34Z</time>
      </trkpt>
      <trkpt lat="50.01896" lon="2.04158">
        <ele>11</ele>
        <time>2022-04-17T08:50:35Z</time>
      </trkpt>
      <trkpt lat="50.01897" lon="2.04157">
        <ele>11</ele>
        <time>2022-04-17T08:50:36Z</time>
      </trkpt>
      <trkpt lat="50.01898" lon="2.04156">
        <ele>11</ele>
        <time>2022-04-17T08:50:37Z</time>
      </trkpt>
      <trkpt lat="50.01899" lon="2.04154">
        <ele>11</ele>
        <time>2022-04-17T08:50:39Z</time>
      </trkpt>
      <trkpt lat="50.019" lon="2.04154">
        <ele>11</ele>
        <time>2022-04-17T08:50:41Z</time>
      </trkpt>
      <trkpt lat="50.01901" lon="2.04153">
        <ele>11</ele>
        <time>2022-04-17T08:50:42Z</time>
      </trkpt>
      <trkpt lat="50.01902" lon="2.04152">
        <ele>11</ele>
        <time>2022-04-17T08:50:43Z</time>
      </trkpt>
      <trkpt lat="50.01903" lon="2.04149">
        <ele>11</ele>
        <time>2022-04-17T08:50:44Z</time>
      </trkpt>
      <trkpt lat="50.01903" lon="2.04148">
        <ele>11</ele>
        <time>2022-04-17T08:50:45Z</time>
      </trkpt>
      <trkpt lat="50.01904" lon="2.04147">
        <ele>11</ele>
        <time>2022-04-17T08:50:46Z</time>
      </trkpt>
      <trkpt lat="50.01905" lon="2.04145">
        <ele>11</ele>
        <time>2022-04-17T08:50:47Z</time>
      </trkpt>
      <trkpt lat="50.01906" lon="2.04144">
        <ele>11</ele>
        <time>2022-04-17T08:50:48Z</time>
      </trkpt>
      <trkpt lat="50.01906" lon="2.04144">
        <ele>10.9</ele>
        <time>2022-04-17T08:50:49Z</time>
      </trkpt>
      <trkpt lat="50.01907" lon="2.04143">
        <ele>10.9</ele>
        <time>2022-04-17T08:50:51Z</time>
      </trkpt>
      <trkpt lat="50.01908" lon="2.04142">
        <ele>10.9</ele>
        <time>2022-04-17T08:50:52Z</time>
      </trkpt>
      <trkpt lat="50.0191" lon="2.04142">
        <ele>10.9</ele>
        <time>2022-04-17T08:50:53Z</time>
      </trkpt>
      <trkpt lat="50.01911" lon="2.04141">
        <ele>10.9</ele>
        <time>2022-04-17T08:50:54Z</time>
      </trkpt>
      <trkpt lat="50.01912" lon="2.0414">
        <ele>10.9</ele>
        <time>2022-04-17T08:50:55Z</time>
      </trkpt>
      <trkpt lat="50.01912" lon="2.04139">
        <ele>10.9</ele>
        <time>2022-04-17T08:50:56Z</time>
      </trkpt>
      <trkpt lat="50.01913" lon="2.04138">
        <ele>10.9</ele>
        <time>2022-04-17T08:50:57Z</time>
      </trkpt>
      <trkpt lat="50.01914" lon="2.04137">
        <ele>10.9</ele>
        <time>2022-04-17T08:50:59Z</time>
      </trkpt>
      <trkpt lat="50.01915" lon="2.04135">
        <ele>10.9</ele>
        <time>2022-04-17T08:51:00Z</time>
      </trkpt>
      <trkpt lat="50.01915" lon="2.04134">
        <ele>10.9</ele>
        <time>2022-04-17T08:51:01Z</time>
      </trkpt>
      <trkpt lat="50.01916" lon="2.04134">
        <ele>10.9</ele>
        <time>2022-04-17T08:51:02Z</time>
      </trkpt>
      <trkpt lat="50.01918" lon="2.04133">
        <ele>10.9</ele>
        <time>2022-04-17T08:51:03Z</time>
      </trkpt>
      <trkpt lat="50.01918" lon="2.04133">
        <ele>10.9</ele>
        <time>2022-04-17T08:51:04Z</time>
      </trkpt>
      <trkpt lat="50.01919" lon="2.04132">
        <ele>10.9</ele>
        <time>2022-04-17T08:51:06Z</time>
      </trkpt>
      <trkpt lat="50.0192" lon="2.04131">
        <ele>10.9</ele>
        <time>2022-04-17T08:51:07Z</time>
      </trkpt>
      <trkpt lat="50.01922" lon="2.04128">
        <ele>10.8</ele>
        <time>2022-04-17T08:51:08Z</time>
      </trkpt>
      <trkpt lat="50.01922" lon="2.04128">
        <ele>10.8</ele>
        <time>2022-04-17T08:51:09Z</time>
      </trkpt>
      <trkpt lat="50.01923" lon="2.04127">
        <ele>10.8</ele>
        <time>2022-04-17T08:51:10Z</time>
      </trkpt>
      <trkpt lat="50.01925" lon="2.04125">
        <ele>10.8</ele>
        <time>2022-04-17T08:51:11Z</time>
      </trkpt>
      <trkpt lat="50.01926" lon="2.04124">
        <ele>10.8</ele>
        <time>2022-04-17T08:51:12Z</time>
      </trkpt>
      <trkpt lat="50.01926" lon="2.04124">
        <ele>10.8</ele>
        <time>2022-04-17T08:51:14Z</time>
      </trkpt>
      <trkpt lat="50.01927" lon="2.04123">
        <ele>10.8</ele>
        <time>2022-04-17T08:51:15Z</time>
      </trkpt>
      <trkpt lat="50.01928" lon="2.04122">
        <ele>10.8</ele>
        <time>2022-04-17T08:51:16Z</time>
      </trkpt>
      <trkpt lat="50.01929" lon="2.04121">
        <ele>10.8</ele>
        <time>2022-04-17T08:51:17Z</time>
      </trkpt>
      <trkpt lat="50.0193" lon="2.0412">
        <ele>10.8</ele>
        <time>2022-04-17T08:51:18Z</time>
      </trkpt>
      <trkpt lat="50.01931" lon="2.04118">
        <ele>10.8</ele>
        <time>2022-04-17T08:51:19Z</time>
      </trkpt>
      <trkpt lat="50.01932" lon="2.04116">
        <ele>10.8</ele>
        <time>2022-04-17T08:51:21Z</time>
      </trkpt>
      <trkpt lat="50.01933" lon="2.04115">
        <ele>10.8</ele>
        <time>2022-04-17T08:51:22Z</time>
      </trkpt>
      <trkpt lat="50.01933" lon="2.04114">
        <ele>10.8</ele>
        <time>2022-04-17T08:51:23Z</time>
      </trkpt>
      <trkpt lat="50.01934" lon="2.04113">
        <ele>10.8</ele>
        <time>2022-04-17T08:51:24Z</time>
      </trkpt>
      <trkpt lat="50.01935" lon="2.04112">
        <ele>10.8</ele>
        <time>2022-04-17T08:51:25Z</time>
      </trkpt>
      <trkpt lat="50.01936" lon="2.04111">
        <ele>10.8</ele>
        <time>2022-04-17T08:51:26Z</time>
      </trkpt>
      <trkpt lat="50.01937" lon="2.0411">
        <ele>10.8</ele>
        <time>2022-04-17T08:51:27Z</time>
      </trkpt>
      <trkpt lat="50.01938" lon="2.04109">
        <ele>10.8</ele>
        <time>2022-04-17T08:51:29Z</time>
      </trkpt>
      <trkpt lat="50.01939" lon="2.04107">
        <ele>10.7</ele>
        <time>2022-04-17T08:51:30Z</time>
      </trkpt>
      <trkpt lat="50.0194" lon="2.04105">
        <ele>10.7</ele>
        <time>2022-04-17T08:51:31Z</time>
      </trkpt>
      <trkpt lat="50.01941" lon="2.04104">
        <ele>10.7</ele>
        <time>2022-04-17T08:51:32Z</time>
      </trkpt>
      <trkpt lat="50.01941" lon="2.04103">
        <ele>10.7</ele>
        <time>2022-04-17T08:51:33Z</time>
      </trkpt>
      <trkpt lat="50.01942" lon="2.04101">
        <ele>10.7</ele>
        <time>2022-04-17T08:51:34Z</time>
      </trkpt>
      <trkpt lat="50.01943" lon="2.041">
        <ele>10.7</ele>
        <time>2022-04-17T08:51:35Z</time>
      </trkpt>
      <trkpt lat="50.01943" lon="2.04098">
        <ele>10.7</ele>
        <time>2022-04-17T08:51:37Z</time>
      </trkpt>
      <trkpt lat="50.01944" lon="2.04095">
        <ele>10.7</ele>
        <time>2022-04-17T08:51:38Z</time>
      </trkpt>
      <trkpt lat="50.01944" lon="2.04093">
        <ele>10.7</ele>
        <time>2022-04-17T08:51:39Z</time>
      </trkpt>
      <trkpt lat="50.01945" lon="2.0409">
        <ele>10.7</ele>
        <time>2022-04-17T08:51:40Z</time>
      </trkpt>
      <trkpt lat="50.01945" lon="2.04089">
        <ele>10.7</ele>
        <time>2022-04-17T08:51:41Z</time>
      </trkpt>
      <trkpt lat="50.01945" lon="2.04088">
        <ele>10.7</ele>
        <time>2022-04-17T08:51:42Z</time>
      </trkpt>
      <trkpt lat="50.01945" lon="2.04087">
        <ele>10.7</ele>
        <time>2022-04-17T08:51:44Z</time>
      </trkpt>
      <trkpt lat="50.01946" lon="2.04085">
        <ele>10.7</ele>
        <time>2022-04-17T08:51:45Z</time>
      </trkpt>
      <trkpt lat="50.01947" lon="2.04083">
        <ele>10.7</ele>
        <time>2022-04-17T08:51:46Z</time>
      </trkpt>
      <trkpt lat="50.01948" lon="2.04082">
        <ele>10.7</ele>
        <time>2022-04-17T08:51:47Z</time>
      </trkpt>
      <trkpt lat="50.01949" lon="2.0408">
        <ele>10.7</ele>
        <time>2022-04-17T08:51:48Z</time>
      </trkpt>
      <trkpt lat="50.0195" lon="2.04078">
        <ele>10.7</ele>
        <time>2022-04-17T08:51:49Z</time>
      </trkpt>
      <trkpt lat="50.01951" lon="2.04077">
        <ele>10.7</ele>
        <time>2022-04-17T08:51:51Z</time>
      </trkpt>
      <trkpt lat="50.01952" lon="2.04076">
        <ele>10.7</ele>
        <time>2022-04-17T08:51:52Z</time>
      </trkpt>
      <trkpt lat="50.01953" lon="2.04075">
        <ele>10.7</ele>
        <time>2022-04-17T08:51:53Z</time>
      </trkpt>
      <trkpt lat="50.01954" lon="2.04074">
        <ele>10.7</ele>
        <time>2022-04-17T08:51:54Z</time>
      </trkpt>
      <trkpt lat="50.01955" lon="2.04071">
        <ele>10.7</ele>
        <time>2022-04-17T08:51:55Z</time>
      </trkpt>
      <trkpt lat="50.01956" lon="2.04069">
        <ele>10.7</ele>
        <time>2022-04-17T08:51:56Z</time>
      </trkpt>
      <trkpt lat="50.01957" lon="2.04068">
        <ele>10.7</ele>
        <time>2022-04-17T08:51:57Z</time>
      </trkpt>
      <trkpt lat="50.01957" lon="2.04067">
        <ele>10.7</ele>
        <time>2022-04-17T08:51:59Z</time>
      </trkpt>
      <trkpt lat="50.01958" lon="2.04066">
        <ele>10.7</ele>
        <time>2022-04-17T08:52:00Z</time>
      </trkpt>
      <trkpt lat="50.01959" lon="2.04064">
        <ele>10.7</ele>
        <time>2022-04-17T08:52:01Z</time>
      </trkpt>
      <trkpt lat="50.01961" lon="2.04061">
        <ele>10.7</ele>
        <time>2022-04-17T08:52:02Z</time>
      </trkpt>
      <trkpt lat="50.01961" lon="2.04061">
        <ele>10.7</ele>
        <time>2022-04-17T08:52:03Z</time>
      </trkpt>
      <trkpt lat="50.01961" lon="2.0406">
        <ele>10.7</ele>
        <time>2022-04-17T08:52:04Z</time>
      </trkpt>
      <trkpt lat="50.01962" lon="2.04059">
        <ele>10.7</ele>
        <time>2022-04-17T08:52:06Z</time>
      </trkpt>
      <trkpt lat="50.01963" lon="2.04057">
        <ele>10.7</ele>
        <time>2022-04-17T08:52:08Z</time>
      </trkpt>
      <trkpt lat="50.01964" lon="2.04057">
        <ele>10.7</ele>
        <time>2022-04-17T08:52:09Z</time>
      </trkpt>
      <trkpt lat="50.01964" lon="2.04058">
        <ele>10.7</ele>
        <time>2022-04-17T08:52:10Z</time>
      </trkpt>
      <trkpt lat="50.01965" lon="2.04059">
        <ele>10.7</ele>
        <time>2022-04-17T08:52:11Z</time>
      </trkpt>
      <trkpt lat="50.01964" lon="2.0406">
        <ele>10.7</ele>
        <time>2022-04-17T08:52:13Z</time>
      </trkpt>
      <trkpt lat="50.01964" lon="2.0406">
        <ele>10.7</ele>
        <time>2022-04-17T08:52:14Z</time>
      </trkpt>
      <trkpt lat="50.01964" lon="2.04061">
        <ele>10.7</ele>
        <time>2022-04-17T08:52:15Z</time>
      </trkpt>
      <trkpt lat="50.01964" lon="2.04061">
        <ele>10.7</ele>
        <time>2022-04-17T08:52:17Z</time>
      </trkpt>
      <trkpt lat="50.01964" lon="2.04061">
        <ele>10.7</ele>
        <time>2022-04-17T08:52:18Z</time>
      </trkpt>
      <trkpt lat="50.01964" lon="2.04061">
        <ele>10.7</ele>
        <time>2022-04-17T08:52:19Z</time>
      </trkpt>
      <trkpt lat="50.01964" lon="2.04061">
        <ele>10.7</ele>
        <time>2022-04-17T08:52:20Z</time>
      </trkpt>
      <trkpt lat="50.01964" lon="2.04061">
        <ele>10.7</ele>
        <time>2022-04-17T08:52:21Z</time>
      </trkpt>
      <trkpt lat="50.01964" lon="2.04061">
        <ele>10.7</ele>
        <time>2022-04-17T08:52:22Z</time>
      </trkpt>
      <trkpt lat="50.01964" lon="2.04061">
        <ele>10.7</ele>
        <time>2022-04-17T08:52:23Z</time>
      </trkpt>
      <trkpt lat="50.01963" lon="2.04061">
        <ele>10.7</ele>
        <time>2022-04-17T08:52:24Z</time>
      </trkpt>
      <trkpt lat="50.01964" lon="2.04061">
        <ele>10.7</ele>
        <time>2022-04-17T08:52:25Z</time>
      </trkpt>
      <trkpt lat="50.01963" lon="2.04061">
        <ele>10.7</ele>
        <time>2022-04-17T08:52:26Z</time>
      </trkpt>
      <trkpt lat="50.01963" lon="2.04061">
        <ele>10.7</ele>
        <time>2022-04-17T08:52:27Z</time>
      </trkpt>
      <trkpt lat="50.01963" lon="2.04061">
        <ele>10.7</ele>
        <time>2022-04-17T08:52:28Z</time>
      </trkpt>
      <trkpt lat="50.01963" lon="2.04061">
        <ele>10.7</ele>
        <time>2022-04-17T08:52:29Z</time>
      </trkpt>
      <trkpt lat="50.01963" lon="2.04061">
        <ele>10.7</ele>
        <time>2022-04-17T08:52:30Z</time>
      </trkpt>
      <trkpt lat="50.01963" lon="2.04061">
        <ele>10.7</ele>
        <time>2022-04-17T08:52:31Z</time>
      </trkpt>
      <trkpt lat="50.01963" lon="2.04061">
        <ele>10.7</ele>
        <time>2022-04-17T08:52:32Z</time>
      </trkpt>
      <trkpt lat="50.01963" lon="2.04061">
        <ele>10.7</ele>
        <time>2022-04-17T08:52:33Z</time>
      </trkpt>
      <trkpt lat="50.01963" lon="2.04061">
        <ele>10.7</ele>
        <time>2022-04-17T08:52:34Z</time>
      </trkpt>
      <trkpt lat="50.01963" lon="2.04061">
        <ele>10.7</ele>
        <time>2022-04-17T08:52:35Z</time>
      </trkpt>
      <trkpt lat="50.01963" lon="2.04061">
        <ele>10.7</ele>
        <time>2022-04-17T08:52:36Z</time>
      </trkpt>
      <trkpt lat="50.01963" lon="2.04061">
        <ele>10.7</ele>
        <time>2022-04-17T08:52:37Z</time>
      </trkpt>
      <trkpt lat="50.01963" lon="2.04061">
        <ele>10.7</ele>
        <time>2022-04-17T08:52:38Z</time>
      </trkpt>
      <trkpt lat="50.01963" lon="2.04061">
        <ele>10.7</ele>
        <time>2022-04-17T08:52:39Z</time>
      </trkpt>
      <trkpt lat="50.01963" lon="2.04061">
        <ele>10.7</ele>
        <time>2022-04-17T08:52:40Z</time>
      </trkpt>
      <trkpt lat="50.01963" lon="2.04061">
        <ele>10.7</ele>
        <time>2022-04-17T08:52:41Z</time>
      </trkpt>
      <trkpt lat="50.01963" lon="2.04061">
        <ele>10.7</ele>
        <time>2022-04-17T08:52:42Z</time>
      </trkpt>
      <trkpt lat="50.01963" lon="2.04061">
        <ele>10.7</ele>
        <time>2022-04-17T08:52:43Z</time>
      </trkpt>
      <trkpt lat="50.01963" lon="2.04061">
        <ele>10.7</ele>
        <time>2022-04-17T08:52:44Z</time>
      </trkpt>
      <trkpt lat="50.01963" lon="2.04061">
        <ele>10.7</ele>
        <time>2022-04-17T08:52:45Z</time>
      </trkpt>
      <trkpt lat="50.01963" lon="2.04061">
        <ele>10.7</ele>
        <time>2022-04-17T08:52:46Z</time>
      </trkpt>
      <trkpt lat="50.01963" lon="2.04061">
        <ele>10.7</ele>
        <time>2022-04-17T08:52:47Z</time>
      </trkpt>
      <trkpt lat="50.01963" lon="2.04061">
        <ele>10.7</ele>
        <time>2022-04-17T08:52:48Z</time>
      </trkpt>
      <trkpt lat="50.01963" lon="2.04061">
        <ele>10.7</ele>
        <time>2022-04-17T08:52:49Z</time>
      </trkpt>
      <trkpt lat="50.01963" lon="2.04061">
        <ele>10.7</ele>
        <time>2022-04-17T08:52:50Z</time>
      </trkpt>
      <trkpt lat="50.01963" lon="2.04061">
        <ele>10.7</ele>
        <time>2022-04-17T08:52:52Z</time>
      </trkpt>
      <trkpt lat="50.01963" lon="2.04061">
        <ele>10.7</ele>
        <time>2022-04-17T08:52:53Z</time>
      </trkpt>
      <trkpt lat="50.01963" lon="2.04061">
        <ele>10.7</ele>
        <time>2022-04-17T08:52:54Z</time>
      </trkpt>
      <trkpt lat="50.01963" lon="2.04061">
        <ele>10.7</ele>
        <time>2022-04-17T08:52:55Z</time>
      </trkpt>
      <trkpt lat="50.01963" lon="2.04061">
        <ele>10.7</ele>
        <time>2022-04-17T08:52:56Z</time>
      </trkpt>
      <trkpt lat="50.01963" lon="2.04061">
        <ele>10.7</ele>
        <time>2022-04-17T08:52:57Z</time>
      </trkpt>
      <trkpt lat="50.01963" lon="2.04061">
        <ele>10.7</ele>
        <time>2022-04-17T08:52:58Z</time>
      </trkpt>
      <trkpt lat="50.01963" lon="2.04061">
        <ele>10.7</ele>
        <time>2022-04-17T08:53:00Z</time>
      </trkpt>
      <trkpt lat="50.01963" lon="2.04061">
        <ele>10.7</ele>
        <time>2022-04-17T08:53:01Z</time>
      </trkpt>
      <trkpt lat="50.01963" lon="2.04061">
        <ele>10.7</ele>
        <time>2022-04-17T08:53:03Z</time>
      </trkpt>
      <trkpt lat="50.01963" lon="2.04061">
        <ele>10.7</ele>
        <time>2022-04-17T08:53:04Z</time>
      </trkpt>
      <trkpt lat="50.01963" lon="2.04061">
        <ele>10.7</ele>
        <time>2022-04-17T08:53:05Z</time>
      </trkpt>
      <trkpt lat="50.01963" lon="2.04061">
        <ele>10.7</ele>
        <time>2022-04-17T08:53:06Z</time>
      </trkpt>
      <trkpt lat="50.01963" lon="2.04061">
        <ele>10.7</ele>
        <time>2022-04-17T08:53:07Z</time>
      </trkpt>
      <trkpt lat="50.01963" lon="2.04061">
        <ele>10.7</ele>
        <time>2022-04-17T08:53:08Z</time>
      </trkpt>
      <trkpt lat="50.01963" lon="2.04061">
        <ele>10.7</ele>
        <time>2022-04-17T08:53:09Z</time>
      </trkpt>
      <trkpt lat="50.01963" lon="2.04061">
        <ele>10.7</ele>
        <time>2022-04-17T08:53:10Z</time>
      </trkpt>
      <trkpt lat="50.01963" lon="2.04061">
        <ele>10.7</ele>
        <time>2022-04-17T08:53:11Z</time>
      </trkpt>
      <trkpt lat="50.01963" lon="2.04061">
        <ele>10.7</ele>
        <time>2022-04-17T08:53:12Z</time>
      </trkpt>
      <trkpt lat="50.01963" lon="2.04061">
        <ele>10.7</ele>
        <time>2022-04-17T08:53:13Z</time>
      </trkpt>
      <trkpt lat="50.01963" lon="2.04061">
        <ele>10.7</ele>
        <time>2022-04-17T08:53:14Z</time>
      </trkpt>
      <trkpt lat="50.01963" lon="2.04061">
        <ele>10.7</ele>
        <time>2022-04-17T08:53:15Z</time>
      </trkpt>
      <trkpt lat="50.01963" lon="2.04061">
        <ele>10.7</ele>
        <time>2022-04-17T08:53:16Z</time>
      </trkpt>
      <trkpt lat="50.01963" lon="2.04061">
        <ele>10.7</ele>
        <time>2022-04-17T08:53:17Z</time>
      </trkpt>
      <trkpt lat="50.01963" lon="2.04061">
        <ele>10.7</ele>
        <time>2022-04-17T08:53:18Z</time>
      </trkpt>
      <trkpt lat="50.01963" lon="2.04061">
        <ele>10.7</ele>
        <time>2022-04-17T08:53:19Z</time>
      </trkpt>
      <trkpt lat="50.01963" lon="2.04061">
        <ele>10.7</ele>
        <time>2022-04-17T08:53:20Z</time>
      </trkpt>
      <trkpt lat="50.01963" lon="2.04061">
        <ele>10.7</ele>
        <time>2022-04-17T08:53:21Z</time>
      </trkpt>
      <trkpt lat="50.01963" lon="2.04061">
        <ele>10.7</ele>
        <time>2022-04-17T08:53:22Z</time>
      </trkpt>
      <trkpt lat="50.01963" lon="2.04061">
        <ele>10.7</ele>
        <time>2022-04-17T08:53:23Z</time>
      </trkpt>
      <trkpt lat="50.01963" lon="2.04061">
        <ele>10.7</ele>
        <time>2022-04-17T08:53:24Z</time>
      </trkpt>
      <trkpt lat="50.01963" lon="2.04061">
        <ele>10.7</ele>
        <time>2022-04-17T08:53:25Z</time>
      </trkpt>
      <trkpt lat="50.01963" lon="2.04061">
        <ele>10.7</ele>
        <time>2022-04-17T08:53:26Z</time>
      </trkpt>
      <trkpt lat="50.01963" lon="2.0406">
        <ele>10.7</ele>
        <time>2022-04-17T08:53:28Z</time>
      </trkpt>
      <trkpt lat="50.01963" lon="2.0406">
        <ele>10.7</ele>
        <time>2022-04-17T08:53:30Z</time>
      </trkpt>
      <trkpt lat="50.01962" lon="2.04059">
        <ele>10.7</ele>
        <time>2022-04-17T08:53:31Z</time>
      </trkpt>
      <trkpt lat="50.01962" lon="2.04059">
        <ele>10.7</ele>
        <time>2022-04-17T08:53:32Z</time>
      </trkpt>
      <trkpt lat="50.01962" lon="2.04059">
        <ele>10.7</ele>
        <time>2022-04-17T08:53:34Z</time>
      </trkpt>
      <trkpt lat="50.01962" lon="2.04059">
        <ele>10.7</ele>
        <time>2022-04-17T08:53:35Z</time>
      </trkpt>
      <trkpt lat="50.01962" lon="2.04059">
        <ele>10.7</ele>
        <time>2022-04-17T08:53:36Z</time>
      </trkpt>
      <trkpt lat="50.01962" lon="2.04059">
        <ele>10.7</ele>
        <time>2022-04-17T08:53:38Z</time>
      </trkpt>
      <trkpt lat="50.01962" lon="2.04059">
        <ele>10.7</ele>
        <time>2022-04-17T08:53:39Z</time>
      </trkpt>
      <trkpt lat="50.01962" lon="2.04059">
        <ele>10.7</ele>
        <time>2022-04-17T08:53:40Z</time>
      </trkpt>
      <trkpt lat="50.01962" lon="2.04059">
        <ele>10.7</ele>
        <time>2022-04-17T08:53:41Z</time>
      </trkpt>
      <trkpt lat="50.01962" lon="2.04059">
        <ele>10.7</ele>
        <time>2022-04-17T08:53:42Z</time>
      </trkpt>
      <trkpt lat="50.01963" lon="2.04059">
        <ele>10.7</ele>
        <time>2022-04-17T08:53:43Z</time>
      </trkpt>
      <trkpt lat="50.01963" lon="2.04059">
        <ele>10.7</ele>
        <time>2022-04-17T08:53:44Z</time>
      </trkpt>
      <trkpt lat="50.01963" lon="2.04059">
        <ele>10.7</ele>
        <time>2022-04-17T08:53:45Z</time>
      </trkpt>
      <trkpt lat="50.01962" lon="2.04059">
        <ele>10.7</ele>
        <time>2022-04-17T08:53:46Z</time>
      </trkpt>
      <trkpt lat="50.01962" lon="2.04059">
        <ele>10.7</ele>
        <time>2022-04-17T08:53:47Z</time>
      </trkpt>
      <trkpt lat="50.01962" lon="2.04059">
        <ele>10.7</ele>
        <time>2022-04-17T08:53:48Z</time>
      </trkpt>
      <trkpt lat="50.01962" lon="2.04059">
        <ele>10.7</ele>
        <time>2022-04-17T08:53:49Z</time>
      </trkpt>
      <trkpt lat="50.01962" lon="2.04059">
        <ele>10.7</ele>
        <time>2022-04-17T08:53:50Z</time>
      </trkpt>
      <trkpt lat="50.01962" lon="2.04059">
        <ele>10.7</ele>
        <time>2022-04-17T08:53:51Z</time>
      </trkpt>
      <trkpt lat="50.01962" lon="2.04059">
        <ele>10.7</ele>
        <time>2022-04-17T08:53:52Z</time>
      </trkpt>
      <trkpt lat="50.01962" lon="2.04059">
        <ele>10.7</ele>
        <time>2022-04-17T08:53:53Z</time>
      </trkpt>
      <trkpt lat="50.01962" lon="2.04059">
        <ele>10.7</ele>
        <time>2022-04-17T08:53:54Z</time>
      </trkpt>
      <trkpt lat="50.01962" lon="2.04059">
        <ele>10.7</ele>
        <time>2022-04-17T08:53:55Z</time>
      </trkpt>
      <trkpt lat="50.01962" lon="2.04059">
        <ele>10.7</ele>
        <time>2022-04-17T08:53:56Z</time>
      </trkpt>
      <trkpt lat="50.01962" lon="2.04059">
        <ele>10.7</ele>
        <time>2022-04-17T08:53:57Z</time>
      </trkpt>
      <trkpt lat="50.01962" lon="2.04059">
        <ele>10.7</ele>
        <time>2022-04-17T08:53:58Z</time>
      </trkpt>
      <trkpt lat="50.01962" lon="2.04059">
        <ele>10.7</ele>
        <time>2022-04-17T08:53:59Z</time>
      </trkpt>
      <trkpt lat="50.01963" lon="2.04056">
        <ele>10.7</ele>
        <time>2022-04-17T08:54:00Z</time>
      </trkpt>
      <trkpt lat="50.01964" lon="2.04053">
        <ele>10.7</ele>
        <time>2022-04-17T08:54:02Z</time>
      </trkpt>
      <trkpt lat="50.01964" lon="2.04052">
        <ele>10.7</ele>
        <time>2022-04-17T08:54:03Z</time>
      </trkpt>
      <trkpt lat="50.01964" lon="2.04052">
        <ele>10.7</ele>
        <time>2022-04-17T08:54:04Z</time>
      </trkpt>
      <trkpt lat="50.01965" lon="2.04051">
        <ele>10.7</ele>
        <time>2022-04-17T08:54:05Z</time>
      </trkpt>
      <trkpt lat="50.01965" lon="2.04052">
        <ele>10.7</ele>
        <time>2022-04-17T08:54:07Z</time>
      </trkpt>
      <trkpt lat="50.01965" lon="2.04051">
        <ele>10.7</ele>
        <time>2022-04-17T08:54:08Z</time>
      </trkpt>
      <trkpt lat="50.01966" lon="2.0405">
        <ele>10.7</ele>
        <time>2022-04-17T08:54:10Z</time>
      </trkpt>
      <trkpt lat="50.01967" lon="2.04049">
        <ele>10.7</ele>
        <time>2022-04-17T08:54:11Z</time>
      </trkpt>
      <trkpt lat="50.01969" lon="2.04047">
        <ele>10.7</ele>
        <time>2022-04-17T08:54:12Z</time>
      </trkpt>
      <trkpt lat="50.0197" lon="2.04047">
        <ele>10.7</ele>
        <time>2022-04-17T08:54:13Z</time>
      </trkpt>
      <trkpt lat="50.01972" lon="2.04045">
        <ele>10.7</ele>
        <time>2022-04-17T08:54:14Z</time>
      </trkpt>
      <trkpt lat="50.01973" lon="2.04044">
        <ele>10.7</ele>
        <time>2022-04-17T08:54:16Z</time>
      </trkpt>
      <trkpt lat="50.01974" lon="2.04043">
        <ele>10.7</ele>
        <time>2022-04-17T08:54:17Z</time>
      </trkpt>
      <trkpt lat="50.01975" lon="2.04042">
        <ele>10.7</ele>
        <time>2022-04-17T08:54:18Z</time>
      </trkpt>
      <trkpt lat="50.01976" lon="2.04042">
        <ele>10.7</ele>
        <time>2022-04-17T08:54:19Z</time>
      </trkpt>
      <trkpt lat="50.01977" lon="2.04041">
        <ele>10.7</ele>
        <time>2022-04-17T08:54:20Z</time>
      </trkpt>
      <trkpt lat="50.01978" lon="2.04041">
        <ele>10.7</ele>
        <time>2022-04-17T08:54:21Z</time>
      </trkpt>
      <trkpt lat="50.01979" lon="2.0404">
        <ele>10.7</ele>
        <time>2022-04-17T08:54:23Z</time>
      </trkpt>
      <trkpt lat="50.01981" lon="2.0404">
        <ele>10.7</ele>
        <time>2022-04-17T08:54:24Z</time>
      </trkpt>
      <trkpt lat="50.01982" lon="2.0404">
        <ele>10.7</ele>
        <time>2022-04-17T08:54:25Z</time>
      </trkpt>
      <trkpt lat="50.01984" lon="2.04041">
        <ele>10.8</ele>
        <time>2022-04-17T08:54:26Z</time>
      </trkpt>
      <trkpt lat="50.01985" lon="2.04041">
        <ele>10.8</ele>
        <time>2022-04-17T08:54:28Z</time>
      </trkpt>
      <trkpt lat="50.01986" lon="2.04041">
        <ele>10.8</ele>
        <time>2022-04-17T08:54:29Z</time>
      </trkpt>
      <trkpt lat="50.01987" lon="2.04041">
        <ele>10.8</ele>
        <time>2022-04-17T08:54:30Z</time>
      </trkpt>
      <trkpt lat="50.01988" lon="2.04042">
        <ele>10.8</ele>
        <time>2022-04-17T08:54:31Z</time>
      </trkpt>
      <trkpt lat="50.01989" lon="2.04042">
        <ele>10.8</ele>
        <time>2022-04-17T08:54:32Z</time>
      </trkpt>
      <trkpt lat="50.01989" lon="2.04042">
        <ele>10.8</ele>
        <time>2022-04-17T08:54:33Z</time>
      </trkpt>
      <trkpt lat="50.0199" lon="2.04042">
        <ele>10.8</ele>
        <time>2022-04-17T08:54:35Z</time>
      </trkpt>
      <trkpt lat="50.01991" lon="2.04043">
        <ele>10.8</ele>
        <time>2022-04-17T08:54:36Z</time>
      </trkpt>
      <trkpt lat="50.01992" lon="2.04043">
        <ele>10.8</ele>
        <time>2022-04-17T08:54:37Z</time>
      </trkpt>
      <trkpt lat="50.01994" lon="2.04043">
        <ele>10.8</ele>
        <time>2022-04-17T08:54:38Z</time>
      </trkpt>
      <trkpt lat="50.01995" lon="2.04043">
        <ele>10.8</ele>
        <time>2022-04-17T08:54:39Z</time>
      </trkpt>
      <trkpt lat="50.01996" lon="2.04043">
        <ele>10.8</ele>
        <time>2022-04-17T08:54:40Z</time>
      </trkpt>
      <trkpt lat="50.01998" lon="2.04044">
        <ele>10.9</ele>
        <time>2022-04-17T08:54:41Z</time>
      </trkpt>
      <trkpt lat="50.01999" lon="2.04044">
        <ele>10.9</ele>
        <time>2022-04-17T08:54:43Z</time>
      </trkpt>
      <trkpt lat="50.02" lon="2.04044">
        <ele>10.9</ele>
        <time>2022-04-17T08:54:44Z</time>
      </trkpt>
      <trkpt lat="50.02001" lon="2.04044">
        <ele>10.9</ele>
        <time>2022-04-17T08:54:45Z</time>
      </trkpt>
      <trkpt lat="50.02002" lon="2.04044">
        <ele>10.9</ele>
        <time>2022-04-17T08:54:46Z</time>
      </trkpt>
      <trkpt lat="50.02003" lon="2.04044">
        <ele>10.9</ele>
        <time>2022-04-17T08:54:47Z</time>
      </trkpt>
      <trkpt lat="50.02004" lon="2.04043">
        <ele>10.9</ele>
        <time>2022-04-17T08:54:48Z</time>
      </trkpt>
      <trkpt lat="50.02006" lon="2.04043">
        <ele>10.9</ele>
        <time>2022-04-17T08:54:49Z</time>
      </trkpt>
      <trkpt lat="50.02008" lon="2.04043">
        <ele>10.9</ele>
        <time>2022-04-17T08:54:51Z</time>
      </trkpt>
      <trkpt lat="50.02009" lon="2.04042">
        <ele>11</ele>
        <time>2022-04-17T08:54:52Z</time>
      </trkpt>
      <trkpt lat="50.0201" lon="2.04042">
        <ele>11</ele>
        <time>2022-04-17T08:54:53Z</time>
      </trkpt>
      <trkpt lat="50.02011" lon="2.04041">
        <ele>11</ele>
        <time>2022-04-17T08:54:54Z</time>
      </trkpt>
      <trkpt lat="50.02012" lon="2.0404">
        <ele>11</ele>
        <time>2022-04-17T08:54:55Z</time>
      </trkpt>
      <trkpt lat="50.02015" lon="2.0404">
        <ele>11</ele>
        <time>2022-04-17T08:54:56Z</time>
      </trkpt>
      <trkpt lat="50.02017" lon="2.0404">
        <ele>11</ele>
        <time>2022-04-17T08:54:57Z</time>
      </trkpt>
      <trkpt lat="50.02018" lon="2.0404">
        <ele>11</ele>
        <time>2022-04-17T08:54:58Z</time>
      </trkpt>
      <trkpt lat="50.02019" lon="2.04041">
        <ele>11</ele>
        <time>2022-04-17T08:55:00Z</time>
      </trkpt>
      <trkpt lat="50.0202" lon="2.04041">
        <ele>11</ele>
        <time>2022-04-17T08:55:01Z</time>
      </trkpt>
      <trkpt lat="50.02024" lon="2.04041">
        <ele>11.1</ele>
        <time>2022-04-17T08:55:02Z</time>
      </trkpt>
      <trkpt lat="50.02025" lon="2.04041">
        <ele>11.1</ele>
        <time>2022-04-17T08:55:03Z</time>
      </trkpt>
      <trkpt lat="50.02026" lon="2.0404">
        <ele>11.1</ele>
        <time>2022-04-17T08:55:04Z</time>
      </trkpt>
      <trkpt lat="50.02027" lon="2.0404">
        <ele>11.1</ele>
        <time>2022-04-17T08:55:05Z</time>
      </trkpt>
      <trkpt lat="50.02029" lon="2.04039">
        <ele>11.1</ele>
        <time>2022-04-17T08:55:06Z</time>
      </trkpt>
      <trkpt lat="50.02032" lon="2.04038">
        <ele>11.1</ele>
        <time>2022-04-17T08:55:08Z</time>
      </trkpt>
      <trkpt lat="50.02033" lon="2.04038">
        <ele>11.1</ele>
        <time>2022-04-17T08:55:09Z</time>
      </trkpt>
      <trkpt lat="50.02034" lon="2.04037">
        <ele>11.1</ele>
        <time>2022-04-17T08:55:10Z</time>
      </trkpt>
      <trkpt lat="50.02035" lon="2.04036">
        <ele>11.2</ele>
        <time>2022-04-17T08:55:11Z</time>
      </trkpt>
      <trkpt lat="50.02037" lon="2.04034">
        <ele>11.2</ele>
        <time>2022-04-17T08:55:12Z</time>
      </trkpt>
      <trkpt lat="50.02038" lon="2.04033">
        <ele>11.2</ele>
        <time>2022-04-17T08:55:13Z</time>
      </trkpt>
      <trkpt lat="50.02038" lon="2.04032">
        <ele>11.2</ele>
        <time>2022-04-17T08:55:14Z</time>
      </trkpt>
      <trkpt lat="50.02039" lon="2.04032">
        <ele>11.2</ele>
        <time>2022-04-17T08:55:16Z</time>
      </trkpt>
      <trkpt lat="50.02039" lon="2.04031">
        <ele>11.2</ele>
        <time>2022-04-17T08:55:17Z</time>
      </trkpt>
      <trkpt lat="50.02039" lon="2.0403">
        <ele>11.2</ele>
        <time>2022-04-17T08:55:18Z</time>
      </trkpt>
      <trkpt lat="50.0204" lon="2.04029">
        <ele>11.2</ele>
        <time>2022-04-17T08:55:19Z</time>
      </trkpt>
      <trkpt lat="50.0204" lon="2.04029">
        <ele>11.2</ele>
        <time>2022-04-17T08:55:20Z</time>
      </trkpt>
      <trkpt lat="50.02042" lon="2.04028">
        <ele>11.2</ele>
        <time>2022-04-17T08:55:21Z</time>
      </trkpt>
      <trkpt lat="50.02042" lon="2.0403">
        <ele>11.2</ele>
        <time>2022-04-17T08:55:22Z</time>
      </trkpt>
      <trkpt lat="50.02043" lon="2.0403">
        <ele>11.2</ele>
        <time>2022-04-17T08:55:24Z</time>
      </trkpt>
      <trkpt lat="50.02045" lon="2.04029">
        <ele>11.2</ele>
        <time>2022-04-17T08:55:25Z</time>
      </trkpt>
      <trkpt lat="50.02046" lon="2.04029">
        <ele>11.2</ele>
        <time>2022-04-17T08:55:26Z</time>
      </trkpt>
      <trkpt lat="50.02047" lon="2.04028">
        <ele>11.2</ele>
        <time>2022-04-17T08:55:27Z</time>
      </trkpt>
      <trkpt lat="50.02048" lon="2.04028">
        <ele>11.2</ele>
        <time>2022-04-17T08:55:29Z</time>
      </trkpt>
      <trkpt lat="50.02049" lon="2.04027">
        <ele>11.2</ele>
        <time>2022-04-17T08:55:30Z</time>
      </trkpt>
      <trkpt lat="50.02051" lon="2.04026">
        <ele>11.2</ele>
        <time>2022-04-17T08:55:31Z</time>
      </trkpt>
      <trkpt lat="50.02052" lon="2.04026">
        <ele>11.2</ele>
        <time>2022-04-17T08:55:32Z</time>
      </trkpt>
      <trkpt lat="50.02054" lon="2.04022">
        <ele>11.2</ele>
        <time>2022-04-17T08:55:33Z</time>
      </trkpt>
      <trkpt lat="50.02054" lon="2.04021">
        <ele>11.2</ele>
        <time>2022-04-17T08:55:34Z</time>
      </trkpt>
      <trkpt lat="50.02055" lon="2.04019">
        <ele>11.2</ele>
        <time>2022-04-17T08:55:36Z</time>
      </trkpt>
      <trkpt lat="50.02056" lon="2.04017">
        <ele>11.2</ele>
        <time>2022-04-17T08:55:37Z</time>
      </trkpt>
      <trkpt lat="50.02058" lon="2.04015">
        <ele>11.3</ele>
        <time>2022-04-17T08:55:38Z</time>
      </trkpt>
      <trkpt lat="50.02059" lon="2.04014">
        <ele>11.3</ele>
        <time>2022-04-17T08:55:39Z</time>
      </trkpt>
      <trkpt lat="50.0206" lon="2.04012">
        <ele>11.3</ele>
        <time>2022-04-17T08:55:40Z</time>
      </trkpt>
      <trkpt lat="50.02061" lon="2.04011">
        <ele>11.3</ele>
        <time>2022-04-17T08:55:41Z</time>
      </trkpt>
      <trkpt lat="50.02062" lon="2.04009">
        <ele>11.3</ele>
        <time>2022-04-17T08:55:42Z</time>
      </trkpt>
      <trkpt lat="50.02063" lon="2.04007">
        <ele>11.4</ele>
        <time>2022-04-17T08:55:44Z</time>
      </trkpt>
      <trkpt lat="50.02064" lon="2.04005">
        <ele>11.4</ele>
        <time>2022-04-17T08:55:45Z</time>
      </trkpt>
      <trkpt lat="50.02065" lon="2.04003">
        <ele>11.4</ele>
        <time>2022-04-17T08:55:46Z</time>
      </trkpt>
      <trkpt lat="50.02067" lon="2.04">
        <ele>11.5</ele>
        <time>2022-04-17T08:55:47Z</time>
      </trkpt>
      <trkpt lat="50.02068" lon="2.03999">
        <ele>11.5</ele>
        <time>2022-04-17T08:55:48Z</time>
      </trkpt>
      <trkpt lat="50.02069" lon="2.03998">
        <ele>11.5</ele>
        <time>2022-04-17T08:55:49Z</time>
      </trkpt>
      <trkpt lat="50.0207" lon="2.03996">
        <ele>11.5</ele>
        <time>2022-04-17T08:55:50Z</time>
      </trkpt>
      <trkpt lat="50.02071" lon="2.03995">
        <ele>11.6</ele>
        <time>2022-04-17T08:55:52Z</time>
      </trkpt>
      <trkpt lat="50.02072" lon="2.03993">
        <ele>11.6</ele>
        <time>2022-04-17T08:55:53Z</time>
      </trkpt>
      <trkpt lat="50.02074" lon="2.03992">
        <ele>11.6</ele>
        <time>2022-04-17T08:55:54Z</time>
      </trkpt>
      <trkpt lat="50.02075" lon="2.03992">
        <ele>11.7</ele>
        <time>2022-04-17T08:55:55Z</time>
      </trkpt>
      <trkpt lat="50.02076" lon="2.03991">
        <ele>11.7</ele>
        <time>2022-04-17T08:55:56Z</time>
      </trkpt>
      <trkpt lat="50.02077" lon="2.0399">
        <ele>11.8</ele>
        <time>2022-04-17T08:55:57Z</time>
      </trkpt>
      <trkpt lat="50.02078" lon="2.03991">
        <ele>11.8</ele>
        <time>2022-04-17T08:55:58Z</time>
      </trkpt>
      <trkpt lat="50.0208" lon="2.03992">
        <ele>11.8</ele>
        <time>2022-04-17T08:56:00Z</time>
      </trkpt>
      <trkpt lat="50.02081" lon="2.03992">
        <ele>11.8</ele>
        <time>2022-04-17T08:56:01Z</time>
      </trkpt>
      <trkpt lat="50.02082" lon="2.03993">
        <ele>11.9</ele>
        <time>2022-04-17T08:56:02Z</time>
      </trkpt>
      <trkpt lat="50.02083" lon="2.03996">
        <ele>11.9</ele>
        <time>2022-04-17T08:56:03Z</time>
      </trkpt>
      <trkpt lat="50.02084" lon="2.03997">
        <ele>11.9</ele>
        <time>2022-04-17T08:56:04Z</time>
      </trkpt>
      <trkpt lat="50.02084" lon="2.03999">
        <ele>12</ele>
        <time>2022-04-17T08:56:05Z</time>
      </trkpt>
      <trkpt lat="50.02085" lon="2.04">
        <ele>12</ele>
        <time>2022-04-17T08:56:07Z</time>
      </trkpt>
      <trkpt lat="50.02086" lon="2.04001">
        <ele>12</ele>
        <time>2022-04-17T08:56:08Z</time>
      </trkpt>
      <trkpt lat="50.02087" lon="2.04002">
        <ele>12</ele>
        <time>2022-04-17T08:56:09Z</time>
      </trkpt>
      <trkpt lat="50.02088" lon="2.04002">
        <ele>12</ele>
        <time>2022-04-17T08:56:10Z</time>
      </trkpt>
      <trkpt lat="50.02089" lon="2.04002">
        <ele>12.1</ele>
        <time>2022-04-17T08:56:11Z</time>
      </trkpt>
      <trkpt lat="50.0209" lon="2.04003">
        <ele>12.1</ele>
        <time>2022-04-17T08:56:12Z</time>
      </trkpt>
      <trkpt lat="50.02091" lon="2.04004">
        <ele>12.1</ele>
        <time>2022-04-17T08:56:13Z</time>
      </trkpt>
      <trkpt lat="50.02091" lon="2.04005">
        <ele>12.1</ele>
        <time>2022-04-17T08:56:15Z</time>
      </trkpt>
      <trkpt lat="50.02092" lon="2.04006">
        <ele>12.2</ele>
        <time>2022-04-17T08:56:16Z</time>
      </trkpt>
      <trkpt lat="50.02092" lon="2.04007">
        <ele>12.2</ele>
        <time>2022-04-17T08:56:17Z</time>
      </trkpt>
      <trkpt lat="50.02093" lon="2.04008">
        <ele>12.2</ele>
        <time>2022-04-17T08:56:18Z</time>
      </trkpt>
      <trkpt lat="50.02094" lon="2.0401">
        <ele>12.2</ele>
        <time>2022-04-17T08:56:19Z</time>
      </trkpt>
      <trkpt lat="50.02096" lon="2.04012">
        <ele>12.3</ele>
        <time>2022-04-17T08:56:20Z</time>
      </trkpt>
      <trkpt lat="50.02097" lon="2.04013">
        <ele>12.3</ele>
        <time>2022-04-17T08:56:22Z</time>
      </trkpt>
      <trkpt lat="50.02097" lon="2.04014">
        <ele>12.3</ele>
        <time>2022-04-17T08:56:23Z</time>
      </trkpt>
      <trkpt lat="50.02098" lon="2.04014">
        <ele>12.4</ele>
        <time>2022-04-17T08:56:25Z</time>
      </trkpt>
      <trkpt lat="50.02099" lon="2.04015">
        <ele>12.4</ele>
        <time>2022-04-17T08:56:26Z</time>
      </trkpt>
      <trkpt lat="50.021" lon="2.04016">
        <ele>12.4</ele>
        <time>2022-04-17T08:56:27Z</time>
      </trkpt>
      <trkpt lat="50.02102" lon="2.04017">
        <ele>12.5</ele>
        <time>2022-04-17T08:56:28Z</time>
      </trkpt>
      <trkpt lat="50.02102" lon="2.04018">
        <ele>12.5</ele>
        <time>2022-04-17T08:56:29Z</time>
      </trkpt>
      <trkpt lat="50.02103" lon="2.04019">
        <ele>12.5</ele>
        <time>2022-04-17T08:56:30Z</time>
      </trkpt>
      <trkpt lat="50.02105" lon="2.04022">
        <ele>12.6</ele>
        <time>2022-04-17T08:56:32Z</time>
      </trkpt>
      <trkpt lat="50.02106" lon="2.04023">
        <ele>12.6</ele>
        <time>2022-04-17T08:56:33Z</time>
      </trkpt>
      <trkpt lat="50.02108" lon="2.04025">
        <ele>12.8</ele>
        <time>2022-04-17T08:56:35Z</time>
      </trkpt>
      <trkpt lat="50.02109" lon="2.04025">
        <ele>12.8</ele>
        <time>2022-04-17T08:56:36Z</time>
      </trkpt>
      <trkpt lat="50.02109" lon="2.04026">
        <ele>12.8</ele>
        <time>2022-04-17T08:56:37Z</time>
      </trkpt>
      <trkpt lat="50.0211" lon="2.04028">
        <ele>12.8</ele>
        <time>2022-04-17T08:56:38Z</time>
      </trkpt>
      <trkpt lat="50.02111" lon="2.04029">
        <ele>12.8</ele>
        <time>2022-04-17T08:56:39Z</time>
      </trkpt>
      <trkpt lat="50.02112" lon="2.04029">
        <ele>12.8</ele>
        <time>2022-04-17T08:56:40Z</time>
      </trkpt>
      <trkpt lat="50.02113" lon="2.04028">
        <ele>12.8</ele>
        <time>2022-04-17T08:56:42Z</time>
      </trkpt>
      <trkpt lat="50.02115" lon="2.04025">
        <ele>12.8</ele>
        <time>2022-04-17T08:56:43Z</time>
      </trkpt>
      <trkpt lat="50.02115" lon="2.04022">
        <ele>12.7</ele>
        <time>2022-04-17T08:56:45Z</time>
      </trkpt>
      <trkpt lat="50.02116" lon="2.04021">
        <ele>12.7</ele>
        <time>2022-04-17T08:56:46Z</time>
      </trkpt>
      <trkpt lat="50.02116" lon="2.04019">
        <ele>12.7</ele>
        <time>2022-04-17T08:56:47Z</time>
      </trkpt>
      <trkpt lat="50.02117" lon="2.04016">
        <ele>12.7</ele>
        <time>2022-04-17T08:56:48Z</time>
      </trkpt>
      <trkpt lat="50.02118" lon="2.04015">
        <ele>12.7</ele>
        <time>2022-04-17T08:56:49Z</time>
      </trkpt>
      <trkpt lat="50.02119" lon="2.04014">
        <ele>12.7</ele>
        <time>2022-04-17T08:56:50Z</time>
      </trkpt>
      <trkpt lat="50.02119" lon="2.04012">
        <ele>12.7</ele>
        <time>2022-04-17T08:56:51Z</time>
      </trkpt>
      <trkpt lat="50.0212" lon="2.0401">
        <ele>12.7</ele>
        <time>2022-04-17T08:56:53Z</time>
      </trkpt>
      <trkpt lat="50.02121" lon="2.04008">
        <ele>12.7</ele>
        <time>2022-04-17T08:56:54Z</time>
      </trkpt>
      <trkpt lat="50.02123" lon="2.04006">
        <ele>12.7</ele>
        <time>2022-04-17T08:56:55Z</time>
      </trkpt>
      <trkpt lat="50.02124" lon="2.04004">
        <ele>12.7</ele>
        <time>2022-04-17T08:56:56Z</time>
      </trkpt>
      <trkpt lat="50.02126" lon="2.04001">
        <ele>12.7</ele>
        <time>2022-04-17T08:56:57Z</time>
      </trkpt>
      <trkpt lat="50.02127" lon="2.04">
        <ele>12.7</ele>
        <time>2022-04-17T08:56:58Z</time>
      </trkpt>
      <trkpt lat="50.02127" lon="2.03999">
        <ele>12.7</ele>
        <time>2022-04-17T08:57:00Z</time>
      </trkpt>
      <trkpt lat="50.02128" lon="2.03997">
        <ele>12.7</ele>
        <time>2022-04-17T08:57:01Z</time>
      </trkpt>
      <trkpt lat="50.02129" lon="2.03995">
        <ele>12.7</ele>
        <time>2022-04-17T08:57:02Z</time>
      </trkpt>
      <trkpt lat="50.02131" lon="2.03992">
        <ele>12.6</ele>
        <time>2022-04-17T08:57:03Z</time>
      </trkpt>
      <trkpt lat="50.02131" lon="2.03991">
        <ele>12.6</ele>
        <time>2022-04-17T08:57:04Z</time>
      </trkpt>
      <trkpt lat="50.02133" lon="2.03988">
        <ele>12.6</ele>
        <time>2022-04-17T08:57:05Z</time>
      </trkpt>
      <trkpt lat="50.02133" lon="2.03987">
        <ele>12.6</ele>
        <time>2022-04-17T08:57:06Z</time>
      </trkpt>
      <trkpt lat="50.02134" lon="2.03986">
        <ele>12.6</ele>
        <time>2022-04-17T08:57:07Z</time>
      </trkpt>
      <trkpt lat="50.02135" lon="2.03984">
        <ele>12.6</ele>
        <time>2022-04-17T08:57:08Z</time>
      </trkpt>
      <trkpt lat="50.02136" lon="2.03982">
        <ele>12.6</ele>
        <time>2022-04-17T08:57:10Z</time>
      </trkpt>
      <trkpt lat="50.02137" lon="2.03981">
        <ele>12.6</ele>
        <time>2022-04-17T08:57:11Z</time>
      </trkpt>
      <trkpt lat="50.02138" lon="2.03979">
        <ele>12.6</ele>
        <time>2022-04-17T08:57:12Z</time>
      </trkpt>
      <trkpt lat="50.02139" lon="2.03977">
        <ele>12.6</ele>
        <time>2022-04-17T08:57:13Z</time>
      </trkpt>
      <trkpt lat="50.0214" lon="2.03975">
        <ele>12.6</ele>
        <time>2022-04-17T08:57:15Z</time>
      </trkpt>
      <trkpt lat="50.02141" lon="2.03973">
        <ele>12.6</ele>
        <time>2022-04-17T08:57:16Z</time>
      </trkpt>
      <trkpt lat="50.02142" lon="2.03972">
        <ele>12.5</ele>
        <time>2022-04-17T08:57:17Z</time>
      </trkpt>
      <trkpt lat="50.02144" lon="2.03968">
        <ele>12.5</ele>
        <time>2022-04-17T08:57:18Z</time>
      </trkpt>
      <trkpt lat="50.02145" lon="2.03966">
        <ele>12.5</ele>
        <time>2022-04-17T08:57:19Z</time>
      </trkpt>
      <trkpt lat="50.02146" lon="2.03964">
        <ele>12.5</ele>
        <time>2022-04-17T08:57:20Z</time>
      </trkpt>
      <trkpt lat="50.02147" lon="2.03963">
        <ele>12.5</ele>
        <time>2022-04-17T08:57:21Z</time>
      </trkpt>
      <trkpt lat="50.02147" lon="2.03961">
        <ele>12.5</ele>
        <time>2022-04-17T08:57:22Z</time>
      </trkpt>
      <trkpt lat="50.02148" lon="2.0396">
        <ele>12.5</ele>
        <time>2022-04-17T08:57:24Z</time>
      </trkpt>
      <trkpt lat="50.02149" lon="2.03959">
        <ele>12.5</ele>
        <time>2022-04-17T08:57:25Z</time>
      </trkpt>
      <trkpt lat="50.02149" lon="2.03958">
        <ele>12.5</ele>
        <time>2022-04-17T08:57:26Z</time>
      </trkpt>
      <trkpt lat="50.0215" lon="2.03957">
        <ele>12.5</ele>
        <time>2022-04-17T08:57:27Z</time>
      </trkpt>
      <trkpt lat="50.02152" lon="2.03954">
        <ele>12.4</ele>
        <time>2022-04-17T08:57:28Z</time>
      </trkpt>
      <trkpt lat="50.02153" lon="2.03952">
        <ele>12.4</ele>
        <time>2022-04-17T08:57:29Z</time>
      </trkpt>
      <trkpt lat="50.02153" lon="2.03951">
        <ele>12.4</ele>
        <time>2022-04-17T08:57:30Z</time>
      </trkpt>
      <trkpt lat="50.02154" lon="2.0395">
        <ele>12.4</ele>
        <time>2022-04-17T08:57:31Z</time>
      </trkpt>
      <trkpt lat="50.02155" lon="2.03948">
        <ele>12.4</ele>
        <time>2022-04-17T08:57:32Z</time>
      </trkpt>
      <trkpt lat="50.02155" lon="2.03947">
        <ele>12.4</ele>
        <time>2022-04-17T08:57:33Z</time>
      </trkpt>
      <trkpt lat="50.02156" lon="2.03945">
        <ele>12.4</ele>
        <time>2022-04-17T08:57:35Z</time>
      </trkpt>
      <trkpt lat="50.02156" lon="2.03943">
        <ele>12.4</ele>
        <time>2022-04-17T08:57:36Z</time>
      </trkpt>
      <trkpt lat="50.02157" lon="2.0394">
        <ele>12.4</ele>
        <time>2022-04-17T08:57:37Z</time>
      </trkpt>
      <trkpt lat="50.02157" lon="2.03939">
        <ele>12.4</ele>
        <time>2022-04-17T08:57:38Z</time>
      </trkpt>
      <trkpt lat="50.02157" lon="2.03937">
        <ele>12.3</ele>
        <time>2022-04-17T08:57:39Z</time>
      </trkpt>
      <trkpt lat="50.02158" lon="2.03936">
        <ele>12.3</ele>
        <time>2022-04-17T08:57:40Z</time>
      </trkpt>
      <trkpt lat="50.02158" lon="2.03935">
        <ele>12.3</ele>
        <time>2022-04-17T08:57:41Z</time>
      </trkpt>
      <trkpt lat="50.02158" lon="2.03933">
        <ele>12.3</ele>
        <time>2022-04-17T08:57:43Z</time>
      </trkpt>
      <trkpt lat="50.02159" lon="2.03931">
        <ele>12.3</ele>
        <time>2022-04-17T08:57:44Z</time>
      </trkpt>
      <trkpt lat="50.0216" lon="2.0393">
        <ele>12.3</ele>
        <time>2022-04-17T08:57:45Z</time>
      </trkpt>
      <trkpt lat="50.0216" lon="2.03929">
        <ele>12.3</ele>
        <time>2022-04-17T08:57:46Z</time>
      </trkpt>
      <trkpt lat="50.02161" lon="2.03927">
        <ele>12.3</ele>
        <time>2022-04-17T08:57:47Z</time>
      </trkpt>
      <trkpt lat="50.02161" lon="2.03926">
        <ele>12.3</ele>
        <time>2022-04-17T08:57:48Z</time>
      </trkpt>
      <trkpt lat="50.02162" lon="2.03925">
        <ele>12.3</ele>
        <time>2022-04-17T08:57:49Z</time>
      </trkpt>
      <trkpt lat="50.02163" lon="2.03923">
        <ele>12.3</ele>
        <time>2022-04-17T08:57:51Z</time>
      </trkpt>
      <trkpt lat="50.02163" lon="2.03922">
        <ele>12.3</ele>
        <time>2022-04-17T08:57:52Z</time>
      </trkpt>
      <trkpt lat="50.02164" lon="2.0392">
        <ele>12.3</ele>
        <time>2022-04-17T08:57:53Z</time>
      </trkpt>
      <trkpt lat="50.02164" lon="2.03919">
        <ele>12.2</ele>
        <time>2022-04-17T08:57:54Z</time>
      </trkpt>
      <trkpt lat="50.02165" lon="2.03918">
        <ele>12.2</ele>
        <time>2022-04-17T08:57:55Z</time>
      </trkpt>
      <trkpt lat="50.02165" lon="2.03916">
        <ele>12.2</ele>
        <time>2022-04-17T08:57:56Z</time>
      </trkpt>
      <trkpt lat="50.02166" lon="2.03915">
        <ele>12.2</ele>
        <time>2022-04-17T08:57:57Z</time>
      </trkpt>
      <trkpt lat="50.02167" lon="2.03914">
        <ele>12.2</ele>
        <time>2022-04-17T08:57:59Z</time>
      </trkpt>
      <trkpt lat="50.02168" lon="2.03912">
        <ele>12.2</ele>
        <time>2022-04-17T08:58:00Z</time>
      </trkpt>
      <trkpt lat="50.02168" lon="2.03911">
        <ele>12.2</ele>
        <time>2022-04-17T08:58:01Z</time>
      </trkpt>
      <trkpt lat="50.02169" lon="2.0391">
        <ele>12.2</ele>
        <time>2022-04-17T08:58:02Z</time>
      </trkpt>
      <trkpt lat="50.0217" lon="2.03909">
        <ele>12.2</ele>
        <time>2022-04-17T08:58:03Z</time>
      </trkpt>
      <trkpt lat="50.0217" lon="2.03907">
        <ele>12.2</ele>
        <time>2022-04-17T08:58:04Z</time>
      </trkpt>
      <trkpt lat="50.02171" lon="2.03906">
        <ele>12.2</ele>
        <time>2022-04-17T08:58:05Z</time>
      </trkpt>
      <trkpt lat="50.02172" lon="2.03905">
        <ele>12.2</ele>
        <time>2022-04-17T08:58:07Z</time>
      </trkpt>
      <trkpt lat="50.02173" lon="2.03904">
        <ele>12.2</ele>
        <time>2022-04-17T08:58:08Z</time>
      </trkpt>
      <trkpt lat="50.02174" lon="2.03903">
        <ele>12.2</ele>
        <time>2022-04-17T08:58:09Z</time>
      </trkpt>
      <trkpt lat="50.02174" lon="2.03902">
        <ele>12.2</ele>
        <time>2022-04-17T08:58:10Z</time>
      </trkpt>
      <trkpt lat="50.02175" lon="2.03901">
        <ele>12.2</ele>
        <time>2022-04-17T08:58:11Z</time>
      </trkpt>
      <trkpt lat="50.02176" lon="2.039">
        <ele>12.1</ele>
        <time>2022-04-17T08:58:12Z</time>
      </trkpt>
      <trkpt lat="50.02176" lon="2.03898">
        <ele>12.1</ele>
        <time>2022-04-17T08:58:13Z</time>
      </trkpt>
      <trkpt lat="50.02177" lon="2.03896">
        <ele>12.1</ele>
        <time>2022-04-17T08:58:14Z</time>
      </trkpt>
      <trkpt lat="50.02178" lon="2.03896">
        <ele>12.1</ele>
        <time>2022-04-17T08:58:16Z</time>
      </trkpt>
      <trkpt lat="50.02179" lon="2.03894">
        <ele>12.1</ele>
        <time>2022-04-17T08:58:17Z</time>
      </trkpt>
      <trkpt lat="50.0218" lon="2.03893">
        <ele>12.1</ele>
        <time>2022-04-17T08:58:18Z</time>
      </trkpt>
      <trkpt lat="50.02181" lon="2.03891">
        <ele>12.1</ele>
        <time>2022-04-17T08:58:19Z</time>
      </trkpt>
      <trkpt lat="50.02181" lon="2.03891">
        <ele>12.1</ele>
        <time>2022-04-17T08:58:20Z</time>
      </trkpt>
      <trkpt lat="50.02182" lon="2.0389">
        <ele>12.1</ele>
        <time>2022-04-17T08:58:21Z</time>
      </trkpt>
      <trkpt lat="50.02182" lon="2.03888">
        <ele>12.1</ele>
        <time>2022-04-17T08:58:22Z</time>
      </trkpt>
      <trkpt lat="50.02182" lon="2.03886">
        <ele>12.1</ele>
        <time>2022-04-17T08:58:23Z</time>
      </trkpt>
      <trkpt lat="50.02182" lon="2.03883">
        <ele>12.1</ele>
        <time>2022-04-17T08:58:25Z</time>
      </trkpt>
      <trkpt lat="50.02182" lon="2.03882">
        <ele>12.1</ele>
        <time>2022-04-17T08:58:26Z</time>
      </trkpt>
      <trkpt lat="50.02182" lon="2.0388">
        <ele>12.1</ele>
        <time>2022-04-17T08:58:27Z</time>
      </trkpt>
      <trkpt lat="50.02182" lon="2.03879">
        <ele>12.1</ele>
        <time>2022-04-17T08:58:28Z</time>
      </trkpt>
      <trkpt lat="50.02183" lon="2.03877">
        <ele>12.1</ele>
        <time>2022-04-17T08:58:29Z</time>
      </trkpt>
      <trkpt lat="50.02183" lon="2.03876">
        <ele>12.1</ele>
        <time>2022-04-17T08:58:30Z</time>
      </trkpt>
      <trkpt lat="50.02184" lon="2.03875">
        <ele>12</ele>
        <time>2022-04-17T08:58:31Z</time>
      </trkpt>
      <trkpt lat="50.02185" lon="2.03874">
        <ele>12</ele>
        <time>2022-04-17T08:58:33Z</time>
      </trkpt>
      <trkpt lat="50.02186" lon="2.03873">
        <ele>12</ele>
        <time>2022-04-17T08:58:34Z</time>
      </trkpt>
      <trkpt lat="50.02186" lon="2.03872">
        <ele>12</ele>
        <time>2022-04-17T08:58:35Z</time>
      </trkpt>
      <trkpt lat="50.02187" lon="2.03871">
        <ele>12</ele>
        <time>2022-04-17T08:58:36Z</time>
      </trkpt>
      <trkpt lat="50.02188" lon="2.03869">
        <ele>12</ele>
        <time>2022-04-17T08:58:37Z</time>
      </trkpt>
      <trkpt lat="50.02188" lon="2.03868">
        <ele>12</ele>
        <time>2022-04-17T08:58:38Z</time>
      </trkpt>
      <trkpt lat="50.02189" lon="2.03866">
        <ele>12</ele>
        <time>2022-04-17T08:58:40Z</time>
      </trkpt>
      <trkpt lat="50.0219" lon="2.03865">
        <ele>12</ele>
        <time>2022-04-17T08:58:41Z</time>
      </trkpt>
      <trkpt lat="50.02191" lon="2.03863">
        <ele>12</ele>
        <time>2022-04-17T08:58:42Z</time>
      </trkpt>
      <trkpt lat="50.02193" lon="2.03861">
        <ele>12</ele>
        <time>2022-04-17T08:58:43Z</time>
      </trkpt>
      <trkpt lat="50.02194" lon="2.0386">
        <ele>12</ele>
        <time>2022-04-17T08:58:44Z</time>
      </trkpt>
      <trkpt lat="50.02194" lon="2.03859">
        <ele>12</ele>
        <time>2022-04-17T08:58:45Z</time>
      </trkpt>
      <trkpt lat="50.02196" lon="2.03857">
        <ele>12</ele>
        <time>2022-04-17T08:58:46Z</time>
      </trkpt>
      <trkpt lat="50.02197" lon="2.03856">
        <ele>12</ele>
        <time>2022-04-17T08:58:48Z</time>
      </trkpt>
      <trkpt lat="50.02198" lon="2.03855">
        <ele>12</ele>
        <time>2022-04-17T08:58:49Z</time>
      </trkpt>
      <trkpt lat="50.02199" lon="2.03854">
        <ele>12</ele>
        <time>2022-04-17T08:58:50Z</time>
      </trkpt>
      <trkpt lat="50.022" lon="2.03853">
        <ele>12</ele>
        <time>2022-04-17T08:58:51Z</time>
      </trkpt>
      <trkpt lat="50.02201" lon="2.03851">
        <ele>12</ele>
        <time>2022-04-17T08:58:52Z</time>
      </trkpt>
      <trkpt lat="50.02202" lon="2.03849">
        <ele>12</ele>
        <time>2022-04-17T08:58:53Z</time>
      </trkpt>
      <trkpt lat="50.02202" lon="2.03848">
        <ele>12</ele>
        <time>2022-04-17T08:58:54Z</time>
      </trkpt>
      <trkpt lat="50.02203" lon="2.03846">
        <ele>12</ele>
        <time>2022-04-17T08:58:55Z</time>
      </trkpt>
      <trkpt lat="50.02204" lon="2.03845">
        <ele>12</ele>
        <time>2022-04-17T08:58:57Z</time>
      </trkpt>
      <trkpt lat="50.02205" lon="2.03843">
        <ele>12</ele>
        <time>2022-04-17T08:58:58Z</time>
      </trkpt>
      <trkpt lat="50.02206" lon="2.03842">
        <ele>12</ele>
        <time>2022-04-17T08:58:59Z</time>
      </trkpt>
      <trkpt lat="50.02208" lon="2.0384">
        <ele>12</ele>
        <time>2022-04-17T08:59:00Z</time>
      </trkpt>
      <trkpt lat="50.02209" lon="2.03839">
        <ele>12</ele>
        <time>2022-04-17T08:59:01Z</time>
      </trkpt>
      <trkpt lat="50.02209" lon="2.03838">
        <ele>12</ele>
        <time>2022-04-17T08:59:02Z</time>
      </trkpt>
      <trkpt lat="50.0221" lon="2.03837">
        <ele>12</ele>
        <time>2022-04-17T08:59:04Z</time>
      </trkpt>
      <trkpt lat="50.02212" lon="2.03835">
        <ele>12</ele>
        <time>2022-04-17T08:59:05Z</time>
      </trkpt>
      <trkpt lat="50.02213" lon="2.03834">
        <ele>12</ele>
        <time>2022-04-17T08:59:06Z</time>
      </trkpt>
      <trkpt lat="50.02214" lon="2.03832">
        <ele>12</ele>
        <time>2022-04-17T08:59:07Z</time>
      </trkpt>
      <trkpt lat="50.02215" lon="2.03831">
        <ele>12</ele>
        <time>2022-04-17T08:59:08Z</time>
      </trkpt>
      <trkpt lat="50.02215" lon="2.0383">
        <ele>12</ele>
        <time>2022-04-17T08:59:09Z</time>
      </trkpt>
      <trkpt lat="50.02216" lon="2.03829">
        <ele>12</ele>
        <time>2022-04-17T08:59:10Z</time>
      </trkpt>
      <trkpt lat="50.02218" lon="2.03827">
        <ele>12</ele>
        <time>2022-04-17T08:59:11Z</time>
      </trkpt>
      <trkpt lat="50.02219" lon="2.03826">
        <ele>12</ele>
        <time>2022-04-17T08:59:12Z</time>
      </trkpt>
      <trkpt lat="50.0222" lon="2.03825">
        <ele>12</ele>
        <time>2022-04-17T08:59:14Z</time>
      </trkpt>
      <trkpt lat="50.0222" lon="2.03824">
        <ele>12</ele>
        <time>2022-04-17T08:59:15Z</time>
      </trkpt>
      <trkpt lat="50.02221" lon="2.03823">
        <ele>12</ele>
        <time>2022-04-17T08:59:16Z</time>
      </trkpt>
      <trkpt lat="50.02222" lon="2.03822">
        <ele>12</ele>
        <time>2022-04-17T08:59:17Z</time>
      </trkpt>
      <trkpt lat="50.02224" lon="2.0382">
        <ele>12</ele>
        <time>2022-04-17T08:59:18Z</time>
      </trkpt>
      <trkpt lat="50.02224" lon="2.0382">
        <ele>12</ele>
        <time>2022-04-17T08:59:19Z</time>
      </trkpt>
      <trkpt lat="50.02225" lon="2.03819">
        <ele>12</ele>
        <time>2022-04-17T08:59:20Z</time>
      </trkpt>
      <trkpt lat="50.02227" lon="2.03817">
        <ele>12</ele>
        <time>2022-04-17T08:59:21Z</time>
      </trkpt>
      <trkpt lat="50.02227" lon="2.03816">
        <ele>12</ele>
        <time>2022-04-17T08:59:23Z</time>
      </trkpt>
      <trkpt lat="50.02228" lon="2.03815">
        <ele>12</ele>
        <time>2022-04-17T08:59:24Z</time>
      </trkpt>
      <trkpt lat="50.02229" lon="2.03812">
        <ele>12</ele>
        <time>2022-04-17T08:59:25Z</time>
      </trkpt>
      <trkpt lat="50.02229" lon="2.03811">
        <ele>12</ele>
        <time>2022-04-17T08:59:26Z</time>
      </trkpt>
      <trkpt lat="50.02229" lon="2.0381">
        <ele>12.1</ele>
        <time>2022-04-17T08:59:27Z</time>
      </trkpt>
      <trkpt lat="50.0223" lon="2.03808">
        <ele>12.1</ele>
        <time>2022-04-17T08:59:28Z</time>
      </trkpt>
      <trkpt lat="50.02231" lon="2.03806">
        <ele>12.1</ele>
        <time>2022-04-17T08:59:29Z</time>
      </trkpt>
      <trkpt lat="50.02232" lon="2.03805">
        <ele>12.1</ele>
        <time>2022-04-17T08:59:31Z</time>
      </trkpt>
      <trkpt lat="50.02233" lon="2.03802">
        <ele>12.1</ele>
        <time>2022-04-17T08:59:32Z</time>
      </trkpt>
      <trkpt lat="50.02234" lon="2.03801">
        <ele>12.1</ele>
        <time>2022-04-17T08:59:33Z</time>
      </trkpt>
      <trkpt lat="50.02234" lon="2.038">
        <ele>12.1</ele>
        <time>2022-04-17T08:59:34Z</time>
      </trkpt>
      <trkpt lat="50.02235" lon="2.03799">
        <ele>12.1</ele>
        <time>2022-04-17T08:59:35Z</time>
      </trkpt>
      <trkpt lat="50.02235" lon="2.03797">
        <ele>12.1</ele>
        <time>2022-04-17T08:59:36Z</time>
      </trkpt>
      <trkpt lat="50.02236" lon="2.03796">
        <ele>12.1</ele>
        <time>2022-04-17T08:59:37Z</time>
      </trkpt>
      <trkpt lat="50.02237" lon="2.03793">
        <ele>12.1</ele>
        <time>2022-04-17T08:59:39Z</time>
      </trkpt>
      <trkpt lat="50.02237" lon="2.03791">
        <ele>12.1</ele>
        <time>2022-04-17T08:59:40Z</time>
      </trkpt>
      <trkpt lat="50.02237" lon="2.0379">
        <ele>12.2</ele>
        <time>2022-04-17T08:59:41Z</time>
      </trkpt>
      <trkpt lat="50.02239" lon="2.03788">
        <ele>12.2</ele>
        <time>2022-04-17T08:59:42Z</time>
      </trkpt>
      <trkpt lat="50.02239" lon="2.03787">
        <ele>12.2</ele>
        <time>2022-04-17T08:59:43Z</time>
      </trkpt>
      <trkpt lat="50.0224" lon="2.03786">
        <ele>12.2</ele>
        <time>2022-04-17T08:59:44Z</time>
      </trkpt>
      <trkpt lat="50.02241" lon="2.03784">
        <ele>12.2</ele>
        <time>2022-04-17T08:59:45Z</time>
      </trkpt>
      <trkpt lat="50.02242" lon="2.03782">
        <ele>12.2</ele>
        <time>2022-04-17T08:59:47Z</time>
      </trkpt>
      <trkpt lat="50.02243" lon="2.0378">
        <ele>12.3</ele>
        <time>2022-04-17T08:59:48Z</time>
      </trkpt>
      <trkpt lat="50.02244" lon="2.03779">
        <ele>12.3</ele>
        <time>2022-04-17T08:59:49Z</time>
      </trkpt>
      <trkpt lat="50.02246" lon="2.03776">
        <ele>12.3</ele>
        <time>2022-04-17T08:59:50Z</time>
      </trkpt>
      <trkpt lat="50.02246" lon="2.03775">
        <ele>12.3</ele>
        <time>2022-04-17T08:59:51Z</time>
      </trkpt>
      <trkpt lat="50.02247" lon="2.03775">
        <ele>12.3</ele>
        <time>2022-04-17T08:59:52Z</time>
      </trkpt>
      <trkpt lat="50.02248" lon="2.03773">
        <ele>12.4</ele>
        <time>2022-04-17T08:59:53Z</time>
      </trkpt>
      <trkpt lat="50.02249" lon="2.03771">
        <ele>12.4</ele>
        <time>2022-04-17T08:59:55Z</time>
      </trkpt>
      <trkpt lat="50.0225" lon="2.0377">
        <ele>12.4</ele>
        <time>2022-04-17T08:59:56Z</time>
      </trkpt>
      <trkpt lat="50.0225" lon="2.03768">
        <ele>12.4</ele>
        <time>2022-04-17T08:59:57Z</time>
      </trkpt>
      <trkpt lat="50.02252" lon="2.03765">
        <ele>12.4</ele>
        <time>2022-04-17T08:59:58Z</time>
      </trkpt>
      <trkpt lat="50.02252" lon="2.03764">
        <ele>12.4</ele>
        <time>2022-04-17T08:59:59Z</time>
      </trkpt>
      <trkpt lat="50.02253" lon="2.03763">
        <ele>12.5</ele>
        <time>2022-04-17T09:00:00Z</time>
      </trkpt>
      <trkpt lat="50.02253" lon="2.03762">
        <ele>12.5</ele>
        <time>2022-04-17T09:00:01Z</time>
      </trkpt>
      <trkpt lat="50.02254" lon="2.0376">
        <ele>12.5</ele>
        <time>2022-04-17T09:00:02Z</time>
      </trkpt>
      <trkpt lat="50.02254" lon="2.03758">
        <ele>12.5</ele>
        <time>2022-04-17T09:00:04Z</time>
      </trkpt>
      <trkpt lat="50.02255" lon="2.03756">
        <ele>12.5</ele>
        <time>2022-04-17T09:00:05Z</time>
      </trkpt>
      <trkpt lat="50.02255" lon="2.03755">
        <ele>12.5</ele>
        <time>2022-04-17T09:00:06Z</time>
      </trkpt>
      <trkpt lat="50.02256" lon="2.03753">
        <ele>12.6</ele>
        <time>2022-04-17T09:00:07Z</time>
      </trkpt>
      <trkpt lat="50.02256" lon="2.03752">
        <ele>12.6</ele>
        <time>2022-04-17T09:00:08Z</time>
      </trkpt>
      <trkpt lat="50.02257" lon="2.0375">
        <ele>12.6</ele>
        <time>2022-04-17T09:00:09Z</time>
      </trkpt>
      <trkpt lat="50.02258" lon="2.03749">
        <ele>12.6</ele>
        <time>2022-04-17T09:00:10Z</time>
      </trkpt>
      <trkpt lat="50.02258" lon="2.03747">
        <ele>12.6</ele>
        <time>2022-04-17T09:00:12Z</time>
      </trkpt>
      <trkpt lat="50.02259" lon="2.03746">
        <ele>12.6</ele>
        <time>2022-04-17T09:00:13Z</time>
      </trkpt>
      <trkpt lat="50.02259" lon="2.03744">
        <ele>12.6</ele>
        <time>2022-04-17T09:00:14Z</time>
      </trkpt>
      <trkpt lat="50.0226" lon="2.03743">
        <ele>12.6</ele>
        <time>2022-04-17T09:00:15Z</time>
      </trkpt>
      <trkpt lat="50.0226" lon="2.03742">
        <ele>12.7</ele>
        <time>2022-04-17T09:00:16Z</time>
      </trkpt>
      <trkpt lat="50.0226" lon="2.0374">
        <ele>12.7</ele>
        <time>2022-04-17T09:00:17Z</time>
      </trkpt>
      <trkpt lat="50.02262" lon="2.03738">
        <ele>12.7</ele>
        <time>2022-04-17T09:00:18Z</time>
      </trkpt>
      <trkpt lat="50.02262" lon="2.03736">
        <ele>12.7</ele>
        <time>2022-04-17T09:00:19Z</time>
      </trkpt>
      <trkpt lat="50.02263" lon="2.03735">
        <ele>12.7</ele>
        <time>2022-04-17T09:00:21Z</time>
      </trkpt>
      <trkpt lat="50.02263" lon="2.03734">
        <ele>12.7</ele>
        <time>2022-04-17T09:00:22Z</time>
      </trkpt>
      <trkpt lat="50.02264" lon="2.03733">
        <ele>12.7</ele>
        <time>2022-04-17T09:00:23Z</time>
      </trkpt>
      <trkpt lat="50.02264" lon="2.03732">
        <ele>12.7</ele>
        <time>2022-04-17T09:00:24Z</time>
      </trkpt>
      <trkpt lat="50.02266" lon="2.03729">
        <ele>12.7</ele>
        <time>2022-04-17T09:00:25Z</time>
      </trkpt>
      <trkpt lat="50.02266" lon="2.03728">
        <ele>12.8</ele>
        <time>2022-04-17T09:00:26Z</time>
      </trkpt>
      <trkpt lat="50.02267" lon="2.03727">
        <ele>12.8</ele>
        <time>2022-04-17T09:00:27Z</time>
      </trkpt>
      <trkpt lat="50.02268" lon="2.03725">
        <ele>12.8</ele>
        <time>2022-04-17T09:00:28Z</time>
      </trkpt>
      <trkpt lat="50.02268" lon="2.03723">
        <ele>12.8</ele>
        <time>2022-04-17T09:00:30Z</time>
      </trkpt>
      <trkpt lat="50.02268" lon="2.03721">
        <ele>12.8</ele>
        <time>2022-04-17T09:00:31Z</time>
      </trkpt>
      <trkpt lat="50.02269" lon="2.03719">
        <ele>12.8</ele>
        <time>2022-04-17T09:00:32Z</time>
      </trkpt>
      <trkpt lat="50.0227" lon="2.03716">
        <ele>12.8</ele>
        <time>2022-04-17T09:00:33Z</time>
      </trkpt>
      <trkpt lat="50.0227" lon="2.03715">
        <ele>12.8</ele>
        <time>2022-04-17T09:00:34Z</time>
      </trkpt>
      <trkpt lat="50.0227" lon="2.03713">
        <ele>12.8</ele>
        <time>2022-04-17T09:00:35Z</time>
      </trkpt>
      <trkpt lat="50.02271" lon="2.03712">
        <ele>12.8</ele>
        <time>2022-04-17T09:00:36Z</time>
      </trkpt>
      <trkpt lat="50.02271" lon="2.0371">
        <ele>12.8</ele>
        <time>2022-04-17T09:00:37Z</time>
      </trkpt>
      <trkpt lat="50.02272" lon="2.03708">
        <ele>12.8</ele>
        <time>2022-04-17T09:00:39Z</time>
      </trkpt>
      <trkpt lat="50.02273" lon="2.03705">
        <ele>12.9</ele>
        <time>2022-04-17T09:00:40Z</time>
      </trkpt>
      <trkpt lat="50.02273" lon="2.03704">
        <ele>12.9</ele>
        <time>2022-04-17T09:00:41Z</time>
      </trkpt>
      <trkpt lat="50.02274" lon="2.03703">
        <ele>12.9</ele>
        <time>2022-04-17T09:00:42Z</time>
      </trkpt>
      <trkpt lat="50.02274" lon="2.037">
        <ele>12.9</ele>
        <time>2022-04-17T09:00:43Z</time>
      </trkpt>
      <trkpt lat="50.02274" lon="2.03698">
        <ele>12.9</ele>
        <time>2022-04-17T09:00:44Z</time>
      </trkpt>
      <trkpt lat="50.02275" lon="2.03697">
        <ele>12.9</ele>
        <time>2022-04-17T09:00:45Z</time>
      </trkpt>
      <trkpt lat="50.02275" lon="2.03695">
        <ele>12.9</ele>
        <time>2022-04-17T09:00:46Z</time>
      </trkpt>
      <trkpt lat="50.02275" lon="2.03694">
        <ele>12.9</ele>
        <time>2022-04-17T09:00:48Z</time>
      </trkpt>
      <trkpt lat="50.02275" lon="2.03692">
        <ele>12.9</ele>
        <time>2022-04-17T09:00:49Z</time>
      </trkpt>
      <trkpt lat="50.02276" lon="2.03689">
        <ele>13</ele>
        <time>2022-04-17T09:00:50Z</time>
      </trkpt>
      <trkpt lat="50.02276" lon="2.03688">
        <ele>13</ele>
        <time>2022-04-17T09:00:51Z</time>
      </trkpt>
      <trkpt lat="50.02277" lon="2.03686">
        <ele>13</ele>
        <time>2022-04-17T09:00:52Z</time>
      </trkpt>
      <trkpt lat="50.02277" lon="2.03684">
        <ele>13</ele>
        <time>2022-04-17T09:00:53Z</time>
      </trkpt>
      <trkpt lat="50.02277" lon="2.03682">
        <ele>13</ele>
        <time>2022-04-17T09:00:54Z</time>
      </trkpt>
      <trkpt lat="50.02278" lon="2.03681">
        <ele>13</ele>
        <time>2022-04-17T09:00:56Z</time>
      </trkpt>
      <trkpt lat="50.02279" lon="2.03678">
        <ele>13.1</ele>
        <time>2022-04-17T09:00:57Z</time>
      </trkpt>
      <trkpt lat="50.02279" lon="2.03676">
        <ele>13.1</ele>
        <time>2022-04-17T09:00:58Z</time>
      </trkpt>
      <trkpt lat="50.02279" lon="2.03675">
        <ele>13.1</ele>
        <time>2022-04-17T09:00:59Z</time>
      </trkpt>
      <trkpt lat="50.0228" lon="2.03672">
        <ele>13.1</ele>
        <time>2022-04-17T09:01:00Z</time>
      </trkpt>
      <trkpt lat="50.0228" lon="2.03671">
        <ele>13.1</ele>
        <time>2022-04-17T09:01:01Z</time>
      </trkpt>
      <trkpt lat="50.0228" lon="2.0367">
        <ele>13.1</ele>
        <time>2022-04-17T09:01:02Z</time>
      </trkpt>
      <trkpt lat="50.02281" lon="2.03667">
        <ele>13.2</ele>
        <time>2022-04-17T09:01:03Z</time>
      </trkpt>
      <trkpt lat="50.02281" lon="2.03666">
        <ele>13.2</ele>
        <time>2022-04-17T09:01:05Z</time>
      </trkpt>
      <trkpt lat="50.02281" lon="2.03664">
        <ele>13.2</ele>
        <time>2022-04-17T09:01:06Z</time>
      </trkpt>
      <trkpt lat="50.02282" lon="2.03661">
        <ele>13.2</ele>
        <time>2022-04-17T09:01:07Z</time>
      </trkpt>
      <trkpt lat="50.02282" lon="2.0366">
        <ele>13.2</ele>
        <time>2022-04-17T09:01:08Z</time>
      </trkpt>
      <trkpt lat="50.02283" lon="2.03659">
        <ele>13.2</ele>
        <time>2022-04-17T09:01:09Z</time>
      </trkpt>
      <trkpt lat="50.02283" lon="2.03657">
        <ele>13.3</ele>
        <time>2022-04-17T09:01:10Z</time>
      </trkpt>
      <trkpt lat="50.02283" lon="2.03655">
        <ele>13.3</ele>
        <time>2022-04-17T09:01:11Z</time>
      </trkpt>
      <trkpt lat="50.02284" lon="2.03653">
        <ele>13.3</ele>
        <time>2022-04-17T09:01:13Z</time>
      </trkpt>
      <trkpt lat="50.02284" lon="2.0365">
        <ele>13.3</ele>
        <time>2022-04-17T09:01:14Z</time>
      </trkpt>
      <trkpt lat="50.02284" lon="2.03649">
        <ele>13.3</ele>
        <time>2022-04-17T09:01:15Z</time>
      </trkpt>
      <trkpt lat="50.02285" lon="2.03648">
        <ele>13.4</ele>
        <time>2022-04-17T09:01:16Z</time>
      </trkpt>
      <trkpt lat="50.02285" lon="2.03646">
        <ele>13.4</ele>
        <time>2022-04-17T09:01:17Z</time>
      </trkpt>
      <trkpt lat="50.02285" lon="2.03644">
        <ele>13.4</ele>
        <time>2022-04-17T09:01:18Z</time>
      </trkpt>
      <trkpt lat="50.02286" lon="2.03642">
        <ele>13.4</ele>
        <time>2022-04-17T09:01:20Z</time>
      </trkpt>
      <trkpt lat="50.02287" lon="2.03639">
        <ele>13.4</ele>
        <time>2022-04-17T09:01:21Z</time>
      </trkpt>
      <trkpt lat="50.02287" lon="2.03638">
        <ele>13.5</ele>
        <time>2022-04-17T09:01:22Z</time>
      </trkpt>
      <trkpt lat="50.02288" lon="2.03637">
        <ele>13.5</ele>
        <time>2022-04-17T09:01:23Z</time>
      </trkpt>
      <trkpt lat="50.02288" lon="2.03635">
        <ele>13.5</ele>
        <time>2022-04-17T09:01:24Z</time>
      </trkpt>
      <trkpt lat="50.02289" lon="2.03634">
        <ele>13.5</ele>
        <time>2022-04-17T09:01:25Z</time>
      </trkpt>
      <trkpt lat="50.02289" lon="2.03632">
        <ele>13.5</ele>
        <time>2022-04-17T09:01:26Z</time>
      </trkpt>
      <trkpt lat="50.02289" lon="2.03629">
        <ele>13.6</ele>
        <time>2022-04-17T09:01:28Z</time>
      </trkpt>
      <trkpt lat="50.02289" lon="2.03627">
        <ele>13.6</ele>
        <time>2022-04-17T09:01:29Z</time>
      </trkpt>
      <trkpt lat="50.0229" lon="2.03626">
        <ele>13.6</ele>
        <time>2022-04-17T09:01:30Z</time>
      </trkpt>
      <trkpt lat="50.0229" lon="2.03623">
        <ele>13.6</ele>
        <time>2022-04-17T09:01:31Z</time>
      </trkpt>
      <trkpt lat="50.0229" lon="2.03622">
        <ele>13.6</ele>
        <time>2022-04-17T09:01:32Z</time>
      </trkpt>
      <trkpt lat="50.02291" lon="2.0362">
        <ele>13.6</ele>
        <time>2022-04-17T09:01:33Z</time>
      </trkpt>
      <trkpt lat="50.02291" lon="2.03619">
        <ele>13.6</ele>
        <time>2022-04-17T09:01:35Z</time>
      </trkpt>
      <trkpt lat="50.02291" lon="2.03617">
        <ele>13.6</ele>
        <time>2022-04-17T09:01:36Z</time>
      </trkpt>
      <trkpt lat="50.02292" lon="2.03616">
        <ele>13.6</ele>
        <time>2022-04-17T09:01:37Z</time>
      </trkpt>
      <trkpt lat="50.02292" lon="2.03614">
        <ele>13.6</ele>
        <time>2022-04-17T09:01:38Z</time>
      </trkpt>
      <trkpt lat="50.02292" lon="2.03612">
        <ele>13.6</ele>
        <time>2022-04-17T09:01:39Z</time>
      </trkpt>
      <trkpt lat="50.02293" lon="2.03611">
        <ele>13.6</ele>
        <time>2022-04-17T09:01:40Z</time>
      </trkpt>
      <trkpt lat="50.02293" lon="2.03609">
        <ele>13.6</ele>
        <time>2022-04-17T09:01:41Z</time>
      </trkpt>
      <trkpt lat="50.02293" lon="2.03607">
        <ele>13.6</ele>
        <time>2022-04-17T09:01:43Z</time>
      </trkpt>
      <trkpt lat="50.02293" lon="2.03605">
        <ele>13.6</ele>
        <time>2022-04-17T09:01:44Z</time>
      </trkpt>
      <trkpt lat="50.02293" lon="2.03602">
        <ele>13.6</ele>
        <time>2022-04-17T09:01:45Z</time>
      </trkpt>
      <trkpt lat="50.02294" lon="2.03601">
        <ele>13.6</ele>
        <time>2022-04-17T09:01:46Z</time>
      </trkpt>
      <trkpt lat="50.02294" lon="2.036">
        <ele>13.6</ele>
        <time>2022-04-17T09:01:47Z</time>
      </trkpt>
      <trkpt lat="50.02294" lon="2.03596">
        <ele>13.6</ele>
        <time>2022-04-17T09:01:48Z</time>
      </trkpt>
      <trkpt lat="50.02294" lon="2.03595">
        <ele>13.6</ele>
        <time>2022-04-17T09:01:50Z</time>
      </trkpt>
      <trkpt lat="50.02295" lon="2.03594">
        <ele>13.6</ele>
        <time>2022-04-17T09:01:51Z</time>
      </trkpt>
      <trkpt lat="50.02295" lon="2.0359">
        <ele>13.6</ele>
        <time>2022-04-17T09:01:52Z</time>
      </trkpt>
      <trkpt lat="50.02295" lon="2.03589">
        <ele>13.6</ele>
        <time>2022-04-17T09:01:53Z</time>
      </trkpt>
      <trkpt lat="50.02295" lon="2.03588">
        <ele>13.6</ele>
        <time>2022-04-17T09:01:54Z</time>
      </trkpt>
      <trkpt lat="50.02296" lon="2.03586">
        <ele>13.5</ele>
        <time>2022-04-17T09:01:55Z</time>
      </trkpt>
      <trkpt lat="50.02296" lon="2.03584">
        <ele>13.5</ele>
        <time>2022-04-17T09:01:56Z</time>
      </trkpt>
      <trkpt lat="50.02297" lon="2.03581">
        <ele>13.5</ele>
        <time>2022-04-17T09:01:58Z</time>
      </trkpt>
      <trkpt lat="50.02298" lon="2.0358">
        <ele>13.5</ele>
        <time>2022-04-17T09:01:59Z</time>
      </trkpt>
      <trkpt lat="50.02298" lon="2.03578">
        <ele>13.5</ele>
        <time>2022-04-17T09:02:00Z</time>
      </trkpt>
      <trkpt lat="50.02299" lon="2.03575">
        <ele>13.5</ele>
        <time>2022-04-17T09:02:01Z</time>
      </trkpt>
      <trkpt lat="50.02299" lon="2.03574">
        <ele>13.5</ele>
        <time>2022-04-17T09:02:02Z</time>
      </trkpt>
      <trkpt lat="50.023" lon="2.03573">
        <ele>13.5</ele>
        <time>2022-04-17T09:02:03Z</time>
      </trkpt>
      <trkpt lat="50.02301" lon="2.0357">
        <ele>13.4</ele>
        <time>2022-04-17T09:02:04Z</time>
      </trkpt>
      <trkpt lat="50.02301" lon="2.03568">
        <ele>13.4</ele>
        <time>2022-04-17T09:02:05Z</time>
      </trkpt>
      <trkpt lat="50.02301" lon="2.03567">
        <ele>13.4</ele>
        <time>2022-04-17T09:02:06Z</time>
      </trkpt>
      <trkpt lat="50.02302" lon="2.03564">
        <ele>13.4</ele>
        <time>2022-04-17T09:02:08Z</time>
      </trkpt>
      <trkpt lat="50.02302" lon="2.03562">
        <ele>13.4</ele>
        <time>2022-04-17T09:02:09Z</time>
      </trkpt>
      <trkpt lat="50.02302" lon="2.03561">
        <ele>13.4</ele>
        <time>2022-04-17T09:02:10Z</time>
      </trkpt>
      <trkpt lat="50.02302" lon="2.03557">
        <ele>13.4</ele>
        <time>2022-04-17T09:02:11Z</time>
      </trkpt>
      <trkpt lat="50.02302" lon="2.03556">
        <ele>13.4</ele>
        <time>2022-04-17T09:02:12Z</time>
      </trkpt>
      <trkpt lat="50.02302" lon="2.03554">
        <ele>13.4</ele>
        <time>2022-04-17T09:02:13Z</time>
      </trkpt>
      <trkpt lat="50.02302" lon="2.03552">
        <ele>13.4</ele>
        <time>2022-04-17T09:02:14Z</time>
      </trkpt>
      <trkpt lat="50.02302" lon="2.0355">
        <ele>13.4</ele>
        <time>2022-04-17T09:02:15Z</time>
      </trkpt>
      <trkpt lat="50.02302" lon="2.03548">
        <ele>13.4</ele>
        <time>2022-04-17T09:02:17Z</time>
      </trkpt>
      <trkpt lat="50.02301" lon="2.03545">
        <ele>13.4</ele>
        <time>2022-04-17T09:02:18Z</time>
      </trkpt>
      <trkpt lat="50.02301" lon="2.03543">
        <ele>13.4</ele>
        <time>2022-04-17T09:02:19Z</time>
      </trkpt>
      <trkpt lat="50.02301" lon="2.03541">
        <ele>13.4</ele>
        <time>2022-04-17T09:02:20Z</time>
      </trkpt>
      <trkpt lat="50.02301" lon="2.03538">
        <ele>13.4</ele>
        <time>2022-04-17T09:02:21Z</time>
      </trkpt>
      <trkpt lat="50.02301" lon="2.03536">
        <ele>13.4</ele>
        <time>2022-04-17T09:02:22Z</time>
      </trkpt>
      <trkpt lat="50.02301" lon="2.03535">
        <ele>13.4</ele>
        <time>2022-04-17T09:02:23Z</time>
      </trkpt>
      <trkpt lat="50.02301" lon="2.03533">
        <ele>13.4</ele>
        <time>2022-04-17T09:02:24Z</time>
      </trkpt>
      <trkpt lat="50.02301" lon="2.03531">
        <ele>13.4</ele>
        <time>2022-04-17T09:02:26Z</time>
      </trkpt>
      <trkpt lat="50.02301" lon="2.03528">
        <ele>13.5</ele>
        <time>2022-04-17T09:02:27Z</time>
      </trkpt>
      <trkpt lat="50.02301" lon="2.03526">
        <ele>13.5</ele>
        <time>2022-04-17T09:02:28Z</time>
      </trkpt>
      <trkpt lat="50.02301" lon="2.03524">
        <ele>13.5</ele>
        <time>2022-04-17T09:02:29Z</time>
      </trkpt>
      <trkpt lat="50.02301" lon="2.03523">
        <ele>13.5</ele>
        <time>2022-04-17T09:02:30Z</time>
      </trkpt>
      <trkpt lat="50.02302" lon="2.03521">
        <ele>13.5</ele>
        <time>2022-04-17T09:02:31Z</time>
      </trkpt>
      <trkpt lat="50.02302" lon="2.0352">
        <ele>13.5</ele>
        <time>2022-04-17T09:02:32Z</time>
      </trkpt>
      <trkpt lat="50.02302" lon="2.03518">
        <ele>13.5</ele>
        <time>2022-04-17T09:02:34Z</time>
      </trkpt>
      <trkpt lat="50.02302" lon="2.03517">
        <ele>13.5</ele>
        <time>2022-04-17T09:02:35Z</time>
      </trkpt>
      <trkpt lat="50.02303" lon="2.03515">
        <ele>13.5</ele>
        <time>2022-04-17T09:02:36Z</time>
      </trkpt>
      <trkpt lat="50.02303" lon="2.03514">
        <ele>13.5</ele>
        <time>2022-04-17T09:02:37Z</time>
      </trkpt>
      <trkpt lat="50.02303" lon="2.03512">
        <ele>13.5</ele>
        <time>2022-04-17T09:02:38Z</time>
      </trkpt>
      <trkpt lat="50.02303" lon="2.03511">
        <ele>13.5</ele>
        <time>2022-04-17T09:02:39Z</time>
      </trkpt>
      <trkpt lat="50.02304" lon="2.03509">
        <ele>13.5</ele>
        <time>2022-04-17T09:02:41Z</time>
      </trkpt>
      <trkpt lat="50.02304" lon="2.03507">
        <ele>13.5</ele>
        <time>2022-04-17T09:02:42Z</time>
      </trkpt>
      <trkpt lat="50.02305" lon="2.03504">
        <ele>13.5</ele>
        <time>2022-04-17T09:02:43Z</time>
      </trkpt>
      <trkpt lat="50.02305" lon="2.03503">
        <ele>13.5</ele>
        <time>2022-04-17T09:02:44Z</time>
      </trkpt>
      <trkpt lat="50.02305" lon="2.03502">
        <ele>13.6</ele>
        <time>2022-04-17T09:02:45Z</time>
      </trkpt>
      <trkpt lat="50.02306" lon="2.035">
        <ele>13.6</ele>
        <time>2022-04-17T09:02:46Z</time>
      </trkpt>
      <trkpt lat="50.02306" lon="2.03498">
        <ele>13.6</ele>
        <time>2022-04-17T09:02:47Z</time>
      </trkpt>
      <trkpt lat="50.02307" lon="2.03496">
        <ele>13.6</ele>
        <time>2022-04-17T09:02:49Z</time>
      </trkpt>
      <trkpt lat="50.02306" lon="2.03494">
        <ele>13.6</ele>
        <time>2022-04-17T09:02:50Z</time>
      </trkpt>
      <trkpt lat="50.02306" lon="2.03492">
        <ele>13.6</ele>
        <time>2022-04-17T09:02:51Z</time>
      </trkpt>
      <trkpt lat="50.02306" lon="2.0349">
        <ele>13.6</ele>
        <time>2022-04-17T09:02:52Z</time>
      </trkpt>
      <trkpt lat="50.02305" lon="2.03488">
        <ele>13.6</ele>
        <time>2022-04-17T09:02:53Z</time>
      </trkpt>
      <trkpt lat="50.02305" lon="2.03486">
        <ele>13.6</ele>
        <time>2022-04-17T09:02:54Z</time>
      </trkpt>
      <trkpt lat="50.02304" lon="2.03484">
        <ele>13.6</ele>
        <time>2022-04-17T09:02:55Z</time>
      </trkpt>
      <trkpt lat="50.02304" lon="2.03481">
        <ele>13.6</ele>
        <time>2022-04-17T09:02:57Z</time>
      </trkpt>
      <trkpt lat="50.02304" lon="2.03479">
        <ele>13.6</ele>
        <time>2022-04-17T09:02:58Z</time>
      </trkpt>
      <trkpt lat="50.02304" lon="2.03478">
        <ele>13.6</ele>
        <time>2022-04-17T09:02:59Z</time>
      </trkpt>
      <trkpt lat="50.02304" lon="2.03475">
        <ele>13.6</ele>
        <time>2022-04-17T09:03:00Z</time>
      </trkpt>
      <trkpt lat="50.02304" lon="2.03473">
        <ele>13.6</ele>
        <time>2022-04-17T09:03:01Z</time>
      </trkpt>
      <trkpt lat="50.02304" lon="2.03472">
        <ele>13.6</ele>
        <time>2022-04-17T09:03:02Z</time>
      </trkpt>
      <trkpt lat="50.02304" lon="2.0347">
        <ele>13.6</ele>
        <time>2022-04-17T09:03:03Z</time>
      </trkpt>
      <trkpt lat="50.02304" lon="2.03468">
        <ele>13.6</ele>
        <time>2022-04-17T09:03:04Z</time>
      </trkpt>
      <trkpt lat="50.02304" lon="2.03466">
        <ele>13.6</ele>
        <time>2022-04-17T09:03:06Z</time>
      </trkpt>
      <trkpt lat="50.02305" lon="2.03463">
        <ele>13.6</ele>
        <time>2022-04-17T09:03:07Z</time>
      </trkpt>
      <trkpt lat="50.02305" lon="2.03461">
        <ele>13.6</ele>
        <time>2022-04-17T09:03:08Z</time>
      </trkpt>
      <trkpt lat="50.02305" lon="2.0346">
        <ele>13.6</ele>
        <time>2022-04-17T09:03:09Z</time>
      </trkpt>
      <trkpt lat="50.02305" lon="2.03458">
        <ele>13.6</ele>
        <time>2022-04-17T09:03:10Z</time>
      </trkpt>
      <trkpt lat="50.02306" lon="2.03456">
        <ele>13.6</ele>
        <time>2022-04-17T09:03:11Z</time>
      </trkpt>
      <trkpt lat="50.02306" lon="2.03455">
        <ele>13.6</ele>
        <time>2022-04-17T09:03:12Z</time>
      </trkpt>
      <trkpt lat="50.02305" lon="2.03451">
        <ele>13.7</ele>
        <time>2022-04-17T09:03:13Z</time>
      </trkpt>
      <trkpt lat="50.02305" lon="2.0345">
        <ele>13.7</ele>
        <time>2022-04-17T09:03:15Z</time>
      </trkpt>
      <trkpt lat="50.02305" lon="2.03449">
        <ele>13.7</ele>
        <time>2022-04-17T09:03:16Z</time>
      </trkpt>
      <trkpt lat="50.02305" lon="2.03447">
        <ele>13.7</ele>
        <time>2022-04-17T09:03:17Z</time>
      </trkpt>
      <trkpt lat="50.02305" lon="2.03445">
        <ele>13.7</ele>
        <time>2022-04-17T09:03:18Z</time>
      </trkpt>
      <trkpt lat="50.02305" lon="2.03443">
        <ele>13.7</ele>
        <time>2022-04-17T09:03:19Z</time>
      </trkpt>
      <trkpt lat="50.02305" lon="2.0344">
        <ele>13.7</ele>
        <time>2022-04-17T09:03:20Z</time>
      </trkpt>
      <trkpt lat="50.02305" lon="2.03439">
        <ele>13.7</ele>
        <time>2022-04-17T09:03:21Z</time>
      </trkpt>
      <trkpt lat="50.02305" lon="2.03437">
        <ele>13.7</ele>
        <time>2022-04-17T09:03:22Z</time>
      </trkpt>
      <trkpt lat="50.02305" lon="2.03434">
        <ele>13.8</ele>
        <time>2022-04-17T09:03:23Z</time>
      </trkpt>
      <trkpt lat="50.02304" lon="2.03433">
        <ele>13.8</ele>
        <time>2022-04-17T09:03:25Z</time>
      </trkpt>
      <trkpt lat="50.02304" lon="2.03431">
        <ele>13.8</ele>
        <time>2022-04-17T09:03:26Z</time>
      </trkpt>
      <trkpt lat="50.02304" lon="2.03429">
        <ele>13.8</ele>
        <time>2022-04-17T09:03:27Z</time>
      </trkpt>
      <trkpt lat="50.02304" lon="2.03427">
        <ele>13.8</ele>
        <time>2022-04-17T09:03:28Z</time>
      </trkpt>
      <trkpt lat="50.02304" lon="2.03424">
        <ele>13.8</ele>
        <time>2022-04-17T09:03:29Z</time>
      </trkpt>
      <trkpt lat="50.02305" lon="2.03422">
        <ele>13.8</ele>
        <time>2022-04-17T09:03:30Z</time>
      </trkpt>
      <trkpt lat="50.02305" lon="2.03421">
        <ele>13.9</ele>
        <time>2022-04-17T09:03:31Z</time>
      </trkpt>
      <trkpt lat="50.02304" lon="2.03418">
        <ele>13.9</ele>
        <time>2022-04-17T09:03:33Z</time>
      </trkpt>
      <trkpt lat="50.02304" lon="2.03416">
        <ele>13.9</ele>
        <time>2022-04-17T09:03:34Z</time>
      </trkpt>
      <trkpt lat="50.02304" lon="2.03415">
        <ele>13.9</ele>
        <time>2022-04-17T09:03:35Z</time>
      </trkpt>
      <trkpt lat="50.02304" lon="2.03413">
        <ele>13.9</ele>
        <time>2022-04-17T09:03:36Z</time>
      </trkpt>
      <trkpt lat="50.02303" lon="2.03411">
        <ele>14</ele>
        <time>2022-04-17T09:03:37Z</time>
      </trkpt>
      <trkpt lat="50.02304" lon="2.0341">
        <ele>14</ele>
        <time>2022-04-17T09:03:38Z</time>
      </trkpt>
      <trkpt lat="50.02304" lon="2.03406">
        <ele>14</ele>
        <time>2022-04-17T09:03:39Z</time>
      </trkpt>
      <trkpt lat="50.02304" lon="2.03405">
        <ele>14</ele>
        <time>2022-04-17T09:03:40Z</time>
      </trkpt>
      <trkpt lat="50.02304" lon="2.03403">
        <ele>14.1</ele>
        <time>2022-04-17T09:03:42Z</time>
      </trkpt>
      <trkpt lat="50.02304" lon="2.03401">
        <ele>14.1</ele>
        <time>2022-04-17T09:03:43Z</time>
      </trkpt>
      <trkpt lat="50.02304" lon="2.034">
        <ele>14.1</ele>
        <time>2022-04-17T09:03:44Z</time>
      </trkpt>
      <trkpt lat="50.02304" lon="2.03398">
        <ele>14.2</ele>
        <time>2022-04-17T09:03:45Z</time>
      </trkpt>
      <trkpt lat="50.02305" lon="2.03395">
        <ele>14.2</ele>
        <time>2022-04-17T09:03:46Z</time>
      </trkpt>
      <trkpt lat="50.02305" lon="2.03394">
        <ele>14.2</ele>
        <time>2022-04-17T09:03:47Z</time>
      </trkpt>
      <trkpt lat="50.02305" lon="2.03393">
        <ele>14.2</ele>
        <time>2022-04-17T09:03:48Z</time>
      </trkpt>
      <trkpt lat="50.02306" lon="2.0339">
        <ele>14.3</ele>
        <time>2022-04-17T09:03:50Z</time>
      </trkpt>
      <trkpt lat="50.02306" lon="2.03389">
        <ele>14.3</ele>
        <time>2022-04-17T09:03:51Z</time>
      </trkpt>
      <trkpt lat="50.02306" lon="2.03387">
        <ele>14.4</ele>
        <time>2022-04-17T09:03:52Z</time>
      </trkpt>
      <trkpt lat="50.02307" lon="2.03386">
        <ele>14.4</ele>
        <time>2022-04-17T09:03:53Z</time>
      </trkpt>
      <trkpt lat="50.02308" lon="2.03384">
        <ele>14.4</ele>
        <time>2022-04-17T09:03:54Z</time>
      </trkpt>
      <trkpt lat="50.02308" lon="2.03383">
        <ele>14.5</ele>
        <time>2022-04-17T09:03:55Z</time>
      </trkpt>
      <trkpt lat="50.02308" lon="2.03381">
        <ele>14.5</ele>
        <time>2022-04-17T09:03:56Z</time>
      </trkpt>
      <trkpt lat="50.02309" lon="2.0338">
        <ele>14.5</ele>
        <time>2022-04-17T09:03:58Z</time>
      </trkpt>
      <trkpt lat="50.02309" lon="2.03378">
        <ele>14.6</ele>
        <time>2022-04-17T09:03:59Z</time>
      </trkpt>
      <trkpt lat="50.02309" lon="2.03376">
        <ele>14.6</ele>
        <time>2022-04-17T09:04:00Z</time>
      </trkpt>
      <trkpt lat="50.02309" lon="2.03374">
        <ele>14.7</ele>
        <time>2022-04-17T09:04:01Z</time>
      </trkpt>
      <trkpt lat="50.0231" lon="2.03373">
        <ele>14.7</ele>
        <time>2022-04-17T09:04:02Z</time>
      </trkpt>
      <trkpt lat="50.0231" lon="2.03371">
        <ele>14.8</ele>
        <time>2022-04-17T09:04:03Z</time>
      </trkpt>
      <trkpt lat="50.0231" lon="2.03369">
        <ele>14.8</ele>
        <time>2022-04-17T09:04:05Z</time>
      </trkpt>
      <trkpt lat="50.0231" lon="2.03368">
        <ele>14.9</ele>
        <time>2022-04-17T09:04:06Z</time>
      </trkpt>
      <trkpt lat="50.0231" lon="2.03366">
        <ele>15</ele>
        <time>2022-04-17T09:04:07Z</time>
      </trkpt>
      <trkpt lat="50.0231" lon="2.03364">
        <ele>15</ele>
        <time>2022-04-17T09:04:08Z</time>
      </trkpt>
      <trkpt lat="50.02311" lon="2.03363">
        <ele>15.1</ele>
        <time>2022-04-17T09:04:09Z</time>
      </trkpt>
      <trkpt lat="50.02312" lon="2.03361">
        <ele>15.1</ele>
        <time>2022-04-17T09:04:10Z</time>
      </trkpt>
      <trkpt lat="50.02312" lon="2.0336">
        <ele>15.2</ele>
        <time>2022-04-17T09:04:11Z</time>
      </trkpt>
      <trkpt lat="50.02313" lon="2.03358">
        <ele>15.3</ele>
        <time>2022-04-17T09:04:13Z</time>
      </trkpt>
      <trkpt lat="50.02314" lon="2.03357">
        <ele>15.3</ele>
        <time>2022-04-17T09:04:14Z</time>
      </trkpt>
      <trkpt lat="50.02314" lon="2.03356">
        <ele>15.4</ele>
        <time>2022-04-17T09:04:15Z</time>
      </trkpt>
      <trkpt lat="50.02315" lon="2.03355">
        <ele>15.4</ele>
        <time>2022-04-17T09:04:16Z</time>
      </trkpt>
      <trkpt lat="50.02316" lon="2.03355">
        <ele>15.5</ele>
        <time>2022-04-17T09:04:17Z</time>
      </trkpt>
      <trkpt lat="50.02318" lon="2.03355">
        <ele>15.6</ele>
        <time>2022-04-17T09:04:18Z</time>
      </trkpt>
      <trkpt lat="50.02318" lon="2.03354">
        <ele>15.6</ele>
        <time>2022-04-17T09:04:19Z</time>
      </trkpt>
      <trkpt lat="50.02321" lon="2.03354">
        <ele>15.8</ele>
        <time>2022-04-17T09:04:21Z</time>
      </trkpt>
      <trkpt lat="50.02321" lon="2.03354">
        <ele>15.8</ele>
        <time>2022-04-17T09:04:22Z</time>
      </trkpt>
      <trkpt lat="50.02322" lon="2.03354">
        <ele>15.8</ele>
        <time>2022-04-17T09:04:23Z</time>
      </trkpt>
      <trkpt lat="50.02323" lon="2.03354">
        <ele>15.9</ele>
        <time>2022-04-17T09:04:24Z</time>
      </trkpt>
      <trkpt lat="50.02325" lon="2.03354">
        <ele>16</ele>
        <time>2022-04-17T09:04:25Z</time>
      </trkpt>
      <trkpt lat="50.02325" lon="2.03354">
        <ele>16.1</ele>
        <time>2022-04-17T09:04:26Z</time>
      </trkpt>
      <trkpt lat="50.02327" lon="2.03354">
        <ele>16.1</ele>
        <time>2022-04-17T09:04:28Z</time>
      </trkpt>
      <trkpt lat="50.02328" lon="2.03354">
        <ele>16.2</ele>
        <time>2022-04-17T09:04:29Z</time>
      </trkpt>
      <trkpt lat="50.02329" lon="2.03354">
        <ele>16.3</ele>
        <time>2022-04-17T09:04:30Z</time>
      </trkpt>
      <trkpt lat="50.02329" lon="2.03353">
        <ele>16.3</ele>
        <time>2022-04-17T09:04:31Z</time>
      </trkpt>
      <trkpt lat="50.0233" lon="2.03353">
        <ele>16.3</ele>
        <time>2022-04-17T09:04:32Z</time>
      </trkpt>
      <trkpt lat="50.02331" lon="2.03353">
        <ele>16.4</ele>
        <time>2022-04-17T09:04:33Z</time>
      </trkpt>
      <trkpt lat="50.02332" lon="2.03353">
        <ele>16.4</ele>
        <time>2022-04-17T09:04:35Z</time>
      </trkpt>
      <trkpt lat="50.02333" lon="2.03353">
        <ele>16.5</ele>
        <time>2022-04-17T09:04:36Z</time>
      </trkpt>
      <trkpt lat="50.02334" lon="2.03353">
        <ele>16.5</ele>
        <time>2022-04-17T09:04:37Z</time>
      </trkpt>
      <trkpt lat="50.02334" lon="2.03354">
        <ele>16.6</ele>
        <time>2022-04-17T09:04:38Z</time>
      </trkpt>
      <trkpt lat="50.02335" lon="2.03354">
        <ele>16.6</ele>
        <time>2022-04-17T09:04:39Z</time>
      </trkpt>
      <trkpt lat="50.02335" lon="2.03353">
        <ele>17.1</ele>
        <time>2022-04-17T09:04:41Z</time>
      </trkpt>
      <trkpt lat="50.02336" lon="2.03353">
        <ele>17.1</ele>
        <time>2022-04-17T09:04:42Z</time>
      </trkpt>
      <trkpt lat="50.02337" lon="2.03353">
        <ele>17.2</ele>
        <time>2022-04-17T09:04:43Z</time>
      </trkpt>
      <trkpt lat="50.02337" lon="2.03353">
        <ele>17.2</ele>
        <time>2022-04-17T09:04:44Z</time>
      </trkpt>
      <trkpt lat="50.02338" lon="2.03353">
        <ele>17.3</ele>
        <time>2022-04-17T09:04:45Z</time>
      </trkpt>
      <trkpt lat="50.02338" lon="2.03353">
        <ele>17.3</ele>
        <time>2022-04-17T09:04:46Z</time>
      </trkpt>
      <trkpt lat="50.02339" lon="2.03354">
        <ele>17.3</ele>
        <time>2022-04-17T09:04:48Z</time>
      </trkpt>
      <trkpt lat="50.0234" lon="2.03353">
        <ele>17.4</ele>
        <time>2022-04-17T09:04:49Z</time>
      </trkpt>
      <trkpt lat="50.02341" lon="2.03353">
        <ele>17.4</ele>
        <time>2022-04-17T09:04:50Z</time>
      </trkpt>
      <trkpt lat="50.02342" lon="2.03353">
        <ele>17.5</ele>
        <time>2022-04-17T09:04:52Z</time>
      </trkpt>
      <trkpt lat="50.02342" lon="2.03352">
        <ele>17.5</ele>
        <time>2022-04-17T09:04:53Z</time>
      </trkpt>
      <trkpt lat="50.02343" lon="2.03351">
        <ele>17.6</ele>
        <time>2022-04-17T09:04:54Z</time>
      </trkpt>
      <trkpt lat="50.02343" lon="2.03349">
        <ele>17.7</ele>
        <time>2022-04-17T09:04:55Z</time>
      </trkpt>
      <trkpt lat="50.02344" lon="2.03347">
        <ele>17.7</ele>
        <time>2022-04-17T09:04:56Z</time>
      </trkpt>
      <trkpt lat="50.02344" lon="2.03346">
        <ele>17.8</ele>
        <time>2022-04-17T09:04:57Z</time>
      </trkpt>
      <trkpt lat="50.02345" lon="2.03343">
        <ele>17.9</ele>
        <time>2022-04-17T09:04:59Z</time>
      </trkpt>
      <trkpt lat="50.02345" lon="2.03341">
        <ele>18</ele>
        <time>2022-04-17T09:05:00Z</time>
      </trkpt>
      <trkpt lat="50.02345" lon="2.03338">
        <ele>18.1</ele>
        <time>2022-04-17T09:05:01Z</time>
      </trkpt>
      <trkpt lat="50.02346" lon="2.03336">
        <ele>18.2</ele>
        <time>2022-04-17T09:05:02Z</time>
      </trkpt>
      <trkpt lat="50.02347" lon="2.03333">
        <ele>18.2</ele>
        <time>2022-04-17T09:05:04Z</time>
      </trkpt>
      <trkpt lat="50.02348" lon="2.03332">
        <ele>18.3</ele>
        <time>2022-04-17T09:05:05Z</time>
      </trkpt>
      <trkpt lat="50.02349" lon="2.03329">
        <ele>18.4</ele>
        <time>2022-04-17T09:05:06Z</time>
      </trkpt>
      <trkpt lat="50.02349" lon="2.03326">
        <ele>18.5</ele>
        <time>2022-04-17T09:05:07Z</time>
      </trkpt>
      <trkpt lat="50.02349" lon="2.03325">
        <ele>18.5</ele>
        <time>2022-04-17T09:05:08Z</time>
      </trkpt>
      <trkpt lat="50.02349" lon="2.03324">
        <ele>18.6</ele>
        <time>2022-04-17T09:05:09Z</time>
      </trkpt>
      <trkpt lat="50.0235" lon="2.03322">
        <ele>18.6</ele>
        <time>2022-04-17T09:05:10Z</time>
      </trkpt>
      <trkpt lat="50.02351" lon="2.03319">
        <ele>18.7</ele>
        <time>2022-04-17T09:05:12Z</time>
      </trkpt>
      <trkpt lat="50.02351" lon="2.03316">
        <ele>18.8</ele>
        <time>2022-04-17T09:05:13Z</time>
      </trkpt>
      <trkpt lat="50.02352" lon="2.03314">
        <ele>18.9</ele>
        <time>2022-04-17T09:05:14Z</time>
      </trkpt>
      <trkpt lat="50.02353" lon="2.03312">
        <ele>18.9</ele>
        <time>2022-04-17T09:05:15Z</time>
      </trkpt>
      <trkpt lat="50.02353" lon="2.0331">
        <ele>18.9</ele>
        <time>2022-04-17T09:05:16Z</time>
      </trkpt>
      <trkpt lat="50.02353" lon="2.03308">
        <ele>18.9</ele>
        <time>2022-04-17T09:05:17Z</time>
      </trkpt>
      <trkpt lat="50.02354" lon="2.03305">
        <ele>18.9</ele>
        <time>2022-04-17T09:05:19Z</time>
      </trkpt>
      <trkpt lat="50.02354" lon="2.03302">
        <ele>18.9</ele>
        <time>2022-04-17T09:05:20Z</time>
      </trkpt>
      <trkpt lat="50.02354" lon="2.033">
        <ele>18.9</ele>
        <time>2022-04-17T09:05:21Z</time>
      </trkpt>
      <trkpt lat="50.02355" lon="2.03297">
        <ele>18.9</ele>
        <time>2022-04-17T09:05:22Z</time>
      </trkpt>
      <trkpt lat="50.02355" lon="2.03295">
        <ele>18.8</ele>
        <time>2022-04-17T09:05:23Z</time>
      </trkpt>
      <trkpt lat="50.02356" lon="2.03293">
        <ele>18.8</ele>
        <time>2022-04-17T09:05:24Z</time>
      </trkpt>
      <trkpt lat="50.02356" lon="2.03291">
        <ele>18.7</ele>
        <time>2022-04-17T09:05:26Z</time>
      </trkpt>
      <trkpt lat="50.02356" lon="2.03288">
        <ele>18.7</ele>
        <time>2022-04-17T09:05:27Z</time>
      </trkpt>
      <trkpt lat="50.02356" lon="2.03286">
        <ele>18.7</ele>
        <time>2022-04-17T09:05:28Z</time>
      </trkpt>
      <trkpt lat="50.02356" lon="2.03284">
        <ele>18.6</ele>
        <time>2022-04-17T09:05:29Z</time>
      </trkpt>
      <trkpt lat="50.02355" lon="2.03282">
        <ele>18.6</ele>
        <time>2022-04-17T09:05:30Z</time>
      </trkpt>
      <trkpt lat="50.02355" lon="2.03281">
        <ele>18.6</ele>
        <time>2022-04-17T09:05:31Z</time>
      </trkpt>
      <trkpt lat="50.02355" lon="2.03281">
        <ele>18.6</ele>
        <time>2022-04-17T09:05:32Z</time>
      </trkpt>
      <trkpt lat="50.02355" lon="2.0328">
        <ele>18.6</ele>
        <time>2022-04-17T09:05:33Z</time>
      </trkpt>
      <trkpt lat="50.02355" lon="2.03279">
        <ele>18.5</ele>
        <time>2022-04-17T09:05:34Z</time>
      </trkpt>
      <trkpt lat="50.02355" lon="2.03278">
        <ele>18.5</ele>
        <time>2022-04-17T09:05:35Z</time>
      </trkpt>
      <trkpt lat="50.02356" lon="2.03277">
        <ele>18.5</ele>
        <time>2022-04-17T09:05:36Z</time>
      </trkpt>
      <trkpt lat="50.02356" lon="2.03276">
        <ele>18.5</ele>
        <time>2022-04-17T09:05:37Z</time>
      </trkpt>
      <trkpt lat="50.02357" lon="2.03274">
        <ele>18.5</ele>
        <time>2022-04-17T09:05:38Z</time>
      </trkpt>
      <trkpt lat="50.02358" lon="2.03273">
        <ele>18.4</ele>
        <time>2022-04-17T09:05:39Z</time>
      </trkpt>
      <trkpt lat="50.02359" lon="2.03271">
        <ele>18.4</ele>
        <time>2022-04-17T09:05:40Z</time>
      </trkpt>
      <trkpt lat="50.0236" lon="2.03269">
        <ele>18.4</ele>
        <time>2022-04-17T09:05:42Z</time>
      </trkpt>
      <trkpt lat="50.02361" lon="2.03268">
        <ele>18.3</ele>
        <time>2022-04-17T09:05:43Z</time>
      </trkpt>
      <trkpt lat="50.02362" lon="2.03266">
        <ele>18.3</ele>
        <time>2022-04-17T09:05:44Z</time>
      </trkpt>
      <trkpt lat="50.02363" lon="2.03263">
        <ele>18.2</ele>
        <time>2022-04-17T09:05:45Z</time>
      </trkpt>
      <trkpt lat="50.02364" lon="2.03262">
        <ele>18.2</ele>
        <time>2022-04-17T09:05:46Z</time>
      </trkpt>
      <trkpt lat="50.02364" lon="2.03261">
        <ele>18.2</ele>
        <time>2022-04-17T09:05:47Z</time>
      </trkpt>
      <trkpt lat="50.02365" lon="2.03259">
        <ele>18.1</ele>
        <time>2022-04-17T09:05:49Z</time>
      </trkpt>
      <trkpt lat="50.02366" lon="2.03257">
        <ele>18.1</ele>
        <time>2022-04-17T09:05:50Z</time>
      </trkpt>
      <trkpt lat="50.02367" lon="2.03255">
        <ele>18.1</ele>
        <time>2022-04-17T09:05:51Z</time>
      </trkpt>
      <trkpt lat="50.02367" lon="2.03253">
        <ele>18</ele>
        <time>2022-04-17T09:05:52Z</time>
      </trkpt>
      <trkpt lat="50.02367" lon="2.03252">
        <ele>18</ele>
        <time>2022-04-17T09:05:53Z</time>
      </trkpt>
      <trkpt lat="50.02368" lon="2.03249">
        <ele>17.9</ele>
        <time>2022-04-17T09:05:54Z</time>
      </trkpt>
      <trkpt lat="50.02369" lon="2.03248">
        <ele>17.9</ele>
        <time>2022-04-17T09:05:56Z</time>
      </trkpt>
      <trkpt lat="50.02369" lon="2.03246">
        <ele>17.9</ele>
        <time>2022-04-17T09:05:57Z</time>
      </trkpt>
      <trkpt lat="50.0237" lon="2.03243">
        <ele>17.8</ele>
        <time>2022-04-17T09:05:58Z</time>
      </trkpt>
      <trkpt lat="50.0237" lon="2.03242">
        <ele>17.8</ele>
        <time>2022-04-17T09:05:59Z</time>
      </trkpt>
      <trkpt lat="50.0237" lon="2.03241">
        <ele>17.8</ele>
        <time>2022-04-17T09:06:00Z</time>
      </trkpt>
      <trkpt lat="50.0237" lon="2.03238">
        <ele>17.8</ele>
        <time>2022-04-17T09:06:01Z</time>
      </trkpt>
      <trkpt lat="50.02371" lon="2.03237">
        <ele>17.7</ele>
        <time>2022-04-17T09:06:03Z</time>
      </trkpt>
      <trkpt lat="50.02371" lon="2.03235">
        <ele>17.7</ele>
        <time>2022-04-17T09:06:04Z</time>
      </trkpt>
      <trkpt lat="50.02371" lon="2.03234">
        <ele>17.7</ele>
        <time>2022-04-17T09:06:05Z</time>
      </trkpt>
      <trkpt lat="50.02371" lon="2.03232">
        <ele>17.6</ele>
        <time>2022-04-17T09:06:06Z</time>
      </trkpt>
      <trkpt lat="50.02371" lon="2.0323">
        <ele>17.6</ele>
        <time>2022-04-17T09:06:07Z</time>
      </trkpt>
      <trkpt lat="50.02372" lon="2.03228">
        <ele>17.6</ele>
        <time>2022-04-17T09:06:08Z</time>
      </trkpt>
      <trkpt lat="50.02372" lon="2.03227">
        <ele>17.6</ele>
        <time>2022-04-17T09:06:09Z</time>
      </trkpt>
      <trkpt lat="50.02372" lon="2.03225">
        <ele>17.5</ele>
        <time>2022-04-17T09:06:11Z</time>
      </trkpt>
      <trkpt lat="50.02373" lon="2.03223">
        <ele>17.5</ele>
        <time>2022-04-17T09:06:12Z</time>
      </trkpt>
      <trkpt lat="50.02373" lon="2.03221">
        <ele>17.5</ele>
        <time>2022-04-17T09:06:13Z</time>
      </trkpt>
      <trkpt lat="50.02373" lon="2.03219">
        <ele>17.4</ele>
        <time>2022-04-17T09:06:14Z</time>
      </trkpt>
      <trkpt lat="50.02373" lon="2.03218">
        <ele>17.4</ele>
        <time>2022-04-17T09:06:15Z</time>
      </trkpt>
      <trkpt lat="50.02373" lon="2.03216">
        <ele>17.4</ele>
        <time>2022-04-17T09:06:17Z</time>
      </trkpt>
      <trkpt lat="50.02373" lon="2.03215">
        <ele>17.4</ele>
        <time>2022-04-17T09:06:18Z</time>
      </trkpt>
      <trkpt lat="50.02374" lon="2.03213">
        <ele>17.3</ele>
        <time>2022-04-17T09:06:19Z</time>
      </trkpt>
      <trkpt lat="50.02374" lon="2.03212">
        <ele>17.3</ele>
        <time>2022-04-17T09:06:20Z</time>
      </trkpt>
      <trkpt lat="50.02374" lon="2.0321">
        <ele>17.3</ele>
        <time>2022-04-17T09:06:21Z</time>
      </trkpt>
      <trkpt lat="50.02374" lon="2.03209">
        <ele>17.3</ele>
        <time>2022-04-17T09:06:22Z</time>
      </trkpt>
      <trkpt lat="50.02374" lon="2.03207">
        <ele>17.2</ele>
        <time>2022-04-17T09:06:24Z</time>
      </trkpt>
      <trkpt lat="50.02375" lon="2.03206">
        <ele>17.2</ele>
        <time>2022-04-17T09:06:25Z</time>
      </trkpt>
      <trkpt lat="50.02375" lon="2.03204">
        <ele>17.2</ele>
        <time>2022-04-17T09:06:26Z</time>
      </trkpt>
      <trkpt lat="50.02375" lon="2.03202">
        <ele>17.2</ele>
        <time>2022-04-17T09:06:27Z</time>
      </trkpt>
      <trkpt lat="50.02375" lon="2.032">
        <ele>17.2</ele>
        <time>2022-04-17T09:06:28Z</time>
      </trkpt>
      <trkpt lat="50.02376" lon="2.03199">
        <ele>17.1</ele>
        <time>2022-04-17T09:06:29Z</time>
      </trkpt>
      <trkpt lat="50.02376" lon="2.03197">
        <ele>17.1</ele>
        <time>2022-04-17T09:06:30Z</time>
      </trkpt>
      <trkpt lat="50.02376" lon="2.03195">
        <ele>17.1</ele>
        <time>2022-04-17T09:06:32Z</time>
      </trkpt>
      <trkpt lat="50.02377" lon="2.03192">
        <ele>17.1</ele>
        <time>2022-04-17T09:06:33Z</time>
      </trkpt>
      <trkpt lat="50.02377" lon="2.0319">
        <ele>17.1</ele>
        <time>2022-04-17T09:06:34Z</time>
      </trkpt>
      <trkpt lat="50.02377" lon="2.03189">
        <ele>17</ele>
        <time>2022-04-17T09:06:35Z</time>
      </trkpt>
      <trkpt lat="50.02378" lon="2.03186">
        <ele>17</ele>
        <time>2022-04-17T09:06:36Z</time>
      </trkpt>
      <trkpt lat="50.02378" lon="2.03184">
        <ele>17</ele>
        <time>2022-04-17T09:06:37Z</time>
      </trkpt>
      <trkpt lat="50.02378" lon="2.03183">
        <ele>17</ele>
        <time>2022-04-17T09:06:38Z</time>
      </trkpt>
      <trkpt lat="50.02378" lon="2.03181">
        <ele>17</ele>
        <time>2022-04-17T09:06:39Z</time>
      </trkpt>
      <trkpt lat="50.02378" lon="2.03179">
        <ele>17</ele>
        <time>2022-04-17T09:06:40Z</time>
      </trkpt>
      <trkpt lat="50.02378" lon="2.03177">
        <ele>17</ele>
        <time>2022-04-17T09:06:42Z</time>
      </trkpt>
      <trkpt lat="50.02378" lon="2.03174">
        <ele>16.9</ele>
        <time>2022-04-17T09:06:43Z</time>
      </trkpt>
      <trkpt lat="50.02378" lon="2.03172">
        <ele>16.9</ele>
        <time>2022-04-17T09:06:44Z</time>
      </trkpt>
      <trkpt lat="50.02379" lon="2.03171">
        <ele>16.9</ele>
        <time>2022-04-17T09:06:45Z</time>
      </trkpt>
      <trkpt lat="50.02379" lon="2.03169">
        <ele>16.9</ele>
        <time>2022-04-17T09:06:46Z</time>
      </trkpt>
      <trkpt lat="50.02379" lon="2.03168">
        <ele>16.9</ele>
        <time>2022-04-17T09:06:47Z</time>
      </trkpt>
      <trkpt lat="50.0238" lon="2.03166">
        <ele>16.9</ele>
        <time>2022-04-17T09:06:48Z</time>
      </trkpt>
      <trkpt lat="50.0238" lon="2.03164">
        <ele>16.9</ele>
        <time>2022-04-17T09:06:50Z</time>
      </trkpt>
      <trkpt lat="50.02381" lon="2.03163">
        <ele>16.9</ele>
        <time>2022-04-17T09:06:51Z</time>
      </trkpt>
      <trkpt lat="50.02381" lon="2.03161">
        <ele>16.9</ele>
        <time>2022-04-17T09:06:52Z</time>
      </trkpt>
      <trkpt lat="50.02381" lon="2.0316">
        <ele>16.9</ele>
        <time>2022-04-17T09:06:53Z</time>
      </trkpt>
      <trkpt lat="50.02382" lon="2.03158">
        <ele>16.9</ele>
        <time>2022-04-17T09:06:54Z</time>
      </trkpt>
      <trkpt lat="50.02383" lon="2.03157">
        <ele>16.9</ele>
        <time>2022-04-17T09:06:55Z</time>
      </trkpt>
      <trkpt lat="50.02383" lon="2.03155">
        <ele>16.9</ele>
        <time>2022-04-17T09:06:57Z</time>
      </trkpt>
      <trkpt lat="50.02384" lon="2.03153">
        <ele>16.9</ele>
        <time>2022-04-17T09:06:58Z</time>
      </trkpt>
      <trkpt lat="50.02385" lon="2.03151">
        <ele>16.9</ele>
        <time>2022-04-17T09:06:59Z</time>
      </trkpt>
      <trkpt lat="50.02385" lon="2.0315">
        <ele>16.9</ele>
        <time>2022-04-17T09:07:00Z</time>
      </trkpt>
      <trkpt lat="50.02385" lon="2.03149">
        <ele>16.9</ele>
        <time>2022-04-17T09:07:01Z</time>
      </trkpt>
      <trkpt lat="50.02386" lon="2.03148">
        <ele>16.9</ele>
        <time>2022-04-17T09:07:02Z</time>
      </trkpt>
      <trkpt lat="50.02386" lon="2.03147">
        <ele>16.9</ele>
        <time>2022-04-17T09:07:03Z</time>
      </trkpt>
      <trkpt lat="50.02387" lon="2.03146">
        <ele>16.9</ele>
        <time>2022-04-17T09:07:04Z</time>
      </trkpt>
      <trkpt lat="50.02387" lon="2.03146">
        <ele>16.9</ele>
        <time>2022-04-17T09:07:05Z</time>
      </trkpt>
      <trkpt lat="50.02387" lon="2.03146">
        <ele>16.9</ele>
        <time>2022-04-17T09:07:06Z</time>
      </trkpt>
      <trkpt lat="50.02387" lon="2.03146">
        <ele>16.9</ele>
        <time>2022-04-17T09:07:07Z</time>
      </trkpt>
      <trkpt lat="50.02387" lon="2.03146">
        <ele>16.9</ele>
        <time>2022-04-17T09:07:08Z</time>
      </trkpt>
      <trkpt lat="50.02387" lon="2.03146">
        <ele>16.9</ele>
        <time>2022-04-17T09:07:09Z</time>
      </trkpt>
      <trkpt lat="50.02387" lon="2.03146">
        <ele>16.9</ele>
        <time>2022-04-17T09:07:10Z</time>
      </trkpt>
      <trkpt lat="50.02387" lon="2.03147">
        <ele>16.9</ele>
        <time>2022-04-17T09:07:11Z</time>
      </trkpt>
      <trkpt lat="50.02387" lon="2.03147">
        <ele>16.9</ele>
        <time>2022-04-17T09:07:13Z</time>
      </trkpt>
      <trkpt lat="50.02387" lon="2.03147">
        <ele>16.9</ele>
        <time>2022-04-17T09:07:14Z</time>
      </trkpt>
      <trkpt lat="50.02387" lon="2.03147">
        <ele>16.9</ele>
        <time>2022-04-17T09:07:15Z</time>
      </trkpt>
      <trkpt lat="50.02388" lon="2.03148">
        <ele>16.9</ele>
        <time>2022-04-17T09:07:16Z</time>
      </trkpt>
      <trkpt lat="50.02389" lon="2.03149">
        <ele>16.9</ele>
        <time>2022-04-17T09:07:17Z</time>
      </trkpt>
      <trkpt lat="50.02389" lon="2.03149">
        <ele>16.9</ele>
        <time>2022-04-17T09:07:18Z</time>
      </trkpt>
      <trkpt lat="50.0239" lon="2.0315">
        <ele>16.9</ele>
        <time>2022-04-17T09:07:20Z</time>
      </trkpt>
      <trkpt lat="50.02391" lon="2.03149">
        <ele>16.9</ele>
        <time>2022-04-17T09:07:21Z</time>
      </trkpt>
      <trkpt lat="50.02392" lon="2.03149">
        <ele>16.9</ele>
        <time>2022-04-17T09:07:22Z</time>
      </trkpt>
      <trkpt lat="50.02393" lon="2.03149">
        <ele>16.9</ele>
        <time>2022-04-17T09:07:23Z</time>
      </trkpt>
      <trkpt lat="50.02394" lon="2.0315">
        <ele>18.4</ele>
        <time>2022-04-17T09:07:24Z</time>
      </trkpt>
      <trkpt lat="50.02394" lon="2.03151">
        <ele>18.4</ele>
        <time>2022-04-17T09:07:25Z</time>
      </trkpt>
      <trkpt lat="50.02394" lon="2.03153">
        <ele>18.6</ele>
        <time>2022-04-17T09:07:27Z</time>
      </trkpt>
      <trkpt lat="50.02395" lon="2.03155">
        <ele>18.7</ele>
        <time>2022-04-17T09:07:28Z</time>
      </trkpt>
      <trkpt lat="50.02394" lon="2.03157">
        <ele>18.8</ele>
        <time>2022-04-17T09:07:29Z</time>
      </trkpt>
      <trkpt lat="50.02394" lon="2.03158">
        <ele>18.9</ele>
        <time>2022-04-17T09:07:30Z</time>
      </trkpt>
      <trkpt lat="50.02394" lon="2.0316">
        <ele>19</ele>
        <time>2022-04-17T09:07:31Z</time>
      </trkpt>
      <trkpt lat="50.02393" lon="2.03162">
        <ele>19.1</ele>
        <time>2022-04-17T09:07:32Z</time>
      </trkpt>
      <trkpt lat="50.02392" lon="2.03164">
        <ele>19.3</ele>
        <time>2022-04-17T09:07:34Z</time>
      </trkpt>
      <trkpt lat="50.02392" lon="2.03166">
        <ele>19.4</ele>
        <time>2022-04-17T09:07:35Z</time>
      </trkpt>
      <trkpt lat="50.02391" lon="2.03168">
        <ele>19.6</ele>
        <time>2022-04-17T09:07:36Z</time>
      </trkpt>
      <trkpt lat="50.02391" lon="2.0317">
        <ele>19.7</ele>
        <time>2022-04-17T09:07:37Z</time>
      </trkpt>
      <trkpt lat="50.02391" lon="2.03171">
        <ele>19.7</ele>
        <time>2022-04-17T09:07:38Z</time>
      </trkpt>
      <trkpt lat="50.02391" lon="2.03173">
        <ele>19.8</ele>
        <time>2022-04-17T09:07:39Z</time>
      </trkpt>
      <trkpt lat="50.02391" lon="2.03175">
        <ele>19.9</ele>
        <time>2022-04-17T09:07:40Z</time>
      </trkpt>
      <trkpt lat="50.0239" lon="2.03176">
        <ele>20</ele>
        <time>2022-04-17T09:07:41Z</time>
      </trkpt>
      <trkpt lat="50.02391" lon="2.03178">
        <ele>20.2</ele>
        <time>2022-04-17T09:07:43Z</time>
      </trkpt>
      <trkpt lat="50.02391" lon="2.0318">
        <ele>20.3</ele>
        <time>2022-04-17T09:07:44Z</time>
      </trkpt>
      <trkpt lat="50.02391" lon="2.03182">
        <ele>20.4</ele>
        <time>2022-04-17T09:07:45Z</time>
      </trkpt>
      <trkpt lat="50.02391" lon="2.03183">
        <ele>20.5</ele>
        <time>2022-04-17T09:07:46Z</time>
      </trkpt>
      <trkpt lat="50.02391" lon="2.03185">
        <ele>20.6</ele>
        <time>2022-04-17T09:07:47Z</time>
      </trkpt>
      <trkpt lat="50.02392" lon="2.03186">
        <ele>20.7</ele>
        <time>2022-04-17T09:07:48Z</time>
      </trkpt>
      <trkpt lat="50.02392" lon="2.03188">
        <ele>20.8</ele>
        <time>2022-04-17T09:07:50Z</time>
      </trkpt>
      <trkpt lat="50.02392" lon="2.03189">
        <ele>20.9</ele>
        <time>2022-04-17T09:07:51Z</time>
      </trkpt>
      <trkpt lat="50.02393" lon="2.03191">
        <ele>21</ele>
        <time>2022-04-17T09:07:52Z</time>
      </trkpt>
      <trkpt lat="50.02393" lon="2.03192">
        <ele>21.1</ele>
        <time>2022-04-17T09:07:53Z</time>
      </trkpt>
      <trkpt lat="50.02393" lon="2.03194">
        <ele>21.2</ele>
        <time>2022-04-17T09:07:54Z</time>
      </trkpt>
      <trkpt lat="50.02394" lon="2.03195">
        <ele>21.3</ele>
        <time>2022-04-17T09:07:56Z</time>
      </trkpt>
      <trkpt lat="50.02394" lon="2.03197">
        <ele>21.4</ele>
        <time>2022-04-17T09:07:57Z</time>
      </trkpt>
      <trkpt lat="50.02395" lon="2.03198">
        <ele>21.5</ele>
        <time>2022-04-17T09:07:58Z</time>
      </trkpt>
      <trkpt lat="50.02395" lon="2.032">
        <ele>21.6</ele>
        <time>2022-04-17T09:07:59Z</time>
      </trkpt>
      <trkpt lat="50.02395" lon="2.03202">
        <ele>21.7</ele>
        <time>2022-04-17T09:08:01Z</time>
      </trkpt>
      <trkpt lat="50.02396" lon="2.03203">
        <ele>21.8</ele>
        <time>2022-04-17T09:08:02Z</time>
      </trkpt>
      <trkpt lat="50.02396" lon="2.03205">
        <ele>22</ele>
        <time>2022-04-17T09:08:03Z</time>
      </trkpt>
      <trkpt lat="50.02396" lon="2.03206">
        <ele>22.1</ele>
        <time>2022-04-17T09:08:04Z</time>
      </trkpt>
      <trkpt lat="50.02396" lon="2.03208">
        <ele>22.2</ele>
        <time>2022-04-17T09:08:06Z</time>
      </trkpt>
      <trkpt lat="50.02397" lon="2.0321">
        <ele>22.3</ele>
        <time>2022-04-17T09:08:07Z</time>
      </trkpt>
      <trkpt lat="50.02397" lon="2.03211">
        <ele>22.4</ele>
        <time>2022-04-17T09:08:08Z</time>
      </trkpt>
      <trkpt lat="50.02397" lon="2.03213">
        <ele>22.5</ele>
        <time>2022-04-17T09:08:09Z</time>
      </trkpt>
      <trkpt lat="50.02397" lon="2.03214">
        <ele>22.6</ele>
        <time>2022-04-17T09:08:10Z</time>
      </trkpt>
      <trkpt lat="50.02397" lon="2.03216">
        <ele>22.7</ele>
        <time>2022-04-17T09:08:11Z</time>
      </trkpt>
      <trkpt lat="50.02398" lon="2.03218">
        <ele>22.9</ele>
        <time>2022-04-17T09:08:12Z</time>
      </trkpt>
      <trkpt lat="50.02398" lon="2.03219">
        <ele>23</ele>
        <time>2022-04-17T09:08:14Z</time>
      </trkpt>
      <trkpt lat="50.02399" lon="2.03221">
        <ele>23</ele>
        <time>2022-04-17T09:08:15Z</time>
      </trkpt>
      <trkpt lat="50.024" lon="2.03224">
        <ele>23.3</ele>
        <time>2022-04-17T09:08:16Z</time>
      </trkpt>
      <trkpt lat="50.024" lon="2.03225">
        <ele>23.3</ele>
        <time>2022-04-17T09:08:18Z</time>
      </trkpt>
      <trkpt lat="50.024" lon="2.03226">
        <ele>23.4</ele>
        <time>2022-04-17T09:08:19Z</time>
      </trkpt>
      <trkpt lat="50.02402" lon="2.03227">
        <ele>23.6</ele>
        <time>2022-04-17T09:08:21Z</time>
      </trkpt>
      <trkpt lat="50.02403" lon="2.03229">
        <ele>23.8</ele>
        <time>2022-04-17T09:08:22Z</time>
      </trkpt>
      <trkpt lat="50.02406" lon="2.0323">
        <ele>24.1</ele>
        <time>2022-04-17T09:08:24Z</time>
      </trkpt>
      <trkpt lat="50.02408" lon="2.03231">
        <ele>24</ele>
        <time>2022-04-17T09:08:25Z</time>
      </trkpt>
      <trkpt lat="50.02408" lon="2.03231">
        <ele>24</ele>
        <time>2022-04-17T09:08:26Z</time>
      </trkpt>
      <trkpt lat="50.02409" lon="2.03232">
        <ele>23.9</ele>
        <time>2022-04-17T09:08:27Z</time>
      </trkpt>
      <trkpt lat="50.0241" lon="2.03233">
        <ele>23.9</ele>
        <time>2022-04-17T09:08:29Z</time>
      </trkpt>
      <trkpt lat="50.0241" lon="2.03234">
        <ele>23.8</ele>
        <time>2022-04-17T09:08:31Z</time>
      </trkpt>
      <trkpt lat="50.0241" lon="2.03234">
        <ele>23.8</ele>
        <time>2022-04-17T09:08:32Z</time>
      </trkpt>
      <trkpt lat="50.02411" lon="2.03234">
        <ele>23.8</ele>
        <time>2022-04-17T09:08:33Z</time>
      </trkpt>
      <trkpt lat="50.02411" lon="2.03234">
        <ele>23.8</ele>
        <time>2022-04-17T09:08:35Z</time>
      </trkpt>
      <trkpt lat="50.02411" lon="2.03235">
        <ele>23.7</ele>
        <time>2022-04-17T09:08:36Z</time>
      </trkpt>
      <trkpt lat="50.02412" lon="2.03236">
        <ele>23.7</ele>
        <time>2022-04-17T09:08:37Z</time>
      </trkpt>
      <trkpt lat="50.02412" lon="2.03236">
        <ele>23.7</ele>
        <time>2022-04-17T09:08:38Z</time>
      </trkpt>
      <trkpt lat="50.02412" lon="2.03236">
        <ele>23.7</ele>
        <time>2022-04-17T09:08:39Z</time>
      </trkpt>
      <trkpt lat="50.02412" lon="2.03236">
        <ele>23.7</ele>
        <time>2022-04-17T09:08:40Z</time>
      </trkpt>
      <trkpt lat="50.02412" lon="2.03236">
        <ele>23.7</ele>
        <time>2022-04-17T09:08:41Z</time>
      </trkpt>
      <trkpt lat="50.02412" lon="2.03235">
        <ele>23.7</ele>
        <time>2022-04-17T09:08:42Z</time>
      </trkpt>
      <trkpt lat="50.02411" lon="2.03235">
        <ele>23.7</ele>
        <time>2022-04-17T09:08:43Z</time>
      </trkpt>
      <trkpt lat="50.02411" lon="2.03235">
        <ele>23.7</ele>
        <time>2022-04-17T09:08:44Z</time>
      </trkpt>
      <trkpt lat="50.02411" lon="2.03235">
        <ele>23.7</ele>
        <time>2022-04-17T09:08:45Z</time>
      </trkpt>
      <trkpt lat="50.02411" lon="2.03235">
        <ele>23.6</ele>
        <time>2022-04-17T09:08:46Z</time>
      </trkpt>
      <trkpt lat="50.02411" lon="2.03235">
        <ele>23.6</ele>
        <time>2022-04-17T09:08:47Z</time>
      </trkpt>
      <trkpt lat="50.0241" lon="2.03235">
        <ele>23.6</ele>
        <time>2022-04-17T09:08:48Z</time>
      </trkpt>
      <trkpt lat="50.0241" lon="2.03235">
        <ele>23.6</ele>
        <time>2022-04-17T09:08:49Z</time>
      </trkpt>
      <trkpt lat="50.0241" lon="2.03235">
        <ele>23.6</ele>
        <time>2022-04-17T09:08:50Z</time>
      </trkpt>
      <trkpt lat="50.0241" lon="2.03235">
        <ele>23.6</ele>
        <time>2022-04-17T09:08:51Z</time>
      </trkpt>
      <trkpt lat="50.02409" lon="2.03234">
        <ele>23.6</ele>
        <time>2022-04-17T09:08:53Z</time>
      </trkpt>
      <trkpt lat="50.02409" lon="2.03234">
        <ele>23.6</ele>
        <time>2022-04-17T09:08:54Z</time>
      </trkpt>
      <trkpt lat="50.02409" lon="2.03234">
        <ele>23.5</ele>
        <time>2022-04-17T09:08:55Z</time>
      </trkpt>
      <trkpt lat="50.02409" lon="2.03234">
        <ele>23.5</ele>
        <time>2022-04-17T09:08:56Z</time>
      </trkpt>
      <trkpt lat="50.02409" lon="2.03234">
        <ele>23.5</ele>
        <time>2022-04-17T09:08:58Z</time>
      </trkpt>
      <trkpt lat="50.02409" lon="2.03234">
        <ele>23.5</ele>
        <time>2022-04-17T09:08:59Z</time>
      </trkpt>
      <trkpt lat="50.02409" lon="2.03234">
        <ele>23.5</ele>
        <time>2022-04-17T09:09:00Z</time>
      </trkpt>
      <trkpt lat="50.02409" lon="2.03234">
        <ele>23.5</ele>
        <time>2022-04-17T09:09:02Z</time>
      </trkpt>
      <trkpt lat="50.02409" lon="2.03234">
        <ele>23.5</ele>
        <time>2022-04-17T09:09:03Z</time>
      </trkpt>
      <trkpt lat="50.02409" lon="2.03234">
        <ele>23.5</ele>
        <time>2022-04-17T09:09:04Z</time>
      </trkpt>
      <trkpt lat="50.02409" lon="2.03234">
        <ele>23.5</ele>
        <time>2022-04-17T09:09:06Z</time>
      </trkpt>
      <trkpt lat="50.02409" lon="2.03234">
        <ele>23.5</ele>
        <time>2022-04-17T09:09:08Z</time>
      </trkpt>
      <trkpt lat="50.02409" lon="2.03234">
        <ele>23.5</ele>
        <time>2022-04-17T09:09:09Z</time>
      </trkpt>
      <trkpt lat="50.02409" lon="2.03234">
        <ele>23.5</ele>
        <time>2022-04-17T09:09:10Z</time>
      </trkpt>
      <trkpt lat="50.02409" lon="2.03234">
        <ele>23.5</ele>
        <time>2022-04-17T09:09:11Z</time>
      </trkpt>
      <trkpt lat="50.02409" lon="2.03234">
        <ele>23.5</ele>
        <time>2022-04-17T09:09:12Z</time>
      </trkpt>
      <trkpt lat="50.02409" lon="2.03234">
        <ele>23.5</ele>
        <time>2022-04-17T09:09:13Z</time>
      </trkpt>
      <trkpt lat="50.02409" lon="2.03234">
        <ele>23.5</ele>
        <time>2022-04-17T09:09:15Z</time>
      </trkpt>
      <trkpt lat="50.02409" lon="2.03234">
        <ele>23.5</ele>
        <time>2022-04-17T09:09:16Z</time>
      </trkpt>
      <trkpt lat="50.02409" lon="2.03234">
        <ele>23.5</ele>
        <time>2022-04-17T09:09:18Z</time>
      </trkpt>
      <trkpt lat="50.02409" lon="2.03234">
        <ele>23.5</ele>
        <time>2022-04-17T09:09:19Z</time>
      </trkpt>
      <trkpt lat="50.02409" lon="2.03234">
        <ele>23.5</ele>
        <time>2022-04-17T09:09:20Z</time>
      </trkpt>
      <trkpt lat="50.02409" lon="2.03234">
        <ele>23.5</ele>
        <time>2022-04-17T09:09:22Z</time>
      </trkpt>
      <trkpt lat="50.02409" lon="2.03234">
        <ele>23.5</ele>
        <time>2022-04-17T09:09:23Z</time>
      </trkpt>
      <trkpt lat="50.02409" lon="2.03234">
        <ele>23.5</ele>
        <time>2022-04-17T09:09:24Z</time>
      </trkpt>
      <trkpt lat="50.02409" lon="2.03234">
        <ele>23.5</ele>
        <time>2022-04-17T09:09:25Z</time>
      </trkpt>
      <trkpt lat="50.02409" lon="2.03234">
        <ele>23.5</ele>
        <time>2022-04-17T09:09:26Z</time>
      </trkpt>
      <trkpt lat="50.02409" lon="2.03234">
        <ele>23.5</ele>
        <time>2022-04-17T09:09:28Z</time>
      </trkpt>
      <trkpt lat="50.02409" lon="2.03234">
        <ele>23.5</ele>
        <time>2022-04-17T09:09:30Z</time>
      </trkpt>
      <trkpt lat="50.02409" lon="2.03234">
        <ele>23.5</ele>
        <time>2022-04-17T09:09:32Z</time>
      </trkpt>
      <trkpt lat="50.02409" lon="2.03234">
        <ele>23.5</ele>
        <time>2022-04-17T09:09:33Z</time>
      </trkpt>
      <trkpt lat="50.02409" lon="2.03234">
        <ele>23.5</ele>
        <time>2022-04-17T09:09:34Z</time>
      </trkpt>
      <trkpt lat="50.02409" lon="2.03234">
        <ele>23.5</ele>
        <time>2022-04-17T09:09:35Z</time>
      </trkpt>
      <trkpt lat="50.02409" lon="2.03234">
        <ele>23.5</ele>
        <time>2022-04-17T09:09:36Z</time>
      </trkpt>
      <trkpt lat="50.02409" lon="2.03234">
        <ele>23.5</ele>
        <time>2022-04-17T09:09:38Z</time>
      </trkpt>
      <trkpt lat="50.02409" lon="2.03234">
        <ele>23.5</ele>
        <time>2022-04-17T09:09:39Z</time>
      </trkpt>
      <trkpt lat="50.02409" lon="2.03234">
        <ele>23.5</ele>
        <time>2022-04-17T09:09:40Z</time>
      </trkpt>
      <trkpt lat="50.02409" lon="2.03234">
        <ele>23.5</ele>
        <time>2022-04-17T09:09:41Z</time>
      </trkpt>
      <trkpt lat="50.02409" lon="2.03234">
        <ele>23.5</ele>
        <time>2022-04-17T09:09:42Z</time>
      </trkpt>
      <trkpt lat="50.02409" lon="2.03234">
        <ele>23.5</ele>
        <time>2022-04-17T09:09:43Z</time>
      </trkpt>
      <trkpt lat="50.02409" lon="2.03234">
        <ele>23.5</ele>
        <time>2022-04-17T09:09:45Z</time>
      </trkpt>
      <trkpt lat="50.02409" lon="2.03234">
        <ele>23.5</ele>
        <time>2022-04-17T09:09:47Z</time>
      </trkpt>
      <trkpt lat="50.02409" lon="2.03234">
        <ele>23.5</ele>
        <time>2022-04-17T09:09:48Z</time>
      </trkpt>
      <trkpt lat="50.02409" lon="2.03234">
        <ele>23.5</ele>
        <time>2022-04-17T09:09:50Z</time>
      </trkpt>
      <trkpt lat="50.02409" lon="2.03234">
        <ele>23.5</ele>
        <time>2022-04-17T09:09:51Z</time>
      </trkpt>
      <trkpt lat="50.02409" lon="2.03234">
        <ele>23.5</ele>
        <time>2022-04-17T09:09:52Z</time>
      </trkpt>
      <trkpt lat="50.02409" lon="2.03234">
        <ele>23.5</ele>
        <time>2022-04-17T09:09:53Z</time>
      </trkpt>
      <trkpt lat="50.02407" lon="2.03228">
        <ele>23.4</ele>
        <time>2022-04-17T09:09:55Z</time>
      </trkpt>
      <trkpt lat="50.02407" lon="2.03226">
        <ele>23.4</ele>
        <time>2022-04-17T09:09:57Z</time>
      </trkpt>
      <trkpt lat="50.02408" lon="2.03225">
        <ele>23.4</ele>
        <time>2022-04-17T09:09:58Z</time>
      </trkpt>
      <trkpt lat="50.02408" lon="2.03224">
        <ele>23.4</ele>
        <time>2022-04-17T09:09:59Z</time>
      </trkpt>
      <trkpt lat="50.02408" lon="2.03224">
        <ele>23.4</ele>
        <time>2022-04-17T09:10:00Z</time>
      </trkpt>
      <trkpt lat="50.02408" lon="2.03224">
        <ele>23.3</ele>
        <time>2022-04-17T09:10:01Z</time>
      </trkpt>
      <trkpt lat="50.02409" lon="2.03223">
        <ele>23.3</ele>
        <time>2022-04-17T09:10:02Z</time>
      </trkpt>
      <trkpt lat="50.02409" lon="2.03223">
        <ele>23.3</ele>
        <time>2022-04-17T09:10:03Z</time>
      </trkpt>
      <trkpt lat="50.02409" lon="2.03223">
        <ele>23.3</ele>
        <time>2022-04-17T09:10:04Z</time>
      </trkpt>
      <trkpt lat="50.02409" lon="2.03223">
        <ele>23.3</ele>
        <time>2022-04-17T09:10:05Z</time>
      </trkpt>
      <trkpt lat="50.02409" lon="2.03223">
        <ele>23.3</ele>
        <time>2022-04-17T09:10:06Z</time>
      </trkpt>
      <trkpt lat="50.02409" lon="2.03222">
        <ele>23.3</ele>
        <time>2022-04-17T09:10:08Z</time>
      </trkpt>
      <trkpt lat="50.02409" lon="2.03222">
        <ele>23.3</ele>
        <time>2022-04-17T09:10:09Z</time>
      </trkpt>
      <trkpt lat="50.02409" lon="2.03222">
        <ele>23.3</ele>
        <time>2022-04-17T09:10:10Z</time>
      </trkpt>
      <trkpt lat="50.02409" lon="2.03222">
        <ele>23.3</ele>
        <time>2022-04-17T09:10:11Z</time>
      </trkpt>
      <trkpt lat="50.02409" lon="2.03221">
        <ele>23.3</ele>
        <time>2022-04-17T09:10:12Z</time>
      </trkpt>
      <trkpt lat="50.0241" lon="2.03221">
        <ele>23.3</ele>
        <time>2022-04-17T09:10:13Z</time>
      </trkpt>
      <trkpt lat="50.0241" lon="2.03219">
        <ele>23.3</ele>
        <time>2022-04-17T09:10:15Z</time>
      </trkpt>
      <trkpt lat="50.02411" lon="2.03216">
        <ele>23.3</ele>
        <time>2022-04-17T09:10:16Z</time>
      </trkpt>
      <trkpt lat="50.02412" lon="2.03214">
        <ele>23.3</ele>
        <time>2022-04-17T09:10:17Z</time>
      </trkpt>
      <trkpt lat="50.02413" lon="2.03212">
        <ele>23.3</ele>
        <time>2022-04-17T09:10:18Z</time>
      </trkpt>
      <trkpt lat="50.02414" lon="2.0321">
        <ele>23.3</ele>
        <time>2022-04-17T09:10:20Z</time>
      </trkpt>
      <trkpt lat="50.02414" lon="2.03208">
        <ele>23.3</ele>
        <time>2022-04-17T09:10:21Z</time>
      </trkpt>
      <trkpt lat="50.02415" lon="2.03206">
        <ele>23.3</ele>
        <time>2022-04-17T09:10:22Z</time>
      </trkpt>
      <trkpt lat="50.02416" lon="2.03203">
        <ele>23.3</ele>
        <time>2022-04-17T09:10:23Z</time>
      </trkpt>
      <trkpt lat="50.02416" lon="2.03202">
        <ele>23.3</ele>
        <time>2022-04-17T09:10:24Z</time>
      </trkpt>
      <trkpt lat="50.02416" lon="2.03201">
        <ele>23.3</ele>
        <time>2022-04-17T09:10:25Z</time>
      </trkpt>
      <trkpt lat="50.02417" lon="2.03198">
        <ele>23.4</ele>
        <time>2022-04-17T09:10:26Z</time>
      </trkpt>
      <trkpt lat="50.02417" lon="2.03197">
        <ele>23.4</ele>
        <time>2022-04-17T09:10:28Z</time>
      </trkpt>
      <trkpt lat="50.02418" lon="2.03195">
        <ele>23.4</ele>
        <time>2022-04-17T09:10:29Z</time>
      </trkpt>
      <trkpt lat="50.02418" lon="2.03195">
        <ele>23.4</ele>
        <time>2022-04-17T09:10:30Z</time>
      </trkpt>
      <trkpt lat="50.02418" lon="2.03195">
        <ele>23.4</ele>
        <time>2022-04-17T09:10:32Z</time>
      </trkpt>
      <trkpt lat="50.02419" lon="2.03193">
        <ele>23.4</ele>
        <time>2022-04-17T09:10:33Z</time>
      </trkpt>
      <trkpt lat="50.02419" lon="2.03191">
        <ele>23.4</ele>
        <time>2022-04-17T09:10:34Z</time>
      </trkpt>
      <trkpt lat="50.0242" lon="2.0319">
        <ele>23.4</ele>
        <time>2022-04-17T09:10:35Z</time>
      </trkpt>
      <trkpt lat="50.02421" lon="2.03189">
        <ele>23.4</ele>
        <time>2022-04-17T09:10:36Z</time>
      </trkpt>
      <trkpt lat="50.02422" lon="2.03187">
        <ele>23.4</ele>
        <time>2022-04-17T09:10:38Z</time>
      </trkpt>
      <trkpt lat="50.02422" lon="2.03185">
        <ele>23.5</ele>
        <time>2022-04-17T09:10:39Z</time>
      </trkpt>
      <trkpt lat="50.02423" lon="2.03184">
        <ele>23.5</ele>
        <time>2022-04-17T09:10:40Z</time>
      </trkpt>
      <trkpt lat="50.02424" lon="2.03182">
        <ele>23.5</ele>
        <time>2022-04-17T09:10:41Z</time>
      </trkpt>
      <trkpt lat="50.02425" lon="2.0318">
        <ele>23.5</ele>
        <time>2022-04-17T09:10:42Z</time>
      </trkpt>
      <trkpt lat="50.02427" lon="2.03177">
        <ele>23.6</ele>
        <time>2022-04-17T09:10:43Z</time>
      </trkpt>
      <trkpt lat="50.02427" lon="2.03176">
        <ele>23.6</ele>
        <time>2022-04-17T09:10:45Z</time>
      </trkpt>
      <trkpt lat="50.02428" lon="2.03174">
        <ele>23.6</ele>
        <time>2022-04-17T09:10:46Z</time>
      </trkpt>
      <trkpt lat="50.02428" lon="2.03173">
        <ele>23.7</ele>
        <time>2022-04-17T09:10:47Z</time>
      </trkpt>
      <trkpt lat="50.02429" lon="2.03172">
        <ele>23.7</ele>
        <time>2022-04-17T09:10:48Z</time>
      </trkpt>
      <trkpt lat="50.02429" lon="2.03169">
        <ele>23.8</ele>
        <time>2022-04-17T09:10:50Z</time>
      </trkpt>
      <trkpt lat="50.02429" lon="2.03166">
        <ele>23.8</ele>
        <time>2022-04-17T09:10:51Z</time>
      </trkpt>
      <trkpt lat="50.02429" lon="2.03163">
        <ele>23.9</ele>
        <time>2022-04-17T09:10:52Z</time>
      </trkpt>
      <trkpt lat="50.02429" lon="2.03162">
        <ele>23.9</ele>
        <time>2022-04-17T09:10:53Z</time>
      </trkpt>
      <trkpt lat="50.0243" lon="2.03161">
        <ele>23.9</ele>
        <time>2022-04-17T09:10:54Z</time>
      </trkpt>
      <trkpt lat="50.0243" lon="2.03159">
        <ele>24</ele>
        <time>2022-04-17T09:10:55Z</time>
      </trkpt>
      <trkpt lat="50.0243" lon="2.03156">
        <ele>24</ele>
        <time>2022-04-17T09:10:56Z</time>
      </trkpt>
      <trkpt lat="50.0243" lon="2.03154">
        <ele>24.1</ele>
        <time>2022-04-17T09:10:58Z</time>
      </trkpt>
      <trkpt lat="50.0243" lon="2.03152">
        <ele>24.1</ele>
        <time>2022-04-17T09:10:59Z</time>
      </trkpt>
      <trkpt lat="50.0243" lon="2.0315">
        <ele>24.2</ele>
        <time>2022-04-17T09:11:00Z</time>
      </trkpt>
      <trkpt lat="50.02431" lon="2.03149">
        <ele>24.2</ele>
        <time>2022-04-17T09:11:01Z</time>
      </trkpt>
      <trkpt lat="50.02431" lon="2.03147">
        <ele>24.3</ele>
        <time>2022-04-17T09:11:03Z</time>
      </trkpt>
      <trkpt lat="50.02431" lon="2.03145">
        <ele>24.3</ele>
        <time>2022-04-17T09:11:04Z</time>
      </trkpt>
      <trkpt lat="50.02432" lon="2.03143">
        <ele>24.4</ele>
        <time>2022-04-17T09:11:05Z</time>
      </trkpt>
      <trkpt lat="50.02432" lon="2.03142">
        <ele>24.4</ele>
        <time>2022-04-17T09:11:06Z</time>
      </trkpt>
      <trkpt lat="50.02433" lon="2.0314">
        <ele>24.5</ele>
        <time>2022-04-17T09:11:08Z</time>
      </trkpt>
      <trkpt lat="50.02434" lon="2.03139">
        <ele>24.6</ele>
        <time>2022-04-17T09:11:09Z</time>
      </trkpt>
      <trkpt lat="50.02435" lon="2.03137">
        <ele>24.6</ele>
        <time>2022-04-17T09:11:10Z</time>
      </trkpt>
      <trkpt lat="50.02436" lon="2.03136">
        <ele>24.7</ele>
        <time>2022-04-17T09:11:11Z</time>
      </trkpt>
      <trkpt lat="50.02436" lon="2.03136">
        <ele>24.7</ele>
        <time>2022-04-17T09:11:12Z</time>
      </trkpt>
      <trkpt lat="50.02437" lon="2.03135">
        <ele>24.7</ele>
        <time>2022-04-17T09:11:13Z</time>
      </trkpt>
      <trkpt lat="50.02438" lon="2.03134">
        <ele>24.8</ele>
        <time>2022-04-17T09:11:14Z</time>
      </trkpt>
      <trkpt lat="50.02439" lon="2.03132">
        <ele>24.9</ele>
        <time>2022-04-17T09:11:15Z</time>
      </trkpt>
      <trkpt lat="50.0244" lon="2.03131">
        <ele>24.9</ele>
        <time>2022-04-17T09:11:17Z</time>
      </trkpt>
      <trkpt lat="50.02441" lon="2.0313">
        <ele>25</ele>
        <time>2022-04-17T09:11:18Z</time>
      </trkpt>
      <trkpt lat="50.02442" lon="2.03129">
        <ele>25</ele>
        <time>2022-04-17T09:11:19Z</time>
      </trkpt>
      <trkpt lat="50.02443" lon="2.03128">
        <ele>25.1</ele>
        <time>2022-04-17T09:11:20Z</time>
      </trkpt>
      <trkpt lat="50.02444" lon="2.03127">
        <ele>25.1</ele>
        <time>2022-04-17T09:11:21Z</time>
      </trkpt>
      <trkpt lat="50.02444" lon="2.03127">
        <ele>25.2</ele>
        <time>2022-04-17T09:11:22Z</time>
      </trkpt>
      <trkpt lat="50.02445" lon="2.03126">
        <ele>25.2</ele>
        <time>2022-04-17T09:11:24Z</time>
      </trkpt>
      <trkpt lat="50.02446" lon="2.03125">
        <ele>25.3</ele>
        <time>2022-04-17T09:11:25Z</time>
      </trkpt>
      <trkpt lat="50.02447" lon="2.03124">
        <ele>25.3</ele>
        <time>2022-04-17T09:11:26Z</time>
      </trkpt>
      <trkpt lat="50.02448" lon="2.03123">
        <ele>25.4</ele>
        <time>2022-04-17T09:11:27Z</time>
      </trkpt>
      <trkpt lat="50.02449" lon="2.03122">
        <ele>25.4</ele>
        <time>2022-04-17T09:11:28Z</time>
      </trkpt>
      <trkpt lat="50.02449" lon="2.03121">
        <ele>25.5</ele>
        <time>2022-04-17T09:11:29Z</time>
      </trkpt>
      <trkpt lat="50.0245" lon="2.03119">
        <ele>25.5</ele>
        <time>2022-04-17T09:11:31Z</time>
      </trkpt>
      <trkpt lat="50.0245" lon="2.03118">
        <ele>25.5</ele>
        <time>2022-04-17T09:11:32Z</time>
      </trkpt>
      <trkpt lat="50.02451" lon="2.03117">
        <ele>25.6</ele>
        <time>2022-04-17T09:11:33Z</time>
      </trkpt>
      <trkpt lat="50.02452" lon="2.03116">
        <ele>25.6</ele>
        <time>2022-04-17T09:11:35Z</time>
      </trkpt>
      <trkpt lat="50.02453" lon="2.03114">
        <ele>25.7</ele>
        <time>2022-04-17T09:11:36Z</time>
      </trkpt>
      <trkpt lat="50.02453" lon="2.03113">
        <ele>25.7</ele>
        <time>2022-04-17T09:11:37Z</time>
      </trkpt>
      <trkpt lat="50.02454" lon="2.03112">
        <ele>25.8</ele>
        <time>2022-04-17T09:11:38Z</time>
      </trkpt>
      <trkpt lat="50.02454" lon="2.03111">
        <ele>25.8</ele>
        <time>2022-04-17T09:11:39Z</time>
      </trkpt>
      <trkpt lat="50.02455" lon="2.0311">
        <ele>25.9</ele>
        <time>2022-04-17T09:11:40Z</time>
      </trkpt>
      <trkpt lat="50.02455" lon="2.03109">
        <ele>25.9</ele>
        <time>2022-04-17T09:11:42Z</time>
      </trkpt>
      <trkpt lat="50.02456" lon="2.03108">
        <ele>26</ele>
        <time>2022-04-17T09:11:43Z</time>
      </trkpt>
      <trkpt lat="50.02457" lon="2.03107">
        <ele>26.1</ele>
        <time>2022-04-17T09:11:44Z</time>
      </trkpt>
      <trkpt lat="50.02458" lon="2.03105">
        <ele>26.1</ele>
        <time>2022-04-17T09:11:46Z</time>
      </trkpt>
      <trkpt lat="50.02458" lon="2.03104">
        <ele>26.2</ele>
        <time>2022-04-17T09:11:47Z</time>
      </trkpt>
      <trkpt lat="50.02459" lon="2.03103">
        <ele>26.3</ele>
        <time>2022-04-17T09:11:48Z</time>
      </trkpt>
      <trkpt lat="50.0246" lon="2.03103">
        <ele>26.3</ele>
        <time>2022-04-17T09:11:49Z</time>
      </trkpt>
      <trkpt lat="50.0246" lon="2.03102">
        <ele>26.4</ele>
        <time>2022-04-17T09:11:50Z</time>
      </trkpt>
      <trkpt lat="50.02461" lon="2.03102">
        <ele>26.4</ele>
        <time>2022-04-17T09:11:51Z</time>
      </trkpt>
      <trkpt lat="50.02462" lon="2.03102">
        <ele>26.5</ele>
        <time>2022-04-17T09:11:53Z</time>
      </trkpt>
      <trkpt lat="50.02463" lon="2.03101">
        <ele>26.5</ele>
        <time>2022-04-17T09:11:54Z</time>
      </trkpt>
      <trkpt lat="50.02463" lon="2.031">
        <ele>26.6</ele>
        <time>2022-04-17T09:11:55Z</time>
      </trkpt>
      <trkpt lat="50.02464" lon="2.03099">
        <ele>26.7</ele>
        <time>2022-04-17T09:11:56Z</time>
      </trkpt>
      <trkpt lat="50.02464" lon="2.03098">
        <ele>26.8</ele>
        <time>2022-04-17T09:11:57Z</time>
      </trkpt>
      <trkpt lat="50.02465" lon="2.03097">
        <ele>26.8</ele>
        <time>2022-04-17T09:11:59Z</time>
      </trkpt>
      <trkpt lat="50.02466" lon="2.03096">
        <ele>26.9</ele>
        <time>2022-04-17T09:12:00Z</time>
      </trkpt>
      <trkpt lat="50.02467" lon="2.03095">
        <ele>27</ele>
        <time>2022-04-17T09:12:01Z</time>
      </trkpt>
      <trkpt lat="50.02467" lon="2.03094">
        <ele>27.1</ele>
        <time>2022-04-17T09:12:02Z</time>
      </trkpt>
      <trkpt lat="50.02468" lon="2.03093">
        <ele>27.2</ele>
        <time>2022-04-17T09:12:04Z</time>
      </trkpt>
      <trkpt lat="50.02469" lon="2.03091">
        <ele>27.3</ele>
        <time>2022-04-17T09:12:05Z</time>
      </trkpt>
      <trkpt lat="50.02469" lon="2.0309">
        <ele>27.4</ele>
        <time>2022-04-17T09:12:06Z</time>
      </trkpt>
      <trkpt lat="50.02469" lon="2.03088">
        <ele>27.5</ele>
        <time>2022-04-17T09:12:07Z</time>
      </trkpt>
      <trkpt lat="50.0247" lon="2.03087">
        <ele>27.6</ele>
        <time>2022-04-17T09:12:08Z</time>
      </trkpt>
      <trkpt lat="50.0247" lon="2.03086">
        <ele>27.6</ele>
        <time>2022-04-17T09:12:10Z</time>
      </trkpt>
      <trkpt lat="50.02471" lon="2.03085">
        <ele>27.7</ele>
        <time>2022-04-17T09:12:11Z</time>
      </trkpt>
      <trkpt lat="50.02471" lon="2.03084">
        <ele>27.8</ele>
        <time>2022-04-17T09:12:12Z</time>
      </trkpt>
      <trkpt lat="50.02472" lon="2.03083">
        <ele>27.9</ele>
        <time>2022-04-17T09:12:13Z</time>
      </trkpt>
      <trkpt lat="50.02472" lon="2.03082">
        <ele>28</ele>
        <time>2022-04-17T09:12:15Z</time>
      </trkpt>
      <trkpt lat="50.02473" lon="2.0308">
        <ele>28</ele>
        <time>2022-04-17T09:12:16Z</time>
      </trkpt>
      <trkpt lat="50.02473" lon="2.03079">
        <ele>28.1</ele>
        <time>2022-04-17T09:12:18Z</time>
      </trkpt>
      <trkpt lat="50.02474" lon="2.03078">
        <ele>28.2</ele>
        <time>2022-04-17T09:12:19Z</time>
      </trkpt>
      <trkpt lat="50.02474" lon="2.03077">
        <ele>28.3</ele>
        <time>2022-04-17T09:12:20Z</time>
      </trkpt>
      <trkpt lat="50.02474" lon="2.03075">
        <ele>28.4</ele>
        <time>2022-04-17T09:12:22Z</time>
      </trkpt>
      <trkpt lat="50.02474" lon="2.03074">
        <ele>28.5</ele>
        <time>2022-04-17T09:12:23Z</time>
      </trkpt>
      <trkpt lat="50.02475" lon="2.03072">
        <ele>28.6</ele>
        <time>2022-04-17T09:12:24Z</time>
      </trkpt>
      <trkpt lat="50.02475" lon="2.03071">
        <ele>28.7</ele>
        <time>2022-04-17T09:12:25Z</time>
      </trkpt>
      <trkpt lat="50.02475" lon="2.0307">
        <ele>28.7</ele>
        <time>2022-04-17T09:12:26Z</time>
      </trkpt>
      <trkpt lat="50.02476" lon="2.03069">
        <ele>28.9</ele>
        <time>2022-04-17T09:12:28Z</time>
      </trkpt>
      <trkpt lat="50.02477" lon="2.03068">
        <ele>28.9</ele>
        <time>2022-04-17T09:12:29Z</time>
      </trkpt>
      <trkpt lat="50.02477" lon="2.03068">
        <ele>29.6</ele>
        <time>2022-04-17T09:12:31Z</time>
      </trkpt>
      <trkpt lat="50.02478" lon="2.03067">
        <ele>30.3</ele>
        <time>2022-04-17T09:12:32Z</time>
      </trkpt>
      <trkpt lat="50.02479" lon="2.03067">
        <ele>31.1</ele>
        <time>2022-04-17T09:12:34Z</time>
      </trkpt>
      <trkpt lat="50.0248" lon="2.03066">
        <ele>32</ele>
        <time>2022-04-17T09:12:35Z</time>
      </trkpt>
      <trkpt lat="50.0248" lon="2.03066">
        <ele>32.5</ele>
        <time>2022-04-17T09:12:37Z</time>
      </trkpt>
      <trkpt lat="50.02481" lon="2.03066">
        <ele>33.2</ele>
        <time>2022-04-17T09:12:38Z</time>
      </trkpt>
      <trkpt lat="50.02481" lon="2.03066">
        <ele>33.5</ele>
        <time>2022-04-17T09:12:39Z</time>
      </trkpt>
      <trkpt lat="50.02482" lon="2.03067">
        <ele>34.1</ele>
        <time>2022-04-17T09:12:41Z</time>
      </trkpt>
      <trkpt lat="50.02482" lon="2.03067">
        <ele>34.8</ele>
        <time>2022-04-17T09:12:42Z</time>
      </trkpt>
      <trkpt lat="50.02483" lon="2.03068">
        <ele>35</ele>
        <time>2022-04-17T09:12:44Z</time>
      </trkpt>
      <trkpt lat="50.02483" lon="2.03067">
        <ele>35.7</ele>
        <time>2022-04-17T09:12:45Z</time>
      </trkpt>
      <trkpt lat="50.02484" lon="2.03067">
        <ele>35.5</ele>
        <time>2022-04-17T09:12:46Z</time>
      </trkpt>
      <trkpt lat="50.02484" lon="2.03067">
        <ele>35.3</ele>
        <time>2022-04-17T09:12:48Z</time>
      </trkpt>
      <trkpt lat="50.02484" lon="2.03066">
        <ele>35.1</ele>
        <time>2022-04-17T09:12:49Z</time>
      </trkpt>
      <trkpt lat="50.02484" lon="2.03065">
        <ele>35</ele>
        <time>2022-04-17T09:12:50Z</time>
      </trkpt>
      <trkpt lat="50.02484" lon="2.03065">
        <ele>34.9</ele>
        <time>2022-04-17T09:12:51Z</time>
      </trkpt>
      <trkpt lat="50.02484" lon="2.03065">
        <ele>34.8</ele>
        <time>2022-04-17T09:12:52Z</time>
      </trkpt>
      <trkpt lat="50.02484" lon="2.03064">
        <ele>34.6</ele>
        <time>2022-04-17T09:12:53Z</time>
      </trkpt>
      <trkpt lat="50.02483" lon="2.03064">
        <ele>34.4</ele>
        <time>2022-04-17T09:12:54Z</time>
      </trkpt>
      <trkpt lat="50.02483" lon="2.03064">
        <ele>34.3</ele>
        <time>2022-04-17T09:12:55Z</time>
      </trkpt>
      <trkpt lat="50.02483" lon="2.03064">
        <ele>34.1</ele>
        <time>2022-04-17T09:12:56Z</time>
      </trkpt>
      <trkpt lat="50.02482" lon="2.03064">
        <ele>34.1</ele>
        <time>2022-04-17T09:12:57Z</time>
      </trkpt>
      <trkpt lat="50.02482" lon="2.03064">
        <ele>34</ele>
        <time>2022-04-17T09:12:58Z</time>
      </trkpt>
      <trkpt lat="50.02482" lon="2.03063">
        <ele>34</ele>
        <time>2022-04-17T09:12:59Z</time>
      </trkpt>
      <trkpt lat="50.02482" lon="2.03063">
        <ele>33.9</ele>
        <time>2022-04-17T09:13:00Z</time>
      </trkpt>
      <trkpt lat="50.02482" lon="2.03064">
        <ele>33.9</ele>
        <time>2022-04-17T09:13:02Z</time>
      </trkpt>
      <trkpt lat="50.02482" lon="2.03064">
        <ele>33.7</ele>
        <time>2022-04-17T09:13:03Z</time>
      </trkpt>
      <trkpt lat="50.02482" lon="2.03064">
        <ele>33.7</ele>
        <time>2022-04-17T09:13:04Z</time>
      </trkpt>
      <trkpt lat="50.02483" lon="2.03064">
        <ele>33.5</ele>
        <time>2022-04-17T09:13:05Z</time>
      </trkpt>
      <trkpt lat="50.02483" lon="2.03064">
        <ele>33.4</ele>
        <time>2022-04-17T09:13:06Z</time>
      </trkpt>
      <trkpt lat="50.02484" lon="2.03065">
        <ele>33.1</ele>
        <time>2022-04-17T09:13:08Z</time>
      </trkpt>
      <trkpt lat="50.02485" lon="2.03065">
        <ele>32.7</ele>
        <time>2022-04-17T09:13:09Z</time>
      </trkpt>
      <trkpt lat="50.02485" lon="2.03066">
        <ele>32.5</ele>
        <time>2022-04-17T09:13:10Z</time>
      </trkpt>
      <trkpt lat="50.02486" lon="2.03066">
        <ele>32.2</ele>
        <time>2022-04-17T09:13:12Z</time>
      </trkpt>
      <trkpt lat="50.02487" lon="2.03067">
        <ele>31.8</ele>
        <time>2022-04-17T09:13:13Z</time>
      </trkpt>
      <trkpt lat="50.02487" lon="2.03067">
        <ele>31.6</ele>
        <time>2022-04-17T09:13:14Z</time>
      </trkpt>
      <trkpt lat="50.02487" lon="2.03068">
        <ele>31.5</ele>
        <time>2022-04-17T09:13:15Z</time>
      </trkpt>
      <trkpt lat="50.02488" lon="2.03068">
        <ele>31.3</ele>
        <time>2022-04-17T09:13:16Z</time>
      </trkpt>
      <trkpt lat="50.02488" lon="2.03069">
        <ele>31.1</ele>
        <time>2022-04-17T09:13:17Z</time>
      </trkpt>
      <trkpt lat="50.02488" lon="2.03069">
        <ele>31</ele>
        <time>2022-04-17T09:13:18Z</time>
      </trkpt>
      <trkpt lat="50.02488" lon="2.0307">
        <ele>30.8</ele>
        <time>2022-04-17T09:13:19Z</time>
      </trkpt>
      <trkpt lat="50.02488" lon="2.03071">
        <ele>30.6</ele>
        <time>2022-04-17T09:13:20Z</time>
      </trkpt>
      <trkpt lat="50.02488" lon="2.03072">
        <ele>30.3</ele>
        <time>2022-04-17T09:13:22Z</time>
      </trkpt>
      <trkpt lat="50.02488" lon="2.03073">
        <ele>30</ele>
        <time>2022-04-17T09:13:23Z</time>
      </trkpt>
      <trkpt lat="50.02489" lon="2.03074">
        <ele>29.8</ele>
        <time>2022-04-17T09:13:24Z</time>
      </trkpt>
      <trkpt lat="50.02489" lon="2.03075">
        <ele>29.6</ele>
        <time>2022-04-17T09:13:25Z</time>
      </trkpt>
      <trkpt lat="50.02489" lon="2.03075">
        <ele>29.5</ele>
        <time>2022-04-17T09:13:26Z</time>
      </trkpt>
      <trkpt lat="50.02489" lon="2.03076">
        <ele>29.2</ele>
        <time>2022-04-17T09:13:28Z</time>
      </trkpt>
      <trkpt lat="50.02489" lon="2.03076">
        <ele>29.2</ele>
        <time>2022-04-17T09:13:29Z</time>
      </trkpt>
      <trkpt lat="50.02489" lon="2.03076">
        <ele>29.1</ele>
        <time>2022-04-17T09:13:31Z</time>
      </trkpt>
      <trkpt lat="50.02489" lon="2.03077">
        <ele>29</ele>
        <time>2022-04-17T09:13:32Z</time>
      </trkpt>
      <trkpt lat="50.02489" lon="2.03077">
        <ele>29</ele>
        <time>2022-04-17T09:13:33Z</time>
      </trkpt>
      <trkpt lat="50.02489" lon="2.03077">
        <ele>29</ele>
        <time>2022-04-17T09:13:35Z</time>
      </trkpt>
      <trkpt lat="50.02489" lon="2.03078">
        <ele>29</ele>
        <time>2022-04-17T09:13:36Z</time>
      </trkpt>
      <trkpt lat="50.02489" lon="2.03078">
        <ele>29</ele>
        <time>2022-04-17T09:13:37Z</time>
      </trkpt>
      <trkpt lat="50.02489" lon="2.03078">
        <ele>29.1</ele>
        <time>2022-04-17T09:13:38Z</time>
      </trkpt>
      <trkpt lat="50.0249" lon="2.03078">
        <ele>29.1</ele>
        <time>2022-04-17T09:13:39Z</time>
      </trkpt>
      <trkpt lat="50.0249" lon="2.03078">
        <ele>29.1</ele>
        <time>2022-04-17T09:13:40Z</time>
      </trkpt>
      <trkpt lat="50.0249" lon="2.03078">
        <ele>29.1</ele>
        <time>2022-04-17T09:13:41Z</time>
      </trkpt>
      <trkpt lat="50.0249" lon="2.03077">
        <ele>29.1</ele>
        <time>2022-04-17T09:13:42Z</time>
      </trkpt>
      <trkpt lat="50.0249" lon="2.03077">
        <ele>29.1</ele>
        <time>2022-04-17T09:13:43Z</time>
      </trkpt>
      <trkpt lat="50.0249" lon="2.03077">
        <ele>29.1</ele>
        <time>2022-04-17T09:13:45Z</time>
      </trkpt>
      <trkpt lat="50.02491" lon="2.03076">
        <ele>29.1</ele>
        <time>2022-04-17T09:13:46Z</time>
      </trkpt>
      <trkpt lat="50.02491" lon="2.03075">
        <ele>29.1</ele>
        <time>2022-04-17T09:13:47Z</time>
      </trkpt>
      <trkpt lat="50.02491" lon="2.03073">
        <ele>29.1</ele>
        <time>2022-04-17T09:13:49Z</time>
      </trkpt>
      <trkpt lat="50.02492" lon="2.03072">
        <ele>29.2</ele>
        <time>2022-04-17T09:13:50Z</time>
      </trkpt>
      <trkpt lat="50.02492" lon="2.03071">
        <ele>29.2</ele>
        <time>2022-04-17T09:13:51Z</time>
      </trkpt>
      <trkpt lat="50.02493" lon="2.0307">
        <ele>29.2</ele>
        <time>2022-04-17T09:13:53Z</time>
      </trkpt>
      <trkpt lat="50.02494" lon="2.03068">
        <ele>29.2</ele>
        <time>2022-04-17T09:13:54Z</time>
      </trkpt>
      <trkpt lat="50.02494" lon="2.03068">
        <ele>29.2</ele>
        <time>2022-04-17T09:13:55Z</time>
      </trkpt>
      <trkpt lat="50.02494" lon="2.03067">
        <ele>29.3</ele>
        <time>2022-04-17T09:13:57Z</time>
      </trkpt>
      <trkpt lat="50.02495" lon="2.03066">
        <ele>29.3</ele>
        <time>2022-04-17T09:13:58Z</time>
      </trkpt>
      <trkpt lat="50.02495" lon="2.03065">
        <ele>29.3</ele>
        <time>2022-04-17T09:14:00Z</time>
      </trkpt>
      <trkpt lat="50.02495" lon="2.03064">
        <ele>29.3</ele>
        <time>2022-04-17T09:14:01Z</time>
      </trkpt>
      <trkpt lat="50.02495" lon="2.03062">
        <ele>29.3</ele>
        <time>2022-04-17T09:14:02Z</time>
      </trkpt>
      <trkpt lat="50.02495" lon="2.03061">
        <ele>29.4</ele>
        <time>2022-04-17T09:14:04Z</time>
      </trkpt>
      <trkpt lat="50.02495" lon="2.0306">
        <ele>29.4</ele>
        <time>2022-04-17T09:14:05Z</time>
      </trkpt>
      <trkpt lat="50.02495" lon="2.03059">
        <ele>29.4</ele>
        <time>2022-04-17T09:14:06Z</time>
      </trkpt>
      <trkpt lat="50.02495" lon="2.03059">
        <ele>29.4</ele>
        <time>2022-04-17T09:14:08Z</time>
      </trkpt>
      <trkpt lat="50.02495" lon="2.03057">
        <ele>29.4</ele>
        <time>2022-04-17T09:14:09Z</time>
      </trkpt>
      <trkpt lat="50.02495" lon="2.03057">
        <ele>29.4</ele>
        <time>2022-04-17T09:14:10Z</time>
      </trkpt>
      <trkpt lat="50.02495" lon="2.03057">
        <ele>29.4</ele>
        <time>2022-04-17T09:14:11Z</time>
      </trkpt>
      <trkpt lat="50.02495" lon="2.03057">
        <ele>29.4</ele>
        <time>2022-04-17T09:14:13Z</time>
      </trkpt>
      <trkpt lat="50.02496" lon="2.03057">
        <ele>29.4</ele>
        <time>2022-04-17T09:14:14Z</time>
      </trkpt>
      <trkpt lat="50.02496" lon="2.03057">
        <ele>29.4</ele>
        <time>2022-04-17T09:14:16Z</time>
      </trkpt>
      <trkpt lat="50.02496" lon="2.03057">
        <ele>29.4</ele>
        <time>2022-04-17T09:14:17Z</time>
      </trkpt>
      <trkpt lat="50.02496" lon="2.03058">
        <ele>29.4</ele>
        <time>2022-04-17T09:14:18Z</time>
      </trkpt>
      <trkpt lat="50.02496" lon="2.03058">
        <ele>29.4</ele>
        <time>2022-04-17T09:14:19Z</time>
      </trkpt>
      <trkpt lat="50.02496" lon="2.03058">
        <ele>29.4</ele>
        <time>2022-04-17T09:14:20Z</time>
      </trkpt>
      <trkpt lat="50.02496" lon="2.03058">
        <ele>29.4</ele>
        <time>2022-04-17T09:14:21Z</time>
      </trkpt>
      <trkpt lat="50.02496" lon="2.03058">
        <ele>29.5</ele>
        <time>2022-04-17T09:14:22Z</time>
      </trkpt>
      <trkpt lat="50.02496" lon="2.03058">
        <ele>29.5</ele>
        <time>2022-04-17T09:14:23Z</time>
      </trkpt>
      <trkpt lat="50.02496" lon="2.03058">
        <ele>29.5</ele>
        <time>2022-04-17T09:14:24Z</time>
      </trkpt>
      <trkpt lat="50.02496" lon="2.03059">
        <ele>29.5</ele>
        <time>2022-04-17T09:14:26Z</time>
      </trkpt>
      <trkpt lat="50.02496" lon="2.03059">
        <ele>29.5</ele>
        <time>2022-04-17T09:14:27Z</time>
      </trkpt>
      <trkpt lat="50.02496" lon="2.03059">
        <ele>29.5</ele>
        <time>2022-04-17T09:14:28Z</time>
      </trkpt>
      <trkpt lat="50.02496" lon="2.03059">
        <ele>29.5</ele>
        <time>2022-04-17T09:14:29Z</time>
      </trkpt>
      <trkpt lat="50.02496" lon="2.03059">
        <ele>29.5</ele>
        <time>2022-04-17T09:14:30Z</time>
      </trkpt>
      <trkpt lat="50.02496" lon="2.03059">
        <ele>29.5</ele>
        <time>2022-04-17T09:14:31Z</time>
      </trkpt>
      <trkpt lat="50.02496" lon="2.03059">
        <ele>29.5</ele>
        <time>2022-04-17T09:14:32Z</time>
      </trkpt>
      <trkpt lat="50.02496" lon="2.03059">
        <ele>29.5</ele>
        <time>2022-04-17T09:14:33Z</time>
      </trkpt>
      <trkpt lat="50.02497" lon="2.0306">
        <ele>29.5</ele>
        <time>2022-04-17T09:14:35Z</time>
      </trkpt>
      <trkpt lat="50.02497" lon="2.03061">
        <ele>29.5</ele>
        <time>2022-04-17T09:14:36Z</time>
      </trkpt>
      <trkpt lat="50.02498" lon="2.03061">
        <ele>29.5</ele>
        <time>2022-04-17T09:14:37Z</time>
      </trkpt>
      <trkpt lat="50.025" lon="2.0306">
        <ele>29.6</ele>
        <time>2022-04-17T09:14:38Z</time>
      </trkpt>
      <trkpt lat="50.02502" lon="2.03059">
        <ele>29.6</ele>
        <time>2022-04-17T09:14:40Z</time>
      </trkpt>
      <trkpt lat="50.02503" lon="2.03058">
        <ele>29.7</ele>
        <time>2022-04-17T09:14:41Z</time>
      </trkpt>
      <trkpt lat="50.02503" lon="2.03057">
        <ele>29.7</ele>
        <time>2022-04-17T09:14:43Z</time>
      </trkpt>
      <trkpt lat="50.02504" lon="2.03055">
        <ele>29.7</ele>
        <time>2022-04-17T09:14:44Z</time>
      </trkpt>
      <trkpt lat="50.02504" lon="2.03054">
        <ele>29.7</ele>
        <time>2022-04-17T09:14:45Z</time>
      </trkpt>
      <trkpt lat="50.02505" lon="2.03054">
        <ele>29.7</ele>
        <time>2022-04-17T09:14:46Z</time>
      </trkpt>
      <trkpt lat="50.02505" lon="2.03053">
        <ele>29.7</ele>
        <time>2022-04-17T09:14:47Z</time>
      </trkpt>
      <trkpt lat="50.02505" lon="2.03053">
        <ele>29.8</ele>
        <time>2022-04-17T09:14:48Z</time>
      </trkpt>
      <trkpt lat="50.02505" lon="2.03052">
        <ele>29.8</ele>
        <time>2022-04-17T09:14:49Z</time>
      </trkpt>
      <trkpt lat="50.02505" lon="2.03052">
        <ele>29.8</ele>
        <time>2022-04-17T09:14:50Z</time>
      </trkpt>
      <trkpt lat="50.02506" lon="2.03051">
        <ele>29.8</ele>
        <time>2022-04-17T09:14:52Z</time>
      </trkpt>
      <trkpt lat="50.02507" lon="2.03052">
        <ele>29.8</ele>
        <time>2022-04-17T09:14:53Z</time>
      </trkpt>
      <trkpt lat="50.02507" lon="2.03053">
        <ele>29.8</ele>
        <time>2022-04-17T09:14:54Z</time>
      </trkpt>
      <trkpt lat="50.02507" lon="2.03054">
        <ele>29.8</ele>
        <time>2022-04-17T09:14:55Z</time>
      </trkpt>
      <trkpt lat="50.02507" lon="2.03054">
        <ele>29.9</ele>
        <time>2022-04-17T09:14:56Z</time>
      </trkpt>
      <trkpt lat="50.02508" lon="2.03055">
        <ele>29.9</ele>
        <time>2022-04-17T09:14:57Z</time>
      </trkpt>
      <trkpt lat="50.02508" lon="2.03055">
        <ele>29.9</ele>
        <time>2022-04-17T09:14:58Z</time>
      </trkpt>
      <trkpt lat="50.02508" lon="2.03055">
        <ele>29.9</ele>
        <time>2022-04-17T09:14:59Z</time>
      </trkpt>
      <trkpt lat="50.02508" lon="2.03055">
        <ele>29.9</ele>
        <time>2022-04-17T09:15:00Z</time>
      </trkpt>
      <trkpt lat="50.02508" lon="2.03054">
        <ele>29.9</ele>
        <time>2022-04-17T09:15:01Z</time>
      </trkpt>
      <trkpt lat="50.02508" lon="2.03054">
        <ele>29.9</ele>
        <time>2022-04-17T09:15:02Z</time>
      </trkpt>
      <trkpt lat="50.02508" lon="2.03054">
        <ele>29.9</ele>
        <time>2022-04-17T09:15:03Z</time>
      </trkpt>
      <trkpt lat="50.02507" lon="2.03053">
        <ele>29.9</ele>
        <time>2022-04-17T09:15:04Z</time>
      </trkpt>
      <trkpt lat="50.02507" lon="2.03053">
        <ele>29.9</ele>
        <time>2022-04-17T09:15:05Z</time>
      </trkpt>
      <trkpt lat="50.02507" lon="2.03053">
        <ele>29.9</ele>
        <time>2022-04-17T09:15:06Z</time>
      </trkpt>
      <trkpt lat="50.02507" lon="2.03053">
        <ele>29.9</ele>
        <time>2022-04-17T09:15:07Z</time>
      </trkpt>
      <trkpt lat="50.02507" lon="2.03053">
        <ele>29.9</ele>
        <time>2022-04-17T09:15:08Z</time>
      </trkpt>
      <trkpt lat="50.02507" lon="2.03054">
        <ele>29.9</ele>
        <time>2022-04-17T09:15:09Z</time>
      </trkpt>
      <trkpt lat="50.02507" lon="2.03054">
        <ele>30</ele>
        <time>2022-04-17T09:15:10Z</time>
      </trkpt>
      <trkpt lat="50.02508" lon="2.03054">
        <ele>30</ele>
        <time>2022-04-17T09:15:11Z</time>
      </trkpt>
      <trkpt lat="50.02508" lon="2.03055">
        <ele>30</ele>
        <time>2022-04-17T09:15:12Z</time>
      </trkpt>
      <trkpt lat="50.02509" lon="2.03055">
        <ele>30</ele>
        <time>2022-04-17T09:15:13Z</time>
      </trkpt>
      <trkpt lat="50.02511" lon="2.03056">
        <ele>30</ele>
        <time>2022-04-17T09:15:14Z</time>
      </trkpt>
      <trkpt lat="50.02512" lon="2.03056">
        <ele>30.1</ele>
        <time>2022-04-17T09:15:15Z</time>
      </trkpt>
      <trkpt lat="50.02513" lon="2.03057">
        <ele>30.1</ele>
        <time>2022-04-17T09:15:16Z</time>
      </trkpt>
      <trkpt lat="50.02514" lon="2.03057">
        <ele>30.1</ele>
        <time>2022-04-17T09:15:17Z</time>
      </trkpt>
      <trkpt lat="50.02515" lon="2.03057">
        <ele>30.2</ele>
        <time>2022-04-17T09:15:18Z</time>
      </trkpt>
      <trkpt lat="50.02515" lon="2.03056">
        <ele>30.2</ele>
        <time>2022-04-17T09:15:19Z</time>
      </trkpt>
      <trkpt lat="50.02514" lon="2.03055">
        <ele>30.2</ele>
        <time>2022-04-17T09:15:21Z</time>
      </trkpt>
      <trkpt lat="50.02514" lon="2.03054">
        <ele>30.2</ele>
        <time>2022-04-17T09:15:22Z</time>
      </trkpt>
      <trkpt lat="50.02514" lon="2.03053">
        <ele>30.2</ele>
        <time>2022-04-17T09:15:23Z</time>
      </trkpt>
      <trkpt lat="50.02514" lon="2.03052">
        <ele>30.2</ele>
        <time>2022-04-17T09:15:24Z</time>
      </trkpt>
      <trkpt lat="50.02515" lon="2.03052">
        <ele>30.3</ele>
        <time>2022-04-17T09:15:26Z</time>
      </trkpt>
      <trkpt lat="50.02516" lon="2.03052">
        <ele>30.3</ele>
        <time>2022-04-17T09:15:27Z</time>
      </trkpt>
      <trkpt lat="50.02516" lon="2.03051">
        <ele>30.3</ele>
        <time>2022-04-17T09:15:29Z</time>
      </trkpt>
      <trkpt lat="50.02516" lon="2.0305">
        <ele>30.3</ele>
        <time>2022-04-17T09:15:30Z</time>
      </trkpt>
      <trkpt lat="50.02517" lon="2.03049">
        <ele>30.4</ele>
        <time>2022-04-17T09:15:31Z</time>
      </trkpt>
      <trkpt lat="50.02517" lon="2.03048">
        <ele>30.4</ele>
        <time>2022-04-17T09:15:32Z</time>
      </trkpt>
      <trkpt lat="50.02518" lon="2.03047">
        <ele>30.4</ele>
        <time>2022-04-17T09:15:34Z</time>
      </trkpt>
      <trkpt lat="50.02518" lon="2.03045">
        <ele>30.4</ele>
        <time>2022-04-17T09:15:35Z</time>
      </trkpt>
      <trkpt lat="50.0252" lon="2.03045">
        <ele>30.5</ele>
        <time>2022-04-17T09:15:37Z</time>
      </trkpt>
      <trkpt lat="50.0252" lon="2.03045">
        <ele>30.5</ele>
        <time>2022-04-17T09:15:38Z</time>
      </trkpt>
      <trkpt lat="50.02521" lon="2.03045">
        <ele>30.5</ele>
        <time>2022-04-17T09:15:39Z</time>
      </trkpt>
      <trkpt lat="50.02521" lon="2.03046">
        <ele>30.5</ele>
        <time>2022-04-17T09:15:40Z</time>
      </trkpt>
      <trkpt lat="50.02521" lon="2.03046">
        <ele>30.5</ele>
        <time>2022-04-17T09:15:41Z</time>
      </trkpt>
      <trkpt lat="50.02521" lon="2.03046">
        <ele>30.5</ele>
        <time>2022-04-17T09:15:42Z</time>
      </trkpt>
      <trkpt lat="50.02521" lon="2.03046">
        <ele>30.5</ele>
        <time>2022-04-17T09:15:43Z</time>
      </trkpt>
      <trkpt lat="50.02521" lon="2.03046">
        <ele>30.5</ele>
        <time>2022-04-17T09:15:44Z</time>
      </trkpt>
      <trkpt lat="50.02521" lon="2.03045">
        <ele>30.5</ele>
        <time>2022-04-17T09:15:45Z</time>
      </trkpt>
      <trkpt lat="50.02521" lon="2.03045">
        <ele>30.5</ele>
        <time>2022-04-17T09:15:46Z</time>
      </trkpt>
      <trkpt lat="50.02521" lon="2.03045">
        <ele>30.5</ele>
        <time>2022-04-17T09:15:47Z</time>
      </trkpt>
      <trkpt lat="50.02521" lon="2.03045">
        <ele>30.5</ele>
        <time>2022-04-17T09:15:48Z</time>
      </trkpt>
      <trkpt lat="50.02521" lon="2.03045">
        <ele>30.5</ele>
        <time>2022-04-17T09:15:49Z</time>
      </trkpt>
      <trkpt lat="50.02521" lon="2.03046">
        <ele>30.6</ele>
        <time>2022-04-17T09:15:50Z</time>
      </trkpt>
      <trkpt lat="50.02522" lon="2.03046">
        <ele>30.6</ele>
        <time>2022-04-17T09:15:51Z</time>
      </trkpt>
      <trkpt lat="50.02522" lon="2.03047">
        <ele>30.6</ele>
        <time>2022-04-17T09:15:52Z</time>
      </trkpt>
      <trkpt lat="50.02523" lon="2.03048">
        <ele>30.6</ele>
        <time>2022-04-17T09:15:53Z</time>
      </trkpt>
      <trkpt lat="50.02524" lon="2.03049">
        <ele>30.6</ele>
        <time>2022-04-17T09:15:54Z</time>
      </trkpt>
      <trkpt lat="50.02524" lon="2.03049">
        <ele>30.7</ele>
        <time>2022-04-17T09:15:55Z</time>
      </trkpt>
      <trkpt lat="50.02525" lon="2.0305">
        <ele>30.7</ele>
        <time>2022-04-17T09:15:57Z</time>
      </trkpt>
      <trkpt lat="50.02526" lon="2.03052">
        <ele>30.7</ele>
        <time>2022-04-17T09:15:58Z</time>
      </trkpt>
      <trkpt lat="50.02526" lon="2.03053">
        <ele>30.8</ele>
        <time>2022-04-17T09:15:59Z</time>
      </trkpt>
      <trkpt lat="50.02527" lon="2.03054">
        <ele>30.8</ele>
        <time>2022-04-17T09:16:00Z</time>
      </trkpt>
      <trkpt lat="50.02527" lon="2.03055">
        <ele>30.8</ele>
        <time>2022-04-17T09:16:01Z</time>
      </trkpt>
      <trkpt lat="50.02527" lon="2.03055">
        <ele>30.8</ele>
        <time>2022-04-17T09:16:02Z</time>
      </trkpt>
      <trkpt lat="50.02528" lon="2.03056">
        <ele>30.8</ele>
        <time>2022-04-17T09:16:03Z</time>
      </trkpt>
      <trkpt lat="50.02528" lon="2.03056">
        <ele>30.8</ele>
        <time>2022-04-17T09:16:04Z</time>
      </trkpt>
      <trkpt lat="50.02528" lon="2.03057">
        <ele>30.8</ele>
        <time>2022-04-17T09:16:05Z</time>
      </trkpt>
      <trkpt lat="50.02528" lon="2.03058">
        <ele>30.9</ele>
        <time>2022-04-17T09:16:06Z</time>
      </trkpt>
      <trkpt lat="50.02528" lon="2.03059">
        <ele>30.9</ele>
        <time>2022-04-17T09:16:08Z</time>
      </trkpt>
      <trkpt lat="50.02528" lon="2.0306">
        <ele>30.9</ele>
        <time>2022-04-17T09:16:09Z</time>
      </trkpt>
      <trkpt lat="50.02528" lon="2.0306">
        <ele>30.9</ele>
        <time>2022-04-17T09:16:10Z</time>
      </trkpt>
      <trkpt lat="50.02528" lon="2.03061">
        <ele>30.9</ele>
        <time>2022-04-17T09:16:11Z</time>
      </trkpt>
      <trkpt lat="50.02527" lon="2.03062">
        <ele>31</ele>
        <time>2022-04-17T09:16:13Z</time>
      </trkpt>
      <trkpt lat="50.02526" lon="2.03063">
        <ele>31</ele>
        <time>2022-04-17T09:16:15Z</time>
      </trkpt>
      <trkpt lat="50.02526" lon="2.03064">
        <ele>31</ele>
        <time>2022-04-17T09:16:16Z</time>
      </trkpt>
      <trkpt lat="50.02525" lon="2.03065">
        <ele>31</ele>
        <time>2022-04-17T09:16:17Z</time>
      </trkpt>
      <trkpt lat="50.02525" lon="2.03066">
        <ele>31</ele>
        <time>2022-04-17T09:16:19Z</time>
      </trkpt>
      <trkpt lat="50.02524" lon="2.03067">
        <ele>31.1</ele>
        <time>2022-04-17T09:16:20Z</time>
      </trkpt>
      <trkpt lat="50.02523" lon="2.0307">
        <ele>31.1</ele>
        <time>2022-04-17T09:16:22Z</time>
      </trkpt>
      <trkpt lat="50.02523" lon="2.03071">
        <ele>31.1</ele>
        <time>2022-04-17T09:16:23Z</time>
      </trkpt>
      <trkpt lat="50.02522" lon="2.03072">
        <ele>31.1</ele>
        <time>2022-04-17T09:16:24Z</time>
      </trkpt>
      <trkpt lat="50.02522" lon="2.03074">
        <ele>31.1</ele>
        <time>2022-04-17T09:16:25Z</time>
      </trkpt>
      <trkpt lat="50.02521" lon="2.03076">
        <ele>31.1</ele>
        <time>2022-04-17T09:16:27Z</time>
      </trkpt>
      <trkpt lat="50.02521" lon="2.03078">
        <ele>31.1</ele>
        <time>2022-04-17T09:16:28Z</time>
      </trkpt>
      <trkpt lat="50.02521" lon="2.0308">
        <ele>31.1</ele>
        <time>2022-04-17T09:16:29Z</time>
      </trkpt>
      <trkpt lat="50.0252" lon="2.03081">
        <ele>31.1</ele>
        <time>2022-04-17T09:16:30Z</time>
      </trkpt>
      <trkpt lat="50.0252" lon="2.03081">
        <ele>31.1</ele>
        <time>2022-04-17T09:16:31Z</time>
      </trkpt>
      <trkpt lat="50.0252" lon="2.03082">
        <ele>31.1</ele>
        <time>2022-04-17T09:16:32Z</time>
      </trkpt>
      <trkpt lat="50.0252" lon="2.03083">
        <ele>31.1</ele>
        <time>2022-04-17T09:16:33Z</time>
      </trkpt>
      <trkpt lat="50.0252" lon="2.03083">
        <ele>31.1</ele>
        <time>2022-04-17T09:16:35Z</time>
      </trkpt>
      <trkpt lat="50.0252" lon="2.03084">
        <ele>31.1</ele>
        <time>2022-04-17T09:16:36Z</time>
      </trkpt>
      <trkpt lat="50.0252" lon="2.03084">
        <ele>31.1</ele>
        <time>2022-04-17T09:16:38Z</time>
      </trkpt>
      <trkpt lat="50.02519" lon="2.03085">
        <ele>31.1</ele>
        <time>2022-04-17T09:16:39Z</time>
      </trkpt>
      <trkpt lat="50.02519" lon="2.03085">
        <ele>31.1</ele>
        <time>2022-04-17T09:16:40Z</time>
      </trkpt>
      <trkpt lat="50.02518" lon="2.03086">
        <ele>31.1</ele>
        <time>2022-04-17T09:16:41Z</time>
      </trkpt>
      <trkpt lat="50.02519" lon="2.03086">
        <ele>31.1</ele>
        <time>2022-04-17T09:16:42Z</time>
      </trkpt>
      <trkpt lat="50.02519" lon="2.03087">
        <ele>31.1</ele>
        <time>2022-04-17T09:16:44Z</time>
      </trkpt>
      <trkpt lat="50.02518" lon="2.03088">
        <ele>31.1</ele>
        <time>2022-04-17T09:16:45Z</time>
      </trkpt>
      <trkpt lat="50.02518" lon="2.03089">
        <ele>31.1</ele>
        <time>2022-04-17T09:16:46Z</time>
      </trkpt>
      <trkpt lat="50.02518" lon="2.0309">
        <ele>31.1</ele>
        <time>2022-04-17T09:16:48Z</time>
      </trkpt>
      <trkpt lat="50.02519" lon="2.0309">
        <ele>31.1</ele>
        <time>2022-04-17T09:16:50Z</time>
      </trkpt>
      <trkpt lat="50.02519" lon="2.03091">
        <ele>31.1</ele>
        <time>2022-04-17T09:16:51Z</time>
      </trkpt>
      <trkpt lat="50.0252" lon="2.03092">
        <ele>31.1</ele>
        <time>2022-04-17T09:16:52Z</time>
      </trkpt>
      <trkpt lat="50.0252" lon="2.03093">
        <ele>31.1</ele>
        <time>2022-04-17T09:16:53Z</time>
      </trkpt>
      <trkpt lat="50.02519" lon="2.0309">
        <ele>31.1</ele>
        <time>2022-04-17T09:16:54Z</time>
      </trkpt>
      <trkpt lat="50.02518" lon="2.03088">
        <ele>31.1</ele>
        <time>2022-04-17T09:16:55Z</time>
      </trkpt>
      <trkpt lat="50.02518" lon="2.03087">
        <ele>31.1</ele>
        <time>2022-04-17T09:16:56Z</time>
      </trkpt>
      <trkpt lat="50.02517" lon="2.03086">
        <ele>31.1</ele>
        <time>2022-04-17T09:16:57Z</time>
      </trkpt>
      <trkpt lat="50.02517" lon="2.03086">
        <ele>31.1</ele>
        <time>2022-04-17T09:16:58Z</time>
      </trkpt>
      <trkpt lat="50.02517" lon="2.03087">
        <ele>31.1</ele>
        <time>2022-04-17T09:16:59Z</time>
      </trkpt>
      <trkpt lat="50.02518" lon="2.03087">
        <ele>31.1</ele>
        <time>2022-04-17T09:17:00Z</time>
      </trkpt>
      <trkpt lat="50.02518" lon="2.03086">
        <ele>31.1</ele>
        <time>2022-04-17T09:17:01Z</time>
      </trkpt>
      <trkpt lat="50.02518" lon="2.03086">
        <ele>31.1</ele>
        <time>2022-04-17T09:17:02Z</time>
      </trkpt>
      <trkpt lat="50.02518" lon="2.03086">
        <ele>31.1</ele>
        <time>2022-04-17T09:17:03Z</time>
      </trkpt>
      <trkpt lat="50.02518" lon="2.03086">
        <ele>31.1</ele>
        <time>2022-04-17T09:17:04Z</time>
      </trkpt>
      <trkpt lat="50.02518" lon="2.03087">
        <ele>31.1</ele>
        <time>2022-04-17T09:17:05Z</time>
      </trkpt>
      <trkpt lat="50.02518" lon="2.03087">
        <ele>31.1</ele>
        <time>2022-04-17T09:17:06Z</time>
      </trkpt>
      <trkpt lat="50.02517" lon="2.03087">
        <ele>31.1</ele>
        <time>2022-04-17T09:17:07Z</time>
      </trkpt>
      <trkpt lat="50.02517" lon="2.03087">
        <ele>31.1</ele>
        <time>2022-04-17T09:17:08Z</time>
      </trkpt>
      <trkpt lat="50.02517" lon="2.03087">
        <ele>31.1</ele>
        <time>2022-04-17T09:17:09Z</time>
      </trkpt>
      <trkpt lat="50.02517" lon="2.03087">
        <ele>31.1</ele>
        <time>2022-04-17T09:17:10Z</time>
      </trkpt>
      <trkpt lat="50.02517" lon="2.03086">
        <ele>31.1</ele>
        <time>2022-04-17T09:17:11Z</time>
      </trkpt>
      <trkpt lat="50.02517" lon="2.03086">
        <ele>31.1</ele>
        <time>2022-04-17T09:17:12Z</time>
      </trkpt>
      <trkpt lat="50.02517" lon="2.03086">
        <ele>31.1</ele>
        <time>2022-04-17T09:17:13Z</time>
      </trkpt>
      <trkpt lat="50.02517" lon="2.03086">
        <ele>31.1</ele>
        <time>2022-04-17T09:17:14Z</time>
      </trkpt>
      <trkpt lat="50.02517" lon="2.03086">
        <ele>31.1</ele>
        <time>2022-04-17T09:17:15Z</time>
      </trkpt>
      <trkpt lat="50.02517" lon="2.03086">
        <ele>31.1</ele>
        <time>2022-04-17T09:17:16Z</time>
      </trkpt>
      <trkpt lat="50.02517" lon="2.03086">
        <ele>31.1</ele>
        <time>2022-04-17T09:17:17Z</time>
      </trkpt>
      <trkpt lat="50.02517" lon="2.03086">
        <ele>31.1</ele>
        <time>2022-04-17T09:17:18Z</time>
      </trkpt>
      <trkpt lat="50.02516" lon="2.03086">
        <ele>31.1</ele>
        <time>2022-04-17T09:17:19Z</time>
      </trkpt>
      <trkpt lat="50.02516" lon="2.03086">
        <ele>31.1</ele>
        <time>2022-04-17T09:17:20Z</time>
      </trkpt>
      <trkpt lat="50.02516" lon="2.03086">
        <ele>31.1</ele>
        <time>2022-04-17T09:17:21Z</time>
      </trkpt>
      <trkpt lat="50.02516" lon="2.03086">
        <ele>31.1</ele>
        <time>2022-04-17T09:17:22Z</time>
      </trkpt>
      <trkpt lat="50.02516" lon="2.03086">
        <ele>31.1</ele>
        <time>2022-04-17T09:17:23Z</time>
      </trkpt>
      <trkpt lat="50.02516" lon="2.03086">
        <ele>31.1</ele>
        <time>2022-04-17T09:17:24Z</time>
      </trkpt>
      <trkpt lat="50.02516" lon="2.03086">
        <ele>31.1</ele>
        <time>2022-04-17T09:17:25Z</time>
      </trkpt>
      <trkpt lat="50.02516" lon="2.03086">
        <ele>31.1</ele>
        <time>2022-04-17T09:17:26Z</time>
      </trkpt>
      <trkpt lat="50.02516" lon="2.03086">
        <ele>31.1</ele>
        <time>2022-04-17T09:17:27Z</time>
      </trkpt>
      <trkpt lat="50.02516" lon="2.03086">
        <ele>31.1</ele>
        <time>2022-04-17T09:17:28Z</time>
      </trkpt>
      <trkpt lat="50.02516" lon="2.03086">
        <ele>31.1</ele>
        <time>2022-04-17T09:17:29Z</time>
      </trkpt>
      <trkpt lat="50.02516" lon="2.03086">
        <ele>31.1</ele>
        <time>2022-04-17T09:17:30Z</time>
      </trkpt>
      <trkpt lat="50.02516" lon="2.03086">
        <ele>31.1</ele>
        <time>2022-04-17T09:17:31Z</time>
      </trkpt>
      <trkpt lat="50.02516" lon="2.03086">
        <ele>31.1</ele>
        <time>2022-04-17T09:17:32Z</time>
      </trkpt>
      <trkpt lat="50.02516" lon="2.03086">
        <ele>31.1</ele>
        <time>2022-04-17T09:17:33Z</time>
      </trkpt>
      <trkpt lat="50.02516" lon="2.03086">
        <ele>31.1</ele>
        <time>2022-04-17T09:17:34Z</time>
      </trkpt>
      <trkpt lat="50.02516" lon="2.03086">
        <ele>31.1</ele>
        <time>2022-04-17T09:17:35Z</time>
      </trkpt>
      <trkpt lat="50.02516" lon="2.03086">
        <ele>31.1</ele>
        <time>2022-04-17T09:17:36Z</time>
      </trkpt>
      <trkpt lat="50.02516" lon="2.03086">
        <ele>31.1</ele>
        <time>2022-04-17T09:17:37Z</time>
      </trkpt>
      <trkpt lat="50.02516" lon="2.03086">
        <ele>31.1</ele>
        <time>2022-04-17T09:17:38Z</time>
      </trkpt>
      <trkpt lat="50.02516" lon="2.03086">
        <ele>31.1</ele>
        <time>2022-04-17T09:17:39Z</time>
      </trkpt>
      <trkpt lat="50.02516" lon="2.03086">
        <ele>31.1</ele>
        <time>2022-04-17T09:17:40Z</time>
      </trkpt>
      <trkpt lat="50.02516" lon="2.03086">
        <ele>31.1</ele>
        <time>2022-04-17T09:17:41Z</time>
      </trkpt>
      <trkpt lat="50.02516" lon="2.03086">
        <ele>31.1</ele>
        <time>2022-04-17T09:17:42Z</time>
      </trkpt>
      <trkpt lat="50.02516" lon="2.03086">
        <ele>31.1</ele>
        <time>2022-04-17T09:17:43Z</time>
      </trkpt>
      <trkpt lat="50.02516" lon="2.03086">
        <ele>31.1</ele>
        <time>2022-04-17T09:17:44Z</time>
      </trkpt>
      <trkpt lat="50.02516" lon="2.03086">
        <ele>31.1</ele>
        <time>2022-04-17T09:17:45Z</time>
      </trkpt>
      <trkpt lat="50.02516" lon="2.03086">
        <ele>31.1</ele>
        <time>2022-04-17T09:17:46Z</time>
      </trkpt>
      <trkpt lat="50.02516" lon="2.03086">
        <ele>31.1</ele>
        <time>2022-04-17T09:17:47Z</time>
      </trkpt>
      <trkpt lat="50.02516" lon="2.03086">
        <ele>31.1</ele>
        <time>2022-04-17T09:17:48Z</time>
      </trkpt>
      <trkpt lat="50.02516" lon="2.03086">
        <ele>31.1</ele>
        <time>2022-04-17T09:17:49Z</time>
      </trkpt>
      <trkpt lat="50.02516" lon="2.03086">
        <ele>31.1</ele>
        <time>2022-04-17T09:17:50Z</time>
      </trkpt>
      <trkpt lat="50.02516" lon="2.03086">
        <ele>31.1</ele>
        <time>2022-04-17T09:17:51Z</time>
      </trkpt>
      <trkpt lat="50.02516" lon="2.03086">
        <ele>31.1</ele>
        <time>2022-04-17T09:17:52Z</time>
      </trkpt>
      <trkpt lat="50.02516" lon="2.03086">
        <ele>31.1</ele>
        <time>2022-04-17T09:17:53Z</time>
      </trkpt>
      <trkpt lat="50.02516" lon="2.03086">
        <ele>31.1</ele>
        <time>2022-04-17T09:17:54Z</time>
      </trkpt>
      <trkpt lat="50.02516" lon="2.03086">
        <ele>31.1</ele>
        <time>2022-04-17T09:17:55Z</time>
      </trkpt>
      <trkpt lat="50.02516" lon="2.03086">
        <ele>31.1</ele>
        <time>2022-04-17T09:17:56Z</time>
      </trkpt>
      <trkpt lat="50.02516" lon="2.03086">
        <ele>31.1</ele>
        <time>2022-04-17T09:17:57Z</time>
      </trkpt>
      <trkpt lat="50.02516" lon="2.03086">
        <ele>31.1</ele>
        <time>2022-04-17T09:17:58Z</time>
      </trkpt>
      <trkpt lat="50.02516" lon="2.03086">
        <ele>31.1</ele>
        <time>2022-04-17T09:17:59Z</time>
      </trkpt>
      <trkpt lat="50.02516" lon="2.03086">
        <ele>31.1</ele>
        <time>2022-04-17T09:18:00Z</time>
      </trkpt>
      <trkpt lat="50.02516" lon="2.03086">
        <ele>31.1</ele>
        <time>2022-04-17T09:18:01Z</time>
      </trkpt>
      <trkpt lat="50.02516" lon="2.03086">
        <ele>31.1</ele>
        <time>2022-04-17T09:18:02Z</time>
      </trkpt>
      <trkpt lat="50.02516" lon="2.03086">
        <ele>31.1</ele>
        <time>2022-04-17T09:18:03Z</time>
      </trkpt>
      <trkpt lat="50.02516" lon="2.03086">
        <ele>31.1</ele>
        <time>2022-04-17T09:18:04Z</time>
      </trkpt>
      <trkpt lat="50.02516" lon="2.03086">
        <ele>31.1</ele>
        <time>2022-04-17T09:18:05Z</time>
      </trkpt>
      <trkpt lat="50.02516" lon="2.03086">
        <ele>31.1</ele>
        <time>2022-04-17T09:18:06Z</time>
      </trkpt>
      <trkpt lat="50.02516" lon="2.03086">
        <ele>31.1</ele>
        <time>2022-04-17T09:18:07Z</time>
      </trkpt>
      <trkpt lat="50.02516" lon="2.03086">
        <ele>31.1</ele>
        <time>2022-04-17T09:18:08Z</time>
      </trkpt>
      <trkpt lat="50.02516" lon="2.03086">
        <ele>31.1</ele>
        <time>2022-04-17T09:18:09Z</time>
      </trkpt>
      <trkpt lat="50.02516" lon="2.03086">
        <ele>31.1</ele>
        <time>2022-04-17T09:18:10Z</time>
      </trkpt>
      <trkpt lat="50.02516" lon="2.03086">
        <ele>31.1</ele>
        <time>2022-04-17T09:18:11Z</time>
      </trkpt>
      <trkpt lat="50.02516" lon="2.03086">
        <ele>31.1</ele>
        <time>2022-04-17T09:18:12Z</time>
      </trkpt>
      <trkpt lat="50.02516" lon="2.03086">
        <ele>31.1</ele>
        <time>2022-04-17T09:18:13Z</time>
      </trkpt>
      <trkpt lat="50.02516" lon="2.03086">
        <ele>31.1</ele>
        <time>2022-04-17T09:18:14Z</time>
      </trkpt>
      <trkpt lat="50.02516" lon="2.03086">
        <ele>31.1</ele>
        <time>2022-04-17T09:18:15Z</time>
      </trkpt>
      <trkpt lat="50.02516" lon="2.03086">
        <ele>31.1</ele>
        <time>2022-04-17T09:18:16Z</time>
      </trkpt>
      <trkpt lat="50.02516" lon="2.03086">
        <ele>31.1</ele>
        <time>2022-04-17T09:18:17Z</time>
      </trkpt>
      <trkpt lat="50.02516" lon="2.03086">
        <ele>31.1</ele>
        <time>2022-04-17T09:18:18Z</time>
      </trkpt>
      <trkpt lat="50.02516" lon="2.03086">
        <ele>31.1</ele>
        <time>2022-04-17T09:18:19Z</time>
      </trkpt>
      <trkpt lat="50.02516" lon="2.03086">
        <ele>31.1</ele>
        <time>2022-04-17T09:18:20Z</time>
      </trkpt>
      <trkpt lat="50.02516" lon="2.03086">
        <ele>31.1</ele>
        <time>2022-04-17T09:18:21Z</time>
      </trkpt>
      <trkpt lat="50.02516" lon="2.03085">
        <ele>31.1</ele>
        <time>2022-04-17T09:18:22Z</time>
      </trkpt>
      <trkpt lat="50.02516" lon="2.03085">
        <ele>31.1</ele>
        <time>2022-04-17T09:18:23Z</time>
      </trkpt>
      <trkpt lat="50.02516" lon="2.03085">
        <ele>31.1</ele>
        <time>2022-04-17T09:18:24Z</time>
      </trkpt>
      <trkpt lat="50.02515" lon="2.03084">
        <ele>31.1</ele>
        <time>2022-04-17T09:18:25Z</time>
      </trkpt>
      <trkpt lat="50.02516" lon="2.03085">
        <ele>31.1</ele>
        <time>2022-04-17T09:18:26Z</time>
      </trkpt>
      <trkpt lat="50.02516" lon="2.03085">
        <ele>31.1</ele>
        <time>2022-04-17T09:18:27Z</time>
      </trkpt>
      <trkpt lat="50.02516" lon="2.03085">
        <ele>31.1</ele>
        <time>2022-04-17T09:18:28Z</time>
      </trkpt>
      <trkpt lat="50.02516" lon="2.03085">
        <ele>31.1</ele>
        <time>2022-04-17T09:18:29Z</time>
      </trkpt>
      <trkpt lat="50.02516" lon="2.03085">
        <ele>31.1</ele>
        <time>2022-04-17T09:18:31Z</time>
      </trkpt>
      <trkpt lat="50.02517" lon="2.03085">
        <ele>31.1</ele>
        <time>2022-04-17T09:18:32Z</time>
      </trkpt>
      <trkpt lat="50.02517" lon="2.03085">
        <ele>31.1</ele>
        <time>2022-04-17T09:18:34Z</time>
      </trkpt>
      <trkpt lat="50.02516" lon="2.03085">
        <ele>31.1</ele>
        <time>2022-04-17T09:18:35Z</time>
      </trkpt>
      <trkpt lat="50.02517" lon="2.03086">
        <ele>31.1</ele>
        <time>2022-04-17T09:18:37Z</time>
      </trkpt>
      <trkpt lat="50.02517" lon="2.03086">
        <ele>31.1</ele>
        <time>2022-04-17T09:18:38Z</time>
      </trkpt>
      <trkpt lat="50.02517" lon="2.03086">
        <ele>31.1</ele>
        <time>2022-04-17T09:18:39Z</time>
      </trkpt>
      <trkpt lat="50.02517" lon="2.03086">
        <ele>31.1</ele>
        <time>2022-04-17T09:18:41Z</time>
      </trkpt>
      <trkpt lat="50.02517" lon="2.03087">
        <ele>31.1</ele>
        <time>2022-04-17T09:18:42Z</time>
      </trkpt>
      <trkpt lat="50.02517" lon="2.03086">
        <ele>31.1</ele>
        <time>2022-04-17T09:18:43Z</time>
      </trkpt>
      <trkpt lat="50.02517" lon="2.03086">
        <ele>31.1</ele>
        <time>2022-04-17T09:18:45Z</time>
      </trkpt>
      <trkpt lat="50.02517" lon="2.03086">
        <ele>31.1</ele>
        <time>2022-04-17T09:18:46Z</time>
      </trkpt>
      <trkpt lat="50.02517" lon="2.03087">
        <ele>31.1</ele>
        <time>2022-04-17T09:18:47Z</time>
      </trkpt>
      <trkpt lat="50.02518" lon="2.03087">
        <ele>31.1</ele>
        <time>2022-04-17T09:18:49Z</time>
      </trkpt>
      <trkpt lat="50.02518" lon="2.03088">
        <ele>31.1</ele>
        <time>2022-04-17T09:18:50Z</time>
      </trkpt>
      <trkpt lat="50.02518" lon="2.03087">
        <ele>31.1</ele>
        <time>2022-04-17T09:18:51Z</time>
      </trkpt>
      <trkpt lat="50.02518" lon="2.03087">
        <ele>31.1</ele>
        <time>2022-04-17T09:18:53Z</time>
      </trkpt>
      <trkpt lat="50.02518" lon="2.03088">
        <ele>31.1</ele>
        <time>2022-04-17T09:18:54Z</time>
      </trkpt>
      <trkpt lat="50.02518" lon="2.03088">
        <ele>31.1</ele>
        <time>2022-04-17T09:18:55Z</time>
      </trkpt>
      <trkpt lat="50.02518" lon="2.03087">
        <ele>31.1</ele>
        <time>2022-04-17T09:18:56Z</time>
      </trkpt>
      <trkpt lat="50.02518" lon="2.03087">
        <ele>31.1</ele>
        <time>2022-04-17T09:18:57Z</time>
      </trkpt>
      <trkpt lat="50.02517" lon="2.03086">
        <ele>31.1</ele>
        <time>2022-04-17T09:18:58Z</time>
      </trkpt>
      <trkpt lat="50.02517" lon="2.03086">
        <ele>31.1</ele>
        <time>2022-04-17T09:18:59Z</time>
      </trkpt>
      <trkpt lat="50.02517" lon="2.03086">
        <ele>31.1</ele>
        <time>2022-04-17T09:19:00Z</time>
      </trkpt>
      <trkpt lat="50.02517" lon="2.03086">
        <ele>31.1</ele>
        <time>2022-04-17T09:19:01Z</time>
      </trkpt>
      <trkpt lat="50.02516" lon="2.03086">
        <ele>31.1</ele>
        <time>2022-04-17T09:19:02Z</time>
      </trkpt>
      <trkpt lat="50.02516" lon="2.03086">
        <ele>31.1</ele>
        <time>2022-04-17T09:19:03Z</time>
      </trkpt>
      <trkpt lat="50.02516" lon="2.03086">
        <ele>31.1</ele>
        <time>2022-04-17T09:19:04Z</time>
      </trkpt>
      <trkpt lat="50.02516" lon="2.03086">
        <ele>31.1</ele>
        <time>2022-04-17T09:19:06Z</time>
      </trkpt>
      <trkpt lat="50.02516" lon="2.03086">
        <ele>31.1</ele>
        <time>2022-04-17T09:19:07Z</time>
      </trkpt>
      <trkpt lat="50.02515" lon="2.03086">
        <ele>31.1</ele>
        <time>2022-04-17T09:19:08Z</time>
      </trkpt>
      <trkpt lat="50.02515" lon="2.03085">
        <ele>31.1</ele>
        <time>2022-04-17T09:19:09Z</time>
      </trkpt>
      <trkpt lat="50.02515" lon="2.03085">
        <ele>31.1</ele>
        <time>2022-04-17T09:19:10Z</time>
      </trkpt>
      <trkpt lat="50.02515" lon="2.03084">
        <ele>31.1</ele>
        <time>2022-04-17T09:19:11Z</time>
      </trkpt>
      <trkpt lat="50.02515" lon="2.03084">
        <ele>31.1</ele>
        <time>2022-04-17T09:19:12Z</time>
      </trkpt>
      <trkpt lat="50.02515" lon="2.03084">
        <ele>31.1</ele>
        <time>2022-04-17T09:19:13Z</time>
      </trkpt>
      <trkpt lat="50.02515" lon="2.03083">
        <ele>31.1</ele>
        <time>2022-04-17T09:19:14Z</time>
      </trkpt>
      <trkpt lat="50.02515" lon="2.03083">
        <ele>31.1</ele>
        <time>2022-04-17T09:19:15Z</time>
      </trkpt>
      <trkpt lat="50.02515" lon="2.03083">
        <ele>31.1</ele>
        <time>2022-04-17T09:19:16Z</time>
      </trkpt>
      <trkpt lat="50.02515" lon="2.03083">
        <ele>31.1</ele>
        <time>2022-04-17T09:19:17Z</time>
      </trkpt>
      <trkpt lat="50.02515" lon="2.03083">
        <ele>31.1</ele>
        <time>2022-04-17T09:19:18Z</time>
      </trkpt>
      <trkpt lat="50.02515" lon="2.03083">
        <ele>31.1</ele>
        <time>2022-04-17T09:19:19Z</time>
      </trkpt>
      <trkpt lat="50.02515" lon="2.03083">
        <ele>31.1</ele>
        <time>2022-04-17T09:19:20Z</time>
      </trkpt>
      <trkpt lat="50.02515" lon="2.03083">
        <ele>31.1</ele>
        <time>2022-04-17T09:19:21Z</time>
      </trkpt>
      <trkpt lat="50.02515" lon="2.03083">
        <ele>31.1</ele>
        <time>2022-04-17T09:19:22Z</time>
      </trkpt>
      <trkpt lat="50.02515" lon="2.03083">
        <ele>31.1</ele>
        <time>2022-04-17T09:19:23Z</time>
      </trkpt>
      <trkpt lat="50.02515" lon="2.03083">
        <ele>31.1</ele>
        <time>2022-04-17T09:19:24Z</time>
      </trkpt>
      <trkpt lat="50.02515" lon="2.03083">
        <ele>31.1</ele>
        <time>2022-04-17T09:19:25Z</time>
      </trkpt>
      <trkpt lat="50.02515" lon="2.03083">
        <ele>31.1</ele>
        <time>2022-04-17T09:19:26Z</time>
      </trkpt>
      <trkpt lat="50.02515" lon="2.03083">
        <ele>31.1</ele>
        <time>2022-04-17T09:19:27Z</time>
      </trkpt>
      <trkpt lat="50.02515" lon="2.03084">
        <ele>31.1</ele>
        <time>2022-04-17T09:19:28Z</time>
      </trkpt>
      <trkpt lat="50.02515" lon="2.03084">
        <ele>31.1</ele>
        <time>2022-04-17T09:19:29Z</time>
      </trkpt>
      <trkpt lat="50.02515" lon="2.03084">
        <ele>31.1</ele>
        <time>2022-04-17T09:19:30Z</time>
      </trkpt>
      <trkpt lat="50.02515" lon="2.03084">
        <ele>31.1</ele>
        <time>2022-04-17T09:19:31Z</time>
      </trkpt>
      <trkpt lat="50.02515" lon="2.03084">
        <ele>31.1</ele>
        <time>2022-04-17T09:19:32Z</time>
      </trkpt>
      <trkpt lat="50.02515" lon="2.03084">
        <ele>31.1</ele>
        <time>2022-04-17T09:19:33Z</time>
      </trkpt>
      <trkpt lat="50.02515" lon="2.03084">
        <ele>31.1</ele>
        <time>2022-04-17T09:19:34Z</time>
      </trkpt>
      <trkpt lat="50.02515" lon="2.03084">
        <ele>31.1</ele>
        <time>2022-04-17T09:19:35Z</time>
      </trkpt>
      <trkpt lat="50.02515" lon="2.03083">
        <ele>31.1</ele>
        <time>2022-04-17T09:19:37Z</time>
      </trkpt>
      <trkpt lat="50.02515" lon="2.03083">
        <ele>31.1</ele>
        <time>2022-04-17T09:19:38Z</time>
      </trkpt>
      <trkpt lat="50.02515" lon="2.03082">
        <ele>31.1</ele>
        <time>2022-04-17T09:19:40Z</time>
      </trkpt>
      <trkpt lat="50.02515" lon="2.03081">
        <ele>31.1</ele>
        <time>2022-04-17T09:19:41Z</time>
      </trkpt>
      <trkpt lat="50.02515" lon="2.03081">
        <ele>31.1</ele>
        <time>2022-04-17T09:19:42Z</time>
      </trkpt>
      <trkpt lat="50.02515" lon="2.03081">
        <ele>31.1</ele>
        <time>2022-04-17T09:19:44Z</time>
      </trkpt>
      <trkpt lat="50.02514" lon="2.03081">
        <ele>31.1</ele>
        <time>2022-04-17T09:19:45Z</time>
      </trkpt>
      <trkpt lat="50.02512" lon="2.03082">
        <ele>31.1</ele>
        <time>2022-04-17T09:19:47Z</time>
      </trkpt>
      <trkpt lat="50.02511" lon="2.03083">
        <ele>29</ele>
        <time>2022-04-17T09:19:48Z</time>
      </trkpt>
      <trkpt lat="50.0251" lon="2.03084">
        <ele>29</ele>
        <time>2022-04-17T09:19:49Z</time>
      </trkpt>
      <trkpt lat="50.02509" lon="2.03086">
        <ele>29.1</ele>
        <time>2022-04-17T09:19:51Z</time>
      </trkpt>
      <trkpt lat="50.02509" lon="2.03086">
        <ele>29.1</ele>
        <time>2022-04-17T09:19:52Z</time>
      </trkpt>
      <trkpt lat="50.02509" lon="2.03086">
        <ele>29.1</ele>
        <time>2022-04-17T09:19:53Z</time>
      </trkpt>
      <trkpt lat="50.02509" lon="2.03085">
        <ele>29.1</ele>
        <time>2022-04-17T09:19:54Z</time>
      </trkpt>
      <trkpt lat="50.02509" lon="2.03085">
        <ele>29.1</ele>
        <time>2022-04-17T09:19:55Z</time>
      </trkpt>
      <trkpt lat="50.02509" lon="2.03085">
        <ele>29.1</ele>
        <time>2022-04-17T09:19:56Z</time>
      </trkpt>
      <trkpt lat="50.02509" lon="2.03084">
        <ele>29.1</ele>
        <time>2022-04-17T09:19:57Z</time>
      </trkpt>
      <trkpt lat="50.02509" lon="2.03084">
        <ele>29.1</ele>
        <time>2022-04-17T09:19:59Z</time>
      </trkpt>
      <trkpt lat="50.02509" lon="2.03083">
        <ele>29.1</ele>
        <time>2022-04-17T09:20:00Z</time>
      </trkpt>
      <trkpt lat="50.0251" lon="2.03083">
        <ele>29.1</ele>
        <time>2022-04-17T09:20:01Z</time>
      </trkpt>
      <trkpt lat="50.0251" lon="2.03083">
        <ele>29.1</ele>
        <time>2022-04-17T09:20:02Z</time>
      </trkpt>
      <trkpt lat="50.0251" lon="2.03082">
        <ele>29.1</ele>
        <time>2022-04-17T09:20:03Z</time>
      </trkpt>
      <trkpt lat="50.0251" lon="2.03082">
        <ele>29.1</ele>
        <time>2022-04-17T09:20:04Z</time>
      </trkpt>
      <trkpt lat="50.0251" lon="2.03082">
        <ele>29.1</ele>
        <time>2022-04-17T09:20:05Z</time>
      </trkpt>
      <trkpt lat="50.0251" lon="2.03081">
        <ele>29.1</ele>
        <time>2022-04-17T09:20:07Z</time>
      </trkpt>
      <trkpt lat="50.0251" lon="2.03081">
        <ele>29.1</ele>
        <time>2022-04-17T09:20:08Z</time>
      </trkpt>
      <trkpt lat="50.0251" lon="2.0308">
        <ele>29.1</ele>
        <time>2022-04-17T09:20:09Z</time>
      </trkpt>
      <trkpt lat="50.0251" lon="2.0308">
        <ele>29.1</ele>
        <time>2022-04-17T09:20:10Z</time>
      </trkpt>
      <trkpt lat="50.0251" lon="2.03079">
        <ele>29.2</ele>
        <time>2022-04-17T09:20:12Z</time>
      </trkpt>
      <trkpt lat="50.02509" lon="2.03079">
        <ele>29.2</ele>
        <time>2022-04-17T09:20:13Z</time>
      </trkpt>
      <trkpt lat="50.02509" lon="2.03077">
        <ele>29.2</ele>
        <time>2022-04-17T09:20:14Z</time>
      </trkpt>
      <trkpt lat="50.02509" lon="2.03075">
        <ele>29.2</ele>
        <time>2022-04-17T09:20:16Z</time>
      </trkpt>
      <trkpt lat="50.02509" lon="2.03072">
        <ele>29.2</ele>
        <time>2022-04-17T09:20:17Z</time>
      </trkpt>
      <trkpt lat="50.02508" lon="2.0307">
        <ele>29.3</ele>
        <time>2022-04-17T09:20:18Z</time>
      </trkpt>
      <trkpt lat="50.02508" lon="2.03068">
        <ele>29.3</ele>
        <time>2022-04-17T09:20:20Z</time>
      </trkpt>
      <trkpt lat="50.02508" lon="2.03069">
        <ele>29.3</ele>
        <time>2022-04-17T09:20:21Z</time>
      </trkpt>
      <trkpt lat="50.02508" lon="2.03069">
        <ele>29.3</ele>
        <time>2022-04-17T09:20:23Z</time>
      </trkpt>
      <trkpt lat="50.02508" lon="2.03068">
        <ele>29.3</ele>
        <time>2022-04-17T09:20:24Z</time>
      </trkpt>
      <trkpt lat="50.02509" lon="2.03067">
        <ele>29.3</ele>
        <time>2022-04-17T09:20:25Z</time>
      </trkpt>
      <trkpt lat="50.0251" lon="2.03066">
        <ele>29.3</ele>
        <time>2022-04-17T09:20:27Z</time>
      </trkpt>
      <trkpt lat="50.0251" lon="2.03066">
        <ele>29.4</ele>
        <time>2022-04-17T09:20:28Z</time>
      </trkpt>
      <trkpt lat="50.02511" lon="2.03065">
        <ele>29.4</ele>
        <time>2022-04-17T09:20:29Z</time>
      </trkpt>
      <trkpt lat="50.02511" lon="2.03064">
        <ele>29.4</ele>
        <time>2022-04-17T09:20:31Z</time>
      </trkpt>
      <trkpt lat="50.02511" lon="2.03063">
        <ele>29.4</ele>
        <time>2022-04-17T09:20:32Z</time>
      </trkpt>
      <trkpt lat="50.02511" lon="2.03062">
        <ele>29.4</ele>
        <time>2022-04-17T09:20:34Z</time>
      </trkpt>
      <trkpt lat="50.02511" lon="2.03061">
        <ele>29.4</ele>
        <time>2022-04-17T09:20:35Z</time>
      </trkpt>
      <trkpt lat="50.02511" lon="2.0306">
        <ele>29.4</ele>
        <time>2022-04-17T09:20:36Z</time>
      </trkpt>
      <trkpt lat="50.0251" lon="2.03059">
        <ele>29.4</ele>
        <time>2022-04-17T09:20:37Z</time>
      </trkpt>
      <trkpt lat="50.0251" lon="2.03059">
        <ele>29.4</ele>
        <time>2022-04-17T09:20:38Z</time>
      </trkpt>
      <trkpt lat="50.0251" lon="2.03059">
        <ele>29.4</ele>
        <time>2022-04-17T09:20:39Z</time>
      </trkpt>
      <trkpt lat="50.0251" lon="2.0306">
        <ele>29.5</ele>
        <time>2022-04-17T09:20:41Z</time>
      </trkpt>
      <trkpt lat="50.02511" lon="2.03059">
        <ele>29.5</ele>
        <time>2022-04-17T09:20:42Z</time>
      </trkpt>
      <trkpt lat="50.02512" lon="2.03059">
        <ele>29.5</ele>
        <time>2022-04-17T09:20:44Z</time>
      </trkpt>
      <trkpt lat="50.02513" lon="2.03059">
        <ele>29.5</ele>
        <time>2022-04-17T09:20:45Z</time>
      </trkpt>
      <trkpt lat="50.02514" lon="2.0306">
        <ele>29.5</ele>
        <time>2022-04-17T09:20:47Z</time>
      </trkpt>
      <trkpt lat="50.02514" lon="2.0306">
        <ele>29.5</ele>
        <time>2022-04-17T09:20:48Z</time>
      </trkpt>
      <trkpt lat="50.02514" lon="2.03061">
        <ele>29.5</ele>
        <time>2022-04-17T09:20:49Z</time>
      </trkpt>
      <trkpt lat="50.02514" lon="2.03061">
        <ele>29.5</ele>
        <time>2022-04-17T09:20:50Z</time>
      </trkpt>
      <trkpt lat="50.02513" lon="2.03061">
        <ele>29.5</ele>
        <time>2022-04-17T09:20:51Z</time>
      </trkpt>
      <trkpt lat="50.02513" lon="2.03062">
        <ele>29.5</ele>
        <time>2022-04-17T09:20:52Z</time>
      </trkpt>
      <trkpt lat="50.02513" lon="2.03062">
        <ele>29.5</ele>
        <time>2022-04-17T09:20:53Z</time>
      </trkpt>
      <trkpt lat="50.02513" lon="2.03062">
        <ele>29.5</ele>
        <time>2022-04-17T09:20:54Z</time>
      </trkpt>
      <trkpt lat="50.02513" lon="2.03063">
        <ele>29.5</ele>
        <time>2022-04-17T09:20:55Z</time>
      </trkpt>
      <trkpt lat="50.02513" lon="2.03063">
        <ele>29.5</ele>
        <time>2022-04-17T09:20:56Z</time>
      </trkpt>
      <trkpt lat="50.02513" lon="2.03063">
        <ele>29.6</ele>
        <time>2022-04-17T09:20:57Z</time>
      </trkpt>
      <trkpt lat="50.02513" lon="2.03063">
        <ele>29.6</ele>
        <time>2022-04-17T09:20:58Z</time>
      </trkpt>
      <trkpt lat="50.02513" lon="2.03063">
        <ele>29.6</ele>
        <time>2022-04-17T09:20:59Z</time>
      </trkpt>
      <trkpt lat="50.02513" lon="2.03063">
        <ele>29.6</ele>
        <time>2022-04-17T09:21:00Z</time>
      </trkpt>
      <trkpt lat="50.02513" lon="2.03063">
        <ele>29.6</ele>
        <time>2022-04-17T09:21:01Z</time>
      </trkpt>
      <trkpt lat="50.02513" lon="2.03063">
        <ele>29.6</ele>
        <time>2022-04-17T09:21:02Z</time>
      </trkpt>
      <trkpt lat="50.02513" lon="2.03063">
        <ele>29.6</ele>
        <time>2022-04-17T09:21:03Z</time>
      </trkpt>
      <trkpt lat="50.02512" lon="2.03063">
        <ele>29.6</ele>
        <time>2022-04-17T09:21:04Z</time>
      </trkpt>
      <trkpt lat="50.02512" lon="2.03063">
        <ele>29.6</ele>
        <time>2022-04-17T09:21:05Z</time>
      </trkpt>
      <trkpt lat="50.02512" lon="2.03064">
        <ele>29.6</ele>
        <time>2022-04-17T09:21:06Z</time>
      </trkpt>
      <trkpt lat="50.02512" lon="2.03064">
        <ele>29.6</ele>
        <time>2022-04-17T09:21:07Z</time>
      </trkpt>
      <trkpt lat="50.02512" lon="2.03064">
        <ele>29.6</ele>
        <time>2022-04-17T09:21:08Z</time>
      </trkpt>
      <trkpt lat="50.02512" lon="2.03064">
        <ele>29.6</ele>
        <time>2022-04-17T09:21:09Z</time>
      </trkpt>
      <trkpt lat="50.02512" lon="2.03064">
        <ele>29.6</ele>
        <time>2022-04-17T09:21:10Z</time>
      </trkpt>
      <trkpt lat="50.02512" lon="2.03064">
        <ele>29.6</ele>
        <time>2022-04-17T09:21:11Z</time>
      </trkpt>
      <trkpt lat="50.02512" lon="2.03064">
        <ele>29.6</ele>
        <time>2022-04-17T09:21:12Z</time>
      </trkpt>
      <trkpt lat="50.02512" lon="2.03064">
        <ele>29.6</ele>
        <time>2022-04-17T09:21:13Z</time>
      </trkpt>
      <trkpt lat="50.02512" lon="2.03064">
        <ele>29.6</ele>
        <time>2022-04-17T09:21:14Z</time>
      </trkpt>
      <trkpt lat="50.02512" lon="2.03064">
        <ele>29.6</ele>
        <time>2022-04-17T09:21:15Z</time>
      </trkpt>
      <trkpt lat="50.02512" lon="2.03064">
        <ele>29.6</ele>
        <time>2022-04-17T09:21:16Z</time>
      </trkpt>
      <trkpt lat="50.02512" lon="2.03063">
        <ele>29.6</ele>
        <time>2022-04-17T09:21:17Z</time>
      </trkpt>
      <trkpt lat="50.02512" lon="2.03063">
        <ele>29.6</ele>
        <time>2022-04-17T09:21:18Z</time>
      </trkpt>
      <trkpt lat="50.02512" lon="2.03063">
        <ele>29.6</ele>
        <time>2022-04-17T09:21:19Z</time>
      </trkpt>
      <trkpt lat="50.02512" lon="2.03063">
        <ele>29.6</ele>
        <time>2022-04-17T09:21:20Z</time>
      </trkpt>
      <trkpt lat="50.02512" lon="2.03063">
        <ele>29.6</ele>
        <time>2022-04-17T09:21:21Z</time>
      </trkpt>
      <trkpt lat="50.02512" lon="2.03063">
        <ele>29.6</ele>
        <time>2022-04-17T09:21:22Z</time>
      </trkpt>
      <trkpt lat="50.02512" lon="2.03062">
        <ele>29.6</ele>
        <time>2022-04-17T09:21:24Z</time>
      </trkpt>
      <trkpt lat="50.02511" lon="2.03062">
        <ele>29.6</ele>
        <time>2022-04-17T09:21:25Z</time>
      </trkpt>
      <trkpt lat="50.02511" lon="2.03062">
        <ele>29.6</ele>
        <time>2022-04-17T09:21:26Z</time>
      </trkpt>
      <trkpt lat="50.0251" lon="2.03062">
        <ele>29.6</ele>
        <time>2022-04-17T09:21:28Z</time>
      </trkpt>
      <trkpt lat="50.0251" lon="2.03063">
        <ele>29.6</ele>
        <time>2022-04-17T09:21:29Z</time>
      </trkpt>
      <trkpt lat="50.02509" lon="2.03063">
        <ele>29.6</ele>
        <time>2022-04-17T09:21:30Z</time>
      </trkpt>
      <trkpt lat="50.02508" lon="2.03063">
        <ele>29.7</ele>
        <time>2022-04-17T09:21:31Z</time>
      </trkpt>
      <trkpt lat="50.02508" lon="2.03063">
        <ele>29.7</ele>
        <time>2022-04-17T09:21:32Z</time>
      </trkpt>
      <trkpt lat="50.02507" lon="2.03062">
        <ele>29.7</ele>
        <time>2022-04-17T09:21:33Z</time>
      </trkpt>
      <trkpt lat="50.02507" lon="2.03061">
        <ele>29.7</ele>
        <time>2022-04-17T09:21:34Z</time>
      </trkpt>
      <trkpt lat="50.02506" lon="2.03059">
        <ele>29.7</ele>
        <time>2022-04-17T09:21:35Z</time>
      </trkpt>
      <trkpt lat="50.02505" lon="2.03059">
        <ele>29.7</ele>
        <time>2022-04-17T09:21:36Z</time>
      </trkpt>
      <trkpt lat="50.02505" lon="2.03058">
        <ele>29.7</ele>
        <time>2022-04-17T09:21:37Z</time>
      </trkpt>
      <trkpt lat="50.02504" lon="2.03057">
        <ele>38.6</ele>
        <time>2022-04-17T09:21:38Z</time>
      </trkpt>
      <trkpt lat="50.02504" lon="2.03057">
        <ele>38.6</ele>
        <time>2022-04-17T09:21:40Z</time>
      </trkpt>
      <trkpt lat="50.02503" lon="2.03057">
        <ele>38.6</ele>
        <time>2022-04-17T09:21:41Z</time>
      </trkpt>
      <trkpt lat="50.02502" lon="2.03057">
        <ele>38.6</ele>
        <time>2022-04-17T09:21:42Z</time>
      </trkpt>
      <trkpt lat="50.02501" lon="2.03057">
        <ele>38.6</ele>
        <time>2022-04-17T09:21:43Z</time>
      </trkpt>
      <trkpt lat="50.02499" lon="2.03057">
        <ele>38.6</ele>
        <time>2022-04-17T09:21:44Z</time>
      </trkpt>
      <trkpt lat="50.02498" lon="2.03057">
        <ele>38.6</ele>
        <time>2022-04-17T09:21:45Z</time>
      </trkpt>
      <trkpt lat="50.02497" lon="2.03058">
        <ele>38.6</ele>
        <time>2022-04-17T09:21:46Z</time>
      </trkpt>
      <trkpt lat="50.02495" lon="2.03061">
        <ele>38.6</ele>
        <time>2022-04-17T09:21:48Z</time>
      </trkpt>
      <trkpt lat="50.02494" lon="2.03063">
        <ele>38.8</ele>
        <time>2022-04-17T09:21:49Z</time>
      </trkpt>
      <trkpt lat="50.02494" lon="2.03064">
        <ele>38.8</ele>
        <time>2022-04-17T09:21:50Z</time>
      </trkpt>
      <trkpt lat="50.02493" lon="2.03065">
        <ele>38.8</ele>
        <time>2022-04-17T09:21:51Z</time>
      </trkpt>
      <trkpt lat="50.02493" lon="2.03065">
        <ele>38.8</ele>
        <time>2022-04-17T09:21:52Z</time>
      </trkpt>
      <trkpt lat="50.02492" lon="2.03066">
        <ele>38.8</ele>
        <time>2022-04-17T09:21:53Z</time>
      </trkpt>
      <trkpt lat="50.02491" lon="2.03066">
        <ele>38.8</ele>
        <time>2022-04-17T09:21:55Z</time>
      </trkpt>
      <trkpt lat="50.0249" lon="2.03066">
        <ele>38.7</ele>
        <time>2022-04-17T09:21:56Z</time>
      </trkpt>
      <trkpt lat="50.02492" lon="2.03065">
        <ele>38.7</ele>
        <time>2022-04-17T09:21:58Z</time>
      </trkpt>
      <trkpt lat="50.02491" lon="2.03065">
        <ele>38.7</ele>
        <time>2022-04-17T09:21:59Z</time>
      </trkpt>
      <trkpt lat="50.02491" lon="2.03065">
        <ele>38.7</ele>
        <time>2022-04-17T09:22:00Z</time>
      </trkpt>
      <trkpt lat="50.0249" lon="2.03064">
        <ele>38.7</ele>
        <time>2022-04-17T09:22:02Z</time>
      </trkpt>
      <trkpt lat="50.0249" lon="2.03064">
        <ele>38.7</ele>
        <time>2022-04-17T09:22:03Z</time>
      </trkpt>
      <trkpt lat="50.02491" lon="2.03063">
        <ele>38.7</ele>
        <time>2022-04-17T09:22:04Z</time>
      </trkpt>
      <trkpt lat="50.02491" lon="2.03063">
        <ele>38.7</ele>
        <time>2022-04-17T09:22:05Z</time>
      </trkpt>
      <trkpt lat="50.02491" lon="2.03063">
        <ele>38.7</ele>
        <time>2022-04-17T09:22:06Z</time>
      </trkpt>
      <trkpt lat="50.02491" lon="2.03063">
        <ele>38.7</ele>
        <time>2022-04-17T09:22:07Z</time>
      </trkpt>
      <trkpt lat="50.02491" lon="2.03063">
        <ele>38.7</ele>
        <time>2022-04-17T09:22:08Z</time>
      </trkpt>
      <trkpt lat="50.0249" lon="2.03062">
        <ele>38.7</ele>
        <time>2022-04-17T09:22:10Z</time>
      </trkpt>
      <trkpt lat="50.0249" lon="2.03061">
        <ele>38.7</ele>
        <time>2022-04-17T09:22:11Z</time>
      </trkpt>
      <trkpt lat="50.02489" lon="2.0306">
        <ele>38.6</ele>
        <time>2022-04-17T09:22:12Z</time>
      </trkpt>
      <trkpt lat="50.0249" lon="2.03059">
        <ele>38.6</ele>
        <time>2022-04-17T09:22:13Z</time>
      </trkpt>
      <trkpt lat="50.0249" lon="2.03058">
        <ele>38.6</ele>
        <time>2022-04-17T09:22:14Z</time>
      </trkpt>
      <trkpt lat="50.02491" lon="2.03058">
        <ele>38.5</ele>
        <time>2022-04-17T09:22:15Z</time>
      </trkpt>
      <trkpt lat="50.02492" lon="2.03057">
        <ele>38.5</ele>
        <time>2022-04-17T09:22:16Z</time>
      </trkpt>
      <trkpt lat="50.02492" lon="2.03056">
        <ele>38.5</ele>
        <time>2022-04-17T09:22:17Z</time>
      </trkpt>
      <trkpt lat="50.02493" lon="2.03056">
        <ele>38.5</ele>
        <time>2022-04-17T09:22:18Z</time>
      </trkpt>
      <trkpt lat="50.02493" lon="2.03055">
        <ele>38.4</ele>
        <time>2022-04-17T09:22:19Z</time>
      </trkpt>
      <trkpt lat="50.02494" lon="2.03054">
        <ele>38.4</ele>
        <time>2022-04-17T09:22:20Z</time>
      </trkpt>
      <trkpt lat="50.02494" lon="2.03053">
        <ele>38.4</ele>
        <time>2022-04-17T09:22:21Z</time>
      </trkpt>
      <trkpt lat="50.02494" lon="2.03052">
        <ele>38.4</ele>
        <time>2022-04-17T09:22:22Z</time>
      </trkpt>
      <trkpt lat="50.02494" lon="2.03052">
        <ele>38.3</ele>
        <time>2022-04-17T09:22:23Z</time>
      </trkpt>
      <trkpt lat="50.02494" lon="2.03053">
        <ele>38.3</ele>
        <time>2022-04-17T09:22:24Z</time>
      </trkpt>
      <trkpt lat="50.02494" lon="2.03053">
        <ele>38.3</ele>
        <time>2022-04-17T09:22:25Z</time>
      </trkpt>
      <trkpt lat="50.02494" lon="2.03053">
        <ele>38.3</ele>
        <time>2022-04-17T09:22:26Z</time>
      </trkpt>
      <trkpt lat="50.02494" lon="2.03054">
        <ele>38.3</ele>
        <time>2022-04-17T09:22:27Z</time>
      </trkpt>
      <trkpt lat="50.02494" lon="2.03054">
        <ele>38.3</ele>
        <time>2022-04-17T09:22:28Z</time>
      </trkpt>
      <trkpt lat="50.02494" lon="2.03054">
        <ele>38.3</ele>
        <time>2022-04-17T09:22:29Z</time>
      </trkpt>
      <trkpt lat="50.02494" lon="2.03055">
        <ele>38.2</ele>
        <time>2022-04-17T09:22:30Z</time>
      </trkpt>
      <trkpt lat="50.02494" lon="2.03055">
        <ele>38.2</ele>
        <time>2022-04-17T09:22:31Z</time>
      </trkpt>
      <trkpt lat="50.02494" lon="2.03054">
        <ele>38.2</ele>
        <time>2022-04-17T09:22:32Z</time>
      </trkpt>
      <trkpt lat="50.02494" lon="2.03054">
        <ele>38.2</ele>
        <time>2022-04-17T09:22:33Z</time>
      </trkpt>
      <trkpt lat="50.02494" lon="2.03053">
        <ele>38.2</ele>
        <time>2022-04-17T09:22:35Z</time>
      </trkpt>
      <trkpt lat="50.02495" lon="2.03052">
        <ele>38.1</ele>
        <time>2022-04-17T09:22:36Z</time>
      </trkpt>
      <trkpt lat="50.02495" lon="2.03051">
        <ele>38.1</ele>
        <time>2022-04-17T09:22:37Z</time>
      </trkpt>
      <trkpt lat="50.02495" lon="2.0305">
        <ele>38</ele>
        <time>2022-04-17T09:22:38Z</time>
      </trkpt>
      <trkpt lat="50.02495" lon="2.03049">
        <ele>38</ele>
        <time>2022-04-17T09:22:39Z</time>
      </trkpt>
      <trkpt lat="50.02495" lon="2.03048">
        <ele>38</ele>
        <time>2022-04-17T09:22:40Z</time>
      </trkpt>
      <trkpt lat="50.02495" lon="2.03048">
        <ele>38</ele>
        <time>2022-04-17T09:22:41Z</time>
      </trkpt>
      <trkpt lat="50.02495" lon="2.03048">
        <ele>38</ele>
        <time>2022-04-17T09:22:42Z</time>
      </trkpt>
      <trkpt lat="50.02495" lon="2.03049">
        <ele>37.9</ele>
        <time>2022-04-17T09:22:44Z</time>
      </trkpt>
      <trkpt lat="50.02496" lon="2.03049">
        <ele>37.9</ele>
        <time>2022-04-17T09:22:45Z</time>
      </trkpt>
      <trkpt lat="50.02496" lon="2.03049">
        <ele>37.9</ele>
        <time>2022-04-17T09:22:46Z</time>
      </trkpt>
      <trkpt lat="50.02496" lon="2.03048">
        <ele>37.9</ele>
        <time>2022-04-17T09:22:48Z</time>
      </trkpt>
      <trkpt lat="50.02497" lon="2.03048">
        <ele>37.8</ele>
        <time>2022-04-17T09:22:49Z</time>
      </trkpt>
      <trkpt lat="50.02498" lon="2.03046">
        <ele>37.7</ele>
        <time>2022-04-17T09:22:50Z</time>
      </trkpt>
      <trkpt lat="50.02499" lon="2.03045">
        <ele>37.6</ele>
        <time>2022-04-17T09:22:52Z</time>
      </trkpt>
      <trkpt lat="50.025" lon="2.03044">
        <ele>37.5</ele>
        <time>2022-04-17T09:22:53Z</time>
      </trkpt>
      <trkpt lat="50.025" lon="2.03041">
        <ele>37.3</ele>
        <time>2022-04-17T09:22:54Z</time>
      </trkpt>
      <trkpt lat="50.02501" lon="2.0304">
        <ele>37.3</ele>
        <time>2022-04-17T09:22:56Z</time>
      </trkpt>
      <trkpt lat="50.02501" lon="2.03039">
        <ele>37.2</ele>
        <time>2022-04-17T09:22:57Z</time>
      </trkpt>
      <trkpt lat="50.02502" lon="2.03037">
        <ele>37.1</ele>
        <time>2022-04-17T09:22:58Z</time>
      </trkpt>
      <trkpt lat="50.02502" lon="2.03035">
        <ele>37</ele>
        <time>2022-04-17T09:22:59Z</time>
      </trkpt>
      <trkpt lat="50.02502" lon="2.03034">
        <ele>36.9</ele>
        <time>2022-04-17T09:23:00Z</time>
      </trkpt>
      <trkpt lat="50.02503" lon="2.03032">
        <ele>36.8</ele>
        <time>2022-04-17T09:23:01Z</time>
      </trkpt>
      <trkpt lat="50.02503" lon="2.03031">
        <ele>36.7</ele>
        <time>2022-04-17T09:23:02Z</time>
      </trkpt>
      <trkpt lat="50.02502" lon="2.03031">
        <ele>36.7</ele>
        <time>2022-04-17T09:23:03Z</time>
      </trkpt>
      <trkpt lat="50.02502" lon="2.0303">
        <ele>36.6</ele>
        <time>2022-04-17T09:23:04Z</time>
      </trkpt>
      <trkpt lat="50.02503" lon="2.03029">
        <ele>36.6</ele>
        <time>2022-04-17T09:23:05Z</time>
      </trkpt>
      <trkpt lat="50.02503" lon="2.03028">
        <ele>36.5</ele>
        <time>2022-04-17T09:23:06Z</time>
      </trkpt>
      <trkpt lat="50.02502" lon="2.0303">
        <ele>36.4</ele>
        <time>2022-04-17T09:23:07Z</time>
      </trkpt>
      <trkpt lat="50.02502" lon="2.03032">
        <ele>36.3</ele>
        <time>2022-04-17T09:23:09Z</time>
      </trkpt>
      <trkpt lat="50.02503" lon="2.0303">
        <ele>36.2</ele>
        <time>2022-04-17T09:23:10Z</time>
      </trkpt>
      <trkpt lat="50.02503" lon="2.03029">
        <ele>36.1</ele>
        <time>2022-04-17T09:23:11Z</time>
      </trkpt>
      <trkpt lat="50.02504" lon="2.03029">
        <ele>36</ele>
        <time>2022-04-17T09:23:13Z</time>
      </trkpt>
      <trkpt lat="50.02504" lon="2.03029">
        <ele>36</ele>
        <time>2022-04-17T09:23:14Z</time>
      </trkpt>
      <trkpt lat="50.02504" lon="2.03027">
        <ele>35.9</ele>
        <time>2022-04-17T09:23:15Z</time>
      </trkpt>
      <trkpt lat="50.02504" lon="2.03025">
        <ele>35.7</ele>
        <time>2022-04-17T09:23:17Z</time>
      </trkpt>
      <trkpt lat="50.02505" lon="2.03023">
        <ele>35.5</ele>
        <time>2022-04-17T09:23:18Z</time>
      </trkpt>
      <trkpt lat="50.02505" lon="2.03021">
        <ele>35.4</ele>
        <time>2022-04-17T09:23:19Z</time>
      </trkpt>
      <trkpt lat="50.02505" lon="2.03021">
        <ele>35.4</ele>
        <time>2022-04-17T09:23:20Z</time>
      </trkpt>
      <trkpt lat="50.02505" lon="2.0302">
        <ele>35.3</ele>
        <time>2022-04-17T09:23:21Z</time>
      </trkpt>
      <trkpt lat="50.02506" lon="2.0302">
        <ele>35.3</ele>
        <time>2022-04-17T09:23:22Z</time>
      </trkpt>
      <trkpt lat="50.02506" lon="2.03019">
        <ele>35.2</ele>
        <time>2022-04-17T09:23:23Z</time>
      </trkpt>
      <trkpt lat="50.02506" lon="2.03019">
        <ele>35.2</ele>
        <time>2022-04-17T09:23:24Z</time>
      </trkpt>
      <trkpt lat="50.02507" lon="2.03019">
        <ele>35.1</ele>
        <time>2022-04-17T09:23:26Z</time>
      </trkpt>
      <trkpt lat="50.02507" lon="2.03018">
        <ele>35.1</ele>
        <time>2022-04-17T09:23:27Z</time>
      </trkpt>
      <trkpt lat="50.02508" lon="2.03018">
        <ele>35</ele>
        <time>2022-04-17T09:23:28Z</time>
      </trkpt>
      <trkpt lat="50.02508" lon="2.03018">
        <ele>35</ele>
        <time>2022-04-17T09:23:29Z</time>
      </trkpt>
      <trkpt lat="50.02509" lon="2.03017">
        <ele>34.9</ele>
        <time>2022-04-17T09:23:30Z</time>
      </trkpt>
      <trkpt lat="50.0251" lon="2.03017">
        <ele>34.8</ele>
        <time>2022-04-17T09:23:32Z</time>
      </trkpt>
      <trkpt lat="50.02511" lon="2.03016">
        <ele>34.7</ele>
        <time>2022-04-17T09:23:33Z</time>
      </trkpt>
      <trkpt lat="50.02512" lon="2.03016">
        <ele>34.6</ele>
        <time>2022-04-17T09:23:34Z</time>
      </trkpt>
      <trkpt lat="50.02513" lon="2.03015">
        <ele>34.5</ele>
        <time>2022-04-17T09:23:36Z</time>
      </trkpt>
      <trkpt lat="50.02513" lon="2.03014">
        <ele>34.4</ele>
        <time>2022-04-17T09:23:37Z</time>
      </trkpt>
      <trkpt lat="50.02515" lon="2.03013">
        <ele>34.1</ele>
        <time>2022-04-17T09:23:38Z</time>
      </trkpt>
      <trkpt lat="50.02516" lon="2.03012">
        <ele>34</ele>
        <time>2022-04-17T09:23:39Z</time>
      </trkpt>
      <trkpt lat="50.02516" lon="2.03011">
        <ele>34</ele>
        <time>2022-04-17T09:23:40Z</time>
      </trkpt>
      <trkpt lat="50.02517" lon="2.03011">
        <ele>33.8</ele>
        <time>2022-04-17T09:23:42Z</time>
      </trkpt>
      <trkpt lat="50.02518" lon="2.0301">
        <ele>33.7</ele>
        <time>2022-04-17T09:23:43Z</time>
      </trkpt>
      <trkpt lat="50.02519" lon="2.03009">
        <ele>33.6</ele>
        <time>2022-04-17T09:23:44Z</time>
      </trkpt>
      <trkpt lat="50.02519" lon="2.03011">
        <ele>33.5</ele>
        <time>2022-04-17T09:23:45Z</time>
      </trkpt>
      <trkpt lat="50.0252" lon="2.0301">
        <ele>33.4</ele>
        <time>2022-04-17T09:23:46Z</time>
      </trkpt>
      <trkpt lat="50.02521" lon="2.0301">
        <ele>33.3</ele>
        <time>2022-04-17T09:23:47Z</time>
      </trkpt>
      <trkpt lat="50.02522" lon="2.0301">
        <ele>33.2</ele>
        <time>2022-04-17T09:23:49Z</time>
      </trkpt>
      <trkpt lat="50.02523" lon="2.0301">
        <ele>33.1</ele>
        <time>2022-04-17T09:23:50Z</time>
      </trkpt>
      <trkpt lat="50.02524" lon="2.03009">
        <ele>32.9</ele>
        <time>2022-04-17T09:23:51Z</time>
      </trkpt>
      <trkpt lat="50.02525" lon="2.03008">
        <ele>32.8</ele>
        <time>2022-04-17T09:23:52Z</time>
      </trkpt>
      <trkpt lat="50.02526" lon="2.03008">
        <ele>32.7</ele>
        <time>2022-04-17T09:23:53Z</time>
      </trkpt>
      <trkpt lat="50.02527" lon="2.03008">
        <ele>32.6</ele>
        <time>2022-04-17T09:23:54Z</time>
      </trkpt>
      <trkpt lat="50.02527" lon="2.03008">
        <ele>32.5</ele>
        <time>2022-04-17T09:23:55Z</time>
      </trkpt>
      <trkpt lat="50.02528" lon="2.03008">
        <ele>32.4</ele>
        <time>2022-04-17T09:23:56Z</time>
      </trkpt>
      <trkpt lat="50.02529" lon="2.03007">
        <ele>32.3</ele>
        <time>2022-04-17T09:23:57Z</time>
      </trkpt>
      <trkpt lat="50.02531" lon="2.03007">
        <ele>32</ele>
        <time>2022-04-17T09:23:59Z</time>
      </trkpt>
      <trkpt lat="50.02533" lon="2.03006">
        <ele>31.8</ele>
        <time>2022-04-17T09:24:00Z</time>
      </trkpt>
      <trkpt lat="50.02534" lon="2.03005">
        <ele>31.6</ele>
        <time>2022-04-17T09:24:01Z</time>
      </trkpt>
      <trkpt lat="50.02535" lon="2.03004">
        <ele>31.5</ele>
        <time>2022-04-17T09:24:02Z</time>
      </trkpt>
      <trkpt lat="50.02535" lon="2.03004">
        <ele>31.4</ele>
        <time>2022-04-17T09:24:03Z</time>
      </trkpt>
      <trkpt lat="50.02536" lon="2.03003">
        <ele>31.3</ele>
        <time>2022-04-17T09:24:04Z</time>
      </trkpt>
      <trkpt lat="50.02536" lon="2.03003">
        <ele>31.3</ele>
        <time>2022-04-17T09:24:06Z</time>
      </trkpt>
      <trkpt lat="50.02536" lon="2.03002">
        <ele>31.2</ele>
        <time>2022-04-17T09:24:07Z</time>
      </trkpt>
      <trkpt lat="50.02537" lon="2.03001">
        <ele>31.1</ele>
        <time>2022-04-17T09:24:08Z</time>
      </trkpt>
      <trkpt lat="50.02537" lon="2.03001">
        <ele>31.1</ele>
        <time>2022-04-17T09:24:09Z</time>
      </trkpt>
      <trkpt lat="50.02536" lon="2.03001">
        <ele>31.1</ele>
        <time>2022-04-17T09:24:10Z</time>
      </trkpt>
      <trkpt lat="50.02536" lon="2.03001">
        <ele>31</ele>
        <time>2022-04-17T09:24:12Z</time>
      </trkpt>
      <trkpt lat="50.02536" lon="2.03">
        <ele>31</ele>
        <time>2022-04-17T09:24:13Z</time>
      </trkpt>
      <trkpt lat="50.02536" lon="2.03">
        <ele>31</ele>
        <time>2022-04-17T09:24:14Z</time>
      </trkpt>
      <trkpt lat="50.02536" lon="2.03">
        <ele>31</ele>
        <time>2022-04-17T09:24:15Z</time>
      </trkpt>
      <trkpt lat="50.02536" lon="2.03">
        <ele>30.9</ele>
        <time>2022-04-17T09:24:16Z</time>
      </trkpt>
      <trkpt lat="50.02536" lon="2.03">
        <ele>30.9</ele>
        <time>2022-04-17T09:24:17Z</time>
      </trkpt>
      <trkpt lat="50.02535" lon="2.02999">
        <ele>30.9</ele>
        <time>2022-04-17T09:24:18Z</time>
      </trkpt>
      <trkpt lat="50.02535" lon="2.02999">
        <ele>30.8</ele>
        <time>2022-04-17T09:24:20Z</time>
      </trkpt>
      <trkpt lat="50.02535" lon="2.02999">
        <ele>30.8</ele>
        <time>2022-04-17T09:24:21Z</time>
      </trkpt>
      <trkpt lat="50.02535" lon="2.02999">
        <ele>30.8</ele>
        <time>2022-04-17T09:24:22Z</time>
      </trkpt>
      <trkpt lat="50.02535" lon="2.02998">
        <ele>30.7</ele>
        <time>2022-04-17T09:24:23Z</time>
      </trkpt>
      <trkpt lat="50.02535" lon="2.02998">
        <ele>30.7</ele>
        <time>2022-04-17T09:24:24Z</time>
      </trkpt>
      <trkpt lat="50.02535" lon="2.02998">
        <ele>30.7</ele>
        <time>2022-04-17T09:24:26Z</time>
      </trkpt>
      <trkpt lat="50.02535" lon="2.02998">
        <ele>30.7</ele>
        <time>2022-04-17T09:24:27Z</time>
      </trkpt>
      <trkpt lat="50.02534" lon="2.02997">
        <ele>30.6</ele>
        <time>2022-04-17T09:24:28Z</time>
      </trkpt>
      <trkpt lat="50.02534" lon="2.02997">
        <ele>30.6</ele>
        <time>2022-04-17T09:24:29Z</time>
      </trkpt>
      <trkpt lat="50.02531" lon="2.02995">
        <ele>30.1</ele>
        <time>2022-04-17T09:24:31Z</time>
      </trkpt>
      <trkpt lat="50.02531" lon="2.02994">
        <ele>30</ele>
        <time>2022-04-17T09:24:32Z</time>
      </trkpt>
      <trkpt lat="50.02529" lon="2.02994">
        <ele>29.8</ele>
        <time>2022-04-17T09:24:33Z</time>
      </trkpt>
      <trkpt lat="50.02528" lon="2.02994">
        <ele>29.6</ele>
        <time>2022-04-17T09:24:34Z</time>
      </trkpt>
      <trkpt lat="50.02527" lon="2.02994">
        <ele>29.5</ele>
        <time>2022-04-17T09:24:35Z</time>
      </trkpt>
      <trkpt lat="50.02527" lon="2.02993">
        <ele>29.3</ele>
        <time>2022-04-17T09:24:36Z</time>
      </trkpt>
      <trkpt lat="50.02526" lon="2.02993">
        <ele>29.2</ele>
        <time>2022-04-17T09:24:37Z</time>
      </trkpt>
      <trkpt lat="50.02526" lon="2.02993">
        <ele>29.2</ele>
        <time>2022-04-17T09:24:38Z</time>
      </trkpt>
      <trkpt lat="50.02526" lon="2.02993">
        <ele>29.2</ele>
        <time>2022-04-17T09:24:39Z</time>
      </trkpt>
      <trkpt lat="50.02526" lon="2.02993">
        <ele>29.1</ele>
        <time>2022-04-17T09:24:40Z</time>
      </trkpt>
      <trkpt lat="50.02526" lon="2.02994">
        <ele>29</ele>
        <time>2022-04-17T09:24:41Z</time>
      </trkpt>
      <trkpt lat="50.02526" lon="2.02995">
        <ele>28.9</ele>
        <time>2022-04-17T09:24:42Z</time>
      </trkpt>
      <trkpt lat="50.02526" lon="2.02996">
        <ele>28.8</ele>
        <time>2022-04-17T09:24:43Z</time>
      </trkpt>
      <trkpt lat="50.02526" lon="2.02996">
        <ele>28.8</ele>
        <time>2022-04-17T09:24:44Z</time>
      </trkpt>
      <trkpt lat="50.02526" lon="2.02997">
        <ele>28.7</ele>
        <time>2022-04-17T09:24:45Z</time>
      </trkpt>
      <trkpt lat="50.02526" lon="2.02997">
        <ele>28.7</ele>
        <time>2022-04-17T09:24:46Z</time>
      </trkpt>
      <trkpt lat="50.02526" lon="2.02997">
        <ele>28.7</ele>
        <time>2022-04-17T09:24:47Z</time>
      </trkpt>
      <trkpt lat="50.02526" lon="2.02997">
        <ele>28.6</ele>
        <time>2022-04-17T09:24:48Z</time>
      </trkpt>
      <trkpt lat="50.02526" lon="2.02997">
        <ele>28.6</ele>
        <time>2022-04-17T09:24:49Z</time>
      </trkpt>
      <trkpt lat="50.02526" lon="2.02997">
        <ele>28.6</ele>
        <time>2022-04-17T09:24:50Z</time>
      </trkpt>
      <trkpt lat="50.02525" lon="2.02998">
        <ele>28.6</ele>
        <time>2022-04-17T09:24:52Z</time>
      </trkpt>
      <trkpt lat="50.02525" lon="2.02998">
        <ele>28.5</ele>
        <time>2022-04-17T09:24:53Z</time>
      </trkpt>
      <trkpt lat="50.02525" lon="2.02998">
        <ele>28.5</ele>
        <time>2022-04-17T09:24:54Z</time>
      </trkpt>
      <trkpt lat="50.02524" lon="2.02998">
        <ele>28.4</ele>
        <time>2022-04-17T09:24:55Z</time>
      </trkpt>
      <trkpt lat="50.02524" lon="2.02998">
        <ele>28.4</ele>
        <time>2022-04-17T09:24:56Z</time>
      </trkpt>
      <trkpt lat="50.02524" lon="2.02998">
        <ele>28.3</ele>
        <time>2022-04-17T09:24:57Z</time>
      </trkpt>
      <trkpt lat="50.02523" lon="2.02998">
        <ele>28.2</ele>
        <time>2022-04-17T09:24:58Z</time>
      </trkpt>
      <trkpt lat="50.02523" lon="2.02998">
        <ele>28.2</ele>
        <time>2022-04-17T09:24:59Z</time>
      </trkpt>
      <trkpt lat="50.02524" lon="2.02998">
        <ele>28.1</ele>
        <time>2022-04-17T09:25:00Z</time>
      </trkpt>
      <trkpt lat="50.02524" lon="2.02999">
        <ele>28.1</ele>
        <time>2022-04-17T09:25:01Z</time>
      </trkpt>
      <trkpt lat="50.02524" lon="2.02999">
        <ele>28</ele>
        <time>2022-04-17T09:25:02Z</time>
      </trkpt>
      <trkpt lat="50.02524" lon="2.03">
        <ele>28</ele>
        <time>2022-04-17T09:25:03Z</time>
      </trkpt>
      <trkpt lat="50.02524" lon="2.03">
        <ele>27.9</ele>
        <time>2022-04-17T09:25:04Z</time>
      </trkpt>
      <trkpt lat="50.02524" lon="2.03">
        <ele>27.9</ele>
        <time>2022-04-17T09:25:05Z</time>
      </trkpt>
      <trkpt lat="50.02524" lon="2.03">
        <ele>27.9</ele>
        <time>2022-04-17T09:25:07Z</time>
      </trkpt>
      <trkpt lat="50.02524" lon="2.03">
        <ele>27.9</ele>
        <time>2022-04-17T09:25:08Z</time>
      </trkpt>
      <trkpt lat="50.02524" lon="2.02999">
        <ele>27.8</ele>
        <time>2022-04-17T09:25:09Z</time>
      </trkpt>
      <trkpt lat="50.02524" lon="2.02999">
        <ele>27.7</ele>
        <time>2022-04-17T09:25:10Z</time>
      </trkpt>
      <trkpt lat="50.02525" lon="2.02999">
        <ele>27.7</ele>
        <time>2022-04-17T09:25:11Z</time>
      </trkpt>
      <trkpt lat="50.02525" lon="2.02999">
        <ele>27.6</ele>
        <time>2022-04-17T09:25:12Z</time>
      </trkpt>
      <trkpt lat="50.02525" lon="2.02999">
        <ele>27.6</ele>
        <time>2022-04-17T09:25:13Z</time>
      </trkpt>
      <trkpt lat="50.02525" lon="2.02999">
        <ele>27.5</ele>
        <time>2022-04-17T09:25:14Z</time>
      </trkpt>
      <trkpt lat="50.02526" lon="2.03">
        <ele>27.5</ele>
        <time>2022-04-17T09:25:15Z</time>
      </trkpt>
      <trkpt lat="50.02526" lon="2.03">
        <ele>27.4</ele>
        <time>2022-04-17T09:25:16Z</time>
      </trkpt>
      <trkpt lat="50.02526" lon="2.03001">
        <ele>27.3</ele>
        <time>2022-04-17T09:25:18Z</time>
      </trkpt>
      <trkpt lat="50.02526" lon="2.03001">
        <ele>27.3</ele>
        <time>2022-04-17T09:25:20Z</time>
      </trkpt>
      <trkpt lat="50.02526" lon="2.03001">
        <ele>27.2</ele>
        <time>2022-04-17T09:25:21Z</time>
      </trkpt>
      <trkpt lat="50.02525" lon="2.03001">
        <ele>27.2</ele>
        <time>2022-04-17T09:25:22Z</time>
      </trkpt>
      <trkpt lat="50.02525" lon="2.03">
        <ele>27.1</ele>
        <time>2022-04-17T09:25:23Z</time>
      </trkpt>
      <trkpt lat="50.02525" lon="2.03">
        <ele>27</ele>
        <time>2022-04-17T09:25:25Z</time>
      </trkpt>
      <trkpt lat="50.02525" lon="2.02999">
        <ele>27</ele>
        <time>2022-04-17T09:25:26Z</time>
      </trkpt>
      <trkpt lat="50.02525" lon="2.02999">
        <ele>26.9</ele>
        <time>2022-04-17T09:25:27Z</time>
      </trkpt>
      <trkpt lat="50.02525" lon="2.02998">
        <ele>26.8</ele>
        <time>2022-04-17T09:25:28Z</time>
      </trkpt>
      <trkpt lat="50.02525" lon="2.02998">
        <ele>26.7</ele>
        <time>2022-04-17T09:25:29Z</time>
      </trkpt>
      <trkpt lat="50.02525" lon="2.02998">
        <ele>26.7</ele>
        <time>2022-04-17T09:25:31Z</time>
      </trkpt>
      <trkpt lat="50.02524" lon="2.02998">
        <ele>26.7</ele>
        <time>2022-04-17T09:25:32Z</time>
      </trkpt>
      <trkpt lat="50.02523" lon="2.02997">
        <ele>26.5</ele>
        <time>2022-04-17T09:25:34Z</time>
      </trkpt>
      <trkpt lat="50.02523" lon="2.02996">
        <ele>26.3</ele>
        <time>2022-04-17T09:25:35Z</time>
      </trkpt>
      <trkpt lat="50.02523" lon="2.02993">
        <ele>26</ele>
        <time>2022-04-17T09:25:36Z</time>
      </trkpt>
      <trkpt lat="50.02524" lon="2.02992">
        <ele>25.8</ele>
        <time>2022-04-17T09:25:37Z</time>
      </trkpt>
      <trkpt lat="50.02524" lon="2.0299">
        <ele>25.7</ele>
        <time>2022-04-17T09:25:38Z</time>
      </trkpt>
      <trkpt lat="50.02526" lon="2.02986">
        <ele>25.2</ele>
        <time>2022-04-17T09:25:40Z</time>
      </trkpt>
      <trkpt lat="50.02527" lon="2.02985">
        <ele>25</ele>
        <time>2022-04-17T09:25:41Z</time>
      </trkpt>
      <trkpt lat="50.02528" lon="2.02983">
        <ele>24.7</ele>
        <time>2022-04-17T09:25:42Z</time>
      </trkpt>
      <trkpt lat="50.02529" lon="2.02982">
        <ele>24.1</ele>
        <time>2022-04-17T09:25:43Z</time>
      </trkpt>
      <trkpt lat="50.02531" lon="2.0298">
        <ele>23.6</ele>
        <time>2022-04-17T09:25:44Z</time>
      </trkpt>
      <trkpt lat="50.02532" lon="2.02979">
        <ele>23.3</ele>
        <time>2022-04-17T09:25:45Z</time>
      </trkpt>
      <trkpt lat="50.02532" lon="2.02978">
        <ele>23.2</ele>
        <time>2022-04-17T09:25:46Z</time>
      </trkpt>
      <trkpt lat="50.02534" lon="2.02977">
        <ele>22.8</ele>
        <time>2022-04-17T09:25:48Z</time>
      </trkpt>
      <trkpt lat="50.02535" lon="2.02975">
        <ele>22.3</ele>
        <time>2022-04-17T09:25:49Z</time>
      </trkpt>
      <trkpt lat="50.02535" lon="2.02973">
        <ele>22</ele>
        <time>2022-04-17T09:25:50Z</time>
      </trkpt>
      <trkpt lat="50.02535" lon="2.02971">
        <ele>21.7</ele>
        <time>2022-04-17T09:25:51Z</time>
      </trkpt>
      <trkpt lat="50.02536" lon="2.02968">
        <ele>21.3</ele>
        <time>2022-04-17T09:25:53Z</time>
      </trkpt>
      <trkpt lat="50.02536" lon="2.02965">
        <ele>20.9</ele>
        <time>2022-04-17T09:25:54Z</time>
      </trkpt>
      <trkpt lat="50.02536" lon="2.02963">
        <ele>20.6</ele>
        <time>2022-04-17T09:25:55Z</time>
      </trkpt>
      <trkpt lat="50.02537" lon="2.0296">
        <ele>20.2</ele>
        <time>2022-04-17T09:25:57Z</time>
      </trkpt>
      <trkpt lat="50.02537" lon="2.02958">
        <ele>19.8</ele>
        <time>2022-04-17T09:25:58Z</time>
      </trkpt>
      <trkpt lat="50.02538" lon="2.02957">
        <ele>19.6</ele>
        <time>2022-04-17T09:25:59Z</time>
      </trkpt>
      <trkpt lat="50.02539" lon="2.02955">
        <ele>19.2</ele>
        <time>2022-04-17T09:26:01Z</time>
      </trkpt>
      <trkpt lat="50.0254" lon="2.02953">
        <ele>18.9</ele>
        <time>2022-04-17T09:26:02Z</time>
      </trkpt>
      <trkpt lat="50.02541" lon="2.02952">
        <ele>18.7</ele>
        <time>2022-04-17T09:26:03Z</time>
      </trkpt>
      <trkpt lat="50.02541" lon="2.02951">
        <ele>18.6</ele>
        <time>2022-04-17T09:26:04Z</time>
      </trkpt>
      <trkpt lat="50.02542" lon="2.0295">
        <ele>18.5</ele>
        <time>2022-04-17T09:26:05Z</time>
      </trkpt>
      <trkpt lat="50.02542" lon="2.02949">
        <ele>18.3</ele>
        <time>2022-04-17T09:26:06Z</time>
      </trkpt>
      <trkpt lat="50.02543" lon="2.02947">
        <ele>18</ele>
        <time>2022-04-17T09:26:08Z</time>
      </trkpt>
      <trkpt lat="50.02544" lon="2.02945">
        <ele>17.8</ele>
        <time>2022-04-17T09:26:09Z</time>
      </trkpt>
      <trkpt lat="50.02544" lon="2.02944">
        <ele>17.6</ele>
        <time>2022-04-17T09:26:10Z</time>
      </trkpt>
      <trkpt lat="50.02545" lon="2.02943">
        <ele>17.4</ele>
        <time>2022-04-17T09:26:11Z</time>
      </trkpt>
      <trkpt lat="50.02545" lon="2.02942">
        <ele>17.2</ele>
        <time>2022-04-17T09:26:12Z</time>
      </trkpt>
      <trkpt lat="50.02546" lon="2.02941">
        <ele>17.2</ele>
        <time>2022-04-17T09:26:13Z</time>
      </trkpt>
      <trkpt lat="50.02545" lon="2.02941">
        <ele>16.9</ele>
        <time>2022-04-17T09:26:15Z</time>
      </trkpt>
      <trkpt lat="50.02545" lon="2.02941">
        <ele>16.9</ele>
        <time>2022-04-17T09:26:16Z</time>
      </trkpt>
      <trkpt lat="50.02544" lon="2.0294">
        <ele>16.8</ele>
        <time>2022-04-17T09:26:17Z</time>
      </trkpt>
      <trkpt lat="50.02543" lon="2.02939">
        <ele>16.8</ele>
        <time>2022-04-17T09:26:18Z</time>
      </trkpt>
      <trkpt lat="50.02541" lon="2.02939">
        <ele>16.7</ele>
        <time>2022-04-17T09:26:19Z</time>
      </trkpt>
      <trkpt lat="50.0254" lon="2.02938">
        <ele>16.7</ele>
        <time>2022-04-17T09:26:21Z</time>
      </trkpt>
      <trkpt lat="50.02539" lon="2.02938">
        <ele>16.6</ele>
        <time>2022-04-17T09:26:22Z</time>
      </trkpt>
      <trkpt lat="50.02538" lon="2.02941">
        <ele>16.6</ele>
        <time>2022-04-17T09:26:23Z</time>
      </trkpt>
      <trkpt lat="50.02537" lon="2.02941">
        <ele>16.5</ele>
        <time>2022-04-17T09:26:25Z</time>
      </trkpt>
      <trkpt lat="50.02536" lon="2.0294">
        <ele>16.5</ele>
        <time>2022-04-17T09:26:26Z</time>
      </trkpt>
      <trkpt lat="50.02536" lon="2.02938">
        <ele>16.5</ele>
        <time>2022-04-17T09:26:27Z</time>
      </trkpt>
      <trkpt lat="50.02536" lon="2.02936">
        <ele>16.4</ele>
        <time>2022-04-17T09:26:28Z</time>
      </trkpt>
      <trkpt lat="50.02537" lon="2.02935">
        <ele>16.4</ele>
        <time>2022-04-17T09:26:29Z</time>
      </trkpt>
      <trkpt lat="50.02537" lon="2.02934">
        <ele>16.4</ele>
        <time>2022-04-17T09:26:30Z</time>
      </trkpt>
      <trkpt lat="50.02538" lon="2.02932">
        <ele>16.3</ele>
        <time>2022-04-17T09:26:31Z</time>
      </trkpt>
      <trkpt lat="50.02539" lon="2.0293">
        <ele>16.3</ele>
        <time>2022-04-17T09:26:33Z</time>
      </trkpt>
      <trkpt lat="50.02539" lon="2.02927">
        <ele>16.2</ele>
        <time>2022-04-17T09:26:34Z</time>
      </trkpt>
      <trkpt lat="50.02539" lon="2.02923">
        <ele>14.3</ele>
        <time>2022-04-17T09:26:35Z</time>
      </trkpt>
      <trkpt lat="50.02538" lon="2.02922">
        <ele>14.2</ele>
        <time>2022-04-17T09:26:36Z</time>
      </trkpt>
      <trkpt lat="50.02538" lon="2.02917">
        <ele>14</ele>
        <time>2022-04-17T09:26:37Z</time>
      </trkpt>
      <trkpt lat="50.02538" lon="2.02916">
        <ele>14</ele>
        <time>2022-04-17T09:26:38Z</time>
      </trkpt>
      <trkpt lat="50.02537" lon="2.02915">
        <ele>13.9</ele>
        <time>2022-04-17T09:26:40Z</time>
      </trkpt>
      <trkpt lat="50.02536" lon="2.02914">
        <ele>13.9</ele>
        <time>2022-04-17T09:26:41Z</time>
      </trkpt>
      <trkpt lat="50.02535" lon="2.02913">
        <ele>13.8</ele>
        <time>2022-04-17T09:26:42Z</time>
      </trkpt>
      <trkpt lat="50.02535" lon="2.02911">
        <ele>13.7</ele>
        <time>2022-04-17T09:26:43Z</time>
      </trkpt>
      <trkpt lat="50.02536" lon="2.0291">
        <ele>13.7</ele>
        <time>2022-04-17T09:26:44Z</time>
      </trkpt>
      <trkpt lat="50.02537" lon="2.02908">
        <ele>13.6</ele>
        <time>2022-04-17T09:26:45Z</time>
      </trkpt>
      <trkpt lat="50.02539" lon="2.02908">
        <ele>13.4</ele>
        <time>2022-04-17T09:26:46Z</time>
      </trkpt>
      <trkpt lat="50.0254" lon="2.02908">
        <ele>13.4</ele>
        <time>2022-04-17T09:26:48Z</time>
      </trkpt>
      <trkpt lat="50.02541" lon="2.02908">
        <ele>13.3</ele>
        <time>2022-04-17T09:26:49Z</time>
      </trkpt>
      <trkpt lat="50.02542" lon="2.02908">
        <ele>13.3</ele>
        <time>2022-04-17T09:26:50Z</time>
      </trkpt>
      <trkpt lat="50.02544" lon="2.02908">
        <ele>13.2</ele>
        <time>2022-04-17T09:26:51Z</time>
      </trkpt>
      <trkpt lat="50.02544" lon="2.02907">
        <ele>13.2</ele>
        <time>2022-04-17T09:26:52Z</time>
      </trkpt>
      <trkpt lat="50.02545" lon="2.02907">
        <ele>13.1</ele>
        <time>2022-04-17T09:26:53Z</time>
      </trkpt>
      <trkpt lat="50.02546" lon="2.02906">
        <ele>13.1</ele>
        <time>2022-04-17T09:26:54Z</time>
      </trkpt>
      <trkpt lat="50.02548" lon="2.02906">
        <ele>13</ele>
        <time>2022-04-17T09:26:55Z</time>
      </trkpt>
      <trkpt lat="50.02548" lon="2.02905">
        <ele>12.9</ele>
        <time>2022-04-17T09:26:57Z</time>
      </trkpt>
      <trkpt lat="50.02549" lon="2.02905">
        <ele>12.9</ele>
        <time>2022-04-17T09:26:58Z</time>
      </trkpt>
      <trkpt lat="50.0255" lon="2.02905">
        <ele>12.9</ele>
        <time>2022-04-17T09:26:59Z</time>
      </trkpt>
      <trkpt lat="50.02551" lon="2.02904">
        <ele>12.8</ele>
        <time>2022-04-17T09:27:00Z</time>
      </trkpt>
      <trkpt lat="50.02551" lon="2.02904">
        <ele>12.8</ele>
        <time>2022-04-17T09:27:01Z</time>
      </trkpt>
      <trkpt lat="50.02552" lon="2.02903">
        <ele>12.8</ele>
        <time>2022-04-17T09:27:02Z</time>
      </trkpt>
      <trkpt lat="50.02552" lon="2.02902">
        <ele>12.8</ele>
        <time>2022-04-17T09:27:03Z</time>
      </trkpt>
      <trkpt lat="50.02553" lon="2.02901">
        <ele>12.7</ele>
        <time>2022-04-17T09:27:04Z</time>
      </trkpt>
      <trkpt lat="50.02553" lon="2.029">
        <ele>12.7</ele>
        <time>2022-04-17T09:27:06Z</time>
      </trkpt>
      <trkpt lat="50.02554" lon="2.02899">
        <ele>12.6</ele>
        <time>2022-04-17T09:27:07Z</time>
      </trkpt>
      <trkpt lat="50.02555" lon="2.02896">
        <ele>12.6</ele>
        <time>2022-04-17T09:27:08Z</time>
      </trkpt>
      <trkpt lat="50.02556" lon="2.02895">
        <ele>12.5</ele>
        <time>2022-04-17T09:27:09Z</time>
      </trkpt>
      <trkpt lat="50.02556" lon="2.02894">
        <ele>12.5</ele>
        <time>2022-04-17T09:27:10Z</time>
      </trkpt>
      <trkpt lat="50.02557" lon="2.02891">
        <ele>12.4</ele>
        <time>2022-04-17T09:27:11Z</time>
      </trkpt>
      <trkpt lat="50.02558" lon="2.0289">
        <ele>12.4</ele>
        <time>2022-04-17T09:27:12Z</time>
      </trkpt>
      <trkpt lat="50.02558" lon="2.02889">
        <ele>12.4</ele>
        <time>2022-04-17T09:27:13Z</time>
      </trkpt>
      <trkpt lat="50.02558" lon="2.02888">
        <ele>12.3</ele>
        <time>2022-04-17T09:27:14Z</time>
      </trkpt>
      <trkpt lat="50.02559" lon="2.02886">
        <ele>12.3</ele>
        <time>2022-04-17T09:27:16Z</time>
      </trkpt>
      <trkpt lat="50.0256" lon="2.02885">
        <ele>12.3</ele>
        <time>2022-04-17T09:27:17Z</time>
      </trkpt>
      <trkpt lat="50.0256" lon="2.02884">
        <ele>12.2</ele>
        <time>2022-04-17T09:27:18Z</time>
      </trkpt>
      <trkpt lat="50.02562" lon="2.02883">
        <ele>12.2</ele>
        <time>2022-04-17T09:27:19Z</time>
      </trkpt>
      <trkpt lat="50.02563" lon="2.02882">
        <ele>12.2</ele>
        <time>2022-04-17T09:27:20Z</time>
      </trkpt>
      <trkpt lat="50.02564" lon="2.02881">
        <ele>12.1</ele>
        <time>2022-04-17T09:27:21Z</time>
      </trkpt>
      <trkpt lat="50.02565" lon="2.0288">
        <ele>12.1</ele>
        <time>2022-04-17T09:27:22Z</time>
      </trkpt>
      <trkpt lat="50.02566" lon="2.02879">
        <ele>12</ele>
        <time>2022-04-17T09:27:23Z</time>
      </trkpt>
      <trkpt lat="50.02567" lon="2.02877">
        <ele>12</ele>
        <time>2022-04-17T09:27:25Z</time>
      </trkpt>
      <trkpt lat="50.02568" lon="2.02876">
        <ele>12</ele>
        <time>2022-04-17T09:27:26Z</time>
      </trkpt>
      <trkpt lat="50.02569" lon="2.02876">
        <ele>11.9</ele>
        <time>2022-04-17T09:27:27Z</time>
      </trkpt>
      <trkpt lat="50.02569" lon="2.02875">
        <ele>11.9</ele>
        <time>2022-04-17T09:27:28Z</time>
      </trkpt>
      <trkpt lat="50.0257" lon="2.02874">
        <ele>11.9</ele>
        <time>2022-04-17T09:27:29Z</time>
      </trkpt>
      <trkpt lat="50.02571" lon="2.02873">
        <ele>11.9</ele>
        <time>2022-04-17T09:27:30Z</time>
      </trkpt>
      <trkpt lat="50.02572" lon="2.02872">
        <ele>11.8</ele>
        <time>2022-04-17T09:27:31Z</time>
      </trkpt>
      <trkpt lat="50.02573" lon="2.02871">
        <ele>11.8</ele>
        <time>2022-04-17T09:27:32Z</time>
      </trkpt>
      <trkpt lat="50.02574" lon="2.0287">
        <ele>11.8</ele>
        <time>2022-04-17T09:27:34Z</time>
      </trkpt>
      <trkpt lat="50.02576" lon="2.02868">
        <ele>11.7</ele>
        <time>2022-04-17T09:27:35Z</time>
      </trkpt>
      <trkpt lat="50.02576" lon="2.02867">
        <ele>11.7</ele>
        <time>2022-04-17T09:27:36Z</time>
      </trkpt>
      <trkpt lat="50.02577" lon="2.02867">
        <ele>11.7</ele>
        <time>2022-04-17T09:27:37Z</time>
      </trkpt>
      <trkpt lat="50.02579" lon="2.02865">
        <ele>11.6</ele>
        <time>2022-04-17T09:27:38Z</time>
      </trkpt>
      <trkpt lat="50.02579" lon="2.02864">
        <ele>11.6</ele>
        <time>2022-04-17T09:27:39Z</time>
      </trkpt>
      <trkpt lat="50.0258" lon="2.02863">
        <ele>11.6</ele>
        <time>2022-04-17T09:27:40Z</time>
      </trkpt>
      <trkpt lat="50.02582" lon="2.02861">
        <ele>11.6</ele>
        <time>2022-04-17T09:27:42Z</time>
      </trkpt>
      <trkpt lat="50.02583" lon="2.0286">
        <ele>11.5</ele>
        <time>2022-04-17T09:27:43Z</time>
      </trkpt>
      <trkpt lat="50.02584" lon="2.02859">
        <ele>11.5</ele>
        <time>2022-04-17T09:27:44Z</time>
      </trkpt>
      <trkpt lat="50.02585" lon="2.02858">
        <ele>11.5</ele>
        <time>2022-04-17T09:27:45Z</time>
      </trkpt>
      <trkpt lat="50.02586" lon="2.02857">
        <ele>11.5</ele>
        <time>2022-04-17T09:27:46Z</time>
      </trkpt>
      <trkpt lat="50.02587" lon="2.02856">
        <ele>11.4</ele>
        <time>2022-04-17T09:27:47Z</time>
      </trkpt>
      <trkpt lat="50.02587" lon="2.02854">
        <ele>11.4</ele>
        <time>2022-04-17T09:27:49Z</time>
      </trkpt>
      <trkpt lat="50.02589" lon="2.02853">
        <ele>11.4</ele>
        <time>2022-04-17T09:27:50Z</time>
      </trkpt>
      <trkpt lat="50.0259" lon="2.02851">
        <ele>11.4</ele>
        <time>2022-04-17T09:27:51Z</time>
      </trkpt>
      <trkpt lat="50.0259" lon="2.02849">
        <ele>11.3</ele>
        <time>2022-04-17T09:27:53Z</time>
      </trkpt>
      <trkpt lat="50.0259" lon="2.02847">
        <ele>11.3</ele>
        <time>2022-04-17T09:27:54Z</time>
      </trkpt>
      <trkpt lat="50.0259" lon="2.02846">
        <ele>11.3</ele>
        <time>2022-04-17T09:27:55Z</time>
      </trkpt>
      <trkpt lat="50.02591" lon="2.02845">
        <ele>11.3</ele>
        <time>2022-04-17T09:27:56Z</time>
      </trkpt>
      <trkpt lat="50.02592" lon="2.02845">
        <ele>11.3</ele>
        <time>2022-04-17T09:27:57Z</time>
      </trkpt>
      <trkpt lat="50.02593" lon="2.02844">
        <ele>11.2</ele>
        <time>2022-04-17T09:27:58Z</time>
      </trkpt>
      <trkpt lat="50.02595" lon="2.02843">
        <ele>11.2</ele>
        <time>2022-04-17T09:27:59Z</time>
      </trkpt>
      <trkpt lat="50.02596" lon="2.02842">
        <ele>11.2</ele>
        <time>2022-04-17T09:28:01Z</time>
      </trkpt>
      <trkpt lat="50.02596" lon="2.02842">
        <ele>11.2</ele>
        <time>2022-04-17T09:28:02Z</time>
      </trkpt>
      <trkpt lat="50.02597" lon="2.02841">
        <ele>11.1</ele>
        <time>2022-04-17T09:28:03Z</time>
      </trkpt>
      <trkpt lat="50.02598" lon="2.02839">
        <ele>11.1</ele>
        <time>2022-04-17T09:28:04Z</time>
      </trkpt>
      <trkpt lat="50.02599" lon="2.02839">
        <ele>11.1</ele>
        <time>2022-04-17T09:28:05Z</time>
      </trkpt>
      <trkpt lat="50.02601" lon="2.02837">
        <ele>11.1</ele>
        <time>2022-04-17T09:28:06Z</time>
      </trkpt>
      <trkpt lat="50.02601" lon="2.02836">
        <ele>11.1</ele>
        <time>2022-04-17T09:28:07Z</time>
      </trkpt>
      <trkpt lat="50.02602" lon="2.02834">
        <ele>11.1</ele>
        <time>2022-04-17T09:28:09Z</time>
      </trkpt>
      <trkpt lat="50.02603" lon="2.02833">
        <ele>11</ele>
        <time>2022-04-17T09:28:10Z</time>
      </trkpt>
      <trkpt lat="50.02604" lon="2.02832">
        <ele>11</ele>
        <time>2022-04-17T09:28:11Z</time>
      </trkpt>
      <trkpt lat="50.02604" lon="2.02831">
        <ele>11</ele>
        <time>2022-04-17T09:28:12Z</time>
      </trkpt>
      <trkpt lat="50.02605" lon="2.0283">
        <ele>11</ele>
        <time>2022-04-17T09:28:13Z</time>
      </trkpt>
      <trkpt lat="50.02606" lon="2.02829">
        <ele>11</ele>
        <time>2022-04-17T09:28:14Z</time>
      </trkpt>
      <trkpt lat="50.02607" lon="2.02827">
        <ele>11</ele>
        <time>2022-04-17T09:28:15Z</time>
      </trkpt>
      <trkpt lat="50.02608" lon="2.02826">
        <ele>11</ele>
        <time>2022-04-17T09:28:16Z</time>
      </trkpt>
      <trkpt lat="50.02608" lon="2.02825">
        <ele>10.9</ele>
        <time>2022-04-17T09:28:17Z</time>
      </trkpt>
      <trkpt lat="50.02609" lon="2.02824">
        <ele>10.9</ele>
        <time>2022-04-17T09:28:19Z</time>
      </trkpt>
      <trkpt lat="50.0261" lon="2.02822">
        <ele>10.9</ele>
        <time>2022-04-17T09:28:20Z</time>
      </trkpt>
      <trkpt lat="50.02611" lon="2.02821">
        <ele>10.9</ele>
        <time>2022-04-17T09:28:21Z</time>
      </trkpt>
      <trkpt lat="50.02612" lon="2.0282">
        <ele>10.9</ele>
        <time>2022-04-17T09:28:22Z</time>
      </trkpt>
      <trkpt lat="50.02613" lon="2.02818">
        <ele>10.9</ele>
        <time>2022-04-17T09:28:23Z</time>
      </trkpt>
      <trkpt lat="50.02613" lon="2.02817">
        <ele>10.9</ele>
        <time>2022-04-17T09:28:24Z</time>
      </trkpt>
      <trkpt lat="50.02614" lon="2.02816">
        <ele>10.9</ele>
        <time>2022-04-17T09:28:26Z</time>
      </trkpt>
      <trkpt lat="50.02614" lon="2.02814">
        <ele>10.9</ele>
        <time>2022-04-17T09:28:27Z</time>
      </trkpt>
      <trkpt lat="50.02615" lon="2.02813">
        <ele>10.9</ele>
        <time>2022-04-17T09:28:28Z</time>
      </trkpt>
      <trkpt lat="50.02615" lon="2.02812">
        <ele>10.9</ele>
        <time>2022-04-17T09:28:29Z</time>
      </trkpt>
      <trkpt lat="50.02616" lon="2.0281">
        <ele>10.9</ele>
        <time>2022-04-17T09:28:30Z</time>
      </trkpt>
      <trkpt lat="50.02617" lon="2.02809">
        <ele>10.9</ele>
        <time>2022-04-17T09:28:31Z</time>
      </trkpt>
      <trkpt lat="50.02619" lon="2.02808">
        <ele>10.9</ele>
        <time>2022-04-17T09:28:33Z</time>
      </trkpt>
      <trkpt lat="50.0262" lon="2.02807">
        <ele>10.9</ele>
        <time>2022-04-17T09:28:34Z</time>
      </trkpt>
      <trkpt lat="50.02621" lon="2.02807">
        <ele>10.9</ele>
        <time>2022-04-17T09:28:35Z</time>
      </trkpt>
      <trkpt lat="50.02622" lon="2.02806">
        <ele>10.9</ele>
        <time>2022-04-17T09:28:36Z</time>
      </trkpt>
      <trkpt lat="50.02623" lon="2.02805">
        <ele>10.9</ele>
        <time>2022-04-17T09:28:37Z</time>
      </trkpt>
      <trkpt lat="50.02623" lon="2.02804">
        <ele>10.9</ele>
        <time>2022-04-17T09:28:39Z</time>
      </trkpt>
      <trkpt lat="50.02624" lon="2.02803">
        <ele>10.9</ele>
        <time>2022-04-17T09:28:40Z</time>
      </trkpt>
      <trkpt lat="50.02625" lon="2.02801">
        <ele>11</ele>
        <time>2022-04-17T09:28:41Z</time>
      </trkpt>
      <trkpt lat="50.02626" lon="2.028">
        <ele>11</ele>
        <time>2022-04-17T09:28:42Z</time>
      </trkpt>
      <trkpt lat="50.02627" lon="2.02799">
        <ele>11</ele>
        <time>2022-04-17T09:28:43Z</time>
      </trkpt>
      <trkpt lat="50.02627" lon="2.02798">
        <ele>11</ele>
        <time>2022-04-17T09:28:44Z</time>
      </trkpt>
      <trkpt lat="50.02628" lon="2.02796">
        <ele>11</ele>
        <time>2022-04-17T09:28:45Z</time>
      </trkpt>
      <trkpt lat="50.02629" lon="2.02795">
        <ele>11.1</ele>
        <time>2022-04-17T09:28:46Z</time>
      </trkpt>
      <trkpt lat="50.02629" lon="2.02794">
        <ele>11.1</ele>
        <time>2022-04-17T09:28:47Z</time>
      </trkpt>
      <trkpt lat="50.0263" lon="2.02793">
        <ele>11.1</ele>
        <time>2022-04-17T09:28:48Z</time>
      </trkpt>
      <trkpt lat="50.02631" lon="2.02791">
        <ele>11.1</ele>
        <time>2022-04-17T09:28:49Z</time>
      </trkpt>
      <trkpt lat="50.02631" lon="2.0279">
        <ele>11.1</ele>
        <time>2022-04-17T09:28:50Z</time>
      </trkpt>
      <trkpt lat="50.02632" lon="2.02789">
        <ele>11.1</ele>
        <time>2022-04-17T09:28:51Z</time>
      </trkpt>
      <trkpt lat="50.02633" lon="2.02787">
        <ele>11.2</ele>
        <time>2022-04-17T09:28:52Z</time>
      </trkpt>
      <trkpt lat="50.02634" lon="2.02785">
        <ele>11.2</ele>
        <time>2022-04-17T09:28:53Z</time>
      </trkpt>
      <trkpt lat="50.02635" lon="2.02784">
        <ele>11.2</ele>
        <time>2022-04-17T09:28:55Z</time>
      </trkpt>
      <trkpt lat="50.02635" lon="2.02783">
        <ele>11.3</ele>
        <time>2022-04-17T09:28:56Z</time>
      </trkpt>
      <trkpt lat="50.02637" lon="2.0278">
        <ele>11.3</ele>
        <time>2022-04-17T09:28:57Z</time>
      </trkpt>
      <trkpt lat="50.02637" lon="2.02779">
        <ele>11.4</ele>
        <time>2022-04-17T09:28:58Z</time>
      </trkpt>
      <trkpt lat="50.02637" lon="2.02778">
        <ele>11.4</ele>
        <time>2022-04-17T09:28:59Z</time>
      </trkpt>
      <trkpt lat="50.02639" lon="2.02776">
        <ele>11.4</ele>
        <time>2022-04-17T09:29:00Z</time>
      </trkpt>
      <trkpt lat="50.0264" lon="2.02775">
        <ele>11.5</ele>
        <time>2022-04-17T09:29:02Z</time>
      </trkpt>
      <trkpt lat="50.0264" lon="2.02774">
        <ele>11.5</ele>
        <time>2022-04-17T09:29:03Z</time>
      </trkpt>
      <trkpt lat="50.02641" lon="2.02772">
        <ele>11.5</ele>
        <time>2022-04-17T09:29:04Z</time>
      </trkpt>
      <trkpt lat="50.02642" lon="2.02771">
        <ele>11.6</ele>
        <time>2022-04-17T09:29:05Z</time>
      </trkpt>
      <trkpt lat="50.02644" lon="2.02769">
        <ele>11.7</ele>
        <time>2022-04-17T09:29:06Z</time>
      </trkpt>
      <trkpt lat="50.02645" lon="2.02768">
        <ele>11.7</ele>
        <time>2022-04-17T09:29:08Z</time>
      </trkpt>
      <trkpt lat="50.02645" lon="2.02767">
        <ele>11.7</ele>
        <time>2022-04-17T09:29:09Z</time>
      </trkpt>
      <trkpt lat="50.02646" lon="2.02766">
        <ele>11.8</ele>
        <time>2022-04-17T09:29:10Z</time>
      </trkpt>
      <trkpt lat="50.02647" lon="2.02765">
        <ele>11.8</ele>
        <time>2022-04-17T09:29:11Z</time>
      </trkpt>
      <trkpt lat="50.02648" lon="2.02764">
        <ele>11.9</ele>
        <time>2022-04-17T09:29:12Z</time>
      </trkpt>
      <trkpt lat="50.02649" lon="2.02763">
        <ele>11.9</ele>
        <time>2022-04-17T09:29:13Z</time>
      </trkpt>
      <trkpt lat="50.0265" lon="2.02762">
        <ele>12</ele>
        <time>2022-04-17T09:29:14Z</time>
      </trkpt>
      <trkpt lat="50.0265" lon="2.02761">
        <ele>12</ele>
        <time>2022-04-17T09:29:15Z</time>
      </trkpt>
      <trkpt lat="50.02651" lon="2.0276">
        <ele>12.1</ele>
        <time>2022-04-17T09:29:16Z</time>
      </trkpt>
      <trkpt lat="50.02652" lon="2.02758">
        <ele>12.1</ele>
        <time>2022-04-17T09:29:17Z</time>
      </trkpt>
      <trkpt lat="50.02653" lon="2.02757">
        <ele>12.2</ele>
        <time>2022-04-17T09:29:18Z</time>
      </trkpt>
      <trkpt lat="50.02653" lon="2.02756">
        <ele>12.2</ele>
        <time>2022-04-17T09:29:19Z</time>
      </trkpt>
      <trkpt lat="50.02654" lon="2.02755">
        <ele>12.3</ele>
        <time>2022-04-17T09:29:20Z</time>
      </trkpt>
      <trkpt lat="50.02654" lon="2.02754">
        <ele>12.3</ele>
        <time>2022-04-17T09:29:21Z</time>
      </trkpt>
      <trkpt lat="50.02655" lon="2.02752">
        <ele>12.3</ele>
        <time>2022-04-17T09:29:22Z</time>
      </trkpt>
      <trkpt lat="50.02656" lon="2.02751">
        <ele>12.4</ele>
        <time>2022-04-17T09:29:23Z</time>
      </trkpt>
      <trkpt lat="50.02656" lon="2.0275">
        <ele>12.5</ele>
        <time>2022-04-17T09:29:24Z</time>
      </trkpt>
      <trkpt lat="50.02657" lon="2.02748">
        <ele>12.5</ele>
        <time>2022-04-17T09:29:26Z</time>
      </trkpt>
      <trkpt lat="50.02658" lon="2.02746">
        <ele>12.6</ele>
        <time>2022-04-17T09:29:27Z</time>
      </trkpt>
      <trkpt lat="50.02659" lon="2.02745">
        <ele>12.6</ele>
        <time>2022-04-17T09:29:28Z</time>
      </trkpt>
      <trkpt lat="50.02659" lon="2.02744">
        <ele>12.7</ele>
        <time>2022-04-17T09:29:29Z</time>
      </trkpt>
      <trkpt lat="50.0266" lon="2.02743">
        <ele>12.7</ele>
        <time>2022-04-17T09:29:30Z</time>
      </trkpt>
      <trkpt lat="50.02661" lon="2.0274">
        <ele>12.8</ele>
        <time>2022-04-17T09:29:31Z</time>
      </trkpt>
      <trkpt lat="50.02662" lon="2.0274">
        <ele>12.9</ele>
        <time>2022-04-17T09:29:33Z</time>
      </trkpt>
      <trkpt lat="50.02663" lon="2.02739">
        <ele>12.9</ele>
        <time>2022-04-17T09:29:34Z</time>
      </trkpt>
      <trkpt lat="50.02664" lon="2.02737">
        <ele>13</ele>
        <time>2022-04-17T09:29:35Z</time>
      </trkpt>
      <trkpt lat="50.02665" lon="2.02736">
        <ele>13</ele>
        <time>2022-04-17T09:29:36Z</time>
      </trkpt>
      <trkpt lat="50.02665" lon="2.02735">
        <ele>13.1</ele>
        <time>2022-04-17T09:29:37Z</time>
      </trkpt>
      <trkpt lat="50.02666" lon="2.02733">
        <ele>13.1</ele>
        <time>2022-04-17T09:29:38Z</time>
      </trkpt>
      <trkpt lat="50.02666" lon="2.02731">
        <ele>13.2</ele>
        <time>2022-04-17T09:29:39Z</time>
      </trkpt>
      <trkpt lat="50.02667" lon="2.0273">
        <ele>13.2</ele>
        <time>2022-04-17T09:29:41Z</time>
      </trkpt>
      <trkpt lat="50.02667" lon="2.02728">
        <ele>13.3</ele>
        <time>2022-04-17T09:29:42Z</time>
      </trkpt>
      <trkpt lat="50.02668" lon="2.02726">
        <ele>13.3</ele>
        <time>2022-04-17T09:29:43Z</time>
      </trkpt>
      <trkpt lat="50.02668" lon="2.02725">
        <ele>13.4</ele>
        <time>2022-04-17T09:29:44Z</time>
      </trkpt>
      <trkpt lat="50.02668" lon="2.02722">
        <ele>13.5</ele>
        <time>2022-04-17T09:29:45Z</time>
      </trkpt>
      <trkpt lat="50.02668" lon="2.0272">
        <ele>13.5</ele>
        <time>2022-04-17T09:29:46Z</time>
      </trkpt>
      <trkpt lat="50.02669" lon="2.02718">
        <ele>13.6</ele>
        <time>2022-04-17T09:29:48Z</time>
      </trkpt>
      <trkpt lat="50.02669" lon="2.02717">
        <ele>13.6</ele>
        <time>2022-04-17T09:29:49Z</time>
      </trkpt>
      <trkpt lat="50.02669" lon="2.02715">
        <ele>13.7</ele>
        <time>2022-04-17T09:29:50Z</time>
      </trkpt>
      <trkpt lat="50.02669" lon="2.02714">
        <ele>13.7</ele>
        <time>2022-04-17T09:29:51Z</time>
      </trkpt>
      <trkpt lat="50.02669" lon="2.02711">
        <ele>13.8</ele>
        <time>2022-04-17T09:29:52Z</time>
      </trkpt>
      <trkpt lat="50.02669" lon="2.0271">
        <ele>13.8</ele>
        <time>2022-04-17T09:29:53Z</time>
      </trkpt>
      <trkpt lat="50.02669" lon="2.02708">
        <ele>13.9</ele>
        <time>2022-04-17T09:29:55Z</time>
      </trkpt>
      <trkpt lat="50.02669" lon="2.02706">
        <ele>14</ele>
        <time>2022-04-17T09:29:56Z</time>
      </trkpt>
      <trkpt lat="50.02669" lon="2.02704">
        <ele>14</ele>
        <time>2022-04-17T09:29:57Z</time>
      </trkpt>
      <trkpt lat="50.0267" lon="2.02702">
        <ele>14</ele>
        <time>2022-04-17T09:29:58Z</time>
      </trkpt>
      <trkpt lat="50.0267" lon="2.02701">
        <ele>14.1</ele>
        <time>2022-04-17T09:30:00Z</time>
      </trkpt>
      <trkpt lat="50.02671" lon="2.02701">
        <ele>14.1</ele>
        <time>2022-04-17T09:30:01Z</time>
      </trkpt>
      <trkpt lat="50.02673" lon="2.027">
        <ele>14.2</ele>
        <time>2022-04-17T09:30:02Z</time>
      </trkpt>
      <trkpt lat="50.02674" lon="2.02699">
        <ele>14.2</ele>
        <time>2022-04-17T09:30:04Z</time>
      </trkpt>
      <trkpt lat="50.02674" lon="2.02699">
        <ele>14.3</ele>
        <time>2022-04-17T09:30:05Z</time>
      </trkpt>
      <trkpt lat="50.02674" lon="2.02698">
        <ele>14.3</ele>
        <time>2022-04-17T09:30:06Z</time>
      </trkpt>
      <trkpt lat="50.02674" lon="2.02697">
        <ele>14.3</ele>
        <time>2022-04-17T09:30:07Z</time>
      </trkpt>
      <trkpt lat="50.02674" lon="2.02697">
        <ele>14.3</ele>
        <time>2022-04-17T09:30:08Z</time>
      </trkpt>
      <trkpt lat="50.02674" lon="2.02696">
        <ele>14.3</ele>
        <time>2022-04-17T09:30:10Z</time>
      </trkpt>
      <trkpt lat="50.02674" lon="2.02696">
        <ele>14.3</ele>
        <time>2022-04-17T09:30:11Z</time>
      </trkpt>
      <trkpt lat="50.02674" lon="2.02697">
        <ele>14.3</ele>
        <time>2022-04-17T09:30:12Z</time>
      </trkpt>
      <trkpt lat="50.02674" lon="2.02697">
        <ele>14.3</ele>
        <time>2022-04-17T09:30:13Z</time>
      </trkpt>
      <trkpt lat="50.02674" lon="2.02697">
        <ele>14.3</ele>
        <time>2022-04-17T09:30:15Z</time>
      </trkpt>
      <trkpt lat="50.02674" lon="2.02697">
        <ele>14.3</ele>
        <time>2022-04-17T09:30:16Z</time>
      </trkpt>
      <trkpt lat="50.02674" lon="2.02697">
        <ele>14.3</ele>
        <time>2022-04-17T09:30:17Z</time>
      </trkpt>
      <trkpt lat="50.02674" lon="2.02697">
        <ele>14.3</ele>
        <time>2022-04-17T09:30:18Z</time>
      </trkpt>
      <trkpt lat="50.02674" lon="2.02697">
        <ele>14.4</ele>
        <time>2022-04-17T09:30:20Z</time>
      </trkpt>
      <trkpt lat="50.02674" lon="2.02697">
        <ele>14.4</ele>
        <time>2022-04-17T09:30:21Z</time>
      </trkpt>
      <trkpt lat="50.02674" lon="2.02697">
        <ele>14.4</ele>
        <time>2022-04-17T09:30:22Z</time>
      </trkpt>
      <trkpt lat="50.02674" lon="2.02697">
        <ele>14.4</ele>
        <time>2022-04-17T09:30:23Z</time>
      </trkpt>
      <trkpt lat="50.02674" lon="2.02697">
        <ele>14.4</ele>
        <time>2022-04-17T09:30:24Z</time>
      </trkpt>
      <trkpt lat="50.02674" lon="2.02697">
        <ele>14.4</ele>
        <time>2022-04-17T09:30:25Z</time>
      </trkpt>
      <trkpt lat="50.02674" lon="2.02698">
        <ele>14.4</ele>
        <time>2022-04-17T09:30:27Z</time>
      </trkpt>
      <trkpt lat="50.02673" lon="2.02698">
        <ele>14.4</ele>
        <time>2022-04-17T09:30:28Z</time>
      </trkpt>
      <trkpt lat="50.02673" lon="2.02698">
        <ele>14.4</ele>
        <time>2022-04-17T09:30:29Z</time>
      </trkpt>
      <trkpt lat="50.02673" lon="2.02698">
        <ele>14.4</ele>
        <time>2022-04-17T09:30:30Z</time>
      </trkpt>
      <trkpt lat="50.02673" lon="2.02698">
        <ele>14.4</ele>
        <time>2022-04-17T09:30:31Z</time>
      </trkpt>
      <trkpt lat="50.02673" lon="2.02698">
        <ele>14.4</ele>
        <time>2022-04-17T09:30:32Z</time>
      </trkpt>
      <trkpt lat="50.02673" lon="2.02698">
        <ele>14.4</ele>
        <time>2022-04-17T09:30:33Z</time>
      </trkpt>
      <trkpt lat="50.02673" lon="2.02698">
        <ele>14.4</ele>
        <time>2022-04-17T09:30:34Z</time>
      </trkpt>
      <trkpt lat="50.02673" lon="2.02698">
        <ele>14.4</ele>
        <time>2022-04-17T09:30:35Z</time>
      </trkpt>
      <trkpt lat="50.02673" lon="2.02698">
        <ele>14.4</ele>
        <time>2022-04-17T09:30:36Z</time>
      </trkpt>
      <trkpt lat="50.02673" lon="2.02698">
        <ele>14.4</ele>
        <time>2022-04-17T09:30:37Z</time>
      </trkpt>
      <trkpt lat="50.02673" lon="2.02698">
        <ele>14.4</ele>
        <time>2022-04-17T09:30:38Z</time>
      </trkpt>
      <trkpt lat="50.02673" lon="2.02698">
        <ele>14.4</ele>
        <time>2022-04-17T09:30:39Z</time>
      </trkpt>
      <trkpt lat="50.02673" lon="2.02699">
        <ele>14.4</ele>
        <time>2022-04-17T09:30:40Z</time>
      </trkpt>
      <trkpt lat="50.02673" lon="2.027">
        <ele>14.5</ele>
        <time>2022-04-17T09:30:41Z</time>
      </trkpt>
      <trkpt lat="50.02673" lon="2.02698">
        <ele>14.5</ele>
        <time>2022-04-17T09:30:43Z</time>
      </trkpt>
      <trkpt lat="50.02673" lon="2.02697">
        <ele>14.5</ele>
        <time>2022-04-17T09:30:44Z</time>
      </trkpt>
      <trkpt lat="50.02672" lon="2.02697">
        <ele>14.5</ele>
        <time>2022-04-17T09:30:45Z</time>
      </trkpt>
      <trkpt lat="50.02671" lon="2.02697">
        <ele>14.6</ele>
        <time>2022-04-17T09:30:46Z</time>
      </trkpt>
      <trkpt lat="50.0267" lon="2.02696">
        <ele>14.6</ele>
        <time>2022-04-17T09:30:47Z</time>
      </trkpt>
      <trkpt lat="50.02669" lon="2.02695">
        <ele>14.6</ele>
        <time>2022-04-17T09:30:48Z</time>
      </trkpt>
      <trkpt lat="50.02668" lon="2.02694">
        <ele>14.7</ele>
        <time>2022-04-17T09:30:49Z</time>
      </trkpt>
      <trkpt lat="50.02668" lon="2.02693">
        <ele>14.7</ele>
        <time>2022-04-17T09:30:50Z</time>
      </trkpt>
      <trkpt lat="50.02667" lon="2.02691">
        <ele>14.8</ele>
        <time>2022-04-17T09:30:51Z</time>
      </trkpt>
      <trkpt lat="50.02666" lon="2.0269">
        <ele>14.8</ele>
        <time>2022-04-17T09:30:52Z</time>
      </trkpt>
      <trkpt lat="50.02665" lon="2.02687">
        <ele>14.9</ele>
        <time>2022-04-17T09:30:54Z</time>
      </trkpt>
      <trkpt lat="50.02664" lon="2.02685">
        <ele>14.9</ele>
        <time>2022-04-17T09:30:55Z</time>
      </trkpt>
      <trkpt lat="50.02664" lon="2.02683">
        <ele>15</ele>
        <time>2022-04-17T09:30:56Z</time>
      </trkpt>
      <trkpt lat="50.02664" lon="2.02681">
        <ele>15</ele>
        <time>2022-04-17T09:30:57Z</time>
      </trkpt>
      <trkpt lat="50.02663" lon="2.0268">
        <ele>15</ele>
        <time>2022-04-17T09:30:58Z</time>
      </trkpt>
      <trkpt lat="50.02664" lon="2.02677">
        <ele>15.1</ele>
        <time>2022-04-17T09:31:00Z</time>
      </trkpt>
      <trkpt lat="50.02665" lon="2.02676">
        <ele>15.1</ele>
        <time>2022-04-17T09:31:01Z</time>
      </trkpt>
      <trkpt lat="50.02665" lon="2.02675">
        <ele>15.1</ele>
        <time>2022-04-17T09:31:02Z</time>
      </trkpt>
      <trkpt lat="50.02665" lon="2.02673">
        <ele>15.2</ele>
        <time>2022-04-17T09:31:03Z</time>
      </trkpt>
      <trkpt lat="50.02665" lon="2.02671">
        <ele>15.2</ele>
        <time>2022-04-17T09:31:04Z</time>
      </trkpt>
      <trkpt lat="50.02664" lon="2.02669">
        <ele>15.3</ele>
        <time>2022-04-17T09:31:05Z</time>
      </trkpt>
      <trkpt lat="50.02664" lon="2.02668">
        <ele>15.3</ele>
        <time>2022-04-17T09:31:06Z</time>
      </trkpt>
      <trkpt lat="50.02664" lon="2.02666">
        <ele>15.3</ele>
        <time>2022-04-17T09:31:07Z</time>
      </trkpt>
      <trkpt lat="50.02665" lon="2.02664">
        <ele>15.4</ele>
        <time>2022-04-17T09:31:09Z</time>
      </trkpt>
      <trkpt lat="50.02665" lon="2.02661">
        <ele>15.4</ele>
        <time>2022-04-17T09:31:10Z</time>
      </trkpt>
      <trkpt lat="50.02664" lon="2.02659">
        <ele>15.5</ele>
        <time>2022-04-17T09:31:11Z</time>
      </trkpt>
      <trkpt lat="50.02664" lon="2.02656">
        <ele>15.5</ele>
        <time>2022-04-17T09:31:12Z</time>
      </trkpt>
      <trkpt lat="50.02664" lon="2.02654">
        <ele>15.6</ele>
        <time>2022-04-17T09:31:13Z</time>
      </trkpt>
      <trkpt lat="50.02664" lon="2.0265">
        <ele>15.6</ele>
        <time>2022-04-17T09:31:14Z</time>
      </trkpt>
      <trkpt lat="50.02665" lon="2.02649">
        <ele>15.7</ele>
        <time>2022-04-17T09:31:16Z</time>
      </trkpt>
      <trkpt lat="50.02665" lon="2.02648">
        <ele>15.7</ele>
        <time>2022-04-17T09:31:17Z</time>
      </trkpt>
      <trkpt lat="50.02665" lon="2.02646">
        <ele>15.7</ele>
        <time>2022-04-17T09:31:18Z</time>
      </trkpt>
      <trkpt lat="50.02665" lon="2.02644">
        <ele>15.8</ele>
        <time>2022-04-17T09:31:19Z</time>
      </trkpt>
      <trkpt lat="50.02665" lon="2.02642">
        <ele>15.8</ele>
        <time>2022-04-17T09:31:20Z</time>
      </trkpt>
      <trkpt lat="50.02665" lon="2.02641">
        <ele>15.8</ele>
        <time>2022-04-17T09:31:21Z</time>
      </trkpt>
      <trkpt lat="50.02666" lon="2.02639">
        <ele>15.8</ele>
        <time>2022-04-17T09:31:22Z</time>
      </trkpt>
      <trkpt lat="50.02666" lon="2.02638">
        <ele>15.9</ele>
        <time>2022-04-17T09:31:23Z</time>
      </trkpt>
      <trkpt lat="50.02666" lon="2.02636">
        <ele>15.9</ele>
        <time>2022-04-17T09:31:24Z</time>
      </trkpt>
      <trkpt lat="50.02666" lon="2.02634">
        <ele>15.9</ele>
        <time>2022-04-17T09:31:25Z</time>
      </trkpt>
      <trkpt lat="50.02667" lon="2.02633">
        <ele>16</ele>
        <time>2022-04-17T09:31:26Z</time>
      </trkpt>
      <trkpt lat="50.02667" lon="2.02631">
        <ele>16</ele>
        <time>2022-04-17T09:31:27Z</time>
      </trkpt>
      <trkpt lat="50.02667" lon="2.0263">
        <ele>16</ele>
        <time>2022-04-17T09:31:28Z</time>
      </trkpt>
      <trkpt lat="50.02667" lon="2.02628">
        <ele>16</ele>
        <time>2022-04-17T09:31:29Z</time>
      </trkpt>
      <trkpt lat="50.02668" lon="2.02627">
        <ele>16.1</ele>
        <time>2022-04-17T09:31:30Z</time>
      </trkpt>
      <trkpt lat="50.02668" lon="2.02625">
        <ele>16.1</ele>
        <time>2022-04-17T09:31:31Z</time>
      </trkpt>
      <trkpt lat="50.02668" lon="2.02624">
        <ele>16.1</ele>
        <time>2022-04-17T09:31:32Z</time>
      </trkpt>
      <trkpt lat="50.02669" lon="2.02621">
        <ele>16.2</ele>
        <time>2022-04-17T09:31:34Z</time>
      </trkpt>
      <trkpt lat="50.0267" lon="2.0262">
        <ele>16.2</ele>
        <time>2022-04-17T09:31:35Z</time>
      </trkpt>
      <trkpt lat="50.0267" lon="2.02619">
        <ele>16.3</ele>
        <time>2022-04-17T09:31:36Z</time>
      </trkpt>
      <trkpt lat="50.02671" lon="2.02618">
        <ele>16.3</ele>
        <time>2022-04-17T09:31:37Z</time>
      </trkpt>
      <trkpt lat="50.02672" lon="2.02617">
        <ele>16.4</ele>
        <time>2022-04-17T09:31:38Z</time>
      </trkpt>
      <trkpt lat="50.02673" lon="2.02616">
        <ele>16.5</ele>
        <time>2022-04-17T09:31:40Z</time>
      </trkpt>
      <trkpt lat="50.02675" lon="2.02614">
        <ele>16.6</ele>
        <time>2022-04-17T09:31:41Z</time>
      </trkpt>
      <trkpt lat="50.02676" lon="2.02613">
        <ele>16.6</ele>
        <time>2022-04-17T09:31:42Z</time>
      </trkpt>
      <trkpt lat="50.02676" lon="2.02612">
        <ele>16.6</ele>
        <time>2022-04-17T09:31:43Z</time>
      </trkpt>
      <trkpt lat="50.02677" lon="2.02611">
        <ele>16.7</ele>
        <time>2022-04-17T09:31:44Z</time>
      </trkpt>
      <trkpt lat="50.02678" lon="2.0261">
        <ele>16.7</ele>
        <time>2022-04-17T09:31:45Z</time>
      </trkpt>
      <trkpt lat="50.02679" lon="2.02609">
        <ele>16.8</ele>
        <time>2022-04-17T09:31:46Z</time>
      </trkpt>
      <trkpt lat="50.02679" lon="2.02608">
        <ele>16.8</ele>
        <time>2022-04-17T09:31:47Z</time>
      </trkpt>
      <trkpt lat="50.0268" lon="2.02607">
        <ele>16.9</ele>
        <time>2022-04-17T09:31:48Z</time>
      </trkpt>
      <trkpt lat="50.02681" lon="2.02606">
        <ele>16.9</ele>
        <time>2022-04-17T09:31:49Z</time>
      </trkpt>
      <trkpt lat="50.02682" lon="2.02605">
        <ele>17</ele>
        <time>2022-04-17T09:31:51Z</time>
      </trkpt>
      <trkpt lat="50.02683" lon="2.02605">
        <ele>17.1</ele>
        <time>2022-04-17T09:31:52Z</time>
      </trkpt>
      <trkpt lat="50.02684" lon="2.02604">
        <ele>17.1</ele>
        <time>2022-04-17T09:31:53Z</time>
      </trkpt>
      <trkpt lat="50.02685" lon="2.02604">
        <ele>17.2</ele>
        <time>2022-04-17T09:31:54Z</time>
      </trkpt>
      <trkpt lat="50.02686" lon="2.02604">
        <ele>17.2</ele>
        <time>2022-04-17T09:31:55Z</time>
      </trkpt>
      <trkpt lat="50.02687" lon="2.02604">
        <ele>17.3</ele>
        <time>2022-04-17T09:31:56Z</time>
      </trkpt>
      <trkpt lat="50.02689" lon="2.02604">
        <ele>17.3</ele>
        <time>2022-04-17T09:31:58Z</time>
      </trkpt>
      <trkpt lat="50.0269" lon="2.02603">
        <ele>17.4</ele>
        <time>2022-04-17T09:31:59Z</time>
      </trkpt>
      <trkpt lat="50.02691" lon="2.02603">
        <ele>17.4</ele>
        <time>2022-04-17T09:32:00Z</time>
      </trkpt>
      <trkpt lat="50.02691" lon="2.02602">
        <ele>17.5</ele>
        <time>2022-04-17T09:32:01Z</time>
      </trkpt>
      <trkpt lat="50.02692" lon="2.02601">
        <ele>17.5</ele>
        <time>2022-04-17T09:32:03Z</time>
      </trkpt>
      <trkpt lat="50.02693" lon="2.026">
        <ele>17.6</ele>
        <time>2022-04-17T09:32:04Z</time>
      </trkpt>
      <trkpt lat="50.02694" lon="2.02599">
        <ele>17.6</ele>
        <time>2022-04-17T09:32:05Z</time>
      </trkpt>
      <trkpt lat="50.02695" lon="2.02598">
        <ele>17.7</ele>
        <time>2022-04-17T09:32:06Z</time>
      </trkpt>
      <trkpt lat="50.02696" lon="2.02597">
        <ele>17.7</ele>
        <time>2022-04-17T09:32:07Z</time>
      </trkpt>
      <trkpt lat="50.02697" lon="2.02596">
        <ele>17.8</ele>
        <time>2022-04-17T09:32:08Z</time>
      </trkpt>
      <trkpt lat="50.02698" lon="2.02596">
        <ele>17.8</ele>
        <time>2022-04-17T09:32:09Z</time>
      </trkpt>
      <trkpt lat="50.02698" lon="2.02595">
        <ele>17.9</ele>
        <time>2022-04-17T09:32:10Z</time>
      </trkpt>
      <trkpt lat="50.02699" lon="2.02594">
        <ele>17.9</ele>
        <time>2022-04-17T09:32:11Z</time>
      </trkpt>
      <trkpt lat="50.027" lon="2.02593">
        <ele>18</ele>
        <time>2022-04-17T09:32:13Z</time>
      </trkpt>
      <trkpt lat="50.02701" lon="2.02592">
        <ele>18</ele>
        <time>2022-04-17T09:32:14Z</time>
      </trkpt>
      <trkpt lat="50.02702" lon="2.02592">
        <ele>18.1</ele>
        <time>2022-04-17T09:32:15Z</time>
      </trkpt>
      <trkpt lat="50.02703" lon="2.02591">
        <ele>18.1</ele>
        <time>2022-04-17T09:32:16Z</time>
      </trkpt>
      <trkpt lat="50.02704" lon="2.0259">
        <ele>18.2</ele>
        <time>2022-04-17T09:32:17Z</time>
      </trkpt>
      <trkpt lat="50.02704" lon="2.02589">
        <ele>18.2</ele>
        <time>2022-04-17T09:32:18Z</time>
      </trkpt>
      <trkpt lat="50.02705" lon="2.02589">
        <ele>18.3</ele>
        <time>2022-04-17T09:32:19Z</time>
      </trkpt>
      <trkpt lat="50.02706" lon="2.02588">
        <ele>18.3</ele>
        <time>2022-04-17T09:32:20Z</time>
      </trkpt>
      <trkpt lat="50.02707" lon="2.02588">
        <ele>18.4</ele>
        <time>2022-04-17T09:32:21Z</time>
      </trkpt>
      <trkpt lat="50.02708" lon="2.02587">
        <ele>18.4</ele>
        <time>2022-04-17T09:32:22Z</time>
      </trkpt>
      <trkpt lat="50.02709" lon="2.02586">
        <ele>18.5</ele>
        <time>2022-04-17T09:32:23Z</time>
      </trkpt>
      <trkpt lat="50.0271" lon="2.02586">
        <ele>18.5</ele>
        <time>2022-04-17T09:32:24Z</time>
      </trkpt>
      <trkpt lat="50.0271" lon="2.02585">
        <ele>18.6</ele>
        <time>2022-04-17T09:32:25Z</time>
      </trkpt>
      <trkpt lat="50.02711" lon="2.02585">
        <ele>18.6</ele>
        <time>2022-04-17T09:32:26Z</time>
      </trkpt>
      <trkpt lat="50.02713" lon="2.02583">
        <ele>18.7</ele>
        <time>2022-04-17T09:32:28Z</time>
      </trkpt>
      <trkpt lat="50.02714" lon="2.02583">
        <ele>18.8</ele>
        <time>2022-04-17T09:32:29Z</time>
      </trkpt>
      <trkpt lat="50.02715" lon="2.02582">
        <ele>18.9</ele>
        <time>2022-04-17T09:32:30Z</time>
      </trkpt>
      <trkpt lat="50.02716" lon="2.02581">
        <ele>18.9</ele>
        <time>2022-04-17T09:32:31Z</time>
      </trkpt>
      <trkpt lat="50.02717" lon="2.0258">
        <ele>19</ele>
        <time>2022-04-17T09:32:32Z</time>
      </trkpt>
      <trkpt lat="50.02718" lon="2.0258">
        <ele>19</ele>
        <time>2022-04-17T09:32:33Z</time>
      </trkpt>
      <trkpt lat="50.02718" lon="2.02579">
        <ele>19.1</ele>
        <time>2022-04-17T09:32:34Z</time>
      </trkpt>
      <trkpt lat="50.02719" lon="2.02579">
        <ele>19.2</ele>
        <time>2022-04-17T09:32:35Z</time>
      </trkpt>
      <trkpt lat="50.0272" lon="2.02578">
        <ele>19.2</ele>
        <time>2022-04-17T09:32:36Z</time>
      </trkpt>
      <trkpt lat="50.02721" lon="2.02577">
        <ele>19.3</ele>
        <time>2022-04-17T09:32:37Z</time>
      </trkpt>
      <trkpt lat="50.02722" lon="2.02577">
        <ele>19.3</ele>
        <time>2022-04-17T09:32:38Z</time>
      </trkpt>
      <trkpt lat="50.02723" lon="2.02576">
        <ele>19.4</ele>
        <time>2022-04-17T09:32:39Z</time>
      </trkpt>
      <trkpt lat="50.02724" lon="2.02575">
        <ele>19.4</ele>
        <time>2022-04-17T09:32:40Z</time>
      </trkpt>
      <trkpt lat="50.02725" lon="2.02575">
        <ele>19.5</ele>
        <time>2022-04-17T09:32:42Z</time>
      </trkpt>
      <trkpt lat="50.02726" lon="2.02574">
        <ele>19.6</ele>
        <time>2022-04-17T09:32:43Z</time>
      </trkpt>
      <trkpt lat="50.02727" lon="2.02574">
        <ele>19.7</ele>
        <time>2022-04-17T09:32:44Z</time>
      </trkpt>
      <trkpt lat="50.02728" lon="2.02573">
        <ele>19.7</ele>
        <time>2022-04-17T09:32:45Z</time>
      </trkpt>
      <trkpt lat="50.02729" lon="2.02573">
        <ele>19.8</ele>
        <time>2022-04-17T09:32:46Z</time>
      </trkpt>
      <trkpt lat="50.0273" lon="2.02572">
        <ele>19.8</ele>
        <time>2022-04-17T09:32:47Z</time>
      </trkpt>
      <trkpt lat="50.0273" lon="2.02571">
        <ele>19.9</ele>
        <time>2022-04-17T09:32:48Z</time>
      </trkpt>
      <trkpt lat="50.02731" lon="2.0257">
        <ele>20</ele>
        <time>2022-04-17T09:32:49Z</time>
      </trkpt>
      <trkpt lat="50.02732" lon="2.02569">
        <ele>20</ele>
        <time>2022-04-17T09:32:50Z</time>
      </trkpt>
      <trkpt lat="50.02733" lon="2.02568">
        <ele>20.1</ele>
        <time>2022-04-17T09:32:51Z</time>
      </trkpt>
      <trkpt lat="50.02733" lon="2.02568">
        <ele>20.1</ele>
        <time>2022-04-17T09:32:52Z</time>
      </trkpt>
      <trkpt lat="50.02734" lon="2.02567">
        <ele>20.2</ele>
        <time>2022-04-17T09:32:53Z</time>
      </trkpt>
      <trkpt lat="50.02735" lon="2.02566">
        <ele>20.3</ele>
        <time>2022-04-17T09:32:54Z</time>
      </trkpt>
      <trkpt lat="50.02736" lon="2.02565">
        <ele>20.3</ele>
        <time>2022-04-17T09:32:55Z</time>
      </trkpt>
      <trkpt lat="50.02736" lon="2.02564">
        <ele>20.4</ele>
        <time>2022-04-17T09:32:56Z</time>
      </trkpt>
      <trkpt lat="50.02738" lon="2.02563">
        <ele>20.5</ele>
        <time>2022-04-17T09:32:58Z</time>
      </trkpt>
      <trkpt lat="50.02739" lon="2.02561">
        <ele>20.6</ele>
        <time>2022-04-17T09:32:59Z</time>
      </trkpt>
      <trkpt lat="50.0274" lon="2.0256">
        <ele>20.7</ele>
        <time>2022-04-17T09:33:00Z</time>
      </trkpt>
      <trkpt lat="50.0274" lon="2.02559">
        <ele>20.7</ele>
        <time>2022-04-17T09:33:01Z</time>
      </trkpt>
      <trkpt lat="50.02741" lon="2.02558">
        <ele>20.8</ele>
        <time>2022-04-17T09:33:02Z</time>
      </trkpt>
      <trkpt lat="50.02742" lon="2.02556">
        <ele>20.9</ele>
        <time>2022-04-17T09:33:03Z</time>
      </trkpt>
      <trkpt lat="50.02742" lon="2.02555">
        <ele>20.9</ele>
        <time>2022-04-17T09:33:05Z</time>
      </trkpt>
      <trkpt lat="50.02743" lon="2.02553">
        <ele>21</ele>
        <time>2022-04-17T09:33:06Z</time>
      </trkpt>
      <trkpt lat="50.02744" lon="2.02551">
        <ele>21.1</ele>
        <time>2022-04-17T09:33:07Z</time>
      </trkpt>
      <trkpt lat="50.02744" lon="2.0255">
        <ele>21.2</ele>
        <time>2022-04-17T09:33:08Z</time>
      </trkpt>
      <trkpt lat="50.02744" lon="2.02548">
        <ele>21.3</ele>
        <time>2022-04-17T09:33:09Z</time>
      </trkpt>
      <trkpt lat="50.02744" lon="2.02546">
        <ele>21.4</ele>
        <time>2022-04-17T09:33:10Z</time>
      </trkpt>
      <trkpt lat="50.02744" lon="2.02544">
        <ele>21.5</ele>
        <time>2022-04-17T09:33:12Z</time>
      </trkpt>
      <trkpt lat="50.02743" lon="2.02542">
        <ele>21.6</ele>
        <time>2022-04-17T09:33:13Z</time>
      </trkpt>
      <trkpt lat="50.02743" lon="2.02539">
        <ele>21.7</ele>
        <time>2022-04-17T09:33:14Z</time>
      </trkpt>
      <trkpt lat="50.02742" lon="2.02536">
        <ele>21.8</ele>
        <time>2022-04-17T09:33:16Z</time>
      </trkpt>
      <trkpt lat="50.02741" lon="2.02535">
        <ele>21.9</ele>
        <time>2022-04-17T09:33:17Z</time>
      </trkpt>
      <trkpt lat="50.02741" lon="2.02534">
        <ele>21.9</ele>
        <time>2022-04-17T09:33:18Z</time>
      </trkpt>
      <trkpt lat="50.02741" lon="2.02531">
        <ele>22.1</ele>
        <time>2022-04-17T09:33:19Z</time>
      </trkpt>
      <trkpt lat="50.0274" lon="2.02529">
        <ele>22.2</ele>
        <time>2022-04-17T09:33:21Z</time>
      </trkpt>
      <trkpt lat="50.0274" lon="2.02528">
        <ele>22.2</ele>
        <time>2022-04-17T09:33:22Z</time>
      </trkpt>
      <trkpt lat="50.0274" lon="2.02524">
        <ele>22.4</ele>
        <time>2022-04-17T09:33:23Z</time>
      </trkpt>
      <trkpt lat="50.0274" lon="2.02523">
        <ele>22.4</ele>
        <time>2022-04-17T09:33:24Z</time>
      </trkpt>
      <trkpt lat="50.0274" lon="2.02522">
        <ele>22.5</ele>
        <time>2022-04-17T09:33:25Z</time>
      </trkpt>
      <trkpt lat="50.0274" lon="2.02519">
        <ele>22.6</ele>
        <time>2022-04-17T09:33:26Z</time>
      </trkpt>
      <trkpt lat="50.0274" lon="2.02517">
        <ele>22.7</ele>
        <time>2022-04-17T09:33:28Z</time>
      </trkpt>
      <trkpt lat="50.0274" lon="2.02516">
        <ele>22.7</ele>
        <time>2022-04-17T09:33:29Z</time>
      </trkpt>
      <trkpt lat="50.0274" lon="2.02514">
        <ele>22.8</ele>
        <time>2022-04-17T09:33:30Z</time>
      </trkpt>
      <trkpt lat="50.0274" lon="2.02512">
        <ele>22.9</ele>
        <time>2022-04-17T09:33:31Z</time>
      </trkpt>
      <trkpt lat="50.0274" lon="2.0251">
        <ele>23</ele>
        <time>2022-04-17T09:33:33Z</time>
      </trkpt>
      <trkpt lat="50.0274" lon="2.02507">
        <ele>23.2</ele>
        <time>2022-04-17T09:33:34Z</time>
      </trkpt>
      <trkpt lat="50.0274" lon="2.02506">
        <ele>23.2</ele>
        <time>2022-04-17T09:33:35Z</time>
      </trkpt>
      <trkpt lat="50.0274" lon="2.02504">
        <ele>23.3</ele>
        <time>2022-04-17T09:33:36Z</time>
      </trkpt>
      <trkpt lat="50.0274" lon="2.02503">
        <ele>23.3</ele>
        <time>2022-04-17T09:33:37Z</time>
      </trkpt>
      <trkpt lat="50.0274" lon="2.02501">
        <ele>23.4</ele>
        <time>2022-04-17T09:33:38Z</time>
      </trkpt>
      <trkpt lat="50.0274" lon="2.025">
        <ele>23.4</ele>
        <time>2022-04-17T09:33:39Z</time>
      </trkpt>
      <trkpt lat="50.0274" lon="2.02498">
        <ele>23.5</ele>
        <time>2022-04-17T09:33:41Z</time>
      </trkpt>
      <trkpt lat="50.0274" lon="2.02497">
        <ele>23.6</ele>
        <time>2022-04-17T09:33:42Z</time>
      </trkpt>
      <trkpt lat="50.02739" lon="2.02496">
        <ele>23.7</ele>
        <time>2022-04-17T09:33:43Z</time>
      </trkpt>
      <trkpt lat="50.02738" lon="2.02494">
        <ele>23.8</ele>
        <time>2022-04-17T09:33:44Z</time>
      </trkpt>
      <trkpt lat="50.02737" lon="2.02493">
        <ele>23.8</ele>
        <time>2022-04-17T09:33:45Z</time>
      </trkpt>
      <trkpt lat="50.02737" lon="2.02493">
        <ele>23.9</ele>
        <time>2022-04-17T09:33:46Z</time>
      </trkpt>
      <trkpt lat="50.02735" lon="2.02491">
        <ele>24</ele>
        <time>2022-04-17T09:33:48Z</time>
      </trkpt>
      <trkpt lat="50.02735" lon="2.0249">
        <ele>24.1</ele>
        <time>2022-04-17T09:33:49Z</time>
      </trkpt>
      <trkpt lat="50.02734" lon="2.02489">
        <ele>24.2</ele>
        <time>2022-04-17T09:33:50Z</time>
      </trkpt>
      <trkpt lat="50.02733" lon="2.02488">
        <ele>24.2</ele>
        <time>2022-04-17T09:33:51Z</time>
      </trkpt>
      <trkpt lat="50.02732" lon="2.02487">
        <ele>24.3</ele>
        <time>2022-04-17T09:33:52Z</time>
      </trkpt>
      <trkpt lat="50.02732" lon="2.02486">
        <ele>24.4</ele>
        <time>2022-04-17T09:33:54Z</time>
      </trkpt>
      <trkpt lat="50.02731" lon="2.02485">
        <ele>24.4</ele>
        <time>2022-04-17T09:33:55Z</time>
      </trkpt>
      <trkpt lat="50.0273" lon="2.02484">
        <ele>24.5</ele>
        <time>2022-04-17T09:33:56Z</time>
      </trkpt>
      <trkpt lat="50.02729" lon="2.02484">
        <ele>24.5</ele>
        <time>2022-04-17T09:33:58Z</time>
      </trkpt>
      <trkpt lat="50.02729" lon="2.02483">
        <ele>24.6</ele>
        <time>2022-04-17T09:33:59Z</time>
      </trkpt>
      <trkpt lat="50.02728" lon="2.02482">
        <ele>24.6</ele>
        <time>2022-04-17T09:34:00Z</time>
      </trkpt>
      <trkpt lat="50.02728" lon="2.02482">
        <ele>24.7</ele>
        <time>2022-04-17T09:34:01Z</time>
      </trkpt>
      <trkpt lat="50.02727" lon="2.02482">
        <ele>24.7</ele>
        <time>2022-04-17T09:34:02Z</time>
      </trkpt>
      <trkpt lat="50.02727" lon="2.02482">
        <ele>24.8</ele>
        <time>2022-04-17T09:34:04Z</time>
      </trkpt>
      <trkpt lat="50.02726" lon="2.02481">
        <ele>24.8</ele>
        <time>2022-04-17T09:34:05Z</time>
      </trkpt>
      <trkpt lat="50.02725" lon="2.02481">
        <ele>24.9</ele>
        <time>2022-04-17T09:34:06Z</time>
      </trkpt>
      <trkpt lat="50.02725" lon="2.0248">
        <ele>24.9</ele>
        <time>2022-04-17T09:34:07Z</time>
      </trkpt>
      <trkpt lat="50.02724" lon="2.02479">
        <ele>25</ele>
        <time>2022-04-17T09:34:09Z</time>
      </trkpt>
      <trkpt lat="50.02723" lon="2.02478">
        <ele>25.1</ele>
        <time>2022-04-17T09:34:10Z</time>
      </trkpt>
      <trkpt lat="50.02722" lon="2.02476">
        <ele>25.2</ele>
        <time>2022-04-17T09:34:11Z</time>
      </trkpt>
      <trkpt lat="50.02721" lon="2.02476">
        <ele>25.2</ele>
        <time>2022-04-17T09:34:12Z</time>
      </trkpt>
      <trkpt lat="50.02721" lon="2.02475">
        <ele>25.3</ele>
        <time>2022-04-17T09:34:13Z</time>
      </trkpt>
      <trkpt lat="50.0272" lon="2.02474">
        <ele>25.3</ele>
        <time>2022-04-17T09:34:14Z</time>
      </trkpt>
      <trkpt lat="50.02719" lon="2.02474">
        <ele>25.4</ele>
        <time>2022-04-17T09:34:15Z</time>
      </trkpt>
      <trkpt lat="50.02718" lon="2.02472">
        <ele>25.5</ele>
        <time>2022-04-17T09:34:17Z</time>
      </trkpt>
      <trkpt lat="50.02718" lon="2.02471">
        <ele>25.5</ele>
        <time>2022-04-17T09:34:18Z</time>
      </trkpt>
      <trkpt lat="50.02717" lon="2.0247">
        <ele>25.6</ele>
        <time>2022-04-17T09:34:19Z</time>
      </trkpt>
      <trkpt lat="50.02716" lon="2.02469">
        <ele>25.7</ele>
        <time>2022-04-17T09:34:20Z</time>
      </trkpt>
      <trkpt lat="50.02714" lon="2.02468">
        <ele>25.8</ele>
        <time>2022-04-17T09:34:22Z</time>
      </trkpt>
      <trkpt lat="50.02713" lon="2.02466">
        <ele>25.9</ele>
        <time>2022-04-17T09:34:23Z</time>
      </trkpt>
      <trkpt lat="50.02712" lon="2.02465">
        <ele>26</ele>
        <time>2022-04-17T09:34:24Z</time>
      </trkpt>
      <trkpt lat="50.02711" lon="2.02463">
        <ele>26.1</ele>
        <time>2022-04-17T09:34:25Z</time>
      </trkpt>
      <trkpt lat="50.02709" lon="2.02462">
        <ele>26.3</ele>
        <time>2022-04-17T09:34:27Z</time>
      </trkpt>
      <trkpt lat="50.02708" lon="2.0246">
        <ele>26.4</ele>
        <time>2022-04-17T09:34:28Z</time>
      </trkpt>
      <trkpt lat="50.02707" lon="2.02459">
        <ele>26.5</ele>
        <time>2022-04-17T09:34:29Z</time>
      </trkpt>
      <trkpt lat="50.02706" lon="2.02457">
        <ele>26.5</ele>
        <time>2022-04-17T09:34:30Z</time>
      </trkpt>
      <trkpt lat="50.02705" lon="2.02456">
        <ele>26.6</ele>
        <time>2022-04-17T09:34:32Z</time>
      </trkpt>
      <trkpt lat="50.02705" lon="2.02455">
        <ele>26.7</ele>
        <time>2022-04-17T09:34:33Z</time>
      </trkpt>
      <trkpt lat="50.02704" lon="2.02454">
        <ele>26.8</ele>
        <time>2022-04-17T09:34:34Z</time>
      </trkpt>
      <trkpt lat="50.02703" lon="2.02453">
        <ele>26.8</ele>
        <time>2022-04-17T09:34:35Z</time>
      </trkpt>
      <trkpt lat="50.02703" lon="2.02452">
        <ele>26.9</ele>
        <time>2022-04-17T09:34:36Z</time>
      </trkpt>
      <trkpt lat="50.02702" lon="2.02451">
        <ele>27</ele>
        <time>2022-04-17T09:34:37Z</time>
      </trkpt>
      <trkpt lat="50.02702" lon="2.02449">
        <ele>27</ele>
        <time>2022-04-17T09:34:38Z</time>
      </trkpt>
      <trkpt lat="50.02701" lon="2.02448">
        <ele>27.1</ele>
        <time>2022-04-17T09:34:39Z</time>
      </trkpt>
      <trkpt lat="50.02701" lon="2.02447">
        <ele>27.1</ele>
        <time>2022-04-17T09:34:40Z</time>
      </trkpt>
      <trkpt lat="50.02701" lon="2.02446">
        <ele>27.2</ele>
        <time>2022-04-17T09:34:41Z</time>
      </trkpt>
      <trkpt lat="50.027" lon="2.02445">
        <ele>27.2</ele>
        <time>2022-04-17T09:34:43Z</time>
      </trkpt>
      <trkpt lat="50.027" lon="2.02443">
        <ele>27.3</ele>
        <time>2022-04-17T09:34:44Z</time>
      </trkpt>
      <trkpt lat="50.02699" lon="2.02442">
        <ele>27.4</ele>
        <time>2022-04-17T09:34:45Z</time>
      </trkpt>
      <trkpt lat="50.02698" lon="2.0244">
        <ele>27.5</ele>
        <time>2022-04-17T09:34:46Z</time>
      </trkpt>
      <trkpt lat="50.02698" lon="2.02439">
        <ele>27.5</ele>
        <time>2022-04-17T09:34:47Z</time>
      </trkpt>
      <trkpt lat="50.02697" lon="2.02437">
        <ele>27.7</ele>
        <time>2022-04-17T09:34:49Z</time>
      </trkpt>
      <trkpt lat="50.02696" lon="2.02436">
        <ele>27.7</ele>
        <time>2022-04-17T09:34:50Z</time>
      </trkpt>
      <trkpt lat="50.02694" lon="2.02434">
        <ele>27.9</ele>
        <time>2022-04-17T09:34:51Z</time>
      </trkpt>
      <trkpt lat="50.02693" lon="2.02432">
        <ele>28</ele>
        <time>2022-04-17T09:34:53Z</time>
      </trkpt>
      <trkpt lat="50.02692" lon="2.02431">
        <ele>28.1</ele>
        <time>2022-04-17T09:34:54Z</time>
      </trkpt>
      <trkpt lat="50.02691" lon="2.0243">
        <ele>28.2</ele>
        <time>2022-04-17T09:34:56Z</time>
      </trkpt>
      <trkpt lat="50.0269" lon="2.02429">
        <ele>28.2</ele>
        <time>2022-04-17T09:34:57Z</time>
      </trkpt>
      <trkpt lat="50.02689" lon="2.02427">
        <ele>28.4</ele>
        <time>2022-04-17T09:34:58Z</time>
      </trkpt>
      <trkpt lat="50.02688" lon="2.02425">
        <ele>28.4</ele>
        <time>2022-04-17T09:35:00Z</time>
      </trkpt>
      <trkpt lat="50.02688" lon="2.02424">
        <ele>28.5</ele>
        <time>2022-04-17T09:35:01Z</time>
      </trkpt>
      <trkpt lat="50.02687" lon="2.02423">
        <ele>28.6</ele>
        <time>2022-04-17T09:35:02Z</time>
      </trkpt>
      <trkpt lat="50.02687" lon="2.02422">
        <ele>28.7</ele>
        <time>2022-04-17T09:35:03Z</time>
      </trkpt>
      <trkpt lat="50.02686" lon="2.0242">
        <ele>28.7</ele>
        <time>2022-04-17T09:35:04Z</time>
      </trkpt>
      <trkpt lat="50.02685" lon="2.02419">
        <ele>28.8</ele>
        <time>2022-04-17T09:35:05Z</time>
      </trkpt>
      <trkpt lat="50.02685" lon="2.02418">
        <ele>28.9</ele>
        <time>2022-04-17T09:35:06Z</time>
      </trkpt>
      <trkpt lat="50.02684" lon="2.02417">
        <ele>28.9</ele>
        <time>2022-04-17T09:35:07Z</time>
      </trkpt>
      <trkpt lat="50.02684" lon="2.02415">
        <ele>29</ele>
        <time>2022-04-17T09:35:09Z</time>
      </trkpt>
      <trkpt lat="50.02683" lon="2.02414">
        <ele>29.1</ele>
        <time>2022-04-17T09:35:10Z</time>
      </trkpt>
      <trkpt lat="50.02683" lon="2.02413">
        <ele>29.1</ele>
        <time>2022-04-17T09:35:11Z</time>
      </trkpt>
      <trkpt lat="50.02683" lon="2.02412">
        <ele>29.2</ele>
        <time>2022-04-17T09:35:12Z</time>
      </trkpt>
      <trkpt lat="50.02683" lon="2.0241">
        <ele>29.2</ele>
        <time>2022-04-17T09:35:14Z</time>
      </trkpt>
      <trkpt lat="50.02682" lon="2.02409">
        <ele>29.3</ele>
        <time>2022-04-17T09:35:15Z</time>
      </trkpt>
      <trkpt lat="50.02682" lon="2.02407">
        <ele>29.4</ele>
        <time>2022-04-17T09:35:16Z</time>
      </trkpt>
      <trkpt lat="50.02682" lon="2.02405">
        <ele>29.5</ele>
        <time>2022-04-17T09:35:18Z</time>
      </trkpt>
      <trkpt lat="50.02681" lon="2.02404">
        <ele>29.5</ele>
        <time>2022-04-17T09:35:19Z</time>
      </trkpt>
      <trkpt lat="50.02681" lon="2.02402">
        <ele>29.6</ele>
        <time>2022-04-17T09:35:20Z</time>
      </trkpt>
      <trkpt lat="50.0268" lon="2.02401">
        <ele>29.7</ele>
        <time>2022-04-17T09:35:21Z</time>
      </trkpt>
      <trkpt lat="50.0268" lon="2.02399">
        <ele>29.8</ele>
        <time>2022-04-17T09:35:23Z</time>
      </trkpt>
      <trkpt lat="50.02679" lon="2.02396">
        <ele>29.9</ele>
        <time>2022-04-17T09:35:24Z</time>
      </trkpt>
      <trkpt lat="50.02678" lon="2.02395">
        <ele>30</ele>
        <time>2022-04-17T09:35:25Z</time>
      </trkpt>
      <trkpt lat="50.02678" lon="2.02394">
        <ele>30</ele>
        <time>2022-04-17T09:35:26Z</time>
      </trkpt>
      <trkpt lat="50.02677" lon="2.02391">
        <ele>30.2</ele>
        <time>2022-04-17T09:35:27Z</time>
      </trkpt>
      <trkpt lat="50.02676" lon="2.0239">
        <ele>30.2</ele>
        <time>2022-04-17T09:35:29Z</time>
      </trkpt>
      <trkpt lat="50.02675" lon="2.02389">
        <ele>30.3</ele>
        <time>2022-04-17T09:35:30Z</time>
      </trkpt>
      <trkpt lat="50.02674" lon="2.02387">
        <ele>30.4</ele>
        <time>2022-04-17T09:35:31Z</time>
      </trkpt>
      <trkpt lat="50.02673" lon="2.02385">
        <ele>30.5</ele>
        <time>2022-04-17T09:35:32Z</time>
      </trkpt>
      <trkpt lat="50.02672" lon="2.02384">
        <ele>30.6</ele>
        <time>2022-04-17T09:35:33Z</time>
      </trkpt>
      <trkpt lat="50.02672" lon="2.02384">
        <ele>30.7</ele>
        <time>2022-04-17T09:35:34Z</time>
      </trkpt>
      <trkpt lat="50.02671" lon="2.02383">
        <ele>30.7</ele>
        <time>2022-04-17T09:35:35Z</time>
      </trkpt>
      <trkpt lat="50.02671" lon="2.02382">
        <ele>30.8</ele>
        <time>2022-04-17T09:35:37Z</time>
      </trkpt>
      <trkpt lat="50.0267" lon="2.02381">
        <ele>30.8</ele>
        <time>2022-04-17T09:35:38Z</time>
      </trkpt>
      <trkpt lat="50.0267" lon="2.02379">
        <ele>30.9</ele>
        <time>2022-04-17T09:35:39Z</time>
      </trkpt>
      <trkpt lat="50.0267" lon="2.02378">
        <ele>31</ele>
        <time>2022-04-17T09:35:40Z</time>
      </trkpt>
      <trkpt lat="50.02669" lon="2.02376">
        <ele>31</ele>
        <time>2022-04-17T09:35:42Z</time>
      </trkpt>
      <trkpt lat="50.02669" lon="2.02374">
        <ele>31.1</ele>
        <time>2022-04-17T09:35:43Z</time>
      </trkpt>
      <trkpt lat="50.02669" lon="2.02373">
        <ele>31.2</ele>
        <time>2022-04-17T09:35:44Z</time>
      </trkpt>
      <trkpt lat="50.02669" lon="2.02371">
        <ele>31.3</ele>
        <time>2022-04-17T09:35:45Z</time>
      </trkpt>
      <trkpt lat="50.02669" lon="2.0237">
        <ele>31.3</ele>
        <time>2022-04-17T09:35:46Z</time>
      </trkpt>
      <trkpt lat="50.02669" lon="2.02368">
        <ele>31.4</ele>
        <time>2022-04-17T09:35:47Z</time>
      </trkpt>
      <trkpt lat="50.02669" lon="2.02367">
        <ele>31.5</ele>
        <time>2022-04-17T09:35:48Z</time>
      </trkpt>
      <trkpt lat="50.02669" lon="2.02366">
        <ele>31.5</ele>
        <time>2022-04-17T09:35:49Z</time>
      </trkpt>
      <trkpt lat="50.02669" lon="2.02364">
        <ele>31.6</ele>
        <time>2022-04-17T09:35:51Z</time>
      </trkpt>
      <trkpt lat="50.02669" lon="2.02362">
        <ele>31.7</ele>
        <time>2022-04-17T09:35:52Z</time>
      </trkpt>
      <trkpt lat="50.02669" lon="2.0236">
        <ele>31.8</ele>
        <time>2022-04-17T09:35:53Z</time>
      </trkpt>
      <trkpt lat="50.0267" lon="2.02358">
        <ele>31.8</ele>
        <time>2022-04-17T09:35:55Z</time>
      </trkpt>
      <trkpt lat="50.0267" lon="2.02357">
        <ele>31.9</ele>
        <time>2022-04-17T09:35:56Z</time>
      </trkpt>
      <trkpt lat="50.0267" lon="2.02356">
        <ele>32</ele>
        <time>2022-04-17T09:35:57Z</time>
      </trkpt>
      <trkpt lat="50.02671" lon="2.02355">
        <ele>32</ele>
        <time>2022-04-17T09:35:58Z</time>
      </trkpt>
      <trkpt lat="50.02671" lon="2.02353">
        <ele>32.1</ele>
        <time>2022-04-17T09:35:59Z</time>
      </trkpt>
      <trkpt lat="50.02671" lon="2.02352">
        <ele>32.1</ele>
        <time>2022-04-17T09:36:00Z</time>
      </trkpt>
      <trkpt lat="50.02671" lon="2.02351">
        <ele>32.2</ele>
        <time>2022-04-17T09:36:02Z</time>
      </trkpt>
      <trkpt lat="50.02672" lon="2.02349">
        <ele>32.3</ele>
        <time>2022-04-17T09:36:03Z</time>
      </trkpt>
      <trkpt lat="50.02672" lon="2.02349">
        <ele>32.3</ele>
        <time>2022-04-17T09:36:04Z</time>
      </trkpt>
      <trkpt lat="50.02672" lon="2.02348">
        <ele>32.3</ele>
        <time>2022-04-17T09:36:05Z</time>
      </trkpt>
      <trkpt lat="50.02672" lon="2.02347">
        <ele>32.4</ele>
        <time>2022-04-17T09:36:06Z</time>
      </trkpt>
      <trkpt lat="50.02673" lon="2.02345">
        <ele>32.5</ele>
        <time>2022-04-17T09:36:08Z</time>
      </trkpt>
      <trkpt lat="50.02673" lon="2.02344">
        <ele>32.5</ele>
        <time>2022-04-17T09:36:09Z</time>
      </trkpt>
      <trkpt lat="50.02673" lon="2.02344">
        <ele>32.5</ele>
        <time>2022-04-17T09:36:10Z</time>
      </trkpt>
      <trkpt lat="50.02673" lon="2.02343">
        <ele>32.6</ele>
        <time>2022-04-17T09:36:11Z</time>
      </trkpt>
      <trkpt lat="50.02673" lon="2.02342">
        <ele>32.6</ele>
        <time>2022-04-17T09:36:13Z</time>
      </trkpt>
      <trkpt lat="50.02673" lon="2.02341">
        <ele>32.7</ele>
        <time>2022-04-17T09:36:14Z</time>
      </trkpt>
      <trkpt lat="50.02674" lon="2.0234">
        <ele>32.7</ele>
        <time>2022-04-17T09:36:15Z</time>
      </trkpt>
      <trkpt lat="50.02674" lon="2.0234">
        <ele>32.7</ele>
        <time>2022-04-17T09:36:16Z</time>
      </trkpt>
      <trkpt lat="50.02674" lon="2.0234">
        <ele>32.8</ele>
        <time>2022-04-17T09:36:17Z</time>
      </trkpt>
      <trkpt lat="50.02674" lon="2.02341">
        <ele>32.8</ele>
        <time>2022-04-17T09:36:18Z</time>
      </trkpt>
      <trkpt lat="50.02675" lon="2.02341">
        <ele>32.8</ele>
        <time>2022-04-17T09:36:19Z</time>
      </trkpt>
      <trkpt lat="50.02675" lon="2.02341">
        <ele>32.8</ele>
        <time>2022-04-17T09:36:20Z</time>
      </trkpt>
      <trkpt lat="50.02675" lon="2.02342">
        <ele>32.9</ele>
        <time>2022-04-17T09:36:21Z</time>
      </trkpt>
      <trkpt lat="50.02675" lon="2.02342">
        <ele>32.9</ele>
        <time>2022-04-17T09:36:22Z</time>
      </trkpt>
      <trkpt lat="50.02675" lon="2.02343">
        <ele>32.9</ele>
        <time>2022-04-17T09:36:23Z</time>
      </trkpt>
      <trkpt lat="50.02675" lon="2.02343">
        <ele>32.9</ele>
        <time>2022-04-17T09:36:24Z</time>
      </trkpt>
      <trkpt lat="50.02675" lon="2.02343">
        <ele>32.9</ele>
        <time>2022-04-17T09:36:25Z</time>
      </trkpt>
      <trkpt lat="50.02675" lon="2.02343">
        <ele>32.9</ele>
        <time>2022-04-17T09:36:26Z</time>
      </trkpt>
      <trkpt lat="50.02675" lon="2.02343">
        <ele>32.9</ele>
        <time>2022-04-17T09:36:28Z</time>
      </trkpt>
      <trkpt lat="50.02675" lon="2.02343">
        <ele>33</ele>
        <time>2022-04-17T09:36:29Z</time>
      </trkpt>
      <trkpt lat="50.02675" lon="2.02342">
        <ele>33</ele>
        <time>2022-04-17T09:36:30Z</time>
      </trkpt>
      <trkpt lat="50.02676" lon="2.02341">
        <ele>33.1</ele>
        <time>2022-04-17T09:36:32Z</time>
      </trkpt>
      <trkpt lat="50.02676" lon="2.0234">
        <ele>33.1</ele>
        <time>2022-04-17T09:36:33Z</time>
      </trkpt>
      <trkpt lat="50.02676" lon="2.02338">
        <ele>33.2</ele>
        <time>2022-04-17T09:36:34Z</time>
      </trkpt>
      <trkpt lat="50.02677" lon="2.02337">
        <ele>33.3</ele>
        <time>2022-04-17T09:36:36Z</time>
      </trkpt>
      <trkpt lat="50.02677" lon="2.02335">
        <ele>33.3</ele>
        <time>2022-04-17T09:36:37Z</time>
      </trkpt>
      <trkpt lat="50.02677" lon="2.02333">
        <ele>33.4</ele>
        <time>2022-04-17T09:36:38Z</time>
      </trkpt>
      <trkpt lat="50.02677" lon="2.02329">
        <ele>33.6</ele>
        <time>2022-04-17T09:36:40Z</time>
      </trkpt>
      <trkpt lat="50.02677" lon="2.02328">
        <ele>33.6</ele>
        <time>2022-04-17T09:36:41Z</time>
      </trkpt>
      <trkpt lat="50.02677" lon="2.02327">
        <ele>33.7</ele>
        <time>2022-04-17T09:36:42Z</time>
      </trkpt>
      <trkpt lat="50.02678" lon="2.02323">
        <ele>33.9</ele>
        <time>2022-04-17T09:36:44Z</time>
      </trkpt>
      <trkpt lat="50.02678" lon="2.02322">
        <ele>33.9</ele>
        <time>2022-04-17T09:36:45Z</time>
      </trkpt>
      <trkpt lat="50.02678" lon="2.02321">
        <ele>34</ele>
        <time>2022-04-17T09:36:46Z</time>
      </trkpt>
      <trkpt lat="50.02678" lon="2.02319">
        <ele>34.1</ele>
        <time>2022-04-17T09:36:48Z</time>
      </trkpt>
      <trkpt lat="50.02678" lon="2.02317">
        <ele>34.1</ele>
        <time>2022-04-17T09:36:49Z</time>
      </trkpt>
      <trkpt lat="50.02678" lon="2.02316">
        <ele>34.2</ele>
        <time>2022-04-17T09:36:50Z</time>
      </trkpt>
      <trkpt lat="50.02678" lon="2.02315">
        <ele>34.2</ele>
        <time>2022-04-17T09:36:51Z</time>
      </trkpt>
      <trkpt lat="50.02679" lon="2.02313">
        <ele>34.3</ele>
        <time>2022-04-17T09:36:53Z</time>
      </trkpt>
      <trkpt lat="50.02679" lon="2.02312">
        <ele>34.4</ele>
        <time>2022-04-17T09:36:54Z</time>
      </trkpt>
      <trkpt lat="50.02679" lon="2.0231">
        <ele>34.4</ele>
        <time>2022-04-17T09:36:55Z</time>
      </trkpt>
      <trkpt lat="50.02679" lon="2.02309">
        <ele>34.5</ele>
        <time>2022-04-17T09:36:56Z</time>
      </trkpt>
      <trkpt lat="50.02679" lon="2.02308">
        <ele>34.5</ele>
        <time>2022-04-17T09:36:57Z</time>
      </trkpt>
      <trkpt lat="50.02679" lon="2.02307">
        <ele>34.6</ele>
        <time>2022-04-17T09:36:58Z</time>
      </trkpt>
      <trkpt lat="50.02679" lon="2.02305">
        <ele>34.7</ele>
        <time>2022-04-17T09:37:00Z</time>
      </trkpt>
      <trkpt lat="50.02679" lon="2.02304">
        <ele>34.7</ele>
        <time>2022-04-17T09:37:01Z</time>
      </trkpt>
      <trkpt lat="50.02679" lon="2.02302">
        <ele>34.8</ele>
        <time>2022-04-17T09:37:02Z</time>
      </trkpt>
      <trkpt lat="50.0268" lon="2.02301">
        <ele>34.8</ele>
        <time>2022-04-17T09:37:03Z</time>
      </trkpt>
      <trkpt lat="50.0268" lon="2.02299">
        <ele>34.9</ele>
        <time>2022-04-17T09:37:05Z</time>
      </trkpt>
      <trkpt lat="50.0268" lon="2.02298">
        <ele>35</ele>
        <time>2022-04-17T09:37:06Z</time>
      </trkpt>
      <trkpt lat="50.0268" lon="2.02296">
        <ele>35.1</ele>
        <time>2022-04-17T09:37:07Z</time>
      </trkpt>
      <trkpt lat="50.0268" lon="2.02294">
        <ele>35.2</ele>
        <time>2022-04-17T09:37:09Z</time>
      </trkpt>
      <trkpt lat="50.0268" lon="2.02293">
        <ele>35.2</ele>
        <time>2022-04-17T09:37:10Z</time>
      </trkpt>
      <trkpt lat="50.0268" lon="2.02292">
        <ele>35.3</ele>
        <time>2022-04-17T09:37:11Z</time>
      </trkpt>
      <trkpt lat="50.0268" lon="2.02291">
        <ele>35.3</ele>
        <time>2022-04-17T09:37:12Z</time>
      </trkpt>
      <trkpt lat="50.02681" lon="2.02291">
        <ele>35.3</ele>
        <time>2022-04-17T09:37:13Z</time>
      </trkpt>
      <trkpt lat="50.02681" lon="2.0229">
        <ele>35.3</ele>
        <time>2022-04-17T09:37:14Z</time>
      </trkpt>
      <trkpt lat="50.02681" lon="2.0229">
        <ele>35.3</ele>
        <time>2022-04-17T09:37:15Z</time>
      </trkpt>
      <trkpt lat="50.02681" lon="2.0229">
        <ele>35.4</ele>
        <time>2022-04-17T09:37:16Z</time>
      </trkpt>
      <trkpt lat="50.02681" lon="2.02291">
        <ele>35.4</ele>
        <time>2022-04-17T09:37:17Z</time>
      </trkpt>
      <trkpt lat="50.02681" lon="2.02291">
        <ele>35.4</ele>
        <time>2022-04-17T09:37:18Z</time>
      </trkpt>
      <trkpt lat="50.02681" lon="2.02291">
        <ele>35.4</ele>
        <time>2022-04-17T09:37:19Z</time>
      </trkpt>
      <trkpt lat="50.02681" lon="2.02291">
        <ele>35.4</ele>
        <time>2022-04-17T09:37:20Z</time>
      </trkpt>
      <trkpt lat="50.02681" lon="2.02291">
        <ele>35.4</ele>
        <time>2022-04-17T09:37:22Z</time>
      </trkpt>
      <trkpt lat="50.02681" lon="2.02291">
        <ele>35.4</ele>
        <time>2022-04-17T09:37:23Z</time>
      </trkpt>
      <trkpt lat="50.02681" lon="2.02291">
        <ele>35.4</ele>
        <time>2022-04-17T09:37:24Z</time>
      </trkpt>
      <trkpt lat="50.02681" lon="2.02291">
        <ele>35.4</ele>
        <time>2022-04-17T09:37:25Z</time>
      </trkpt>
      <trkpt lat="50.02681" lon="2.02291">
        <ele>35.4</ele>
        <time>2022-04-17T09:37:26Z</time>
      </trkpt>
      <trkpt lat="50.0268" lon="2.02291">
        <ele>35.4</ele>
        <time>2022-04-17T09:37:27Z</time>
      </trkpt>
      <trkpt lat="50.0268" lon="2.02291">
        <ele>35.5</ele>
        <time>2022-04-17T09:37:28Z</time>
      </trkpt>
      <trkpt lat="50.02679" lon="2.02291">
        <ele>35.5</ele>
        <time>2022-04-17T09:37:30Z</time>
      </trkpt>
      <trkpt lat="50.02679" lon="2.02291">
        <ele>35.5</ele>
        <time>2022-04-17T09:37:31Z</time>
      </trkpt>
      <trkpt lat="50.02679" lon="2.02291">
        <ele>35.5</ele>
        <time>2022-04-17T09:37:32Z</time>
      </trkpt>
      <trkpt lat="50.02679" lon="2.02291">
        <ele>35.6</ele>
        <time>2022-04-17T09:37:33Z</time>
      </trkpt>
      <trkpt lat="50.02678" lon="2.02292">
        <ele>35.6</ele>
        <time>2022-04-17T09:37:34Z</time>
      </trkpt>
      <trkpt lat="50.02678" lon="2.02292">
        <ele>35.6</ele>
        <time>2022-04-17T09:37:35Z</time>
      </trkpt>
      <trkpt lat="50.02678" lon="2.02292">
        <ele>35.6</ele>
        <time>2022-04-17T09:37:36Z</time>
      </trkpt>
      <trkpt lat="50.02678" lon="2.02292">
        <ele>35.6</ele>
        <time>2022-04-17T09:37:37Z</time>
      </trkpt>
      <trkpt lat="50.02678" lon="2.02292">
        <ele>35.6</ele>
        <time>2022-04-17T09:37:38Z</time>
      </trkpt>
      <trkpt lat="50.02678" lon="2.02292">
        <ele>35.6</ele>
        <time>2022-04-17T09:37:39Z</time>
      </trkpt>
      <trkpt lat="50.02677" lon="2.02292">
        <ele>35.7</ele>
        <time>2022-04-17T09:37:40Z</time>
      </trkpt>
      <trkpt lat="50.02677" lon="2.02292">
        <ele>35.7</ele>
        <time>2022-04-17T09:37:41Z</time>
      </trkpt>
      <trkpt lat="50.02677" lon="2.02292">
        <ele>35.7</ele>
        <time>2022-04-17T09:37:42Z</time>
      </trkpt>
      <trkpt lat="50.02678" lon="2.02292">
        <ele>35.7</ele>
        <time>2022-04-17T09:37:44Z</time>
      </trkpt>
      <trkpt lat="50.02678" lon="2.02292">
        <ele>35.7</ele>
        <time>2022-04-17T09:37:45Z</time>
      </trkpt>
      <trkpt lat="50.02678" lon="2.02292">
        <ele>35.7</ele>
        <time>2022-04-17T09:37:47Z</time>
      </trkpt>
      <trkpt lat="50.02678" lon="2.02292">
        <ele>35.7</ele>
        <time>2022-04-17T09:37:48Z</time>
      </trkpt>
      <trkpt lat="50.02678" lon="2.02292">
        <ele>35.7</ele>
        <time>2022-04-17T09:37:49Z</time>
      </trkpt>
      <trkpt lat="50.02678" lon="2.02293">
        <ele>35.8</ele>
        <time>2022-04-17T09:37:50Z</time>
      </trkpt>
      <trkpt lat="50.02678" lon="2.02293">
        <ele>35.8</ele>
        <time>2022-04-17T09:37:52Z</time>
      </trkpt>
      <trkpt lat="50.02677" lon="2.02293">
        <ele>35.8</ele>
        <time>2022-04-17T09:37:53Z</time>
      </trkpt>
      <trkpt lat="50.02677" lon="2.02294">
        <ele>35.9</ele>
        <time>2022-04-17T09:37:54Z</time>
      </trkpt>
      <trkpt lat="50.02677" lon="2.02294">
        <ele>35.9</ele>
        <time>2022-04-17T09:37:55Z</time>
      </trkpt>
      <trkpt lat="50.02677" lon="2.02294">
        <ele>35.9</ele>
        <time>2022-04-17T09:37:56Z</time>
      </trkpt>
      <trkpt lat="50.02677" lon="2.02294">
        <ele>35.9</ele>
        <time>2022-04-17T09:37:57Z</time>
      </trkpt>
      <trkpt lat="50.02677" lon="2.02294">
        <ele>35.9</ele>
        <time>2022-04-17T09:37:58Z</time>
      </trkpt>
      <trkpt lat="50.02677" lon="2.02294">
        <ele>35.9</ele>
        <time>2022-04-17T09:37:59Z</time>
      </trkpt>
      <trkpt lat="50.02677" lon="2.02295">
        <ele>35.9</ele>
        <time>2022-04-17T09:38:00Z</time>
      </trkpt>
      <trkpt lat="50.02677" lon="2.02295">
        <ele>35.9</ele>
        <time>2022-04-17T09:38:01Z</time>
      </trkpt>
      <trkpt lat="50.02677" lon="2.02295">
        <ele>35.9</ele>
        <time>2022-04-17T09:38:02Z</time>
      </trkpt>
      <trkpt lat="50.02677" lon="2.02295">
        <ele>35.9</ele>
        <time>2022-04-17T09:38:03Z</time>
      </trkpt>
      <trkpt lat="50.02677" lon="2.02295">
        <ele>35.9</ele>
        <time>2022-04-17T09:38:04Z</time>
      </trkpt>
      <trkpt lat="50.02676" lon="2.02295">
        <ele>36</ele>
        <time>2022-04-17T09:38:05Z</time>
      </trkpt>
      <trkpt lat="50.02676" lon="2.02296">
        <ele>36</ele>
        <time>2022-04-17T09:38:06Z</time>
      </trkpt>
      <trkpt lat="50.02676" lon="2.02296">
        <ele>36</ele>
        <time>2022-04-17T09:38:07Z</time>
      </trkpt>
      <trkpt lat="50.02676" lon="2.02296">
        <ele>36</ele>
        <time>2022-04-17T09:38:08Z</time>
      </trkpt>
      <trkpt lat="50.02676" lon="2.02296">
        <ele>36</ele>
        <time>2022-04-17T09:38:09Z</time>
      </trkpt>
      <trkpt lat="50.02676" lon="2.02296">
        <ele>36</ele>
        <time>2022-04-17T09:38:10Z</time>
      </trkpt>
      <trkpt lat="50.02676" lon="2.02296">
        <ele>36</ele>
        <time>2022-04-17T09:38:11Z</time>
      </trkpt>
      <trkpt lat="50.02676" lon="2.02296">
        <ele>36</ele>
        <time>2022-04-17T09:38:12Z</time>
      </trkpt>
      <trkpt lat="50.02676" lon="2.02296">
        <ele>36</ele>
        <time>2022-04-17T09:38:13Z</time>
      </trkpt>
      <trkpt lat="50.02676" lon="2.02296">
        <ele>36</ele>
        <time>2022-04-17T09:38:14Z</time>
      </trkpt>
      <trkpt lat="50.02676" lon="2.02296">
        <ele>36</ele>
        <time>2022-04-17T09:38:15Z</time>
      </trkpt>
      <trkpt lat="50.02676" lon="2.02296">
        <ele>36</ele>
        <time>2022-04-17T09:38:16Z</time>
      </trkpt>
      <trkpt lat="50.02676" lon="2.02296">
        <ele>36</ele>
        <time>2022-04-17T09:38:17Z</time>
      </trkpt>
      <trkpt lat="50.02676" lon="2.02296">
        <ele>36</ele>
        <time>2022-04-17T09:38:18Z</time>
      </trkpt>
      <trkpt lat="50.02676" lon="2.02296">
        <ele>36</ele>
        <time>2022-04-17T09:38:19Z</time>
      </trkpt>
      <trkpt lat="50.02676" lon="2.02296">
        <ele>36</ele>
        <time>2022-04-17T09:38:20Z</time>
      </trkpt>
      <trkpt lat="50.02676" lon="2.02296">
        <ele>36</ele>
        <time>2022-04-17T09:38:21Z</time>
      </trkpt>
      <trkpt lat="50.02676" lon="2.02296">
        <ele>36</ele>
        <time>2022-04-17T09:38:22Z</time>
      </trkpt>
      <trkpt lat="50.02676" lon="2.02296">
        <ele>36</ele>
        <time>2022-04-17T09:38:23Z</time>
      </trkpt>
      <trkpt lat="50.02676" lon="2.02296">
        <ele>36</ele>
        <time>2022-04-17T09:38:25Z</time>
      </trkpt>
      <trkpt lat="50.02676" lon="2.02296">
        <ele>36</ele>
        <time>2022-04-17T09:38:26Z</time>
      </trkpt>
      <trkpt lat="50.02676" lon="2.02296">
        <ele>36</ele>
        <time>2022-04-17T09:38:27Z</time>
      </trkpt>
      <trkpt lat="50.02676" lon="2.02296">
        <ele>36</ele>
        <time>2022-04-17T09:38:28Z</time>
      </trkpt>
      <trkpt lat="50.02676" lon="2.02296">
        <ele>36</ele>
        <time>2022-04-17T09:38:29Z</time>
      </trkpt>
      <trkpt lat="50.02676" lon="2.02296">
        <ele>36</ele>
        <time>2022-04-17T09:38:30Z</time>
      </trkpt>
      <trkpt lat="50.02676" lon="2.02296">
        <ele>36</ele>
        <time>2022-04-17T09:38:31Z</time>
      </trkpt>
      <trkpt lat="50.02676" lon="2.02296">
        <ele>36</ele>
        <time>2022-04-17T09:38:32Z</time>
      </trkpt>
      <trkpt lat="50.02676" lon="2.02296">
        <ele>36</ele>
        <time>2022-04-17T09:38:33Z</time>
      </trkpt>
      <trkpt lat="50.02676" lon="2.02296">
        <ele>36</ele>
        <time>2022-04-17T09:38:34Z</time>
      </trkpt>
      <trkpt lat="50.02676" lon="2.02296">
        <ele>36</ele>
        <time>2022-04-17T09:38:35Z</time>
      </trkpt>
      <trkpt lat="50.02676" lon="2.02296">
        <ele>36</ele>
        <time>2022-04-17T09:38:36Z</time>
      </trkpt>
      <trkpt lat="50.02676" lon="2.02296">
        <ele>36</ele>
        <time>2022-04-17T09:38:37Z</time>
      </trkpt>
      <trkpt lat="50.02676" lon="2.02296">
        <ele>36</ele>
        <time>2022-04-17T09:38:38Z</time>
      </trkpt>
      <trkpt lat="50.02676" lon="2.02296">
        <ele>36</ele>
        <time>2022-04-17T09:38:39Z</time>
      </trkpt>
      <trkpt lat="50.02676" lon="2.02296">
        <ele>36</ele>
        <time>2022-04-17T09:38:40Z</time>
      </trkpt>
      <trkpt lat="50.02676" lon="2.02296">
        <ele>36</ele>
        <time>2022-04-17T09:38:41Z</time>
      </trkpt>
      <trkpt lat="50.02676" lon="2.02296">
        <ele>36</ele>
        <time>2022-04-17T09:38:42Z</time>
      </trkpt>
      <trkpt lat="50.02676" lon="2.02296">
        <ele>36</ele>
        <time>2022-04-17T09:38:43Z</time>
      </trkpt>
      <trkpt lat="50.02676" lon="2.02296">
        <ele>36</ele>
        <time>2022-04-17T09:38:44Z</time>
      </trkpt>
      <trkpt lat="50.02676" lon="2.02296">
        <ele>36</ele>
        <time>2022-04-17T09:38:45Z</time>
      </trkpt>
      <trkpt lat="50.02676" lon="2.02296">
        <ele>36</ele>
        <time>2022-04-17T09:38:46Z</time>
      </trkpt>
      <trkpt lat="50.02676" lon="2.02296">
        <ele>36</ele>
        <time>2022-04-17T09:38:47Z</time>
      </trkpt>
      <trkpt lat="50.02676" lon="2.02296">
        <ele>36</ele>
        <time>2022-04-17T09:38:48Z</time>
      </trkpt>
      <trkpt lat="50.02676" lon="2.02296">
        <ele>36</ele>
        <time>2022-04-17T09:38:49Z</time>
      </trkpt>
      <trkpt lat="50.02676" lon="2.02296">
        <ele>36</ele>
        <time>2022-04-17T09:38:50Z</time>
      </trkpt>
      <trkpt lat="50.02676" lon="2.02296">
        <ele>36</ele>
        <time>2022-04-17T09:38:51Z</time>
      </trkpt>
      <trkpt lat="50.02676" lon="2.02296">
        <ele>36</ele>
        <time>2022-04-17T09:38:52Z</time>
      </trkpt>
      <trkpt lat="50.02676" lon="2.02296">
        <ele>36</ele>
        <time>2022-04-17T09:38:53Z</time>
      </trkpt>
      <trkpt lat="50.02676" lon="2.02296">
        <ele>36</ele>
        <time>2022-04-17T09:38:54Z</time>
      </trkpt>
      <trkpt lat="50.02676" lon="2.02296">
        <ele>36</ele>
        <time>2022-04-17T09:38:55Z</time>
      </trkpt>
      <trkpt lat="50.02676" lon="2.02296">
        <ele>36</ele>
        <time>2022-04-17T09:38:56Z</time>
      </trkpt>
      <trkpt lat="50.02676" lon="2.02296">
        <ele>36</ele>
        <time>2022-04-17T09:38:57Z</time>
      </trkpt>
      <trkpt lat="50.02676" lon="2.02296">
        <ele>36</ele>
        <time>2022-04-17T09:38:58Z</time>
      </trkpt>
      <trkpt lat="50.02676" lon="2.02296">
        <ele>36</ele>
        <time>2022-04-17T09:38:59Z</time>
      </trkpt>
      <trkpt lat="50.02676" lon="2.02296">
        <ele>36</ele>
        <time>2022-04-17T09:39:00Z</time>
      </trkpt>
      <trkpt lat="50.02676" lon="2.02296">
        <ele>36</ele>
        <time>2022-04-17T09:39:01Z</time>
      </trkpt>
      <trkpt lat="50.02676" lon="2.02296">
        <ele>36</ele>
        <time>2022-04-17T09:39:02Z</time>
      </trkpt>
      <trkpt lat="50.02676" lon="2.02296">
        <ele>36</ele>
        <time>2022-04-17T09:39:03Z</time>
      </trkpt>
      <trkpt lat="50.02676" lon="2.02296">
        <ele>36</ele>
        <time>2022-04-17T09:39:04Z</time>
      </trkpt>
      <trkpt lat="50.02676" lon="2.02296">
        <ele>36</ele>
        <time>2022-04-17T09:39:05Z</time>
      </trkpt>
      <trkpt lat="50.02676" lon="2.02296">
        <ele>36</ele>
        <time>2022-04-17T09:39:06Z</time>
      </trkpt>
      <trkpt lat="50.02676" lon="2.02296">
        <ele>36</ele>
        <time>2022-04-17T09:39:07Z</time>
      </trkpt>
      <trkpt lat="50.02676" lon="2.02296">
        <ele>36</ele>
        <time>2022-04-17T09:39:08Z</time>
      </trkpt>
      <trkpt lat="50.02676" lon="2.02296">
        <ele>36</ele>
        <time>2022-04-17T09:39:09Z</time>
      </trkpt>
      <trkpt lat="50.02676" lon="2.02296">
        <ele>36</ele>
        <time>2022-04-17T09:39:10Z</time>
      </trkpt>
      <trkpt lat="50.02676" lon="2.02296">
        <ele>36</ele>
        <time>2022-04-17T09:39:11Z</time>
      </trkpt>
      <trkpt lat="50.02676" lon="2.02296">
        <ele>36</ele>
        <time>2022-04-17T09:39:12Z</time>
      </trkpt>
      <trkpt lat="50.02676" lon="2.02296">
        <ele>36</ele>
        <time>2022-04-17T09:39:13Z</time>
      </trkpt>
      <trkpt lat="50.02676" lon="2.02296">
        <ele>36</ele>
        <time>2022-04-17T09:39:14Z</time>
      </trkpt>
      <trkpt lat="50.02676" lon="2.02296">
        <ele>36</ele>
        <time>2022-04-17T09:39:15Z</time>
      </trkpt>
      <trkpt lat="50.02676" lon="2.02296">
        <ele>36</ele>
        <time>2022-04-17T09:39:16Z</time>
      </trkpt>
      <trkpt lat="50.02676" lon="2.02296">
        <ele>36</ele>
        <time>2022-04-17T09:39:17Z</time>
      </trkpt>
      <trkpt lat="50.02676" lon="2.02296">
        <ele>36</ele>
        <time>2022-04-17T09:39:18Z</time>
      </trkpt>
      <trkpt lat="50.02676" lon="2.02296">
        <ele>36</ele>
        <time>2022-04-17T09:39:19Z</time>
      </trkpt>
      <trkpt lat="50.02676" lon="2.02296">
        <ele>36</ele>
        <time>2022-04-17T09:39:20Z</time>
      </trkpt>
      <trkpt lat="50.02676" lon="2.02296">
        <ele>36</ele>
        <time>2022-04-17T09:39:21Z</time>
      </trkpt>
      <trkpt lat="50.02676" lon="2.02296">
        <ele>36</ele>
        <time>2022-04-17T09:39:22Z</time>
      </trkpt>
      <trkpt lat="50.02676" lon="2.02296">
        <ele>36</ele>
        <time>2022-04-17T09:39:23Z</time>
      </trkpt>
      <trkpt lat="50.02676" lon="2.02296">
        <ele>36</ele>
        <time>2022-04-17T09:39:24Z</time>
      </trkpt>
      <trkpt lat="50.02676" lon="2.02296">
        <ele>36</ele>
        <time>2022-04-17T09:39:25Z</time>
      </trkpt>
      <trkpt lat="50.02676" lon="2.02296">
        <ele>36</ele>
        <time>2022-04-17T09:39:26Z</time>
      </trkpt>
      <trkpt lat="50.02676" lon="2.02296">
        <ele>36</ele>
        <time>2022-04-17T09:39:27Z</time>
      </trkpt>
      <trkpt lat="50.02676" lon="2.02296">
        <ele>36</ele>
        <time>2022-04-17T09:39:29Z</time>
      </trkpt>
      <trkpt lat="50.02676" lon="2.02296">
        <ele>36</ele>
        <time>2022-04-17T09:39:30Z</time>
      </trkpt>
      <trkpt lat="50.02676" lon="2.02296">
        <ele>36</ele>
        <time>2022-04-17T09:39:31Z</time>
      </trkpt>
      <trkpt lat="50.02676" lon="2.02296">
        <ele>36</ele>
        <time>2022-04-17T09:39:32Z</time>
      </trkpt>
      <trkpt lat="50.02676" lon="2.02296">
        <ele>36</ele>
        <time>2022-04-17T09:39:33Z</time>
      </trkpt>
      <trkpt lat="50.02676" lon="2.02296">
        <ele>36</ele>
        <time>2022-04-17T09:39:34Z</time>
      </trkpt>
      <trkpt lat="50.02676" lon="2.02296">
        <ele>36</ele>
        <time>2022-04-17T09:39:35Z</time>
      </trkpt>
      <trkpt lat="50.02676" lon="2.02296">
        <ele>36</ele>
        <time>2022-04-17T09:39:36Z</time>
      </trkpt>
      <trkpt lat="50.02676" lon="2.02296">
        <ele>36</ele>
        <time>2022-04-17T09:39:37Z</time>
      </trkpt>
      <trkpt lat="50.02676" lon="2.02296">
        <ele>36</ele>
        <time>2022-04-17T09:39:38Z</time>
      </trkpt>
      <trkpt lat="50.02676" lon="2.02296">
        <ele>36</ele>
        <time>2022-04-17T09:39:39Z</time>
      </trkpt>
      <trkpt lat="50.02676" lon="2.02296">
        <ele>36</ele>
        <time>2022-04-17T09:39:40Z</time>
      </trkpt>
      <trkpt lat="50.02676" lon="2.02296">
        <ele>36</ele>
        <time>2022-04-17T09:39:41Z</time>
      </trkpt>
      <trkpt lat="50.02675" lon="2.02297">
        <ele>36.1</ele>
        <time>2022-04-17T09:39:42Z</time>
      </trkpt>
      <trkpt lat="50.02674" lon="2.02298">
        <ele>36.1</ele>
        <time>2022-04-17T09:39:43Z</time>
      </trkpt>
      <trkpt lat="50.02674" lon="2.02299">
        <ele>36.2</ele>
        <time>2022-04-17T09:39:44Z</time>
      </trkpt>
      <trkpt lat="50.02674" lon="2.02299">
        <ele>36.2</ele>
        <time>2022-04-17T09:39:45Z</time>
      </trkpt>
      <trkpt lat="50.02674" lon="2.02299">
        <ele>36.2</ele>
        <time>2022-04-17T09:39:46Z</time>
      </trkpt>
      <trkpt lat="50.02674" lon="2.02299">
        <ele>36.2</ele>
        <time>2022-04-17T09:39:47Z</time>
      </trkpt>
      <trkpt lat="50.02674" lon="2.02299">
        <ele>36.2</ele>
        <time>2022-04-17T09:39:48Z</time>
      </trkpt>
      <trkpt lat="50.02674" lon="2.02299">
        <ele>36.2</ele>
        <time>2022-04-17T09:39:49Z</time>
      </trkpt>
      <trkpt lat="50.02674" lon="2.02299">
        <ele>36.2</ele>
        <time>2022-04-17T09:39:51Z</time>
      </trkpt>
      <trkpt lat="50.02674" lon="2.02299">
        <ele>36.2</ele>
        <time>2022-04-17T09:39:52Z</time>
      </trkpt>
      <trkpt lat="50.02674" lon="2.02299">
        <ele>36.2</ele>
        <time>2022-04-17T09:39:53Z</time>
      </trkpt>
      <trkpt lat="50.02674" lon="2.02299">
        <ele>36.2</ele>
        <time>2022-04-17T09:39:54Z</time>
      </trkpt>
      <trkpt lat="50.02674" lon="2.02299">
        <ele>36.2</ele>
        <time>2022-04-17T09:39:55Z</time>
      </trkpt>
      <trkpt lat="50.02674" lon="2.02299">
        <ele>36.2</ele>
        <time>2022-04-17T09:39:56Z</time>
      </trkpt>
      <trkpt lat="50.02674" lon="2.02299">
        <ele>36.2</ele>
        <time>2022-04-17T09:39:57Z</time>
      </trkpt>
      <trkpt lat="50.02674" lon="2.02299">
        <ele>36.2</ele>
        <time>2022-04-17T09:39:58Z</time>
      </trkpt>
      <trkpt lat="50.02674" lon="2.02299">
        <ele>36.2</ele>
        <time>2022-04-17T09:39:59Z</time>
      </trkpt>
      <trkpt lat="50.02674" lon="2.02299">
        <ele>36.2</ele>
        <time>2022-04-17T09:40:00Z</time>
      </trkpt>
      <trkpt lat="50.02674" lon="2.02299">
        <ele>36.2</ele>
        <time>2022-04-17T09:40:01Z</time>
      </trkpt>
      <trkpt lat="50.02674" lon="2.02299">
        <ele>36.2</ele>
        <time>2022-04-17T09:40:02Z</time>
      </trkpt>
      <trkpt lat="50.02674" lon="2.02299">
        <ele>36.2</ele>
        <time>2022-04-17T09:40:03Z</time>
      </trkpt>
      <trkpt lat="50.02674" lon="2.02299">
        <ele>36.2</ele>
        <time>2022-04-17T09:40:04Z</time>
      </trkpt>
      <trkpt lat="50.02674" lon="2.02299">
        <ele>36.2</ele>
        <time>2022-04-17T09:40:05Z</time>
      </trkpt>
      <trkpt lat="50.02674" lon="2.02299">
        <ele>36.2</ele>
        <time>2022-04-17T09:40:06Z</time>
      </trkpt>
      <trkpt lat="50.02674" lon="2.02298">
        <ele>36.2</ele>
        <time>2022-04-17T09:40:07Z</time>
      </trkpt>
      <trkpt lat="50.02674" lon="2.02298">
        <ele>36.2</ele>
        <time>2022-04-17T09:40:08Z</time>
      </trkpt>
      <trkpt lat="50.02674" lon="2.02298">
        <ele>36.2</ele>
        <time>2022-04-17T09:40:09Z</time>
      </trkpt>
      <trkpt lat="50.02674" lon="2.02298">
        <ele>36.2</ele>
        <time>2022-04-17T09:40:10Z</time>
      </trkpt>
      <trkpt lat="50.02674" lon="2.02297">
        <ele>36.3</ele>
        <time>2022-04-17T09:40:11Z</time>
      </trkpt>
      <trkpt lat="50.02674" lon="2.02297">
        <ele>36.3</ele>
        <time>2022-04-17T09:40:12Z</time>
      </trkpt>
      <trkpt lat="50.02674" lon="2.02297">
        <ele>36.3</ele>
        <time>2022-04-17T09:40:13Z</time>
      </trkpt>
      <trkpt lat="50.02674" lon="2.02297">
        <ele>36.3</ele>
        <time>2022-04-17T09:40:14Z</time>
      </trkpt>
      <trkpt lat="50.02674" lon="2.02297">
        <ele>36.3</ele>
        <time>2022-04-17T09:40:15Z</time>
      </trkpt>
      <trkpt lat="50.02674" lon="2.02297">
        <ele>36.3</ele>
        <time>2022-04-17T09:40:16Z</time>
      </trkpt>
      <trkpt lat="50.02674" lon="2.02297">
        <ele>36.3</ele>
        <time>2022-04-17T09:40:17Z</time>
      </trkpt>
      <trkpt lat="50.02674" lon="2.02297">
        <ele>36.3</ele>
        <time>2022-04-17T09:40:18Z</time>
      </trkpt>
      <trkpt lat="50.02674" lon="2.02297">
        <ele>36.3</ele>
        <time>2022-04-17T09:40:19Z</time>
      </trkpt>
      <trkpt lat="50.02674" lon="2.02297">
        <ele>36.3</ele>
        <time>2022-04-17T09:40:20Z</time>
      </trkpt>
      <trkpt lat="50.02674" lon="2.02297">
        <ele>36.3</ele>
        <time>2022-04-17T09:40:21Z</time>
      </trkpt>
      <trkpt lat="50.02674" lon="2.02297">
        <ele>36.3</ele>
        <time>2022-04-17T09:40:22Z</time>
      </trkpt>
      <trkpt lat="50.02674" lon="2.02297">
        <ele>36.3</ele>
        <time>2022-04-17T09:40:23Z</time>
      </trkpt>
      <trkpt lat="50.02674" lon="2.02297">
        <ele>36.3</ele>
        <time>2022-04-17T09:40:24Z</time>
      </trkpt>
      <trkpt lat="50.02674" lon="2.02297">
        <ele>36.3</ele>
        <time>2022-04-17T09:40:25Z</time>
      </trkpt>
      <trkpt lat="50.02674" lon="2.02297">
        <ele>36.3</ele>
        <time>2022-04-17T09:40:26Z</time>
      </trkpt>
      <trkpt lat="50.02674" lon="2.02297">
        <ele>36.3</ele>
        <time>2022-04-17T09:40:27Z</time>
      </trkpt>
      <trkpt lat="50.02674" lon="2.02297">
        <ele>36.3</ele>
        <time>2022-04-17T09:40:28Z</time>
      </trkpt>
      <trkpt lat="50.02674" lon="2.02297">
        <ele>36.3</ele>
        <time>2022-04-17T09:40:29Z</time>
      </trkpt>
      <trkpt lat="50.02674" lon="2.02297">
        <ele>36.3</ele>
        <time>2022-04-17T09:40:30Z</time>
      </trkpt>
      <trkpt lat="50.02674" lon="2.02297">
        <ele>36.3</ele>
        <time>2022-04-17T09:40:31Z</time>
      </trkpt>
      <trkpt lat="50.02674" lon="2.02297">
        <ele>36.3</ele>
        <time>2022-04-17T09:40:32Z</time>
      </trkpt>
      <trkpt lat="50.02674" lon="2.02297">
        <ele>36.3</ele>
        <time>2022-04-17T09:40:34Z</time>
      </trkpt>
      <trkpt lat="50.02674" lon="2.02297">
        <ele>36.3</ele>
        <time>2022-04-17T09:40:35Z</time>
      </trkpt>
      <trkpt lat="50.02674" lon="2.02297">
        <ele>36.3</ele>
        <time>2022-04-17T09:40:36Z</time>
      </trkpt>
      <trkpt lat="50.02674" lon="2.02297">
        <ele>36.3</ele>
        <time>2022-04-17T09:40:37Z</time>
      </trkpt>
      <trkpt lat="50.02674" lon="2.02297">
        <ele>36.3</ele>
        <time>2022-04-17T09:40:38Z</time>
      </trkpt>
      <trkpt lat="50.02674" lon="2.02297">
        <ele>36.3</ele>
        <time>2022-04-17T09:40:39Z</time>
      </trkpt>
      <trkpt lat="50.02674" lon="2.02297">
        <ele>36.3</ele>
        <time>2022-04-17T09:40:40Z</time>
      </trkpt>
      <trkpt lat="50.02674" lon="2.02297">
        <ele>36.3</ele>
        <time>2022-04-17T09:40:41Z</time>
      </trkpt>
      <trkpt lat="50.02674" lon="2.02297">
        <ele>36.3</ele>
        <time>2022-04-17T09:40:42Z</time>
      </trkpt>
      <trkpt lat="50.02674" lon="2.02297">
        <ele>36.3</ele>
        <time>2022-04-17T09:40:43Z</time>
      </trkpt>
      <trkpt lat="50.02674" lon="2.02297">
        <ele>36.3</ele>
        <time>2022-04-17T09:40:44Z</time>
      </trkpt>
      <trkpt lat="50.02674" lon="2.02297">
        <ele>36.3</ele>
        <time>2022-04-17T09:40:45Z</time>
      </trkpt>
      <trkpt lat="50.02674" lon="2.02297">
        <ele>36.3</ele>
        <time>2022-04-17T09:40:46Z</time>
      </trkpt>
      <trkpt lat="50.02674" lon="2.02297">
        <ele>36.3</ele>
        <time>2022-04-17T09:40:47Z</time>
      </trkpt>
      <trkpt lat="50.02673" lon="2.02297">
        <ele>36.3</ele>
        <time>2022-04-17T09:40:49Z</time>
      </trkpt>
      <trkpt lat="50.02673" lon="2.02296">
        <ele>36.3</ele>
        <time>2022-04-17T09:40:50Z</time>
      </trkpt>
      <trkpt lat="50.02673" lon="2.02295">
        <ele>36.4</ele>
        <time>2022-04-17T09:40:51Z</time>
      </trkpt>
      <trkpt lat="50.02673" lon="2.02294">
        <ele>36.4</ele>
        <time>2022-04-17T09:40:52Z</time>
      </trkpt>
      <trkpt lat="50.02673" lon="2.02292">
        <ele>36.5</ele>
        <time>2022-04-17T09:40:53Z</time>
      </trkpt>
      <trkpt lat="50.02672" lon="2.02292">
        <ele>36.5</ele>
        <time>2022-04-17T09:40:54Z</time>
      </trkpt>
      <trkpt lat="50.02672" lon="2.02291">
        <ele>36.6</ele>
        <time>2022-04-17T09:40:56Z</time>
      </trkpt>
      <trkpt lat="50.02672" lon="2.0229">
        <ele>36.6</ele>
        <time>2022-04-17T09:40:57Z</time>
      </trkpt>
      <trkpt lat="50.02672" lon="2.02288">
        <ele>36.7</ele>
        <time>2022-04-17T09:40:58Z</time>
      </trkpt>
      <trkpt lat="50.02672" lon="2.02287">
        <ele>36.8</ele>
        <time>2022-04-17T09:40:59Z</time>
      </trkpt>
      <trkpt lat="50.02672" lon="2.02285">
        <ele>36.8</ele>
        <time>2022-04-17T09:41:01Z</time>
      </trkpt>
      <trkpt lat="50.02672" lon="2.02284">
        <ele>36.9</ele>
        <time>2022-04-17T09:41:02Z</time>
      </trkpt>
      <trkpt lat="50.02673" lon="2.02282">
        <ele>37</ele>
        <time>2022-04-17T09:41:03Z</time>
      </trkpt>
      <trkpt lat="50.02673" lon="2.02281">
        <ele>37</ele>
        <time>2022-04-17T09:41:05Z</time>
      </trkpt>
      <trkpt lat="50.02673" lon="2.0228">
        <ele>37.1</ele>
        <time>2022-04-17T09:41:06Z</time>
      </trkpt>
      <trkpt lat="50.02674" lon="2.02277">
        <ele>37.2</ele>
        <time>2022-04-17T09:41:07Z</time>
      </trkpt>
      <trkpt lat="50.02675" lon="2.02276">
        <ele>37.3</ele>
        <time>2022-04-17T09:41:08Z</time>
      </trkpt>
      <trkpt lat="50.02675" lon="2.02275">
        <ele>37.4</ele>
        <time>2022-04-17T09:41:10Z</time>
      </trkpt>
      <trkpt lat="50.02676" lon="2.02273">
        <ele>37.4</ele>
        <time>2022-04-17T09:41:11Z</time>
      </trkpt>
      <trkpt lat="50.02676" lon="2.02272">
        <ele>37.5</ele>
        <time>2022-04-17T09:41:12Z</time>
      </trkpt>
      <trkpt lat="50.02677" lon="2.0227">
        <ele>37.6</ele>
        <time>2022-04-17T09:41:13Z</time>
      </trkpt>
      <trkpt lat="50.02678" lon="2.02268">
        <ele>37.7</ele>
        <time>2022-04-17T09:41:15Z</time>
      </trkpt>
      <trkpt lat="50.02679" lon="2.02266">
        <ele>37.8</ele>
        <time>2022-04-17T09:41:16Z</time>
      </trkpt>
      <trkpt lat="50.02679" lon="2.02264">
        <ele>37.9</ele>
        <time>2022-04-17T09:41:17Z</time>
      </trkpt>
      <trkpt lat="50.0268" lon="2.02262">
        <ele>38</ele>
        <time>2022-04-17T09:41:18Z</time>
      </trkpt>
      <trkpt lat="50.0268" lon="2.0226">
        <ele>38.1</ele>
        <time>2022-04-17T09:41:20Z</time>
      </trkpt>
      <trkpt lat="50.0268" lon="2.02257">
        <ele>38.2</ele>
        <time>2022-04-17T09:41:21Z</time>
      </trkpt>
      <trkpt lat="50.02681" lon="2.02256">
        <ele>38.3</ele>
        <time>2022-04-17T09:41:22Z</time>
      </trkpt>
      <trkpt lat="50.02681" lon="2.02255">
        <ele>38.3</ele>
        <time>2022-04-17T09:41:23Z</time>
      </trkpt>
      <trkpt lat="50.02681" lon="2.02252">
        <ele>38.4</ele>
        <time>2022-04-17T09:41:25Z</time>
      </trkpt>
      <trkpt lat="50.02681" lon="2.0225">
        <ele>38.5</ele>
        <time>2022-04-17T09:41:26Z</time>
      </trkpt>
      <trkpt lat="50.02682" lon="2.02247">
        <ele>38.7</ele>
        <time>2022-04-17T09:41:27Z</time>
      </trkpt>
      <trkpt lat="50.02682" lon="2.02245">
        <ele>38.8</ele>
        <time>2022-04-17T09:41:28Z</time>
      </trkpt>
      <trkpt lat="50.02682" lon="2.02244">
        <ele>38.8</ele>
        <time>2022-04-17T09:41:29Z</time>
      </trkpt>
      <trkpt lat="50.02682" lon="2.02241">
        <ele>38.9</ele>
        <time>2022-04-17T09:41:31Z</time>
      </trkpt>
      <trkpt lat="50.02682" lon="2.0224">
        <ele>39</ele>
        <time>2022-04-17T09:41:32Z</time>
      </trkpt>
      <trkpt lat="50.02681" lon="2.02238">
        <ele>39.1</ele>
        <time>2022-04-17T09:41:33Z</time>
      </trkpt>
      <trkpt lat="50.02681" lon="2.02237">
        <ele>39.1</ele>
        <time>2022-04-17T09:41:34Z</time>
      </trkpt>
      <trkpt lat="50.02681" lon="2.02236">
        <ele>39.2</ele>
        <time>2022-04-17T09:41:35Z</time>
      </trkpt>
      <trkpt lat="50.02681" lon="2.02234">
        <ele>39.3</ele>
        <time>2022-04-17T09:41:36Z</time>
      </trkpt>
      <trkpt lat="50.02681" lon="2.02232">
        <ele>39.4</ele>
        <time>2022-04-17T09:41:37Z</time>
      </trkpt>
      <trkpt lat="50.02681" lon="2.02231">
        <ele>39.4</ele>
        <time>2022-04-17T09:41:38Z</time>
      </trkpt>
      <trkpt lat="50.02681" lon="2.02228">
        <ele>39.5</ele>
        <time>2022-04-17T09:41:40Z</time>
      </trkpt>
      <trkpt lat="50.02681" lon="2.02227">
        <ele>39.6</ele>
        <time>2022-04-17T09:41:41Z</time>
      </trkpt>
      <trkpt lat="50.0268" lon="2.02225">
        <ele>39.7</ele>
        <time>2022-04-17T09:41:42Z</time>
      </trkpt>
      <trkpt lat="50.0268" lon="2.02224">
        <ele>39.8</ele>
        <time>2022-04-17T09:41:43Z</time>
      </trkpt>
      <trkpt lat="50.02679" lon="2.02222">
        <ele>39.8</ele>
        <time>2022-04-17T09:41:44Z</time>
      </trkpt>
      <trkpt lat="50.02678" lon="2.02219">
        <ele>40</ele>
        <time>2022-04-17T09:41:45Z</time>
      </trkpt>
      <trkpt lat="50.02678" lon="2.02218">
        <ele>40</ele>
        <time>2022-04-17T09:41:47Z</time>
      </trkpt>
      <trkpt lat="50.02678" lon="2.02217">
        <ele>40.1</ele>
        <time>2022-04-17T09:41:48Z</time>
      </trkpt>
      <trkpt lat="50.02677" lon="2.02215">
        <ele>40.2</ele>
        <time>2022-04-17T09:41:49Z</time>
      </trkpt>
      <trkpt lat="50.02677" lon="2.02213">
        <ele>40.3</ele>
        <time>2022-04-17T09:41:50Z</time>
      </trkpt>
      <trkpt lat="50.02678" lon="2.02212">
        <ele>40.3</ele>
        <time>2022-04-17T09:41:51Z</time>
      </trkpt>
      <trkpt lat="50.02678" lon="2.02209">
        <ele>40.5</ele>
        <time>2022-04-17T09:41:53Z</time>
      </trkpt>
      <trkpt lat="50.02678" lon="2.02207">
        <ele>40.5</ele>
        <time>2022-04-17T09:41:54Z</time>
      </trkpt>
      <trkpt lat="50.02679" lon="2.02206">
        <ele>40.6</ele>
        <time>2022-04-17T09:41:55Z</time>
      </trkpt>
      <trkpt lat="50.02679" lon="2.02204">
        <ele>40.7</ele>
        <time>2022-04-17T09:41:57Z</time>
      </trkpt>
      <trkpt lat="50.02679" lon="2.02201">
        <ele>40.8</ele>
        <time>2022-04-17T09:41:58Z</time>
      </trkpt>
      <trkpt lat="50.02679" lon="2.02199">
        <ele>40.9</ele>
        <time>2022-04-17T09:41:59Z</time>
      </trkpt>
      <trkpt lat="50.02678" lon="2.02197">
        <ele>41</ele>
        <time>2022-04-17T09:42:00Z</time>
      </trkpt>
      <trkpt lat="50.02678" lon="2.02196">
        <ele>41.1</ele>
        <time>2022-04-17T09:42:01Z</time>
      </trkpt>
      <trkpt lat="50.02677" lon="2.02194">
        <ele>41.1</ele>
        <time>2022-04-17T09:42:02Z</time>
      </trkpt>
      <trkpt lat="50.02677" lon="2.02193">
        <ele>41.2</ele>
        <time>2022-04-17T09:42:03Z</time>
      </trkpt>
      <trkpt lat="50.02676" lon="2.02191">
        <ele>41.3</ele>
        <time>2022-04-17T09:42:04Z</time>
      </trkpt>
      <trkpt lat="50.02675" lon="2.02189">
        <ele>41.4</ele>
        <time>2022-04-17T09:42:05Z</time>
      </trkpt>
      <trkpt lat="50.02674" lon="2.02187">
        <ele>41.5</ele>
        <time>2022-04-17T09:42:07Z</time>
      </trkpt>
      <trkpt lat="50.02673" lon="2.02185">
        <ele>41.7</ele>
        <time>2022-04-17T09:42:08Z</time>
      </trkpt>
      <trkpt lat="50.02673" lon="2.02181">
        <ele>41.8</ele>
        <time>2022-04-17T09:42:09Z</time>
      </trkpt>
      <trkpt lat="50.02673" lon="2.0218">
        <ele>41.9</ele>
        <time>2022-04-17T09:42:10Z</time>
      </trkpt>
      <trkpt lat="50.02672" lon="2.02179">
        <ele>41.9</ele>
        <time>2022-04-17T09:42:11Z</time>
      </trkpt>
      <trkpt lat="50.02672" lon="2.02177">
        <ele>42</ele>
        <time>2022-04-17T09:42:13Z</time>
      </trkpt>
      <trkpt lat="50.02672" lon="2.02176">
        <ele>42.1</ele>
        <time>2022-04-17T09:42:14Z</time>
      </trkpt>
      <trkpt lat="50.02672" lon="2.02174">
        <ele>42.1</ele>
        <time>2022-04-17T09:42:15Z</time>
      </trkpt>
      <trkpt lat="50.02671" lon="2.02171">
        <ele>42.3</ele>
        <time>2022-04-17T09:42:17Z</time>
      </trkpt>
      <trkpt lat="50.0267" lon="2.0217">
        <ele>42.3</ele>
        <time>2022-04-17T09:42:18Z</time>
      </trkpt>
      <trkpt lat="50.0267" lon="2.02169">
        <ele>42.4</ele>
        <time>2022-04-17T09:42:19Z</time>
      </trkpt>
      <trkpt lat="50.0267" lon="2.02167">
        <ele>42.5</ele>
        <time>2022-04-17T09:42:20Z</time>
      </trkpt>
      <trkpt lat="50.02669" lon="2.02166">
        <ele>42.5</ele>
        <time>2022-04-17T09:42:21Z</time>
      </trkpt>
      <trkpt lat="50.02669" lon="2.02164">
        <ele>42.6</ele>
        <time>2022-04-17T09:42:23Z</time>
      </trkpt>
      <trkpt lat="50.02669" lon="2.02163">
        <ele>42.7</ele>
        <time>2022-04-17T09:42:24Z</time>
      </trkpt>
      <trkpt lat="50.02669" lon="2.02161">
        <ele>42.7</ele>
        <time>2022-04-17T09:42:25Z</time>
      </trkpt>
      <trkpt lat="50.0267" lon="2.0216">
        <ele>42.8</ele>
        <time>2022-04-17T09:42:27Z</time>
      </trkpt>
      <trkpt lat="50.0267" lon="2.02159">
        <ele>42.9</ele>
        <time>2022-04-17T09:42:28Z</time>
      </trkpt>
      <trkpt lat="50.02671" lon="2.02158">
        <ele>42.9</ele>
        <time>2022-04-17T09:42:29Z</time>
      </trkpt>
      <trkpt lat="50.02672" lon="2.02157">
        <ele>43</ele>
        <time>2022-04-17T09:42:30Z</time>
      </trkpt>
      <trkpt lat="50.02673" lon="2.02156">
        <ele>43.1</ele>
        <time>2022-04-17T09:42:31Z</time>
      </trkpt>
      <trkpt lat="50.02674" lon="2.02156">
        <ele>43.2</ele>
        <time>2022-04-17T09:42:32Z</time>
      </trkpt>
      <trkpt lat="50.02674" lon="2.02155">
        <ele>43.2</ele>
        <time>2022-04-17T09:42:33Z</time>
      </trkpt>
      <trkpt lat="50.02675" lon="2.02154">
        <ele>43.3</ele>
        <time>2022-04-17T09:42:34Z</time>
      </trkpt>
      <trkpt lat="50.02676" lon="2.02152">
        <ele>43.4</ele>
        <time>2022-04-17T09:42:35Z</time>
      </trkpt>
      <trkpt lat="50.02677" lon="2.02151">
        <ele>43.5</ele>
        <time>2022-04-17T09:42:37Z</time>
      </trkpt>
      <trkpt lat="50.02678" lon="2.0215">
        <ele>43.5</ele>
        <time>2022-04-17T09:42:38Z</time>
      </trkpt>
      <trkpt lat="50.02679" lon="2.02149">
        <ele>43.6</ele>
        <time>2022-04-17T09:42:39Z</time>
      </trkpt>
      <trkpt lat="50.02679" lon="2.02147">
        <ele>43.7</ele>
        <time>2022-04-17T09:42:40Z</time>
      </trkpt>
      <trkpt lat="50.0268" lon="2.02145">
        <ele>43.8</ele>
        <time>2022-04-17T09:42:42Z</time>
      </trkpt>
      <trkpt lat="50.02681" lon="2.02143">
        <ele>43.9</ele>
        <time>2022-04-17T09:42:43Z</time>
      </trkpt>
      <trkpt lat="50.02682" lon="2.02141">
        <ele>44</ele>
        <time>2022-04-17T09:42:44Z</time>
      </trkpt>
      <trkpt lat="50.02682" lon="2.0214">
        <ele>44</ele>
        <time>2022-04-17T09:42:45Z</time>
      </trkpt>
      <trkpt lat="50.02684" lon="2.02138">
        <ele>44.2</ele>
        <time>2022-04-17T09:42:47Z</time>
      </trkpt>
      <trkpt lat="50.02684" lon="2.02137">
        <ele>44.3</ele>
        <time>2022-04-17T09:42:48Z</time>
      </trkpt>
      <trkpt lat="50.02685" lon="2.02135">
        <ele>44.3</ele>
        <time>2022-04-17T09:42:49Z</time>
      </trkpt>
      <trkpt lat="50.02685" lon="2.02134">
        <ele>44.4</ele>
        <time>2022-04-17T09:42:50Z</time>
      </trkpt>
      <trkpt lat="50.02686" lon="2.02133">
        <ele>44.5</ele>
        <time>2022-04-17T09:42:51Z</time>
      </trkpt>
      <trkpt lat="50.02686" lon="2.02131">
        <ele>44.5</ele>
        <time>2022-04-17T09:42:52Z</time>
      </trkpt>
      <trkpt lat="50.02687" lon="2.0213">
        <ele>44.6</ele>
        <time>2022-04-17T09:42:53Z</time>
      </trkpt>
      <trkpt lat="50.02688" lon="2.02129">
        <ele>44.7</ele>
        <time>2022-04-17T09:42:55Z</time>
      </trkpt>
      <trkpt lat="50.02689" lon="2.02128">
        <ele>44.8</ele>
        <time>2022-04-17T09:42:56Z</time>
      </trkpt>
      <trkpt lat="50.0269" lon="2.02127">
        <ele>44.9</ele>
        <time>2022-04-17T09:42:57Z</time>
      </trkpt>
      <trkpt lat="50.02691" lon="2.02126">
        <ele>44.9</ele>
        <time>2022-04-17T09:42:58Z</time>
      </trkpt>
      <trkpt lat="50.02692" lon="2.02125">
        <ele>45</ele>
        <time>2022-04-17T09:43:00Z</time>
      </trkpt>
      <trkpt lat="50.02692" lon="2.02123">
        <ele>45.1</ele>
        <time>2022-04-17T09:43:01Z</time>
      </trkpt>
      <trkpt lat="50.02693" lon="2.02122">
        <ele>45.2</ele>
        <time>2022-04-17T09:43:02Z</time>
      </trkpt>
      <trkpt lat="50.02693" lon="2.02121">
        <ele>45.2</ele>
        <time>2022-04-17T09:43:03Z</time>
      </trkpt>
      <trkpt lat="50.02694" lon="2.02119">
        <ele>45.3</ele>
        <time>2022-04-17T09:43:05Z</time>
      </trkpt>
      <trkpt lat="50.02694" lon="2.02118">
        <ele>45.4</ele>
        <time>2022-04-17T09:43:06Z</time>
      </trkpt>
      <trkpt lat="50.02695" lon="2.02116">
        <ele>45.4</ele>
        <time>2022-04-17T09:43:07Z</time>
      </trkpt>
      <trkpt lat="50.02696" lon="2.02115">
        <ele>45.5</ele>
        <time>2022-04-17T09:43:08Z</time>
      </trkpt>
      <trkpt lat="50.02696" lon="2.02114">
        <ele>45.6</ele>
        <time>2022-04-17T09:43:09Z</time>
      </trkpt>
      <trkpt lat="50.02697" lon="2.02112">
        <ele>45.7</ele>
        <time>2022-04-17T09:43:11Z</time>
      </trkpt>
      <trkpt lat="50.02697" lon="2.02111">
        <ele>45.7</ele>
        <time>2022-04-17T09:43:12Z</time>
      </trkpt>
      <trkpt lat="50.02698" lon="2.02109">
        <ele>45.8</ele>
        <time>2022-04-17T09:43:13Z</time>
      </trkpt>
      <trkpt lat="50.02698" lon="2.02108">
        <ele>45.9</ele>
        <time>2022-04-17T09:43:14Z</time>
      </trkpt>
      <trkpt lat="50.02699" lon="2.02107">
        <ele>45.9</ele>
        <time>2022-04-17T09:43:15Z</time>
      </trkpt>
      <trkpt lat="50.02699" lon="2.02105">
        <ele>46</ele>
        <time>2022-04-17T09:43:16Z</time>
      </trkpt>
      <trkpt lat="50.02699" lon="2.02104">
        <ele>46.1</ele>
        <time>2022-04-17T09:43:18Z</time>
      </trkpt>
      <trkpt lat="50.027" lon="2.02102">
        <ele>46.2</ele>
        <time>2022-04-17T09:43:19Z</time>
      </trkpt>
      <trkpt lat="50.02701" lon="2.02101">
        <ele>46.2</ele>
        <time>2022-04-17T09:43:20Z</time>
      </trkpt>
      <trkpt lat="50.02701" lon="2.02099">
        <ele>46.3</ele>
        <time>2022-04-17T09:43:21Z</time>
      </trkpt>
      <trkpt lat="50.02702" lon="2.02098">
        <ele>46.4</ele>
        <time>2022-04-17T09:43:22Z</time>
      </trkpt>
      <trkpt lat="50.02702" lon="2.02097">
        <ele>46.5</ele>
        <time>2022-04-17T09:43:24Z</time>
      </trkpt>
      <trkpt lat="50.02703" lon="2.02096">
        <ele>46.5</ele>
        <time>2022-04-17T09:43:25Z</time>
      </trkpt>
      <trkpt lat="50.02704" lon="2.02095">
        <ele>46.6</ele>
        <time>2022-04-17T09:43:26Z</time>
      </trkpt>
      <trkpt lat="50.02705" lon="2.02093">
        <ele>46.7</ele>
        <time>2022-04-17T09:43:27Z</time>
      </trkpt>
      <trkpt lat="50.02705" lon="2.02092">
        <ele>46.8</ele>
        <time>2022-04-17T09:43:29Z</time>
      </trkpt>
      <trkpt lat="50.02706" lon="2.0209">
        <ele>46.8</ele>
        <time>2022-04-17T09:43:30Z</time>
      </trkpt>
      <trkpt lat="50.02707" lon="2.02089">
        <ele>46.9</ele>
        <time>2022-04-17T09:43:31Z</time>
      </trkpt>
      <trkpt lat="50.02707" lon="2.02088">
        <ele>47</ele>
        <time>2022-04-17T09:43:32Z</time>
      </trkpt>
      <trkpt lat="50.02707" lon="2.02087">
        <ele>47</ele>
        <time>2022-04-17T09:43:33Z</time>
      </trkpt>
      <trkpt lat="50.02708" lon="2.02085">
        <ele>47.1</ele>
        <time>2022-04-17T09:43:35Z</time>
      </trkpt>
      <trkpt lat="50.02709" lon="2.02083">
        <ele>47.2</ele>
        <time>2022-04-17T09:43:36Z</time>
      </trkpt>
      <trkpt lat="50.02709" lon="2.02082">
        <ele>47.3</ele>
        <time>2022-04-17T09:43:37Z</time>
      </trkpt>
      <trkpt lat="50.0271" lon="2.02081">
        <ele>47.3</ele>
        <time>2022-04-17T09:43:38Z</time>
      </trkpt>
      <trkpt lat="50.0271" lon="2.02079">
        <ele>47.4</ele>
        <time>2022-04-17T09:43:39Z</time>
      </trkpt>
      <trkpt lat="50.02711" lon="2.02078">
        <ele>47.5</ele>
        <time>2022-04-17T09:43:40Z</time>
      </trkpt>
      <trkpt lat="50.02711" lon="2.02077">
        <ele>47.5</ele>
        <time>2022-04-17T09:43:41Z</time>
      </trkpt>
      <trkpt lat="50.02712" lon="2.02074">
        <ele>47.7</ele>
        <time>2022-04-17T09:43:43Z</time>
      </trkpt>
      <trkpt lat="50.02712" lon="2.02073">
        <ele>47.7</ele>
        <time>2022-04-17T09:43:44Z</time>
      </trkpt>
      <trkpt lat="50.02713" lon="2.02071">
        <ele>47.8</ele>
        <time>2022-04-17T09:43:45Z</time>
      </trkpt>
      <trkpt lat="50.02713" lon="2.0207">
        <ele>47.9</ele>
        <time>2022-04-17T09:43:46Z</time>
      </trkpt>
      <trkpt lat="50.02714" lon="2.02069">
        <ele>47.9</ele>
        <time>2022-04-17T09:43:47Z</time>
      </trkpt>
      <trkpt lat="50.02714" lon="2.02067">
        <ele>48</ele>
        <time>2022-04-17T09:43:48Z</time>
      </trkpt>
      <trkpt lat="50.02715" lon="2.02066">
        <ele>48.1</ele>
        <time>2022-04-17T09:43:50Z</time>
      </trkpt>
      <trkpt lat="50.02716" lon="2.02065">
        <ele>48.2</ele>
        <time>2022-04-17T09:43:51Z</time>
      </trkpt>
      <trkpt lat="50.02717" lon="2.02063">
        <ele>48.3</ele>
        <time>2022-04-17T09:43:52Z</time>
      </trkpt>
      <trkpt lat="50.02717" lon="2.02062">
        <ele>48.3</ele>
        <time>2022-04-17T09:43:53Z</time>
      </trkpt>
      <trkpt lat="50.02719" lon="2.02059">
        <ele>48.5</ele>
        <time>2022-04-17T09:43:55Z</time>
      </trkpt>
      <trkpt lat="50.02719" lon="2.02058">
        <ele>48.6</ele>
        <time>2022-04-17T09:43:56Z</time>
      </trkpt>
      <trkpt lat="50.0272" lon="2.02057">
        <ele>48.6</ele>
        <time>2022-04-17T09:43:57Z</time>
      </trkpt>
      <trkpt lat="50.0272" lon="2.02055">
        <ele>48.7</ele>
        <time>2022-04-17T09:43:58Z</time>
      </trkpt>
      <trkpt lat="50.02721" lon="2.02054">
        <ele>48.8</ele>
        <time>2022-04-17T09:44:00Z</time>
      </trkpt>
      <trkpt lat="50.02722" lon="2.02052">
        <ele>48.9</ele>
        <time>2022-04-17T09:44:01Z</time>
      </trkpt>
      <trkpt lat="50.02722" lon="2.02051">
        <ele>48.9</ele>
        <time>2022-04-17T09:44:02Z</time>
      </trkpt>
      <trkpt lat="50.02723" lon="2.0205">
        <ele>49</ele>
        <time>2022-04-17T09:44:03Z</time>
      </trkpt>
      <trkpt lat="50.02723" lon="2.02049">
        <ele>49</ele>
        <time>2022-04-17T09:44:04Z</time>
      </trkpt>
      <trkpt lat="50.02724" lon="2.02048">
        <ele>49.1</ele>
        <time>2022-04-17T09:44:05Z</time>
      </trkpt>
      <trkpt lat="50.02724" lon="2.02046">
        <ele>49.2</ele>
        <time>2022-04-17T09:44:07Z</time>
      </trkpt>
      <trkpt lat="50.02725" lon="2.02045">
        <ele>49.3</ele>
        <time>2022-04-17T09:44:08Z</time>
      </trkpt>
      <trkpt lat="50.02725" lon="2.02043">
        <ele>49.3</ele>
        <time>2022-04-17T09:44:09Z</time>
      </trkpt>
      <trkpt lat="50.02726" lon="2.02042">
        <ele>49.4</ele>
        <time>2022-04-17T09:44:10Z</time>
      </trkpt>
      <trkpt lat="50.02726" lon="2.0204">
        <ele>49.5</ele>
        <time>2022-04-17T09:44:12Z</time>
      </trkpt>
      <trkpt lat="50.02727" lon="2.02038">
        <ele>49.6</ele>
        <time>2022-04-17T09:44:13Z</time>
      </trkpt>
      <trkpt lat="50.02728" lon="2.02037">
        <ele>49.7</ele>
        <time>2022-04-17T09:44:14Z</time>
      </trkpt>
      <trkpt lat="50.02728" lon="2.02036">
        <ele>49.7</ele>
        <time>2022-04-17T09:44:15Z</time>
      </trkpt>
      <trkpt lat="50.02729" lon="2.02034">
        <ele>49.8</ele>
        <time>2022-04-17T09:44:16Z</time>
      </trkpt>
      <trkpt lat="50.02729" lon="2.02033">
        <ele>49.9</ele>
        <time>2022-04-17T09:44:17Z</time>
      </trkpt>
      <trkpt lat="50.0273" lon="2.02032">
        <ele>49.9</ele>
        <time>2022-04-17T09:44:18Z</time>
      </trkpt>
      <trkpt lat="50.02731" lon="2.02031">
        <ele>50</ele>
        <time>2022-04-17T09:44:20Z</time>
      </trkpt>
      <trkpt lat="50.02731" lon="2.02029">
        <ele>50.1</ele>
        <time>2022-04-17T09:44:21Z</time>
      </trkpt>
      <trkpt lat="50.02732" lon="2.02028">
        <ele>50.2</ele>
        <time>2022-04-17T09:44:22Z</time>
      </trkpt>
      <trkpt lat="50.02733" lon="2.02027">
        <ele>50.2</ele>
        <time>2022-04-17T09:44:23Z</time>
      </trkpt>
      <trkpt lat="50.02734" lon="2.02026">
        <ele>50.3</ele>
        <time>2022-04-17T09:44:24Z</time>
      </trkpt>
      <trkpt lat="50.02734" lon="2.02025">
        <ele>50.4</ele>
        <time>2022-04-17T09:44:26Z</time>
      </trkpt>
      <trkpt lat="50.02735" lon="2.02023">
        <ele>50.5</ele>
        <time>2022-04-17T09:44:27Z</time>
      </trkpt>
      <trkpt lat="50.02736" lon="2.02022">
        <ele>50.5</ele>
        <time>2022-04-17T09:44:28Z</time>
      </trkpt>
      <trkpt lat="50.02736" lon="2.02021">
        <ele>50.6</ele>
        <time>2022-04-17T09:44:29Z</time>
      </trkpt>
      <trkpt lat="50.02737" lon="2.0202">
        <ele>50.7</ele>
        <time>2022-04-17T09:44:30Z</time>
      </trkpt>
      <trkpt lat="50.02738" lon="2.02019">
        <ele>50.7</ele>
        <time>2022-04-17T09:44:31Z</time>
      </trkpt>
      <trkpt lat="50.02738" lon="2.02018">
        <ele>50.8</ele>
        <time>2022-04-17T09:44:32Z</time>
      </trkpt>
      <trkpt lat="50.02739" lon="2.02016">
        <ele>50.9</ele>
        <time>2022-04-17T09:44:34Z</time>
      </trkpt>
      <trkpt lat="50.0274" lon="2.02014">
        <ele>51</ele>
        <time>2022-04-17T09:44:35Z</time>
      </trkpt>
      <trkpt lat="50.02741" lon="2.02013">
        <ele>51</ele>
        <time>2022-04-17T09:44:36Z</time>
      </trkpt>
      <trkpt lat="50.02741" lon="2.02012">
        <ele>51.1</ele>
        <time>2022-04-17T09:44:37Z</time>
      </trkpt>
      <trkpt lat="50.02742" lon="2.02011">
        <ele>51.2</ele>
        <time>2022-04-17T09:44:39Z</time>
      </trkpt>
      <trkpt lat="50.02743" lon="2.02009">
        <ele>51.3</ele>
        <time>2022-04-17T09:44:40Z</time>
      </trkpt>
      <trkpt lat="50.02743" lon="2.02008">
        <ele>51.3</ele>
        <time>2022-04-17T09:44:41Z</time>
      </trkpt>
      <trkpt lat="50.02744" lon="2.02007">
        <ele>51.4</ele>
        <time>2022-04-17T09:44:43Z</time>
      </trkpt>
      <trkpt lat="50.02745" lon="2.02006">
        <ele>51.5</ele>
        <time>2022-04-17T09:44:44Z</time>
      </trkpt>
      <trkpt lat="50.02745" lon="2.02004">
        <ele>51.5</ele>
        <time>2022-04-17T09:44:45Z</time>
      </trkpt>
      <trkpt lat="50.02746" lon="2.02003">
        <ele>51.6</ele>
        <time>2022-04-17T09:44:46Z</time>
      </trkpt>
      <trkpt lat="50.02746" lon="2.02002">
        <ele>51.7</ele>
        <time>2022-04-17T09:44:47Z</time>
      </trkpt>
      <trkpt lat="50.02746" lon="2.02001">
        <ele>51.7</ele>
        <time>2022-04-17T09:44:48Z</time>
      </trkpt>
      <trkpt lat="50.02747" lon="2.02">
        <ele>51.8</ele>
        <time>2022-04-17T09:44:49Z</time>
      </trkpt>
      <trkpt lat="50.02747" lon="2.01998">
        <ele>51.9</ele>
        <time>2022-04-17T09:44:51Z</time>
      </trkpt>
      <trkpt lat="50.02748" lon="2.01997">
        <ele>51.9</ele>
        <time>2022-04-17T09:44:52Z</time>
      </trkpt>
      <trkpt lat="50.02748" lon="2.01995">
        <ele>52</ele>
        <time>2022-04-17T09:44:53Z</time>
      </trkpt>
      <trkpt lat="50.02749" lon="2.01994">
        <ele>52.1</ele>
        <time>2022-04-17T09:44:54Z</time>
      </trkpt>
      <trkpt lat="50.02749" lon="2.01993">
        <ele>52.1</ele>
        <time>2022-04-17T09:44:55Z</time>
      </trkpt>
      <trkpt lat="50.0275" lon="2.01991">
        <ele>52.2</ele>
        <time>2022-04-17T09:44:57Z</time>
      </trkpt>
      <trkpt lat="50.02751" lon="2.0199">
        <ele>52.3</ele>
        <time>2022-04-17T09:44:58Z</time>
      </trkpt>
      <trkpt lat="50.02751" lon="2.01988">
        <ele>52.4</ele>
        <time>2022-04-17T09:44:59Z</time>
      </trkpt>
      <trkpt lat="50.02751" lon="2.01987">
        <ele>52.4</ele>
        <time>2022-04-17T09:45:01Z</time>
      </trkpt>
      <trkpt lat="50.02752" lon="2.01985">
        <ele>52.5</ele>
        <time>2022-04-17T09:45:02Z</time>
      </trkpt>
      <trkpt lat="50.02753" lon="2.01984">
        <ele>52.6</ele>
        <time>2022-04-17T09:45:03Z</time>
      </trkpt>
      <trkpt lat="50.02753" lon="2.01982">
        <ele>52.7</ele>
        <time>2022-04-17T09:45:04Z</time>
      </trkpt>
      <trkpt lat="50.02754" lon="2.01981">
        <ele>52.7</ele>
        <time>2022-04-17T09:45:06Z</time>
      </trkpt>
      <trkpt lat="50.02754" lon="2.01979">
        <ele>52.8</ele>
        <time>2022-04-17T09:45:07Z</time>
      </trkpt>
      <trkpt lat="50.02755" lon="2.01978">
        <ele>52.9</ele>
        <time>2022-04-17T09:45:08Z</time>
      </trkpt>
      <trkpt lat="50.02756" lon="2.01976">
        <ele>53</ele>
        <time>2022-04-17T09:45:09Z</time>
      </trkpt>
      <trkpt lat="50.02756" lon="2.01975">
        <ele>53.1</ele>
        <time>2022-04-17T09:45:10Z</time>
      </trkpt>
      <trkpt lat="50.02757" lon="2.01974">
        <ele>53.1</ele>
        <time>2022-04-17T09:45:11Z</time>
      </trkpt>
      <trkpt lat="50.02758" lon="2.01973">
        <ele>53.2</ele>
        <time>2022-04-17T09:45:12Z</time>
      </trkpt>
      <trkpt lat="50.02758" lon="2.01971">
        <ele>53.3</ele>
        <time>2022-04-17T09:45:14Z</time>
      </trkpt>
      <trkpt lat="50.02759" lon="2.0197">
        <ele>53.4</ele>
        <time>2022-04-17T09:45:15Z</time>
      </trkpt>
      <trkpt lat="50.0276" lon="2.01969">
        <ele>53.4</ele>
        <time>2022-04-17T09:45:16Z</time>
      </trkpt>
      <trkpt lat="50.02761" lon="2.01968">
        <ele>53.5</ele>
        <time>2022-04-17T09:45:17Z</time>
      </trkpt>
      <trkpt lat="50.02762" lon="2.01966">
        <ele>53.6</ele>
        <time>2022-04-17T09:45:19Z</time>
      </trkpt>
      <trkpt lat="50.02763" lon="2.01965">
        <ele>53.7</ele>
        <time>2022-04-17T09:45:20Z</time>
      </trkpt>
      <trkpt lat="50.02764" lon="2.01964">
        <ele>53.8</ele>
        <time>2022-04-17T09:45:21Z</time>
      </trkpt>
      <trkpt lat="50.02765" lon="2.01963">
        <ele>53.9</ele>
        <time>2022-04-17T09:45:22Z</time>
      </trkpt>
      <trkpt lat="50.02766" lon="2.01962">
        <ele>53.9</ele>
        <time>2022-04-17T09:45:23Z</time>
      </trkpt>
      <trkpt lat="50.02767" lon="2.01961">
        <ele>54</ele>
        <time>2022-04-17T09:45:24Z</time>
      </trkpt>
      <trkpt lat="50.02767" lon="2.0196">
        <ele>54.1</ele>
        <time>2022-04-17T09:45:26Z</time>
      </trkpt>
      <trkpt lat="50.02768" lon="2.01958">
        <ele>54.2</ele>
        <time>2022-04-17T09:45:27Z</time>
      </trkpt>
      <trkpt lat="50.02769" lon="2.01957">
        <ele>54.3</ele>
        <time>2022-04-17T09:45:28Z</time>
      </trkpt>
      <trkpt lat="50.0277" lon="2.01956">
        <ele>54.3</ele>
        <time>2022-04-17T09:45:29Z</time>
      </trkpt>
      <trkpt lat="50.02771" lon="2.01955">
        <ele>54.4</ele>
        <time>2022-04-17T09:45:31Z</time>
      </trkpt>
      <trkpt lat="50.02772" lon="2.01954">
        <ele>54.5</ele>
        <time>2022-04-17T09:45:32Z</time>
      </trkpt>
      <trkpt lat="50.02773" lon="2.01953">
        <ele>54.6</ele>
        <time>2022-04-17T09:45:33Z</time>
      </trkpt>
      <trkpt lat="50.02774" lon="2.01952">
        <ele>54.6</ele>
        <time>2022-04-17T09:45:34Z</time>
      </trkpt>
      <trkpt lat="50.02774" lon="2.01951">
        <ele>54.7</ele>
        <time>2022-04-17T09:45:35Z</time>
      </trkpt>
      <trkpt lat="50.02775" lon="2.0195">
        <ele>54.8</ele>
        <time>2022-04-17T09:45:36Z</time>
      </trkpt>
      <trkpt lat="50.02776" lon="2.01949">
        <ele>54.8</ele>
        <time>2022-04-17T09:45:38Z</time>
      </trkpt>
      <trkpt lat="50.02777" lon="2.01948">
        <ele>54.9</ele>
        <time>2022-04-17T09:45:39Z</time>
      </trkpt>
      <trkpt lat="50.02778" lon="2.01947">
        <ele>55</ele>
        <time>2022-04-17T09:45:40Z</time>
      </trkpt>
      <trkpt lat="50.02778" lon="2.01947">
        <ele>55</ele>
        <time>2022-04-17T09:45:41Z</time>
      </trkpt>
      <trkpt lat="50.02779" lon="2.01946">
        <ele>55.1</ele>
        <time>2022-04-17T09:45:42Z</time>
      </trkpt>
      <trkpt lat="50.02779" lon="2.01945">
        <ele>55.1</ele>
        <time>2022-04-17T09:45:43Z</time>
      </trkpt>
      <trkpt lat="50.0278" lon="2.01944">
        <ele>55.2</ele>
        <time>2022-04-17T09:45:44Z</time>
      </trkpt>
      <trkpt lat="50.0278" lon="2.01943">
        <ele>55.2</ele>
        <time>2022-04-17T09:45:45Z</time>
      </trkpt>
      <trkpt lat="50.0278" lon="2.01942">
        <ele>55.3</ele>
        <time>2022-04-17T09:45:47Z</time>
      </trkpt>
      <trkpt lat="50.02781" lon="2.0194">
        <ele>55.4</ele>
        <time>2022-04-17T09:45:48Z</time>
      </trkpt>
      <trkpt lat="50.02782" lon="2.01939">
        <ele>55.4</ele>
        <time>2022-04-17T09:45:49Z</time>
      </trkpt>
      <trkpt lat="50.02782" lon="2.01938">
        <ele>55.5</ele>
        <time>2022-04-17T09:45:50Z</time>
      </trkpt>
      <trkpt lat="50.02783" lon="2.01937">
        <ele>55.6</ele>
        <time>2022-04-17T09:45:52Z</time>
      </trkpt>
      <trkpt lat="50.02784" lon="2.01936">
        <ele>55.6</ele>
        <time>2022-04-17T09:45:53Z</time>
      </trkpt>
      <trkpt lat="50.02784" lon="2.01935">
        <ele>55.7</ele>
        <time>2022-04-17T09:45:54Z</time>
      </trkpt>
      <trkpt lat="50.02785" lon="2.01934">
        <ele>55.8</ele>
        <time>2022-04-17T09:45:55Z</time>
      </trkpt>
      <trkpt lat="50.02785" lon="2.01933">
        <ele>55.8</ele>
        <time>2022-04-17T09:45:56Z</time>
      </trkpt>
      <trkpt lat="50.02786" lon="2.01931">
        <ele>55.9</ele>
        <time>2022-04-17T09:45:58Z</time>
      </trkpt>
      <trkpt lat="50.02786" lon="2.0193">
        <ele>56</ele>
        <time>2022-04-17T09:45:59Z</time>
      </trkpt>
      <trkpt lat="50.02787" lon="2.01928">
        <ele>56.1</ele>
        <time>2022-04-17T09:46:00Z</time>
      </trkpt>
      <trkpt lat="50.02787" lon="2.01926">
        <ele>56.1</ele>
        <time>2022-04-17T09:46:02Z</time>
      </trkpt>
      <trkpt lat="50.02788" lon="2.01925">
        <ele>56.2</ele>
        <time>2022-04-17T09:46:03Z</time>
      </trkpt>
      <trkpt lat="50.02789" lon="2.01923">
        <ele>56.3</ele>
        <time>2022-04-17T09:46:04Z</time>
      </trkpt>
      <trkpt lat="50.02789" lon="2.01921">
        <ele>56.4</ele>
        <time>2022-04-17T09:46:06Z</time>
      </trkpt>
      <trkpt lat="50.02789" lon="2.0192">
        <ele>56.5</ele>
        <time>2022-04-17T09:46:07Z</time>
      </trkpt>
      <trkpt lat="50.0279" lon="2.01919">
        <ele>56.5</ele>
        <time>2022-04-17T09:46:08Z</time>
      </trkpt>
      <trkpt lat="50.0279" lon="2.01917">
        <ele>56.6</ele>
        <time>2022-04-17T09:46:10Z</time>
      </trkpt>
      <trkpt lat="50.02791" lon="2.01916">
        <ele>56.7</ele>
        <time>2022-04-17T09:46:11Z</time>
      </trkpt>
      <trkpt lat="50.02791" lon="2.01915">
        <ele>56.7</ele>
        <time>2022-04-17T09:46:12Z</time>
      </trkpt>
      <trkpt lat="50.02792" lon="2.01914">
        <ele>56.8</ele>
        <time>2022-04-17T09:46:14Z</time>
      </trkpt>
      <trkpt lat="50.02793" lon="2.01912">
        <ele>56.9</ele>
        <time>2022-04-17T09:46:15Z</time>
      </trkpt>
      <trkpt lat="50.02794" lon="2.01911">
        <ele>57</ele>
        <time>2022-04-17T09:46:16Z</time>
      </trkpt>
      <trkpt lat="50.02794" lon="2.0191">
        <ele>57</ele>
        <time>2022-04-17T09:46:17Z</time>
      </trkpt>
      <trkpt lat="50.02796" lon="2.01907">
        <ele>57.2</ele>
        <time>2022-04-17T09:46:19Z</time>
      </trkpt>
      <trkpt lat="50.02796" lon="2.01906">
        <ele>57.3</ele>
        <time>2022-04-17T09:46:20Z</time>
      </trkpt>
      <trkpt lat="50.02797" lon="2.01905">
        <ele>57.3</ele>
        <time>2022-04-17T09:46:21Z</time>
      </trkpt>
      <trkpt lat="50.02797" lon="2.01904">
        <ele>57.4</ele>
        <time>2022-04-17T09:46:22Z</time>
      </trkpt>
      <trkpt lat="50.02798" lon="2.01902">
        <ele>57.5</ele>
        <time>2022-04-17T09:46:24Z</time>
      </trkpt>
      <trkpt lat="50.02799" lon="2.01901">
        <ele>57.6</ele>
        <time>2022-04-17T09:46:25Z</time>
      </trkpt>
      <trkpt lat="50.02799" lon="2.019">
        <ele>57.6</ele>
        <time>2022-04-17T09:46:26Z</time>
      </trkpt>
      <trkpt lat="50.028" lon="2.01899">
        <ele>57.7</ele>
        <time>2022-04-17T09:46:27Z</time>
      </trkpt>
      <trkpt lat="50.02801" lon="2.01898">
        <ele>57.7</ele>
        <time>2022-04-17T09:46:28Z</time>
      </trkpt>
      <trkpt lat="50.02801" lon="2.01897">
        <ele>57.8</ele>
        <time>2022-04-17T09:46:29Z</time>
      </trkpt>
      <trkpt lat="50.02803" lon="2.01894">
        <ele>57.9</ele>
        <time>2022-04-17T09:46:31Z</time>
      </trkpt>
      <trkpt lat="50.02803" lon="2.01893">
        <ele>58</ele>
        <time>2022-04-17T09:46:32Z</time>
      </trkpt>
      <trkpt lat="50.02804" lon="2.01892">
        <ele>58</ele>
        <time>2022-04-17T09:46:33Z</time>
      </trkpt>
      <trkpt lat="50.02804" lon="2.01891">
        <ele>58.1</ele>
        <time>2022-04-17T09:46:34Z</time>
      </trkpt>
      <trkpt lat="50.02805" lon="2.0189">
        <ele>58.2</ele>
        <time>2022-04-17T09:46:35Z</time>
      </trkpt>
      <trkpt lat="50.02805" lon="2.01889">
        <ele>58.2</ele>
        <time>2022-04-17T09:46:36Z</time>
      </trkpt>
      <trkpt lat="50.02806" lon="2.01887">
        <ele>58.3</ele>
        <time>2022-04-17T09:46:38Z</time>
      </trkpt>
      <trkpt lat="50.02807" lon="2.01886">
        <ele>58.4</ele>
        <time>2022-04-17T09:46:39Z</time>
      </trkpt>
      <trkpt lat="50.02807" lon="2.01885">
        <ele>58.5</ele>
        <time>2022-04-17T09:46:40Z</time>
      </trkpt>
      <trkpt lat="50.02808" lon="2.01884">
        <ele>58.5</ele>
        <time>2022-04-17T09:46:41Z</time>
      </trkpt>
      <trkpt lat="50.02809" lon="2.01883">
        <ele>58.6</ele>
        <time>2022-04-17T09:46:42Z</time>
      </trkpt>
      <trkpt lat="50.02809" lon="2.01882">
        <ele>58.7</ele>
        <time>2022-04-17T09:46:43Z</time>
      </trkpt>
      <trkpt lat="50.0281" lon="2.01881">
        <ele>58.7</ele>
        <time>2022-04-17T09:46:45Z</time>
      </trkpt>
      <trkpt lat="50.02811" lon="2.0188">
        <ele>58.8</ele>
        <time>2022-04-17T09:46:46Z</time>
      </trkpt>
      <trkpt lat="50.02811" lon="2.01879">
        <ele>58.9</ele>
        <time>2022-04-17T09:46:47Z</time>
      </trkpt>
      <trkpt lat="50.02812" lon="2.01878">
        <ele>58.9</ele>
        <time>2022-04-17T09:46:48Z</time>
      </trkpt>
      <trkpt lat="50.02813" lon="2.01875">
        <ele>59.1</ele>
        <time>2022-04-17T09:46:50Z</time>
      </trkpt>
      <trkpt lat="50.02814" lon="2.01874">
        <ele>59.1</ele>
        <time>2022-04-17T09:46:51Z</time>
      </trkpt>
      <trkpt lat="50.02814" lon="2.01873">
        <ele>59.2</ele>
        <time>2022-04-17T09:46:52Z</time>
      </trkpt>
      <trkpt lat="50.02815" lon="2.01872">
        <ele>59.3</ele>
        <time>2022-04-17T09:46:54Z</time>
      </trkpt>
      <trkpt lat="50.02816" lon="2.0187">
        <ele>59.3</ele>
        <time>2022-04-17T09:46:55Z</time>
      </trkpt>
      <trkpt lat="50.02816" lon="2.01869">
        <ele>59.4</ele>
        <time>2022-04-17T09:46:56Z</time>
      </trkpt>
      <trkpt lat="50.02817" lon="2.01867">
        <ele>59.5</ele>
        <time>2022-04-17T09:46:57Z</time>
      </trkpt>
      <trkpt lat="50.02817" lon="2.01866">
        <ele>59.6</ele>
        <time>2022-04-17T09:46:59Z</time>
      </trkpt>
      <trkpt lat="50.02818" lon="2.01864">
        <ele>59.7</ele>
        <time>2022-04-17T09:47:00Z</time>
      </trkpt>
      <trkpt lat="50.02818" lon="2.01863">
        <ele>59.7</ele>
        <time>2022-04-17T09:47:01Z</time>
      </trkpt>
      <trkpt lat="50.02819" lon="2.01861">
        <ele>59.8</ele>
        <time>2022-04-17T09:47:02Z</time>
      </trkpt>
      <trkpt lat="50.02819" lon="2.0186">
        <ele>59.9</ele>
        <time>2022-04-17T09:47:04Z</time>
      </trkpt>
      <trkpt lat="50.0282" lon="2.01858">
        <ele>60</ele>
        <time>2022-04-17T09:47:05Z</time>
      </trkpt>
      <trkpt lat="50.0282" lon="2.01857">
        <ele>60</ele>
        <time>2022-04-17T09:47:06Z</time>
      </trkpt>
      <trkpt lat="50.02821" lon="2.01856">
        <ele>60.1</ele>
        <time>2022-04-17T09:47:08Z</time>
      </trkpt>
      <trkpt lat="50.02822" lon="2.01854">
        <ele>60.2</ele>
        <time>2022-04-17T09:47:09Z</time>
      </trkpt>
      <trkpt lat="50.02822" lon="2.01853">
        <ele>60.2</ele>
        <time>2022-04-17T09:47:10Z</time>
      </trkpt>
      <trkpt lat="50.02823" lon="2.01851">
        <ele>60.3</ele>
        <time>2022-04-17T09:47:11Z</time>
      </trkpt>
      <trkpt lat="50.02823" lon="2.0185">
        <ele>60.4</ele>
        <time>2022-04-17T09:47:12Z</time>
      </trkpt>
      <trkpt lat="50.02824" lon="2.01848">
        <ele>60.5</ele>
        <time>2022-04-17T09:47:14Z</time>
      </trkpt>
      <trkpt lat="50.02824" lon="2.01847">
        <ele>60.5</ele>
        <time>2022-04-17T09:47:15Z</time>
      </trkpt>
      <trkpt lat="50.02825" lon="2.01845">
        <ele>60.6</ele>
        <time>2022-04-17T09:47:16Z</time>
      </trkpt>
      <trkpt lat="50.02825" lon="2.01844">
        <ele>60.7</ele>
        <time>2022-04-17T09:47:18Z</time>
      </trkpt>
      <trkpt lat="50.02826" lon="2.01843">
        <ele>60.7</ele>
        <time>2022-04-17T09:47:19Z</time>
      </trkpt>
      <trkpt lat="50.02827" lon="2.01843">
        <ele>60.8</ele>
        <time>2022-04-17T09:47:20Z</time>
      </trkpt>
      <trkpt lat="50.02828" lon="2.01842">
        <ele>60.9</ele>
        <time>2022-04-17T09:47:21Z</time>
      </trkpt>
      <trkpt lat="50.02828" lon="2.0184">
        <ele>61</ele>
        <time>2022-04-17T09:47:23Z</time>
      </trkpt>
      <trkpt lat="50.02829" lon="2.01838">
        <ele>61</ele>
        <time>2022-04-17T09:47:24Z</time>
      </trkpt>
      <trkpt lat="50.0283" lon="2.01837">
        <ele>61.1</ele>
        <time>2022-04-17T09:47:25Z</time>
      </trkpt>
      <trkpt lat="50.0283" lon="2.01836">
        <ele>61.2</ele>
        <time>2022-04-17T09:47:26Z</time>
      </trkpt>
      <trkpt lat="50.02831" lon="2.01833">
        <ele>61.3</ele>
        <time>2022-04-17T09:47:28Z</time>
      </trkpt>
      <trkpt lat="50.02832" lon="2.01832">
        <ele>61.4</ele>
        <time>2022-04-17T09:47:29Z</time>
      </trkpt>
      <trkpt lat="50.02832" lon="2.01831">
        <ele>61.4</ele>
        <time>2022-04-17T09:47:30Z</time>
      </trkpt>
      <trkpt lat="50.02833" lon="2.0183">
        <ele>61.5</ele>
        <time>2022-04-17T09:47:32Z</time>
      </trkpt>
      <trkpt lat="50.02834" lon="2.01829">
        <ele>61.6</ele>
        <time>2022-04-17T09:47:33Z</time>
      </trkpt>
      <trkpt lat="50.02835" lon="2.01828">
        <ele>61.6</ele>
        <time>2022-04-17T09:47:34Z</time>
      </trkpt>
      <trkpt lat="50.02835" lon="2.01827">
        <ele>61.7</ele>
        <time>2022-04-17T09:47:35Z</time>
      </trkpt>
      <trkpt lat="50.02835" lon="2.01826">
        <ele>61.8</ele>
        <time>2022-04-17T09:47:36Z</time>
      </trkpt>
      <trkpt lat="50.02836" lon="2.01825">
        <ele>61.8</ele>
        <time>2022-04-17T09:47:37Z</time>
      </trkpt>
      <trkpt lat="50.02836" lon="2.01823">
        <ele>61.9</ele>
        <time>2022-04-17T09:47:39Z</time>
      </trkpt>
      <trkpt lat="50.02836" lon="2.01822">
        <ele>62</ele>
        <time>2022-04-17T09:47:40Z</time>
      </trkpt>
      <trkpt lat="50.02837" lon="2.0182">
        <ele>62</ele>
        <time>2022-04-17T09:47:41Z</time>
      </trkpt>
      <trkpt lat="50.02837" lon="2.01819">
        <ele>62.1</ele>
        <time>2022-04-17T09:47:42Z</time>
      </trkpt>
      <trkpt lat="50.02838" lon="2.01818">
        <ele>62.2</ele>
        <time>2022-04-17T09:47:43Z</time>
      </trkpt>
      <trkpt lat="50.02838" lon="2.01817">
        <ele>62.2</ele>
        <time>2022-04-17T09:47:44Z</time>
      </trkpt>
      <trkpt lat="50.02839" lon="2.01815">
        <ele>62.3</ele>
        <time>2022-04-17T09:47:45Z</time>
      </trkpt>
      <trkpt lat="50.02839" lon="2.01814">
        <ele>62.3</ele>
        <time>2022-04-17T09:47:46Z</time>
      </trkpt>
      <trkpt lat="50.0284" lon="2.01813">
        <ele>62.4</ele>
        <time>2022-04-17T09:47:48Z</time>
      </trkpt>
      <trkpt lat="50.02841" lon="2.01812">
        <ele>62.5</ele>
        <time>2022-04-17T09:47:49Z</time>
      </trkpt>
      <trkpt lat="50.02841" lon="2.01811">
        <ele>62.6</ele>
        <time>2022-04-17T09:47:50Z</time>
      </trkpt>
      <trkpt lat="50.02842" lon="2.0181">
        <ele>62.6</ele>
        <time>2022-04-17T09:47:51Z</time>
      </trkpt>
      <trkpt lat="50.02843" lon="2.01809">
        <ele>62.7</ele>
        <time>2022-04-17T09:47:53Z</time>
      </trkpt>
      <trkpt lat="50.02843" lon="2.01808">
        <ele>62.8</ele>
        <time>2022-04-17T09:47:54Z</time>
      </trkpt>
      <trkpt lat="50.02844" lon="2.01807">
        <ele>62.8</ele>
        <time>2022-04-17T09:47:55Z</time>
      </trkpt>
      <trkpt lat="50.02844" lon="2.01806">
        <ele>62.9</ele>
        <time>2022-04-17T09:47:56Z</time>
      </trkpt>
      <trkpt lat="50.02845" lon="2.01804">
        <ele>63</ele>
        <time>2022-04-17T09:47:58Z</time>
      </trkpt>
      <trkpt lat="50.02846" lon="2.01803">
        <ele>63</ele>
        <time>2022-04-17T09:47:59Z</time>
      </trkpt>
      <trkpt lat="50.02846" lon="2.01801">
        <ele>63.1</ele>
        <time>2022-04-17T09:48:00Z</time>
      </trkpt>
      <trkpt lat="50.02847" lon="2.018">
        <ele>63.2</ele>
        <time>2022-04-17T09:48:01Z</time>
      </trkpt>
      <trkpt lat="50.02847" lon="2.01799">
        <ele>63.2</ele>
        <time>2022-04-17T09:48:02Z</time>
      </trkpt>
      <trkpt lat="50.02848" lon="2.01798">
        <ele>63.3</ele>
        <time>2022-04-17T09:48:03Z</time>
      </trkpt>
      <trkpt lat="50.02848" lon="2.01796">
        <ele>63.4</ele>
        <time>2022-04-17T09:48:05Z</time>
      </trkpt>
      <trkpt lat="50.02849" lon="2.01795">
        <ele>63.4</ele>
        <time>2022-04-17T09:48:06Z</time>
      </trkpt>
      <trkpt lat="50.0285" lon="2.01793">
        <ele>63.5</ele>
        <time>2022-04-17T09:48:07Z</time>
      </trkpt>
      <trkpt lat="50.0285" lon="2.01792">
        <ele>63.6</ele>
        <time>2022-04-17T09:48:08Z</time>
      </trkpt>
      <trkpt lat="50.02851" lon="2.01789">
        <ele>63.7</ele>
        <time>2022-04-17T09:48:10Z</time>
      </trkpt>
      <trkpt lat="50.02852" lon="2.01788">
        <ele>63.8</ele>
        <time>2022-04-17T09:48:11Z</time>
      </trkpt>
      <trkpt lat="50.02852" lon="2.01787">
        <ele>63.9</ele>
        <time>2022-04-17T09:48:12Z</time>
      </trkpt>
      <trkpt lat="50.02853" lon="2.01786">
        <ele>63.9</ele>
        <time>2022-04-17T09:48:13Z</time>
      </trkpt>
      <trkpt lat="50.02854" lon="2.01784">
        <ele>64</ele>
        <time>2022-04-17T09:48:15Z</time>
      </trkpt>
      <trkpt lat="50.02855" lon="2.01783">
        <ele>64.1</ele>
        <time>2022-04-17T09:48:16Z</time>
      </trkpt>
      <trkpt lat="50.02855" lon="2.01782">
        <ele>64.2</ele>
        <time>2022-04-17T09:48:17Z</time>
      </trkpt>
      <trkpt lat="50.02856" lon="2.0178">
        <ele>64.2</ele>
        <time>2022-04-17T09:48:18Z</time>
      </trkpt>
      <trkpt lat="50.02857" lon="2.01779">
        <ele>64.3</ele>
        <time>2022-04-17T09:48:20Z</time>
      </trkpt>
      <trkpt lat="50.02858" lon="2.01778">
        <ele>64.4</ele>
        <time>2022-04-17T09:48:21Z</time>
      </trkpt>
      <trkpt lat="50.02858" lon="2.01776">
        <ele>64.5</ele>
        <time>2022-04-17T09:48:22Z</time>
      </trkpt>
      <trkpt lat="50.02859" lon="2.01775">
        <ele>64.6</ele>
        <time>2022-04-17T09:48:23Z</time>
      </trkpt>
      <trkpt lat="50.02859" lon="2.01773">
        <ele>64.6</ele>
        <time>2022-04-17T09:48:24Z</time>
      </trkpt>
      <trkpt lat="50.0286" lon="2.01772">
        <ele>64.7</ele>
        <time>2022-04-17T09:48:25Z</time>
      </trkpt>
      <trkpt lat="50.0286" lon="2.0177">
        <ele>64.8</ele>
        <time>2022-04-17T09:48:26Z</time>
      </trkpt>
      <trkpt lat="50.0286" lon="2.01769">
        <ele>64.9</ele>
        <time>2022-04-17T09:48:27Z</time>
      </trkpt>
      <trkpt lat="50.02861" lon="2.01767">
        <ele>64.9</ele>
        <time>2022-04-17T09:48:28Z</time>
      </trkpt>
      <trkpt lat="50.02861" lon="2.01766">
        <ele>65</ele>
        <time>2022-04-17T09:48:29Z</time>
      </trkpt>
      <trkpt lat="50.02862" lon="2.01765">
        <ele>65</ele>
        <time>2022-04-17T09:48:30Z</time>
      </trkpt>
      <trkpt lat="50.02862" lon="2.01763">
        <ele>65.1</ele>
        <time>2022-04-17T09:48:31Z</time>
      </trkpt>
      <trkpt lat="50.02863" lon="2.0176">
        <ele>65.3</ele>
        <time>2022-04-17T09:48:33Z</time>
      </trkpt>
      <trkpt lat="50.02864" lon="2.01759">
        <ele>65.4</ele>
        <time>2022-04-17T09:48:35Z</time>
      </trkpt>
      <trkpt lat="50.02864" lon="2.01757">
        <ele>65.4</ele>
        <time>2022-04-17T09:48:36Z</time>
      </trkpt>
      <trkpt lat="50.02865" lon="2.01756">
        <ele>65.5</ele>
        <time>2022-04-17T09:48:37Z</time>
      </trkpt>
      <trkpt lat="50.02865" lon="2.01754">
        <ele>65.6</ele>
        <time>2022-04-17T09:48:38Z</time>
      </trkpt>
      <trkpt lat="50.02865" lon="2.01753">
        <ele>65.6</ele>
        <time>2022-04-17T09:48:40Z</time>
      </trkpt>
      <trkpt lat="50.02866" lon="2.01751">
        <ele>65.7</ele>
        <time>2022-04-17T09:48:41Z</time>
      </trkpt>
      <trkpt lat="50.02866" lon="2.0175">
        <ele>65.8</ele>
        <time>2022-04-17T09:48:42Z</time>
      </trkpt>
      <trkpt lat="50.02867" lon="2.01748">
        <ele>65.9</ele>
        <time>2022-04-17T09:48:43Z</time>
      </trkpt>
      <trkpt lat="50.02867" lon="2.01747">
        <ele>65.9</ele>
        <time>2022-04-17T09:48:44Z</time>
      </trkpt>
      <trkpt lat="50.02868" lon="2.01746">
        <ele>66</ele>
        <time>2022-04-17T09:48:45Z</time>
      </trkpt>
      <trkpt lat="50.02868" lon="2.01744">
        <ele>66.1</ele>
        <time>2022-04-17T09:48:46Z</time>
      </trkpt>
      <trkpt lat="50.02869" lon="2.01741">
        <ele>66.2</ele>
        <time>2022-04-17T09:48:48Z</time>
      </trkpt>
      <trkpt lat="50.02869" lon="2.0174">
        <ele>66.3</ele>
        <time>2022-04-17T09:48:49Z</time>
      </trkpt>
      <trkpt lat="50.0287" lon="2.01738">
        <ele>66.3</ele>
        <time>2022-04-17T09:48:50Z</time>
      </trkpt>
      <trkpt lat="50.0287" lon="2.01736">
        <ele>66.5</ele>
        <time>2022-04-17T09:48:51Z</time>
      </trkpt>
      <trkpt lat="50.02871" lon="2.01734">
        <ele>66.5</ele>
        <time>2022-04-17T09:48:53Z</time>
      </trkpt>
      <trkpt lat="50.02871" lon="2.01733">
        <ele>66.6</ele>
        <time>2022-04-17T09:48:54Z</time>
      </trkpt>
      <trkpt lat="50.02871" lon="2.01732">
        <ele>66.7</ele>
        <time>2022-04-17T09:48:55Z</time>
      </trkpt>
      <trkpt lat="50.02872" lon="2.0173">
        <ele>66.7</ele>
        <time>2022-04-17T09:48:56Z</time>
      </trkpt>
      <trkpt lat="50.02872" lon="2.01729">
        <ele>66.8</ele>
        <time>2022-04-17T09:48:57Z</time>
      </trkpt>
      <trkpt lat="50.02872" lon="2.01727">
        <ele>66.9</ele>
        <time>2022-04-17T09:48:58Z</time>
      </trkpt>
      <trkpt lat="50.02873" lon="2.01726">
        <ele>66.9</ele>
        <time>2022-04-17T09:48:59Z</time>
      </trkpt>
      <trkpt lat="50.02873" lon="2.01725">
        <ele>67</ele>
        <time>2022-04-17T09:49:00Z</time>
      </trkpt>
      <trkpt lat="50.02873" lon="2.01723">
        <ele>67.1</ele>
        <time>2022-04-17T09:49:01Z</time>
      </trkpt>
      <trkpt lat="50.02873" lon="2.01722">
        <ele>67.1</ele>
        <time>2022-04-17T09:49:03Z</time>
      </trkpt>
      <trkpt lat="50.02874" lon="2.0172">
        <ele>67.2</ele>
        <time>2022-04-17T09:49:04Z</time>
      </trkpt>
      <trkpt lat="50.02874" lon="2.01719">
        <ele>67.3</ele>
        <time>2022-04-17T09:49:05Z</time>
      </trkpt>
      <trkpt lat="50.02875" lon="2.01717">
        <ele>67.3</ele>
        <time>2022-04-17T09:49:06Z</time>
      </trkpt>
      <trkpt lat="50.02875" lon="2.01716">
        <ele>67.4</ele>
        <time>2022-04-17T09:49:07Z</time>
      </trkpt>
      <trkpt lat="50.02876" lon="2.01713">
        <ele>67.6</ele>
        <time>2022-04-17T09:49:09Z</time>
      </trkpt>
      <trkpt lat="50.02876" lon="2.01712">
        <ele>67.6</ele>
        <time>2022-04-17T09:49:10Z</time>
      </trkpt>
      <trkpt lat="50.02876" lon="2.01711">
        <ele>67.7</ele>
        <time>2022-04-17T09:49:11Z</time>
      </trkpt>
      <trkpt lat="50.02876" lon="2.01709">
        <ele>67.7</ele>
        <time>2022-04-17T09:49:12Z</time>
      </trkpt>
      <trkpt lat="50.02876" lon="2.01708">
        <ele>67.8</ele>
        <time>2022-04-17T09:49:13Z</time>
      </trkpt>
      <trkpt lat="50.02877" lon="2.01706">
        <ele>67.8</ele>
        <time>2022-04-17T09:49:14Z</time>
      </trkpt>
      <trkpt lat="50.02877" lon="2.01704">
        <ele>68</ele>
        <time>2022-04-17T09:49:15Z</time>
      </trkpt>
      <trkpt lat="50.02877" lon="2.01702">
        <ele>68</ele>
        <time>2022-04-17T09:49:17Z</time>
      </trkpt>
      <trkpt lat="50.02878" lon="2.01701">
        <ele>68.1</ele>
        <time>2022-04-17T09:49:18Z</time>
      </trkpt>
      <trkpt lat="50.02878" lon="2.01699">
        <ele>68.2</ele>
        <time>2022-04-17T09:49:19Z</time>
      </trkpt>
      <trkpt lat="50.02878" lon="2.01697">
        <ele>68.3</ele>
        <time>2022-04-17T09:49:20Z</time>
      </trkpt>
      <trkpt lat="50.02878" lon="2.01696">
        <ele>68.3</ele>
        <time>2022-04-17T09:49:21Z</time>
      </trkpt>
      <trkpt lat="50.02879" lon="2.01695">
        <ele>68.4</ele>
        <time>2022-04-17T09:49:22Z</time>
      </trkpt>
      <trkpt lat="50.02879" lon="2.01693">
        <ele>68.5</ele>
        <time>2022-04-17T09:49:23Z</time>
      </trkpt>
      <trkpt lat="50.02879" lon="2.01692">
        <ele>68.5</ele>
        <time>2022-04-17T09:49:24Z</time>
      </trkpt>
      <trkpt lat="50.0288" lon="2.01691">
        <ele>68.6</ele>
        <time>2022-04-17T09:49:25Z</time>
      </trkpt>
      <trkpt lat="50.0288" lon="2.01689">
        <ele>68.7</ele>
        <time>2022-04-17T09:49:27Z</time>
      </trkpt>
      <trkpt lat="50.02881" lon="2.01687">
        <ele>68.7</ele>
        <time>2022-04-17T09:49:28Z</time>
      </trkpt>
      <trkpt lat="50.02881" lon="2.01685">
        <ele>68.8</ele>
        <time>2022-04-17T09:49:29Z</time>
      </trkpt>
      <trkpt lat="50.02881" lon="2.01684">
        <ele>68.9</ele>
        <time>2022-04-17T09:49:30Z</time>
      </trkpt>
      <trkpt lat="50.02882" lon="2.01682">
        <ele>69</ele>
        <time>2022-04-17T09:49:31Z</time>
      </trkpt>
      <trkpt lat="50.02882" lon="2.01681">
        <ele>69</ele>
        <time>2022-04-17T09:49:32Z</time>
      </trkpt>
      <trkpt lat="50.02882" lon="2.0168">
        <ele>69.1</ele>
        <time>2022-04-17T09:49:33Z</time>
      </trkpt>
      <trkpt lat="50.02883" lon="2.01678">
        <ele>69.2</ele>
        <time>2022-04-17T09:49:35Z</time>
      </trkpt>
      <trkpt lat="50.02883" lon="2.01676">
        <ele>69.3</ele>
        <time>2022-04-17T09:49:36Z</time>
      </trkpt>
      <trkpt lat="50.02884" lon="2.01674">
        <ele>69.4</ele>
        <time>2022-04-17T09:49:37Z</time>
      </trkpt>
      <trkpt lat="50.02884" lon="2.01673">
        <ele>69.4</ele>
        <time>2022-04-17T09:49:38Z</time>
      </trkpt>
      <trkpt lat="50.02885" lon="2.01671">
        <ele>69.5</ele>
        <time>2022-04-17T09:49:39Z</time>
      </trkpt>
      <trkpt lat="50.02885" lon="2.0167">
        <ele>69.6</ele>
        <time>2022-04-17T09:49:41Z</time>
      </trkpt>
      <trkpt lat="50.02886" lon="2.01668">
        <ele>69.7</ele>
        <time>2022-04-17T09:49:42Z</time>
      </trkpt>
      <trkpt lat="50.02886" lon="2.01667">
        <ele>69.7</ele>
        <time>2022-04-17T09:49:43Z</time>
      </trkpt>
      <trkpt lat="50.02887" lon="2.01665">
        <ele>69.8</ele>
        <time>2022-04-17T09:49:44Z</time>
      </trkpt>
      <trkpt lat="50.02887" lon="2.01664">
        <ele>69.9</ele>
        <time>2022-04-17T09:49:45Z</time>
      </trkpt>
      <trkpt lat="50.02887" lon="2.01662">
        <ele>70</ele>
        <time>2022-04-17T09:49:46Z</time>
      </trkpt>
      <trkpt lat="50.02888" lon="2.01661">
        <ele>70</ele>
        <time>2022-04-17T09:49:47Z</time>
      </trkpt>
      <trkpt lat="50.02888" lon="2.01659">
        <ele>70.1</ele>
        <time>2022-04-17T09:49:48Z</time>
      </trkpt>
      <trkpt lat="50.02889" lon="2.01656">
        <ele>70.2</ele>
        <time>2022-04-17T09:49:50Z</time>
      </trkpt>
      <trkpt lat="50.02889" lon="2.01655">
        <ele>70.3</ele>
        <time>2022-04-17T09:49:51Z</time>
      </trkpt>
      <trkpt lat="50.02889" lon="2.01654">
        <ele>70.3</ele>
        <time>2022-04-17T09:49:52Z</time>
      </trkpt>
      <trkpt lat="50.02889" lon="2.01652">
        <ele>70.4</ele>
        <time>2022-04-17T09:49:53Z</time>
      </trkpt>
      <trkpt lat="50.0289" lon="2.01651">
        <ele>70.5</ele>
        <time>2022-04-17T09:49:54Z</time>
      </trkpt>
      <trkpt lat="50.0289" lon="2.0165">
        <ele>70.5</ele>
        <time>2022-04-17T09:49:55Z</time>
      </trkpt>
      <trkpt lat="50.0289" lon="2.01648">
        <ele>70.6</ele>
        <time>2022-04-17T09:49:56Z</time>
      </trkpt>
      <trkpt lat="50.02891" lon="2.01647">
        <ele>70.7</ele>
        <time>2022-04-17T09:49:57Z</time>
      </trkpt>
      <trkpt lat="50.02891" lon="2.01646">
        <ele>70.7</ele>
        <time>2022-04-17T09:49:58Z</time>
      </trkpt>
      <trkpt lat="50.02892" lon="2.01642">
        <ele>70.9</ele>
        <time>2022-04-17T09:50:00Z</time>
      </trkpt>
      <trkpt lat="50.02892" lon="2.01641">
        <ele>70.9</ele>
        <time>2022-04-17T09:50:01Z</time>
      </trkpt>
      <trkpt lat="50.02893" lon="2.0164">
        <ele>71</ele>
        <time>2022-04-17T09:50:02Z</time>
      </trkpt>
      <trkpt lat="50.02893" lon="2.01638">
        <ele>71.1</ele>
        <time>2022-04-17T09:50:03Z</time>
      </trkpt>
      <trkpt lat="50.02893" lon="2.01637">
        <ele>71.2</ele>
        <time>2022-04-17T09:50:04Z</time>
      </trkpt>
      <trkpt lat="50.02894" lon="2.01635">
        <ele>71.2</ele>
        <time>2022-04-17T09:50:06Z</time>
      </trkpt>
      <trkpt lat="50.02894" lon="2.01633">
        <ele>71.3</ele>
        <time>2022-04-17T09:50:07Z</time>
      </trkpt>
      <trkpt lat="50.02894" lon="2.01632">
        <ele>71.4</ele>
        <time>2022-04-17T09:50:08Z</time>
      </trkpt>
      <trkpt lat="50.02894" lon="2.0163">
        <ele>71.5</ele>
        <time>2022-04-17T09:50:09Z</time>
      </trkpt>
      <trkpt lat="50.02895" lon="2.01628">
        <ele>71.5</ele>
        <time>2022-04-17T09:50:10Z</time>
      </trkpt>
      <trkpt lat="50.02895" lon="2.01627">
        <ele>71.6</ele>
        <time>2022-04-17T09:50:11Z</time>
      </trkpt>
      <trkpt lat="50.02895" lon="2.01625">
        <ele>71.7</ele>
        <time>2022-04-17T09:50:13Z</time>
      </trkpt>
      <trkpt lat="50.02896" lon="2.01623">
        <ele>71.8</ele>
        <time>2022-04-17T09:50:14Z</time>
      </trkpt>
      <trkpt lat="50.02896" lon="2.01621">
        <ele>71.9</ele>
        <time>2022-04-17T09:50:15Z</time>
      </trkpt>
      <trkpt lat="50.02896" lon="2.01619">
        <ele>71.9</ele>
        <time>2022-04-17T09:50:16Z</time>
      </trkpt>
      <trkpt lat="50.02896" lon="2.01618">
        <ele>72</ele>
        <time>2022-04-17T09:50:17Z</time>
      </trkpt>
      <trkpt lat="50.02897" lon="2.01617">
        <ele>72.1</ele>
        <time>2022-04-17T09:50:18Z</time>
      </trkpt>
      <trkpt lat="50.02897" lon="2.01615">
        <ele>72.1</ele>
        <time>2022-04-17T09:50:19Z</time>
      </trkpt>
      <trkpt lat="50.02898" lon="2.01614">
        <ele>72.2</ele>
        <time>2022-04-17T09:50:20Z</time>
      </trkpt>
      <trkpt lat="50.02898" lon="2.01613">
        <ele>72.3</ele>
        <time>2022-04-17T09:50:21Z</time>
      </trkpt>
      <trkpt lat="50.02899" lon="2.01611">
        <ele>72.3</ele>
        <time>2022-04-17T09:50:22Z</time>
      </trkpt>
      <trkpt lat="50.02899" lon="2.0161">
        <ele>72.4</ele>
        <time>2022-04-17T09:50:23Z</time>
      </trkpt>
      <trkpt lat="50.029" lon="2.01607">
        <ele>72.6</ele>
        <time>2022-04-17T09:50:25Z</time>
      </trkpt>
      <trkpt lat="50.02901" lon="2.01605">
        <ele>72.7</ele>
        <time>2022-04-17T09:50:27Z</time>
      </trkpt>
      <trkpt lat="50.02901" lon="2.01603">
        <ele>72.8</ele>
        <time>2022-04-17T09:50:28Z</time>
      </trkpt>
      <trkpt lat="50.02902" lon="2.01601">
        <ele>72.8</ele>
        <time>2022-04-17T09:50:29Z</time>
      </trkpt>
      <trkpt lat="50.02902" lon="2.016">
        <ele>72.9</ele>
        <time>2022-04-17T09:50:30Z</time>
      </trkpt>
      <trkpt lat="50.02902" lon="2.01598">
        <ele>73</ele>
        <time>2022-04-17T09:50:31Z</time>
      </trkpt>
      <trkpt lat="50.02903" lon="2.01596">
        <ele>73.1</ele>
        <time>2022-04-17T09:50:32Z</time>
      </trkpt>
      <trkpt lat="50.02903" lon="2.01595">
        <ele>73.1</ele>
        <time>2022-04-17T09:50:33Z</time>
      </trkpt>
      <trkpt lat="50.02903" lon="2.01594">
        <ele>73.2</ele>
        <time>2022-04-17T09:50:34Z</time>
      </trkpt>
      <trkpt lat="50.02903" lon="2.01592">
        <ele>73.3</ele>
        <time>2022-04-17T09:50:35Z</time>
      </trkpt>
      <trkpt lat="50.02904" lon="2.01591">
        <ele>73.3</ele>
        <time>2022-04-17T09:50:36Z</time>
      </trkpt>
      <trkpt lat="50.02904" lon="2.01589">
        <ele>73.4</ele>
        <time>2022-04-17T09:50:38Z</time>
      </trkpt>
      <trkpt lat="50.02905" lon="2.01587">
        <ele>73.5</ele>
        <time>2022-04-17T09:50:39Z</time>
      </trkpt>
      <trkpt lat="50.02905" lon="2.01586">
        <ele>73.6</ele>
        <time>2022-04-17T09:50:40Z</time>
      </trkpt>
      <trkpt lat="50.02905" lon="2.01585">
        <ele>73.6</ele>
        <time>2022-04-17T09:50:41Z</time>
      </trkpt>
      <trkpt lat="50.02906" lon="2.01583">
        <ele>73.7</ele>
        <time>2022-04-17T09:50:42Z</time>
      </trkpt>
      <trkpt lat="50.02906" lon="2.01582">
        <ele>73.8</ele>
        <time>2022-04-17T09:50:44Z</time>
      </trkpt>
      <trkpt lat="50.02906" lon="2.0158">
        <ele>73.8</ele>
        <time>2022-04-17T09:50:45Z</time>
      </trkpt>
      <trkpt lat="50.02907" lon="2.01579">
        <ele>73.9</ele>
        <time>2022-04-17T09:50:46Z</time>
      </trkpt>
      <trkpt lat="50.02907" lon="2.01577">
        <ele>74</ele>
        <time>2022-04-17T09:50:47Z</time>
      </trkpt>
      <trkpt lat="50.02908" lon="2.01575">
        <ele>74.1</ele>
        <time>2022-04-17T09:50:48Z</time>
      </trkpt>
      <trkpt lat="50.02908" lon="2.01574">
        <ele>74.1</ele>
        <time>2022-04-17T09:50:49Z</time>
      </trkpt>
      <trkpt lat="50.02908" lon="2.01572">
        <ele>74.2</ele>
        <time>2022-04-17T09:50:51Z</time>
      </trkpt>
      <trkpt lat="50.02908" lon="2.0157">
        <ele>74.3</ele>
        <time>2022-04-17T09:50:52Z</time>
      </trkpt>
      <trkpt lat="50.02909" lon="2.01568">
        <ele>74.4</ele>
        <time>2022-04-17T09:50:53Z</time>
      </trkpt>
      <trkpt lat="50.02909" lon="2.01567">
        <ele>74.5</ele>
        <time>2022-04-17T09:50:54Z</time>
      </trkpt>
      <trkpt lat="50.02909" lon="2.01565">
        <ele>74.5</ele>
        <time>2022-04-17T09:50:55Z</time>
      </trkpt>
      <trkpt lat="50.0291" lon="2.01563">
        <ele>74.6</ele>
        <time>2022-04-17T09:50:57Z</time>
      </trkpt>
      <trkpt lat="50.0291" lon="2.01561">
        <ele>74.7</ele>
        <time>2022-04-17T09:50:58Z</time>
      </trkpt>
      <trkpt lat="50.0291" lon="2.0156">
        <ele>74.8</ele>
        <time>2022-04-17T09:50:59Z</time>
      </trkpt>
      <trkpt lat="50.02911" lon="2.01558">
        <ele>74.9</ele>
        <time>2022-04-17T09:51:00Z</time>
      </trkpt>
      <trkpt lat="50.02911" lon="2.01557">
        <ele>74.9</ele>
        <time>2022-04-17T09:51:01Z</time>
      </trkpt>
      <trkpt lat="50.02912" lon="2.01556">
        <ele>75</ele>
        <time>2022-04-17T09:51:02Z</time>
      </trkpt>
      <trkpt lat="50.02913" lon="2.01555">
        <ele>75.1</ele>
        <time>2022-04-17T09:51:03Z</time>
      </trkpt>
      <trkpt lat="50.02913" lon="2.01554">
        <ele>75.1</ele>
        <time>2022-04-17T09:51:04Z</time>
      </trkpt>
      <trkpt lat="50.02914" lon="2.01552">
        <ele>75.2</ele>
        <time>2022-04-17T09:51:05Z</time>
      </trkpt>
      <trkpt lat="50.02915" lon="2.01549">
        <ele>75.4</ele>
        <time>2022-04-17T09:51:07Z</time>
      </trkpt>
      <trkpt lat="50.02916" lon="2.01548">
        <ele>75.4</ele>
        <time>2022-04-17T09:51:08Z</time>
      </trkpt>
      <trkpt lat="50.02916" lon="2.01547">
        <ele>75.5</ele>
        <time>2022-04-17T09:51:09Z</time>
      </trkpt>
      <trkpt lat="50.02917" lon="2.01546">
        <ele>75.5</ele>
        <time>2022-04-17T09:51:10Z</time>
      </trkpt>
      <trkpt lat="50.02917" lon="2.01544">
        <ele>75.6</ele>
        <time>2022-04-17T09:51:11Z</time>
      </trkpt>
      <trkpt lat="50.02918" lon="2.01543">
        <ele>75.7</ele>
        <time>2022-04-17T09:51:12Z</time>
      </trkpt>
      <trkpt lat="50.02918" lon="2.01542">
        <ele>75.7</ele>
        <time>2022-04-17T09:51:13Z</time>
      </trkpt>
      <trkpt lat="50.02919" lon="2.01541">
        <ele>75.8</ele>
        <time>2022-04-17T09:51:14Z</time>
      </trkpt>
      <trkpt lat="50.0292" lon="2.01539">
        <ele>75.9</ele>
        <time>2022-04-17T09:51:15Z</time>
      </trkpt>
      <trkpt lat="50.0292" lon="2.01538">
        <ele>76</ele>
        <time>2022-04-17T09:51:16Z</time>
      </trkpt>
      <trkpt lat="50.02921" lon="2.01537">
        <ele>76</ele>
        <time>2022-04-17T09:51:17Z</time>
      </trkpt>
      <trkpt lat="50.02921" lon="2.01536">
        <ele>76.1</ele>
        <time>2022-04-17T09:51:18Z</time>
      </trkpt>
      <trkpt lat="50.02923" lon="2.01533">
        <ele>76.2</ele>
        <time>2022-04-17T09:51:19Z</time>
      </trkpt>
      <trkpt lat="50.02923" lon="2.01532">
        <ele>76.3</ele>
        <time>2022-04-17T09:51:20Z</time>
      </trkpt>
      <trkpt lat="50.02924" lon="2.01531">
        <ele>76.4</ele>
        <time>2022-04-17T09:51:22Z</time>
      </trkpt>
      <trkpt lat="50.02925" lon="2.0153">
        <ele>76.5</ele>
        <time>2022-04-17T09:51:23Z</time>
      </trkpt>
      <trkpt lat="50.02926" lon="2.01529">
        <ele>76.5</ele>
        <time>2022-04-17T09:51:24Z</time>
      </trkpt>
      <trkpt lat="50.02926" lon="2.01528">
        <ele>76.6</ele>
        <time>2022-04-17T09:51:25Z</time>
      </trkpt>
      <trkpt lat="50.02927" lon="2.01527">
        <ele>76.7</ele>
        <time>2022-04-17T09:51:26Z</time>
      </trkpt>
      <trkpt lat="50.02928" lon="2.01526">
        <ele>76.7</ele>
        <time>2022-04-17T09:51:27Z</time>
      </trkpt>
      <trkpt lat="50.02929" lon="2.01525">
        <ele>76.8</ele>
        <time>2022-04-17T09:51:28Z</time>
      </trkpt>
      <trkpt lat="50.02929" lon="2.01524">
        <ele>76.9</ele>
        <time>2022-04-17T09:51:29Z</time>
      </trkpt>
      <trkpt lat="50.0293" lon="2.01523">
        <ele>76.9</ele>
        <time>2022-04-17T09:51:30Z</time>
      </trkpt>
      <trkpt lat="50.02931" lon="2.01522">
        <ele>77</ele>
        <time>2022-04-17T09:51:31Z</time>
      </trkpt>
      <trkpt lat="50.02932" lon="2.01519">
        <ele>77.1</ele>
        <time>2022-04-17T09:51:33Z</time>
      </trkpt>
      <trkpt lat="50.02933" lon="2.01518">
        <ele>77.2</ele>
        <time>2022-04-17T09:51:34Z</time>
      </trkpt>
      <trkpt lat="50.02933" lon="2.01518">
        <ele>77.2</ele>
        <time>2022-04-17T09:51:35Z</time>
      </trkpt>
      <trkpt lat="50.02934" lon="2.01516">
        <ele>77.3</ele>
        <time>2022-04-17T09:51:36Z</time>
      </trkpt>
      <trkpt lat="50.02934" lon="2.01515">
        <ele>77.4</ele>
        <time>2022-04-17T09:51:37Z</time>
      </trkpt>
      <trkpt lat="50.02934" lon="2.01514">
        <ele>77.4</ele>
        <time>2022-04-17T09:51:38Z</time>
      </trkpt>
      <trkpt lat="50.02936" lon="2.01511">
        <ele>77.6</ele>
        <time>2022-04-17T09:51:40Z</time>
      </trkpt>
      <trkpt lat="50.02936" lon="2.0151">
        <ele>77.6</ele>
        <time>2022-04-17T09:51:41Z</time>
      </trkpt>
      <trkpt lat="50.02937" lon="2.01509">
        <ele>77.7</ele>
        <time>2022-04-17T09:51:42Z</time>
      </trkpt>
      <trkpt lat="50.02938" lon="2.01507">
        <ele>77.8</ele>
        <time>2022-04-17T09:51:43Z</time>
      </trkpt>
      <trkpt lat="50.02939" lon="2.01506">
        <ele>77.9</ele>
        <time>2022-04-17T09:51:45Z</time>
      </trkpt>
      <trkpt lat="50.02939" lon="2.01505">
        <ele>78</ele>
        <time>2022-04-17T09:51:46Z</time>
      </trkpt>
      <trkpt lat="50.0294" lon="2.01504">
        <ele>78</ele>
        <time>2022-04-17T09:51:47Z</time>
      </trkpt>
      <trkpt lat="50.02941" lon="2.01503">
        <ele>78.1</ele>
        <time>2022-04-17T09:51:48Z</time>
      </trkpt>
      <trkpt lat="50.02941" lon="2.01502">
        <ele>78.2</ele>
        <time>2022-04-17T09:51:49Z</time>
      </trkpt>
      <trkpt lat="50.02942" lon="2.01501">
        <ele>78.2</ele>
        <time>2022-04-17T09:51:50Z</time>
      </trkpt>
      <trkpt lat="50.02943" lon="2.01499">
        <ele>78.3</ele>
        <time>2022-04-17T09:51:52Z</time>
      </trkpt>
      <trkpt lat="50.02944" lon="2.01498">
        <ele>78.4</ele>
        <time>2022-04-17T09:51:53Z</time>
      </trkpt>
      <trkpt lat="50.02945" lon="2.01497">
        <ele>78.5</ele>
        <time>2022-04-17T09:51:54Z</time>
      </trkpt>
      <trkpt lat="50.02945" lon="2.01495">
        <ele>78.6</ele>
        <time>2022-04-17T09:51:55Z</time>
      </trkpt>
      <trkpt lat="50.02946" lon="2.01494">
        <ele>78.6</ele>
        <time>2022-04-17T09:51:56Z</time>
      </trkpt>
      <trkpt lat="50.02947" lon="2.01492">
        <ele>78.8</ele>
        <time>2022-04-17T09:51:57Z</time>
      </trkpt>
      <trkpt lat="50.02948" lon="2.01491">
        <ele>78.8</ele>
        <time>2022-04-17T09:51:58Z</time>
      </trkpt>
      <trkpt lat="50.02949" lon="2.0149">
        <ele>78.9</ele>
        <time>2022-04-17T09:52:00Z</time>
      </trkpt>
      <trkpt lat="50.0295" lon="2.01488">
        <ele>79</ele>
        <time>2022-04-17T09:52:01Z</time>
      </trkpt>
      <trkpt lat="50.0295" lon="2.01487">
        <ele>79.1</ele>
        <time>2022-04-17T09:52:02Z</time>
      </trkpt>
      <trkpt lat="50.02951" lon="2.01486">
        <ele>79.1</ele>
        <time>2022-04-17T09:52:03Z</time>
      </trkpt>
      <trkpt lat="50.02952" lon="2.01484">
        <ele>79.2</ele>
        <time>2022-04-17T09:52:04Z</time>
      </trkpt>
      <trkpt lat="50.02953" lon="2.01483">
        <ele>79.3</ele>
        <time>2022-04-17T09:52:05Z</time>
      </trkpt>
      <trkpt lat="50.02953" lon="2.01481">
        <ele>79.4</ele>
        <time>2022-04-17T09:52:07Z</time>
      </trkpt>
      <trkpt lat="50.02955" lon="2.01479">
        <ele>79.5</ele>
        <time>2022-04-17T09:52:08Z</time>
      </trkpt>
      <trkpt lat="50.02955" lon="2.01478">
        <ele>79.6</ele>
        <time>2022-04-17T09:52:09Z</time>
      </trkpt>
      <trkpt lat="50.02956" lon="2.01477">
        <ele>79.6</ele>
        <time>2022-04-17T09:52:10Z</time>
      </trkpt>
      <trkpt lat="50.02957" lon="2.01476">
        <ele>79.7</ele>
        <time>2022-04-17T09:52:11Z</time>
      </trkpt>
      <trkpt lat="50.02957" lon="2.01474">
        <ele>79.8</ele>
        <time>2022-04-17T09:52:12Z</time>
      </trkpt>
      <trkpt lat="50.02958" lon="2.01473">
        <ele>79.9</ele>
        <time>2022-04-17T09:52:14Z</time>
      </trkpt>
      <trkpt lat="50.0296" lon="2.01471">
        <ele>80</ele>
        <time>2022-04-17T09:52:15Z</time>
      </trkpt>
      <trkpt lat="50.02961" lon="2.0147">
        <ele>80.1</ele>
        <time>2022-04-17T09:52:16Z</time>
      </trkpt>
      <trkpt lat="50.02961" lon="2.01469">
        <ele>80.1</ele>
        <time>2022-04-17T09:52:17Z</time>
      </trkpt>
      <trkpt lat="50.02962" lon="2.01468">
        <ele>80.2</ele>
        <time>2022-04-17T09:52:18Z</time>
      </trkpt>
      <trkpt lat="50.02963" lon="2.01467">
        <ele>80.3</ele>
        <time>2022-04-17T09:52:19Z</time>
      </trkpt>
      <trkpt lat="50.02964" lon="2.01466">
        <ele>80.4</ele>
        <time>2022-04-17T09:52:20Z</time>
      </trkpt>
      <trkpt lat="50.02964" lon="2.01465">
        <ele>80.4</ele>
        <time>2022-04-17T09:52:21Z</time>
      </trkpt>
      <trkpt lat="50.02965" lon="2.01464">
        <ele>80.5</ele>
        <time>2022-04-17T09:52:22Z</time>
      </trkpt>
      <trkpt lat="50.02965" lon="2.01463">
        <ele>80.6</ele>
        <time>2022-04-17T09:52:23Z</time>
      </trkpt>
      <trkpt lat="50.02967" lon="2.0146">
        <ele>80.7</ele>
        <time>2022-04-17T09:52:25Z</time>
      </trkpt>
      <trkpt lat="50.02968" lon="2.01459">
        <ele>80.8</ele>
        <time>2022-04-17T09:52:26Z</time>
      </trkpt>
      <trkpt lat="50.02968" lon="2.01459">
        <ele>80.8</ele>
        <time>2022-04-17T09:52:27Z</time>
      </trkpt>
      <trkpt lat="50.02969" lon="2.01457">
        <ele>80.9</ele>
        <time>2022-04-17T09:52:28Z</time>
      </trkpt>
      <trkpt lat="50.0297" lon="2.01456">
        <ele>81</ele>
        <time>2022-04-17T09:52:29Z</time>
      </trkpt>
      <trkpt lat="50.0297" lon="2.01455">
        <ele>81.1</ele>
        <time>2022-04-17T09:52:30Z</time>
      </trkpt>
      <trkpt lat="50.02972" lon="2.01452">
        <ele>81.2</ele>
        <time>2022-04-17T09:52:32Z</time>
      </trkpt>
      <trkpt lat="50.02972" lon="2.01451">
        <ele>81.3</ele>
        <time>2022-04-17T09:52:33Z</time>
      </trkpt>
      <trkpt lat="50.02973" lon="2.0145">
        <ele>81.3</ele>
        <time>2022-04-17T09:52:34Z</time>
      </trkpt>
      <trkpt lat="50.02974" lon="2.01448">
        <ele>81.5</ele>
        <time>2022-04-17T09:52:35Z</time>
      </trkpt>
      <trkpt lat="50.02975" lon="2.01447">
        <ele>81.5</ele>
        <time>2022-04-17T09:52:36Z</time>
      </trkpt>
      <trkpt lat="50.02976" lon="2.01446">
        <ele>81.6</ele>
        <time>2022-04-17T09:52:38Z</time>
      </trkpt>
      <trkpt lat="50.02977" lon="2.01445">
        <ele>81.7</ele>
        <time>2022-04-17T09:52:39Z</time>
      </trkpt>
      <trkpt lat="50.02978" lon="2.01444">
        <ele>81.7</ele>
        <time>2022-04-17T09:52:40Z</time>
      </trkpt>
      <trkpt lat="50.02978" lon="2.01443">
        <ele>81.8</ele>
        <time>2022-04-17T09:52:41Z</time>
      </trkpt>
      <trkpt lat="50.02979" lon="2.01442">
        <ele>81.9</ele>
        <time>2022-04-17T09:52:42Z</time>
      </trkpt>
      <trkpt lat="50.0298" lon="2.01441">
        <ele>82</ele>
        <time>2022-04-17T09:52:43Z</time>
      </trkpt>
      <trkpt lat="50.02981" lon="2.01439">
        <ele>82.1</ele>
        <time>2022-04-17T09:52:45Z</time>
      </trkpt>
      <trkpt lat="50.02983" lon="2.01437">
        <ele>82.2</ele>
        <time>2022-04-17T09:52:46Z</time>
      </trkpt>
      <trkpt lat="50.02984" lon="2.01437">
        <ele>82.3</ele>
        <time>2022-04-17T09:52:47Z</time>
      </trkpt>
      <trkpt lat="50.02984" lon="2.01436">
        <ele>82.3</ele>
        <time>2022-04-17T09:52:48Z</time>
      </trkpt>
      <trkpt lat="50.02986" lon="2.01434">
        <ele>82.5</ele>
        <time>2022-04-17T09:52:49Z</time>
      </trkpt>
      <trkpt lat="50.02987" lon="2.01433">
        <ele>82.5</ele>
        <time>2022-04-17T09:52:51Z</time>
      </trkpt>
      <trkpt lat="50.02987" lon="2.01432">
        <ele>82.6</ele>
        <time>2022-04-17T09:52:52Z</time>
      </trkpt>
      <trkpt lat="50.02988" lon="2.01431">
        <ele>82.7</ele>
        <time>2022-04-17T09:52:53Z</time>
      </trkpt>
      <trkpt lat="50.02989" lon="2.0143">
        <ele>82.7</ele>
        <time>2022-04-17T09:52:54Z</time>
      </trkpt>
      <trkpt lat="50.0299" lon="2.01429">
        <ele>82.8</ele>
        <time>2022-04-17T09:52:55Z</time>
      </trkpt>
      <trkpt lat="50.02991" lon="2.01428">
        <ele>82.9</ele>
        <time>2022-04-17T09:52:56Z</time>
      </trkpt>
      <trkpt lat="50.02991" lon="2.01427">
        <ele>83</ele>
        <time>2022-04-17T09:52:57Z</time>
      </trkpt>
      <trkpt lat="50.02992" lon="2.01426">
        <ele>83</ele>
        <time>2022-04-17T09:52:58Z</time>
      </trkpt>
      <trkpt lat="50.02993" lon="2.01424">
        <ele>83.1</ele>
        <time>2022-04-17T09:52:59Z</time>
      </trkpt>
      <trkpt lat="50.02993" lon="2.01423">
        <ele>83.2</ele>
        <time>2022-04-17T09:53:00Z</time>
      </trkpt>
      <trkpt lat="50.02994" lon="2.01422">
        <ele>83.3</ele>
        <time>2022-04-17T09:53:01Z</time>
      </trkpt>
      <trkpt lat="50.02995" lon="2.0142">
        <ele>83.3</ele>
        <time>2022-04-17T09:53:02Z</time>
      </trkpt>
      <trkpt lat="50.02996" lon="2.01419">
        <ele>83.4</ele>
        <time>2022-04-17T09:53:03Z</time>
      </trkpt>
      <trkpt lat="50.02996" lon="2.01418">
        <ele>83.5</ele>
        <time>2022-04-17T09:53:04Z</time>
      </trkpt>
      <trkpt lat="50.02998" lon="2.01416">
        <ele>83.5</ele>
        <time>2022-04-17T09:53:06Z</time>
      </trkpt>
      <trkpt lat="50.02999" lon="2.01415">
        <ele>83.6</ele>
        <time>2022-04-17T09:53:07Z</time>
      </trkpt>
      <trkpt lat="50.02999" lon="2.01415">
        <ele>83.6</ele>
        <time>2022-04-17T09:53:08Z</time>
      </trkpt>
      <trkpt lat="50.03" lon="2.01414">
        <ele>83.6</ele>
        <time>2022-04-17T09:53:09Z</time>
      </trkpt>
      <trkpt lat="50.03001" lon="2.01413">
        <ele>83.7</ele>
        <time>2022-04-17T09:53:10Z</time>
      </trkpt>
      <trkpt lat="50.03002" lon="2.01412">
        <ele>83.7</ele>
        <time>2022-04-17T09:53:11Z</time>
      </trkpt>
      <trkpt lat="50.03003" lon="2.0141">
        <ele>83.7</ele>
        <time>2022-04-17T09:53:12Z</time>
      </trkpt>
      <trkpt lat="50.03003" lon="2.01409">
        <ele>83.8</ele>
        <time>2022-04-17T09:53:13Z</time>
      </trkpt>
      <trkpt lat="50.03004" lon="2.01408">
        <ele>83.8</ele>
        <time>2022-04-17T09:53:14Z</time>
      </trkpt>
      <trkpt lat="50.03005" lon="2.01407">
        <ele>83.8</ele>
        <time>2022-04-17T09:53:15Z</time>
      </trkpt>
      <trkpt lat="50.03006" lon="2.01406">
        <ele>83.8</ele>
        <time>2022-04-17T09:53:16Z</time>
      </trkpt>
      <trkpt lat="50.03006" lon="2.01405">
        <ele>83.9</ele>
        <time>2022-04-17T09:53:17Z</time>
      </trkpt>
      <trkpt lat="50.03007" lon="2.01404">
        <ele>83.9</ele>
        <time>2022-04-17T09:53:18Z</time>
      </trkpt>
      <trkpt lat="50.03008" lon="2.01403">
        <ele>83.9</ele>
        <time>2022-04-17T09:53:19Z</time>
      </trkpt>
      <trkpt lat="50.03009" lon="2.01403">
        <ele>83.9</ele>
        <time>2022-04-17T09:53:21Z</time>
      </trkpt>
      <trkpt lat="50.0301" lon="2.01402">
        <ele>84</ele>
        <time>2022-04-17T09:53:22Z</time>
      </trkpt>
      <trkpt lat="50.03011" lon="2.01401">
        <ele>84</ele>
        <time>2022-04-17T09:53:23Z</time>
      </trkpt>
      <trkpt lat="50.03012" lon="2.014">
        <ele>84</ele>
        <time>2022-04-17T09:53:24Z</time>
      </trkpt>
      <trkpt lat="50.03012" lon="2.01399">
        <ele>84</ele>
        <time>2022-04-17T09:53:25Z</time>
      </trkpt>
      <trkpt lat="50.03013" lon="2.01398">
        <ele>84</ele>
        <time>2022-04-17T09:53:26Z</time>
      </trkpt>
      <trkpt lat="50.03014" lon="2.01397">
        <ele>84.1</ele>
        <time>2022-04-17T09:53:28Z</time>
      </trkpt>
      <trkpt lat="50.03015" lon="2.01396">
        <ele>84.1</ele>
        <time>2022-04-17T09:53:29Z</time>
      </trkpt>
      <trkpt lat="50.03015" lon="2.01394">
        <ele>84.1</ele>
        <time>2022-04-17T09:53:30Z</time>
      </trkpt>
      <trkpt lat="50.03016" lon="2.01393">
        <ele>84.1</ele>
        <time>2022-04-17T09:53:31Z</time>
      </trkpt>
      <trkpt lat="50.03017" lon="2.01392">
        <ele>84.1</ele>
        <time>2022-04-17T09:53:32Z</time>
      </trkpt>
      <trkpt lat="50.03018" lon="2.01391">
        <ele>84.2</ele>
        <time>2022-04-17T09:53:34Z</time>
      </trkpt>
      <trkpt lat="50.03019" lon="2.0139">
        <ele>84.2</ele>
        <time>2022-04-17T09:53:35Z</time>
      </trkpt>
      <trkpt lat="50.03021" lon="2.01388">
        <ele>84.2</ele>
        <time>2022-04-17T09:53:36Z</time>
      </trkpt>
      <trkpt lat="50.03021" lon="2.01387">
        <ele>84.2</ele>
        <time>2022-04-17T09:53:37Z</time>
      </trkpt>
      <trkpt lat="50.03022" lon="2.01386">
        <ele>84.3</ele>
        <time>2022-04-17T09:53:38Z</time>
      </trkpt>
      <trkpt lat="50.03023" lon="2.01385">
        <ele>84.3</ele>
        <time>2022-04-17T09:53:39Z</time>
      </trkpt>
      <trkpt lat="50.03024" lon="2.01384">
        <ele>84.3</ele>
        <time>2022-04-17T09:53:40Z</time>
      </trkpt>
      <trkpt lat="50.03025" lon="2.01383">
        <ele>84.3</ele>
        <time>2022-04-17T09:53:42Z</time>
      </trkpt>
      <trkpt lat="50.03026" lon="2.01382">
        <ele>84.3</ele>
        <time>2022-04-17T09:53:43Z</time>
      </trkpt>
      <trkpt lat="50.03027" lon="2.01381">
        <ele>84.4</ele>
        <time>2022-04-17T09:53:44Z</time>
      </trkpt>
      <trkpt lat="50.03028" lon="2.0138">
        <ele>84.4</ele>
        <time>2022-04-17T09:53:45Z</time>
      </trkpt>
      <trkpt lat="50.0303" lon="2.01379">
        <ele>84.4</ele>
        <time>2022-04-17T09:53:46Z</time>
      </trkpt>
      <trkpt lat="50.03031" lon="2.01379">
        <ele>84.4</ele>
        <time>2022-04-17T09:53:47Z</time>
      </trkpt>
      <trkpt lat="50.03032" lon="2.01377">
        <ele>84.5</ele>
        <time>2022-04-17T09:53:49Z</time>
      </trkpt>
      <trkpt lat="50.03033" lon="2.01376">
        <ele>84.5</ele>
        <time>2022-04-17T09:53:50Z</time>
      </trkpt>
      <trkpt lat="50.03034" lon="2.01375">
        <ele>84.5</ele>
        <time>2022-04-17T09:53:51Z</time>
      </trkpt>
      <trkpt lat="50.03035" lon="2.01373">
        <ele>84.5</ele>
        <time>2022-04-17T09:53:52Z</time>
      </trkpt>
      <trkpt lat="50.03036" lon="2.01372">
        <ele>84.5</ele>
        <time>2022-04-17T09:53:53Z</time>
      </trkpt>
      <trkpt lat="50.03037" lon="2.0137">
        <ele>84.6</ele>
        <time>2022-04-17T09:53:54Z</time>
      </trkpt>
      <trkpt lat="50.03038" lon="2.01369">
        <ele>84.6</ele>
        <time>2022-04-17T09:53:56Z</time>
      </trkpt>
      <trkpt lat="50.03038" lon="2.01368">
        <ele>84.6</ele>
        <time>2022-04-17T09:53:57Z</time>
      </trkpt>
      <trkpt lat="50.0304" lon="2.01366">
        <ele>84.6</ele>
        <time>2022-04-17T09:53:58Z</time>
      </trkpt>
      <trkpt lat="50.0304" lon="2.01364">
        <ele>84.7</ele>
        <time>2022-04-17T09:53:59Z</time>
      </trkpt>
      <trkpt lat="50.0304" lon="2.01363">
        <ele>84.7</ele>
        <time>2022-04-17T09:54:00Z</time>
      </trkpt>
      <trkpt lat="50.03041" lon="2.01362">
        <ele>84.7</ele>
        <time>2022-04-17T09:54:01Z</time>
      </trkpt>
      <trkpt lat="50.03042" lon="2.01361">
        <ele>84.7</ele>
        <time>2022-04-17T09:54:02Z</time>
      </trkpt>
      <trkpt lat="50.03043" lon="2.01359">
        <ele>84.7</ele>
        <time>2022-04-17T09:54:04Z</time>
      </trkpt>
      <trkpt lat="50.03043" lon="2.01358">
        <ele>84.7</ele>
        <time>2022-04-17T09:54:05Z</time>
      </trkpt>
      <trkpt lat="50.03044" lon="2.01357">
        <ele>84.7</ele>
        <time>2022-04-17T09:54:06Z</time>
      </trkpt>
      <trkpt lat="50.03045" lon="2.01356">
        <ele>84.8</ele>
        <time>2022-04-17T09:54:07Z</time>
      </trkpt>
      <trkpt lat="50.03046" lon="2.01355">
        <ele>84.8</ele>
        <time>2022-04-17T09:54:08Z</time>
      </trkpt>
      <trkpt lat="50.03047" lon="2.01354">
        <ele>84.8</ele>
        <time>2022-04-17T09:54:09Z</time>
      </trkpt>
      <trkpt lat="50.03048" lon="2.01353">
        <ele>84.8</ele>
        <time>2022-04-17T09:54:10Z</time>
      </trkpt>
      <trkpt lat="50.0305" lon="2.01351">
        <ele>84.9</ele>
        <time>2022-04-17T09:54:12Z</time>
      </trkpt>
      <trkpt lat="50.03051" lon="2.01351">
        <ele>84.9</ele>
        <time>2022-04-17T09:54:13Z</time>
      </trkpt>
      <trkpt lat="50.03051" lon="2.0135">
        <ele>84.9</ele>
        <time>2022-04-17T09:54:14Z</time>
      </trkpt>
      <trkpt lat="50.03053" lon="2.01348">
        <ele>84.9</ele>
        <time>2022-04-17T09:54:15Z</time>
      </trkpt>
      <trkpt lat="50.03054" lon="2.01347">
        <ele>84.9</ele>
        <time>2022-04-17T09:54:16Z</time>
      </trkpt>
      <trkpt lat="50.03054" lon="2.01346">
        <ele>84.9</ele>
        <time>2022-04-17T09:54:17Z</time>
      </trkpt>
      <trkpt lat="50.03056" lon="2.01344">
        <ele>85</ele>
        <time>2022-04-17T09:54:19Z</time>
      </trkpt>
      <trkpt lat="50.03056" lon="2.01343">
        <ele>85</ele>
        <time>2022-04-17T09:54:20Z</time>
      </trkpt>
      <trkpt lat="50.03057" lon="2.01342">
        <ele>85</ele>
        <time>2022-04-17T09:54:21Z</time>
      </trkpt>
      <trkpt lat="50.03058" lon="2.0134">
        <ele>85</ele>
        <time>2022-04-17T09:54:22Z</time>
      </trkpt>
      <trkpt lat="50.03059" lon="2.01339">
        <ele>85.1</ele>
        <time>2022-04-17T09:54:23Z</time>
      </trkpt>
      <trkpt lat="50.03059" lon="2.01338">
        <ele>85.1</ele>
        <time>2022-04-17T09:54:24Z</time>
      </trkpt>
      <trkpt lat="50.03061" lon="2.01335">
        <ele>85.1</ele>
        <time>2022-04-17T09:54:25Z</time>
      </trkpt>
      <trkpt lat="50.03061" lon="2.01334">
        <ele>85.1</ele>
        <time>2022-04-17T09:54:27Z</time>
      </trkpt>
      <trkpt lat="50.03062" lon="2.01333">
        <ele>85.1</ele>
        <time>2022-04-17T09:54:28Z</time>
      </trkpt>
      <trkpt lat="50.03063" lon="2.01331">
        <ele>85.1</ele>
        <time>2022-04-17T09:54:29Z</time>
      </trkpt>
      <trkpt lat="50.03063" lon="2.0133">
        <ele>85.2</ele>
        <time>2022-04-17T09:54:30Z</time>
      </trkpt>
      <trkpt lat="50.03064" lon="2.01329">
        <ele>85.2</ele>
        <time>2022-04-17T09:54:31Z</time>
      </trkpt>
      <trkpt lat="50.03065" lon="2.01328">
        <ele>85.2</ele>
        <time>2022-04-17T09:54:32Z</time>
      </trkpt>
      <trkpt lat="50.03066" lon="2.01326">
        <ele>85.2</ele>
        <time>2022-04-17T09:54:33Z</time>
      </trkpt>
      <trkpt lat="50.03066" lon="2.01325">
        <ele>85.2</ele>
        <time>2022-04-17T09:54:34Z</time>
      </trkpt>
      <trkpt lat="50.03068" lon="2.01324">
        <ele>85.2</ele>
        <time>2022-04-17T09:54:36Z</time>
      </trkpt>
      <trkpt lat="50.03069" lon="2.01323">
        <ele>85.2</ele>
        <time>2022-04-17T09:54:37Z</time>
      </trkpt>
      <trkpt lat="50.0307" lon="2.01322">
        <ele>85.3</ele>
        <time>2022-04-17T09:54:38Z</time>
      </trkpt>
      <trkpt lat="50.03071" lon="2.01321">
        <ele>85.3</ele>
        <time>2022-04-17T09:54:39Z</time>
      </trkpt>
      <trkpt lat="50.03072" lon="2.0132">
        <ele>85.3</ele>
        <time>2022-04-17T09:54:40Z</time>
      </trkpt>
      <trkpt lat="50.03073" lon="2.01319">
        <ele>85.3</ele>
        <time>2022-04-17T09:54:41Z</time>
      </trkpt>
      <trkpt lat="50.03075" lon="2.01317">
        <ele>85.3</ele>
        <time>2022-04-17T09:54:42Z</time>
      </trkpt>
      <trkpt lat="50.03075" lon="2.01317">
        <ele>85.3</ele>
        <time>2022-04-17T09:54:44Z</time>
      </trkpt>
      <trkpt lat="50.03076" lon="2.01316">
        <ele>85.3</ele>
        <time>2022-04-17T09:54:45Z</time>
      </trkpt>
      <trkpt lat="50.03078" lon="2.01314">
        <ele>85.4</ele>
        <time>2022-04-17T09:54:46Z</time>
      </trkpt>
      <trkpt lat="50.03078" lon="2.01313">
        <ele>85.4</ele>
        <time>2022-04-17T09:54:47Z</time>
      </trkpt>
      <trkpt lat="50.03079" lon="2.01312">
        <ele>85.4</ele>
        <time>2022-04-17T09:54:48Z</time>
      </trkpt>
      <trkpt lat="50.0308" lon="2.01311">
        <ele>85.4</ele>
        <time>2022-04-17T09:54:49Z</time>
      </trkpt>
      <trkpt lat="50.03081" lon="2.0131">
        <ele>85.4</ele>
        <time>2022-04-17T09:54:50Z</time>
      </trkpt>
      <trkpt lat="50.03082" lon="2.01309">
        <ele>85.4</ele>
        <time>2022-04-17T09:54:52Z</time>
      </trkpt>
      <trkpt lat="50.03084" lon="2.01307">
        <ele>85.5</ele>
        <time>2022-04-17T09:54:53Z</time>
      </trkpt>
      <trkpt lat="50.03084" lon="2.01306">
        <ele>85.5</ele>
        <time>2022-04-17T09:54:54Z</time>
      </trkpt>
      <trkpt lat="50.03085" lon="2.01305">
        <ele>85.5</ele>
        <time>2022-04-17T09:54:55Z</time>
      </trkpt>
      <trkpt lat="50.03086" lon="2.01304">
        <ele>85.5</ele>
        <time>2022-04-17T09:54:56Z</time>
      </trkpt>
      <trkpt lat="50.03087" lon="2.01303">
        <ele>85.5</ele>
        <time>2022-04-17T09:54:57Z</time>
      </trkpt>
      <trkpt lat="50.03087" lon="2.01302">
        <ele>85.6</ele>
        <time>2022-04-17T09:54:58Z</time>
      </trkpt>
      <trkpt lat="50.03089" lon="2.013">
        <ele>85.6</ele>
        <time>2022-04-17T09:55:00Z</time>
      </trkpt>
      <trkpt lat="50.0309" lon="2.01299">
        <ele>85.6</ele>
        <time>2022-04-17T09:55:01Z</time>
      </trkpt>
      <trkpt lat="50.0309" lon="2.01298">
        <ele>85.6</ele>
        <time>2022-04-17T09:55:02Z</time>
      </trkpt>
      <trkpt lat="50.03092" lon="2.01296">
        <ele>85.7</ele>
        <time>2022-04-17T09:55:03Z</time>
      </trkpt>
      <trkpt lat="50.03092" lon="2.01295">
        <ele>85.7</ele>
        <time>2022-04-17T09:55:04Z</time>
      </trkpt>
      <trkpt lat="50.03093" lon="2.01294">
        <ele>85.7</ele>
        <time>2022-04-17T09:55:05Z</time>
      </trkpt>
      <trkpt lat="50.03095" lon="2.01291">
        <ele>85.7</ele>
        <time>2022-04-17T09:55:06Z</time>
      </trkpt>
      <trkpt lat="50.03095" lon="2.0129">
        <ele>85.8</ele>
        <time>2022-04-17T09:55:07Z</time>
      </trkpt>
      <trkpt lat="50.03096" lon="2.01289">
        <ele>85.8</ele>
        <time>2022-04-17T09:55:09Z</time>
      </trkpt>
      <trkpt lat="50.03097" lon="2.01288">
        <ele>85.8</ele>
        <time>2022-04-17T09:55:10Z</time>
      </trkpt>
      <trkpt lat="50.03098" lon="2.01287">
        <ele>85.8</ele>
        <time>2022-04-17T09:55:11Z</time>
      </trkpt>
      <trkpt lat="50.03098" lon="2.01286">
        <ele>85.9</ele>
        <time>2022-04-17T09:55:12Z</time>
      </trkpt>
      <trkpt lat="50.031" lon="2.01284">
        <ele>85.9</ele>
        <time>2022-04-17T09:55:13Z</time>
      </trkpt>
      <trkpt lat="50.03101" lon="2.01283">
        <ele>85.9</ele>
        <time>2022-04-17T09:55:14Z</time>
      </trkpt>
      <trkpt lat="50.03101" lon="2.01282">
        <ele>85.9</ele>
        <time>2022-04-17T09:55:15Z</time>
      </trkpt>
      <trkpt lat="50.03103" lon="2.0128">
        <ele>86</ele>
        <time>2022-04-17T09:55:17Z</time>
      </trkpt>
      <trkpt lat="50.03103" lon="2.01279">
        <ele>86</ele>
        <time>2022-04-17T09:55:18Z</time>
      </trkpt>
      <trkpt lat="50.03104" lon="2.01278">
        <ele>86</ele>
        <time>2022-04-17T09:55:19Z</time>
      </trkpt>
      <trkpt lat="50.03105" lon="2.01277">
        <ele>86</ele>
        <time>2022-04-17T09:55:20Z</time>
      </trkpt>
      <trkpt lat="50.03106" lon="2.01276">
        <ele>86.1</ele>
        <time>2022-04-17T09:55:21Z</time>
      </trkpt>
      <trkpt lat="50.03107" lon="2.01275">
        <ele>86.1</ele>
        <time>2022-04-17T09:55:22Z</time>
      </trkpt>
      <trkpt lat="50.03108" lon="2.01273">
        <ele>86.1</ele>
        <time>2022-04-17T09:55:23Z</time>
      </trkpt>
      <trkpt lat="50.03109" lon="2.01272">
        <ele>86.1</ele>
        <time>2022-04-17T09:55:25Z</time>
      </trkpt>
      <trkpt lat="50.03109" lon="2.01271">
        <ele>86.2</ele>
        <time>2022-04-17T09:55:26Z</time>
      </trkpt>
      <trkpt lat="50.03111" lon="2.01269">
        <ele>86.2</ele>
        <time>2022-04-17T09:55:27Z</time>
      </trkpt>
      <trkpt lat="50.03111" lon="2.01268">
        <ele>86.2</ele>
        <time>2022-04-17T09:55:28Z</time>
      </trkpt>
      <trkpt lat="50.03112" lon="2.01267">
        <ele>86.2</ele>
        <time>2022-04-17T09:55:29Z</time>
      </trkpt>
      <trkpt lat="50.03113" lon="2.01264">
        <ele>86.3</ele>
        <time>2022-04-17T09:55:30Z</time>
      </trkpt>
      <trkpt lat="50.03114" lon="2.01263">
        <ele>86.3</ele>
        <time>2022-04-17T09:55:32Z</time>
      </trkpt>
      <trkpt lat="50.03114" lon="2.01262">
        <ele>86.3</ele>
        <time>2022-04-17T09:55:33Z</time>
      </trkpt>
      <trkpt lat="50.03116" lon="2.0126">
        <ele>86.3</ele>
        <time>2022-04-17T09:55:34Z</time>
      </trkpt>
      <trkpt lat="50.03116" lon="2.01259">
        <ele>86.4</ele>
        <time>2022-04-17T09:55:35Z</time>
      </trkpt>
      <trkpt lat="50.03117" lon="2.01258">
        <ele>86.4</ele>
        <time>2022-04-17T09:55:36Z</time>
      </trkpt>
      <trkpt lat="50.03118" lon="2.01257">
        <ele>86.4</ele>
        <time>2022-04-17T09:55:37Z</time>
      </trkpt>
      <trkpt lat="50.03119" lon="2.01256">
        <ele>86.4</ele>
        <time>2022-04-17T09:55:38Z</time>
      </trkpt>
      <trkpt lat="50.03119" lon="2.01255">
        <ele>86.4</ele>
        <time>2022-04-17T09:55:40Z</time>
      </trkpt>
      <trkpt lat="50.0312" lon="2.01253">
        <ele>86.4</ele>
        <time>2022-04-17T09:55:41Z</time>
      </trkpt>
      <trkpt lat="50.03121" lon="2.01252">
        <ele>86.4</ele>
        <time>2022-04-17T09:55:42Z</time>
      </trkpt>
      <trkpt lat="50.03122" lon="2.01251">
        <ele>86.5</ele>
        <time>2022-04-17T09:55:43Z</time>
      </trkpt>
      <trkpt lat="50.03123" lon="2.01249">
        <ele>86.5</ele>
        <time>2022-04-17T09:55:44Z</time>
      </trkpt>
      <trkpt lat="50.03124" lon="2.01248">
        <ele>86.5</ele>
        <time>2022-04-17T09:55:45Z</time>
      </trkpt>
      <trkpt lat="50.03125" lon="2.01247">
        <ele>86.5</ele>
        <time>2022-04-17T09:55:46Z</time>
      </trkpt>
      <trkpt lat="50.03126" lon="2.01246">
        <ele>86.5</ele>
        <time>2022-04-17T09:55:47Z</time>
      </trkpt>
      <trkpt lat="50.03127" lon="2.01245">
        <ele>86.5</ele>
        <time>2022-04-17T09:55:49Z</time>
      </trkpt>
      <trkpt lat="50.03128" lon="2.01244">
        <ele>86.5</ele>
        <time>2022-04-17T09:55:50Z</time>
      </trkpt>
      <trkpt lat="50.03129" lon="2.01242">
        <ele>86.6</ele>
        <time>2022-04-17T09:55:51Z</time>
      </trkpt>
      <trkpt lat="50.0313" lon="2.01241">
        <ele>86.6</ele>
        <time>2022-04-17T09:55:52Z</time>
      </trkpt>
      <trkpt lat="50.03131" lon="2.01241">
        <ele>86.6</ele>
        <time>2022-04-17T09:55:53Z</time>
      </trkpt>
      <trkpt lat="50.03132" lon="2.01238">
        <ele>86.6</ele>
        <time>2022-04-17T09:55:54Z</time>
      </trkpt>
      <trkpt lat="50.03133" lon="2.01237">
        <ele>86.6</ele>
        <time>2022-04-17T09:55:56Z</time>
      </trkpt>
      <trkpt lat="50.03134" lon="2.01236">
        <ele>86.7</ele>
        <time>2022-04-17T09:55:58Z</time>
      </trkpt>
      <trkpt lat="50.03135" lon="2.01235">
        <ele>86.7</ele>
        <time>2022-04-17T09:55:59Z</time>
      </trkpt>
      <trkpt lat="50.03136" lon="2.01234">
        <ele>86.7</ele>
        <time>2022-04-17T09:56:00Z</time>
      </trkpt>
      <trkpt lat="50.03137" lon="2.01232">
        <ele>86.7</ele>
        <time>2022-04-17T09:56:01Z</time>
      </trkpt>
      <trkpt lat="50.03138" lon="2.01231">
        <ele>86.8</ele>
        <time>2022-04-17T09:56:02Z</time>
      </trkpt>
      <trkpt lat="50.03139" lon="2.0123">
        <ele>86.8</ele>
        <time>2022-04-17T09:56:03Z</time>
      </trkpt>
      <trkpt lat="50.0314" lon="2.01229">
        <ele>86.8</ele>
        <time>2022-04-17T09:56:04Z</time>
      </trkpt>
      <trkpt lat="50.03141" lon="2.01228">
        <ele>86.8</ele>
        <time>2022-04-17T09:56:05Z</time>
      </trkpt>
      <trkpt lat="50.03141" lon="2.01227">
        <ele>86.9</ele>
        <time>2022-04-17T09:56:07Z</time>
      </trkpt>
      <trkpt lat="50.03142" lon="2.01225">
        <ele>86.9</ele>
        <time>2022-04-17T09:56:08Z</time>
      </trkpt>
      <trkpt lat="50.03143" lon="2.01224">
        <ele>86.9</ele>
        <time>2022-04-17T09:56:09Z</time>
      </trkpt>
      <trkpt lat="50.03144" lon="2.01223">
        <ele>86.9</ele>
        <time>2022-04-17T09:56:10Z</time>
      </trkpt>
      <trkpt lat="50.03145" lon="2.01222">
        <ele>87</ele>
        <time>2022-04-17T09:56:11Z</time>
      </trkpt>
      <trkpt lat="50.03146" lon="2.01221">
        <ele>87</ele>
        <time>2022-04-17T09:56:13Z</time>
      </trkpt>
      <trkpt lat="50.03146" lon="2.01219">
        <ele>87</ele>
        <time>2022-04-17T09:56:14Z</time>
      </trkpt>
      <trkpt lat="50.03147" lon="2.01218">
        <ele>87</ele>
        <time>2022-04-17T09:56:15Z</time>
      </trkpt>
      <trkpt lat="50.03148" lon="2.01217">
        <ele>87.1</ele>
        <time>2022-04-17T09:56:16Z</time>
      </trkpt>
      <trkpt lat="50.03149" lon="2.01216">
        <ele>87.1</ele>
        <time>2022-04-17T09:56:17Z</time>
      </trkpt>
      <trkpt lat="50.0315" lon="2.01215">
        <ele>87.1</ele>
        <time>2022-04-17T09:56:18Z</time>
      </trkpt>
      <trkpt lat="50.03151" lon="2.01214">
        <ele>87.1</ele>
        <time>2022-04-17T09:56:20Z</time>
      </trkpt>
      <trkpt lat="50.03151" lon="2.01213">
        <ele>87.2</ele>
        <time>2022-04-17T09:56:21Z</time>
      </trkpt>
      <trkpt lat="50.03152" lon="2.01212">
        <ele>87.2</ele>
        <time>2022-04-17T09:56:22Z</time>
      </trkpt>
      <trkpt lat="50.03153" lon="2.01211">
        <ele>87.2</ele>
        <time>2022-04-17T09:56:23Z</time>
      </trkpt>
      <trkpt lat="50.03154" lon="2.0121">
        <ele>87.2</ele>
        <time>2022-04-17T09:56:24Z</time>
      </trkpt>
      <trkpt lat="50.03154" lon="2.01209">
        <ele>87.2</ele>
        <time>2022-04-17T09:56:25Z</time>
      </trkpt>
      <trkpt lat="50.03155" lon="2.01208">
        <ele>87.2</ele>
        <time>2022-04-17T09:56:26Z</time>
      </trkpt>
      <trkpt lat="50.03156" lon="2.01207">
        <ele>87.3</ele>
        <time>2022-04-17T09:56:28Z</time>
      </trkpt>
      <trkpt lat="50.03155" lon="2.01205">
        <ele>87.3</ele>
        <time>2022-04-17T09:56:29Z</time>
      </trkpt>
      <trkpt lat="50.03155" lon="2.01203">
        <ele>87.3</ele>
        <time>2022-04-17T09:56:30Z</time>
      </trkpt>
      <trkpt lat="50.03155" lon="2.01203">
        <ele>87.3</ele>
        <time>2022-04-17T09:56:31Z</time>
      </trkpt>
      <trkpt lat="50.03155" lon="2.01202">
        <ele>87.3</ele>
        <time>2022-04-17T09:56:32Z</time>
      </trkpt>
      <trkpt lat="50.03154" lon="2.01201">
        <ele>87.3</ele>
        <time>2022-04-17T09:56:33Z</time>
      </trkpt>
      <trkpt lat="50.03154" lon="2.01201">
        <ele>87.3</ele>
        <time>2022-04-17T09:56:34Z</time>
      </trkpt>
      <trkpt lat="50.03154" lon="2.01202">
        <ele>87.3</ele>
        <time>2022-04-17T09:56:36Z</time>
      </trkpt>
      <trkpt lat="50.03154" lon="2.01201">
        <ele>87.3</ele>
        <time>2022-04-17T09:56:37Z</time>
      </trkpt>
      <trkpt lat="50.03154" lon="2.01201">
        <ele>87.3</ele>
        <time>2022-04-17T09:56:38Z</time>
      </trkpt>
      <trkpt lat="50.03155" lon="2.012">
        <ele>87.3</ele>
        <time>2022-04-17T09:56:39Z</time>
      </trkpt>
      <trkpt lat="50.03155" lon="2.012">
        <ele>87.3</ele>
        <time>2022-04-17T09:56:40Z</time>
      </trkpt>
      <trkpt lat="50.03155" lon="2.012">
        <ele>87.3</ele>
        <time>2022-04-17T09:56:41Z</time>
      </trkpt>
      <trkpt lat="50.03155" lon="2.012">
        <ele>87.3</ele>
        <time>2022-04-17T09:56:42Z</time>
      </trkpt>
      <trkpt lat="50.03155" lon="2.012">
        <ele>87.3</ele>
        <time>2022-04-17T09:56:43Z</time>
      </trkpt>
      <trkpt lat="50.03155" lon="2.01201">
        <ele>87.3</ele>
        <time>2022-04-17T09:56:44Z</time>
      </trkpt>
      <trkpt lat="50.03155" lon="2.01201">
        <ele>87.3</ele>
        <time>2022-04-17T09:56:45Z</time>
      </trkpt>
      <trkpt lat="50.03155" lon="2.01201">
        <ele>87.4</ele>
        <time>2022-04-17T09:56:47Z</time>
      </trkpt>
      <trkpt lat="50.03155" lon="2.01201">
        <ele>87.4</ele>
        <time>2022-04-17T09:56:48Z</time>
      </trkpt>
      <trkpt lat="50.03156" lon="2.01201">
        <ele>87.4</ele>
        <time>2022-04-17T09:56:49Z</time>
      </trkpt>
      <trkpt lat="50.03156" lon="2.01201">
        <ele>87.4</ele>
        <time>2022-04-17T09:56:50Z</time>
      </trkpt>
      <trkpt lat="50.03157" lon="2.01201">
        <ele>87.4</ele>
        <time>2022-04-17T09:56:51Z</time>
      </trkpt>
      <trkpt lat="50.03157" lon="2.012">
        <ele>87.4</ele>
        <time>2022-04-17T09:56:52Z</time>
      </trkpt>
      <trkpt lat="50.03158" lon="2.012">
        <ele>87.4</ele>
        <time>2022-04-17T09:56:54Z</time>
      </trkpt>
      <trkpt lat="50.03159" lon="2.01199">
        <ele>87.4</ele>
        <time>2022-04-17T09:56:55Z</time>
      </trkpt>
      <trkpt lat="50.03159" lon="2.01198">
        <ele>87.4</ele>
        <time>2022-04-17T09:56:56Z</time>
      </trkpt>
      <trkpt lat="50.0316" lon="2.01197">
        <ele>87.4</ele>
        <time>2022-04-17T09:56:57Z</time>
      </trkpt>
      <trkpt lat="50.0316" lon="2.01196">
        <ele>87.4</ele>
        <time>2022-04-17T09:56:58Z</time>
      </trkpt>
      <trkpt lat="50.03161" lon="2.01195">
        <ele>87.4</ele>
        <time>2022-04-17T09:56:59Z</time>
      </trkpt>
      <trkpt lat="50.03162" lon="2.01193">
        <ele>87.4</ele>
        <time>2022-04-17T09:57:01Z</time>
      </trkpt>
      <trkpt lat="50.03162" lon="2.01191">
        <ele>87.4</ele>
        <time>2022-04-17T09:57:02Z</time>
      </trkpt>
      <trkpt lat="50.03163" lon="2.0119">
        <ele>87.4</ele>
        <time>2022-04-17T09:57:03Z</time>
      </trkpt>
      <trkpt lat="50.03164" lon="2.01189">
        <ele>87.4</ele>
        <time>2022-04-17T09:57:04Z</time>
      </trkpt>
      <trkpt lat="50.03164" lon="2.01187">
        <ele>87.4</ele>
        <time>2022-04-17T09:57:05Z</time>
      </trkpt>
      <trkpt lat="50.03165" lon="2.01185">
        <ele>87.5</ele>
        <time>2022-04-17T09:57:06Z</time>
      </trkpt>
      <trkpt lat="50.03165" lon="2.01184">
        <ele>87.5</ele>
        <time>2022-04-17T09:57:08Z</time>
      </trkpt>
      <trkpt lat="50.03166" lon="2.01182">
        <ele>87.5</ele>
        <time>2022-04-17T09:57:09Z</time>
      </trkpt>
      <trkpt lat="50.03167" lon="2.01181">
        <ele>87.5</ele>
        <time>2022-04-17T09:57:10Z</time>
      </trkpt>
      <trkpt lat="50.03167" lon="2.01179">
        <ele>87.5</ele>
        <time>2022-04-17T09:57:11Z</time>
      </trkpt>
      <trkpt lat="50.03168" lon="2.01177">
        <ele>87.5</ele>
        <time>2022-04-17T09:57:12Z</time>
      </trkpt>
      <trkpt lat="50.03168" lon="2.01176">
        <ele>87.5</ele>
        <time>2022-04-17T09:57:14Z</time>
      </trkpt>
      <trkpt lat="50.03169" lon="2.01174">
        <ele>87.5</ele>
        <time>2022-04-17T09:57:15Z</time>
      </trkpt>
      <trkpt lat="50.0317" lon="2.01171">
        <ele>87.5</ele>
        <time>2022-04-17T09:57:16Z</time>
      </trkpt>
      <trkpt lat="50.03171" lon="2.01169">
        <ele>87.5</ele>
        <time>2022-04-17T09:57:18Z</time>
      </trkpt>
      <trkpt lat="50.03171" lon="2.01166">
        <ele>87.5</ele>
        <time>2022-04-17T09:57:19Z</time>
      </trkpt>
      <trkpt lat="50.03172" lon="2.01164">
        <ele>87.5</ele>
        <time>2022-04-17T09:57:20Z</time>
      </trkpt>
      <trkpt lat="50.03173" lon="2.01162">
        <ele>87.6</ele>
        <time>2022-04-17T09:57:21Z</time>
      </trkpt>
      <trkpt lat="50.03174" lon="2.0116">
        <ele>87.6</ele>
        <time>2022-04-17T09:57:22Z</time>
      </trkpt>
      <trkpt lat="50.03174" lon="2.01158">
        <ele>87.6</ele>
        <time>2022-04-17T09:57:23Z</time>
      </trkpt>
      <trkpt lat="50.03175" lon="2.01156">
        <ele>87.6</ele>
        <time>2022-04-17T09:57:24Z</time>
      </trkpt>
      <trkpt lat="50.03176" lon="2.01154">
        <ele>87.6</ele>
        <time>2022-04-17T09:57:25Z</time>
      </trkpt>
      <trkpt lat="50.03177" lon="2.01152">
        <ele>87.6</ele>
        <time>2022-04-17T09:57:27Z</time>
      </trkpt>
      <trkpt lat="50.03177" lon="2.0115">
        <ele>87.6</ele>
        <time>2022-04-17T09:57:28Z</time>
      </trkpt>
      <trkpt lat="50.03178" lon="2.01147">
        <ele>87.6</ele>
        <time>2022-04-17T09:57:29Z</time>
      </trkpt>
      <trkpt lat="50.03179" lon="2.01145">
        <ele>87.6</ele>
        <time>2022-04-17T09:57:30Z</time>
      </trkpt>
      <trkpt lat="50.0318" lon="2.01143">
        <ele>87.6</ele>
        <time>2022-04-17T09:57:31Z</time>
      </trkpt>
      <trkpt lat="50.0318" lon="2.01141">
        <ele>87.7</ele>
        <time>2022-04-17T09:57:32Z</time>
      </trkpt>
      <trkpt lat="50.03181" lon="2.0114">
        <ele>87.7</ele>
        <time>2022-04-17T09:57:33Z</time>
      </trkpt>
      <trkpt lat="50.03182" lon="2.01137">
        <ele>87.7</ele>
        <time>2022-04-17T09:57:34Z</time>
      </trkpt>
      <trkpt lat="50.03183" lon="2.01136">
        <ele>87.7</ele>
        <time>2022-04-17T09:57:36Z</time>
      </trkpt>
      <trkpt lat="50.03183" lon="2.01135">
        <ele>87.7</ele>
        <time>2022-04-17T09:57:37Z</time>
      </trkpt>
      <trkpt lat="50.03184" lon="2.01132">
        <ele>87.7</ele>
        <time>2022-04-17T09:57:38Z</time>
      </trkpt>
      <trkpt lat="50.03185" lon="2.0113">
        <ele>87.8</ele>
        <time>2022-04-17T09:57:39Z</time>
      </trkpt>
      <trkpt lat="50.03185" lon="2.01129">
        <ele>87.8</ele>
        <time>2022-04-17T09:57:40Z</time>
      </trkpt>
      <trkpt lat="50.03186" lon="2.01127">
        <ele>87.8</ele>
        <time>2022-04-17T09:57:41Z</time>
      </trkpt>
      <trkpt lat="50.03186" lon="2.01126">
        <ele>87.8</ele>
        <time>2022-04-17T09:57:42Z</time>
      </trkpt>
      <trkpt lat="50.03187" lon="2.01124">
        <ele>87.8</ele>
        <time>2022-04-17T09:57:44Z</time>
      </trkpt>
      <trkpt lat="50.03188" lon="2.01122">
        <ele>87.8</ele>
        <time>2022-04-17T09:57:45Z</time>
      </trkpt>
      <trkpt lat="50.03189" lon="2.01119">
        <ele>87.8</ele>
        <time>2022-04-17T09:57:46Z</time>
      </trkpt>
      <trkpt lat="50.03189" lon="2.01117">
        <ele>87.8</ele>
        <time>2022-04-17T09:57:48Z</time>
      </trkpt>
      <trkpt lat="50.0319" lon="2.01116">
        <ele>87.9</ele>
        <time>2022-04-17T09:57:49Z</time>
      </trkpt>
      <trkpt lat="50.03191" lon="2.01112">
        <ele>87.9</ele>
        <time>2022-04-17T09:57:50Z</time>
      </trkpt>
      <trkpt lat="50.03192" lon="2.0111">
        <ele>87.9</ele>
        <time>2022-04-17T09:57:52Z</time>
      </trkpt>
      <trkpt lat="50.03192" lon="2.01109">
        <ele>87.9</ele>
        <time>2022-04-17T09:57:53Z</time>
      </trkpt>
      <trkpt lat="50.03193" lon="2.01108">
        <ele>87.9</ele>
        <time>2022-04-17T09:57:54Z</time>
      </trkpt>
      <trkpt lat="50.03193" lon="2.01106">
        <ele>87.9</ele>
        <time>2022-04-17T09:57:55Z</time>
      </trkpt>
      <trkpt lat="50.03194" lon="2.01103">
        <ele>87.9</ele>
        <time>2022-04-17T09:57:56Z</time>
      </trkpt>
      <trkpt lat="50.03195" lon="2.01102">
        <ele>87.9</ele>
        <time>2022-04-17T09:57:57Z</time>
      </trkpt>
      <trkpt lat="50.03195" lon="2.01101">
        <ele>87.9</ele>
        <time>2022-04-17T09:57:58Z</time>
      </trkpt>
      <trkpt lat="50.03196" lon="2.01098">
        <ele>88</ele>
        <time>2022-04-17T09:58:00Z</time>
      </trkpt>
      <trkpt lat="50.03196" lon="2.01097">
        <ele>88</ele>
        <time>2022-04-17T09:58:01Z</time>
      </trkpt>
      <trkpt lat="50.03197" lon="2.01095">
        <ele>88</ele>
        <time>2022-04-17T09:58:02Z</time>
      </trkpt>
      <trkpt lat="50.03198" lon="2.01093">
        <ele>88</ele>
        <time>2022-04-17T09:58:03Z</time>
      </trkpt>
      <trkpt lat="50.03198" lon="2.01092">
        <ele>88</ele>
        <time>2022-04-17T09:58:04Z</time>
      </trkpt>
      <trkpt lat="50.03199" lon="2.01091">
        <ele>88</ele>
        <time>2022-04-17T09:58:05Z</time>
      </trkpt>
      <trkpt lat="50.032" lon="2.01088">
        <ele>88</ele>
        <time>2022-04-17T09:58:06Z</time>
      </trkpt>
      <trkpt lat="50.03201" lon="2.01087">
        <ele>88</ele>
        <time>2022-04-17T09:58:07Z</time>
      </trkpt>
      <trkpt lat="50.03201" lon="2.01085">
        <ele>88</ele>
        <time>2022-04-17T09:58:09Z</time>
      </trkpt>
      <trkpt lat="50.03202" lon="2.01084">
        <ele>88</ele>
        <time>2022-04-17T09:58:10Z</time>
      </trkpt>
      <trkpt lat="50.03202" lon="2.01083">
        <ele>88</ele>
        <time>2022-04-17T09:58:11Z</time>
      </trkpt>
      <trkpt lat="50.03203" lon="2.01082">
        <ele>88</ele>
        <time>2022-04-17T09:58:12Z</time>
      </trkpt>
      <trkpt lat="50.03204" lon="2.01079">
        <ele>88</ele>
        <time>2022-04-17T09:58:13Z</time>
      </trkpt>
      <trkpt lat="50.03204" lon="2.01078">
        <ele>88</ele>
        <time>2022-04-17T09:58:14Z</time>
      </trkpt>
      <trkpt lat="50.03205" lon="2.01077">
        <ele>88</ele>
        <time>2022-04-17T09:58:15Z</time>
      </trkpt>
      <trkpt lat="50.03205" lon="2.01075">
        <ele>88</ele>
        <time>2022-04-17T09:58:17Z</time>
      </trkpt>
      <trkpt lat="50.03206" lon="2.01074">
        <ele>88</ele>
        <time>2022-04-17T09:58:18Z</time>
      </trkpt>
      <trkpt lat="50.03207" lon="2.01072">
        <ele>88.1</ele>
        <time>2022-04-17T09:58:19Z</time>
      </trkpt>
      <trkpt lat="50.03207" lon="2.0107">
        <ele>88.1</ele>
        <time>2022-04-17T09:58:20Z</time>
      </trkpt>
      <trkpt lat="50.03208" lon="2.01069">
        <ele>88.1</ele>
        <time>2022-04-17T09:58:22Z</time>
      </trkpt>
      <trkpt lat="50.03209" lon="2.01067">
        <ele>88.1</ele>
        <time>2022-04-17T09:58:23Z</time>
      </trkpt>
      <trkpt lat="50.03209" lon="2.01065">
        <ele>88.1</ele>
        <time>2022-04-17T09:58:24Z</time>
      </trkpt>
      <trkpt lat="50.0321" lon="2.01064">
        <ele>88.1</ele>
        <time>2022-04-17T09:58:25Z</time>
      </trkpt>
      <trkpt lat="50.0321" lon="2.01062">
        <ele>88.1</ele>
        <time>2022-04-17T09:58:26Z</time>
      </trkpt>
      <trkpt lat="50.03211" lon="2.01061">
        <ele>88.1</ele>
        <time>2022-04-17T09:58:27Z</time>
      </trkpt>
      <trkpt lat="50.03211" lon="2.01059">
        <ele>88.1</ele>
        <time>2022-04-17T09:58:28Z</time>
      </trkpt>
      <trkpt lat="50.03212" lon="2.01056">
        <ele>88.2</ele>
        <time>2022-04-17T09:58:30Z</time>
      </trkpt>
      <trkpt lat="50.03213" lon="2.01055">
        <ele>88.2</ele>
        <time>2022-04-17T09:58:31Z</time>
      </trkpt>
      <trkpt lat="50.03213" lon="2.01054">
        <ele>88.2</ele>
        <time>2022-04-17T09:58:32Z</time>
      </trkpt>
      <trkpt lat="50.03213" lon="2.01052">
        <ele>88.2</ele>
        <time>2022-04-17T09:58:33Z</time>
      </trkpt>
      <trkpt lat="50.03214" lon="2.01049">
        <ele>88.2</ele>
        <time>2022-04-17T09:58:35Z</time>
      </trkpt>
      <trkpt lat="50.03215" lon="2.01047">
        <ele>88.2</ele>
        <time>2022-04-17T09:58:36Z</time>
      </trkpt>
      <trkpt lat="50.03215" lon="2.01045">
        <ele>88.2</ele>
        <time>2022-04-17T09:58:37Z</time>
      </trkpt>
      <trkpt lat="50.03216" lon="2.01043">
        <ele>88.3</ele>
        <time>2022-04-17T09:58:39Z</time>
      </trkpt>
      <trkpt lat="50.03217" lon="2.0104">
        <ele>88.3</ele>
        <time>2022-04-17T09:58:40Z</time>
      </trkpt>
      <trkpt lat="50.03217" lon="2.01039">
        <ele>88.3</ele>
        <time>2022-04-17T09:58:41Z</time>
      </trkpt>
      <trkpt lat="50.03217" lon="2.01038">
        <ele>88.3</ele>
        <time>2022-04-17T09:58:42Z</time>
      </trkpt>
      <trkpt lat="50.03218" lon="2.01035">
        <ele>88.3</ele>
        <time>2022-04-17T09:58:43Z</time>
      </trkpt>
      <trkpt lat="50.03219" lon="2.01034">
        <ele>88.3</ele>
        <time>2022-04-17T09:58:44Z</time>
      </trkpt>
      <trkpt lat="50.03219" lon="2.01033">
        <ele>88.3</ele>
        <time>2022-04-17T09:58:45Z</time>
      </trkpt>
      <trkpt lat="50.03219" lon="2.0103">
        <ele>88.4</ele>
        <time>2022-04-17T09:58:47Z</time>
      </trkpt>
      <trkpt lat="50.0322" lon="2.01028">
        <ele>88.4</ele>
        <time>2022-04-17T09:58:48Z</time>
      </trkpt>
      <trkpt lat="50.0322" lon="2.01027">
        <ele>88.4</ele>
        <time>2022-04-17T09:58:49Z</time>
      </trkpt>
      <trkpt lat="50.03221" lon="2.01025">
        <ele>88.4</ele>
        <time>2022-04-17T09:58:50Z</time>
      </trkpt>
      <trkpt lat="50.03221" lon="2.01024">
        <ele>88.4</ele>
        <time>2022-04-17T09:58:51Z</time>
      </trkpt>
      <trkpt lat="50.03222" lon="2.01022">
        <ele>88.4</ele>
        <time>2022-04-17T09:58:52Z</time>
      </trkpt>
      <trkpt lat="50.03222" lon="2.0102">
        <ele>88.4</ele>
        <time>2022-04-17T09:58:53Z</time>
      </trkpt>
      <trkpt lat="50.03223" lon="2.01018">
        <ele>88.4</ele>
        <time>2022-04-17T09:58:54Z</time>
      </trkpt>
      <trkpt lat="50.03223" lon="2.01016">
        <ele>88.5</ele>
        <time>2022-04-17T09:58:56Z</time>
      </trkpt>
      <trkpt lat="50.03224" lon="2.01014">
        <ele>88.5</ele>
        <time>2022-04-17T09:58:57Z</time>
      </trkpt>
      <trkpt lat="50.03224" lon="2.01012">
        <ele>88.5</ele>
        <time>2022-04-17T09:58:58Z</time>
      </trkpt>
      <trkpt lat="50.03225" lon="2.0101">
        <ele>88.5</ele>
        <time>2022-04-17T09:58:59Z</time>
      </trkpt>
      <trkpt lat="50.03226" lon="2.01008">
        <ele>88.5</ele>
        <time>2022-04-17T09:59:00Z</time>
      </trkpt>
      <trkpt lat="50.03227" lon="2.01007">
        <ele>88.5</ele>
        <time>2022-04-17T09:59:01Z</time>
      </trkpt>
      <trkpt lat="50.03227" lon="2.01005">
        <ele>88.5</ele>
        <time>2022-04-17T09:59:02Z</time>
      </trkpt>
      <trkpt lat="50.03228" lon="2.01002">
        <ele>88.6</ele>
        <time>2022-04-17T09:59:03Z</time>
      </trkpt>
      <trkpt lat="50.03229" lon="2.01001">
        <ele>88.6</ele>
        <time>2022-04-17T09:59:05Z</time>
      </trkpt>
      <trkpt lat="50.03229" lon="2.01">
        <ele>88.6</ele>
        <time>2022-04-17T09:59:06Z</time>
      </trkpt>
      <trkpt lat="50.03231" lon="2.00997">
        <ele>88.6</ele>
        <time>2022-04-17T09:59:07Z</time>
      </trkpt>
      <trkpt lat="50.03231" lon="2.00996">
        <ele>88.6</ele>
        <time>2022-04-17T09:59:08Z</time>
      </trkpt>
      <trkpt lat="50.03231" lon="2.00995">
        <ele>88.6</ele>
        <time>2022-04-17T09:59:09Z</time>
      </trkpt>
      <trkpt lat="50.03232" lon="2.00993">
        <ele>88.6</ele>
        <time>2022-04-17T09:59:10Z</time>
      </trkpt>
      <trkpt lat="50.03233" lon="2.00992">
        <ele>88.6</ele>
        <time>2022-04-17T09:59:11Z</time>
      </trkpt>
      <trkpt lat="50.03233" lon="2.0099">
        <ele>88.7</ele>
        <time>2022-04-17T09:59:13Z</time>
      </trkpt>
      <trkpt lat="50.03234" lon="2.00987">
        <ele>88.7</ele>
        <time>2022-04-17T09:59:14Z</time>
      </trkpt>
      <trkpt lat="50.03235" lon="2.00986">
        <ele>88.7</ele>
        <time>2022-04-17T09:59:15Z</time>
      </trkpt>
      <trkpt lat="50.03235" lon="2.00985">
        <ele>88.7</ele>
        <time>2022-04-17T09:59:16Z</time>
      </trkpt>
      <trkpt lat="50.03236" lon="2.00982">
        <ele>88.7</ele>
        <time>2022-04-17T09:59:17Z</time>
      </trkpt>
      <trkpt lat="50.03237" lon="2.00981">
        <ele>88.7</ele>
        <time>2022-04-17T09:59:18Z</time>
      </trkpt>
      <trkpt lat="50.03237" lon="2.0098">
        <ele>88.7</ele>
        <time>2022-04-17T09:59:19Z</time>
      </trkpt>
      <trkpt lat="50.03238" lon="2.00977">
        <ele>88.8</ele>
        <time>2022-04-17T09:59:20Z</time>
      </trkpt>
      <trkpt lat="50.03239" lon="2.00976">
        <ele>88.8</ele>
        <time>2022-04-17T09:59:22Z</time>
      </trkpt>
      <trkpt lat="50.03239" lon="2.00975">
        <ele>88.8</ele>
        <time>2022-04-17T09:59:23Z</time>
      </trkpt>
      <trkpt lat="50.0324" lon="2.00973">
        <ele>88.8</ele>
        <time>2022-04-17T09:59:24Z</time>
      </trkpt>
      <trkpt lat="50.0324" lon="2.00971">
        <ele>88.8</ele>
        <time>2022-04-17T09:59:25Z</time>
      </trkpt>
      <trkpt lat="50.0324" lon="2.00969">
        <ele>88.8</ele>
        <time>2022-04-17T09:59:26Z</time>
      </trkpt>
      <trkpt lat="50.03241" lon="2.00968">
        <ele>88.8</ele>
        <time>2022-04-17T09:59:27Z</time>
      </trkpt>
      <trkpt lat="50.03241" lon="2.00966">
        <ele>88.8</ele>
        <time>2022-04-17T09:59:28Z</time>
      </trkpt>
      <trkpt lat="50.03241" lon="2.00964">
        <ele>88.9</ele>
        <time>2022-04-17T09:59:30Z</time>
      </trkpt>
      <trkpt lat="50.03242" lon="2.00963">
        <ele>88.9</ele>
        <time>2022-04-17T09:59:31Z</time>
      </trkpt>
      <trkpt lat="50.03242" lon="2.00961">
        <ele>88.9</ele>
        <time>2022-04-17T09:59:32Z</time>
      </trkpt>
      <trkpt lat="50.03243" lon="2.00959">
        <ele>88.9</ele>
        <time>2022-04-17T09:59:33Z</time>
      </trkpt>
      <trkpt lat="50.03243" lon="2.00957">
        <ele>88.9</ele>
        <time>2022-04-17T09:59:34Z</time>
      </trkpt>
      <trkpt lat="50.03244" lon="2.00956">
        <ele>88.9</ele>
        <time>2022-04-17T09:59:35Z</time>
      </trkpt>
      <trkpt lat="50.03244" lon="2.00954">
        <ele>88.9</ele>
        <time>2022-04-17T09:59:36Z</time>
      </trkpt>
      <trkpt lat="50.03245" lon="2.00952">
        <ele>88.9</ele>
        <time>2022-04-17T09:59:37Z</time>
      </trkpt>
      <trkpt lat="50.03245" lon="2.00951">
        <ele>89</ele>
        <time>2022-04-17T09:59:38Z</time>
      </trkpt>
      <trkpt lat="50.03247" lon="2.00948">
        <ele>89</ele>
        <time>2022-04-17T09:59:40Z</time>
      </trkpt>
      <trkpt lat="50.03247" lon="2.00947">
        <ele>89</ele>
        <time>2022-04-17T09:59:41Z</time>
      </trkpt>
      <trkpt lat="50.03248" lon="2.00946">
        <ele>89</ele>
        <time>2022-04-17T09:59:42Z</time>
      </trkpt>
      <trkpt lat="50.03249" lon="2.00943">
        <ele>89</ele>
        <time>2022-04-17T09:59:43Z</time>
      </trkpt>
      <trkpt lat="50.03249" lon="2.00942">
        <ele>89</ele>
        <time>2022-04-17T09:59:44Z</time>
      </trkpt>
      <trkpt lat="50.0325" lon="2.00941">
        <ele>89</ele>
        <time>2022-04-17T09:59:45Z</time>
      </trkpt>
      <trkpt lat="50.0325" lon="2.00939">
        <ele>89</ele>
        <time>2022-04-17T09:59:46Z</time>
      </trkpt>
      <trkpt lat="50.03251" lon="2.00937">
        <ele>89</ele>
        <time>2022-04-17T09:59:48Z</time>
      </trkpt>
      <trkpt lat="50.03251" lon="2.00936">
        <ele>89.1</ele>
        <time>2022-04-17T09:59:49Z</time>
      </trkpt>
      <trkpt lat="50.03252" lon="2.00934">
        <ele>89.1</ele>
        <time>2022-04-17T09:59:50Z</time>
      </trkpt>
      <trkpt lat="50.03252" lon="2.00932">
        <ele>89.1</ele>
        <time>2022-04-17T09:59:51Z</time>
      </trkpt>
      <trkpt lat="50.03252" lon="2.00931">
        <ele>89.1</ele>
        <time>2022-04-17T09:59:52Z</time>
      </trkpt>
      <trkpt lat="50.03253" lon="2.00929">
        <ele>89.1</ele>
        <time>2022-04-17T09:59:53Z</time>
      </trkpt>
      <trkpt lat="50.03253" lon="2.00927">
        <ele>89.1</ele>
        <time>2022-04-17T09:59:54Z</time>
      </trkpt>
      <trkpt lat="50.03254" lon="2.00925">
        <ele>89.1</ele>
        <time>2022-04-17T09:59:56Z</time>
      </trkpt>
      <trkpt lat="50.03254" lon="2.00923">
        <ele>89.1</ele>
        <time>2022-04-17T09:59:57Z</time>
      </trkpt>
      <trkpt lat="50.03255" lon="2.00922">
        <ele>89.1</ele>
        <time>2022-04-17T09:59:58Z</time>
      </trkpt>
      <trkpt lat="50.03255" lon="2.0092">
        <ele>89.1</ele>
        <time>2022-04-17T09:59:59Z</time>
      </trkpt>
      <trkpt lat="50.03256" lon="2.00919">
        <ele>89.2</ele>
        <time>2022-04-17T10:00:00Z</time>
      </trkpt>
      <trkpt lat="50.03256" lon="2.00917">
        <ele>89.2</ele>
        <time>2022-04-17T10:00:01Z</time>
      </trkpt>
      <trkpt lat="50.03257" lon="2.00916">
        <ele>89.2</ele>
        <time>2022-04-17T10:00:02Z</time>
      </trkpt>
      <trkpt lat="50.03257" lon="2.00914">
        <ele>89.2</ele>
        <time>2022-04-17T10:00:03Z</time>
      </trkpt>
      <trkpt lat="50.03258" lon="2.00913">
        <ele>89.2</ele>
        <time>2022-04-17T10:00:05Z</time>
      </trkpt>
      <trkpt lat="50.03259" lon="2.00911">
        <ele>89.2</ele>
        <time>2022-04-17T10:00:06Z</time>
      </trkpt>
      <trkpt lat="50.0326" lon="2.00909">
        <ele>89.2</ele>
        <time>2022-04-17T10:00:07Z</time>
      </trkpt>
      <trkpt lat="50.0326" lon="2.00908">
        <ele>89.2</ele>
        <time>2022-04-17T10:00:08Z</time>
      </trkpt>
      <trkpt lat="50.03261" lon="2.00907">
        <ele>89.2</ele>
        <time>2022-04-17T10:00:09Z</time>
      </trkpt>
      <trkpt lat="50.03262" lon="2.00905">
        <ele>89.2</ele>
        <time>2022-04-17T10:00:10Z</time>
      </trkpt>
      <trkpt lat="50.03262" lon="2.00903">
        <ele>89.2</ele>
        <time>2022-04-17T10:00:11Z</time>
      </trkpt>
      <trkpt lat="50.03263" lon="2.00902">
        <ele>89.3</ele>
        <time>2022-04-17T10:00:13Z</time>
      </trkpt>
      <trkpt lat="50.03264" lon="2.009">
        <ele>89.3</ele>
        <time>2022-04-17T10:00:14Z</time>
      </trkpt>
      <trkpt lat="50.03264" lon="2.00898">
        <ele>89.3</ele>
        <time>2022-04-17T10:00:15Z</time>
      </trkpt>
      <trkpt lat="50.03266" lon="2.00895">
        <ele>89.3</ele>
        <time>2022-04-17T10:00:16Z</time>
      </trkpt>
      <trkpt lat="50.03266" lon="2.00894">
        <ele>89.3</ele>
        <time>2022-04-17T10:00:17Z</time>
      </trkpt>
      <trkpt lat="50.03266" lon="2.00893">
        <ele>89.3</ele>
        <time>2022-04-17T10:00:18Z</time>
      </trkpt>
      <trkpt lat="50.03267" lon="2.00892">
        <ele>89.3</ele>
        <time>2022-04-17T10:00:19Z</time>
      </trkpt>
      <trkpt lat="50.03268" lon="2.0089">
        <ele>89.3</ele>
        <time>2022-04-17T10:00:20Z</time>
      </trkpt>
      <trkpt lat="50.03269" lon="2.00889">
        <ele>89.3</ele>
        <time>2022-04-17T10:00:22Z</time>
      </trkpt>
      <trkpt lat="50.0327" lon="2.00886">
        <ele>89.4</ele>
        <time>2022-04-17T10:00:23Z</time>
      </trkpt>
      <trkpt lat="50.03271" lon="2.00885">
        <ele>89.4</ele>
        <time>2022-04-17T10:00:24Z</time>
      </trkpt>
      <trkpt lat="50.03271" lon="2.00884">
        <ele>89.4</ele>
        <time>2022-04-17T10:00:25Z</time>
      </trkpt>
      <trkpt lat="50.03272" lon="2.00883">
        <ele>89.4</ele>
        <time>2022-04-17T10:00:26Z</time>
      </trkpt>
      <trkpt lat="50.03273" lon="2.00882">
        <ele>89.4</ele>
        <time>2022-04-17T10:00:27Z</time>
      </trkpt>
      <trkpt lat="50.03275" lon="2.0088">
        <ele>89.4</ele>
        <time>2022-04-17T10:00:28Z</time>
      </trkpt>
      <trkpt lat="50.03276" lon="2.00878">
        <ele>89.4</ele>
        <time>2022-04-17T10:00:29Z</time>
      </trkpt>
      <trkpt lat="50.03277" lon="2.00877">
        <ele>89.4</ele>
        <time>2022-04-17T10:00:31Z</time>
      </trkpt>
      <trkpt lat="50.03278" lon="2.00875">
        <ele>89.5</ele>
        <time>2022-04-17T10:00:32Z</time>
      </trkpt>
      <trkpt lat="50.03279" lon="2.00874">
        <ele>89.5</ele>
        <time>2022-04-17T10:00:33Z</time>
      </trkpt>
      <trkpt lat="50.0328" lon="2.00872">
        <ele>89.5</ele>
        <time>2022-04-17T10:00:34Z</time>
      </trkpt>
      <trkpt lat="50.03281" lon="2.00869">
        <ele>89.5</ele>
        <time>2022-04-17T10:00:35Z</time>
      </trkpt>
      <trkpt lat="50.03282" lon="2.00868">
        <ele>89.5</ele>
        <time>2022-04-17T10:00:36Z</time>
      </trkpt>
      <trkpt lat="50.03282" lon="2.00867">
        <ele>89.5</ele>
        <time>2022-04-17T10:00:37Z</time>
      </trkpt>
      <trkpt lat="50.03283" lon="2.00865">
        <ele>89.6</ele>
        <time>2022-04-17T10:00:38Z</time>
      </trkpt>
      <trkpt lat="50.03284" lon="2.00864">
        <ele>89.6</ele>
        <time>2022-04-17T10:00:39Z</time>
      </trkpt>
      <trkpt lat="50.03285" lon="2.00862">
        <ele>89.6</ele>
        <time>2022-04-17T10:00:41Z</time>
      </trkpt>
      <trkpt lat="50.03286" lon="2.0086">
        <ele>89.6</ele>
        <time>2022-04-17T10:00:42Z</time>
      </trkpt>
      <trkpt lat="50.03287" lon="2.00859">
        <ele>89.6</ele>
        <time>2022-04-17T10:00:43Z</time>
      </trkpt>
      <trkpt lat="50.03287" lon="2.00858">
        <ele>89.6</ele>
        <time>2022-04-17T10:00:44Z</time>
      </trkpt>
      <trkpt lat="50.03289" lon="2.00856">
        <ele>89.7</ele>
        <time>2022-04-17T10:00:45Z</time>
      </trkpt>
      <trkpt lat="50.03289" lon="2.00855">
        <ele>89.7</ele>
        <time>2022-04-17T10:00:46Z</time>
      </trkpt>
      <trkpt lat="50.0329" lon="2.00854">
        <ele>89.7</ele>
        <time>2022-04-17T10:00:47Z</time>
      </trkpt>
      <trkpt lat="50.03292" lon="2.00852">
        <ele>89.7</ele>
        <time>2022-04-17T10:00:49Z</time>
      </trkpt>
      <trkpt lat="50.03292" lon="2.00851">
        <ele>89.7</ele>
        <time>2022-04-17T10:00:50Z</time>
      </trkpt>
      <trkpt lat="50.03293" lon="2.00851">
        <ele>89.7</ele>
        <time>2022-04-17T10:00:51Z</time>
      </trkpt>
      <trkpt lat="50.03294" lon="2.0085">
        <ele>89.7</ele>
        <time>2022-04-17T10:00:52Z</time>
      </trkpt>
      <trkpt lat="50.03295" lon="2.00849">
        <ele>89.7</ele>
        <time>2022-04-17T10:00:53Z</time>
      </trkpt>
      <trkpt lat="50.03296" lon="2.00848">
        <ele>89.8</ele>
        <time>2022-04-17T10:00:54Z</time>
      </trkpt>
      <trkpt lat="50.03297" lon="2.00846">
        <ele>89.8</ele>
        <time>2022-04-17T10:00:55Z</time>
      </trkpt>
      <trkpt lat="50.03298" lon="2.00845">
        <ele>89.8</ele>
        <time>2022-04-17T10:00:56Z</time>
      </trkpt>
      <trkpt lat="50.03299" lon="2.00843">
        <ele>89.8</ele>
        <time>2022-04-17T10:00:58Z</time>
      </trkpt>
      <trkpt lat="50.033" lon="2.00841">
        <ele>89.8</ele>
        <time>2022-04-17T10:00:59Z</time>
      </trkpt>
      <trkpt lat="50.03301" lon="2.0084">
        <ele>89.8</ele>
        <time>2022-04-17T10:01:00Z</time>
      </trkpt>
      <trkpt lat="50.03301" lon="2.00839">
        <ele>89.8</ele>
        <time>2022-04-17T10:01:01Z</time>
      </trkpt>
      <trkpt lat="50.03302" lon="2.00838">
        <ele>89.8</ele>
        <time>2022-04-17T10:01:02Z</time>
      </trkpt>
      <trkpt lat="50.03303" lon="2.00837">
        <ele>89.8</ele>
        <time>2022-04-17T10:01:04Z</time>
      </trkpt>
      <trkpt lat="50.03303" lon="2.00835">
        <ele>89.8</ele>
        <time>2022-04-17T10:01:05Z</time>
      </trkpt>
      <trkpt lat="50.03305" lon="2.00834">
        <ele>89.8</ele>
        <time>2022-04-17T10:01:06Z</time>
      </trkpt>
      <trkpt lat="50.03305" lon="2.00833">
        <ele>89.8</ele>
        <time>2022-04-17T10:01:08Z</time>
      </trkpt>
      <trkpt lat="50.03306" lon="2.00832">
        <ele>89.8</ele>
        <time>2022-04-17T10:01:09Z</time>
      </trkpt>
      <trkpt lat="50.03307" lon="2.0083">
        <ele>89.8</ele>
        <time>2022-04-17T10:01:10Z</time>
      </trkpt>
      <trkpt lat="50.03308" lon="2.00829">
        <ele>89.8</ele>
        <time>2022-04-17T10:01:11Z</time>
      </trkpt>
      <trkpt lat="50.03309" lon="2.00828">
        <ele>89.8</ele>
        <time>2022-04-17T10:01:12Z</time>
      </trkpt>
      <trkpt lat="50.03309" lon="2.00827">
        <ele>89.8</ele>
        <time>2022-04-17T10:01:14Z</time>
      </trkpt>
      <trkpt lat="50.0331" lon="2.00826">
        <ele>89.8</ele>
        <time>2022-04-17T10:01:15Z</time>
      </trkpt>
      <trkpt lat="50.03311" lon="2.00825">
        <ele>89.8</ele>
        <time>2022-04-17T10:01:16Z</time>
      </trkpt>
      <trkpt lat="50.03312" lon="2.00824">
        <ele>89.8</ele>
        <time>2022-04-17T10:01:17Z</time>
      </trkpt>
      <trkpt lat="50.03313" lon="2.00823">
        <ele>89.9</ele>
        <time>2022-04-17T10:01:18Z</time>
      </trkpt>
      <trkpt lat="50.03314" lon="2.00822">
        <ele>89.9</ele>
        <time>2022-04-17T10:01:19Z</time>
      </trkpt>
      <trkpt lat="50.03315" lon="2.00821">
        <ele>89.9</ele>
        <time>2022-04-17T10:01:20Z</time>
      </trkpt>
      <trkpt lat="50.03316" lon="2.0082">
        <ele>89.9</ele>
        <time>2022-04-17T10:01:21Z</time>
      </trkpt>
      <trkpt lat="50.03317" lon="2.0082">
        <ele>89.9</ele>
        <time>2022-04-17T10:01:22Z</time>
      </trkpt>
      <trkpt lat="50.03319" lon="2.00819">
        <ele>89.9</ele>
        <time>2022-04-17T10:01:24Z</time>
      </trkpt>
      <trkpt lat="50.0332" lon="2.00818">
        <ele>89.9</ele>
        <time>2022-04-17T10:01:25Z</time>
      </trkpt>
      <trkpt lat="50.03321" lon="2.00817">
        <ele>90</ele>
        <time>2022-04-17T10:01:26Z</time>
      </trkpt>
      <trkpt lat="50.03322" lon="2.00817">
        <ele>90</ele>
        <time>2022-04-17T10:01:27Z</time>
      </trkpt>
      <trkpt lat="50.03323" lon="2.00816">
        <ele>90</ele>
        <time>2022-04-17T10:01:28Z</time>
      </trkpt>
      <trkpt lat="50.03324" lon="2.00815">
        <ele>90</ele>
        <time>2022-04-17T10:01:29Z</time>
      </trkpt>
      <trkpt lat="50.03326" lon="2.00813">
        <ele>90</ele>
        <time>2022-04-17T10:01:30Z</time>
      </trkpt>
      <trkpt lat="50.03327" lon="2.00812">
        <ele>90</ele>
        <time>2022-04-17T10:01:32Z</time>
      </trkpt>
      <trkpt lat="50.03327" lon="2.00812">
        <ele>90</ele>
        <time>2022-04-17T10:01:33Z</time>
      </trkpt>
      <trkpt lat="50.03329" lon="2.0081">
        <ele>90</ele>
        <time>2022-04-17T10:01:34Z</time>
      </trkpt>
      <trkpt lat="50.03329" lon="2.00809">
        <ele>90.1</ele>
        <time>2022-04-17T10:01:35Z</time>
      </trkpt>
      <trkpt lat="50.0333" lon="2.00808">
        <ele>90.1</ele>
        <time>2022-04-17T10:01:36Z</time>
      </trkpt>
      <trkpt lat="50.03332" lon="2.00806">
        <ele>90.1</ele>
        <time>2022-04-17T10:01:37Z</time>
      </trkpt>
      <trkpt lat="50.03332" lon="2.00805">
        <ele>90.1</ele>
        <time>2022-04-17T10:01:38Z</time>
      </trkpt>
      <trkpt lat="50.03333" lon="2.00804">
        <ele>90.1</ele>
        <time>2022-04-17T10:01:39Z</time>
      </trkpt>
      <trkpt lat="50.03335" lon="2.00802">
        <ele>90.1</ele>
        <time>2022-04-17T10:01:41Z</time>
      </trkpt>
      <trkpt lat="50.03336" lon="2.00802">
        <ele>90.1</ele>
        <time>2022-04-17T10:01:42Z</time>
      </trkpt>
      <trkpt lat="50.03336" lon="2.00801">
        <ele>90.1</ele>
        <time>2022-04-17T10:01:43Z</time>
      </trkpt>
      <trkpt lat="50.03338" lon="2.00799">
        <ele>90.1</ele>
        <time>2022-04-17T10:01:44Z</time>
      </trkpt>
      <trkpt lat="50.03339" lon="2.00798">
        <ele>90.2</ele>
        <time>2022-04-17T10:01:45Z</time>
      </trkpt>
      <trkpt lat="50.03339" lon="2.00797">
        <ele>90.2</ele>
        <time>2022-04-17T10:01:46Z</time>
      </trkpt>
      <trkpt lat="50.0334" lon="2.00796">
        <ele>90.2</ele>
        <time>2022-04-17T10:01:47Z</time>
      </trkpt>
      <trkpt lat="50.03341" lon="2.00794">
        <ele>90.2</ele>
        <time>2022-04-17T10:01:49Z</time>
      </trkpt>
      <trkpt lat="50.03342" lon="2.00792">
        <ele>90.2</ele>
        <time>2022-04-17T10:01:50Z</time>
      </trkpt>
      <trkpt lat="50.03343" lon="2.00791">
        <ele>90.2</ele>
        <time>2022-04-17T10:01:51Z</time>
      </trkpt>
      <trkpt lat="50.03344" lon="2.0079">
        <ele>90.2</ele>
        <time>2022-04-17T10:01:52Z</time>
      </trkpt>
      <trkpt lat="50.03344" lon="2.00789">
        <ele>90.2</ele>
        <time>2022-04-17T10:01:53Z</time>
      </trkpt>
      <trkpt lat="50.03345" lon="2.00788">
        <ele>90.2</ele>
        <time>2022-04-17T10:01:54Z</time>
      </trkpt>
      <trkpt lat="50.03346" lon="2.00787">
        <ele>90.2</ele>
        <time>2022-04-17T10:01:55Z</time>
      </trkpt>
      <trkpt lat="50.03347" lon="2.00786">
        <ele>90.3</ele>
        <time>2022-04-17T10:01:57Z</time>
      </trkpt>
      <trkpt lat="50.03348" lon="2.00785">
        <ele>90.3</ele>
        <time>2022-04-17T10:01:58Z</time>
      </trkpt>
      <trkpt lat="50.03349" lon="2.00784">
        <ele>90.3</ele>
        <time>2022-04-17T10:01:59Z</time>
      </trkpt>
      <trkpt lat="50.0335" lon="2.00783">
        <ele>90.3</ele>
        <time>2022-04-17T10:02:00Z</time>
      </trkpt>
      <trkpt lat="50.03351" lon="2.00782">
        <ele>90.3</ele>
        <time>2022-04-17T10:02:01Z</time>
      </trkpt>
      <trkpt lat="50.03352" lon="2.00781">
        <ele>90.3</ele>
        <time>2022-04-17T10:02:02Z</time>
      </trkpt>
      <trkpt lat="50.03353" lon="2.00781">
        <ele>90.3</ele>
        <time>2022-04-17T10:02:03Z</time>
      </trkpt>
      <trkpt lat="50.03353" lon="2.0078">
        <ele>90.3</ele>
        <time>2022-04-17T10:02:04Z</time>
      </trkpt>
      <trkpt lat="50.03354" lon="2.00779">
        <ele>90.3</ele>
        <time>2022-04-17T10:02:05Z</time>
      </trkpt>
      <trkpt lat="50.03355" lon="2.00778">
        <ele>90.3</ele>
        <time>2022-04-17T10:02:06Z</time>
      </trkpt>
      <trkpt lat="50.03355" lon="2.00777">
        <ele>90.3</ele>
        <time>2022-04-17T10:02:07Z</time>
      </trkpt>
      <trkpt lat="50.03356" lon="2.00776">
        <ele>90.3</ele>
        <time>2022-04-17T10:02:09Z</time>
      </trkpt>
      <trkpt lat="50.03357" lon="2.00775">
        <ele>90.3</ele>
        <time>2022-04-17T10:02:10Z</time>
      </trkpt>
      <trkpt lat="50.03358" lon="2.00774">
        <ele>90.3</ele>
        <time>2022-04-17T10:02:11Z</time>
      </trkpt>
      <trkpt lat="50.03359" lon="2.00773">
        <ele>90.3</ele>
        <time>2022-04-17T10:02:12Z</time>
      </trkpt>
      <trkpt lat="50.0336" lon="2.00772">
        <ele>90.3</ele>
        <time>2022-04-17T10:02:13Z</time>
      </trkpt>
      <trkpt lat="50.03361" lon="2.00771">
        <ele>90.3</ele>
        <time>2022-04-17T10:02:14Z</time>
      </trkpt>
      <trkpt lat="50.03362" lon="2.0077">
        <ele>90.3</ele>
        <time>2022-04-17T10:02:15Z</time>
      </trkpt>
      <trkpt lat="50.03363" lon="2.00769">
        <ele>90.3</ele>
        <time>2022-04-17T10:02:17Z</time>
      </trkpt>
      <trkpt lat="50.03364" lon="2.00768">
        <ele>90.3</ele>
        <time>2022-04-17T10:02:18Z</time>
      </trkpt>
      <trkpt lat="50.03365" lon="2.00767">
        <ele>90.3</ele>
        <time>2022-04-17T10:02:19Z</time>
      </trkpt>
      <trkpt lat="50.03366" lon="2.00765">
        <ele>90.3</ele>
        <time>2022-04-17T10:02:20Z</time>
      </trkpt>
      <trkpt lat="50.03368" lon="2.00763">
        <ele>90.3</ele>
        <time>2022-04-17T10:02:22Z</time>
      </trkpt>
      <trkpt lat="50.03368" lon="2.00762">
        <ele>90.3</ele>
        <time>2022-04-17T10:02:23Z</time>
      </trkpt>
      <trkpt lat="50.03369" lon="2.00761">
        <ele>90.3</ele>
        <time>2022-04-17T10:02:24Z</time>
      </trkpt>
      <trkpt lat="50.03371" lon="2.00759">
        <ele>90.3</ele>
        <time>2022-04-17T10:02:25Z</time>
      </trkpt>
      <trkpt lat="50.03371" lon="2.00758">
        <ele>90.3</ele>
        <time>2022-04-17T10:02:26Z</time>
      </trkpt>
      <trkpt lat="50.03372" lon="2.00757">
        <ele>90.3</ele>
        <time>2022-04-17T10:02:27Z</time>
      </trkpt>
      <trkpt lat="50.03374" lon="2.00755">
        <ele>90.3</ele>
        <time>2022-04-17T10:02:28Z</time>
      </trkpt>
      <trkpt lat="50.03374" lon="2.00754">
        <ele>90.3</ele>
        <time>2022-04-17T10:02:30Z</time>
      </trkpt>
      <trkpt lat="50.03375" lon="2.00753">
        <ele>90.3</ele>
        <time>2022-04-17T10:02:31Z</time>
      </trkpt>
      <trkpt lat="50.03377" lon="2.00751">
        <ele>90.2</ele>
        <time>2022-04-17T10:02:32Z</time>
      </trkpt>
      <trkpt lat="50.03377" lon="2.0075">
        <ele>90.2</ele>
        <time>2022-04-17T10:02:33Z</time>
      </trkpt>
      <trkpt lat="50.03378" lon="2.00749">
        <ele>90.2</ele>
        <time>2022-04-17T10:02:34Z</time>
      </trkpt>
      <trkpt lat="50.03379" lon="2.00748">
        <ele>90.2</ele>
        <time>2022-04-17T10:02:35Z</time>
      </trkpt>
      <trkpt lat="50.0338" lon="2.00747">
        <ele>90.2</ele>
        <time>2022-04-17T10:02:36Z</time>
      </trkpt>
      <trkpt lat="50.03381" lon="2.00746">
        <ele>90.2</ele>
        <time>2022-04-17T10:02:37Z</time>
      </trkpt>
      <trkpt lat="50.03383" lon="2.00745">
        <ele>90.2</ele>
        <time>2022-04-17T10:02:39Z</time>
      </trkpt>
      <trkpt lat="50.03383" lon="2.00744">
        <ele>90.2</ele>
        <time>2022-04-17T10:02:40Z</time>
      </trkpt>
      <trkpt lat="50.03384" lon="2.00743">
        <ele>90.2</ele>
        <time>2022-04-17T10:02:41Z</time>
      </trkpt>
      <trkpt lat="50.03386" lon="2.00742">
        <ele>90.2</ele>
        <time>2022-04-17T10:02:42Z</time>
      </trkpt>
      <trkpt lat="50.03387" lon="2.00741">
        <ele>90.2</ele>
        <time>2022-04-17T10:02:43Z</time>
      </trkpt>
      <trkpt lat="50.03387" lon="2.0074">
        <ele>90.2</ele>
        <time>2022-04-17T10:02:44Z</time>
      </trkpt>
      <trkpt lat="50.03389" lon="2.00739">
        <ele>90.2</ele>
        <time>2022-04-17T10:02:45Z</time>
      </trkpt>
      <trkpt lat="50.0339" lon="2.00738">
        <ele>90.2</ele>
        <time>2022-04-17T10:02:47Z</time>
      </trkpt>
      <trkpt lat="50.0339" lon="2.00738">
        <ele>90.2</ele>
        <time>2022-04-17T10:02:48Z</time>
      </trkpt>
      <trkpt lat="50.03392" lon="2.00736">
        <ele>90.3</ele>
        <time>2022-04-17T10:02:49Z</time>
      </trkpt>
      <trkpt lat="50.03393" lon="2.00735">
        <ele>90.3</ele>
        <time>2022-04-17T10:02:50Z</time>
      </trkpt>
      <trkpt lat="50.03394" lon="2.00735">
        <ele>90.3</ele>
        <time>2022-04-17T10:02:51Z</time>
      </trkpt>
      <trkpt lat="50.03395" lon="2.00734">
        <ele>90.3</ele>
        <time>2022-04-17T10:02:52Z</time>
      </trkpt>
      <trkpt lat="50.03395" lon="2.00733">
        <ele>90.3</ele>
        <time>2022-04-17T10:02:53Z</time>
      </trkpt>
      <trkpt lat="50.03396" lon="2.00732">
        <ele>90.3</ele>
        <time>2022-04-17T10:02:54Z</time>
      </trkpt>
      <trkpt lat="50.03397" lon="2.00731">
        <ele>90.3</ele>
        <time>2022-04-17T10:02:55Z</time>
      </trkpt>
      <trkpt lat="50.03398" lon="2.0073">
        <ele>90.3</ele>
        <time>2022-04-17T10:02:56Z</time>
      </trkpt>
      <trkpt lat="50.03399" lon="2.0073">
        <ele>90.3</ele>
        <time>2022-04-17T10:02:57Z</time>
      </trkpt>
      <trkpt lat="50.034" lon="2.00728">
        <ele>90.2</ele>
        <time>2022-04-17T10:02:59Z</time>
      </trkpt>
      <trkpt lat="50.03401" lon="2.00727">
        <ele>90.2</ele>
        <time>2022-04-17T10:03:00Z</time>
      </trkpt>
      <trkpt lat="50.03402" lon="2.00726">
        <ele>90.2</ele>
        <time>2022-04-17T10:03:01Z</time>
      </trkpt>
      <trkpt lat="50.03403" lon="2.00725">
        <ele>90.2</ele>
        <time>2022-04-17T10:03:02Z</time>
      </trkpt>
      <trkpt lat="50.03404" lon="2.00723">
        <ele>90.2</ele>
        <time>2022-04-17T10:03:04Z</time>
      </trkpt>
      <trkpt lat="50.03406" lon="2.00721">
        <ele>90.2</ele>
        <time>2022-04-17T10:03:05Z</time>
      </trkpt>
      <trkpt lat="50.03406" lon="2.0072">
        <ele>90.2</ele>
        <time>2022-04-17T10:03:06Z</time>
      </trkpt>
      <trkpt lat="50.03407" lon="2.00719">
        <ele>90.2</ele>
        <time>2022-04-17T10:03:07Z</time>
      </trkpt>
      <trkpt lat="50.03409" lon="2.00717">
        <ele>90.2</ele>
        <time>2022-04-17T10:03:08Z</time>
      </trkpt>
      <trkpt lat="50.03409" lon="2.00716">
        <ele>90.2</ele>
        <time>2022-04-17T10:03:09Z</time>
      </trkpt>
      <trkpt lat="50.0341" lon="2.00715">
        <ele>90.2</ele>
        <time>2022-04-17T10:03:10Z</time>
      </trkpt>
      <trkpt lat="50.03411" lon="2.00713">
        <ele>90.2</ele>
        <time>2022-04-17T10:03:12Z</time>
      </trkpt>
      <trkpt lat="50.03412" lon="2.00712">
        <ele>90.2</ele>
        <time>2022-04-17T10:03:13Z</time>
      </trkpt>
      <trkpt lat="50.03413" lon="2.00711">
        <ele>90.2</ele>
        <time>2022-04-17T10:03:14Z</time>
      </trkpt>
      <trkpt lat="50.03413" lon="2.0071">
        <ele>90.2</ele>
        <time>2022-04-17T10:03:15Z</time>
      </trkpt>
      <trkpt lat="50.03414" lon="2.00709">
        <ele>90.2</ele>
        <time>2022-04-17T10:03:16Z</time>
      </trkpt>
      <trkpt lat="50.03415" lon="2.00708">
        <ele>90.2</ele>
        <time>2022-04-17T10:03:17Z</time>
      </trkpt>
      <trkpt lat="50.03417" lon="2.00706">
        <ele>90.1</ele>
        <time>2022-04-17T10:03:18Z</time>
      </trkpt>
      <trkpt lat="50.03418" lon="2.00705">
        <ele>90.1</ele>
        <time>2022-04-17T10:03:19Z</time>
      </trkpt>
      <trkpt lat="50.03418" lon="2.00704">
        <ele>90.1</ele>
        <time>2022-04-17T10:03:21Z</time>
      </trkpt>
      <trkpt lat="50.03419" lon="2.00703">
        <ele>90.1</ele>
        <time>2022-04-17T10:03:22Z</time>
      </trkpt>
      <trkpt lat="50.0342" lon="2.00702">
        <ele>90.1</ele>
        <time>2022-04-17T10:03:23Z</time>
      </trkpt>
      <trkpt lat="50.03421" lon="2.00701">
        <ele>90.1</ele>
        <time>2022-04-17T10:03:24Z</time>
      </trkpt>
      <trkpt lat="50.03422" lon="2.00699">
        <ele>90.1</ele>
        <time>2022-04-17T10:03:25Z</time>
      </trkpt>
      <trkpt lat="50.03423" lon="2.00698">
        <ele>90.1</ele>
        <time>2022-04-17T10:03:26Z</time>
      </trkpt>
      <trkpt lat="50.03423" lon="2.00698">
        <ele>90.1</ele>
        <time>2022-04-17T10:03:27Z</time>
      </trkpt>
      <trkpt lat="50.03425" lon="2.00695">
        <ele>90.1</ele>
        <time>2022-04-17T10:03:28Z</time>
      </trkpt>
      <trkpt lat="50.03425" lon="2.00694">
        <ele>90.1</ele>
        <time>2022-04-17T10:03:30Z</time>
      </trkpt>
      <trkpt lat="50.03426" lon="2.00693">
        <ele>90.1</ele>
        <time>2022-04-17T10:03:31Z</time>
      </trkpt>
      <trkpt lat="50.03428" lon="2.00691">
        <ele>90.1</ele>
        <time>2022-04-17T10:03:32Z</time>
      </trkpt>
      <trkpt lat="50.03428" lon="2.0069">
        <ele>90.1</ele>
        <time>2022-04-17T10:03:33Z</time>
      </trkpt>
      <trkpt lat="50.03429" lon="2.00689">
        <ele>90.1</ele>
        <time>2022-04-17T10:03:34Z</time>
      </trkpt>
      <trkpt lat="50.0343" lon="2.00688">
        <ele>90.1</ele>
        <time>2022-04-17T10:03:35Z</time>
      </trkpt>
      <trkpt lat="50.03431" lon="2.00686">
        <ele>90.1</ele>
        <time>2022-04-17T10:03:36Z</time>
      </trkpt>
      <trkpt lat="50.03431" lon="2.00685">
        <ele>90.1</ele>
        <time>2022-04-17T10:03:38Z</time>
      </trkpt>
      <trkpt lat="50.03433" lon="2.00682">
        <ele>90.1</ele>
        <time>2022-04-17T10:03:39Z</time>
      </trkpt>
      <trkpt lat="50.03434" lon="2.00681">
        <ele>90.1</ele>
        <time>2022-04-17T10:03:40Z</time>
      </trkpt>
      <trkpt lat="50.03434" lon="2.0068">
        <ele>90.1</ele>
        <time>2022-04-17T10:03:41Z</time>
      </trkpt>
      <trkpt lat="50.03435" lon="2.00679">
        <ele>90.1</ele>
        <time>2022-04-17T10:03:42Z</time>
      </trkpt>
      <trkpt lat="50.03436" lon="2.00677">
        <ele>90.1</ele>
        <time>2022-04-17T10:03:43Z</time>
      </trkpt>
      <trkpt lat="50.03438" lon="2.00675">
        <ele>90.1</ele>
        <time>2022-04-17T10:03:44Z</time>
      </trkpt>
      <trkpt lat="50.03438" lon="2.00674">
        <ele>90.1</ele>
        <time>2022-04-17T10:03:46Z</time>
      </trkpt>
      <trkpt lat="50.03439" lon="2.00673">
        <ele>90.1</ele>
        <time>2022-04-17T10:03:47Z</time>
      </trkpt>
      <trkpt lat="50.0344" lon="2.00671">
        <ele>90.1</ele>
        <time>2022-04-17T10:03:48Z</time>
      </trkpt>
      <trkpt lat="50.03441" lon="2.0067">
        <ele>90.1</ele>
        <time>2022-04-17T10:03:49Z</time>
      </trkpt>
      <trkpt lat="50.03441" lon="2.00669">
        <ele>90.1</ele>
        <time>2022-04-17T10:03:50Z</time>
      </trkpt>
      <trkpt lat="50.03443" lon="2.00667">
        <ele>90.1</ele>
        <time>2022-04-17T10:03:51Z</time>
      </trkpt>
      <trkpt lat="50.03444" lon="2.00666">
        <ele>90.1</ele>
        <time>2022-04-17T10:03:52Z</time>
      </trkpt>
      <trkpt lat="50.03444" lon="2.00665">
        <ele>90.1</ele>
        <time>2022-04-17T10:03:53Z</time>
      </trkpt>
      <trkpt lat="50.03446" lon="2.00663">
        <ele>90</ele>
        <time>2022-04-17T10:03:54Z</time>
      </trkpt>
      <trkpt lat="50.03446" lon="2.00662">
        <ele>90</ele>
        <time>2022-04-17T10:03:56Z</time>
      </trkpt>
      <trkpt lat="50.03447" lon="2.00661">
        <ele>90</ele>
        <time>2022-04-17T10:03:57Z</time>
      </trkpt>
      <trkpt lat="50.03449" lon="2.00659">
        <ele>90</ele>
        <time>2022-04-17T10:03:58Z</time>
      </trkpt>
      <trkpt lat="50.03449" lon="2.00658">
        <ele>90</ele>
        <time>2022-04-17T10:03:59Z</time>
      </trkpt>
      <trkpt lat="50.0345" lon="2.00657">
        <ele>90</ele>
        <time>2022-04-17T10:04:00Z</time>
      </trkpt>
      <trkpt lat="50.0345" lon="2.00655">
        <ele>90</ele>
        <time>2022-04-17T10:04:01Z</time>
      </trkpt>
      <trkpt lat="50.03451" lon="2.00654">
        <ele>90</ele>
        <time>2022-04-17T10:04:02Z</time>
      </trkpt>
      <trkpt lat="50.03452" lon="2.00653">
        <ele>90</ele>
        <time>2022-04-17T10:04:03Z</time>
      </trkpt>
      <trkpt lat="50.03453" lon="2.00651">
        <ele>89.9</ele>
        <time>2022-04-17T10:04:05Z</time>
      </trkpt>
      <trkpt lat="50.03454" lon="2.00649">
        <ele>89.9</ele>
        <time>2022-04-17T10:04:06Z</time>
      </trkpt>
      <trkpt lat="50.03454" lon="2.00647">
        <ele>89.9</ele>
        <time>2022-04-17T10:04:07Z</time>
      </trkpt>
      <trkpt lat="50.03455" lon="2.00646">
        <ele>89.8</ele>
        <time>2022-04-17T10:04:08Z</time>
      </trkpt>
      <trkpt lat="50.03456" lon="2.00645">
        <ele>89.8</ele>
        <time>2022-04-17T10:04:09Z</time>
      </trkpt>
      <trkpt lat="50.03457" lon="2.00642">
        <ele>89.8</ele>
        <time>2022-04-17T10:04:10Z</time>
      </trkpt>
      <trkpt lat="50.03458" lon="2.00641">
        <ele>89.7</ele>
        <time>2022-04-17T10:04:12Z</time>
      </trkpt>
      <trkpt lat="50.03458" lon="2.00639">
        <ele>89.7</ele>
        <time>2022-04-17T10:04:13Z</time>
      </trkpt>
      <trkpt lat="50.03459" lon="2.00638">
        <ele>89.7</ele>
        <time>2022-04-17T10:04:14Z</time>
      </trkpt>
      <trkpt lat="50.0346" lon="2.00637">
        <ele>89.7</ele>
        <time>2022-04-17T10:04:15Z</time>
      </trkpt>
      <trkpt lat="50.0346" lon="2.00635">
        <ele>89.6</ele>
        <time>2022-04-17T10:04:16Z</time>
      </trkpt>
      <trkpt lat="50.03461" lon="2.00634">
        <ele>89.6</ele>
        <time>2022-04-17T10:04:17Z</time>
      </trkpt>
      <trkpt lat="50.03462" lon="2.00632">
        <ele>89.6</ele>
        <time>2022-04-17T10:04:18Z</time>
      </trkpt>
      <trkpt lat="50.03463" lon="2.0063">
        <ele>89.6</ele>
        <time>2022-04-17T10:04:19Z</time>
      </trkpt>
      <trkpt lat="50.03463" lon="2.00629">
        <ele>89.5</ele>
        <time>2022-04-17T10:04:21Z</time>
      </trkpt>
      <trkpt lat="50.03464" lon="2.00628">
        <ele>89.5</ele>
        <time>2022-04-17T10:04:22Z</time>
      </trkpt>
      <trkpt lat="50.03465" lon="2.00625">
        <ele>89.5</ele>
        <time>2022-04-17T10:04:23Z</time>
      </trkpt>
      <trkpt lat="50.03466" lon="2.00624">
        <ele>89.5</ele>
        <time>2022-04-17T10:04:24Z</time>
      </trkpt>
      <trkpt lat="50.03466" lon="2.00623">
        <ele>89.4</ele>
        <time>2022-04-17T10:04:25Z</time>
      </trkpt>
      <trkpt lat="50.03467" lon="2.00621">
        <ele>89.4</ele>
        <time>2022-04-17T10:04:26Z</time>
      </trkpt>
      <trkpt lat="50.03468" lon="2.0062">
        <ele>89.4</ele>
        <time>2022-04-17T10:04:27Z</time>
      </trkpt>
      <trkpt lat="50.03469" lon="2.00618">
        <ele>89.4</ele>
        <time>2022-04-17T10:04:29Z</time>
      </trkpt>
      <trkpt lat="50.0347" lon="2.00616">
        <ele>89.3</ele>
        <time>2022-04-17T10:04:30Z</time>
      </trkpt>
      <trkpt lat="50.03471" lon="2.00614">
        <ele>89.3</ele>
        <time>2022-04-17T10:04:31Z</time>
      </trkpt>
      <trkpt lat="50.03472" lon="2.00612">
        <ele>89.3</ele>
        <time>2022-04-17T10:04:32Z</time>
      </trkpt>
      <trkpt lat="50.03473" lon="2.00611">
        <ele>89.2</ele>
        <time>2022-04-17T10:04:34Z</time>
      </trkpt>
      <trkpt lat="50.03474" lon="2.00609">
        <ele>89.2</ele>
        <time>2022-04-17T10:04:35Z</time>
      </trkpt>
      <trkpt lat="50.03475" lon="2.00606">
        <ele>89.2</ele>
        <time>2022-04-17T10:04:36Z</time>
      </trkpt>
      <trkpt lat="50.03476" lon="2.00605">
        <ele>89.2</ele>
        <time>2022-04-17T10:04:37Z</time>
      </trkpt>
      <trkpt lat="50.03476" lon="2.00604">
        <ele>89.2</ele>
        <time>2022-04-17T10:04:38Z</time>
      </trkpt>
      <trkpt lat="50.03477" lon="2.00603">
        <ele>89.1</ele>
        <time>2022-04-17T10:04:39Z</time>
      </trkpt>
      <trkpt lat="50.03478" lon="2.00601">
        <ele>89.1</ele>
        <time>2022-04-17T10:04:40Z</time>
      </trkpt>
      <trkpt lat="50.03479" lon="2.00599">
        <ele>89.1</ele>
        <time>2022-04-17T10:04:42Z</time>
      </trkpt>
      <trkpt lat="50.03479" lon="2.00598">
        <ele>89.1</ele>
        <time>2022-04-17T10:04:43Z</time>
      </trkpt>
      <trkpt lat="50.0348" lon="2.00596">
        <ele>89.1</ele>
        <time>2022-04-17T10:04:44Z</time>
      </trkpt>
      <trkpt lat="50.03482" lon="2.00593">
        <ele>89</ele>
        <time>2022-04-17T10:04:45Z</time>
      </trkpt>
      <trkpt lat="50.03482" lon="2.00592">
        <ele>89</ele>
        <time>2022-04-17T10:04:46Z</time>
      </trkpt>
      <trkpt lat="50.03483" lon="2.00591">
        <ele>89</ele>
        <time>2022-04-17T10:04:47Z</time>
      </trkpt>
      <trkpt lat="50.03484" lon="2.0059">
        <ele>89</ele>
        <time>2022-04-17T10:04:48Z</time>
      </trkpt>
      <trkpt lat="50.03485" lon="2.00588">
        <ele>89</ele>
        <time>2022-04-17T10:04:49Z</time>
      </trkpt>
      <trkpt lat="50.03485" lon="2.00587">
        <ele>89</ele>
        <time>2022-04-17T10:04:51Z</time>
      </trkpt>
      <trkpt lat="50.03487" lon="2.00584">
        <ele>88.9</ele>
        <time>2022-04-17T10:04:52Z</time>
      </trkpt>
      <trkpt lat="50.03487" lon="2.00583">
        <ele>88.9</ele>
        <time>2022-04-17T10:04:53Z</time>
      </trkpt>
      <trkpt lat="50.03488" lon="2.00582">
        <ele>88.9</ele>
        <time>2022-04-17T10:04:54Z</time>
      </trkpt>
      <trkpt lat="50.03489" lon="2.00581">
        <ele>88.8</ele>
        <time>2022-04-17T10:04:55Z</time>
      </trkpt>
      <trkpt lat="50.03489" lon="2.0058">
        <ele>88.8</ele>
        <time>2022-04-17T10:04:56Z</time>
      </trkpt>
      <trkpt lat="50.0349" lon="2.00578">
        <ele>88.7</ele>
        <time>2022-04-17T10:04:57Z</time>
      </trkpt>
      <trkpt lat="50.03491" lon="2.00577">
        <ele>88.7</ele>
        <time>2022-04-17T10:04:58Z</time>
      </trkpt>
      <trkpt lat="50.03492" lon="2.00575">
        <ele>88.7</ele>
        <time>2022-04-17T10:04:59Z</time>
      </trkpt>
      <trkpt lat="50.03492" lon="2.00573">
        <ele>88.5</ele>
        <time>2022-04-17T10:05:01Z</time>
      </trkpt>
      <trkpt lat="50.03493" lon="2.0057">
        <ele>88.4</ele>
        <time>2022-04-17T10:05:02Z</time>
      </trkpt>
      <trkpt lat="50.03493" lon="2.00568">
        <ele>88.3</ele>
        <time>2022-04-17T10:05:03Z</time>
      </trkpt>
      <trkpt lat="50.03494" lon="2.00566">
        <ele>88.2</ele>
        <time>2022-04-17T10:05:05Z</time>
      </trkpt>
      <trkpt lat="50.03495" lon="2.00564">
        <ele>88.1</ele>
        <time>2022-04-17T10:05:06Z</time>
      </trkpt>
      <trkpt lat="50.03495" lon="2.00562">
        <ele>88.1</ele>
        <time>2022-04-17T10:05:07Z</time>
      </trkpt>
      <trkpt lat="50.03495" lon="2.0056">
        <ele>88</ele>
        <time>2022-04-17T10:05:09Z</time>
      </trkpt>
      <trkpt lat="50.03495" lon="2.00558">
        <ele>87.9</ele>
        <time>2022-04-17T10:05:10Z</time>
      </trkpt>
      <trkpt lat="50.03497" lon="2.00555">
        <ele>87.8</ele>
        <time>2022-04-17T10:05:12Z</time>
      </trkpt>
      <trkpt lat="50.03497" lon="2.00555">
        <ele>87.8</ele>
        <time>2022-04-17T10:05:13Z</time>
      </trkpt>
      <trkpt lat="50.03497" lon="2.00554">
        <ele>87.8</ele>
        <time>2022-04-17T10:05:14Z</time>
      </trkpt>
      <trkpt lat="50.03497" lon="2.00554">
        <ele>87.8</ele>
        <time>2022-04-17T10:05:15Z</time>
      </trkpt>
      <trkpt lat="50.03497" lon="2.00554">
        <ele>87.8</ele>
        <time>2022-04-17T10:05:17Z</time>
      </trkpt>
      <trkpt lat="50.03497" lon="2.00553">
        <ele>87.7</ele>
        <time>2022-04-17T10:05:18Z</time>
      </trkpt>
      <trkpt lat="50.03497" lon="2.00552">
        <ele>87.7</ele>
        <time>2022-04-17T10:05:19Z</time>
      </trkpt>
      <trkpt lat="50.03497" lon="2.00551">
        <ele>87.7</ele>
        <time>2022-04-17T10:05:20Z</time>
      </trkpt>
      <trkpt lat="50.03497" lon="2.00545">
        <ele>87.5</ele>
        <time>2022-04-17T10:05:22Z</time>
      </trkpt>
      <trkpt lat="50.03496" lon="2.00544">
        <ele>87.5</ele>
        <time>2022-04-17T10:05:23Z</time>
      </trkpt>
      <trkpt lat="50.03496" lon="2.00542">
        <ele>87.4</ele>
        <time>2022-04-17T10:05:25Z</time>
      </trkpt>
      <trkpt lat="50.03495" lon="2.0054">
        <ele>87.3</ele>
        <time>2022-04-17T10:05:26Z</time>
      </trkpt>
      <trkpt lat="50.03494" lon="2.00537">
        <ele>87.3</ele>
        <time>2022-04-17T10:05:27Z</time>
      </trkpt>
      <trkpt lat="50.03494" lon="2.00535">
        <ele>87.2</ele>
        <time>2022-04-17T10:05:28Z</time>
      </trkpt>
      <trkpt lat="50.03493" lon="2.00533">
        <ele>87.2</ele>
        <time>2022-04-17T10:05:29Z</time>
      </trkpt>
      <trkpt lat="50.03493" lon="2.0053">
        <ele>87.1</ele>
        <time>2022-04-17T10:05:30Z</time>
      </trkpt>
      <trkpt lat="50.03493" lon="2.00528">
        <ele>87</ele>
        <time>2022-04-17T10:05:32Z</time>
      </trkpt>
      <trkpt lat="50.03493" lon="2.00525">
        <ele>87</ele>
        <time>2022-04-17T10:05:33Z</time>
      </trkpt>
      <trkpt lat="50.03492" lon="2.00523">
        <ele>86.9</ele>
        <time>2022-04-17T10:05:34Z</time>
      </trkpt>
      <trkpt lat="50.03492" lon="2.00521">
        <ele>86.9</ele>
        <time>2022-04-17T10:05:35Z</time>
      </trkpt>
      <trkpt lat="50.03492" lon="2.00519">
        <ele>86.8</ele>
        <time>2022-04-17T10:05:37Z</time>
      </trkpt>
      <trkpt lat="50.03492" lon="2.00516">
        <ele>86.8</ele>
        <time>2022-04-17T10:05:38Z</time>
      </trkpt>
      <trkpt lat="50.03492" lon="2.00514">
        <ele>86.7</ele>
        <time>2022-04-17T10:05:39Z</time>
      </trkpt>
      <trkpt lat="50.03492" lon="2.00512">
        <ele>86.7</ele>
        <time>2022-04-17T10:05:40Z</time>
      </trkpt>
      <trkpt lat="50.03493" lon="2.0051">
        <ele>86.6</ele>
        <time>2022-04-17T10:05:41Z</time>
      </trkpt>
      <trkpt lat="50.03494" lon="2.00508">
        <ele>86.6</ele>
        <time>2022-04-17T10:05:43Z</time>
      </trkpt>
      <trkpt lat="50.03494" lon="2.00506">
        <ele>86.6</ele>
        <time>2022-04-17T10:05:44Z</time>
      </trkpt>
      <trkpt lat="50.03494" lon="2.00505">
        <ele>86.5</ele>
        <time>2022-04-17T10:05:45Z</time>
      </trkpt>
      <trkpt lat="50.03494" lon="2.00503">
        <ele>86.5</ele>
        <time>2022-04-17T10:05:46Z</time>
      </trkpt>
      <trkpt lat="50.03495" lon="2.00501">
        <ele>86.5</ele>
        <time>2022-04-17T10:05:47Z</time>
      </trkpt>
      <trkpt lat="50.03495" lon="2.005">
        <ele>86.4</ele>
        <time>2022-04-17T10:05:48Z</time>
      </trkpt>
      <trkpt lat="50.03495" lon="2.00499">
        <ele>86.4</ele>
        <time>2022-04-17T10:05:49Z</time>
      </trkpt>
      <trkpt lat="50.03496" lon="2.00496">
        <ele>86.3</ele>
        <time>2022-04-17T10:05:51Z</time>
      </trkpt>
      <trkpt lat="50.03496" lon="2.00494">
        <ele>86.3</ele>
        <time>2022-04-17T10:05:52Z</time>
      </trkpt>
      <trkpt lat="50.03496" lon="2.00493">
        <ele>86.3</ele>
        <time>2022-04-17T10:05:53Z</time>
      </trkpt>
      <trkpt lat="50.03497" lon="2.0049">
        <ele>86.2</ele>
        <time>2022-04-17T10:05:54Z</time>
      </trkpt>
      <trkpt lat="50.03498" lon="2.00489">
        <ele>86.2</ele>
        <time>2022-04-17T10:05:55Z</time>
      </trkpt>
      <trkpt lat="50.03498" lon="2.00488">
        <ele>86.2</ele>
        <time>2022-04-17T10:05:56Z</time>
      </trkpt>
      <trkpt lat="50.03498" lon="2.00486">
        <ele>86.2</ele>
        <time>2022-04-17T10:05:57Z</time>
      </trkpt>
      <trkpt lat="50.03499" lon="2.00485">
        <ele>86.1</ele>
        <time>2022-04-17T10:05:58Z</time>
      </trkpt>
      <trkpt lat="50.03499" lon="2.00482">
        <ele>86.1</ele>
        <time>2022-04-17T10:06:00Z</time>
      </trkpt>
      <trkpt lat="50.035" lon="2.00479">
        <ele>86</ele>
        <time>2022-04-17T10:06:01Z</time>
      </trkpt>
      <trkpt lat="50.035" lon="2.00478">
        <ele>86</ele>
        <time>2022-04-17T10:06:02Z</time>
      </trkpt>
      <trkpt lat="50.03501" lon="2.00477">
        <ele>86</ele>
        <time>2022-04-17T10:06:03Z</time>
      </trkpt>
      <trkpt lat="50.03501" lon="2.00475">
        <ele>86</ele>
        <time>2022-04-17T10:06:04Z</time>
      </trkpt>
      <trkpt lat="50.03501" lon="2.00473">
        <ele>86</ele>
        <time>2022-04-17T10:06:05Z</time>
      </trkpt>
      <trkpt lat="50.03502" lon="2.00471">
        <ele>85.9</ele>
        <time>2022-04-17T10:06:07Z</time>
      </trkpt>
      <trkpt lat="50.03502" lon="2.00468">
        <ele>85.9</ele>
        <time>2022-04-17T10:06:08Z</time>
      </trkpt>
      <trkpt lat="50.03503" lon="2.00467">
        <ele>85.9</ele>
        <time>2022-04-17T10:06:09Z</time>
      </trkpt>
      <trkpt lat="50.03503" lon="2.00466">
        <ele>85.8</ele>
        <time>2022-04-17T10:06:10Z</time>
      </trkpt>
      <trkpt lat="50.03504" lon="2.00463">
        <ele>85.8</ele>
        <time>2022-04-17T10:06:11Z</time>
      </trkpt>
      <trkpt lat="50.03504" lon="2.00461">
        <ele>85.8</ele>
        <time>2022-04-17T10:06:13Z</time>
      </trkpt>
      <trkpt lat="50.03504" lon="2.0046">
        <ele>85.8</ele>
        <time>2022-04-17T10:06:14Z</time>
      </trkpt>
      <trkpt lat="50.03505" lon="2.00457">
        <ele>85.8</ele>
        <time>2022-04-17T10:06:15Z</time>
      </trkpt>
      <trkpt lat="50.03505" lon="2.00456">
        <ele>85.8</ele>
        <time>2022-04-17T10:06:16Z</time>
      </trkpt>
      <trkpt lat="50.03505" lon="2.00454">
        <ele>85.7</ele>
        <time>2022-04-17T10:06:17Z</time>
      </trkpt>
      <trkpt lat="50.03505" lon="2.0045">
        <ele>85.7</ele>
        <time>2022-04-17T10:06:18Z</time>
      </trkpt>
      <trkpt lat="50.03505" lon="2.00449">
        <ele>85.7</ele>
        <time>2022-04-17T10:06:20Z</time>
      </trkpt>
      <trkpt lat="50.03505" lon="2.00447">
        <ele>85.7</ele>
        <time>2022-04-17T10:06:21Z</time>
      </trkpt>
      <trkpt lat="50.03506" lon="2.00445">
        <ele>85.7</ele>
        <time>2022-04-17T10:06:22Z</time>
      </trkpt>
      <trkpt lat="50.03506" lon="2.00443">
        <ele>85.6</ele>
        <time>2022-04-17T10:06:23Z</time>
      </trkpt>
      <trkpt lat="50.03506" lon="2.00442">
        <ele>85.6</ele>
        <time>2022-04-17T10:06:24Z</time>
      </trkpt>
      <trkpt lat="50.03506" lon="2.0044">
        <ele>85.6</ele>
        <time>2022-04-17T10:06:25Z</time>
      </trkpt>
      <trkpt lat="50.03506" lon="2.00438">
        <ele>85.6</ele>
        <time>2022-04-17T10:06:26Z</time>
      </trkpt>
      <trkpt lat="50.03507" lon="2.00435">
        <ele>85.6</ele>
        <time>2022-04-17T10:06:28Z</time>
      </trkpt>
      <trkpt lat="50.03507" lon="2.00434">
        <ele>85.6</ele>
        <time>2022-04-17T10:06:29Z</time>
      </trkpt>
      <trkpt lat="50.03507" lon="2.00433">
        <ele>85.6</ele>
        <time>2022-04-17T10:06:30Z</time>
      </trkpt>
      <trkpt lat="50.03508" lon="2.0043">
        <ele>85.5</ele>
        <time>2022-04-17T10:06:31Z</time>
      </trkpt>
      <trkpt lat="50.03509" lon="2.00428">
        <ele>85.5</ele>
        <time>2022-04-17T10:06:32Z</time>
      </trkpt>
      <trkpt lat="50.03509" lon="2.00427">
        <ele>85.5</ele>
        <time>2022-04-17T10:06:33Z</time>
      </trkpt>
      <trkpt lat="50.0351" lon="2.00425">
        <ele>85.5</ele>
        <time>2022-04-17T10:06:34Z</time>
      </trkpt>
      <trkpt lat="50.0351" lon="2.00423">
        <ele>85.5</ele>
        <time>2022-04-17T10:06:35Z</time>
      </trkpt>
      <trkpt lat="50.03512" lon="2.00421">
        <ele>85.5</ele>
        <time>2022-04-17T10:06:36Z</time>
      </trkpt>
      <trkpt lat="50.03512" lon="2.00419">
        <ele>85.5</ele>
        <time>2022-04-17T10:06:38Z</time>
      </trkpt>
      <trkpt lat="50.03512" lon="2.00418">
        <ele>85.5</ele>
        <time>2022-04-17T10:06:39Z</time>
      </trkpt>
      <trkpt lat="50.03513" lon="2.00416">
        <ele>85.5</ele>
        <time>2022-04-17T10:06:40Z</time>
      </trkpt>
      <trkpt lat="50.03514" lon="2.00414">
        <ele>85.5</ele>
        <time>2022-04-17T10:06:41Z</time>
      </trkpt>
      <trkpt lat="50.03515" lon="2.00413">
        <ele>85.5</ele>
        <time>2022-04-17T10:06:42Z</time>
      </trkpt>
      <trkpt lat="50.03515" lon="2.00411">
        <ele>85.4</ele>
        <time>2022-04-17T10:06:43Z</time>
      </trkpt>
      <trkpt lat="50.03515" lon="2.00409">
        <ele>85.4</ele>
        <time>2022-04-17T10:06:44Z</time>
      </trkpt>
      <trkpt lat="50.03516" lon="2.00408">
        <ele>85.4</ele>
        <time>2022-04-17T10:06:45Z</time>
      </trkpt>
      <trkpt lat="50.03516" lon="2.00406">
        <ele>85.4</ele>
        <time>2022-04-17T10:06:46Z</time>
      </trkpt>
      <trkpt lat="50.03517" lon="2.00404">
        <ele>85.4</ele>
        <time>2022-04-17T10:06:47Z</time>
      </trkpt>
      <trkpt lat="50.03518" lon="2.00401">
        <ele>85.4</ele>
        <time>2022-04-17T10:06:49Z</time>
      </trkpt>
      <trkpt lat="50.03518" lon="2.00398">
        <ele>85.4</ele>
        <time>2022-04-17T10:06:51Z</time>
      </trkpt>
      <trkpt lat="50.03519" lon="2.00395">
        <ele>85.4</ele>
        <time>2022-04-17T10:06:52Z</time>
      </trkpt>
      <trkpt lat="50.03519" lon="2.00394">
        <ele>85.4</ele>
        <time>2022-04-17T10:06:53Z</time>
      </trkpt>
      <trkpt lat="50.03519" lon="2.00392">
        <ele>85.3</ele>
        <time>2022-04-17T10:06:54Z</time>
      </trkpt>
      <trkpt lat="50.0352" lon="2.0039">
        <ele>85.3</ele>
        <time>2022-04-17T10:06:56Z</time>
      </trkpt>
      <trkpt lat="50.0352" lon="2.00388">
        <ele>85.3</ele>
        <time>2022-04-17T10:06:57Z</time>
      </trkpt>
      <trkpt lat="50.03521" lon="2.00385">
        <ele>85.3</ele>
        <time>2022-04-17T10:06:58Z</time>
      </trkpt>
      <trkpt lat="50.03521" lon="2.00384">
        <ele>85.3</ele>
        <time>2022-04-17T10:06:59Z</time>
      </trkpt>
      <trkpt lat="50.03522" lon="2.00383">
        <ele>85.3</ele>
        <time>2022-04-17T10:07:00Z</time>
      </trkpt>
      <trkpt lat="50.03523" lon="2.0038">
        <ele>85.3</ele>
        <time>2022-04-17T10:07:01Z</time>
      </trkpt>
      <trkpt lat="50.03523" lon="2.00378">
        <ele>85.3</ele>
        <time>2022-04-17T10:07:02Z</time>
      </trkpt>
      <trkpt lat="50.03523" lon="2.00377">
        <ele>85.3</ele>
        <time>2022-04-17T10:07:03Z</time>
      </trkpt>
      <trkpt lat="50.03524" lon="2.00374">
        <ele>85.2</ele>
        <time>2022-04-17T10:07:04Z</time>
      </trkpt>
      <trkpt lat="50.03524" lon="2.00373">
        <ele>85.2</ele>
        <time>2022-04-17T10:07:06Z</time>
      </trkpt>
      <trkpt lat="50.03524" lon="2.00372">
        <ele>85.2</ele>
        <time>2022-04-17T10:07:07Z</time>
      </trkpt>
      <trkpt lat="50.03525" lon="2.00369">
        <ele>85.2</ele>
        <time>2022-04-17T10:07:08Z</time>
      </trkpt>
      <trkpt lat="50.03526" lon="2.00368">
        <ele>85.2</ele>
        <time>2022-04-17T10:07:09Z</time>
      </trkpt>
      <trkpt lat="50.03526" lon="2.00366">
        <ele>85.2</ele>
        <time>2022-04-17T10:07:10Z</time>
      </trkpt>
      <trkpt lat="50.03527" lon="2.00363">
        <ele>85.2</ele>
        <time>2022-04-17T10:07:11Z</time>
      </trkpt>
      <trkpt lat="50.03527" lon="2.00362">
        <ele>85.2</ele>
        <time>2022-04-17T10:07:12Z</time>
      </trkpt>
      <trkpt lat="50.03528" lon="2.00361">
        <ele>85.2</ele>
        <time>2022-04-17T10:07:13Z</time>
      </trkpt>
      <trkpt lat="50.03529" lon="2.00358">
        <ele>85.2</ele>
        <time>2022-04-17T10:07:14Z</time>
      </trkpt>
      <trkpt lat="50.03529" lon="2.00357">
        <ele>85.2</ele>
        <time>2022-04-17T10:07:16Z</time>
      </trkpt>
      <trkpt lat="50.0353" lon="2.00355">
        <ele>85.2</ele>
        <time>2022-04-17T10:07:17Z</time>
      </trkpt>
      <trkpt lat="50.03531" lon="2.00354">
        <ele>85.1</ele>
        <time>2022-04-17T10:07:18Z</time>
      </trkpt>
      <trkpt lat="50.03531" lon="2.00352">
        <ele>85.1</ele>
        <time>2022-04-17T10:07:19Z</time>
      </trkpt>
      <trkpt lat="50.03532" lon="2.00349">
        <ele>85.1</ele>
        <time>2022-04-17T10:07:20Z</time>
      </trkpt>
      <trkpt lat="50.03533" lon="2.00348">
        <ele>85.1</ele>
        <time>2022-04-17T10:07:21Z</time>
      </trkpt>
      <trkpt lat="50.03533" lon="2.00347">
        <ele>85.1</ele>
        <time>2022-04-17T10:07:22Z</time>
      </trkpt>
      <trkpt lat="50.03533" lon="2.00345">
        <ele>85.1</ele>
        <time>2022-04-17T10:07:23Z</time>
      </trkpt>
      <trkpt lat="50.03534" lon="2.00343">
        <ele>85.1</ele>
        <time>2022-04-17T10:07:24Z</time>
      </trkpt>
      <trkpt lat="50.03535" lon="2.00341">
        <ele>85.1</ele>
        <time>2022-04-17T10:07:26Z</time>
      </trkpt>
      <trkpt lat="50.03535" lon="2.00339">
        <ele>85.1</ele>
        <time>2022-04-17T10:07:27Z</time>
      </trkpt>
      <trkpt lat="50.03536" lon="2.00338">
        <ele>85.1</ele>
        <time>2022-04-17T10:07:28Z</time>
      </trkpt>
      <trkpt lat="50.03536" lon="2.00336">
        <ele>85.1</ele>
        <time>2022-04-17T10:07:29Z</time>
      </trkpt>
      <trkpt lat="50.03537" lon="2.00335">
        <ele>85.1</ele>
        <time>2022-04-17T10:07:30Z</time>
      </trkpt>
      <trkpt lat="50.03537" lon="2.00333">
        <ele>85.1</ele>
        <time>2022-04-17T10:07:31Z</time>
      </trkpt>
      <trkpt lat="50.03538" lon="2.00331">
        <ele>85</ele>
        <time>2022-04-17T10:07:33Z</time>
      </trkpt>
      <trkpt lat="50.03539" lon="2.00329">
        <ele>85</ele>
        <time>2022-04-17T10:07:34Z</time>
      </trkpt>
      <trkpt lat="50.0354" lon="2.00326">
        <ele>85</ele>
        <time>2022-04-17T10:07:35Z</time>
      </trkpt>
      <trkpt lat="50.0354" lon="2.00325">
        <ele>85</ele>
        <time>2022-04-17T10:07:36Z</time>
      </trkpt>
      <trkpt lat="50.03541" lon="2.00324">
        <ele>85</ele>
        <time>2022-04-17T10:07:37Z</time>
      </trkpt>
      <trkpt lat="50.03542" lon="2.00322">
        <ele>85</ele>
        <time>2022-04-17T10:07:38Z</time>
      </trkpt>
      <trkpt lat="50.03542" lon="2.00321">
        <ele>85</ele>
        <time>2022-04-17T10:07:39Z</time>
      </trkpt>
      <trkpt lat="50.03543" lon="2.00319">
        <ele>85</ele>
        <time>2022-04-17T10:07:41Z</time>
      </trkpt>
      <trkpt lat="50.03544" lon="2.00317">
        <ele>85</ele>
        <time>2022-04-17T10:07:42Z</time>
      </trkpt>
      <trkpt lat="50.03545" lon="2.00315">
        <ele>84.9</ele>
        <time>2022-04-17T10:07:43Z</time>
      </trkpt>
      <trkpt lat="50.03546" lon="2.00313">
        <ele>84.9</ele>
        <time>2022-04-17T10:07:44Z</time>
      </trkpt>
      <trkpt lat="50.03546" lon="2.00311">
        <ele>84.9</ele>
        <time>2022-04-17T10:07:45Z</time>
      </trkpt>
      <trkpt lat="50.03547" lon="2.00309">
        <ele>84.9</ele>
        <time>2022-04-17T10:07:47Z</time>
      </trkpt>
      <trkpt lat="50.03549" lon="2.00306">
        <ele>84.9</ele>
        <time>2022-04-17T10:07:48Z</time>
      </trkpt>
      <trkpt lat="50.03549" lon="2.00305">
        <ele>84.8</ele>
        <time>2022-04-17T10:07:49Z</time>
      </trkpt>
      <trkpt lat="50.03549" lon="2.00304">
        <ele>84.8</ele>
        <time>2022-04-17T10:07:50Z</time>
      </trkpt>
      <trkpt lat="50.0355" lon="2.00303">
        <ele>84.8</ele>
        <time>2022-04-17T10:07:51Z</time>
      </trkpt>
      <trkpt lat="50.03551" lon="2.00301">
        <ele>84.8</ele>
        <time>2022-04-17T10:07:52Z</time>
      </trkpt>
      <trkpt lat="50.03552" lon="2.003">
        <ele>84.8</ele>
        <time>2022-04-17T10:07:53Z</time>
      </trkpt>
      <trkpt lat="50.03553" lon="2.00297">
        <ele>84.8</ele>
        <time>2022-04-17T10:07:54Z</time>
      </trkpt>
      <trkpt lat="50.03553" lon="2.00296">
        <ele>84.8</ele>
        <time>2022-04-17T10:07:56Z</time>
      </trkpt>
      <trkpt lat="50.03554" lon="2.00295">
        <ele>84.7</ele>
        <time>2022-04-17T10:07:57Z</time>
      </trkpt>
      <trkpt lat="50.03554" lon="2.00293">
        <ele>84.7</ele>
        <time>2022-04-17T10:07:58Z</time>
      </trkpt>
      <trkpt lat="50.03555" lon="2.00291">
        <ele>84.7</ele>
        <time>2022-04-17T10:07:59Z</time>
      </trkpt>
      <trkpt lat="50.03555" lon="2.00289">
        <ele>84.7</ele>
        <time>2022-04-17T10:08:00Z</time>
      </trkpt>
      <trkpt lat="50.03556" lon="2.00287">
        <ele>84.7</ele>
        <time>2022-04-17T10:08:01Z</time>
      </trkpt>
      <trkpt lat="50.03557" lon="2.00283">
        <ele>84.6</ele>
        <time>2022-04-17T10:08:03Z</time>
      </trkpt>
      <trkpt lat="50.03557" lon="2.00281">
        <ele>84.6</ele>
        <time>2022-04-17T10:08:04Z</time>
      </trkpt>
      <trkpt lat="50.03558" lon="2.0028">
        <ele>84.6</ele>
        <time>2022-04-17T10:08:05Z</time>
      </trkpt>
      <trkpt lat="50.03558" lon="2.00278">
        <ele>84.5</ele>
        <time>2022-04-17T10:08:06Z</time>
      </trkpt>
      <trkpt lat="50.03559" lon="2.00277">
        <ele>84.5</ele>
        <time>2022-04-17T10:08:07Z</time>
      </trkpt>
      <trkpt lat="50.0356" lon="2.00274">
        <ele>84.5</ele>
        <time>2022-04-17T10:08:09Z</time>
      </trkpt>
      <trkpt lat="50.0356" lon="2.00272">
        <ele>84.5</ele>
        <time>2022-04-17T10:08:10Z</time>
      </trkpt>
      <trkpt lat="50.03561" lon="2.0027">
        <ele>84.4</ele>
        <time>2022-04-17T10:08:11Z</time>
      </trkpt>
      <trkpt lat="50.03561" lon="2.00268">
        <ele>84.4</ele>
        <time>2022-04-17T10:08:12Z</time>
      </trkpt>
      <trkpt lat="50.03562" lon="2.00265">
        <ele>84.3</ele>
        <time>2022-04-17T10:08:13Z</time>
      </trkpt>
      <trkpt lat="50.03563" lon="2.00264">
        <ele>84.3</ele>
        <time>2022-04-17T10:08:14Z</time>
      </trkpt>
      <trkpt lat="50.03563" lon="2.00263">
        <ele>84.3</ele>
        <time>2022-04-17T10:08:15Z</time>
      </trkpt>
      <trkpt lat="50.03564" lon="2.0026">
        <ele>84.2</ele>
        <time>2022-04-17T10:08:17Z</time>
      </trkpt>
      <trkpt lat="50.03565" lon="2.00259">
        <ele>84.2</ele>
        <time>2022-04-17T10:08:18Z</time>
      </trkpt>
      <trkpt lat="50.03566" lon="2.00256">
        <ele>84.1</ele>
        <time>2022-04-17T10:08:19Z</time>
      </trkpt>
      <trkpt lat="50.03566" lon="2.00254">
        <ele>84.1</ele>
        <time>2022-04-17T10:08:20Z</time>
      </trkpt>
      <trkpt lat="50.03566" lon="2.00253">
        <ele>84.1</ele>
        <time>2022-04-17T10:08:21Z</time>
      </trkpt>
      <trkpt lat="50.03567" lon="2.00252">
        <ele>84.1</ele>
        <time>2022-04-17T10:08:22Z</time>
      </trkpt>
      <trkpt lat="50.03568" lon="2.00249">
        <ele>84</ele>
        <time>2022-04-17T10:08:24Z</time>
      </trkpt>
      <trkpt lat="50.03569" lon="2.00247">
        <ele>84</ele>
        <time>2022-04-17T10:08:25Z</time>
      </trkpt>
      <trkpt lat="50.03569" lon="2.00245">
        <ele>84</ele>
        <time>2022-04-17T10:08:26Z</time>
      </trkpt>
      <trkpt lat="50.0357" lon="2.00244">
        <ele>83.9</ele>
        <time>2022-04-17T10:08:28Z</time>
      </trkpt>
      <trkpt lat="50.03571" lon="2.00241">
        <ele>83.9</ele>
        <time>2022-04-17T10:08:29Z</time>
      </trkpt>
      <trkpt lat="50.03571" lon="2.0024">
        <ele>83.8</ele>
        <time>2022-04-17T10:08:30Z</time>
      </trkpt>
      <trkpt lat="50.03572" lon="2.00239">
        <ele>83.8</ele>
        <time>2022-04-17T10:08:31Z</time>
      </trkpt>
      <trkpt lat="50.03572" lon="2.00237">
        <ele>83.8</ele>
        <time>2022-04-17T10:08:32Z</time>
      </trkpt>
      <trkpt lat="50.03573" lon="2.00235">
        <ele>83.8</ele>
        <time>2022-04-17T10:08:33Z</time>
      </trkpt>
      <trkpt lat="50.03574" lon="2.00234">
        <ele>83.7</ele>
        <time>2022-04-17T10:08:34Z</time>
      </trkpt>
      <trkpt lat="50.03574" lon="2.00232">
        <ele>83.7</ele>
        <time>2022-04-17T10:08:35Z</time>
      </trkpt>
      <trkpt lat="50.03575" lon="2.00231">
        <ele>83.7</ele>
        <time>2022-04-17T10:08:36Z</time>
      </trkpt>
      <trkpt lat="50.03575" lon="2.00229">
        <ele>83.6</ele>
        <time>2022-04-17T10:08:38Z</time>
      </trkpt>
      <trkpt lat="50.03576" lon="2.00227">
        <ele>83.6</ele>
        <time>2022-04-17T10:08:39Z</time>
      </trkpt>
      <trkpt lat="50.03576" lon="2.00225">
        <ele>83.6</ele>
        <time>2022-04-17T10:08:40Z</time>
      </trkpt>
      <trkpt lat="50.03576" lon="2.00223">
        <ele>83.5</ele>
        <time>2022-04-17T10:08:42Z</time>
      </trkpt>
      <trkpt lat="50.03577" lon="2.00221">
        <ele>83.5</ele>
        <time>2022-04-17T10:08:43Z</time>
      </trkpt>
      <trkpt lat="50.03576" lon="2.0022">
        <ele>83.5</ele>
        <time>2022-04-17T10:08:44Z</time>
      </trkpt>
      <trkpt lat="50.03576" lon="2.00219">
        <ele>83.5</ele>
        <time>2022-04-17T10:08:45Z</time>
      </trkpt>
      <trkpt lat="50.03575" lon="2.00217">
        <ele>83.4</ele>
        <time>2022-04-17T10:08:46Z</time>
      </trkpt>
      <trkpt lat="50.03576" lon="2.00217">
        <ele>83.4</ele>
        <time>2022-04-17T10:08:47Z</time>
      </trkpt>
      <trkpt lat="50.03576" lon="2.00216">
        <ele>83.4</ele>
        <time>2022-04-17T10:08:48Z</time>
      </trkpt>
      <trkpt lat="50.03576" lon="2.00216">
        <ele>83.4</ele>
        <time>2022-04-17T10:08:49Z</time>
      </trkpt>
      <trkpt lat="50.03575" lon="2.00216">
        <ele>83.4</ele>
        <time>2022-04-17T10:08:50Z</time>
      </trkpt>
      <trkpt lat="50.03575" lon="2.00216">
        <ele>83.4</ele>
        <time>2022-04-17T10:08:51Z</time>
      </trkpt>
      <trkpt lat="50.03575" lon="2.00217">
        <ele>83.4</ele>
        <time>2022-04-17T10:08:52Z</time>
      </trkpt>
      <trkpt lat="50.03575" lon="2.00217">
        <ele>83.4</ele>
        <time>2022-04-17T10:08:53Z</time>
      </trkpt>
      <trkpt lat="50.03575" lon="2.00218">
        <ele>83.4</ele>
        <time>2022-04-17T10:08:54Z</time>
      </trkpt>
      <trkpt lat="50.03575" lon="2.00218">
        <ele>83.4</ele>
        <time>2022-04-17T10:08:55Z</time>
      </trkpt>
      <trkpt lat="50.03575" lon="2.00218">
        <ele>83.4</ele>
        <time>2022-04-17T10:08:56Z</time>
      </trkpt>
      <trkpt lat="50.03575" lon="2.00218">
        <ele>83.4</ele>
        <time>2022-04-17T10:08:57Z</time>
      </trkpt>
      <trkpt lat="50.03575" lon="2.00218">
        <ele>83.4</ele>
        <time>2022-04-17T10:08:58Z</time>
      </trkpt>
      <trkpt lat="50.03575" lon="2.00218">
        <ele>83.4</ele>
        <time>2022-04-17T10:08:59Z</time>
      </trkpt>
      <trkpt lat="50.03575" lon="2.00218">
        <ele>83.4</ele>
        <time>2022-04-17T10:09:01Z</time>
      </trkpt>
      <trkpt lat="50.03575" lon="2.00218">
        <ele>83.4</ele>
        <time>2022-04-17T10:09:02Z</time>
      </trkpt>
      <trkpt lat="50.03575" lon="2.00218">
        <ele>83.4</ele>
        <time>2022-04-17T10:09:03Z</time>
      </trkpt>
      <trkpt lat="50.03574" lon="2.00218">
        <ele>83.3</ele>
        <time>2022-04-17T10:09:05Z</time>
      </trkpt>
      <trkpt lat="50.03574" lon="2.00218">
        <ele>83.3</ele>
        <time>2022-04-17T10:09:06Z</time>
      </trkpt>
      <trkpt lat="50.03574" lon="2.00218">
        <ele>83.3</ele>
        <time>2022-04-17T10:09:07Z</time>
      </trkpt>
      <trkpt lat="50.03574" lon="2.00218">
        <ele>83.3</ele>
        <time>2022-04-17T10:09:08Z</time>
      </trkpt>
      <trkpt lat="50.03574" lon="2.00218">
        <ele>83.3</ele>
        <time>2022-04-17T10:09:09Z</time>
      </trkpt>
      <trkpt lat="50.03574" lon="2.00218">
        <ele>83.3</ele>
        <time>2022-04-17T10:09:10Z</time>
      </trkpt>
      <trkpt lat="50.03574" lon="2.00218">
        <ele>83.3</ele>
        <time>2022-04-17T10:09:11Z</time>
      </trkpt>
      <trkpt lat="50.03574" lon="2.00218">
        <ele>83.3</ele>
        <time>2022-04-17T10:09:12Z</time>
      </trkpt>
      <trkpt lat="50.03574" lon="2.00218">
        <ele>83.3</ele>
        <time>2022-04-17T10:09:14Z</time>
      </trkpt>
      <trkpt lat="50.03574" lon="2.00218">
        <ele>83.3</ele>
        <time>2022-04-17T10:09:15Z</time>
      </trkpt>
      <trkpt lat="50.03574" lon="2.00218">
        <ele>83.3</ele>
        <time>2022-04-17T10:09:16Z</time>
      </trkpt>
      <trkpt lat="50.03574" lon="2.00218">
        <ele>83.3</ele>
        <time>2022-04-17T10:09:17Z</time>
      </trkpt>
      <trkpt lat="50.03574" lon="2.00218">
        <ele>83.3</ele>
        <time>2022-04-17T10:09:18Z</time>
      </trkpt>
      <trkpt lat="50.03574" lon="2.00218">
        <ele>83.3</ele>
        <time>2022-04-17T10:09:20Z</time>
      </trkpt>
      <trkpt lat="50.03574" lon="2.00218">
        <ele>83.3</ele>
        <time>2022-04-17T10:09:21Z</time>
      </trkpt>
      <trkpt lat="50.03574" lon="2.00218">
        <ele>83.3</ele>
        <time>2022-04-17T10:09:22Z</time>
      </trkpt>
      <trkpt lat="50.03574" lon="2.00218">
        <ele>83.3</ele>
        <time>2022-04-17T10:09:23Z</time>
      </trkpt>
      <trkpt lat="50.03574" lon="2.00218">
        <ele>83.3</ele>
        <time>2022-04-17T10:09:24Z</time>
      </trkpt>
      <trkpt lat="50.03574" lon="2.00218">
        <ele>83.3</ele>
        <time>2022-04-17T10:09:25Z</time>
      </trkpt>
      <trkpt lat="50.03574" lon="2.00218">
        <ele>83.3</ele>
        <time>2022-04-17T10:09:26Z</time>
      </trkpt>
      <trkpt lat="50.03574" lon="2.00218">
        <ele>83.3</ele>
        <time>2022-04-17T10:09:27Z</time>
      </trkpt>
      <trkpt lat="50.03574" lon="2.00218">
        <ele>83.3</ele>
        <time>2022-04-17T10:09:28Z</time>
      </trkpt>
      <trkpt lat="50.03574" lon="2.00218">
        <ele>83.3</ele>
        <time>2022-04-17T10:09:29Z</time>
      </trkpt>
      <trkpt lat="50.03574" lon="2.00218">
        <ele>83.3</ele>
        <time>2022-04-17T10:09:30Z</time>
      </trkpt>
      <trkpt lat="50.03574" lon="2.00218">
        <ele>83.3</ele>
        <time>2022-04-17T10:09:31Z</time>
      </trkpt>
      <trkpt lat="50.03574" lon="2.00218">
        <ele>83.3</ele>
        <time>2022-04-17T10:09:32Z</time>
      </trkpt>
      <trkpt lat="50.03574" lon="2.00218">
        <ele>83.3</ele>
        <time>2022-04-17T10:09:34Z</time>
      </trkpt>
      <trkpt lat="50.03574" lon="2.00218">
        <ele>83.3</ele>
        <time>2022-04-17T10:09:35Z</time>
      </trkpt>
      <trkpt lat="50.03574" lon="2.00218">
        <ele>83.3</ele>
        <time>2022-04-17T10:09:36Z</time>
      </trkpt>
      <trkpt lat="50.03574" lon="2.00218">
        <ele>83.3</ele>
        <time>2022-04-17T10:09:37Z</time>
      </trkpt>
      <trkpt lat="50.03574" lon="2.00218">
        <ele>83.3</ele>
        <time>2022-04-17T10:09:38Z</time>
      </trkpt>
      <trkpt lat="50.03574" lon="2.00218">
        <ele>83.3</ele>
        <time>2022-04-17T10:09:39Z</time>
      </trkpt>
      <trkpt lat="50.03574" lon="2.00218">
        <ele>83.3</ele>
        <time>2022-04-17T10:09:41Z</time>
      </trkpt>
      <trkpt lat="50.03574" lon="2.00218">
        <ele>83.3</ele>
        <time>2022-04-17T10:09:42Z</time>
      </trkpt>
      <trkpt lat="50.03574" lon="2.00218">
        <ele>83.3</ele>
        <time>2022-04-17T10:09:43Z</time>
      </trkpt>
      <trkpt lat="50.03574" lon="2.00218">
        <ele>83.3</ele>
        <time>2022-04-17T10:09:44Z</time>
      </trkpt>
      <trkpt lat="50.03574" lon="2.00218">
        <ele>83.3</ele>
        <time>2022-04-17T10:09:45Z</time>
      </trkpt>
      <trkpt lat="50.03574" lon="2.00218">
        <ele>83.3</ele>
        <time>2022-04-17T10:09:47Z</time>
      </trkpt>
      <trkpt lat="50.03574" lon="2.00218">
        <ele>83.3</ele>
        <time>2022-04-17T10:09:48Z</time>
      </trkpt>
      <trkpt lat="50.03574" lon="2.00218">
        <ele>83.3</ele>
        <time>2022-04-17T10:09:50Z</time>
      </trkpt>
      <trkpt lat="50.03574" lon="2.00218">
        <ele>83.3</ele>
        <time>2022-04-17T10:09:51Z</time>
      </trkpt>
      <trkpt lat="50.03574" lon="2.00218">
        <ele>83.3</ele>
        <time>2022-04-17T10:09:52Z</time>
      </trkpt>
      <trkpt lat="50.03574" lon="2.00218">
        <ele>83.3</ele>
        <time>2022-04-17T10:09:54Z</time>
      </trkpt>
      <trkpt lat="50.03574" lon="2.00218">
        <ele>83.3</ele>
        <time>2022-04-17T10:09:55Z</time>
      </trkpt>
      <trkpt lat="50.03574" lon="2.00218">
        <ele>83.3</ele>
        <time>2022-04-17T10:09:56Z</time>
      </trkpt>
      <trkpt lat="50.03574" lon="2.00218">
        <ele>83.3</ele>
        <time>2022-04-17T10:09:57Z</time>
      </trkpt>
      <trkpt lat="50.03574" lon="2.00218">
        <ele>83.3</ele>
        <time>2022-04-17T10:09:58Z</time>
      </trkpt>
      <trkpt lat="50.03574" lon="2.00218">
        <ele>83.3</ele>
        <time>2022-04-17T10:09:59Z</time>
      </trkpt>
      <trkpt lat="50.03574" lon="2.00218">
        <ele>83.3</ele>
        <time>2022-04-17T10:10:01Z</time>
      </trkpt>
      <trkpt lat="50.03574" lon="2.00218">
        <ele>83.3</ele>
        <time>2022-04-17T10:10:02Z</time>
      </trkpt>
      <trkpt lat="50.03574" lon="2.00218">
        <ele>83.3</ele>
        <time>2022-04-17T10:10:03Z</time>
      </trkpt>
      <trkpt lat="50.03574" lon="2.00218">
        <ele>83.3</ele>
        <time>2022-04-17T10:10:04Z</time>
      </trkpt>
      <trkpt lat="50.03574" lon="2.00218">
        <ele>83.3</ele>
        <time>2022-04-17T10:10:05Z</time>
      </trkpt>
      <trkpt lat="50.03574" lon="2.00218">
        <ele>83.3</ele>
        <time>2022-04-17T10:10:07Z</time>
      </trkpt>
      <trkpt lat="50.03574" lon="2.00218">
        <ele>83.3</ele>
        <time>2022-04-17T10:10:08Z</time>
      </trkpt>
      <trkpt lat="50.03574" lon="2.00218">
        <ele>83.3</ele>
        <time>2022-04-17T10:10:09Z</time>
      </trkpt>
      <trkpt lat="50.03574" lon="2.00218">
        <ele>83.3</ele>
        <time>2022-04-17T10:10:10Z</time>
      </trkpt>
      <trkpt lat="50.03574" lon="2.00218">
        <ele>83.3</ele>
        <time>2022-04-17T10:10:11Z</time>
      </trkpt>
      <trkpt lat="50.03574" lon="2.00218">
        <ele>83.3</ele>
        <time>2022-04-17T10:10:12Z</time>
      </trkpt>
      <trkpt lat="50.03574" lon="2.00218">
        <ele>83.3</ele>
        <time>2022-04-17T10:10:14Z</time>
      </trkpt>
      <trkpt lat="50.03574" lon="2.00218">
        <ele>83.3</ele>
        <time>2022-04-17T10:10:15Z</time>
      </trkpt>
      <trkpt lat="50.03574" lon="2.00218">
        <ele>83.3</ele>
        <time>2022-04-17T10:10:17Z</time>
      </trkpt>
      <trkpt lat="50.03574" lon="2.00218">
        <ele>83.3</ele>
        <time>2022-04-17T10:10:18Z</time>
      </trkpt>
      <trkpt lat="50.03574" lon="2.00218">
        <ele>83.3</ele>
        <time>2022-04-17T10:10:19Z</time>
      </trkpt>
      <trkpt lat="50.03574" lon="2.00218">
        <ele>83.3</ele>
        <time>2022-04-17T10:10:21Z</time>
      </trkpt>
      <trkpt lat="50.03574" lon="2.00218">
        <ele>83.3</ele>
        <time>2022-04-17T10:10:22Z</time>
      </trkpt>
      <trkpt lat="50.03574" lon="2.00218">
        <ele>83.3</ele>
        <time>2022-04-17T10:10:23Z</time>
      </trkpt>
      <trkpt lat="50.03574" lon="2.00218">
        <ele>83.3</ele>
        <time>2022-04-17T10:10:24Z</time>
      </trkpt>
      <trkpt lat="50.03574" lon="2.00218">
        <ele>83.3</ele>
        <time>2022-04-17T10:10:26Z</time>
      </trkpt>
      <trkpt lat="50.03574" lon="2.00218">
        <ele>83.3</ele>
        <time>2022-04-17T10:10:27Z</time>
      </trkpt>
      <trkpt lat="50.03574" lon="2.00218">
        <ele>83.3</ele>
        <time>2022-04-17T10:10:28Z</time>
      </trkpt>
      <trkpt lat="50.03574" lon="2.00218">
        <ele>83.3</ele>
        <time>2022-04-17T10:10:30Z</time>
      </trkpt>
      <trkpt lat="50.03574" lon="2.00218">
        <ele>83.3</ele>
        <time>2022-04-17T10:10:31Z</time>
      </trkpt>
      <trkpt lat="50.03574" lon="2.00218">
        <ele>83.3</ele>
        <time>2022-04-17T10:10:32Z</time>
      </trkpt>
      <trkpt lat="50.03574" lon="2.00218">
        <ele>83.3</ele>
        <time>2022-04-17T10:10:33Z</time>
      </trkpt>
      <trkpt lat="50.03574" lon="2.00218">
        <ele>83.3</ele>
        <time>2022-04-17T10:10:34Z</time>
      </trkpt>
      <trkpt lat="50.03574" lon="2.00218">
        <ele>83.3</ele>
        <time>2022-04-17T10:10:35Z</time>
      </trkpt>
      <trkpt lat="50.03574" lon="2.00218">
        <ele>83.3</ele>
        <time>2022-04-17T10:10:36Z</time>
      </trkpt>
      <trkpt lat="50.03574" lon="2.00218">
        <ele>83.3</ele>
        <time>2022-04-17T10:10:37Z</time>
      </trkpt>
      <trkpt lat="50.03574" lon="2.00218">
        <ele>83.3</ele>
        <time>2022-04-17T10:10:38Z</time>
      </trkpt>
      <trkpt lat="50.03574" lon="2.00218">
        <ele>83.3</ele>
        <time>2022-04-17T10:10:40Z</time>
      </trkpt>
      <trkpt lat="50.03574" lon="2.00218">
        <ele>83.3</ele>
        <time>2022-04-17T10:10:41Z</time>
      </trkpt>
      <trkpt lat="50.03574" lon="2.00218">
        <ele>83.3</ele>
        <time>2022-04-17T10:10:43Z</time>
      </trkpt>
      <trkpt lat="50.03574" lon="2.00218">
        <ele>83.3</ele>
        <time>2022-04-17T10:10:44Z</time>
      </trkpt>
      <trkpt lat="50.03574" lon="2.00218">
        <ele>83.3</ele>
        <time>2022-04-17T10:10:45Z</time>
      </trkpt>
      <trkpt lat="50.03574" lon="2.00218">
        <ele>83.3</ele>
        <time>2022-04-17T10:10:46Z</time>
      </trkpt>
      <trkpt lat="50.03574" lon="2.00218">
        <ele>83.3</ele>
        <time>2022-04-17T10:10:47Z</time>
      </trkpt>
      <trkpt lat="50.03574" lon="2.00218">
        <ele>83.3</ele>
        <time>2022-04-17T10:10:48Z</time>
      </trkpt>
      <trkpt lat="50.03574" lon="2.00218">
        <ele>83.3</ele>
        <time>2022-04-17T10:10:50Z</time>
      </trkpt>
      <trkpt lat="50.03574" lon="2.00218">
        <ele>83.3</ele>
        <time>2022-04-17T10:10:51Z</time>
      </trkpt>
      <trkpt lat="50.03574" lon="2.00218">
        <ele>83.3</ele>
        <time>2022-04-17T10:10:52Z</time>
      </trkpt>
      <trkpt lat="50.03574" lon="2.00218">
        <ele>83.3</ele>
        <time>2022-04-17T10:10:53Z</time>
      </trkpt>
      <trkpt lat="50.03574" lon="2.00218">
        <ele>83.3</ele>
        <time>2022-04-17T10:10:54Z</time>
      </trkpt>
      <trkpt lat="50.03574" lon="2.00218">
        <ele>83.3</ele>
        <time>2022-04-17T10:10:55Z</time>
      </trkpt>
      <trkpt lat="50.03574" lon="2.00218">
        <ele>83.3</ele>
        <time>2022-04-17T10:10:57Z</time>
      </trkpt>
      <trkpt lat="50.03574" lon="2.00218">
        <ele>83.3</ele>
        <time>2022-04-17T10:10:58Z</time>
      </trkpt>
      <trkpt lat="50.03574" lon="2.00218">
        <ele>83.3</ele>
        <time>2022-04-17T10:10:59Z</time>
      </trkpt>
      <trkpt lat="50.03574" lon="2.00218">
        <ele>83.3</ele>
        <time>2022-04-17T10:11:00Z</time>
      </trkpt>
      <trkpt lat="50.03574" lon="2.00218">
        <ele>83.3</ele>
        <time>2022-04-17T10:11:01Z</time>
      </trkpt>
      <trkpt lat="50.03574" lon="2.00218">
        <ele>83.3</ele>
        <time>2022-04-17T10:11:03Z</time>
      </trkpt>
      <trkpt lat="50.03574" lon="2.00218">
        <ele>83.3</ele>
        <time>2022-04-17T10:11:04Z</time>
      </trkpt>
      <trkpt lat="50.03574" lon="2.00218">
        <ele>83.3</ele>
        <time>2022-04-17T10:11:06Z</time>
      </trkpt>
      <trkpt lat="50.03574" lon="2.00218">
        <ele>83.3</ele>
        <time>2022-04-17T10:11:07Z</time>
      </trkpt>
      <trkpt lat="50.03574" lon="2.00218">
        <ele>83.3</ele>
        <time>2022-04-17T10:11:09Z</time>
      </trkpt>
      <trkpt lat="50.03574" lon="2.00218">
        <ele>83.3</ele>
        <time>2022-04-17T10:11:10Z</time>
      </trkpt>
      <trkpt lat="50.03574" lon="2.00218">
        <ele>83.3</ele>
        <time>2022-04-17T10:11:12Z</time>
      </trkpt>
      <trkpt lat="50.03574" lon="2.00218">
        <ele>83.3</ele>
        <time>2022-04-17T10:11:14Z</time>
      </trkpt>
      <trkpt lat="50.03574" lon="2.00218">
        <ele>83.3</ele>
        <time>2022-04-17T10:11:15Z</time>
      </trkpt>
      <trkpt lat="50.03574" lon="2.00218">
        <ele>83.3</ele>
        <time>2022-04-17T10:11:16Z</time>
      </trkpt>
      <trkpt lat="50.03574" lon="2.00218">
        <ele>83.3</ele>
        <time>2022-04-17T10:11:18Z</time>
      </trkpt>
      <trkpt lat="50.03574" lon="2.00218">
        <ele>83.3</ele>
        <time>2022-04-17T10:11:19Z</time>
      </trkpt>
      <trkpt lat="50.03574" lon="2.00218">
        <ele>83.3</ele>
        <time>2022-04-17T10:11:20Z</time>
      </trkpt>
      <trkpt lat="50.03574" lon="2.00218">
        <ele>83.3</ele>
        <time>2022-04-17T10:11:21Z</time>
      </trkpt>
      <trkpt lat="50.03574" lon="2.00218">
        <ele>83.3</ele>
        <time>2022-04-17T10:11:22Z</time>
      </trkpt>
      <trkpt lat="50.03574" lon="2.00218">
        <ele>83.3</ele>
        <time>2022-04-17T10:11:24Z</time>
      </trkpt>
      <trkpt lat="50.03574" lon="2.00218">
        <ele>83.3</ele>
        <time>2022-04-17T10:11:25Z</time>
      </trkpt>
      <trkpt lat="50.03574" lon="2.00218">
        <ele>83.3</ele>
        <time>2022-04-17T10:11:26Z</time>
      </trkpt>
      <trkpt lat="50.03574" lon="2.00218">
        <ele>83.3</ele>
        <time>2022-04-17T10:11:28Z</time>
      </trkpt>
      <trkpt lat="50.03574" lon="2.00218">
        <ele>83.3</ele>
        <time>2022-04-17T10:11:29Z</time>
      </trkpt>
      <trkpt lat="50.03574" lon="2.00218">
        <ele>83.3</ele>
        <time>2022-04-17T10:11:30Z</time>
      </trkpt>
      <trkpt lat="50.03574" lon="2.00218">
        <ele>83.3</ele>
        <time>2022-04-17T10:11:31Z</time>
      </trkpt>
      <trkpt lat="50.03574" lon="2.00218">
        <ele>83.3</ele>
        <time>2022-04-17T10:11:32Z</time>
      </trkpt>
      <trkpt lat="50.03574" lon="2.00218">
        <ele>83.3</ele>
        <time>2022-04-17T10:11:33Z</time>
      </trkpt>
      <trkpt lat="50.03574" lon="2.00218">
        <ele>83.3</ele>
        <time>2022-04-17T10:11:34Z</time>
      </trkpt>
      <trkpt lat="50.03574" lon="2.00218">
        <ele>83.3</ele>
        <time>2022-04-17T10:11:35Z</time>
      </trkpt>
      <trkpt lat="50.03574" lon="2.00218">
        <ele>83.3</ele>
        <time>2022-04-17T10:11:36Z</time>
      </trkpt>
      <trkpt lat="50.03574" lon="2.00218">
        <ele>83.3</ele>
        <time>2022-04-17T10:11:38Z</time>
      </trkpt>
      <trkpt lat="50.03574" lon="2.00218">
        <ele>83.3</ele>
        <time>2022-04-17T10:11:39Z</time>
      </trkpt>
      <trkpt lat="50.03574" lon="2.00218">
        <ele>83.3</ele>
        <time>2022-04-17T10:11:40Z</time>
      </trkpt>
      <trkpt lat="50.03574" lon="2.00218">
        <ele>83.3</ele>
        <time>2022-04-17T10:11:41Z</time>
      </trkpt>
      <trkpt lat="50.03574" lon="2.00218">
        <ele>83.3</ele>
        <time>2022-04-17T10:11:42Z</time>
      </trkpt>
      <trkpt lat="50.03574" lon="2.00218">
        <ele>83.3</ele>
        <time>2022-04-17T10:11:43Z</time>
      </trkpt>
      <trkpt lat="50.03574" lon="2.00218">
        <ele>83.3</ele>
        <time>2022-04-17T10:11:44Z</time>
      </trkpt>
      <trkpt lat="50.03574" lon="2.00218">
        <ele>83.3</ele>
        <time>2022-04-17T10:11:45Z</time>
      </trkpt>
      <trkpt lat="50.03574" lon="2.00218">
        <ele>83.3</ele>
        <time>2022-04-17T10:11:46Z</time>
      </trkpt>
      <trkpt lat="50.03574" lon="2.00218">
        <ele>83.3</ele>
        <time>2022-04-17T10:11:47Z</time>
      </trkpt>
      <trkpt lat="50.03574" lon="2.00218">
        <ele>83.3</ele>
        <time>2022-04-17T10:11:48Z</time>
      </trkpt>
      <trkpt lat="50.03574" lon="2.00218">
        <ele>83.3</ele>
        <time>2022-04-17T10:11:49Z</time>
      </trkpt>
      <trkpt lat="50.03574" lon="2.00218">
        <ele>83.3</ele>
        <time>2022-04-17T10:11:50Z</time>
      </trkpt>
      <trkpt lat="50.03574" lon="2.00218">
        <ele>83.3</ele>
        <time>2022-04-17T10:11:51Z</time>
      </trkpt>
      <trkpt lat="50.03574" lon="2.00218">
        <ele>83.3</ele>
        <time>2022-04-17T10:11:53Z</time>
      </trkpt>
      <trkpt lat="50.03574" lon="2.00218">
        <ele>83.3</ele>
        <time>2022-04-17T10:11:54Z</time>
      </trkpt>
      <trkpt lat="50.03574" lon="2.00218">
        <ele>83.3</ele>
        <time>2022-04-17T10:11:55Z</time>
      </trkpt>
      <trkpt lat="50.03574" lon="2.00218">
        <ele>83.3</ele>
        <time>2022-04-17T10:11:56Z</time>
      </trkpt>
      <trkpt lat="50.03574" lon="2.00218">
        <ele>83.3</ele>
        <time>2022-04-17T10:11:57Z</time>
      </trkpt>
      <trkpt lat="50.03574" lon="2.00218">
        <ele>83.3</ele>
        <time>2022-04-17T10:11:58Z</time>
      </trkpt>
      <trkpt lat="50.03574" lon="2.00218">
        <ele>83.3</ele>
        <time>2022-04-17T10:11:59Z</time>
      </trkpt>
      <trkpt lat="50.03574" lon="2.00218">
        <ele>83.3</ele>
        <time>2022-04-17T10:12:00Z</time>
      </trkpt>
      <trkpt lat="50.03574" lon="2.00218">
        <ele>83.3</ele>
        <time>2022-04-17T10:12:01Z</time>
      </trkpt>
      <trkpt lat="50.03574" lon="2.00218">
        <ele>83.3</ele>
        <time>2022-04-17T10:12:02Z</time>
      </trkpt>
      <trkpt lat="50.03574" lon="2.00218">
        <ele>83.3</ele>
        <time>2022-04-17T10:12:03Z</time>
      </trkpt>
      <trkpt lat="50.03574" lon="2.00218">
        <ele>83.3</ele>
        <time>2022-04-17T10:12:04Z</time>
      </trkpt>
      <trkpt lat="50.03574" lon="2.00218">
        <ele>83.3</ele>
        <time>2022-04-17T10:12:06Z</time>
      </trkpt>
      <trkpt lat="50.03574" lon="2.00218">
        <ele>83.3</ele>
        <time>2022-04-17T10:12:07Z</time>
      </trkpt>
      <trkpt lat="50.03574" lon="2.00218">
        <ele>83.3</ele>
        <time>2022-04-17T10:12:08Z</time>
      </trkpt>
      <trkpt lat="50.03574" lon="2.00218">
        <ele>83.3</ele>
        <time>2022-04-17T10:12:09Z</time>
      </trkpt>
      <trkpt lat="50.03574" lon="2.00218">
        <ele>83.3</ele>
        <time>2022-04-17T10:12:10Z</time>
      </trkpt>
      <trkpt lat="50.03574" lon="2.00218">
        <ele>83.3</ele>
        <time>2022-04-17T10:12:11Z</time>
      </trkpt>
      <trkpt lat="50.03574" lon="2.00218">
        <ele>83.3</ele>
        <time>2022-04-17T10:12:12Z</time>
      </trkpt>
      <trkpt lat="50.03574" lon="2.00218">
        <ele>83.3</ele>
        <time>2022-04-17T10:12:13Z</time>
      </trkpt>
      <trkpt lat="50.03574" lon="2.00218">
        <ele>83.3</ele>
        <time>2022-04-17T10:12:14Z</time>
      </trkpt>
      <trkpt lat="50.03574" lon="2.00218">
        <ele>83.3</ele>
        <time>2022-04-17T10:12:15Z</time>
      </trkpt>
      <trkpt lat="50.03574" lon="2.00218">
        <ele>83.3</ele>
        <time>2022-04-17T10:12:16Z</time>
      </trkpt>
      <trkpt lat="50.03574" lon="2.00218">
        <ele>83.3</ele>
        <time>2022-04-17T10:12:17Z</time>
      </trkpt>
      <trkpt lat="50.03574" lon="2.00218">
        <ele>83.3</ele>
        <time>2022-04-17T10:12:18Z</time>
      </trkpt>
      <trkpt lat="50.03574" lon="2.00218">
        <ele>83.3</ele>
        <time>2022-04-17T10:12:19Z</time>
      </trkpt>
      <trkpt lat="50.03574" lon="2.00218">
        <ele>83.3</ele>
        <time>2022-04-17T10:12:20Z</time>
      </trkpt>
      <trkpt lat="50.03574" lon="2.00218">
        <ele>83.3</ele>
        <time>2022-04-17T10:12:21Z</time>
      </trkpt>
      <trkpt lat="50.03574" lon="2.00218">
        <ele>83.3</ele>
        <time>2022-04-17T10:12:22Z</time>
      </trkpt>
      <trkpt lat="50.03574" lon="2.00218">
        <ele>83.3</ele>
        <time>2022-04-17T10:12:23Z</time>
      </trkpt>
      <trkpt lat="50.03574" lon="2.00218">
        <ele>83.3</ele>
        <time>2022-04-17T10:12:24Z</time>
      </trkpt>
      <trkpt lat="50.03574" lon="2.00218">
        <ele>83.3</ele>
        <time>2022-04-17T10:12:25Z</time>
      </trkpt>
      <trkpt lat="50.03574" lon="2.00218">
        <ele>83.3</ele>
        <time>2022-04-17T10:12:26Z</time>
      </trkpt>
      <trkpt lat="50.03574" lon="2.00218">
        <ele>83.3</ele>
        <time>2022-04-17T10:12:27Z</time>
      </trkpt>
      <trkpt lat="50.03574" lon="2.00218">
        <ele>83.3</ele>
        <time>2022-04-17T10:12:28Z</time>
      </trkpt>
      <trkpt lat="50.03574" lon="2.00218">
        <ele>83.3</ele>
        <time>2022-04-17T10:12:29Z</time>
      </trkpt>
      <trkpt lat="50.03574" lon="2.00218">
        <ele>83.3</ele>
        <time>2022-04-17T10:12:30Z</time>
      </trkpt>
      <trkpt lat="50.03574" lon="2.00218">
        <ele>83.3</ele>
        <time>2022-04-17T10:12:31Z</time>
      </trkpt>
      <trkpt lat="50.03574" lon="2.00218">
        <ele>83.3</ele>
        <time>2022-04-17T10:12:32Z</time>
      </trkpt>
      <trkpt lat="50.03574" lon="2.00218">
        <ele>83.3</ele>
        <time>2022-04-17T10:12:33Z</time>
      </trkpt>
      <trkpt lat="50.03574" lon="2.00218">
        <ele>83.3</ele>
        <time>2022-04-17T10:12:34Z</time>
      </trkpt>
      <trkpt lat="50.03574" lon="2.00218">
        <ele>83.3</ele>
        <time>2022-04-17T10:12:35Z</time>
      </trkpt>
      <trkpt lat="50.03574" lon="2.00218">
        <ele>83.3</ele>
        <time>2022-04-17T10:12:36Z</time>
      </trkpt>
      <trkpt lat="50.03574" lon="2.00218">
        <ele>83.3</ele>
        <time>2022-04-17T10:12:37Z</time>
      </trkpt>
      <trkpt lat="50.03574" lon="2.00218">
        <ele>83.3</ele>
        <time>2022-04-17T10:12:39Z</time>
      </trkpt>
      <trkpt lat="50.03574" lon="2.00218">
        <ele>83.3</ele>
        <time>2022-04-17T10:12:40Z</time>
      </trkpt>
      <trkpt lat="50.03574" lon="2.00218">
        <ele>83.3</ele>
        <time>2022-04-17T10:12:41Z</time>
      </trkpt>
      <trkpt lat="50.03574" lon="2.00218">
        <ele>83.3</ele>
        <time>2022-04-17T10:12:42Z</time>
      </trkpt>
      <trkpt lat="50.03574" lon="2.00218">
        <ele>83.3</ele>
        <time>2022-04-17T10:12:43Z</time>
      </trkpt>
      <trkpt lat="50.03574" lon="2.00218">
        <ele>83.3</ele>
        <time>2022-04-17T10:12:44Z</time>
      </trkpt>
      <trkpt lat="50.03574" lon="2.00218">
        <ele>83.3</ele>
        <time>2022-04-17T10:12:45Z</time>
      </trkpt>
      <trkpt lat="50.03574" lon="2.00218">
        <ele>83.3</ele>
        <time>2022-04-17T10:12:46Z</time>
      </trkpt>
      <trkpt lat="50.03574" lon="2.00218">
        <ele>83.3</ele>
        <time>2022-04-17T10:12:47Z</time>
      </trkpt>
      <trkpt lat="50.03574" lon="2.00218">
        <ele>83.3</ele>
        <time>2022-04-17T10:12:48Z</time>
      </trkpt>
      <trkpt lat="50.03574" lon="2.00218">
        <ele>83.3</ele>
        <time>2022-04-17T10:12:49Z</time>
      </trkpt>
      <trkpt lat="50.03574" lon="2.00218">
        <ele>83.3</ele>
        <time>2022-04-17T10:12:50Z</time>
      </trkpt>
      <trkpt lat="50.03574" lon="2.00218">
        <ele>83.3</ele>
        <time>2022-04-17T10:12:51Z</time>
      </trkpt>
      <trkpt lat="50.03574" lon="2.00218">
        <ele>83.3</ele>
        <time>2022-04-17T10:12:52Z</time>
      </trkpt>
      <trkpt lat="50.03574" lon="2.00218">
        <ele>83.3</ele>
        <time>2022-04-17T10:12:53Z</time>
      </trkpt>
      <trkpt lat="50.03574" lon="2.00218">
        <ele>83.3</ele>
        <time>2022-04-17T10:12:54Z</time>
      </trkpt>
      <trkpt lat="50.03574" lon="2.00218">
        <ele>83.3</ele>
        <time>2022-04-17T10:12:55Z</time>
      </trkpt>
      <trkpt lat="50.03574" lon="2.00218">
        <ele>83.3</ele>
        <time>2022-04-17T10:12:56Z</time>
      </trkpt>
      <trkpt lat="50.03574" lon="2.00218">
        <ele>83.3</ele>
        <time>2022-04-17T10:12:57Z</time>
      </trkpt>
      <trkpt lat="50.03574" lon="2.00218">
        <ele>83.3</ele>
        <time>2022-04-17T10:12:58Z</time>
      </trkpt>
      <trkpt lat="50.03574" lon="2.00218">
        <ele>83.3</ele>
        <time>2022-04-17T10:12:59Z</time>
      </trkpt>
      <trkpt lat="50.03574" lon="2.00218">
        <ele>83.3</ele>
        <time>2022-04-17T10:13:00Z</time>
      </trkpt>
      <trkpt lat="50.03574" lon="2.00218">
        <ele>83.3</ele>
        <time>2022-04-17T10:13:01Z</time>
      </trkpt>
      <trkpt lat="50.03574" lon="2.00218">
        <ele>83.3</ele>
        <time>2022-04-17T10:13:02Z</time>
      </trkpt>
      <trkpt lat="50.03574" lon="2.00218">
        <ele>83.3</ele>
        <time>2022-04-17T10:13:03Z</time>
      </trkpt>
      <trkpt lat="50.03574" lon="2.00218">
        <ele>83.3</ele>
        <time>2022-04-17T10:13:04Z</time>
      </trkpt>
      <trkpt lat="50.03574" lon="2.00218">
        <ele>83.3</ele>
        <time>2022-04-17T10:13:05Z</time>
      </trkpt>
      <trkpt lat="50.03574" lon="2.00218">
        <ele>83.3</ele>
        <time>2022-04-17T10:13:06Z</time>
      </trkpt>
      <trkpt lat="50.03574" lon="2.00218">
        <ele>83.3</ele>
        <time>2022-04-17T10:13:07Z</time>
      </trkpt>
      <trkpt lat="50.03574" lon="2.00218">
        <ele>83.3</ele>
        <time>2022-04-17T10:13:08Z</time>
      </trkpt>
      <trkpt lat="50.03574" lon="2.00218">
        <ele>83.3</ele>
        <time>2022-04-17T10:13:09Z</time>
      </trkpt>
      <trkpt lat="50.03574" lon="2.00218">
        <ele>83.3</ele>
        <time>2022-04-17T10:13:10Z</time>
      </trkpt>
      <trkpt lat="50.03574" lon="2.00218">
        <ele>83.3</ele>
        <time>2022-04-17T10:13:11Z</time>
      </trkpt>
      <trkpt lat="50.03574" lon="2.00218">
        <ele>83.3</ele>
        <time>2022-04-17T10:13:12Z</time>
      </trkpt>
      <trkpt lat="50.03574" lon="2.00218">
        <ele>83.3</ele>
        <time>2022-04-17T10:13:13Z</time>
      </trkpt>
      <trkpt lat="50.03574" lon="2.00218">
        <ele>83.3</ele>
        <time>2022-04-17T10:13:14Z</time>
      </trkpt>
      <trkpt lat="50.03574" lon="2.00218">
        <ele>83.3</ele>
        <time>2022-04-17T10:13:15Z</time>
      </trkpt>
      <trkpt lat="50.03574" lon="2.00218">
        <ele>83.3</ele>
        <time>2022-04-17T10:13:16Z</time>
      </trkpt>
      <trkpt lat="50.03574" lon="2.00218">
        <ele>83.3</ele>
        <time>2022-04-17T10:13:17Z</time>
      </trkpt>
      <trkpt lat="50.03574" lon="2.00218">
        <ele>83.3</ele>
        <time>2022-04-17T10:13:18Z</time>
      </trkpt>
      <trkpt lat="50.03574" lon="2.00218">
        <ele>83.3</ele>
        <time>2022-04-17T10:13:19Z</time>
      </trkpt>
      <trkpt lat="50.03574" lon="2.00218">
        <ele>83.3</ele>
        <time>2022-04-17T10:13:20Z</time>
      </trkpt>
      <trkpt lat="50.03574" lon="2.00218">
        <ele>83.3</ele>
        <time>2022-04-17T10:13:21Z</time>
      </trkpt>
      <trkpt lat="50.03574" lon="2.00218">
        <ele>83.3</ele>
        <time>2022-04-17T10:13:22Z</time>
      </trkpt>
      <trkpt lat="50.03574" lon="2.00218">
        <ele>83.3</ele>
        <time>2022-04-17T10:13:23Z</time>
      </trkpt>
      <trkpt lat="50.03574" lon="2.00218">
        <ele>83.3</ele>
        <time>2022-04-17T10:13:24Z</time>
      </trkpt>
      <trkpt lat="50.03574" lon="2.00218">
        <ele>83.3</ele>
        <time>2022-04-17T10:13:25Z</time>
      </trkpt>
      <trkpt lat="50.03574" lon="2.00218">
        <ele>83.3</ele>
        <time>2022-04-17T10:13:26Z</time>
      </trkpt>
      <trkpt lat="50.03574" lon="2.00218">
        <ele>83.3</ele>
        <time>2022-04-17T10:13:27Z</time>
      </trkpt>
      <trkpt lat="50.03574" lon="2.00218">
        <ele>83.3</ele>
        <time>2022-04-17T10:13:28Z</time>
      </trkpt>
      <trkpt lat="50.03574" lon="2.00218">
        <ele>83.3</ele>
        <time>2022-04-17T10:13:29Z</time>
      </trkpt>
      <trkpt lat="50.03574" lon="2.00218">
        <ele>83.3</ele>
        <time>2022-04-17T10:13:30Z</time>
      </trkpt>
      <trkpt lat="50.03574" lon="2.00218">
        <ele>83.3</ele>
        <time>2022-04-17T10:13:31Z</time>
      </trkpt>
      <trkpt lat="50.03574" lon="2.00218">
        <ele>83.3</ele>
        <time>2022-04-17T10:13:32Z</time>
      </trkpt>
      <trkpt lat="50.03574" lon="2.00218">
        <ele>83.3</ele>
        <time>2022-04-17T10:13:33Z</time>
      </trkpt>
      <trkpt lat="50.03574" lon="2.00218">
        <ele>83.3</ele>
        <time>2022-04-17T10:13:34Z</time>
      </trkpt>
      <trkpt lat="50.03574" lon="2.00218">
        <ele>83.3</ele>
        <time>2022-04-17T10:13:35Z</time>
      </trkpt>
      <trkpt lat="50.03574" lon="2.00218">
        <ele>83.3</ele>
        <time>2022-04-17T10:13:36Z</time>
      </trkpt>
      <trkpt lat="50.03574" lon="2.00218">
        <ele>83.3</ele>
        <time>2022-04-17T10:13:37Z</time>
      </trkpt>
      <trkpt lat="50.03574" lon="2.00218">
        <ele>83.3</ele>
        <time>2022-04-17T10:13:39Z</time>
      </trkpt>
      <trkpt lat="50.03574" lon="2.00218">
        <ele>83.3</ele>
        <time>2022-04-17T10:13:40Z</time>
      </trkpt>
      <trkpt lat="50.03574" lon="2.00218">
        <ele>83.3</ele>
        <time>2022-04-17T10:13:41Z</time>
      </trkpt>
      <trkpt lat="50.03574" lon="2.00218">
        <ele>83.3</ele>
        <time>2022-04-17T10:13:42Z</time>
      </trkpt>
      <trkpt lat="50.03574" lon="2.00218">
        <ele>83.3</ele>
        <time>2022-04-17T10:13:43Z</time>
      </trkpt>
      <trkpt lat="50.03574" lon="2.00218">
        <ele>83.3</ele>
        <time>2022-04-17T10:13:44Z</time>
      </trkpt>
      <trkpt lat="50.03574" lon="2.00218">
        <ele>83.3</ele>
        <time>2022-04-17T10:13:45Z</time>
      </trkpt>
      <trkpt lat="50.03574" lon="2.00218">
        <ele>83.3</ele>
        <time>2022-04-17T10:13:46Z</time>
      </trkpt>
      <trkpt lat="50.03574" lon="2.00218">
        <ele>83.3</ele>
        <time>2022-04-17T10:13:47Z</time>
      </trkpt>
      <trkpt lat="50.03574" lon="2.00218">
        <ele>83.3</ele>
        <time>2022-04-17T10:13:48Z</time>
      </trkpt>
      <trkpt lat="50.03574" lon="2.00218">
        <ele>83.3</ele>
        <time>2022-04-17T10:13:49Z</time>
      </trkpt>
      <trkpt lat="50.03574" lon="2.00218">
        <ele>83.3</ele>
        <time>2022-04-17T10:13:50Z</time>
      </trkpt>
      <trkpt lat="50.03574" lon="2.00218">
        <ele>83.3</ele>
        <time>2022-04-17T10:13:51Z</time>
      </trkpt>
      <trkpt lat="50.03574" lon="2.00218">
        <ele>83.3</ele>
        <time>2022-04-17T10:13:52Z</time>
      </trkpt>
      <trkpt lat="50.03574" lon="2.00218">
        <ele>83.3</ele>
        <time>2022-04-17T10:13:53Z</time>
      </trkpt>
      <trkpt lat="50.03574" lon="2.00218">
        <ele>83.3</ele>
        <time>2022-04-17T10:13:54Z</time>
      </trkpt>
      <trkpt lat="50.03574" lon="2.00218">
        <ele>83.3</ele>
        <time>2022-04-17T10:13:56Z</time>
      </trkpt>
      <trkpt lat="50.03574" lon="2.00218">
        <ele>83.3</ele>
        <time>2022-04-17T10:13:57Z</time>
      </trkpt>
      <trkpt lat="50.03574" lon="2.00218">
        <ele>83.3</ele>
        <time>2022-04-17T10:13:58Z</time>
      </trkpt>
      <trkpt lat="50.03574" lon="2.00218">
        <ele>83.3</ele>
        <time>2022-04-17T10:13:59Z</time>
      </trkpt>
      <trkpt lat="50.03574" lon="2.00218">
        <ele>83.3</ele>
        <time>2022-04-17T10:14:00Z</time>
      </trkpt>
      <trkpt lat="50.03574" lon="2.00218">
        <ele>83.3</ele>
        <time>2022-04-17T10:14:01Z</time>
      </trkpt>
      <trkpt lat="50.03574" lon="2.00218">
        <ele>83.3</ele>
        <time>2022-04-17T10:14:02Z</time>
      </trkpt>
      <trkpt lat="50.03574" lon="2.00218">
        <ele>83.3</ele>
        <time>2022-04-17T10:14:03Z</time>
      </trkpt>
      <trkpt lat="50.03574" lon="2.00218">
        <ele>83.3</ele>
        <time>2022-04-17T10:14:04Z</time>
      </trkpt>
      <trkpt lat="50.03574" lon="2.00218">
        <ele>83.3</ele>
        <time>2022-04-17T10:14:05Z</time>
      </trkpt>
      <trkpt lat="50.03574" lon="2.00218">
        <ele>83.3</ele>
        <time>2022-04-17T10:14:06Z</time>
      </trkpt>
      <trkpt lat="50.03574" lon="2.00218">
        <ele>83.3</ele>
        <time>2022-04-17T10:14:07Z</time>
      </trkpt>
      <trkpt lat="50.03574" lon="2.00218">
        <ele>83.3</ele>
        <time>2022-04-17T10:14:08Z</time>
      </trkpt>
      <trkpt lat="50.03574" lon="2.00218">
        <ele>83.3</ele>
        <time>2022-04-17T10:14:09Z</time>
      </trkpt>
      <trkpt lat="50.03574" lon="2.00218">
        <ele>83.3</ele>
        <time>2022-04-17T10:14:10Z</time>
      </trkpt>
      <trkpt lat="50.03574" lon="2.00218">
        <ele>83.3</ele>
        <time>2022-04-17T10:14:11Z</time>
      </trkpt>
      <trkpt lat="50.03574" lon="2.00218">
        <ele>83.3</ele>
        <time>2022-04-17T10:14:12Z</time>
      </trkpt>
      <trkpt lat="50.03574" lon="2.00218">
        <ele>83.3</ele>
        <time>2022-04-17T10:14:13Z</time>
      </trkpt>
      <trkpt lat="50.03574" lon="2.00218">
        <ele>83.3</ele>
        <time>2022-04-17T10:14:14Z</time>
      </trkpt>
      <trkpt lat="50.03574" lon="2.00218">
        <ele>83.3</ele>
        <time>2022-04-17T10:14:15Z</time>
      </trkpt>
      <trkpt lat="50.03574" lon="2.00218">
        <ele>83.3</ele>
        <time>2022-04-17T10:14:16Z</time>
      </trkpt>
      <trkpt lat="50.03574" lon="2.00218">
        <ele>83.3</ele>
        <time>2022-04-17T10:14:17Z</time>
      </trkpt>
      <trkpt lat="50.03574" lon="2.00218">
        <ele>83.3</ele>
        <time>2022-04-17T10:14:18Z</time>
      </trkpt>
      <trkpt lat="50.03574" lon="2.00218">
        <ele>83.3</ele>
        <time>2022-04-17T10:14:19Z</time>
      </trkpt>
      <trkpt lat="50.03574" lon="2.00218">
        <ele>83.3</ele>
        <time>2022-04-17T10:14:20Z</time>
      </trkpt>
      <trkpt lat="50.03574" lon="2.00218">
        <ele>83.3</ele>
        <time>2022-04-17T10:14:21Z</time>
      </trkpt>
      <trkpt lat="50.03574" lon="2.00218">
        <ele>83.3</ele>
        <time>2022-04-17T10:14:22Z</time>
      </trkpt>
      <trkpt lat="50.03574" lon="2.00218">
        <ele>83.3</ele>
        <time>2022-04-17T10:14:23Z</time>
      </trkpt>
      <trkpt lat="50.03574" lon="2.00218">
        <ele>83.3</ele>
        <time>2022-04-17T10:14:24Z</time>
      </trkpt>
      <trkpt lat="50.03574" lon="2.00218">
        <ele>83.3</ele>
        <time>2022-04-17T10:14:25Z</time>
      </trkpt>
      <trkpt lat="50.03574" lon="2.00218">
        <ele>83.3</ele>
        <time>2022-04-17T10:14:26Z</time>
      </trkpt>
      <trkpt lat="50.03574" lon="2.00218">
        <ele>83.3</ele>
        <time>2022-04-17T10:14:27Z</time>
      </trkpt>
      <trkpt lat="50.03574" lon="2.00218">
        <ele>83.3</ele>
        <time>2022-04-17T10:14:28Z</time>
      </trkpt>
      <trkpt lat="50.03574" lon="2.00218">
        <ele>83.3</ele>
        <time>2022-04-17T10:14:29Z</time>
      </trkpt>
      <trkpt lat="50.03574" lon="2.00218">
        <ele>83.3</ele>
        <time>2022-04-17T10:14:30Z</time>
      </trkpt>
      <trkpt lat="50.03574" lon="2.00218">
        <ele>83.3</ele>
        <time>2022-04-17T10:14:31Z</time>
      </trkpt>
      <trkpt lat="50.03574" lon="2.00218">
        <ele>83.3</ele>
        <time>2022-04-17T10:14:32Z</time>
      </trkpt>
      <trkpt lat="50.03574" lon="2.00218">
        <ele>83.3</ele>
        <time>2022-04-17T10:14:33Z</time>
      </trkpt>
      <trkpt lat="50.03574" lon="2.00218">
        <ele>83.3</ele>
        <time>2022-04-17T10:14:34Z</time>
      </trkpt>
      <trkpt lat="50.03574" lon="2.00218">
        <ele>83.3</ele>
        <time>2022-04-17T10:14:35Z</time>
      </trkpt>
      <trkpt lat="50.03574" lon="2.00218">
        <ele>83.3</ele>
        <time>2022-04-17T10:14:36Z</time>
      </trkpt>
      <trkpt lat="50.03574" lon="2.00218">
        <ele>83.3</ele>
        <time>2022-04-17T10:14:37Z</time>
      </trkpt>
      <trkpt lat="50.03574" lon="2.00218">
        <ele>83.3</ele>
        <time>2022-04-17T10:14:38Z</time>
      </trkpt>
      <trkpt lat="50.03574" lon="2.00218">
        <ele>83.3</ele>
        <time>2022-04-17T10:14:39Z</time>
      </trkpt>
      <trkpt lat="50.03574" lon="2.00218">
        <ele>83.3</ele>
        <time>2022-04-17T10:14:40Z</time>
      </trkpt>
      <trkpt lat="50.03574" lon="2.00218">
        <ele>83.3</ele>
        <time>2022-04-17T10:14:41Z</time>
      </trkpt>
      <trkpt lat="50.03574" lon="2.00218">
        <ele>83.3</ele>
        <time>2022-04-17T10:14:42Z</time>
      </trkpt>
      <trkpt lat="50.03574" lon="2.00218">
        <ele>83.3</ele>
        <time>2022-04-17T10:14:43Z</time>
      </trkpt>
      <trkpt lat="50.03574" lon="2.00218">
        <ele>83.3</ele>
        <time>2022-04-17T10:14:44Z</time>
      </trkpt>
      <trkpt lat="50.03574" lon="2.00218">
        <ele>83.3</ele>
        <time>2022-04-17T10:14:45Z</time>
      </trkpt>
      <trkpt lat="50.03574" lon="2.00218">
        <ele>83.3</ele>
        <time>2022-04-17T10:14:46Z</time>
      </trkpt>
      <trkpt lat="50.03574" lon="2.00218">
        <ele>83.3</ele>
        <time>2022-04-17T10:14:47Z</time>
      </trkpt>
      <trkpt lat="50.03574" lon="2.00218">
        <ele>83.3</ele>
        <time>2022-04-17T10:14:48Z</time>
      </trkpt>
      <trkpt lat="50.03574" lon="2.00218">
        <ele>83.3</ele>
        <time>2022-04-17T10:14:49Z</time>
      </trkpt>
      <trkpt lat="50.03574" lon="2.00218">
        <ele>83.3</ele>
        <time>2022-04-17T10:14:50Z</time>
      </trkpt>
      <trkpt lat="50.03574" lon="2.00218">
        <ele>83.3</ele>
        <time>2022-04-17T10:14:51Z</time>
      </trkpt>
      <trkpt lat="50.03574" lon="2.00218">
        <ele>83.3</ele>
        <time>2022-04-17T10:14:52Z</time>
      </trkpt>
      <trkpt lat="50.03574" lon="2.00218">
        <ele>83.3</ele>
        <time>2022-04-17T10:14:53Z</time>
      </trkpt>
      <trkpt lat="50.03574" lon="2.00218">
        <ele>83.3</ele>
        <time>2022-04-17T10:14:54Z</time>
      </trkpt>
      <trkpt lat="50.03574" lon="2.00218">
        <ele>83.3</ele>
        <time>2022-04-17T10:14:55Z</time>
      </trkpt>
      <trkpt lat="50.03574" lon="2.00218">
        <ele>83.3</ele>
        <time>2022-04-17T10:14:56Z</time>
      </trkpt>
      <trkpt lat="50.03574" lon="2.00218">
        <ele>83.3</ele>
        <time>2022-04-17T10:14:57Z</time>
      </trkpt>
      <trkpt lat="50.03574" lon="2.00218">
        <ele>83.3</ele>
        <time>2022-04-17T10:14:58Z</time>
      </trkpt>
      <trkpt lat="50.03574" lon="2.00218">
        <ele>83.3</ele>
        <time>2022-04-17T10:14:59Z</time>
      </trkpt>
      <trkpt lat="50.03574" lon="2.00218">
        <ele>83.3</ele>
        <time>2022-04-17T10:15:00Z</time>
      </trkpt>
      <trkpt lat="50.03574" lon="2.00218">
        <ele>83.3</ele>
        <time>2022-04-17T10:15:01Z</time>
      </trkpt>
      <trkpt lat="50.03574" lon="2.00218">
        <ele>83.3</ele>
        <time>2022-04-17T10:15:02Z</time>
      </trkpt>
      <trkpt lat="50.03574" lon="2.00218">
        <ele>83.3</ele>
        <time>2022-04-17T10:15:03Z</time>
      </trkpt>
      <trkpt lat="50.03574" lon="2.00218">
        <ele>83.3</ele>
        <time>2022-04-17T10:15:04Z</time>
      </trkpt>
      <trkpt lat="50.03574" lon="2.00218">
        <ele>83.3</ele>
        <time>2022-04-17T10:15:05Z</time>
      </trkpt>
      <trkpt lat="50.03574" lon="2.00218">
        <ele>83.3</ele>
        <time>2022-04-17T10:15:07Z</time>
      </trkpt>
      <trkpt lat="50.03574" lon="2.00218">
        <ele>83.3</ele>
        <time>2022-04-17T10:15:08Z</time>
      </trkpt>
      <trkpt lat="50.03574" lon="2.00218">
        <ele>83.3</ele>
        <time>2022-04-17T10:15:09Z</time>
      </trkpt>
      <trkpt lat="50.03574" lon="2.00218">
        <ele>83.3</ele>
        <time>2022-04-17T10:15:10Z</time>
      </trkpt>
      <trkpt lat="50.03574" lon="2.00218">
        <ele>83.3</ele>
        <time>2022-04-17T10:15:11Z</time>
      </trkpt>
      <trkpt lat="50.03574" lon="2.00218">
        <ele>83.3</ele>
        <time>2022-04-17T10:15:12Z</time>
      </trkpt>
      <trkpt lat="50.03574" lon="2.00218">
        <ele>83.3</ele>
        <time>2022-04-17T10:15:13Z</time>
      </trkpt>
      <trkpt lat="50.03574" lon="2.00218">
        <ele>83.3</ele>
        <time>2022-04-17T10:15:14Z</time>
      </trkpt>
      <trkpt lat="50.03574" lon="2.00218">
        <ele>83.3</ele>
        <time>2022-04-17T10:15:15Z</time>
      </trkpt>
      <trkpt lat="50.03574" lon="2.00218">
        <ele>83.3</ele>
        <time>2022-04-17T10:15:16Z</time>
      </trkpt>
      <trkpt lat="50.03574" lon="2.00218">
        <ele>83.3</ele>
        <time>2022-04-17T10:15:17Z</time>
      </trkpt>
      <trkpt lat="50.03574" lon="2.00218">
        <ele>83.3</ele>
        <time>2022-04-17T10:15:18Z</time>
      </trkpt>
      <trkpt lat="50.03574" lon="2.00218">
        <ele>83.3</ele>
        <time>2022-04-17T10:15:19Z</time>
      </trkpt>
      <trkpt lat="50.03574" lon="2.00218">
        <ele>83.3</ele>
        <time>2022-04-17T10:15:20Z</time>
      </trkpt>
      <trkpt lat="50.03574" lon="2.00218">
        <ele>83.3</ele>
        <time>2022-04-17T10:15:21Z</time>
      </trkpt>
      <trkpt lat="50.03574" lon="2.00218">
        <ele>83.3</ele>
        <time>2022-04-17T10:15:22Z</time>
      </trkpt>
      <trkpt lat="50.03574" lon="2.00218">
        <ele>83.3</ele>
        <time>2022-04-17T10:15:24Z</time>
      </trkpt>
      <trkpt lat="50.03574" lon="2.00218">
        <ele>83.3</ele>
        <time>2022-04-17T10:15:25Z</time>
      </trkpt>
      <trkpt lat="50.03574" lon="2.00218">
        <ele>83.3</ele>
        <time>2022-04-17T10:15:26Z</time>
      </trkpt>
      <trkpt lat="50.03574" lon="2.00218">
        <ele>83.3</ele>
        <time>2022-04-17T10:15:28Z</time>
      </trkpt>
      <trkpt lat="50.03574" lon="2.00218">
        <ele>83.3</ele>
        <time>2022-04-17T10:15:29Z</time>
      </trkpt>
      <trkpt lat="50.03574" lon="2.00218">
        <ele>83.3</ele>
        <time>2022-04-17T10:15:30Z</time>
      </trkpt>
      <trkpt lat="50.03574" lon="2.00218">
        <ele>83.3</ele>
        <time>2022-04-17T10:15:31Z</time>
      </trkpt>
      <trkpt lat="50.03574" lon="2.00218">
        <ele>83.3</ele>
        <time>2022-04-17T10:15:32Z</time>
      </trkpt>
      <trkpt lat="50.03574" lon="2.00218">
        <ele>83.3</ele>
        <time>2022-04-17T10:15:33Z</time>
      </trkpt>
      <trkpt lat="50.03574" lon="2.00218">
        <ele>83.3</ele>
        <time>2022-04-17T10:15:34Z</time>
      </trkpt>
      <trkpt lat="50.03574" lon="2.00218">
        <ele>83.3</ele>
        <time>2022-04-17T10:15:35Z</time>
      </trkpt>
      <trkpt lat="50.03574" lon="2.00218">
        <ele>83.3</ele>
        <time>2022-04-17T10:15:36Z</time>
      </trkpt>
      <trkpt lat="50.03574" lon="2.00218">
        <ele>83.3</ele>
        <time>2022-04-17T10:15:37Z</time>
      </trkpt>
      <trkpt lat="50.03574" lon="2.00218">
        <ele>83.3</ele>
        <time>2022-04-17T10:15:38Z</time>
      </trkpt>
      <trkpt lat="50.03574" lon="2.00218">
        <ele>83.3</ele>
        <time>2022-04-17T10:15:39Z</time>
      </trkpt>
      <trkpt lat="50.03574" lon="2.00218">
        <ele>83.3</ele>
        <time>2022-04-17T10:15:40Z</time>
      </trkpt>
      <trkpt lat="50.03574" lon="2.00218">
        <ele>83.3</ele>
        <time>2022-04-17T10:15:41Z</time>
      </trkpt>
      <trkpt lat="50.03574" lon="2.00218">
        <ele>83.3</ele>
        <time>2022-04-17T10:15:42Z</time>
      </trkpt>
      <trkpt lat="50.03574" lon="2.00218">
        <ele>83.3</ele>
        <time>2022-04-17T10:15:43Z</time>
      </trkpt>
      <trkpt lat="50.03574" lon="2.00218">
        <ele>83.3</ele>
        <time>2022-04-17T10:15:44Z</time>
      </trkpt>
      <trkpt lat="50.03574" lon="2.00218">
        <ele>83.3</ele>
        <time>2022-04-17T10:15:45Z</time>
      </trkpt>
      <trkpt lat="50.03574" lon="2.00218">
        <ele>83.3</ele>
        <time>2022-04-17T10:15:46Z</time>
      </trkpt>
      <trkpt lat="50.03574" lon="2.00218">
        <ele>83.3</ele>
        <time>2022-04-17T10:15:47Z</time>
      </trkpt>
      <trkpt lat="50.03574" lon="2.00218">
        <ele>83.3</ele>
        <time>2022-04-17T10:15:48Z</time>
      </trkpt>
      <trkpt lat="50.03574" lon="2.00218">
        <ele>83.3</ele>
        <time>2022-04-17T10:15:49Z</time>
      </trkpt>
      <trkpt lat="50.03574" lon="2.00218">
        <ele>83.3</ele>
        <time>2022-04-17T10:15:50Z</time>
      </trkpt>
      <trkpt lat="50.03574" lon="2.00218">
        <ele>83.3</ele>
        <time>2022-04-17T10:15:51Z</time>
      </trkpt>
      <trkpt lat="50.03574" lon="2.00218">
        <ele>83.3</ele>
        <time>2022-04-17T10:15:52Z</time>
      </trkpt>
      <trkpt lat="50.03574" lon="2.00218">
        <ele>83.3</ele>
        <time>2022-04-17T10:15:53Z</time>
      </trkpt>
      <trkpt lat="50.03574" lon="2.00218">
        <ele>83.3</ele>
        <time>2022-04-17T10:15:54Z</time>
      </trkpt>
      <trkpt lat="50.03574" lon="2.00218">
        <ele>83.3</ele>
        <time>2022-04-17T10:15:55Z</time>
      </trkpt>
      <trkpt lat="50.03574" lon="2.00218">
        <ele>83.3</ele>
        <time>2022-04-17T10:15:56Z</time>
      </trkpt>
      <trkpt lat="50.03574" lon="2.00218">
        <ele>83.3</ele>
        <time>2022-04-17T10:15:57Z</time>
      </trkpt>
      <trkpt lat="50.03574" lon="2.00218">
        <ele>83.3</ele>
        <time>2022-04-17T10:15:58Z</time>
      </trkpt>
      <trkpt lat="50.03574" lon="2.00218">
        <ele>83.3</ele>
        <time>2022-04-17T10:15:59Z</time>
      </trkpt>
      <trkpt lat="50.03574" lon="2.00218">
        <ele>83.3</ele>
        <time>2022-04-17T10:16:00Z</time>
      </trkpt>
      <trkpt lat="50.03574" lon="2.00218">
        <ele>83.3</ele>
        <time>2022-04-17T10:16:01Z</time>
      </trkpt>
      <trkpt lat="50.03574" lon="2.00218">
        <ele>83.3</ele>
        <time>2022-04-17T10:16:02Z</time>
      </trkpt>
      <trkpt lat="50.03574" lon="2.00218">
        <ele>83.3</ele>
        <time>2022-04-17T10:16:03Z</time>
      </trkpt>
      <trkpt lat="50.03574" lon="2.00218">
        <ele>83.3</ele>
        <time>2022-04-17T10:16:04Z</time>
      </trkpt>
      <trkpt lat="50.03574" lon="2.00218">
        <ele>83.3</ele>
        <time>2022-04-17T10:16:05Z</time>
      </trkpt>
      <trkpt lat="50.03574" lon="2.00218">
        <ele>83.3</ele>
        <time>2022-04-17T10:16:06Z</time>
      </trkpt>
      <trkpt lat="50.03574" lon="2.00218">
        <ele>83.3</ele>
        <time>2022-04-17T10:16:07Z</time>
      </trkpt>
      <trkpt lat="50.03574" lon="2.00218">
        <ele>83.3</ele>
        <time>2022-04-17T10:16:08Z</time>
      </trkpt>
      <trkpt lat="50.03574" lon="2.00218">
        <ele>83.3</ele>
        <time>2022-04-17T10:16:09Z</time>
      </trkpt>
      <trkpt lat="50.03574" lon="2.00218">
        <ele>83.3</ele>
        <time>2022-04-17T10:16:10Z</time>
      </trkpt>
      <trkpt lat="50.03574" lon="2.00218">
        <ele>83.3</ele>
        <time>2022-04-17T10:16:11Z</time>
      </trkpt>
      <trkpt lat="50.03574" lon="2.00218">
        <ele>83.3</ele>
        <time>2022-04-17T10:16:12Z</time>
      </trkpt>
      <trkpt lat="50.03574" lon="2.00218">
        <ele>83.3</ele>
        <time>2022-04-17T10:16:13Z</time>
      </trkpt>
      <trkpt lat="50.03574" lon="2.00218">
        <ele>83.3</ele>
        <time>2022-04-17T10:16:14Z</time>
      </trkpt>
      <trkpt lat="50.03574" lon="2.00218">
        <ele>83.3</ele>
        <time>2022-04-17T10:16:15Z</time>
      </trkpt>
      <trkpt lat="50.03574" lon="2.00218">
        <ele>83.3</ele>
        <time>2022-04-17T10:16:16Z</time>
      </trkpt>
      <trkpt lat="50.03574" lon="2.00218">
        <ele>83.3</ele>
        <time>2022-04-17T10:16:17Z</time>
      </trkpt>
      <trkpt lat="50.03574" lon="2.00218">
        <ele>83.3</ele>
        <time>2022-04-17T10:16:18Z</time>
      </trkpt>
      <trkpt lat="50.03574" lon="2.00218">
        <ele>83.3</ele>
        <time>2022-04-17T10:16:19Z</time>
      </trkpt>
      <trkpt lat="50.03574" lon="2.00218">
        <ele>83.3</ele>
        <time>2022-04-17T10:16:20Z</time>
      </trkpt>
      <trkpt lat="50.03574" lon="2.00218">
        <ele>83.3</ele>
        <time>2022-04-17T10:16:21Z</time>
      </trkpt>
      <trkpt lat="50.03574" lon="2.00218">
        <ele>83.3</ele>
        <time>2022-04-17T10:16:22Z</time>
      </trkpt>
      <trkpt lat="50.03574" lon="2.00218">
        <ele>83.3</ele>
        <time>2022-04-17T10:16:23Z</time>
      </trkpt>
      <trkpt lat="50.03574" lon="2.00218">
        <ele>83.3</ele>
        <time>2022-04-17T10:16:24Z</time>
      </trkpt>
      <trkpt lat="50.03574" lon="2.00218">
        <ele>83.3</ele>
        <time>2022-04-17T10:16:25Z</time>
      </trkpt>
      <trkpt lat="50.03574" lon="2.00218">
        <ele>83.3</ele>
        <time>2022-04-17T10:16:26Z</time>
      </trkpt>
      <trkpt lat="50.03574" lon="2.00218">
        <ele>83.3</ele>
        <time>2022-04-17T10:16:27Z</time>
      </trkpt>
      <trkpt lat="50.03574" lon="2.00218">
        <ele>83.3</ele>
        <time>2022-04-17T10:16:28Z</time>
      </trkpt>
      <trkpt lat="50.03574" lon="2.00218">
        <ele>83.3</ele>
        <time>2022-04-17T10:16:29Z</time>
      </trkpt>
      <trkpt lat="50.03574" lon="2.00218">
        <ele>83.3</ele>
        <time>2022-04-17T10:16:30Z</time>
      </trkpt>
      <trkpt lat="50.03574" lon="2.00218">
        <ele>83.3</ele>
        <time>2022-04-17T10:16:31Z</time>
      </trkpt>
      <trkpt lat="50.03574" lon="2.00218">
        <ele>83.3</ele>
        <time>2022-04-17T10:16:32Z</time>
      </trkpt>
      <trkpt lat="50.03574" lon="2.00218">
        <ele>83.3</ele>
        <time>2022-04-17T10:16:33Z</time>
      </trkpt>
      <trkpt lat="50.03574" lon="2.00218">
        <ele>83.3</ele>
        <time>2022-04-17T10:16:34Z</time>
      </trkpt>
      <trkpt lat="50.03574" lon="2.00218">
        <ele>83.3</ele>
        <time>2022-04-17T10:16:35Z</time>
      </trkpt>
      <trkpt lat="50.03574" lon="2.00218">
        <ele>83.3</ele>
        <time>2022-04-17T10:16:36Z</time>
      </trkpt>
      <trkpt lat="50.03574" lon="2.00218">
        <ele>83.3</ele>
        <time>2022-04-17T10:16:37Z</time>
      </trkpt>
      <trkpt lat="50.03574" lon="2.00218">
        <ele>83.3</ele>
        <time>2022-04-17T10:16:38Z</time>
      </trkpt>
      <trkpt lat="50.03574" lon="2.00218">
        <ele>83.3</ele>
        <time>2022-04-17T10:16:39Z</time>
      </trkpt>
      <trkpt lat="50.03574" lon="2.00218">
        <ele>83.3</ele>
        <time>2022-04-17T10:16:40Z</time>
      </trkpt>
      <trkpt lat="50.03574" lon="2.00218">
        <ele>83.3</ele>
        <time>2022-04-17T10:16:41Z</time>
      </trkpt>
      <trkpt lat="50.03574" lon="2.00218">
        <ele>83.3</ele>
        <time>2022-04-17T10:16:42Z</time>
      </trkpt>
      <trkpt lat="50.03574" lon="2.00218">
        <ele>83.3</ele>
        <time>2022-04-17T10:16:43Z</time>
      </trkpt>
      <trkpt lat="50.03574" lon="2.00218">
        <ele>83.3</ele>
        <time>2022-04-17T10:16:44Z</time>
      </trkpt>
      <trkpt lat="50.03574" lon="2.00218">
        <ele>83.3</ele>
        <time>2022-04-17T10:16:45Z</time>
      </trkpt>
      <trkpt lat="50.03574" lon="2.00218">
        <ele>83.3</ele>
        <time>2022-04-17T10:16:46Z</time>
      </trkpt>
      <trkpt lat="50.03574" lon="2.00218">
        <ele>83.3</ele>
        <time>2022-04-17T10:16:47Z</time>
      </trkpt>
      <trkpt lat="50.03574" lon="2.00218">
        <ele>83.3</ele>
        <time>2022-04-17T10:16:48Z</time>
      </trkpt>
      <trkpt lat="50.03574" lon="2.00218">
        <ele>83.3</ele>
        <time>2022-04-17T10:16:49Z</time>
      </trkpt>
      <trkpt lat="50.03574" lon="2.00218">
        <ele>83.3</ele>
        <time>2022-04-17T10:16:50Z</time>
      </trkpt>
      <trkpt lat="50.03574" lon="2.00218">
        <ele>83.3</ele>
        <time>2022-04-17T10:16:51Z</time>
      </trkpt>
      <trkpt lat="50.03574" lon="2.00218">
        <ele>83.3</ele>
        <time>2022-04-17T10:16:52Z</time>
      </trkpt>
      <trkpt lat="50.03574" lon="2.00218">
        <ele>83.3</ele>
        <time>2022-04-17T10:16:53Z</time>
      </trkpt>
      <trkpt lat="50.03574" lon="2.00218">
        <ele>83.3</ele>
        <time>2022-04-17T10:16:54Z</time>
      </trkpt>
      <trkpt lat="50.03574" lon="2.00218">
        <ele>83.3</ele>
        <time>2022-04-17T10:16:55Z</time>
      </trkpt>
      <trkpt lat="50.03574" lon="2.00218">
        <ele>83.3</ele>
        <time>2022-04-17T10:16:56Z</time>
      </trkpt>
      <trkpt lat="50.03574" lon="2.00218">
        <ele>83.3</ele>
        <time>2022-04-17T10:16:57Z</time>
      </trkpt>
      <trkpt lat="50.03574" lon="2.00218">
        <ele>83.3</ele>
        <time>2022-04-17T10:16:58Z</time>
      </trkpt>
      <trkpt lat="50.03574" lon="2.00218">
        <ele>83.3</ele>
        <time>2022-04-17T10:16:59Z</time>
      </trkpt>
      <trkpt lat="50.03574" lon="2.00218">
        <ele>83.3</ele>
        <time>2022-04-17T10:17:00Z</time>
      </trkpt>
      <trkpt lat="50.03574" lon="2.00218">
        <ele>83.3</ele>
        <time>2022-04-17T10:17:01Z</time>
      </trkpt>
      <trkpt lat="50.03574" lon="2.00218">
        <ele>83.3</ele>
        <time>2022-04-17T10:17:02Z</time>
      </trkpt>
      <trkpt lat="50.03574" lon="2.00218">
        <ele>83.3</ele>
        <time>2022-04-17T10:17:03Z</time>
      </trkpt>
      <trkpt lat="50.03574" lon="2.00218">
        <ele>83.3</ele>
        <time>2022-04-17T10:17:04Z</time>
      </trkpt>
      <trkpt lat="50.03574" lon="2.00218">
        <ele>83.3</ele>
        <time>2022-04-17T10:17:05Z</time>
      </trkpt>
      <trkpt lat="50.03574" lon="2.00218">
        <ele>83.3</ele>
        <time>2022-04-17T10:17:06Z</time>
      </trkpt>
      <trkpt lat="50.03574" lon="2.00218">
        <ele>83.3</ele>
        <time>2022-04-17T10:17:07Z</time>
      </trkpt>
      <trkpt lat="50.03574" lon="2.00218">
        <ele>83.3</ele>
        <time>2022-04-17T10:17:08Z</time>
      </trkpt>
      <trkpt lat="50.03574" lon="2.00218">
        <ele>83.3</ele>
        <time>2022-04-17T10:17:09Z</time>
      </trkpt>
      <trkpt lat="50.03574" lon="2.00218">
        <ele>83.3</ele>
        <time>2022-04-17T10:17:10Z</time>
      </trkpt>
      <trkpt lat="50.03574" lon="2.00218">
        <ele>83.3</ele>
        <time>2022-04-17T10:17:11Z</time>
      </trkpt>
      <trkpt lat="50.03574" lon="2.00218">
        <ele>83.3</ele>
        <time>2022-04-17T10:17:12Z</time>
      </trkpt>
      <trkpt lat="50.03574" lon="2.00218">
        <ele>83.3</ele>
        <time>2022-04-17T10:17:13Z</time>
      </trkpt>
      <trkpt lat="50.03574" lon="2.00218">
        <ele>83.3</ele>
        <time>2022-04-17T10:17:14Z</time>
      </trkpt>
      <trkpt lat="50.03574" lon="2.00218">
        <ele>83.3</ele>
        <time>2022-04-17T10:17:15Z</time>
      </trkpt>
      <trkpt lat="50.03574" lon="2.00218">
        <ele>83.3</ele>
        <time>2022-04-17T10:17:16Z</time>
      </trkpt>
      <trkpt lat="50.03574" lon="2.00218">
        <ele>83.3</ele>
        <time>2022-04-17T10:17:17Z</time>
      </trkpt>
      <trkpt lat="50.03574" lon="2.00218">
        <ele>83.3</ele>
        <time>2022-04-17T10:17:18Z</time>
      </trkpt>
      <trkpt lat="50.03574" lon="2.00218">
        <ele>83.3</ele>
        <time>2022-04-17T10:17:19Z</time>
      </trkpt>
      <trkpt lat="50.03574" lon="2.00218">
        <ele>83.3</ele>
        <time>2022-04-17T10:17:20Z</time>
      </trkpt>
      <trkpt lat="50.03574" lon="2.00218">
        <ele>83.3</ele>
        <time>2022-04-17T10:17:21Z</time>
      </trkpt>
      <trkpt lat="50.03574" lon="2.00218">
        <ele>83.3</ele>
        <time>2022-04-17T10:17:22Z</time>
      </trkpt>
      <trkpt lat="50.03574" lon="2.00218">
        <ele>83.3</ele>
        <time>2022-04-17T10:17:23Z</time>
      </trkpt>
      <trkpt lat="50.03574" lon="2.00218">
        <ele>83.3</ele>
        <time>2022-04-17T10:17:24Z</time>
      </trkpt>
      <trkpt lat="50.03574" lon="2.00218">
        <ele>83.3</ele>
        <time>2022-04-17T10:17:25Z</time>
      </trkpt>
      <trkpt lat="50.03574" lon="2.00218">
        <ele>83.3</ele>
        <time>2022-04-17T10:17:26Z</time>
      </trkpt>
      <trkpt lat="50.03574" lon="2.00218">
        <ele>83.3</ele>
        <time>2022-04-17T10:17:27Z</time>
      </trkpt>
      <trkpt lat="50.03574" lon="2.00218">
        <ele>83.3</ele>
        <time>2022-04-17T10:17:28Z</time>
      </trkpt>
      <trkpt lat="50.03574" lon="2.00218">
        <ele>83.3</ele>
        <time>2022-04-17T10:17:29Z</time>
      </trkpt>
      <trkpt lat="50.03574" lon="2.00218">
        <ele>83.3</ele>
        <time>2022-04-17T10:17:30Z</time>
      </trkpt>
      <trkpt lat="50.03574" lon="2.00218">
        <ele>83.3</ele>
        <time>2022-04-17T10:17:31Z</time>
      </trkpt>
      <trkpt lat="50.03574" lon="2.00218">
        <ele>83.3</ele>
        <time>2022-04-17T10:17:32Z</time>
      </trkpt>
      <trkpt lat="50.03574" lon="2.00218">
        <ele>83.3</ele>
        <time>2022-04-17T10:17:33Z</time>
      </trkpt>
      <trkpt lat="50.03574" lon="2.00218">
        <ele>83.3</ele>
        <time>2022-04-17T10:17:34Z</time>
      </trkpt>
      <trkpt lat="50.03574" lon="2.00218">
        <ele>83.3</ele>
        <time>2022-04-17T10:17:35Z</time>
      </trkpt>
      <trkpt lat="50.03574" lon="2.00218">
        <ele>83.3</ele>
        <time>2022-04-17T10:17:36Z</time>
      </trkpt>
      <trkpt lat="50.03574" lon="2.00218">
        <ele>83.3</ele>
        <time>2022-04-17T10:17:37Z</time>
      </trkpt>
      <trkpt lat="50.03574" lon="2.00218">
        <ele>83.3</ele>
        <time>2022-04-17T10:17:38Z</time>
      </trkpt>
      <trkpt lat="50.03574" lon="2.00218">
        <ele>83.3</ele>
        <time>2022-04-17T10:17:39Z</time>
      </trkpt>
      <trkpt lat="50.03574" lon="2.00218">
        <ele>83.3</ele>
        <time>2022-04-17T10:17:40Z</time>
      </trkpt>
      <trkpt lat="50.03574" lon="2.00218">
        <ele>83.3</ele>
        <time>2022-04-17T10:17:41Z</time>
      </trkpt>
      <trkpt lat="50.03574" lon="2.00218">
        <ele>83.3</ele>
        <time>2022-04-17T10:17:42Z</time>
      </trkpt>
      <trkpt lat="50.03574" lon="2.00218">
        <ele>83.3</ele>
        <time>2022-04-17T10:17:43Z</time>
      </trkpt>
      <trkpt lat="50.03574" lon="2.00218">
        <ele>83.3</ele>
        <time>2022-04-17T10:17:44Z</time>
      </trkpt>
      <trkpt lat="50.03574" lon="2.00218">
        <ele>83.3</ele>
        <time>2022-04-17T10:17:45Z</time>
      </trkpt>
      <trkpt lat="50.03574" lon="2.00218">
        <ele>83.3</ele>
        <time>2022-04-17T10:17:46Z</time>
      </trkpt>
      <trkpt lat="50.03574" lon="2.00218">
        <ele>83.3</ele>
        <time>2022-04-17T10:17:47Z</time>
      </trkpt>
      <trkpt lat="50.03574" lon="2.00218">
        <ele>83.3</ele>
        <time>2022-04-17T10:17:48Z</time>
      </trkpt>
      <trkpt lat="50.03574" lon="2.00218">
        <ele>83.3</ele>
        <time>2022-04-17T10:17:50Z</time>
      </trkpt>
      <trkpt lat="50.03574" lon="2.00218">
        <ele>83.3</ele>
        <time>2022-04-17T10:17:51Z</time>
      </trkpt>
      <trkpt lat="50.03574" lon="2.00218">
        <ele>83.3</ele>
        <time>2022-04-17T10:17:52Z</time>
      </trkpt>
      <trkpt lat="50.03574" lon="2.00218">
        <ele>83.3</ele>
        <time>2022-04-17T10:17:53Z</time>
      </trkpt>
      <trkpt lat="50.03574" lon="2.00218">
        <ele>83.3</ele>
        <time>2022-04-17T10:17:54Z</time>
      </trkpt>
      <trkpt lat="50.03574" lon="2.00218">
        <ele>83.3</ele>
        <time>2022-04-17T10:17:55Z</time>
      </trkpt>
      <trkpt lat="50.03574" lon="2.00218">
        <ele>83.3</ele>
        <time>2022-04-17T10:17:57Z</time>
      </trkpt>
      <trkpt lat="50.03574" lon="2.00218">
        <ele>83.3</ele>
        <time>2022-04-17T10:17:58Z</time>
      </trkpt>
      <trkpt lat="50.03574" lon="2.00218">
        <ele>83.3</ele>
        <time>2022-04-17T10:17:59Z</time>
      </trkpt>
      <trkpt lat="50.03574" lon="2.00218">
        <ele>83.3</ele>
        <time>2022-04-17T10:18:00Z</time>
      </trkpt>
      <trkpt lat="50.03574" lon="2.00218">
        <ele>83.3</ele>
        <time>2022-04-17T10:18:01Z</time>
      </trkpt>
      <trkpt lat="50.03574" lon="2.00218">
        <ele>83.3</ele>
        <time>2022-04-17T10:18:02Z</time>
      </trkpt>
      <trkpt lat="50.03574" lon="2.00218">
        <ele>83.3</ele>
        <time>2022-04-17T10:18:03Z</time>
      </trkpt>
      <trkpt lat="50.03574" lon="2.00218">
        <ele>83.3</ele>
        <time>2022-04-17T10:18:04Z</time>
      </trkpt>
      <trkpt lat="50.03574" lon="2.00218">
        <ele>83.3</ele>
        <time>2022-04-17T10:18:05Z</time>
      </trkpt>
      <trkpt lat="50.03574" lon="2.00218">
        <ele>83.3</ele>
        <time>2022-04-17T10:18:06Z</time>
      </trkpt>
      <trkpt lat="50.03574" lon="2.00218">
        <ele>83.3</ele>
        <time>2022-04-17T10:18:07Z</time>
      </trkpt>
      <trkpt lat="50.03574" lon="2.00218">
        <ele>83.3</ele>
        <time>2022-04-17T10:18:08Z</time>
      </trkpt>
      <trkpt lat="50.03574" lon="2.00218">
        <ele>83.3</ele>
        <time>2022-04-17T10:18:09Z</time>
      </trkpt>
      <trkpt lat="50.03574" lon="2.00218">
        <ele>83.3</ele>
        <time>2022-04-17T10:18:10Z</time>
      </trkpt>
      <trkpt lat="50.03574" lon="2.00218">
        <ele>83.3</ele>
        <time>2022-04-17T10:18:11Z</time>
      </trkpt>
      <trkpt lat="50.03574" lon="2.00218">
        <ele>83.3</ele>
        <time>2022-04-17T10:18:12Z</time>
      </trkpt>
      <trkpt lat="50.03574" lon="2.00218">
        <ele>83.3</ele>
        <time>2022-04-17T10:18:13Z</time>
      </trkpt>
      <trkpt lat="50.03574" lon="2.00218">
        <ele>83.3</ele>
        <time>2022-04-17T10:18:14Z</time>
      </trkpt>
      <trkpt lat="50.03574" lon="2.00218">
        <ele>83.3</ele>
        <time>2022-04-17T10:18:15Z</time>
      </trkpt>
      <trkpt lat="50.03574" lon="2.00218">
        <ele>83.3</ele>
        <time>2022-04-17T10:18:16Z</time>
      </trkpt>
      <trkpt lat="50.03574" lon="2.00218">
        <ele>83.3</ele>
        <time>2022-04-17T10:18:17Z</time>
      </trkpt>
      <trkpt lat="50.03574" lon="2.00218">
        <ele>83.3</ele>
        <time>2022-04-17T10:18:18Z</time>
      </trkpt>
      <trkpt lat="50.03574" lon="2.00218">
        <ele>83.3</ele>
        <time>2022-04-17T10:18:19Z</time>
      </trkpt>
      <trkpt lat="50.03574" lon="2.00218">
        <ele>83.3</ele>
        <time>2022-04-17T10:18:20Z</time>
      </trkpt>
      <trkpt lat="50.03574" lon="2.00218">
        <ele>83.3</ele>
        <time>2022-04-17T10:18:21Z</time>
      </trkpt>
      <trkpt lat="50.03574" lon="2.00218">
        <ele>83.3</ele>
        <time>2022-04-17T10:18:22Z</time>
      </trkpt>
      <trkpt lat="50.03574" lon="2.00218">
        <ele>83.3</ele>
        <time>2022-04-17T10:18:23Z</time>
      </trkpt>
      <trkpt lat="50.03574" lon="2.00218">
        <ele>83.3</ele>
        <time>2022-04-17T10:18:24Z</time>
      </trkpt>
      <trkpt lat="50.03574" lon="2.00218">
        <ele>83.3</ele>
        <time>2022-04-17T10:18:25Z</time>
      </trkpt>
      <trkpt lat="50.03574" lon="2.00218">
        <ele>83.3</ele>
        <time>2022-04-17T10:18:26Z</time>
      </trkpt>
      <trkpt lat="50.03574" lon="2.00218">
        <ele>83.3</ele>
        <time>2022-04-17T10:18:27Z</time>
      </trkpt>
      <trkpt lat="50.03574" lon="2.00218">
        <ele>83.3</ele>
        <time>2022-04-17T10:18:28Z</time>
      </trkpt>
      <trkpt lat="50.03574" lon="2.00218">
        <ele>83.3</ele>
        <time>2022-04-17T10:18:29Z</time>
      </trkpt>
      <trkpt lat="50.03574" lon="2.00218">
        <ele>83.3</ele>
        <time>2022-04-17T10:18:30Z</time>
      </trkpt>
      <trkpt lat="50.03574" lon="2.00218">
        <ele>83.3</ele>
        <time>2022-04-17T10:18:31Z</time>
      </trkpt>
      <trkpt lat="50.03574" lon="2.00218">
        <ele>83.3</ele>
        <time>2022-04-17T10:18:32Z</time>
      </trkpt>
      <trkpt lat="50.03574" lon="2.00218">
        <ele>83.3</ele>
        <time>2022-04-17T10:18:33Z</time>
      </trkpt>
      <trkpt lat="50.03574" lon="2.00218">
        <ele>83.3</ele>
        <time>2022-04-17T10:18:34Z</time>
      </trkpt>
      <trkpt lat="50.03574" lon="2.00218">
        <ele>83.3</ele>
        <time>2022-04-17T10:18:35Z</time>
      </trkpt>
      <trkpt lat="50.03574" lon="2.00218">
        <ele>83.3</ele>
        <time>2022-04-17T10:18:36Z</time>
      </trkpt>
      <trkpt lat="50.03574" lon="2.00218">
        <ele>83.3</ele>
        <time>2022-04-17T10:18:37Z</time>
      </trkpt>
      <trkpt lat="50.03574" lon="2.00218">
        <ele>83.3</ele>
        <time>2022-04-17T10:18:38Z</time>
      </trkpt>
      <trkpt lat="50.03574" lon="2.00218">
        <ele>83.3</ele>
        <time>2022-04-17T10:18:39Z</time>
      </trkpt>
      <trkpt lat="50.03574" lon="2.00218">
        <ele>83.3</ele>
        <time>2022-04-17T10:18:40Z</time>
      </trkpt>
      <trkpt lat="50.03574" lon="2.00218">
        <ele>83.3</ele>
        <time>2022-04-17T10:18:41Z</time>
      </trkpt>
      <trkpt lat="50.03574" lon="2.00218">
        <ele>83.3</ele>
        <time>2022-04-17T10:18:42Z</time>
      </trkpt>
      <trkpt lat="50.03574" lon="2.00218">
        <ele>83.3</ele>
        <time>2022-04-17T10:18:43Z</time>
      </trkpt>
      <trkpt lat="50.03574" lon="2.00218">
        <ele>83.3</ele>
        <time>2022-04-17T10:18:44Z</time>
      </trkpt>
      <trkpt lat="50.03574" lon="2.00218">
        <ele>83.3</ele>
        <time>2022-04-17T10:18:45Z</time>
      </trkpt>
      <trkpt lat="50.03574" lon="2.00218">
        <ele>83.3</ele>
        <time>2022-04-17T10:18:46Z</time>
      </trkpt>
      <trkpt lat="50.03574" lon="2.00218">
        <ele>83.3</ele>
        <time>2022-04-17T10:18:47Z</time>
      </trkpt>
      <trkpt lat="50.03574" lon="2.00218">
        <ele>83.3</ele>
        <time>2022-04-17T10:18:48Z</time>
      </trkpt>
      <trkpt lat="50.03574" lon="2.00218">
        <ele>83.3</ele>
        <time>2022-04-17T10:18:49Z</time>
      </trkpt>
      <trkpt lat="50.03574" lon="2.00218">
        <ele>83.3</ele>
        <time>2022-04-17T10:18:50Z</time>
      </trkpt>
      <trkpt lat="50.03574" lon="2.00218">
        <ele>83.3</ele>
        <time>2022-04-17T10:18:51Z</time>
      </trkpt>
      <trkpt lat="50.03574" lon="2.00218">
        <ele>83.3</ele>
        <time>2022-04-17T10:18:52Z</time>
      </trkpt>
      <trkpt lat="50.03574" lon="2.00218">
        <ele>83.3</ele>
        <time>2022-04-17T10:18:53Z</time>
      </trkpt>
      <trkpt lat="50.03574" lon="2.00218">
        <ele>83.3</ele>
        <time>2022-04-17T10:18:54Z</time>
      </trkpt>
      <trkpt lat="50.03574" lon="2.00218">
        <ele>83.3</ele>
        <time>2022-04-17T10:18:55Z</time>
      </trkpt>
      <trkpt lat="50.03574" lon="2.00218">
        <ele>83.3</ele>
        <time>2022-04-17T10:18:56Z</time>
      </trkpt>
      <trkpt lat="50.03574" lon="2.00218">
        <ele>83.3</ele>
        <time>2022-04-17T10:18:57Z</time>
      </trkpt>
      <trkpt lat="50.03574" lon="2.00218">
        <ele>83.3</ele>
        <time>2022-04-17T10:18:58Z</time>
      </trkpt>
      <trkpt lat="50.03574" lon="2.00218">
        <ele>83.3</ele>
        <time>2022-04-17T10:18:59Z</time>
      </trkpt>
      <trkpt lat="50.03574" lon="2.00218">
        <ele>83.3</ele>
        <time>2022-04-17T10:19:00Z</time>
      </trkpt>
      <trkpt lat="50.03574" lon="2.00218">
        <ele>83.3</ele>
        <time>2022-04-17T10:19:01Z</time>
      </trkpt>
      <trkpt lat="50.03574" lon="2.00218">
        <ele>83.3</ele>
        <time>2022-04-17T10:19:02Z</time>
      </trkpt>
      <trkpt lat="50.03574" lon="2.00218">
        <ele>83.3</ele>
        <time>2022-04-17T10:19:03Z</time>
      </trkpt>
      <trkpt lat="50.03574" lon="2.00218">
        <ele>83.3</ele>
        <time>2022-04-17T10:19:04Z</time>
      </trkpt>
      <trkpt lat="50.03574" lon="2.00218">
        <ele>83.3</ele>
        <time>2022-04-17T10:19:05Z</time>
      </trkpt>
      <trkpt lat="50.03574" lon="2.00218">
        <ele>83.3</ele>
        <time>2022-04-17T10:19:06Z</time>
      </trkpt>
      <trkpt lat="50.03574" lon="2.00218">
        <ele>83.3</ele>
        <time>2022-04-17T10:19:07Z</time>
      </trkpt>
      <trkpt lat="50.03574" lon="2.00218">
        <ele>83.3</ele>
        <time>2022-04-17T10:19:08Z</time>
      </trkpt>
      <trkpt lat="50.03574" lon="2.00218">
        <ele>83.3</ele>
        <time>2022-04-17T10:19:09Z</time>
      </trkpt>
      <trkpt lat="50.03574" lon="2.00218">
        <ele>83.3</ele>
        <time>2022-04-17T10:19:11Z</time>
      </trkpt>
      <trkpt lat="50.03574" lon="2.00218">
        <ele>83.3</ele>
        <time>2022-04-17T10:19:12Z</time>
      </trkpt>
      <trkpt lat="50.03574" lon="2.00218">
        <ele>83.3</ele>
        <time>2022-04-17T10:19:13Z</time>
      </trkpt>
      <trkpt lat="50.03574" lon="2.00218">
        <ele>83.3</ele>
        <time>2022-04-17T10:19:14Z</time>
      </trkpt>
      <trkpt lat="50.03574" lon="2.00218">
        <ele>83.3</ele>
        <time>2022-04-17T10:19:15Z</time>
      </trkpt>
      <trkpt lat="50.03574" lon="2.00218">
        <ele>83.3</ele>
        <time>2022-04-17T10:19:16Z</time>
      </trkpt>
      <trkpt lat="50.03574" lon="2.00218">
        <ele>83.3</ele>
        <time>2022-04-17T10:19:17Z</time>
      </trkpt>
      <trkpt lat="50.03574" lon="2.00218">
        <ele>83.3</ele>
        <time>2022-04-17T10:19:18Z</time>
      </trkpt>
      <trkpt lat="50.03574" lon="2.00218">
        <ele>83.3</ele>
        <time>2022-04-17T10:19:19Z</time>
      </trkpt>
      <trkpt lat="50.03574" lon="2.00218">
        <ele>83.3</ele>
        <time>2022-04-17T10:19:20Z</time>
      </trkpt>
      <trkpt lat="50.03574" lon="2.00218">
        <ele>83.3</ele>
        <time>2022-04-17T10:19:21Z</time>
      </trkpt>
      <trkpt lat="50.03574" lon="2.00218">
        <ele>83.3</ele>
        <time>2022-04-17T10:19:22Z</time>
      </trkpt>
      <trkpt lat="50.03574" lon="2.00218">
        <ele>83.3</ele>
        <time>2022-04-17T10:19:23Z</time>
      </trkpt>
      <trkpt lat="50.03574" lon="2.00218">
        <ele>83.3</ele>
        <time>2022-04-17T10:19:24Z</time>
      </trkpt>
      <trkpt lat="50.03574" lon="2.00218">
        <ele>83.3</ele>
        <time>2022-04-17T10:19:25Z</time>
      </trkpt>
      <trkpt lat="50.03574" lon="2.00218">
        <ele>83.3</ele>
        <time>2022-04-17T10:19:26Z</time>
      </trkpt>
      <trkpt lat="50.03574" lon="2.00218">
        <ele>83.3</ele>
        <time>2022-04-17T10:19:27Z</time>
      </trkpt>
      <trkpt lat="50.03574" lon="2.00218">
        <ele>83.3</ele>
        <time>2022-04-17T10:19:28Z</time>
      </trkpt>
      <trkpt lat="50.03574" lon="2.00218">
        <ele>83.3</ele>
        <time>2022-04-17T10:19:29Z</time>
      </trkpt>
      <trkpt lat="50.03574" lon="2.00218">
        <ele>83.3</ele>
        <time>2022-04-17T10:19:30Z</time>
      </trkpt>
      <trkpt lat="50.03574" lon="2.00218">
        <ele>83.3</ele>
        <time>2022-04-17T10:19:31Z</time>
      </trkpt>
      <trkpt lat="50.03574" lon="2.00218">
        <ele>83.3</ele>
        <time>2022-04-17T10:19:32Z</time>
      </trkpt>
      <trkpt lat="50.03574" lon="2.00218">
        <ele>83.3</ele>
        <time>2022-04-17T10:19:33Z</time>
      </trkpt>
      <trkpt lat="50.03574" lon="2.00218">
        <ele>83.3</ele>
        <time>2022-04-17T10:19:34Z</time>
      </trkpt>
      <trkpt lat="50.03574" lon="2.00218">
        <ele>83.3</ele>
        <time>2022-04-17T10:19:35Z</time>
      </trkpt>
      <trkpt lat="50.03574" lon="2.00218">
        <ele>83.3</ele>
        <time>2022-04-17T10:19:36Z</time>
      </trkpt>
      <trkpt lat="50.03574" lon="2.00218">
        <ele>83.3</ele>
        <time>2022-04-17T10:19:37Z</time>
      </trkpt>
      <trkpt lat="50.03574" lon="2.00218">
        <ele>83.3</ele>
        <time>2022-04-17T10:19:38Z</time>
      </trkpt>
      <trkpt lat="50.03574" lon="2.00218">
        <ele>83.3</ele>
        <time>2022-04-17T10:19:39Z</time>
      </trkpt>
      <trkpt lat="50.03574" lon="2.00218">
        <ele>83.3</ele>
        <time>2022-04-17T10:19:40Z</time>
      </trkpt>
      <trkpt lat="50.03574" lon="2.00218">
        <ele>83.3</ele>
        <time>2022-04-17T10:19:41Z</time>
      </trkpt>
      <trkpt lat="50.03574" lon="2.00218">
        <ele>83.3</ele>
        <time>2022-04-17T10:19:42Z</time>
      </trkpt>
      <trkpt lat="50.03574" lon="2.00218">
        <ele>83.3</ele>
        <time>2022-04-17T10:19:43Z</time>
      </trkpt>
      <trkpt lat="50.03574" lon="2.00218">
        <ele>83.3</ele>
        <time>2022-04-17T10:19:45Z</time>
      </trkpt>
      <trkpt lat="50.03574" lon="2.00218">
        <ele>83.3</ele>
        <time>2022-04-17T10:19:47Z</time>
      </trkpt>
      <trkpt lat="50.03574" lon="2.00218">
        <ele>83.3</ele>
        <time>2022-04-17T10:19:48Z</time>
      </trkpt>
      <trkpt lat="50.03574" lon="2.00218">
        <ele>83.3</ele>
        <time>2022-04-17T10:19:49Z</time>
      </trkpt>
      <trkpt lat="50.03574" lon="2.00218">
        <ele>83.3</ele>
        <time>2022-04-17T10:19:50Z</time>
      </trkpt>
      <trkpt lat="50.03574" lon="2.00218">
        <ele>83.3</ele>
        <time>2022-04-17T10:19:51Z</time>
      </trkpt>
      <trkpt lat="50.03574" lon="2.00218">
        <ele>83.3</ele>
        <time>2022-04-17T10:19:52Z</time>
      </trkpt>
      <trkpt lat="50.03574" lon="2.00218">
        <ele>83.3</ele>
        <time>2022-04-17T10:19:53Z</time>
      </trkpt>
      <trkpt lat="50.03574" lon="2.00218">
        <ele>83.3</ele>
        <time>2022-04-17T10:19:54Z</time>
      </trkpt>
      <trkpt lat="50.03574" lon="2.00218">
        <ele>83.3</ele>
        <time>2022-04-17T10:19:55Z</time>
      </trkpt>
      <trkpt lat="50.03574" lon="2.00218">
        <ele>83.3</ele>
        <time>2022-04-17T10:19:56Z</time>
      </trkpt>
      <trkpt lat="50.03574" lon="2.00218">
        <ele>83.3</ele>
        <time>2022-04-17T10:19:57Z</time>
      </trkpt>
      <trkpt lat="50.03574" lon="2.00218">
        <ele>83.3</ele>
        <time>2022-04-17T10:19:58Z</time>
      </trkpt>
      <trkpt lat="50.03574" lon="2.00218">
        <ele>83.3</ele>
        <time>2022-04-17T10:19:59Z</time>
      </trkpt>
      <trkpt lat="50.03574" lon="2.00218">
        <ele>83.3</ele>
        <time>2022-04-17T10:20:00Z</time>
      </trkpt>
      <trkpt lat="50.03574" lon="2.00218">
        <ele>83.3</ele>
        <time>2022-04-17T10:20:01Z</time>
      </trkpt>
      <trkpt lat="50.03574" lon="2.00218">
        <ele>83.3</ele>
        <time>2022-04-17T10:20:02Z</time>
      </trkpt>
      <trkpt lat="50.03574" lon="2.00218">
        <ele>83.3</ele>
        <time>2022-04-17T10:20:03Z</time>
      </trkpt>
      <trkpt lat="50.03574" lon="2.00218">
        <ele>83.3</ele>
        <time>2022-04-17T10:20:04Z</time>
      </trkpt>
      <trkpt lat="50.03574" lon="2.00218">
        <ele>83.3</ele>
        <time>2022-04-17T10:20:05Z</time>
      </trkpt>
      <trkpt lat="50.03574" lon="2.00218">
        <ele>83.3</ele>
        <time>2022-04-17T10:20:06Z</time>
      </trkpt>
      <trkpt lat="50.03574" lon="2.00218">
        <ele>83.3</ele>
        <time>2022-04-17T10:20:07Z</time>
      </trkpt>
      <trkpt lat="50.03574" lon="2.00218">
        <ele>83.3</ele>
        <time>2022-04-17T10:20:08Z</time>
      </trkpt>
      <trkpt lat="50.03574" lon="2.00218">
        <ele>83.3</ele>
        <time>2022-04-17T10:20:09Z</time>
      </trkpt>
      <trkpt lat="50.03574" lon="2.00218">
        <ele>83.3</ele>
        <time>2022-04-17T10:20:10Z</time>
      </trkpt>
      <trkpt lat="50.03574" lon="2.00218">
        <ele>83.3</ele>
        <time>2022-04-17T10:20:11Z</time>
      </trkpt>
      <trkpt lat="50.03574" lon="2.00218">
        <ele>83.3</ele>
        <time>2022-04-17T10:20:12Z</time>
      </trkpt>
      <trkpt lat="50.03574" lon="2.00218">
        <ele>83.3</ele>
        <time>2022-04-17T10:20:13Z</time>
      </trkpt>
      <trkpt lat="50.03574" lon="2.00218">
        <ele>83.3</ele>
        <time>2022-04-17T10:20:14Z</time>
      </trkpt>
      <trkpt lat="50.03574" lon="2.00218">
        <ele>83.3</ele>
        <time>2022-04-17T10:20:15Z</time>
      </trkpt>
      <trkpt lat="50.03574" lon="2.00218">
        <ele>83.3</ele>
        <time>2022-04-17T10:20:16Z</time>
      </trkpt>
      <trkpt lat="50.03574" lon="2.00218">
        <ele>83.3</ele>
        <time>2022-04-17T10:20:17Z</time>
      </trkpt>
      <trkpt lat="50.03574" lon="2.00218">
        <ele>83.3</ele>
        <time>2022-04-17T10:20:18Z</time>
      </trkpt>
      <trkpt lat="50.03574" lon="2.00218">
        <ele>83.3</ele>
        <time>2022-04-17T10:20:19Z</time>
      </trkpt>
      <trkpt lat="50.03574" lon="2.00218">
        <ele>83.3</ele>
        <time>2022-04-17T10:20:20Z</time>
      </trkpt>
      <trkpt lat="50.03574" lon="2.00218">
        <ele>83.3</ele>
        <time>2022-04-17T10:20:21Z</time>
      </trkpt>
      <trkpt lat="50.03574" lon="2.00218">
        <ele>83.3</ele>
        <time>2022-04-17T10:20:22Z</time>
      </trkpt>
      <trkpt lat="50.03574" lon="2.00218">
        <ele>83.3</ele>
        <time>2022-04-17T10:20:23Z</time>
      </trkpt>
      <trkpt lat="50.03574" lon="2.00218">
        <ele>83.3</ele>
        <time>2022-04-17T10:20:24Z</time>
      </trkpt>
      <trkpt lat="50.03574" lon="2.00218">
        <ele>83.3</ele>
        <time>2022-04-17T10:20:25Z</time>
      </trkpt>
      <trkpt lat="50.03574" lon="2.00218">
        <ele>83.3</ele>
        <time>2022-04-17T10:20:26Z</time>
      </trkpt>
      <trkpt lat="50.03574" lon="2.00218">
        <ele>83.3</ele>
        <time>2022-04-17T10:20:27Z</time>
      </trkpt>
      <trkpt lat="50.03574" lon="2.00218">
        <ele>83.3</ele>
        <time>2022-04-17T10:20:28Z</time>
      </trkpt>
      <trkpt lat="50.03574" lon="2.00218">
        <ele>83.3</ele>
        <time>2022-04-17T10:20:29Z</time>
      </trkpt>
      <trkpt lat="50.03574" lon="2.00218">
        <ele>83.3</ele>
        <time>2022-04-17T10:20:30Z</time>
      </trkpt>
      <trkpt lat="50.03574" lon="2.00218">
        <ele>83.3</ele>
        <time>2022-04-17T10:20:31Z</time>
      </trkpt>
      <trkpt lat="50.03574" lon="2.00218">
        <ele>83.3</ele>
        <time>2022-04-17T10:20:32Z</time>
      </trkpt>
      <trkpt lat="50.03574" lon="2.00218">
        <ele>83.3</ele>
        <time>2022-04-17T10:20:33Z</time>
      </trkpt>
      <trkpt lat="50.03574" lon="2.00218">
        <ele>83.3</ele>
        <time>2022-04-17T10:20:34Z</time>
      </trkpt>
      <trkpt lat="50.03574" lon="2.00218">
        <ele>83.3</ele>
        <time>2022-04-17T10:20:35Z</time>
      </trkpt>
      <trkpt lat="50.03574" lon="2.00218">
        <ele>83.3</ele>
        <time>2022-04-17T10:20:36Z</time>
      </trkpt>
      <trkpt lat="50.03574" lon="2.00218">
        <ele>83.3</ele>
        <time>2022-04-17T10:20:37Z</time>
      </trkpt>
      <trkpt lat="50.03574" lon="2.00218">
        <ele>83.3</ele>
        <time>2022-04-17T10:20:38Z</time>
      </trkpt>
      <trkpt lat="50.03574" lon="2.00218">
        <ele>83.3</ele>
        <time>2022-04-17T10:20:39Z</time>
      </trkpt>
      <trkpt lat="50.03574" lon="2.00218">
        <ele>83.3</ele>
        <time>2022-04-17T10:20:40Z</time>
      </trkpt>
      <trkpt lat="50.03574" lon="2.00218">
        <ele>83.3</ele>
        <time>2022-04-17T10:20:41Z</time>
      </trkpt>
      <trkpt lat="50.03574" lon="2.00218">
        <ele>83.3</ele>
        <time>2022-04-17T10:20:42Z</time>
      </trkpt>
      <trkpt lat="50.03574" lon="2.00218">
        <ele>83.3</ele>
        <time>2022-04-17T10:20:43Z</time>
      </trkpt>
      <trkpt lat="50.03574" lon="2.00218">
        <ele>83.3</ele>
        <time>2022-04-17T10:20:44Z</time>
      </trkpt>
      <trkpt lat="50.03574" lon="2.00218">
        <ele>83.3</ele>
        <time>2022-04-17T10:20:45Z</time>
      </trkpt>
      <trkpt lat="50.03574" lon="2.00218">
        <ele>83.3</ele>
        <time>2022-04-17T10:20:46Z</time>
      </trkpt>
      <trkpt lat="50.03574" lon="2.00218">
        <ele>83.3</ele>
        <time>2022-04-17T10:20:47Z</time>
      </trkpt>
      <trkpt lat="50.03574" lon="2.00218">
        <ele>83.3</ele>
        <time>2022-04-17T10:20:48Z</time>
      </trkpt>
      <trkpt lat="50.03574" lon="2.00218">
        <ele>83.3</ele>
        <time>2022-04-17T10:20:49Z</time>
      </trkpt>
      <trkpt lat="50.03574" lon="2.00218">
        <ele>83.3</ele>
        <time>2022-04-17T10:20:50Z</time>
      </trkpt>
      <trkpt lat="50.03574" lon="2.00218">
        <ele>83.3</ele>
        <time>2022-04-17T10:20:51Z</time>
      </trkpt>
      <trkpt lat="50.03574" lon="2.00218">
        <ele>83.3</ele>
        <time>2022-04-17T10:20:52Z</time>
      </trkpt>
      <trkpt lat="50.03574" lon="2.00218">
        <ele>83.3</ele>
        <time>2022-04-17T10:20:53Z</time>
      </trkpt>
      <trkpt lat="50.03574" lon="2.00218">
        <ele>83.3</ele>
        <time>2022-04-17T10:20:54Z</time>
      </trkpt>
      <trkpt lat="50.03574" lon="2.00218">
        <ele>83.3</ele>
        <time>2022-04-17T10:20:55Z</time>
      </trkpt>
      <trkpt lat="50.03574" lon="2.00218">
        <ele>83.3</ele>
        <time>2022-04-17T10:20:56Z</time>
      </trkpt>
      <trkpt lat="50.03574" lon="2.00218">
        <ele>83.3</ele>
        <time>2022-04-17T10:20:57Z</time>
      </trkpt>
      <trkpt lat="50.03574" lon="2.00218">
        <ele>83.3</ele>
        <time>2022-04-17T10:20:58Z</time>
      </trkpt>
      <trkpt lat="50.03574" lon="2.00218">
        <ele>83.3</ele>
        <time>2022-04-17T10:20:59Z</time>
      </trkpt>
      <trkpt lat="50.03574" lon="2.00218">
        <ele>83.3</ele>
        <time>2022-04-17T10:21:00Z</time>
      </trkpt>
      <trkpt lat="50.03574" lon="2.00218">
        <ele>83.3</ele>
        <time>2022-04-17T10:21:01Z</time>
      </trkpt>
      <trkpt lat="50.03574" lon="2.00218">
        <ele>83.3</ele>
        <time>2022-04-17T10:21:02Z</time>
      </trkpt>
      <trkpt lat="50.03574" lon="2.00218">
        <ele>83.3</ele>
        <time>2022-04-17T10:21:03Z</time>
      </trkpt>
      <trkpt lat="50.03574" lon="2.00218">
        <ele>83.3</ele>
        <time>2022-04-17T10:21:04Z</time>
      </trkpt>
      <trkpt lat="50.03574" lon="2.00218">
        <ele>83.3</ele>
        <time>2022-04-17T10:21:05Z</time>
      </trkpt>
      <trkpt lat="50.03574" lon="2.00218">
        <ele>83.3</ele>
        <time>2022-04-17T10:21:06Z</time>
      </trkpt>
      <trkpt lat="50.03574" lon="2.00218">
        <ele>83.3</ele>
        <time>2022-04-17T10:21:07Z</time>
      </trkpt>
      <trkpt lat="50.03574" lon="2.00218">
        <ele>83.4</ele>
        <time>2022-04-17T10:21:08Z</time>
      </trkpt>
      <trkpt lat="50.03574" lon="2.00218">
        <ele>83.4</ele>
        <time>2022-04-17T10:21:09Z</time>
      </trkpt>
      <trkpt lat="50.03574" lon="2.00218">
        <ele>83.4</ele>
        <time>2022-04-17T10:21:10Z</time>
      </trkpt>
      <trkpt lat="50.03574" lon="2.00218">
        <ele>83.4</ele>
        <time>2022-04-17T10:21:11Z</time>
      </trkpt>
      <trkpt lat="50.03574" lon="2.00218">
        <ele>83.4</ele>
        <time>2022-04-17T10:21:12Z</time>
      </trkpt>
      <trkpt lat="50.03574" lon="2.00218">
        <ele>83.4</ele>
        <time>2022-04-17T10:21:13Z</time>
      </trkpt>
      <trkpt lat="50.03574" lon="2.00218">
        <ele>83.4</ele>
        <time>2022-04-17T10:21:14Z</time>
      </trkpt>
      <trkpt lat="50.03574" lon="2.00218">
        <ele>83.4</ele>
        <time>2022-04-17T10:21:15Z</time>
      </trkpt>
      <trkpt lat="50.03574" lon="2.00218">
        <ele>83.4</ele>
        <time>2022-04-17T10:21:16Z</time>
      </trkpt>
      <trkpt lat="50.03574" lon="2.00218">
        <ele>83.4</ele>
        <time>2022-04-17T10:21:17Z</time>
      </trkpt>
      <trkpt lat="50.03574" lon="2.00218">
        <ele>83.4</ele>
        <time>2022-04-17T10:21:18Z</time>
      </trkpt>
      <trkpt lat="50.03574" lon="2.00218">
        <ele>83.4</ele>
        <time>2022-04-17T10:21:19Z</time>
      </trkpt>
      <trkpt lat="50.03574" lon="2.00218">
        <ele>83.4</ele>
        <time>2022-04-17T10:21:20Z</time>
      </trkpt>
      <trkpt lat="50.03574" lon="2.00218">
        <ele>83.4</ele>
        <time>2022-04-17T10:21:21Z</time>
      </trkpt>
      <trkpt lat="50.03574" lon="2.00218">
        <ele>83.4</ele>
        <time>2022-04-17T10:21:22Z</time>
      </trkpt>
      <trkpt lat="50.03574" lon="2.00218">
        <ele>83.4</ele>
        <time>2022-04-17T10:21:23Z</time>
      </trkpt>
      <trkpt lat="50.03574" lon="2.00218">
        <ele>83.4</ele>
        <time>2022-04-17T10:21:24Z</time>
      </trkpt>
      <trkpt lat="50.03574" lon="2.00218">
        <ele>83.4</ele>
        <time>2022-04-17T10:21:25Z</time>
      </trkpt>
      <trkpt lat="50.03574" lon="2.00218">
        <ele>83.4</ele>
        <time>2022-04-17T10:21:26Z</time>
      </trkpt>
      <trkpt lat="50.03574" lon="2.00218">
        <ele>83.4</ele>
        <time>2022-04-17T10:21:27Z</time>
      </trkpt>
      <trkpt lat="50.03574" lon="2.00218">
        <ele>83.4</ele>
        <time>2022-04-17T10:21:28Z</time>
      </trkpt>
      <trkpt lat="50.03574" lon="2.00218">
        <ele>83.4</ele>
        <time>2022-04-17T10:21:29Z</time>
      </trkpt>
      <trkpt lat="50.03574" lon="2.00218">
        <ele>83.4</ele>
        <time>2022-04-17T10:21:30Z</time>
      </trkpt>
      <trkpt lat="50.03574" lon="2.00218">
        <ele>83.4</ele>
        <time>2022-04-17T10:21:31Z</time>
      </trkpt>
      <trkpt lat="50.03574" lon="2.00218">
        <ele>83.4</ele>
        <time>2022-04-17T10:21:32Z</time>
      </trkpt>
      <trkpt lat="50.03574" lon="2.00218">
        <ele>83.4</ele>
        <time>2022-04-17T10:21:33Z</time>
      </trkpt>
      <trkpt lat="50.03574" lon="2.00218">
        <ele>83.4</ele>
        <time>2022-04-17T10:21:34Z</time>
      </trkpt>
      <trkpt lat="50.03574" lon="2.00218">
        <ele>83.4</ele>
        <time>2022-04-17T10:21:35Z</time>
      </trkpt>
      <trkpt lat="50.03574" lon="2.00218">
        <ele>83.4</ele>
        <time>2022-04-17T10:21:36Z</time>
      </trkpt>
      <trkpt lat="50.03574" lon="2.00218">
        <ele>83.4</ele>
        <time>2022-04-17T10:21:37Z</time>
      </trkpt>
      <trkpt lat="50.03574" lon="2.00218">
        <ele>83.4</ele>
        <time>2022-04-17T10:21:38Z</time>
      </trkpt>
      <trkpt lat="50.03574" lon="2.00218">
        <ele>83.4</ele>
        <time>2022-04-17T10:21:39Z</time>
      </trkpt>
      <trkpt lat="50.03574" lon="2.00218">
        <ele>83.4</ele>
        <time>2022-04-17T10:21:40Z</time>
      </trkpt>
      <trkpt lat="50.03574" lon="2.00218">
        <ele>83.4</ele>
        <time>2022-04-17T10:21:41Z</time>
      </trkpt>
      <trkpt lat="50.03574" lon="2.00218">
        <ele>83.4</ele>
        <time>2022-04-17T10:21:42Z</time>
      </trkpt>
      <trkpt lat="50.03574" lon="2.00218">
        <ele>83.4</ele>
        <time>2022-04-17T10:21:43Z</time>
      </trkpt>
      <trkpt lat="50.03574" lon="2.00218">
        <ele>83.4</ele>
        <time>2022-04-17T10:21:44Z</time>
      </trkpt>
      <trkpt lat="50.03574" lon="2.00218">
        <ele>83.4</ele>
        <time>2022-04-17T10:21:45Z</time>
      </trkpt>
      <trkpt lat="50.03574" lon="2.00218">
        <ele>83.4</ele>
        <time>2022-04-17T10:21:46Z</time>
      </trkpt>
      <trkpt lat="50.03574" lon="2.00218">
        <ele>83.4</ele>
        <time>2022-04-17T10:21:47Z</time>
      </trkpt>
      <trkpt lat="50.03574" lon="2.00218">
        <ele>83.4</ele>
        <time>2022-04-17T10:21:48Z</time>
      </trkpt>
      <trkpt lat="50.03574" lon="2.00218">
        <ele>83.4</ele>
        <time>2022-04-17T10:21:49Z</time>
      </trkpt>
      <trkpt lat="50.03574" lon="2.00218">
        <ele>83.4</ele>
        <time>2022-04-17T10:21:51Z</time>
      </trkpt>
      <trkpt lat="50.03574" lon="2.00218">
        <ele>83.4</ele>
        <time>2022-04-17T10:21:52Z</time>
      </trkpt>
      <trkpt lat="50.03574" lon="2.00218">
        <ele>83.4</ele>
        <time>2022-04-17T10:21:53Z</time>
      </trkpt>
      <trkpt lat="50.03574" lon="2.00218">
        <ele>83.4</ele>
        <time>2022-04-17T10:21:55Z</time>
      </trkpt>
      <trkpt lat="50.03574" lon="2.00218">
        <ele>83.4</ele>
        <time>2022-04-17T10:21:57Z</time>
      </trkpt>
      <trkpt lat="50.03574" lon="2.00218">
        <ele>83.4</ele>
        <time>2022-04-17T10:21:58Z</time>
      </trkpt>
      <trkpt lat="50.03574" lon="2.00218">
        <ele>83.4</ele>
        <time>2022-04-17T10:21:59Z</time>
      </trkpt>
      <trkpt lat="50.03574" lon="2.00218">
        <ele>83.4</ele>
        <time>2022-04-17T10:22:00Z</time>
      </trkpt>
      <trkpt lat="50.03574" lon="2.00218">
        <ele>83.4</ele>
        <time>2022-04-17T10:22:01Z</time>
      </trkpt>
      <trkpt lat="50.03574" lon="2.00218">
        <ele>83.4</ele>
        <time>2022-04-17T10:22:02Z</time>
      </trkpt>
      <trkpt lat="50.03574" lon="2.00218">
        <ele>83.4</ele>
        <time>2022-04-17T10:22:03Z</time>
      </trkpt>
      <trkpt lat="50.03574" lon="2.00218">
        <ele>83.4</ele>
        <time>2022-04-17T10:22:04Z</time>
      </trkpt>
      <trkpt lat="50.03574" lon="2.00218">
        <ele>83.4</ele>
        <time>2022-04-17T10:22:05Z</time>
      </trkpt>
      <trkpt lat="50.03574" lon="2.00218">
        <ele>83.4</ele>
        <time>2022-04-17T10:22:06Z</time>
      </trkpt>
      <trkpt lat="50.03574" lon="2.00218">
        <ele>83.4</ele>
        <time>2022-04-17T10:22:07Z</time>
      </trkpt>
      <trkpt lat="50.03574" lon="2.00218">
        <ele>83.4</ele>
        <time>2022-04-17T10:22:08Z</time>
      </trkpt>
      <trkpt lat="50.03574" lon="2.00218">
        <ele>83.4</ele>
        <time>2022-04-17T10:22:09Z</time>
      </trkpt>
      <trkpt lat="50.03574" lon="2.00218">
        <ele>83.4</ele>
        <time>2022-04-17T10:22:10Z</time>
      </trkpt>
      <trkpt lat="50.03574" lon="2.00218">
        <ele>83.4</ele>
        <time>2022-04-17T10:22:11Z</time>
      </trkpt>
      <trkpt lat="50.03574" lon="2.00218">
        <ele>83.4</ele>
        <time>2022-04-17T10:22:12Z</time>
      </trkpt>
      <trkpt lat="50.03574" lon="2.00218">
        <ele>83.4</ele>
        <time>2022-04-17T10:22:13Z</time>
      </trkpt>
      <trkpt lat="50.03574" lon="2.00218">
        <ele>83.4</ele>
        <time>2022-04-17T10:22:14Z</time>
      </trkpt>
      <trkpt lat="50.03574" lon="2.00218">
        <ele>83.4</ele>
        <time>2022-04-17T10:22:15Z</time>
      </trkpt>
      <trkpt lat="50.03574" lon="2.00218">
        <ele>83.4</ele>
        <time>2022-04-17T10:22:16Z</time>
      </trkpt>
      <trkpt lat="50.03574" lon="2.00218">
        <ele>83.4</ele>
        <time>2022-04-17T10:22:17Z</time>
      </trkpt>
      <trkpt lat="50.03574" lon="2.00218">
        <ele>83.4</ele>
        <time>2022-04-17T10:22:18Z</time>
      </trkpt>
      <trkpt lat="50.03574" lon="2.00218">
        <ele>83.4</ele>
        <time>2022-04-17T10:22:19Z</time>
      </trkpt>
      <trkpt lat="50.03574" lon="2.00218">
        <ele>83.4</ele>
        <time>2022-04-17T10:22:20Z</time>
      </trkpt>
      <trkpt lat="50.03574" lon="2.00218">
        <ele>83.4</ele>
        <time>2022-04-17T10:22:21Z</time>
      </trkpt>
      <trkpt lat="50.03574" lon="2.00218">
        <ele>83.4</ele>
        <time>2022-04-17T10:22:22Z</time>
      </trkpt>
      <trkpt lat="50.03574" lon="2.00218">
        <ele>83.4</ele>
        <time>2022-04-17T10:22:23Z</time>
      </trkpt>
      <trkpt lat="50.03574" lon="2.00218">
        <ele>83.4</ele>
        <time>2022-04-17T10:22:24Z</time>
      </trkpt>
      <trkpt lat="50.03574" lon="2.00218">
        <ele>83.4</ele>
        <time>2022-04-17T10:22:25Z</time>
      </trkpt>
      <trkpt lat="50.03574" lon="2.00218">
        <ele>83.4</ele>
        <time>2022-04-17T10:22:26Z</time>
      </trkpt>
      <trkpt lat="50.03574" lon="2.00218">
        <ele>83.4</ele>
        <time>2022-04-17T10:22:27Z</time>
      </trkpt>
      <trkpt lat="50.03574" lon="2.00218">
        <ele>83.4</ele>
        <time>2022-04-17T10:22:28Z</time>
      </trkpt>
      <trkpt lat="50.03574" lon="2.00218">
        <ele>83.4</ele>
        <time>2022-04-17T10:22:29Z</time>
      </trkpt>
      <trkpt lat="50.03574" lon="2.00218">
        <ele>83.4</ele>
        <time>2022-04-17T10:22:30Z</time>
      </trkpt>
      <trkpt lat="50.03574" lon="2.00218">
        <ele>83.4</ele>
        <time>2022-04-17T10:22:31Z</time>
      </trkpt>
      <trkpt lat="50.03574" lon="2.00218">
        <ele>83.4</ele>
        <time>2022-04-17T10:22:32Z</time>
      </trkpt>
      <trkpt lat="50.03574" lon="2.00218">
        <ele>83.4</ele>
        <time>2022-04-17T10:22:33Z</time>
      </trkpt>
      <trkpt lat="50.03574" lon="2.00218">
        <ele>83.4</ele>
        <time>2022-04-17T10:22:34Z</time>
      </trkpt>
      <trkpt lat="50.03574" lon="2.00218">
        <ele>83.4</ele>
        <time>2022-04-17T10:22:35Z</time>
      </trkpt>
      <trkpt lat="50.03574" lon="2.00218">
        <ele>83.4</ele>
        <time>2022-04-17T10:22:36Z</time>
      </trkpt>
      <trkpt lat="50.03574" lon="2.00218">
        <ele>83.4</ele>
        <time>2022-04-17T10:22:37Z</time>
      </trkpt>
      <trkpt lat="50.03574" lon="2.00218">
        <ele>83.4</ele>
        <time>2022-04-17T10:22:38Z</time>
      </trkpt>
      <trkpt lat="50.03574" lon="2.00218">
        <ele>83.4</ele>
        <time>2022-04-17T10:22:39Z</time>
      </trkpt>
      <trkpt lat="50.03574" lon="2.00218">
        <ele>83.4</ele>
        <time>2022-04-17T10:22:40Z</time>
      </trkpt>
      <trkpt lat="50.03574" lon="2.00218">
        <ele>83.4</ele>
        <time>2022-04-17T10:22:41Z</time>
      </trkpt>
      <trkpt lat="50.03574" lon="2.00218">
        <ele>83.4</ele>
        <time>2022-04-17T10:22:42Z</time>
      </trkpt>
      <trkpt lat="50.03574" lon="2.00218">
        <ele>83.4</ele>
        <time>2022-04-17T10:22:43Z</time>
      </trkpt>
      <trkpt lat="50.03574" lon="2.00218">
        <ele>83.4</ele>
        <time>2022-04-17T10:22:44Z</time>
      </trkpt>
      <trkpt lat="50.03574" lon="2.00218">
        <ele>83.4</ele>
        <time>2022-04-17T10:22:45Z</time>
      </trkpt>
      <trkpt lat="50.03574" lon="2.00218">
        <ele>83.4</ele>
        <time>2022-04-17T10:22:46Z</time>
      </trkpt>
      <trkpt lat="50.03574" lon="2.00218">
        <ele>83.4</ele>
        <time>2022-04-17T10:22:47Z</time>
      </trkpt>
      <trkpt lat="50.03574" lon="2.00218">
        <ele>83.4</ele>
        <time>2022-04-17T10:22:48Z</time>
      </trkpt>
      <trkpt lat="50.03574" lon="2.00218">
        <ele>83.4</ele>
        <time>2022-04-17T10:22:49Z</time>
      </trkpt>
      <trkpt lat="50.03574" lon="2.00218">
        <ele>83.4</ele>
        <time>2022-04-17T10:22:50Z</time>
      </trkpt>
      <trkpt lat="50.03574" lon="2.00218">
        <ele>83.4</ele>
        <time>2022-04-17T10:22:51Z</time>
      </trkpt>
      <trkpt lat="50.03574" lon="2.00218">
        <ele>83.4</ele>
        <time>2022-04-17T10:22:52Z</time>
      </trkpt>
      <trkpt lat="50.03574" lon="2.00218">
        <ele>83.4</ele>
        <time>2022-04-17T10:22:53Z</time>
      </trkpt>
      <trkpt lat="50.03574" lon="2.00218">
        <ele>83.4</ele>
        <time>2022-04-17T10:22:54Z</time>
      </trkpt>
      <trkpt lat="50.03574" lon="2.00218">
        <ele>83.4</ele>
        <time>2022-04-17T10:22:55Z</time>
      </trkpt>
      <trkpt lat="50.03574" lon="2.00218">
        <ele>83.4</ele>
        <time>2022-04-17T10:22:56Z</time>
      </trkpt>
      <trkpt lat="50.03574" lon="2.00218">
        <ele>83.4</ele>
        <time>2022-04-17T10:22:57Z</time>
      </trkpt>
      <trkpt lat="50.03574" lon="2.00218">
        <ele>83.4</ele>
        <time>2022-04-17T10:22:58Z</time>
      </trkpt>
      <trkpt lat="50.03574" lon="2.00219">
        <ele>83.4</ele>
        <time>2022-04-17T10:23:00Z</time>
      </trkpt>
      <trkpt lat="50.03574" lon="2.00219">
        <ele>83.4</ele>
        <time>2022-04-17T10:23:01Z</time>
      </trkpt>
      <trkpt lat="50.03574" lon="2.00218">
        <ele>83.4</ele>
        <time>2022-04-17T10:23:02Z</time>
      </trkpt>
      <trkpt lat="50.03575" lon="2.00218">
        <ele>83.4</ele>
        <time>2022-04-17T10:23:04Z</time>
      </trkpt>
      <trkpt lat="50.03576" lon="2.00217">
        <ele>83.4</ele>
        <time>2022-04-17T10:23:05Z</time>
      </trkpt>
      <trkpt lat="50.03576" lon="2.00216">
        <ele>83.3</ele>
        <time>2022-04-17T10:23:06Z</time>
      </trkpt>
      <trkpt lat="50.03576" lon="2.00215">
        <ele>83.3</ele>
        <time>2022-04-17T10:23:08Z</time>
      </trkpt>
      <trkpt lat="50.03577" lon="2.00213">
        <ele>83.3</ele>
        <time>2022-04-17T10:23:09Z</time>
      </trkpt>
      <trkpt lat="50.03578" lon="2.00212">
        <ele>83.3</ele>
        <time>2022-04-17T10:23:10Z</time>
      </trkpt>
      <trkpt lat="50.03578" lon="2.0021">
        <ele>83.2</ele>
        <time>2022-04-17T10:23:11Z</time>
      </trkpt>
      <trkpt lat="50.03579" lon="2.00207">
        <ele>83.2</ele>
        <time>2022-04-17T10:23:12Z</time>
      </trkpt>
      <trkpt lat="50.03579" lon="2.00206">
        <ele>83.1</ele>
        <time>2022-04-17T10:23:14Z</time>
      </trkpt>
      <trkpt lat="50.03579" lon="2.00205">
        <ele>83.1</ele>
        <time>2022-04-17T10:23:15Z</time>
      </trkpt>
      <trkpt lat="50.0358" lon="2.00202">
        <ele>83.1</ele>
        <time>2022-04-17T10:23:16Z</time>
      </trkpt>
      <trkpt lat="50.0358" lon="2.002">
        <ele>83</ele>
        <time>2022-04-17T10:23:17Z</time>
      </trkpt>
      <trkpt lat="50.03581" lon="2.00197">
        <ele>83</ele>
        <time>2022-04-17T10:23:18Z</time>
      </trkpt>
      <trkpt lat="50.03581" lon="2.00196">
        <ele>83</ele>
        <time>2022-04-17T10:23:20Z</time>
      </trkpt>
      <trkpt lat="50.03582" lon="2.00194">
        <ele>82.9</ele>
        <time>2022-04-17T10:23:21Z</time>
      </trkpt>
      <trkpt lat="50.03583" lon="2.00192">
        <ele>82.9</ele>
        <time>2022-04-17T10:23:22Z</time>
      </trkpt>
      <trkpt lat="50.03583" lon="2.0019">
        <ele>82.8</ele>
        <time>2022-04-17T10:23:24Z</time>
      </trkpt>
      <trkpt lat="50.03584" lon="2.00187">
        <ele>82.7</ele>
        <time>2022-04-17T10:23:25Z</time>
      </trkpt>
      <trkpt lat="50.03585" lon="2.00186">
        <ele>82.7</ele>
        <time>2022-04-17T10:23:26Z</time>
      </trkpt>
      <trkpt lat="50.03585" lon="2.00183">
        <ele>82.6</ele>
        <time>2022-04-17T10:23:27Z</time>
      </trkpt>
      <trkpt lat="50.03585" lon="2.00181">
        <ele>82.6</ele>
        <time>2022-04-17T10:23:29Z</time>
      </trkpt>
      <trkpt lat="50.03585" lon="2.0018">
        <ele>82.6</ele>
        <time>2022-04-17T10:23:30Z</time>
      </trkpt>
      <trkpt lat="50.03586" lon="2.00177">
        <ele>82.5</ele>
        <time>2022-04-17T10:23:31Z</time>
      </trkpt>
      <trkpt lat="50.03587" lon="2.00174">
        <ele>82.4</ele>
        <time>2022-04-17T10:23:33Z</time>
      </trkpt>
      <trkpt lat="50.03588" lon="2.00171">
        <ele>82.3</ele>
        <time>2022-04-17T10:23:34Z</time>
      </trkpt>
      <trkpt lat="50.03588" lon="2.00169">
        <ele>82.3</ele>
        <time>2022-04-17T10:23:35Z</time>
      </trkpt>
      <trkpt lat="50.03589" lon="2.00166">
        <ele>82.2</ele>
        <time>2022-04-17T10:23:36Z</time>
      </trkpt>
      <trkpt lat="50.0359" lon="2.00165">
        <ele>82.2</ele>
        <time>2022-04-17T10:23:37Z</time>
      </trkpt>
      <trkpt lat="50.0359" lon="2.00164">
        <ele>82.2</ele>
        <time>2022-04-17T10:23:38Z</time>
      </trkpt>
      <trkpt lat="50.03592" lon="2.00159">
        <ele>82</ele>
        <time>2022-04-17T10:23:40Z</time>
      </trkpt>
      <trkpt lat="50.03592" lon="2.00158">
        <ele>82</ele>
        <time>2022-04-17T10:23:41Z</time>
      </trkpt>
      <trkpt lat="50.03592" lon="2.00156">
        <ele>82</ele>
        <time>2022-04-17T10:23:42Z</time>
      </trkpt>
      <trkpt lat="50.03593" lon="2.00154">
        <ele>81.9</ele>
        <time>2022-04-17T10:23:43Z</time>
      </trkpt>
      <trkpt lat="50.03593" lon="2.00152">
        <ele>81.9</ele>
        <time>2022-04-17T10:23:44Z</time>
      </trkpt>
      <trkpt lat="50.03594" lon="2.00151">
        <ele>81.8</ele>
        <time>2022-04-17T10:23:45Z</time>
      </trkpt>
      <trkpt lat="50.03594" lon="2.00149">
        <ele>81.8</ele>
        <time>2022-04-17T10:23:46Z</time>
      </trkpt>
      <trkpt lat="50.03595" lon="2.00147">
        <ele>81.7</ele>
        <time>2022-04-17T10:23:48Z</time>
      </trkpt>
      <trkpt lat="50.03595" lon="2.00144">
        <ele>81.7</ele>
        <time>2022-04-17T10:23:49Z</time>
      </trkpt>
      <trkpt lat="50.03596" lon="2.00142">
        <ele>81.6</ele>
        <time>2022-04-17T10:23:50Z</time>
      </trkpt>
      <trkpt lat="50.03596" lon="2.00141">
        <ele>81.6</ele>
        <time>2022-04-17T10:23:51Z</time>
      </trkpt>
      <trkpt lat="50.03596" lon="2.00139">
        <ele>81.5</ele>
        <time>2022-04-17T10:23:52Z</time>
      </trkpt>
      <trkpt lat="50.03597" lon="2.00138">
        <ele>81.5</ele>
        <time>2022-04-17T10:23:53Z</time>
      </trkpt>
      <trkpt lat="50.03597" lon="2.00136">
        <ele>81.5</ele>
        <time>2022-04-17T10:23:54Z</time>
      </trkpt>
      <trkpt lat="50.03598" lon="2.00133">
        <ele>81.4</ele>
        <time>2022-04-17T10:23:55Z</time>
      </trkpt>
      <trkpt lat="50.03598" lon="2.00131">
        <ele>81.3</ele>
        <time>2022-04-17T10:23:56Z</time>
      </trkpt>
      <trkpt lat="50.03598" lon="2.0013">
        <ele>81.3</ele>
        <time>2022-04-17T10:23:58Z</time>
      </trkpt>
      <trkpt lat="50.03599" lon="2.00128">
        <ele>81.3</ele>
        <time>2022-04-17T10:23:59Z</time>
      </trkpt>
      <trkpt lat="50.03599" lon="2.00127">
        <ele>81.2</ele>
        <time>2022-04-17T10:24:00Z</time>
      </trkpt>
      <trkpt lat="50.03599" lon="2.00126">
        <ele>81.2</ele>
        <time>2022-04-17T10:24:01Z</time>
      </trkpt>
      <trkpt lat="50.036" lon="2.00122">
        <ele>81.1</ele>
        <time>2022-04-17T10:24:02Z</time>
      </trkpt>
      <trkpt lat="50.036" lon="2.00121">
        <ele>81</ele>
        <time>2022-04-17T10:24:03Z</time>
      </trkpt>
      <trkpt lat="50.03601" lon="2.0012">
        <ele>81</ele>
        <time>2022-04-17T10:24:04Z</time>
      </trkpt>
      <trkpt lat="50.03601" lon="2.00118">
        <ele>80.9</ele>
        <time>2022-04-17T10:24:05Z</time>
      </trkpt>
      <trkpt lat="50.03601" lon="2.00117">
        <ele>80.9</ele>
        <time>2022-04-17T10:24:06Z</time>
      </trkpt>
      <trkpt lat="50.03602" lon="2.00115">
        <ele>80.8</ele>
        <time>2022-04-17T10:24:07Z</time>
      </trkpt>
      <trkpt lat="50.03602" lon="2.00113">
        <ele>80.8</ele>
        <time>2022-04-17T10:24:08Z</time>
      </trkpt>
      <trkpt lat="50.03602" lon="2.00112">
        <ele>80.7</ele>
        <time>2022-04-17T10:24:09Z</time>
      </trkpt>
      <trkpt lat="50.03603" lon="2.00109">
        <ele>80.6</ele>
        <time>2022-04-17T10:24:11Z</time>
      </trkpt>
      <trkpt lat="50.03603" lon="2.00107">
        <ele>80.6</ele>
        <time>2022-04-17T10:24:12Z</time>
      </trkpt>
      <trkpt lat="50.03604" lon="2.00105">
        <ele>80.5</ele>
        <time>2022-04-17T10:24:13Z</time>
      </trkpt>
      <trkpt lat="50.03604" lon="2.001">
        <ele>80.3</ele>
        <time>2022-04-17T10:24:15Z</time>
      </trkpt>
      <trkpt lat="50.03604" lon="2.00099">
        <ele>80.3</ele>
        <time>2022-04-17T10:24:16Z</time>
      </trkpt>
      <trkpt lat="50.03604" lon="2.00097">
        <ele>80.2</ele>
        <time>2022-04-17T10:24:17Z</time>
      </trkpt>
      <trkpt lat="50.03604" lon="2.00096">
        <ele>80.2</ele>
        <time>2022-04-17T10:24:18Z</time>
      </trkpt>
      <trkpt lat="50.03605" lon="2.00094">
        <ele>80.1</ele>
        <time>2022-04-17T10:24:19Z</time>
      </trkpt>
      <trkpt lat="50.03605" lon="2.00092">
        <ele>80.1</ele>
        <time>2022-04-17T10:24:21Z</time>
      </trkpt>
      <trkpt lat="50.03605" lon="2.0009">
        <ele>80</ele>
        <time>2022-04-17T10:24:22Z</time>
      </trkpt>
      <trkpt lat="50.03606" lon="2.00087">
        <ele>79.9</ele>
        <time>2022-04-17T10:24:23Z</time>
      </trkpt>
      <trkpt lat="50.03606" lon="2.00086">
        <ele>79.8</ele>
        <time>2022-04-17T10:24:24Z</time>
      </trkpt>
      <trkpt lat="50.03607" lon="2.00083">
        <ele>79.8</ele>
        <time>2022-04-17T10:24:25Z</time>
      </trkpt>
      <trkpt lat="50.03607" lon="2.00081">
        <ele>79.7</ele>
        <time>2022-04-17T10:24:26Z</time>
      </trkpt>
      <trkpt lat="50.03608" lon="2.00078">
        <ele>79.6</ele>
        <time>2022-04-17T10:24:27Z</time>
      </trkpt>
      <trkpt lat="50.03608" lon="2.00076">
        <ele>79.5</ele>
        <time>2022-04-17T10:24:29Z</time>
      </trkpt>
      <trkpt lat="50.03608" lon="2.00075">
        <ele>79.5</ele>
        <time>2022-04-17T10:24:30Z</time>
      </trkpt>
      <trkpt lat="50.03609" lon="2.00073">
        <ele>79.4</ele>
        <time>2022-04-17T10:24:31Z</time>
      </trkpt>
      <trkpt lat="50.03609" lon="2.00071">
        <ele>79.4</ele>
        <time>2022-04-17T10:24:32Z</time>
      </trkpt>
      <trkpt lat="50.03609" lon="2.00069">
        <ele>79.3</ele>
        <time>2022-04-17T10:24:33Z</time>
      </trkpt>
      <trkpt lat="50.0361" lon="2.00067">
        <ele>79.3</ele>
        <time>2022-04-17T10:24:34Z</time>
      </trkpt>
      <trkpt lat="50.03611" lon="2.00065">
        <ele>79.2</ele>
        <time>2022-04-17T10:24:36Z</time>
      </trkpt>
      <trkpt lat="50.03611" lon="2.00063">
        <ele>79.1</ele>
        <time>2022-04-17T10:24:37Z</time>
      </trkpt>
      <trkpt lat="50.03612" lon="2.00061">
        <ele>79</ele>
        <time>2022-04-17T10:24:38Z</time>
      </trkpt>
      <trkpt lat="50.03612" lon="2.00059">
        <ele>79</ele>
        <time>2022-04-17T10:24:39Z</time>
      </trkpt>
      <trkpt lat="50.03613" lon="2.00057">
        <ele>78.9</ele>
        <time>2022-04-17T10:24:40Z</time>
      </trkpt>
      <trkpt lat="50.03614" lon="2.00054">
        <ele>78.8</ele>
        <time>2022-04-17T10:24:41Z</time>
      </trkpt>
      <trkpt lat="50.03614" lon="2.00052">
        <ele>78.8</ele>
        <time>2022-04-17T10:24:42Z</time>
      </trkpt>
      <trkpt lat="50.03615" lon="2.00051">
        <ele>78.7</ele>
        <time>2022-04-17T10:24:43Z</time>
      </trkpt>
      <trkpt lat="50.03615" lon="2.00049">
        <ele>78.7</ele>
        <time>2022-04-17T10:24:44Z</time>
      </trkpt>
      <trkpt lat="50.03616" lon="2.00048">
        <ele>78.6</ele>
        <time>2022-04-17T10:24:45Z</time>
      </trkpt>
      <trkpt lat="50.03616" lon="2.00045">
        <ele>78.5</ele>
        <time>2022-04-17T10:24:47Z</time>
      </trkpt>
      <trkpt lat="50.03617" lon="2.00042">
        <ele>78.4</ele>
        <time>2022-04-17T10:24:48Z</time>
      </trkpt>
      <trkpt lat="50.03617" lon="2.00041">
        <ele>78.4</ele>
        <time>2022-04-17T10:24:49Z</time>
      </trkpt>
      <trkpt lat="50.03618" lon="2.00039">
        <ele>78.4</ele>
        <time>2022-04-17T10:24:50Z</time>
      </trkpt>
      <trkpt lat="50.03618" lon="2.00037">
        <ele>78.3</ele>
        <time>2022-04-17T10:24:51Z</time>
      </trkpt>
      <trkpt lat="50.03618" lon="2.00035">
        <ele>78.3</ele>
        <time>2022-04-17T10:24:52Z</time>
      </trkpt>
      <trkpt lat="50.03619" lon="2.00032">
        <ele>78.2</ele>
        <time>2022-04-17T10:24:53Z</time>
      </trkpt>
      <trkpt lat="50.03619" lon="2.00031">
        <ele>78.1</ele>
        <time>2022-04-17T10:24:55Z</time>
      </trkpt>
      <trkpt lat="50.03619" lon="2.00029">
        <ele>78.1</ele>
        <time>2022-04-17T10:24:56Z</time>
      </trkpt>
      <trkpt lat="50.0362" lon="2.00027">
        <ele>78</ele>
        <time>2022-04-17T10:24:57Z</time>
      </trkpt>
      <trkpt lat="50.0362" lon="2.00024">
        <ele>78</ele>
        <time>2022-04-17T10:24:58Z</time>
      </trkpt>
      <trkpt lat="50.03621" lon="2.00021">
        <ele>77.9</ele>
        <time>2022-04-17T10:24:59Z</time>
      </trkpt>
      <trkpt lat="50.03621" lon="2.0002">
        <ele>77.9</ele>
        <time>2022-04-17T10:25:00Z</time>
      </trkpt>
      <trkpt lat="50.03621" lon="2.00019">
        <ele>77.9</ele>
        <time>2022-04-17T10:25:01Z</time>
      </trkpt>
      <trkpt lat="50.03622" lon="2.00016">
        <ele>77.8</ele>
        <time>2022-04-17T10:25:02Z</time>
      </trkpt>
      <trkpt lat="50.03622" lon="2.00014">
        <ele>77.8</ele>
        <time>2022-04-17T10:25:04Z</time>
      </trkpt>
      <trkpt lat="50.03623" lon="2.00012">
        <ele>77.7</ele>
        <time>2022-04-17T10:25:05Z</time>
      </trkpt>
      <trkpt lat="50.03623" lon="2.00011">
        <ele>77.7</ele>
        <time>2022-04-17T10:25:06Z</time>
      </trkpt>
      <trkpt lat="50.03624" lon="2.00009">
        <ele>77.6</ele>
        <time>2022-04-17T10:25:07Z</time>
      </trkpt>
      <trkpt lat="50.03624" lon="2.00008">
        <ele>77.6</ele>
        <time>2022-04-17T10:25:08Z</time>
      </trkpt>
      <trkpt lat="50.03624" lon="2.00006">
        <ele>77.6</ele>
        <time>2022-04-17T10:25:09Z</time>
      </trkpt>
      <trkpt lat="50.03625" lon="2.00004">
        <ele>77.6</ele>
        <time>2022-04-17T10:25:10Z</time>
      </trkpt>
      <trkpt lat="50.03625" lon="2">
        <ele>77.5</ele>
        <time>2022-04-17T10:25:11Z</time>
      </trkpt>
      <trkpt lat="50.03625" lon="1.99999">
        <ele>77.5</ele>
        <time>2022-04-17T10:25:12Z</time>
      </trkpt>
      <trkpt lat="50.03626" lon="1.99998">
        <ele>77.5</ele>
        <time>2022-04-17T10:25:13Z</time>
      </trkpt>
      <trkpt lat="50.03626" lon="1.99996">
        <ele>77.4</ele>
        <time>2022-04-17T10:25:14Z</time>
      </trkpt>
      <trkpt lat="50.03626" lon="1.99995">
        <ele>77.4</ele>
        <time>2022-04-17T10:25:15Z</time>
      </trkpt>
      <trkpt lat="50.03627" lon="1.99993">
        <ele>77.4</ele>
        <time>2022-04-17T10:25:16Z</time>
      </trkpt>
      <trkpt lat="50.03627" lon="1.99991">
        <ele>77.4</ele>
        <time>2022-04-17T10:25:17Z</time>
      </trkpt>
      <trkpt lat="50.03627" lon="1.99989">
        <ele>77.3</ele>
        <time>2022-04-17T10:25:19Z</time>
      </trkpt>
      <trkpt lat="50.03628" lon="1.99987">
        <ele>77.3</ele>
        <time>2022-04-17T10:25:20Z</time>
      </trkpt>
      <trkpt lat="50.03628" lon="1.99984">
        <ele>77.3</ele>
        <time>2022-04-17T10:25:21Z</time>
      </trkpt>
      <trkpt lat="50.03629" lon="1.99981">
        <ele>77.2</ele>
        <time>2022-04-17T10:25:22Z</time>
      </trkpt>
      <trkpt lat="50.03629" lon="1.9998">
        <ele>77.2</ele>
        <time>2022-04-17T10:25:23Z</time>
      </trkpt>
      <trkpt lat="50.03629" lon="1.99979">
        <ele>77.2</ele>
        <time>2022-04-17T10:25:24Z</time>
      </trkpt>
      <trkpt lat="50.03629" lon="1.99977">
        <ele>77.2</ele>
        <time>2022-04-17T10:25:25Z</time>
      </trkpt>
      <trkpt lat="50.0363" lon="1.99975">
        <ele>77.2</ele>
        <time>2022-04-17T10:25:26Z</time>
      </trkpt>
      <trkpt lat="50.0363" lon="1.99973">
        <ele>77.2</ele>
        <time>2022-04-17T10:25:27Z</time>
      </trkpt>
      <trkpt lat="50.0363" lon="1.99972">
        <ele>77.2</ele>
        <time>2022-04-17T10:25:28Z</time>
      </trkpt>
      <trkpt lat="50.03631" lon="1.99969">
        <ele>77.1</ele>
        <time>2022-04-17T10:25:30Z</time>
      </trkpt>
      <trkpt lat="50.03631" lon="1.99966">
        <ele>77.1</ele>
        <time>2022-04-17T10:25:31Z</time>
      </trkpt>
      <trkpt lat="50.03631" lon="1.99964">
        <ele>77.1</ele>
        <time>2022-04-17T10:25:32Z</time>
      </trkpt>
      <trkpt lat="50.03631" lon="1.99963">
        <ele>77.1</ele>
        <time>2022-04-17T10:25:33Z</time>
      </trkpt>
      <trkpt lat="50.03632" lon="1.99961">
        <ele>77.1</ele>
        <time>2022-04-17T10:25:34Z</time>
      </trkpt>
      <trkpt lat="50.03632" lon="1.99959">
        <ele>77.1</ele>
        <time>2022-04-17T10:25:35Z</time>
      </trkpt>
      <trkpt lat="50.03632" lon="1.99955">
        <ele>77</ele>
        <time>2022-04-17T10:25:37Z</time>
      </trkpt>
      <trkpt lat="50.03633" lon="1.99953">
        <ele>77</ele>
        <time>2022-04-17T10:25:38Z</time>
      </trkpt>
      <trkpt lat="50.03633" lon="1.99951">
        <ele>77</ele>
        <time>2022-04-17T10:25:39Z</time>
      </trkpt>
      <trkpt lat="50.03633" lon="1.99949">
        <ele>77</ele>
        <time>2022-04-17T10:25:40Z</time>
      </trkpt>
      <trkpt lat="50.03633" lon="1.99947">
        <ele>77</ele>
        <time>2022-04-17T10:25:41Z</time>
      </trkpt>
      <trkpt lat="50.03633" lon="1.99945">
        <ele>77</ele>
        <time>2022-04-17T10:25:42Z</time>
      </trkpt>
      <trkpt lat="50.03633" lon="1.99943">
        <ele>77</ele>
        <time>2022-04-17T10:25:44Z</time>
      </trkpt>
      <trkpt lat="50.03634" lon="1.99941">
        <ele>77</ele>
        <time>2022-04-17T10:25:45Z</time>
      </trkpt>
      <trkpt lat="50.03634" lon="1.99939">
        <ele>77</ele>
        <time>2022-04-17T10:25:46Z</time>
      </trkpt>
      <trkpt lat="50.03634" lon="1.99937">
        <ele>77</ele>
        <time>2022-04-17T10:25:47Z</time>
      </trkpt>
      <trkpt lat="50.03634" lon="1.99934">
        <ele>76.9</ele>
        <time>2022-04-17T10:25:48Z</time>
      </trkpt>
      <trkpt lat="50.03634" lon="1.99931">
        <ele>76.9</ele>
        <time>2022-04-17T10:25:49Z</time>
      </trkpt>
      <trkpt lat="50.03635" lon="1.99929">
        <ele>76.9</ele>
        <time>2022-04-17T10:25:51Z</time>
      </trkpt>
      <trkpt lat="50.03635" lon="1.99928">
        <ele>76.9</ele>
        <time>2022-04-17T10:25:52Z</time>
      </trkpt>
      <trkpt lat="50.03635" lon="1.99926">
        <ele>76.9</ele>
        <time>2022-04-17T10:25:53Z</time>
      </trkpt>
      <trkpt lat="50.03635" lon="1.99925">
        <ele>76.9</ele>
        <time>2022-04-17T10:25:54Z</time>
      </trkpt>
      <trkpt lat="50.03636" lon="1.99921">
        <ele>76.9</ele>
        <time>2022-04-17T10:25:55Z</time>
      </trkpt>
      <trkpt lat="50.03636" lon="1.9992">
        <ele>76.9</ele>
        <time>2022-04-17T10:25:56Z</time>
      </trkpt>
      <trkpt lat="50.03636" lon="1.99919">
        <ele>76.9</ele>
        <time>2022-04-17T10:25:57Z</time>
      </trkpt>
      <trkpt lat="50.03637" lon="1.99917">
        <ele>76.9</ele>
        <time>2022-04-17T10:25:59Z</time>
      </trkpt>
      <trkpt lat="50.03638" lon="1.99916">
        <ele>76.9</ele>
        <time>2022-04-17T10:26:00Z</time>
      </trkpt>
      <trkpt lat="50.03639" lon="1.99913">
        <ele>76.9</ele>
        <time>2022-04-17T10:26:01Z</time>
      </trkpt>
      <trkpt lat="50.0364" lon="1.99912">
        <ele>76.9</ele>
        <time>2022-04-17T10:26:02Z</time>
      </trkpt>
      <trkpt lat="50.0364" lon="1.99911">
        <ele>76.9</ele>
        <time>2022-04-17T10:26:03Z</time>
      </trkpt>
      <trkpt lat="50.03641" lon="1.99909">
        <ele>76.9</ele>
        <time>2022-04-17T10:26:04Z</time>
      </trkpt>
      <trkpt lat="50.03641" lon="1.99907">
        <ele>76.9</ele>
        <time>2022-04-17T10:26:05Z</time>
      </trkpt>
      <trkpt lat="50.03641" lon="1.99906">
        <ele>76.9</ele>
        <time>2022-04-17T10:26:06Z</time>
      </trkpt>
      <trkpt lat="50.03642" lon="1.99904">
        <ele>76.9</ele>
        <time>2022-04-17T10:26:07Z</time>
      </trkpt>
      <trkpt lat="50.03642" lon="1.99901">
        <ele>76.9</ele>
        <time>2022-04-17T10:26:09Z</time>
      </trkpt>
      <trkpt lat="50.03642" lon="1.99899">
        <ele>76.9</ele>
        <time>2022-04-17T10:26:10Z</time>
      </trkpt>
      <trkpt lat="50.03643" lon="1.99897">
        <ele>76.9</ele>
        <time>2022-04-17T10:26:12Z</time>
      </trkpt>
      <trkpt lat="50.03643" lon="1.99894">
        <ele>76.9</ele>
        <time>2022-04-17T10:26:13Z</time>
      </trkpt>
      <trkpt lat="50.03643" lon="1.99892">
        <ele>76.9</ele>
        <time>2022-04-17T10:26:14Z</time>
      </trkpt>
      <trkpt lat="50.03643" lon="1.9989">
        <ele>76.9</ele>
        <time>2022-04-17T10:26:16Z</time>
      </trkpt>
      <trkpt lat="50.03643" lon="1.99887">
        <ele>76.9</ele>
        <time>2022-04-17T10:26:17Z</time>
      </trkpt>
      <trkpt lat="50.03644" lon="1.99885">
        <ele>76.9</ele>
        <time>2022-04-17T10:26:18Z</time>
      </trkpt>
      <trkpt lat="50.03644" lon="1.99884">
        <ele>76.9</ele>
        <time>2022-04-17T10:26:19Z</time>
      </trkpt>
      <trkpt lat="50.03644" lon="1.99882">
        <ele>76.9</ele>
        <time>2022-04-17T10:26:20Z</time>
      </trkpt>
      <trkpt lat="50.03645" lon="1.99879">
        <ele>76.9</ele>
        <time>2022-04-17T10:26:21Z</time>
      </trkpt>
      <trkpt lat="50.03645" lon="1.99877">
        <ele>76.9</ele>
        <time>2022-04-17T10:26:23Z</time>
      </trkpt>
      <trkpt lat="50.03645" lon="1.99875">
        <ele>76.9</ele>
        <time>2022-04-17T10:26:24Z</time>
      </trkpt>
      <trkpt lat="50.03646" lon="1.99874">
        <ele>76.9</ele>
        <time>2022-04-17T10:26:25Z</time>
      </trkpt>
      <trkpt lat="50.03646" lon="1.99872">
        <ele>76.8</ele>
        <time>2022-04-17T10:26:26Z</time>
      </trkpt>
      <trkpt lat="50.03646" lon="1.9987">
        <ele>76.8</ele>
        <time>2022-04-17T10:26:27Z</time>
      </trkpt>
      <trkpt lat="50.03646" lon="1.99868">
        <ele>76.8</ele>
        <time>2022-04-17T10:26:28Z</time>
      </trkpt>
      <trkpt lat="50.03647" lon="1.99867">
        <ele>76.8</ele>
        <time>2022-04-17T10:26:29Z</time>
      </trkpt>
      <trkpt lat="50.03647" lon="1.99864">
        <ele>76.8</ele>
        <time>2022-04-17T10:26:30Z</time>
      </trkpt>
      <trkpt lat="50.03648" lon="1.99862">
        <ele>76.8</ele>
        <time>2022-04-17T10:26:31Z</time>
      </trkpt>
      <trkpt lat="50.03648" lon="1.99861">
        <ele>76.8</ele>
        <time>2022-04-17T10:26:32Z</time>
      </trkpt>
      <trkpt lat="50.03648" lon="1.99859">
        <ele>76.8</ele>
        <time>2022-04-17T10:26:33Z</time>
      </trkpt>
      <trkpt lat="50.03648" lon="1.99857">
        <ele>76.8</ele>
        <time>2022-04-17T10:26:35Z</time>
      </trkpt>
      <trkpt lat="50.03649" lon="1.99854">
        <ele>76.8</ele>
        <time>2022-04-17T10:26:36Z</time>
      </trkpt>
      <trkpt lat="50.03649" lon="1.99852">
        <ele>76.8</ele>
        <time>2022-04-17T10:26:37Z</time>
      </trkpt>
      <trkpt lat="50.03649" lon="1.9985">
        <ele>76.9</ele>
        <time>2022-04-17T10:26:38Z</time>
      </trkpt>
      <trkpt lat="50.03649" lon="1.99848">
        <ele>76.9</ele>
        <time>2022-04-17T10:26:39Z</time>
      </trkpt>
      <trkpt lat="50.03649" lon="1.99846">
        <ele>76.9</ele>
        <time>2022-04-17T10:26:40Z</time>
      </trkpt>
      <trkpt lat="50.03649" lon="1.99844">
        <ele>76.9</ele>
        <time>2022-04-17T10:26:41Z</time>
      </trkpt>
      <trkpt lat="50.0365" lon="1.99842">
        <ele>76.9</ele>
        <time>2022-04-17T10:26:43Z</time>
      </trkpt>
      <trkpt lat="50.0365" lon="1.9984">
        <ele>76.9</ele>
        <time>2022-04-17T10:26:44Z</time>
      </trkpt>
      <trkpt lat="50.0365" lon="1.99838">
        <ele>76.9</ele>
        <time>2022-04-17T10:26:45Z</time>
      </trkpt>
      <trkpt lat="50.0365" lon="1.99836">
        <ele>77</ele>
        <time>2022-04-17T10:26:46Z</time>
      </trkpt>
      <trkpt lat="50.0365" lon="1.99834">
        <ele>77</ele>
        <time>2022-04-17T10:26:47Z</time>
      </trkpt>
      <trkpt lat="50.03651" lon="1.99832">
        <ele>77</ele>
        <time>2022-04-17T10:26:48Z</time>
      </trkpt>
      <trkpt lat="50.03651" lon="1.99829">
        <ele>77</ele>
        <time>2022-04-17T10:26:49Z</time>
      </trkpt>
      <trkpt lat="50.03651" lon="1.99828">
        <ele>77</ele>
        <time>2022-04-17T10:26:50Z</time>
      </trkpt>
      <trkpt lat="50.03651" lon="1.99826">
        <ele>77</ele>
        <time>2022-04-17T10:26:51Z</time>
      </trkpt>
      <trkpt lat="50.03652" lon="1.99824">
        <ele>77</ele>
        <time>2022-04-17T10:26:53Z</time>
      </trkpt>
      <trkpt lat="50.03652" lon="1.99822">
        <ele>77</ele>
        <time>2022-04-17T10:26:54Z</time>
      </trkpt>
      <trkpt lat="50.03652" lon="1.9982">
        <ele>77</ele>
        <time>2022-04-17T10:26:55Z</time>
      </trkpt>
      <trkpt lat="50.03653" lon="1.99818">
        <ele>77</ele>
        <time>2022-04-17T10:26:56Z</time>
      </trkpt>
      <trkpt lat="50.03653" lon="1.99815">
        <ele>77</ele>
        <time>2022-04-17T10:26:57Z</time>
      </trkpt>
      <trkpt lat="50.03653" lon="1.99813">
        <ele>77</ele>
        <time>2022-04-17T10:26:58Z</time>
      </trkpt>
      <trkpt lat="50.03654" lon="1.99812">
        <ele>77</ele>
        <time>2022-04-17T10:26:59Z</time>
      </trkpt>
      <trkpt lat="50.03654" lon="1.9981">
        <ele>77.1</ele>
        <time>2022-04-17T10:27:00Z</time>
      </trkpt>
      <trkpt lat="50.03654" lon="1.99808">
        <ele>77.1</ele>
        <time>2022-04-17T10:27:02Z</time>
      </trkpt>
      <trkpt lat="50.03655" lon="1.99806">
        <ele>77.1</ele>
        <time>2022-04-17T10:27:03Z</time>
      </trkpt>
      <trkpt lat="50.03655" lon="1.99804">
        <ele>77.1</ele>
        <time>2022-04-17T10:27:04Z</time>
      </trkpt>
      <trkpt lat="50.03656" lon="1.998">
        <ele>77.1</ele>
        <time>2022-04-17T10:27:05Z</time>
      </trkpt>
      <trkpt lat="50.03656" lon="1.99799">
        <ele>77.1</ele>
        <time>2022-04-17T10:27:06Z</time>
      </trkpt>
      <trkpt lat="50.03656" lon="1.99797">
        <ele>77</ele>
        <time>2022-04-17T10:27:07Z</time>
      </trkpt>
      <trkpt lat="50.03656" lon="1.99795">
        <ele>77</ele>
        <time>2022-04-17T10:27:08Z</time>
      </trkpt>
      <trkpt lat="50.03657" lon="1.99794">
        <ele>77</ele>
        <time>2022-04-17T10:27:09Z</time>
      </trkpt>
      <trkpt lat="50.03657" lon="1.99792">
        <ele>77</ele>
        <time>2022-04-17T10:27:11Z</time>
      </trkpt>
      <trkpt lat="50.03657" lon="1.9979">
        <ele>77</ele>
        <time>2022-04-17T10:27:12Z</time>
      </trkpt>
      <trkpt lat="50.03658" lon="1.99789">
        <ele>77</ele>
        <time>2022-04-17T10:27:13Z</time>
      </trkpt>
      <trkpt lat="50.03658" lon="1.99787">
        <ele>77</ele>
        <time>2022-04-17T10:27:14Z</time>
      </trkpt>
      <trkpt lat="50.03659" lon="1.99784">
        <ele>77</ele>
        <time>2022-04-17T10:27:15Z</time>
      </trkpt>
      <trkpt lat="50.03659" lon="1.99783">
        <ele>77</ele>
        <time>2022-04-17T10:27:16Z</time>
      </trkpt>
      <trkpt lat="50.03659" lon="1.99781">
        <ele>77</ele>
        <time>2022-04-17T10:27:17Z</time>
      </trkpt>
      <trkpt lat="50.0366" lon="1.99778">
        <ele>77</ele>
        <time>2022-04-17T10:27:18Z</time>
      </trkpt>
      <trkpt lat="50.0366" lon="1.99776">
        <ele>77</ele>
        <time>2022-04-17T10:27:20Z</time>
      </trkpt>
      <trkpt lat="50.0366" lon="1.99775">
        <ele>77</ele>
        <time>2022-04-17T10:27:21Z</time>
      </trkpt>
      <trkpt lat="50.0366" lon="1.99773">
        <ele>77</ele>
        <time>2022-04-17T10:27:22Z</time>
      </trkpt>
      <trkpt lat="50.03661" lon="1.99771">
        <ele>77</ele>
        <time>2022-04-17T10:27:23Z</time>
      </trkpt>
      <trkpt lat="50.03661" lon="1.99769">
        <ele>77</ele>
        <time>2022-04-17T10:27:24Z</time>
      </trkpt>
      <trkpt lat="50.03661" lon="1.99766">
        <ele>77</ele>
        <time>2022-04-17T10:27:26Z</time>
      </trkpt>
      <trkpt lat="50.03661" lon="1.99764">
        <ele>77</ele>
        <time>2022-04-17T10:27:27Z</time>
      </trkpt>
      <trkpt lat="50.03661" lon="1.99762">
        <ele>77</ele>
        <time>2022-04-17T10:27:28Z</time>
      </trkpt>
      <trkpt lat="50.03662" lon="1.9976">
        <ele>77</ele>
        <time>2022-04-17T10:27:30Z</time>
      </trkpt>
      <trkpt lat="50.03662" lon="1.99758">
        <ele>77</ele>
        <time>2022-04-17T10:27:31Z</time>
      </trkpt>
      <trkpt lat="50.03663" lon="1.99755">
        <ele>76.9</ele>
        <time>2022-04-17T10:27:32Z</time>
      </trkpt>
      <trkpt lat="50.03663" lon="1.99754">
        <ele>76.9</ele>
        <time>2022-04-17T10:27:33Z</time>
      </trkpt>
      <trkpt lat="50.03664" lon="1.99752">
        <ele>76.9</ele>
        <time>2022-04-17T10:27:34Z</time>
      </trkpt>
      <trkpt lat="50.03664" lon="1.99751">
        <ele>76.9</ele>
        <time>2022-04-17T10:27:35Z</time>
      </trkpt>
      <trkpt lat="50.03665" lon="1.99749">
        <ele>76.9</ele>
        <time>2022-04-17T10:27:37Z</time>
      </trkpt>
      <trkpt lat="50.03665" lon="1.99746">
        <ele>76.9</ele>
        <time>2022-04-17T10:27:38Z</time>
      </trkpt>
      <trkpt lat="50.03666" lon="1.99745">
        <ele>76.8</ele>
        <time>2022-04-17T10:27:39Z</time>
      </trkpt>
      <trkpt lat="50.03666" lon="1.99743">
        <ele>76.8</ele>
        <time>2022-04-17T10:27:40Z</time>
      </trkpt>
      <trkpt lat="50.03667" lon="1.99741">
        <ele>76.8</ele>
        <time>2022-04-17T10:27:41Z</time>
      </trkpt>
      <trkpt lat="50.03668" lon="1.99738">
        <ele>76.8</ele>
        <time>2022-04-17T10:27:42Z</time>
      </trkpt>
      <trkpt lat="50.03668" lon="1.99737">
        <ele>76.8</ele>
        <time>2022-04-17T10:27:43Z</time>
      </trkpt>
      <trkpt lat="50.03668" lon="1.99736">
        <ele>76.8</ele>
        <time>2022-04-17T10:27:44Z</time>
      </trkpt>
      <trkpt lat="50.03669" lon="1.99733">
        <ele>76.7</ele>
        <time>2022-04-17T10:27:45Z</time>
      </trkpt>
      <trkpt lat="50.03669" lon="1.99732">
        <ele>76.7</ele>
        <time>2022-04-17T10:27:46Z</time>
      </trkpt>
      <trkpt lat="50.0367" lon="1.99731">
        <ele>76.7</ele>
        <time>2022-04-17T10:27:47Z</time>
      </trkpt>
      <trkpt lat="50.0367" lon="1.99729">
        <ele>76.7</ele>
        <time>2022-04-17T10:27:48Z</time>
      </trkpt>
      <trkpt lat="50.03671" lon="1.99727">
        <ele>76.6</ele>
        <time>2022-04-17T10:27:49Z</time>
      </trkpt>
      <trkpt lat="50.03671" lon="1.99725">
        <ele>76.6</ele>
        <time>2022-04-17T10:27:51Z</time>
      </trkpt>
      <trkpt lat="50.03672" lon="1.99723">
        <ele>76.6</ele>
        <time>2022-04-17T10:27:52Z</time>
      </trkpt>
      <trkpt lat="50.03673" lon="1.99721">
        <ele>76.6</ele>
        <time>2022-04-17T10:27:53Z</time>
      </trkpt>
      <trkpt lat="50.03674" lon="1.99719">
        <ele>76.5</ele>
        <time>2022-04-17T10:27:54Z</time>
      </trkpt>
      <trkpt lat="50.03675" lon="1.99717">
        <ele>76.5</ele>
        <time>2022-04-17T10:27:55Z</time>
      </trkpt>
      <trkpt lat="50.03675" lon="1.99715">
        <ele>76.4</ele>
        <time>2022-04-17T10:27:57Z</time>
      </trkpt>
      <trkpt lat="50.03676" lon="1.99712">
        <ele>76.4</ele>
        <time>2022-04-17T10:27:58Z</time>
      </trkpt>
      <trkpt lat="50.03677" lon="1.99709">
        <ele>76.4</ele>
        <time>2022-04-17T10:27:59Z</time>
      </trkpt>
      <trkpt lat="50.03677" lon="1.99708">
        <ele>76.3</ele>
        <time>2022-04-17T10:28:01Z</time>
      </trkpt>
      <trkpt lat="50.03678" lon="1.99707">
        <ele>76.3</ele>
        <time>2022-04-17T10:28:02Z</time>
      </trkpt>
      <trkpt lat="50.03678" lon="1.99704">
        <ele>76.3</ele>
        <time>2022-04-17T10:28:03Z</time>
      </trkpt>
      <trkpt lat="50.03678" lon="1.99702">
        <ele>76.3</ele>
        <time>2022-04-17T10:28:04Z</time>
      </trkpt>
      <trkpt lat="50.03679" lon="1.99701">
        <ele>76.2</ele>
        <time>2022-04-17T10:28:05Z</time>
      </trkpt>
      <trkpt lat="50.03679" lon="1.997">
        <ele>76.2</ele>
        <time>2022-04-17T10:28:06Z</time>
      </trkpt>
      <trkpt lat="50.0368" lon="1.99698">
        <ele>76.2</ele>
        <time>2022-04-17T10:28:07Z</time>
      </trkpt>
      <trkpt lat="50.03681" lon="1.99696">
        <ele>76.1</ele>
        <time>2022-04-17T10:28:09Z</time>
      </trkpt>
      <trkpt lat="50.03682" lon="1.99694">
        <ele>76.1</ele>
        <time>2022-04-17T10:28:10Z</time>
      </trkpt>
      <trkpt lat="50.03682" lon="1.99692">
        <ele>76.1</ele>
        <time>2022-04-17T10:28:11Z</time>
      </trkpt>
      <trkpt lat="50.03683" lon="1.9969">
        <ele>76</ele>
        <time>2022-04-17T10:28:12Z</time>
      </trkpt>
      <trkpt lat="50.03684" lon="1.99689">
        <ele>76</ele>
        <time>2022-04-17T10:28:13Z</time>
      </trkpt>
      <trkpt lat="50.03684" lon="1.99687">
        <ele>76</ele>
        <time>2022-04-17T10:28:14Z</time>
      </trkpt>
      <trkpt lat="50.03685" lon="1.99686">
        <ele>76</ele>
        <time>2022-04-17T10:28:15Z</time>
      </trkpt>
      <trkpt lat="50.03685" lon="1.99684">
        <ele>75.9</ele>
        <time>2022-04-17T10:28:16Z</time>
      </trkpt>
      <trkpt lat="50.03686" lon="1.99683">
        <ele>75.9</ele>
        <time>2022-04-17T10:28:17Z</time>
      </trkpt>
      <trkpt lat="50.03687" lon="1.9968">
        <ele>75.8</ele>
        <time>2022-04-17T10:28:19Z</time>
      </trkpt>
      <trkpt lat="50.03688" lon="1.99679">
        <ele>75.8</ele>
        <time>2022-04-17T10:28:20Z</time>
      </trkpt>
      <trkpt lat="50.03688" lon="1.99678">
        <ele>75.8</ele>
        <time>2022-04-17T10:28:21Z</time>
      </trkpt>
      <trkpt lat="50.03689" lon="1.99676">
        <ele>75.7</ele>
        <time>2022-04-17T10:28:22Z</time>
      </trkpt>
      <trkpt lat="50.0369" lon="1.99673">
        <ele>75.7</ele>
        <time>2022-04-17T10:28:23Z</time>
      </trkpt>
      <trkpt lat="50.03692" lon="1.99669">
        <ele>75.6</ele>
        <time>2022-04-17T10:28:25Z</time>
      </trkpt>
      <trkpt lat="50.03692" lon="1.99668">
        <ele>75.6</ele>
        <time>2022-04-17T10:28:26Z</time>
      </trkpt>
      <trkpt lat="50.03693" lon="1.99665">
        <ele>75.5</ele>
        <time>2022-04-17T10:28:27Z</time>
      </trkpt>
      <trkpt lat="50.03694" lon="1.99664">
        <ele>75.5</ele>
        <time>2022-04-17T10:28:28Z</time>
      </trkpt>
      <trkpt lat="50.03694" lon="1.99663">
        <ele>75.4</ele>
        <time>2022-04-17T10:28:29Z</time>
      </trkpt>
      <trkpt lat="50.03695" lon="1.9966">
        <ele>75.3</ele>
        <time>2022-04-17T10:28:30Z</time>
      </trkpt>
      <trkpt lat="50.03696" lon="1.99659">
        <ele>75.3</ele>
        <time>2022-04-17T10:28:31Z</time>
      </trkpt>
      <trkpt lat="50.03696" lon="1.99658">
        <ele>75.3</ele>
        <time>2022-04-17T10:28:32Z</time>
      </trkpt>
      <trkpt lat="50.03697" lon="1.99656">
        <ele>75.2</ele>
        <time>2022-04-17T10:28:34Z</time>
      </trkpt>
      <trkpt lat="50.03698" lon="1.99654">
        <ele>75.2</ele>
        <time>2022-04-17T10:28:35Z</time>
      </trkpt>
      <trkpt lat="50.03699" lon="1.99652">
        <ele>75.1</ele>
        <time>2022-04-17T10:28:36Z</time>
      </trkpt>
      <trkpt lat="50.03699" lon="1.9965">
        <ele>75</ele>
        <time>2022-04-17T10:28:37Z</time>
      </trkpt>
      <trkpt lat="50.03701" lon="1.99647">
        <ele>75</ele>
        <time>2022-04-17T10:28:38Z</time>
      </trkpt>
      <trkpt lat="50.03701" lon="1.99646">
        <ele>74.9</ele>
        <time>2022-04-17T10:28:39Z</time>
      </trkpt>
      <trkpt lat="50.03701" lon="1.99645">
        <ele>74.9</ele>
        <time>2022-04-17T10:28:40Z</time>
      </trkpt>
      <trkpt lat="50.03702" lon="1.99643">
        <ele>74.8</ele>
        <time>2022-04-17T10:28:42Z</time>
      </trkpt>
      <trkpt lat="50.03703" lon="1.99641">
        <ele>74.8</ele>
        <time>2022-04-17T10:28:43Z</time>
      </trkpt>
      <trkpt lat="50.03704" lon="1.99639">
        <ele>74.7</ele>
        <time>2022-04-17T10:28:44Z</time>
      </trkpt>
      <trkpt lat="50.03705" lon="1.99636">
        <ele>74.6</ele>
        <time>2022-04-17T10:28:46Z</time>
      </trkpt>
      <trkpt lat="50.03706" lon="1.99635">
        <ele>74.5</ele>
        <time>2022-04-17T10:28:47Z</time>
      </trkpt>
      <trkpt lat="50.03707" lon="1.99633">
        <ele>74.4</ele>
        <time>2022-04-17T10:28:49Z</time>
      </trkpt>
      <trkpt lat="50.03708" lon="1.99631">
        <ele>74.4</ele>
        <time>2022-04-17T10:28:50Z</time>
      </trkpt>
      <trkpt lat="50.03709" lon="1.9963">
        <ele>74.3</ele>
        <time>2022-04-17T10:28:51Z</time>
      </trkpt>
      <trkpt lat="50.0371" lon="1.99629">
        <ele>74.3</ele>
        <time>2022-04-17T10:28:52Z</time>
      </trkpt>
      <trkpt lat="50.03711" lon="1.99627">
        <ele>74.2</ele>
        <time>2022-04-17T10:28:54Z</time>
      </trkpt>
      <trkpt lat="50.03712" lon="1.99625">
        <ele>74.2</ele>
        <time>2022-04-17T10:28:55Z</time>
      </trkpt>
      <trkpt lat="50.03713" lon="1.99623">
        <ele>74.1</ele>
        <time>2022-04-17T10:28:56Z</time>
      </trkpt>
      <trkpt lat="50.03714" lon="1.99622">
        <ele>74</ele>
        <time>2022-04-17T10:28:58Z</time>
      </trkpt>
      <trkpt lat="50.03715" lon="1.99621">
        <ele>74</ele>
        <time>2022-04-17T10:28:59Z</time>
      </trkpt>
      <trkpt lat="50.03716" lon="1.99619">
        <ele>73.9</ele>
        <time>2022-04-17T10:29:00Z</time>
      </trkpt>
      <trkpt lat="50.03717" lon="1.99618">
        <ele>73.8</ele>
        <time>2022-04-17T10:29:01Z</time>
      </trkpt>
      <trkpt lat="50.03717" lon="1.99617">
        <ele>73.8</ele>
        <time>2022-04-17T10:29:02Z</time>
      </trkpt>
      <trkpt lat="50.03719" lon="1.99615">
        <ele>73.7</ele>
        <time>2022-04-17T10:29:03Z</time>
      </trkpt>
      <trkpt lat="50.0372" lon="1.99614">
        <ele>73.7</ele>
        <time>2022-04-17T10:29:04Z</time>
      </trkpt>
      <trkpt lat="50.0372" lon="1.99613">
        <ele>73.6</ele>
        <time>2022-04-17T10:29:05Z</time>
      </trkpt>
      <trkpt lat="50.03721" lon="1.99611">
        <ele>73.6</ele>
        <time>2022-04-17T10:29:06Z</time>
      </trkpt>
      <trkpt lat="50.03722" lon="1.9961">
        <ele>73.5</ele>
        <time>2022-04-17T10:29:07Z</time>
      </trkpt>
      <trkpt lat="50.03723" lon="1.99608">
        <ele>73.5</ele>
        <time>2022-04-17T10:29:08Z</time>
      </trkpt>
      <trkpt lat="50.03724" lon="1.99607">
        <ele>73.4</ele>
        <time>2022-04-17T10:29:09Z</time>
      </trkpt>
      <trkpt lat="50.03726" lon="1.99604">
        <ele>73.3</ele>
        <time>2022-04-17T10:29:11Z</time>
      </trkpt>
      <trkpt lat="50.03727" lon="1.99603">
        <ele>73.3</ele>
        <time>2022-04-17T10:29:12Z</time>
      </trkpt>
      <trkpt lat="50.03728" lon="1.99601">
        <ele>73.3</ele>
        <time>2022-04-17T10:29:13Z</time>
      </trkpt>
      <trkpt lat="50.03729" lon="1.996">
        <ele>73.2</ele>
        <time>2022-04-17T10:29:14Z</time>
      </trkpt>
      <trkpt lat="50.0373" lon="1.99599">
        <ele>73.2</ele>
        <time>2022-04-17T10:29:15Z</time>
      </trkpt>
      <trkpt lat="50.03731" lon="1.99596">
        <ele>73.1</ele>
        <time>2022-04-17T10:29:16Z</time>
      </trkpt>
      <trkpt lat="50.03732" lon="1.99595">
        <ele>73.1</ele>
        <time>2022-04-17T10:29:18Z</time>
      </trkpt>
      <trkpt lat="50.03732" lon="1.99594">
        <ele>73</ele>
        <time>2022-04-17T10:29:19Z</time>
      </trkpt>
      <trkpt lat="50.03733" lon="1.99593">
        <ele>73</ele>
        <time>2022-04-17T10:29:20Z</time>
      </trkpt>
      <trkpt lat="50.03735" lon="1.99592">
        <ele>72.9</ele>
        <time>2022-04-17T10:29:21Z</time>
      </trkpt>
      <trkpt lat="50.03736" lon="1.9959">
        <ele>72.9</ele>
        <time>2022-04-17T10:29:22Z</time>
      </trkpt>
      <trkpt lat="50.03738" lon="1.99587">
        <ele>72.7</ele>
        <time>2022-04-17T10:29:24Z</time>
      </trkpt>
      <trkpt lat="50.03739" lon="1.99585">
        <ele>72.6</ele>
        <time>2022-04-17T10:29:25Z</time>
      </trkpt>
      <trkpt lat="50.0374" lon="1.99584">
        <ele>72.6</ele>
        <time>2022-04-17T10:29:26Z</time>
      </trkpt>
      <trkpt lat="50.03741" lon="1.99583">
        <ele>72.6</ele>
        <time>2022-04-17T10:29:27Z</time>
      </trkpt>
      <trkpt lat="50.03742" lon="1.99581">
        <ele>72.5</ele>
        <time>2022-04-17T10:29:28Z</time>
      </trkpt>
      <trkpt lat="50.03743" lon="1.9958">
        <ele>72.4</ele>
        <time>2022-04-17T10:29:29Z</time>
      </trkpt>
      <trkpt lat="50.03744" lon="1.99579">
        <ele>72.4</ele>
        <time>2022-04-17T10:29:30Z</time>
      </trkpt>
      <trkpt lat="50.03745" lon="1.99578">
        <ele>72.3</ele>
        <time>2022-04-17T10:29:31Z</time>
      </trkpt>
      <trkpt lat="50.03746" lon="1.99577">
        <ele>72.3</ele>
        <time>2022-04-17T10:29:32Z</time>
      </trkpt>
      <trkpt lat="50.03747" lon="1.99575">
        <ele>72.2</ele>
        <time>2022-04-17T10:29:34Z</time>
      </trkpt>
      <trkpt lat="50.03748" lon="1.99573">
        <ele>72.1</ele>
        <time>2022-04-17T10:29:35Z</time>
      </trkpt>
      <trkpt lat="50.0375" lon="1.99571">
        <ele>72</ele>
        <time>2022-04-17T10:29:36Z</time>
      </trkpt>
      <trkpt lat="50.03751" lon="1.9957">
        <ele>72</ele>
        <time>2022-04-17T10:29:37Z</time>
      </trkpt>
      <trkpt lat="50.03751" lon="1.99569">
        <ele>72</ele>
        <time>2022-04-17T10:29:38Z</time>
      </trkpt>
      <trkpt lat="50.03752" lon="1.99568">
        <ele>71.9</ele>
        <time>2022-04-17T10:29:39Z</time>
      </trkpt>
      <trkpt lat="50.03753" lon="1.99567">
        <ele>71.9</ele>
        <time>2022-04-17T10:29:40Z</time>
      </trkpt>
      <trkpt lat="50.03754" lon="1.99566">
        <ele>71.8</ele>
        <time>2022-04-17T10:29:42Z</time>
      </trkpt>
      <trkpt lat="50.03756" lon="1.99563">
        <ele>71.7</ele>
        <time>2022-04-17T10:29:43Z</time>
      </trkpt>
      <trkpt lat="50.03757" lon="1.99561">
        <ele>71.6</ele>
        <time>2022-04-17T10:29:45Z</time>
      </trkpt>
      <trkpt lat="50.03758" lon="1.9956">
        <ele>71.6</ele>
        <time>2022-04-17T10:29:46Z</time>
      </trkpt>
      <trkpt lat="50.0376" lon="1.99559">
        <ele>71.5</ele>
        <time>2022-04-17T10:29:47Z</time>
      </trkpt>
      <trkpt lat="50.03761" lon="1.99557">
        <ele>71.5</ele>
        <time>2022-04-17T10:29:49Z</time>
      </trkpt>
      <trkpt lat="50.03762" lon="1.99556">
        <ele>71.4</ele>
        <time>2022-04-17T10:29:50Z</time>
      </trkpt>
      <trkpt lat="50.03764" lon="1.99554">
        <ele>71.3</ele>
        <time>2022-04-17T10:29:52Z</time>
      </trkpt>
      <trkpt lat="50.03765" lon="1.99553">
        <ele>71.3</ele>
        <time>2022-04-17T10:29:53Z</time>
      </trkpt>
      <trkpt lat="50.03766" lon="1.99552">
        <ele>71.2</ele>
        <time>2022-04-17T10:29:55Z</time>
      </trkpt>
      <trkpt lat="50.03767" lon="1.99551">
        <ele>71.2</ele>
        <time>2022-04-17T10:29:56Z</time>
      </trkpt>
      <trkpt lat="50.03768" lon="1.99551">
        <ele>71.2</ele>
        <time>2022-04-17T10:29:57Z</time>
      </trkpt>
      <trkpt lat="50.0377" lon="1.99549">
        <ele>71.1</ele>
        <time>2022-04-17T10:29:58Z</time>
      </trkpt>
      <trkpt lat="50.03771" lon="1.99549">
        <ele>71.1</ele>
        <time>2022-04-17T10:29:59Z</time>
      </trkpt>
      <trkpt lat="50.03771" lon="1.99548">
        <ele>71</ele>
        <time>2022-04-17T10:30:00Z</time>
      </trkpt>
      <trkpt lat="50.03775" lon="1.99545">
        <ele>70.9</ele>
        <time>2022-04-17T10:30:02Z</time>
      </trkpt>
      <trkpt lat="50.03776" lon="1.99544">
        <ele>70.9</ele>
        <time>2022-04-17T10:30:03Z</time>
      </trkpt>
      <trkpt lat="50.03777" lon="1.99543">
        <ele>70.8</ele>
        <time>2022-04-17T10:30:05Z</time>
      </trkpt>
      <trkpt lat="50.03778" lon="1.99542">
        <ele>70.8</ele>
        <time>2022-04-17T10:30:06Z</time>
      </trkpt>
      <trkpt lat="50.03779" lon="1.99541">
        <ele>70.7</ele>
        <time>2022-04-17T10:30:07Z</time>
      </trkpt>
      <trkpt lat="50.0378" lon="1.9954">
        <ele>70.7</ele>
        <time>2022-04-17T10:30:08Z</time>
      </trkpt>
      <trkpt lat="50.03781" lon="1.99539">
        <ele>70.7</ele>
        <time>2022-04-17T10:30:09Z</time>
      </trkpt>
      <trkpt lat="50.03782" lon="1.99538">
        <ele>70.6</ele>
        <time>2022-04-17T10:30:10Z</time>
      </trkpt>
      <trkpt lat="50.03783" lon="1.99537">
        <ele>70.6</ele>
        <time>2022-04-17T10:30:11Z</time>
      </trkpt>
      <trkpt lat="50.03784" lon="1.99536">
        <ele>70.6</ele>
        <time>2022-04-17T10:30:12Z</time>
      </trkpt>
      <trkpt lat="50.03785" lon="1.99535">
        <ele>70.5</ele>
        <time>2022-04-17T10:30:13Z</time>
      </trkpt>
      <trkpt lat="50.03786" lon="1.99534">
        <ele>70.5</ele>
        <time>2022-04-17T10:30:15Z</time>
      </trkpt>
      <trkpt lat="50.03788" lon="1.99532">
        <ele>70.4</ele>
        <time>2022-04-17T10:30:16Z</time>
      </trkpt>
      <trkpt lat="50.03789" lon="1.99531">
        <ele>70.4</ele>
        <time>2022-04-17T10:30:17Z</time>
      </trkpt>
      <trkpt lat="50.0379" lon="1.9953">
        <ele>70.3</ele>
        <time>2022-04-17T10:30:18Z</time>
      </trkpt>
      <trkpt lat="50.03792" lon="1.99527">
        <ele>70.3</ele>
        <time>2022-04-17T10:30:20Z</time>
      </trkpt>
      <trkpt lat="50.03793" lon="1.99526">
        <ele>70.2</ele>
        <time>2022-04-17T10:30:21Z</time>
      </trkpt>
      <trkpt lat="50.03794" lon="1.99524">
        <ele>70.2</ele>
        <time>2022-04-17T10:30:22Z</time>
      </trkpt>
      <trkpt lat="50.03795" lon="1.99522">
        <ele>70.1</ele>
        <time>2022-04-17T10:30:23Z</time>
      </trkpt>
      <trkpt lat="50.03796" lon="1.99521">
        <ele>70.1</ele>
        <time>2022-04-17T10:30:24Z</time>
      </trkpt>
      <trkpt lat="50.03797" lon="1.9952">
        <ele>70.1</ele>
        <time>2022-04-17T10:30:25Z</time>
      </trkpt>
      <trkpt lat="50.03797" lon="1.99519">
        <ele>70</ele>
        <time>2022-04-17T10:30:26Z</time>
      </trkpt>
      <trkpt lat="50.03798" lon="1.99518">
        <ele>70</ele>
        <time>2022-04-17T10:30:27Z</time>
      </trkpt>
      <trkpt lat="50.038" lon="1.99515">
        <ele>70</ele>
        <time>2022-04-17T10:30:29Z</time>
      </trkpt>
      <trkpt lat="50.03801" lon="1.99514">
        <ele>69.9</ele>
        <time>2022-04-17T10:30:30Z</time>
      </trkpt>
      <trkpt lat="50.03802" lon="1.99512">
        <ele>69.9</ele>
        <time>2022-04-17T10:30:32Z</time>
      </trkpt>
      <trkpt lat="50.03804" lon="1.99511">
        <ele>69.9</ele>
        <time>2022-04-17T10:30:33Z</time>
      </trkpt>
      <trkpt lat="50.03805" lon="1.9951">
        <ele>69.9</ele>
        <time>2022-04-17T10:30:34Z</time>
      </trkpt>
      <trkpt lat="50.03806" lon="1.99508">
        <ele>69.8</ele>
        <time>2022-04-17T10:30:35Z</time>
      </trkpt>
      <trkpt lat="50.03807" lon="1.99507">
        <ele>69.8</ele>
        <time>2022-04-17T10:30:36Z</time>
      </trkpt>
      <trkpt lat="50.03809" lon="1.99504">
        <ele>69.8</ele>
        <time>2022-04-17T10:30:38Z</time>
      </trkpt>
      <trkpt lat="50.0381" lon="1.99503">
        <ele>69.8</ele>
        <time>2022-04-17T10:30:39Z</time>
      </trkpt>
      <trkpt lat="50.03812" lon="1.99502">
        <ele>69.8</ele>
        <time>2022-04-17T10:30:40Z</time>
      </trkpt>
      <trkpt lat="50.03812" lon="1.99501">
        <ele>69.8</ele>
        <time>2022-04-17T10:30:41Z</time>
      </trkpt>
      <trkpt lat="50.03813" lon="1.995">
        <ele>69.8</ele>
        <time>2022-04-17T10:30:42Z</time>
      </trkpt>
      <trkpt lat="50.03814" lon="1.995">
        <ele>69.8</ele>
        <time>2022-04-17T10:30:43Z</time>
      </trkpt>
      <trkpt lat="50.03815" lon="1.99499">
        <ele>69.8</ele>
        <time>2022-04-17T10:30:44Z</time>
      </trkpt>
      <trkpt lat="50.03816" lon="1.99498">
        <ele>69.8</ele>
        <time>2022-04-17T10:30:45Z</time>
      </trkpt>
      <trkpt lat="50.03817" lon="1.99497">
        <ele>69.8</ele>
        <time>2022-04-17T10:30:47Z</time>
      </trkpt>
      <trkpt lat="50.03818" lon="1.99495">
        <ele>69.8</ele>
        <time>2022-04-17T10:30:48Z</time>
      </trkpt>
      <trkpt lat="50.03819" lon="1.99494">
        <ele>69.8</ele>
        <time>2022-04-17T10:30:49Z</time>
      </trkpt>
      <trkpt lat="50.0382" lon="1.99493">
        <ele>69.8</ele>
        <time>2022-04-17T10:30:50Z</time>
      </trkpt>
      <trkpt lat="50.03821" lon="1.99491">
        <ele>69.8</ele>
        <time>2022-04-17T10:30:51Z</time>
      </trkpt>
      <trkpt lat="50.03822" lon="1.9949">
        <ele>69.8</ele>
        <time>2022-04-17T10:30:52Z</time>
      </trkpt>
      <trkpt lat="50.03823" lon="1.99489">
        <ele>69.8</ele>
        <time>2022-04-17T10:30:53Z</time>
      </trkpt>
      <trkpt lat="50.03823" lon="1.99488">
        <ele>69.8</ele>
        <time>2022-04-17T10:30:54Z</time>
      </trkpt>
      <trkpt lat="50.03825" lon="1.99485">
        <ele>69.8</ele>
        <time>2022-04-17T10:30:56Z</time>
      </trkpt>
      <trkpt lat="50.03825" lon="1.99483">
        <ele>69.8</ele>
        <time>2022-04-17T10:30:58Z</time>
      </trkpt>
      <trkpt lat="50.03826" lon="1.99482">
        <ele>69.8</ele>
        <time>2022-04-17T10:30:59Z</time>
      </trkpt>
      <trkpt lat="50.03828" lon="1.99479">
        <ele>69.8</ele>
        <time>2022-04-17T10:31:01Z</time>
      </trkpt>
      <trkpt lat="50.03829" lon="1.99477">
        <ele>69.8</ele>
        <time>2022-04-17T10:31:02Z</time>
      </trkpt>
      <trkpt lat="50.0383" lon="1.99476">
        <ele>69.9</ele>
        <time>2022-04-17T10:31:03Z</time>
      </trkpt>
      <trkpt lat="50.0383" lon="1.99474">
        <ele>69.9</ele>
        <time>2022-04-17T10:31:04Z</time>
      </trkpt>
      <trkpt lat="50.03831" lon="1.99473">
        <ele>69.9</ele>
        <time>2022-04-17T10:31:06Z</time>
      </trkpt>
      <trkpt lat="50.03831" lon="1.99471">
        <ele>69.9</ele>
        <time>2022-04-17T10:31:07Z</time>
      </trkpt>
      <trkpt lat="50.03832" lon="1.99469">
        <ele>69.9</ele>
        <time>2022-04-17T10:31:08Z</time>
      </trkpt>
      <trkpt lat="50.03832" lon="1.99467">
        <ele>70</ele>
        <time>2022-04-17T10:31:09Z</time>
      </trkpt>
      <trkpt lat="50.03833" lon="1.99464">
        <ele>70</ele>
        <time>2022-04-17T10:31:11Z</time>
      </trkpt>
      <trkpt lat="50.03833" lon="1.99463">
        <ele>70</ele>
        <time>2022-04-17T10:31:12Z</time>
      </trkpt>
      <trkpt lat="50.03833" lon="1.99461">
        <ele>70</ele>
        <time>2022-04-17T10:31:13Z</time>
      </trkpt>
      <trkpt lat="50.03833" lon="1.99459">
        <ele>70.1</ele>
        <time>2022-04-17T10:31:14Z</time>
      </trkpt>
      <trkpt lat="50.03834" lon="1.99458">
        <ele>70.1</ele>
        <time>2022-04-17T10:31:15Z</time>
      </trkpt>
      <trkpt lat="50.03834" lon="1.99456">
        <ele>70.1</ele>
        <time>2022-04-17T10:31:16Z</time>
      </trkpt>
      <trkpt lat="50.03834" lon="1.99454">
        <ele>70.1</ele>
        <time>2022-04-17T10:31:17Z</time>
      </trkpt>
      <trkpt lat="50.03835" lon="1.99453">
        <ele>70.2</ele>
        <time>2022-04-17T10:31:18Z</time>
      </trkpt>
      <trkpt lat="50.03835" lon="1.99452">
        <ele>70.2</ele>
        <time>2022-04-17T10:31:20Z</time>
      </trkpt>
      <trkpt lat="50.03836" lon="1.9945">
        <ele>70.2</ele>
        <time>2022-04-17T10:31:21Z</time>
      </trkpt>
      <trkpt lat="50.03836" lon="1.99448">
        <ele>70.3</ele>
        <time>2022-04-17T10:31:22Z</time>
      </trkpt>
      <trkpt lat="50.03836" lon="1.99447">
        <ele>70.3</ele>
        <time>2022-04-17T10:31:23Z</time>
      </trkpt>
      <trkpt lat="50.03837" lon="1.99445">
        <ele>70.4</ele>
        <time>2022-04-17T10:31:24Z</time>
      </trkpt>
      <trkpt lat="50.03837" lon="1.99444">
        <ele>70.4</ele>
        <time>2022-04-17T10:31:26Z</time>
      </trkpt>
      <trkpt lat="50.03838" lon="1.99442">
        <ele>70.4</ele>
        <time>2022-04-17T10:31:27Z</time>
      </trkpt>
      <trkpt lat="50.03838" lon="1.99441">
        <ele>70.5</ele>
        <time>2022-04-17T10:31:28Z</time>
      </trkpt>
      <trkpt lat="50.03839" lon="1.99439">
        <ele>70.5</ele>
        <time>2022-04-17T10:31:29Z</time>
      </trkpt>
      <trkpt lat="50.03839" lon="1.99438">
        <ele>70.6</ele>
        <time>2022-04-17T10:31:30Z</time>
      </trkpt>
      <trkpt lat="50.0384" lon="1.99436">
        <ele>70.6</ele>
        <time>2022-04-17T10:31:31Z</time>
      </trkpt>
      <trkpt lat="50.0384" lon="1.99435">
        <ele>70.7</ele>
        <time>2022-04-17T10:31:32Z</time>
      </trkpt>
      <trkpt lat="50.03841" lon="1.99434">
        <ele>70.7</ele>
        <time>2022-04-17T10:31:33Z</time>
      </trkpt>
      <trkpt lat="50.03842" lon="1.99431">
        <ele>70.8</ele>
        <time>2022-04-17T10:31:35Z</time>
      </trkpt>
      <trkpt lat="50.03843" lon="1.9943">
        <ele>70.8</ele>
        <time>2022-04-17T10:31:36Z</time>
      </trkpt>
      <trkpt lat="50.03843" lon="1.99429">
        <ele>70.8</ele>
        <time>2022-04-17T10:31:37Z</time>
      </trkpt>
      <trkpt lat="50.03844" lon="1.99428">
        <ele>70.9</ele>
        <time>2022-04-17T10:31:38Z</time>
      </trkpt>
      <trkpt lat="50.03844" lon="1.99426">
        <ele>70.9</ele>
        <time>2022-04-17T10:31:39Z</time>
      </trkpt>
      <trkpt lat="50.03845" lon="1.99425">
        <ele>71</ele>
        <time>2022-04-17T10:31:40Z</time>
      </trkpt>
      <trkpt lat="50.03846" lon="1.99422">
        <ele>71.1</ele>
        <time>2022-04-17T10:31:41Z</time>
      </trkpt>
      <trkpt lat="50.03847" lon="1.9942">
        <ele>71.1</ele>
        <time>2022-04-17T10:31:43Z</time>
      </trkpt>
      <trkpt lat="50.03848" lon="1.99419">
        <ele>71.2</ele>
        <time>2022-04-17T10:31:44Z</time>
      </trkpt>
      <trkpt lat="50.03848" lon="1.99417">
        <ele>71.2</ele>
        <time>2022-04-17T10:31:45Z</time>
      </trkpt>
      <trkpt lat="50.03849" lon="1.99416">
        <ele>71.3</ele>
        <time>2022-04-17T10:31:46Z</time>
      </trkpt>
      <trkpt lat="50.0385" lon="1.99413">
        <ele>71.3</ele>
        <time>2022-04-17T10:31:47Z</time>
      </trkpt>
      <trkpt lat="50.0385" lon="1.99412">
        <ele>71.4</ele>
        <time>2022-04-17T10:31:49Z</time>
      </trkpt>
      <trkpt lat="50.0385" lon="1.99411">
        <ele>71.4</ele>
        <time>2022-04-17T10:31:50Z</time>
      </trkpt>
      <trkpt lat="50.03851" lon="1.99409">
        <ele>71.4</ele>
        <time>2022-04-17T10:31:51Z</time>
      </trkpt>
      <trkpt lat="50.03852" lon="1.99408">
        <ele>71.5</ele>
        <time>2022-04-17T10:31:52Z</time>
      </trkpt>
      <trkpt lat="50.03852" lon="1.99406">
        <ele>71.5</ele>
        <time>2022-04-17T10:31:53Z</time>
      </trkpt>
      <trkpt lat="50.03853" lon="1.99405">
        <ele>71.5</ele>
        <time>2022-04-17T10:31:54Z</time>
      </trkpt>
      <trkpt lat="50.03853" lon="1.99403">
        <ele>71.6</ele>
        <time>2022-04-17T10:31:55Z</time>
      </trkpt>
      <trkpt lat="50.03854" lon="1.99401">
        <ele>71.6</ele>
        <time>2022-04-17T10:31:57Z</time>
      </trkpt>
      <trkpt lat="50.03855" lon="1.99398">
        <ele>71.7</ele>
        <time>2022-04-17T10:31:58Z</time>
      </trkpt>
      <trkpt lat="50.03855" lon="1.99397">
        <ele>71.7</ele>
        <time>2022-04-17T10:31:59Z</time>
      </trkpt>
      <trkpt lat="50.03855" lon="1.99396">
        <ele>71.7</ele>
        <time>2022-04-17T10:32:00Z</time>
      </trkpt>
      <trkpt lat="50.03855" lon="1.99394">
        <ele>71.8</ele>
        <time>2022-04-17T10:32:01Z</time>
      </trkpt>
      <trkpt lat="50.03856" lon="1.99392">
        <ele>71.8</ele>
        <time>2022-04-17T10:32:02Z</time>
      </trkpt>
      <trkpt lat="50.03856" lon="1.9939">
        <ele>71.9</ele>
        <time>2022-04-17T10:32:03Z</time>
      </trkpt>
      <trkpt lat="50.03856" lon="1.99389">
        <ele>71.9</ele>
        <time>2022-04-17T10:32:04Z</time>
      </trkpt>
      <trkpt lat="50.03857" lon="1.99387">
        <ele>71.9</ele>
        <time>2022-04-17T10:32:06Z</time>
      </trkpt>
      <trkpt lat="50.03857" lon="1.99385">
        <ele>72</ele>
        <time>2022-04-17T10:32:07Z</time>
      </trkpt>
      <trkpt lat="50.03857" lon="1.99382">
        <ele>72</ele>
        <time>2022-04-17T10:32:08Z</time>
      </trkpt>
      <trkpt lat="50.03858" lon="1.9938">
        <ele>72.1</ele>
        <time>2022-04-17T10:32:09Z</time>
      </trkpt>
      <trkpt lat="50.03858" lon="1.99379">
        <ele>72.1</ele>
        <time>2022-04-17T10:32:10Z</time>
      </trkpt>
      <trkpt lat="50.03858" lon="1.99377">
        <ele>72.1</ele>
        <time>2022-04-17T10:32:11Z</time>
      </trkpt>
      <trkpt lat="50.03858" lon="1.99375">
        <ele>72.2</ele>
        <time>2022-04-17T10:32:12Z</time>
      </trkpt>
      <trkpt lat="50.03859" lon="1.99373">
        <ele>72.2</ele>
        <time>2022-04-17T10:32:14Z</time>
      </trkpt>
      <trkpt lat="50.03859" lon="1.9937">
        <ele>72.3</ele>
        <time>2022-04-17T10:32:15Z</time>
      </trkpt>
      <trkpt lat="50.0386" lon="1.99369">
        <ele>72.3</ele>
        <time>2022-04-17T10:32:16Z</time>
      </trkpt>
      <trkpt lat="50.0386" lon="1.99368">
        <ele>72.4</ele>
        <time>2022-04-17T10:32:17Z</time>
      </trkpt>
      <trkpt lat="50.03861" lon="1.99366">
        <ele>72.4</ele>
        <time>2022-04-17T10:32:18Z</time>
      </trkpt>
      <trkpt lat="50.03862" lon="1.99365">
        <ele>72.5</ele>
        <time>2022-04-17T10:32:19Z</time>
      </trkpt>
      <trkpt lat="50.03862" lon="1.99363">
        <ele>72.5</ele>
        <time>2022-04-17T10:32:21Z</time>
      </trkpt>
      <trkpt lat="50.03863" lon="1.99361">
        <ele>72.6</ele>
        <time>2022-04-17T10:32:22Z</time>
      </trkpt>
      <trkpt lat="50.03864" lon="1.9936">
        <ele>72.6</ele>
        <time>2022-04-17T10:32:23Z</time>
      </trkpt>
      <trkpt lat="50.03864" lon="1.99358">
        <ele>72.6</ele>
        <time>2022-04-17T10:32:24Z</time>
      </trkpt>
      <trkpt lat="50.03864" lon="1.99356">
        <ele>72.7</ele>
        <time>2022-04-17T10:32:25Z</time>
      </trkpt>
      <trkpt lat="50.03865" lon="1.99355">
        <ele>72.7</ele>
        <time>2022-04-17T10:32:26Z</time>
      </trkpt>
      <trkpt lat="50.03866" lon="1.99353">
        <ele>72.8</ele>
        <time>2022-04-17T10:32:28Z</time>
      </trkpt>
      <trkpt lat="50.03866" lon="1.99352">
        <ele>72.8</ele>
        <time>2022-04-17T10:32:29Z</time>
      </trkpt>
      <trkpt lat="50.03867" lon="1.9935">
        <ele>72.8</ele>
        <time>2022-04-17T10:32:30Z</time>
      </trkpt>
      <trkpt lat="50.03867" lon="1.99349">
        <ele>72.8</ele>
        <time>2022-04-17T10:32:31Z</time>
      </trkpt>
      <trkpt lat="50.03867" lon="1.99347">
        <ele>72.9</ele>
        <time>2022-04-17T10:32:32Z</time>
      </trkpt>
      <trkpt lat="50.03868" lon="1.99346">
        <ele>72.9</ele>
        <time>2022-04-17T10:32:33Z</time>
      </trkpt>
      <trkpt lat="50.03868" lon="1.99345">
        <ele>72.9</ele>
        <time>2022-04-17T10:32:34Z</time>
      </trkpt>
      <trkpt lat="50.03869" lon="1.99344">
        <ele>73</ele>
        <time>2022-04-17T10:32:35Z</time>
      </trkpt>
      <trkpt lat="50.03869" lon="1.99343">
        <ele>73</ele>
        <time>2022-04-17T10:32:36Z</time>
      </trkpt>
      <trkpt lat="50.03869" lon="1.99341">
        <ele>73</ele>
        <time>2022-04-17T10:32:37Z</time>
      </trkpt>
      <trkpt lat="50.03869" lon="1.9934">
        <ele>73</ele>
        <time>2022-04-17T10:32:38Z</time>
      </trkpt>
      <trkpt lat="50.03869" lon="1.99338">
        <ele>73.1</ele>
        <time>2022-04-17T10:32:39Z</time>
      </trkpt>
      <trkpt lat="50.0387" lon="1.99337">
        <ele>73.1</ele>
        <time>2022-04-17T10:32:40Z</time>
      </trkpt>
      <trkpt lat="50.0387" lon="1.99335">
        <ele>73.1</ele>
        <time>2022-04-17T10:32:41Z</time>
      </trkpt>
      <trkpt lat="50.0387" lon="1.99334">
        <ele>73.2</ele>
        <time>2022-04-17T10:32:42Z</time>
      </trkpt>
      <trkpt lat="50.0387" lon="1.99332">
        <ele>73.2</ele>
        <time>2022-04-17T10:32:43Z</time>
      </trkpt>
      <trkpt lat="50.0387" lon="1.99331">
        <ele>73.2</ele>
        <time>2022-04-17T10:32:44Z</time>
      </trkpt>
      <trkpt lat="50.0387" lon="1.99329">
        <ele>73.2</ele>
        <time>2022-04-17T10:32:46Z</time>
      </trkpt>
      <trkpt lat="50.0387" lon="1.99328">
        <ele>73.3</ele>
        <time>2022-04-17T10:32:47Z</time>
      </trkpt>
      <trkpt lat="50.0387" lon="1.99326">
        <ele>73.3</ele>
        <time>2022-04-17T10:32:48Z</time>
      </trkpt>
      <trkpt lat="50.03871" lon="1.99324">
        <ele>73.3</ele>
        <time>2022-04-17T10:32:49Z</time>
      </trkpt>
      <trkpt lat="50.03871" lon="1.99323">
        <ele>73.4</ele>
        <time>2022-04-17T10:32:50Z</time>
      </trkpt>
      <trkpt lat="50.03872" lon="1.99321">
        <ele>73.4</ele>
        <time>2022-04-17T10:32:51Z</time>
      </trkpt>
      <trkpt lat="50.03872" lon="1.9932">
        <ele>73.4</ele>
        <time>2022-04-17T10:32:52Z</time>
      </trkpt>
      <trkpt lat="50.03873" lon="1.99318">
        <ele>73.5</ele>
        <time>2022-04-17T10:32:54Z</time>
      </trkpt>
      <trkpt lat="50.03873" lon="1.99317">
        <ele>73.5</ele>
        <time>2022-04-17T10:32:55Z</time>
      </trkpt>
      <trkpt lat="50.03873" lon="1.99315">
        <ele>73.5</ele>
        <time>2022-04-17T10:32:56Z</time>
      </trkpt>
      <trkpt lat="50.03874" lon="1.99314">
        <ele>73.5</ele>
        <time>2022-04-17T10:32:57Z</time>
      </trkpt>
      <trkpt lat="50.03874" lon="1.99312">
        <ele>73.6</ele>
        <time>2022-04-17T10:32:58Z</time>
      </trkpt>
      <trkpt lat="50.03875" lon="1.99311">
        <ele>73.6</ele>
        <time>2022-04-17T10:32:59Z</time>
      </trkpt>
      <trkpt lat="50.03875" lon="1.9931">
        <ele>73.6</ele>
        <time>2022-04-17T10:33:01Z</time>
      </trkpt>
      <trkpt lat="50.03876" lon="1.99309">
        <ele>73.6</ele>
        <time>2022-04-17T10:33:02Z</time>
      </trkpt>
      <trkpt lat="50.03877" lon="1.99308">
        <ele>73.7</ele>
        <time>2022-04-17T10:33:03Z</time>
      </trkpt>
      <trkpt lat="50.03878" lon="1.99306">
        <ele>73.7</ele>
        <time>2022-04-17T10:33:04Z</time>
      </trkpt>
      <trkpt lat="50.03878" lon="1.99305">
        <ele>73.7</ele>
        <time>2022-04-17T10:33:05Z</time>
      </trkpt>
      <trkpt lat="50.03879" lon="1.99302">
        <ele>73.8</ele>
        <time>2022-04-17T10:33:07Z</time>
      </trkpt>
      <trkpt lat="50.0388" lon="1.99301">
        <ele>73.8</ele>
        <time>2022-04-17T10:33:08Z</time>
      </trkpt>
      <trkpt lat="50.0388" lon="1.993">
        <ele>73.8</ele>
        <time>2022-04-17T10:33:09Z</time>
      </trkpt>
      <trkpt lat="50.03881" lon="1.99299">
        <ele>73.8</ele>
        <time>2022-04-17T10:33:10Z</time>
      </trkpt>
      <trkpt lat="50.03882" lon="1.99298">
        <ele>73.8</ele>
        <time>2022-04-17T10:33:11Z</time>
      </trkpt>
      <trkpt lat="50.03882" lon="1.99297">
        <ele>73.9</ele>
        <time>2022-04-17T10:33:12Z</time>
      </trkpt>
      <trkpt lat="50.03883" lon="1.99297">
        <ele>73.9</ele>
        <time>2022-04-17T10:33:13Z</time>
      </trkpt>
      <trkpt lat="50.03884" lon="1.99296">
        <ele>73.9</ele>
        <time>2022-04-17T10:33:14Z</time>
      </trkpt>
      <trkpt lat="50.03885" lon="1.99295">
        <ele>73.9</ele>
        <time>2022-04-17T10:33:15Z</time>
      </trkpt>
      <trkpt lat="50.03886" lon="1.99294">
        <ele>73.9</ele>
        <time>2022-04-17T10:33:17Z</time>
      </trkpt>
      <trkpt lat="50.03887" lon="1.99293">
        <ele>74</ele>
        <time>2022-04-17T10:33:19Z</time>
      </trkpt>
      <trkpt lat="50.03888" lon="1.99292">
        <ele>74</ele>
        <time>2022-04-17T10:33:20Z</time>
      </trkpt>
      <trkpt lat="50.03889" lon="1.99291">
        <ele>74</ele>
        <time>2022-04-17T10:33:21Z</time>
      </trkpt>
      <trkpt lat="50.0389" lon="1.9929">
        <ele>74</ele>
        <time>2022-04-17T10:33:22Z</time>
      </trkpt>
      <trkpt lat="50.0389" lon="1.99288">
        <ele>74</ele>
        <time>2022-04-17T10:33:23Z</time>
      </trkpt>
      <trkpt lat="50.03891" lon="1.99287">
        <ele>74</ele>
        <time>2022-04-17T10:33:24Z</time>
      </trkpt>
      <trkpt lat="50.03891" lon="1.99285">
        <ele>74</ele>
        <time>2022-04-17T10:33:25Z</time>
      </trkpt>
      <trkpt lat="50.03892" lon="1.99282">
        <ele>74</ele>
        <time>2022-04-17T10:33:27Z</time>
      </trkpt>
      <trkpt lat="50.03892" lon="1.9928">
        <ele>74.1</ele>
        <time>2022-04-17T10:33:28Z</time>
      </trkpt>
      <trkpt lat="50.03893" lon="1.99278">
        <ele>74.1</ele>
        <time>2022-04-17T10:33:29Z</time>
      </trkpt>
      <trkpt lat="50.03893" lon="1.99276">
        <ele>74.1</ele>
        <time>2022-04-17T10:33:30Z</time>
      </trkpt>
      <trkpt lat="50.03894" lon="1.99274">
        <ele>74.1</ele>
        <time>2022-04-17T10:33:31Z</time>
      </trkpt>
      <trkpt lat="50.03894" lon="1.99272">
        <ele>74.1</ele>
        <time>2022-04-17T10:33:32Z</time>
      </trkpt>
      <trkpt lat="50.03895" lon="1.9927">
        <ele>74.1</ele>
        <time>2022-04-17T10:33:34Z</time>
      </trkpt>
      <trkpt lat="50.03895" lon="1.99268">
        <ele>74.1</ele>
        <time>2022-04-17T10:33:35Z</time>
      </trkpt>
      <trkpt lat="50.03896" lon="1.99266">
        <ele>74.1</ele>
        <time>2022-04-17T10:33:36Z</time>
      </trkpt>
      <trkpt lat="50.03897" lon="1.99263">
        <ele>74.1</ele>
        <time>2022-04-17T10:33:37Z</time>
      </trkpt>
      <trkpt lat="50.03898" lon="1.99262">
        <ele>74.1</ele>
        <time>2022-04-17T10:33:38Z</time>
      </trkpt>
      <trkpt lat="50.03898" lon="1.99261">
        <ele>74.1</ele>
        <time>2022-04-17T10:33:39Z</time>
      </trkpt>
      <trkpt lat="50.039" lon="1.99259">
        <ele>74.1</ele>
        <time>2022-04-17T10:33:40Z</time>
      </trkpt>
      <trkpt lat="50.039" lon="1.99258">
        <ele>74</ele>
        <time>2022-04-17T10:33:42Z</time>
      </trkpt>
      <trkpt lat="50.03901" lon="1.99257">
        <ele>74</ele>
        <time>2022-04-17T10:33:43Z</time>
      </trkpt>
      <trkpt lat="50.03902" lon="1.99255">
        <ele>74</ele>
        <time>2022-04-17T10:33:44Z</time>
      </trkpt>
      <trkpt lat="50.03903" lon="1.99254">
        <ele>74</ele>
        <time>2022-04-17T10:33:45Z</time>
      </trkpt>
      <trkpt lat="50.03903" lon="1.99253">
        <ele>74</ele>
        <time>2022-04-17T10:33:46Z</time>
      </trkpt>
      <trkpt lat="50.03904" lon="1.99251">
        <ele>74</ele>
        <time>2022-04-17T10:33:47Z</time>
      </trkpt>
      <trkpt lat="50.03905" lon="1.99249">
        <ele>74</ele>
        <time>2022-04-17T10:33:48Z</time>
      </trkpt>
      <trkpt lat="50.03905" lon="1.99248">
        <ele>74</ele>
        <time>2022-04-17T10:33:49Z</time>
      </trkpt>
      <trkpt lat="50.03906" lon="1.99246">
        <ele>73.9</ele>
        <time>2022-04-17T10:33:50Z</time>
      </trkpt>
      <trkpt lat="50.03906" lon="1.99245">
        <ele>73.9</ele>
        <time>2022-04-17T10:33:51Z</time>
      </trkpt>
      <trkpt lat="50.03907" lon="1.99243">
        <ele>73.9</ele>
        <time>2022-04-17T10:33:52Z</time>
      </trkpt>
      <trkpt lat="50.03908" lon="1.9924">
        <ele>73.9</ele>
        <time>2022-04-17T10:33:53Z</time>
      </trkpt>
      <trkpt lat="50.03908" lon="1.99238">
        <ele>73.8</ele>
        <time>2022-04-17T10:33:55Z</time>
      </trkpt>
      <trkpt lat="50.03909" lon="1.99236">
        <ele>73.8</ele>
        <time>2022-04-17T10:33:56Z</time>
      </trkpt>
      <trkpt lat="50.0391" lon="1.99235">
        <ele>73.8</ele>
        <time>2022-04-17T10:33:58Z</time>
      </trkpt>
      <trkpt lat="50.0391" lon="1.99233">
        <ele>73.8</ele>
        <time>2022-04-17T10:33:59Z</time>
      </trkpt>
      <trkpt lat="50.03911" lon="1.99231">
        <ele>73.7</ele>
        <time>2022-04-17T10:34:00Z</time>
      </trkpt>
      <trkpt lat="50.03911" lon="1.99229">
        <ele>73.7</ele>
        <time>2022-04-17T10:34:01Z</time>
      </trkpt>
      <trkpt lat="50.03912" lon="1.99228">
        <ele>73.7</ele>
        <time>2022-04-17T10:34:02Z</time>
      </trkpt>
      <trkpt lat="50.03912" lon="1.99227">
        <ele>73.6</ele>
        <time>2022-04-17T10:34:03Z</time>
      </trkpt>
      <trkpt lat="50.03913" lon="1.99225">
        <ele>73.6</ele>
        <time>2022-04-17T10:34:04Z</time>
      </trkpt>
      <trkpt lat="50.03913" lon="1.99224">
        <ele>73.5</ele>
        <time>2022-04-17T10:34:05Z</time>
      </trkpt>
      <trkpt lat="50.03914" lon="1.99221">
        <ele>73.5</ele>
        <time>2022-04-17T10:34:07Z</time>
      </trkpt>
      <trkpt lat="50.03915" lon="1.9922">
        <ele>73.4</ele>
        <time>2022-04-17T10:34:08Z</time>
      </trkpt>
      <trkpt lat="50.03916" lon="1.99218">
        <ele>73.4</ele>
        <time>2022-04-17T10:34:09Z</time>
      </trkpt>
      <trkpt lat="50.03917" lon="1.99217">
        <ele>73.4</ele>
        <time>2022-04-17T10:34:10Z</time>
      </trkpt>
      <trkpt lat="50.03918" lon="1.99216">
        <ele>73.3</ele>
        <time>2022-04-17T10:34:11Z</time>
      </trkpt>
      <trkpt lat="50.03919" lon="1.99214">
        <ele>73.3</ele>
        <time>2022-04-17T10:34:12Z</time>
      </trkpt>
      <trkpt lat="50.03919" lon="1.99213">
        <ele>73.2</ele>
        <time>2022-04-17T10:34:13Z</time>
      </trkpt>
      <trkpt lat="50.0392" lon="1.99211">
        <ele>73.1</ele>
        <time>2022-04-17T10:34:15Z</time>
      </trkpt>
      <trkpt lat="50.03921" lon="1.99209">
        <ele>73.1</ele>
        <time>2022-04-17T10:34:16Z</time>
      </trkpt>
      <trkpt lat="50.03922" lon="1.99206">
        <ele>73</ele>
        <time>2022-04-17T10:34:17Z</time>
      </trkpt>
      <trkpt lat="50.03922" lon="1.99205">
        <ele>73</ele>
        <time>2022-04-17T10:34:18Z</time>
      </trkpt>
      <trkpt lat="50.03923" lon="1.99204">
        <ele>72.9</ele>
        <time>2022-04-17T10:34:19Z</time>
      </trkpt>
      <trkpt lat="50.03924" lon="1.992">
        <ele>72.8</ele>
        <time>2022-04-17T10:34:20Z</time>
      </trkpt>
      <trkpt lat="50.03924" lon="1.99199">
        <ele>72.8</ele>
        <time>2022-04-17T10:34:22Z</time>
      </trkpt>
      <trkpt lat="50.03925" lon="1.99197">
        <ele>72.7</ele>
        <time>2022-04-17T10:34:23Z</time>
      </trkpt>
      <trkpt lat="50.03925" lon="1.99195">
        <ele>72.7</ele>
        <time>2022-04-17T10:34:25Z</time>
      </trkpt>
      <trkpt lat="50.03925" lon="1.99193">
        <ele>72.6</ele>
        <time>2022-04-17T10:34:26Z</time>
      </trkpt>
      <trkpt lat="50.03926" lon="1.99191">
        <ele>72.5</ele>
        <time>2022-04-17T10:34:27Z</time>
      </trkpt>
      <trkpt lat="50.03927" lon="1.99189">
        <ele>72.5</ele>
        <time>2022-04-17T10:34:28Z</time>
      </trkpt>
      <trkpt lat="50.03928" lon="1.99186">
        <ele>72.4</ele>
        <time>2022-04-17T10:34:30Z</time>
      </trkpt>
      <trkpt lat="50.03929" lon="1.99185">
        <ele>72.3</ele>
        <time>2022-04-17T10:34:31Z</time>
      </trkpt>
      <trkpt lat="50.03929" lon="1.99183">
        <ele>72.3</ele>
        <time>2022-04-17T10:34:32Z</time>
      </trkpt>
      <trkpt lat="50.0393" lon="1.99182">
        <ele>72.2</ele>
        <time>2022-04-17T10:34:33Z</time>
      </trkpt>
      <trkpt lat="50.03931" lon="1.99179">
        <ele>72.1</ele>
        <time>2022-04-17T10:34:35Z</time>
      </trkpt>
      <trkpt lat="50.03932" lon="1.99177">
        <ele>72</ele>
        <time>2022-04-17T10:34:36Z</time>
      </trkpt>
      <trkpt lat="50.03932" lon="1.99176">
        <ele>72</ele>
        <time>2022-04-17T10:34:37Z</time>
      </trkpt>
      <trkpt lat="50.03933" lon="1.99175">
        <ele>71.9</ele>
        <time>2022-04-17T10:34:38Z</time>
      </trkpt>
      <trkpt lat="50.03933" lon="1.99173">
        <ele>71.9</ele>
        <time>2022-04-17T10:34:39Z</time>
      </trkpt>
      <trkpt lat="50.03934" lon="1.99172">
        <ele>71.8</ele>
        <time>2022-04-17T10:34:40Z</time>
      </trkpt>
      <trkpt lat="50.03934" lon="1.9917">
        <ele>71.8</ele>
        <time>2022-04-17T10:34:41Z</time>
      </trkpt>
      <trkpt lat="50.03935" lon="1.99168">
        <ele>71.7</ele>
        <time>2022-04-17T10:34:42Z</time>
      </trkpt>
      <trkpt lat="50.03935" lon="1.99167">
        <ele>71.6</ele>
        <time>2022-04-17T10:34:43Z</time>
      </trkpt>
      <trkpt lat="50.03936" lon="1.99164">
        <ele>71.5</ele>
        <time>2022-04-17T10:34:45Z</time>
      </trkpt>
      <trkpt lat="50.03937" lon="1.99163">
        <ele>71.4</ele>
        <time>2022-04-17T10:34:46Z</time>
      </trkpt>
      <trkpt lat="50.03938" lon="1.99161">
        <ele>71.3</ele>
        <time>2022-04-17T10:34:47Z</time>
      </trkpt>
      <trkpt lat="50.03939" lon="1.99159">
        <ele>71.3</ele>
        <time>2022-04-17T10:34:48Z</time>
      </trkpt>
      <trkpt lat="50.03939" lon="1.99158">
        <ele>71.2</ele>
        <time>2022-04-17T10:34:50Z</time>
      </trkpt>
      <trkpt lat="50.0394" lon="1.99156">
        <ele>71.1</ele>
        <time>2022-04-17T10:34:51Z</time>
      </trkpt>
      <trkpt lat="50.03941" lon="1.99153">
        <ele>71</ele>
        <time>2022-04-17T10:34:52Z</time>
      </trkpt>
      <trkpt lat="50.03941" lon="1.99152">
        <ele>70.9</ele>
        <time>2022-04-17T10:34:53Z</time>
      </trkpt>
      <trkpt lat="50.03942" lon="1.99151">
        <ele>70.9</ele>
        <time>2022-04-17T10:34:54Z</time>
      </trkpt>
      <trkpt lat="50.03942" lon="1.9915">
        <ele>70.8</ele>
        <time>2022-04-17T10:34:55Z</time>
      </trkpt>
      <trkpt lat="50.03943" lon="1.99148">
        <ele>70.7</ele>
        <time>2022-04-17T10:34:56Z</time>
      </trkpt>
      <trkpt lat="50.03944" lon="1.99145">
        <ele>70.6</ele>
        <time>2022-04-17T10:34:58Z</time>
      </trkpt>
      <trkpt lat="50.03945" lon="1.99144">
        <ele>70.5</ele>
        <time>2022-04-17T10:34:59Z</time>
      </trkpt>
      <trkpt lat="50.03946" lon="1.99143">
        <ele>70.5</ele>
        <time>2022-04-17T10:35:00Z</time>
      </trkpt>
      <trkpt lat="50.03947" lon="1.99142">
        <ele>70.4</ele>
        <time>2022-04-17T10:35:01Z</time>
      </trkpt>
      <trkpt lat="50.03947" lon="1.9914">
        <ele>70.3</ele>
        <time>2022-04-17T10:35:02Z</time>
      </trkpt>
      <trkpt lat="50.03948" lon="1.99139">
        <ele>70.3</ele>
        <time>2022-04-17T10:35:03Z</time>
      </trkpt>
      <trkpt lat="50.03949" lon="1.99137">
        <ele>70.2</ele>
        <time>2022-04-17T10:35:04Z</time>
      </trkpt>
      <trkpt lat="50.0395" lon="1.99134">
        <ele>70</ele>
        <time>2022-04-17T10:35:06Z</time>
      </trkpt>
      <trkpt lat="50.03951" lon="1.99133">
        <ele>70</ele>
        <time>2022-04-17T10:35:07Z</time>
      </trkpt>
      <trkpt lat="50.03951" lon="1.99132">
        <ele>69.9</ele>
        <time>2022-04-17T10:35:08Z</time>
      </trkpt>
      <trkpt lat="50.03952" lon="1.9913">
        <ele>69.8</ele>
        <time>2022-04-17T10:35:09Z</time>
      </trkpt>
      <trkpt lat="50.03953" lon="1.99129">
        <ele>69.8</ele>
        <time>2022-04-17T10:35:10Z</time>
      </trkpt>
      <trkpt lat="50.03953" lon="1.99127">
        <ele>69.7</ele>
        <time>2022-04-17T10:35:11Z</time>
      </trkpt>
      <trkpt lat="50.03954" lon="1.99126">
        <ele>69.6</ele>
        <time>2022-04-17T10:35:12Z</time>
      </trkpt>
      <trkpt lat="50.03955" lon="1.99125">
        <ele>69.5</ele>
        <time>2022-04-17T10:35:13Z</time>
      </trkpt>
      <trkpt lat="50.03956" lon="1.99123">
        <ele>69.5</ele>
        <time>2022-04-17T10:35:14Z</time>
      </trkpt>
      <trkpt lat="50.03957" lon="1.99122">
        <ele>69.4</ele>
        <time>2022-04-17T10:35:16Z</time>
      </trkpt>
      <trkpt lat="50.03958" lon="1.9912">
        <ele>69.3</ele>
        <time>2022-04-17T10:35:17Z</time>
      </trkpt>
      <trkpt lat="50.03959" lon="1.99118">
        <ele>69.2</ele>
        <time>2022-04-17T10:35:18Z</time>
      </trkpt>
      <trkpt lat="50.0396" lon="1.99117">
        <ele>69.1</ele>
        <time>2022-04-17T10:35:19Z</time>
      </trkpt>
      <trkpt lat="50.0396" lon="1.99116">
        <ele>69.1</ele>
        <time>2022-04-17T10:35:20Z</time>
      </trkpt>
      <trkpt lat="50.03961" lon="1.99114">
        <ele>69</ele>
        <time>2022-04-17T10:35:21Z</time>
      </trkpt>
      <trkpt lat="50.03961" lon="1.99112">
        <ele>68.9</ele>
        <time>2022-04-17T10:35:22Z</time>
      </trkpt>
      <trkpt lat="50.03962" lon="1.99111">
        <ele>68.9</ele>
        <time>2022-04-17T10:35:23Z</time>
      </trkpt>
      <trkpt lat="50.03962" lon="1.99109">
        <ele>68.8</ele>
        <time>2022-04-17T10:35:24Z</time>
      </trkpt>
      <trkpt lat="50.03963" lon="1.99107">
        <ele>68.7</ele>
        <time>2022-04-17T10:35:25Z</time>
      </trkpt>
      <trkpt lat="50.03963" lon="1.99105">
        <ele>68.6</ele>
        <time>2022-04-17T10:35:27Z</time>
      </trkpt>
      <trkpt lat="50.03964" lon="1.99103">
        <ele>68.6</ele>
        <time>2022-04-17T10:35:28Z</time>
      </trkpt>
      <trkpt lat="50.03964" lon="1.99101">
        <ele>68.5</ele>
        <time>2022-04-17T10:35:29Z</time>
      </trkpt>
      <trkpt lat="50.03965" lon="1.991">
        <ele>68.4</ele>
        <time>2022-04-17T10:35:30Z</time>
      </trkpt>
      <trkpt lat="50.03966" lon="1.99097">
        <ele>68.3</ele>
        <time>2022-04-17T10:35:32Z</time>
      </trkpt>
      <trkpt lat="50.03966" lon="1.99096">
        <ele>68.3</ele>
        <time>2022-04-17T10:35:33Z</time>
      </trkpt>
      <trkpt lat="50.03967" lon="1.99094">
        <ele>68.2</ele>
        <time>2022-04-17T10:35:34Z</time>
      </trkpt>
      <trkpt lat="50.03968" lon="1.99093">
        <ele>68.2</ele>
        <time>2022-04-17T10:35:35Z</time>
      </trkpt>
      <trkpt lat="50.03968" lon="1.99091">
        <ele>68.1</ele>
        <time>2022-04-17T10:35:36Z</time>
      </trkpt>
      <trkpt lat="50.03969" lon="1.9909">
        <ele>68</ele>
        <time>2022-04-17T10:35:38Z</time>
      </trkpt>
      <trkpt lat="50.0397" lon="1.99088">
        <ele>68</ele>
        <time>2022-04-17T10:35:39Z</time>
      </trkpt>
      <trkpt lat="50.03971" lon="1.99087">
        <ele>67.9</ele>
        <time>2022-04-17T10:35:40Z</time>
      </trkpt>
      <trkpt lat="50.03972" lon="1.99084">
        <ele>67.8</ele>
        <time>2022-04-17T10:35:42Z</time>
      </trkpt>
      <trkpt lat="50.03972" lon="1.99082">
        <ele>67.8</ele>
        <time>2022-04-17T10:35:43Z</time>
      </trkpt>
      <trkpt lat="50.03973" lon="1.99081">
        <ele>67.7</ele>
        <time>2022-04-17T10:35:44Z</time>
      </trkpt>
      <trkpt lat="50.03974" lon="1.99079">
        <ele>67.6</ele>
        <time>2022-04-17T10:35:45Z</time>
      </trkpt>
      <trkpt lat="50.03974" lon="1.99078">
        <ele>67.6</ele>
        <time>2022-04-17T10:35:46Z</time>
      </trkpt>
      <trkpt lat="50.03975" lon="1.99076">
        <ele>67.5</ele>
        <time>2022-04-17T10:35:47Z</time>
      </trkpt>
      <trkpt lat="50.03976" lon="1.99075">
        <ele>67.5</ele>
        <time>2022-04-17T10:35:48Z</time>
      </trkpt>
      <trkpt lat="50.03977" lon="1.99072">
        <ele>67.4</ele>
        <time>2022-04-17T10:35:50Z</time>
      </trkpt>
      <trkpt lat="50.03977" lon="1.99071">
        <ele>67.3</ele>
        <time>2022-04-17T10:35:51Z</time>
      </trkpt>
      <trkpt lat="50.03978" lon="1.99069">
        <ele>67.3</ele>
        <time>2022-04-17T10:35:52Z</time>
      </trkpt>
      <trkpt lat="50.03978" lon="1.99068">
        <ele>67.3</ele>
        <time>2022-04-17T10:35:53Z</time>
      </trkpt>
      <trkpt lat="50.03979" lon="1.99066">
        <ele>67.2</ele>
        <time>2022-04-17T10:35:54Z</time>
      </trkpt>
      <trkpt lat="50.03981" lon="1.99062">
        <ele>67.1</ele>
        <time>2022-04-17T10:35:56Z</time>
      </trkpt>
      <trkpt lat="50.03981" lon="1.99062">
        <ele>67.1</ele>
        <time>2022-04-17T10:35:57Z</time>
      </trkpt>
      <trkpt lat="50.03982" lon="1.9906">
        <ele>67</ele>
        <time>2022-04-17T10:35:58Z</time>
      </trkpt>
      <trkpt lat="50.03982" lon="1.99059">
        <ele>67</ele>
        <time>2022-04-17T10:35:59Z</time>
      </trkpt>
      <trkpt lat="50.03983" lon="1.99057">
        <ele>66.9</ele>
        <time>2022-04-17T10:36:00Z</time>
      </trkpt>
      <trkpt lat="50.03985" lon="1.99054">
        <ele>66.9</ele>
        <time>2022-04-17T10:36:02Z</time>
      </trkpt>
      <trkpt lat="50.03985" lon="1.99053">
        <ele>66.8</ele>
        <time>2022-04-17T10:36:03Z</time>
      </trkpt>
      <trkpt lat="50.03986" lon="1.99051">
        <ele>66.8</ele>
        <time>2022-04-17T10:36:04Z</time>
      </trkpt>
      <trkpt lat="50.03987" lon="1.9905">
        <ele>66.7</ele>
        <time>2022-04-17T10:36:05Z</time>
      </trkpt>
      <trkpt lat="50.03987" lon="1.99049">
        <ele>66.7</ele>
        <time>2022-04-17T10:36:06Z</time>
      </trkpt>
      <trkpt lat="50.03988" lon="1.99046">
        <ele>66.6</ele>
        <time>2022-04-17T10:36:08Z</time>
      </trkpt>
      <trkpt lat="50.03989" lon="1.99044">
        <ele>66.6</ele>
        <time>2022-04-17T10:36:09Z</time>
      </trkpt>
      <trkpt lat="50.03989" lon="1.99043">
        <ele>66.6</ele>
        <time>2022-04-17T10:36:10Z</time>
      </trkpt>
      <trkpt lat="50.0399" lon="1.99042">
        <ele>66.5</ele>
        <time>2022-04-17T10:36:11Z</time>
      </trkpt>
      <trkpt lat="50.03991" lon="1.99039">
        <ele>66.5</ele>
        <time>2022-04-17T10:36:12Z</time>
      </trkpt>
      <trkpt lat="50.03991" lon="1.99038">
        <ele>66.5</ele>
        <time>2022-04-17T10:36:13Z</time>
      </trkpt>
      <trkpt lat="50.03992" lon="1.99036">
        <ele>66.4</ele>
        <time>2022-04-17T10:36:14Z</time>
      </trkpt>
      <trkpt lat="50.03992" lon="1.99035">
        <ele>66.4</ele>
        <time>2022-04-17T10:36:15Z</time>
      </trkpt>
      <trkpt lat="50.03993" lon="1.99032">
        <ele>66.3</ele>
        <time>2022-04-17T10:36:16Z</time>
      </trkpt>
      <trkpt lat="50.03994" lon="1.9903">
        <ele>66.3</ele>
        <time>2022-04-17T10:36:18Z</time>
      </trkpt>
      <trkpt lat="50.03994" lon="1.99029">
        <ele>66.3</ele>
        <time>2022-04-17T10:36:19Z</time>
      </trkpt>
      <trkpt lat="50.03995" lon="1.99027">
        <ele>66.2</ele>
        <time>2022-04-17T10:36:20Z</time>
      </trkpt>
      <trkpt lat="50.03996" lon="1.99026">
        <ele>66.2</ele>
        <time>2022-04-17T10:36:21Z</time>
      </trkpt>
      <trkpt lat="50.03996" lon="1.99024">
        <ele>66.2</ele>
        <time>2022-04-17T10:36:22Z</time>
      </trkpt>
      <trkpt lat="50.03997" lon="1.99023">
        <ele>66.1</ele>
        <time>2022-04-17T10:36:23Z</time>
      </trkpt>
      <trkpt lat="50.03998" lon="1.99021">
        <ele>66.1</ele>
        <time>2022-04-17T10:36:25Z</time>
      </trkpt>
      <trkpt lat="50.04" lon="1.99017">
        <ele>66</ele>
        <time>2022-04-17T10:36:26Z</time>
      </trkpt>
      <trkpt lat="50.04" lon="1.99016">
        <ele>66</ele>
        <time>2022-04-17T10:36:27Z</time>
      </trkpt>
      <trkpt lat="50.04001" lon="1.99015">
        <ele>66</ele>
        <time>2022-04-17T10:36:28Z</time>
      </trkpt>
      <trkpt lat="50.04001" lon="1.99014">
        <ele>65.9</ele>
        <time>2022-04-17T10:36:29Z</time>
      </trkpt>
      <trkpt lat="50.04002" lon="1.99012">
        <ele>65.9</ele>
        <time>2022-04-17T10:36:30Z</time>
      </trkpt>
      <trkpt lat="50.04003" lon="1.9901">
        <ele>65.9</ele>
        <time>2022-04-17T10:36:31Z</time>
      </trkpt>
      <trkpt lat="50.04004" lon="1.99008">
        <ele>65.8</ele>
        <time>2022-04-17T10:36:32Z</time>
      </trkpt>
      <trkpt lat="50.04004" lon="1.99007">
        <ele>65.8</ele>
        <time>2022-04-17T10:36:33Z</time>
      </trkpt>
      <trkpt lat="50.04005" lon="1.99006">
        <ele>65.8</ele>
        <time>2022-04-17T10:36:34Z</time>
      </trkpt>
      <trkpt lat="50.04006" lon="1.99004">
        <ele>65.7</ele>
        <time>2022-04-17T10:36:35Z</time>
      </trkpt>
      <trkpt lat="50.04008" lon="1.98999">
        <ele>65.7</ele>
        <time>2022-04-17T10:36:37Z</time>
      </trkpt>
      <trkpt lat="50.04008" lon="1.98998">
        <ele>65.6</ele>
        <time>2022-04-17T10:36:38Z</time>
      </trkpt>
      <trkpt lat="50.04009" lon="1.98997">
        <ele>65.6</ele>
        <time>2022-04-17T10:36:39Z</time>
      </trkpt>
      <trkpt lat="50.04009" lon="1.98996">
        <ele>65.6</ele>
        <time>2022-04-17T10:36:40Z</time>
      </trkpt>
      <trkpt lat="50.0401" lon="1.98994">
        <ele>65.6</ele>
        <time>2022-04-17T10:36:42Z</time>
      </trkpt>
      <trkpt lat="50.04011" lon="1.98991">
        <ele>65.5</ele>
        <time>2022-04-17T10:36:43Z</time>
      </trkpt>
      <trkpt lat="50.04012" lon="1.98988">
        <ele>65.4</ele>
        <time>2022-04-17T10:36:44Z</time>
      </trkpt>
      <trkpt lat="50.04012" lon="1.98987">
        <ele>65.4</ele>
        <time>2022-04-17T10:36:45Z</time>
      </trkpt>
      <trkpt lat="50.04013" lon="1.98985">
        <ele>65.4</ele>
        <time>2022-04-17T10:36:46Z</time>
      </trkpt>
      <trkpt lat="50.04013" lon="1.98984">
        <ele>65.4</ele>
        <time>2022-04-17T10:36:47Z</time>
      </trkpt>
      <trkpt lat="50.04014" lon="1.98983">
        <ele>65.4</ele>
        <time>2022-04-17T10:36:48Z</time>
      </trkpt>
      <trkpt lat="50.04014" lon="1.98982">
        <ele>65.3</ele>
        <time>2022-04-17T10:36:49Z</time>
      </trkpt>
      <trkpt lat="50.04015" lon="1.98979">
        <ele>65.3</ele>
        <time>2022-04-17T10:36:50Z</time>
      </trkpt>
      <trkpt lat="50.04016" lon="1.98978">
        <ele>65.3</ele>
        <time>2022-04-17T10:36:51Z</time>
      </trkpt>
      <trkpt lat="50.04016" lon="1.98976">
        <ele>65.2</ele>
        <time>2022-04-17T10:36:52Z</time>
      </trkpt>
      <trkpt lat="50.04017" lon="1.98972">
        <ele>65.2</ele>
        <time>2022-04-17T10:36:54Z</time>
      </trkpt>
      <trkpt lat="50.04018" lon="1.9897">
        <ele>65.2</ele>
        <time>2022-04-17T10:36:55Z</time>
      </trkpt>
      <trkpt lat="50.04019" lon="1.98968">
        <ele>65.1</ele>
        <time>2022-04-17T10:36:56Z</time>
      </trkpt>
      <trkpt lat="50.04018" lon="1.98968">
        <ele>65.1</ele>
        <time>2022-04-17T10:36:57Z</time>
      </trkpt>
      <trkpt lat="50.04019" lon="1.98966">
        <ele>65.1</ele>
        <time>2022-04-17T10:36:58Z</time>
      </trkpt>
      <trkpt lat="50.04019" lon="1.98964">
        <ele>65.1</ele>
        <time>2022-04-17T10:36:59Z</time>
      </trkpt>
      <trkpt lat="50.04019" lon="1.98963">
        <ele>65</ele>
        <time>2022-04-17T10:37:00Z</time>
      </trkpt>
      <trkpt lat="50.0402" lon="1.98958">
        <ele>65</ele>
        <time>2022-04-17T10:37:02Z</time>
      </trkpt>
      <trkpt lat="50.04021" lon="1.98957">
        <ele>65</ele>
        <time>2022-04-17T10:37:03Z</time>
      </trkpt>
      <trkpt lat="50.04021" lon="1.98955">
        <ele>64.9</ele>
        <time>2022-04-17T10:37:05Z</time>
      </trkpt>
      <trkpt lat="50.04022" lon="1.98951">
        <ele>64.9</ele>
        <time>2022-04-17T10:37:07Z</time>
      </trkpt>
      <trkpt lat="50.04022" lon="1.98949">
        <ele>64.8</ele>
        <time>2022-04-17T10:37:08Z</time>
      </trkpt>
      <trkpt lat="50.04023" lon="1.98947">
        <ele>64.8</ele>
        <time>2022-04-17T10:37:10Z</time>
      </trkpt>
      <trkpt lat="50.04023" lon="1.98945">
        <ele>64.8</ele>
        <time>2022-04-17T10:37:11Z</time>
      </trkpt>
      <trkpt lat="50.04024" lon="1.98943">
        <ele>64.7</ele>
        <time>2022-04-17T10:37:12Z</time>
      </trkpt>
      <trkpt lat="50.04024" lon="1.98942">
        <ele>64.7</ele>
        <time>2022-04-17T10:37:13Z</time>
      </trkpt>
      <trkpt lat="50.04025" lon="1.9894">
        <ele>64.7</ele>
        <time>2022-04-17T10:37:14Z</time>
      </trkpt>
      <trkpt lat="50.04025" lon="1.98938">
        <ele>64.7</ele>
        <time>2022-04-17T10:37:15Z</time>
      </trkpt>
      <trkpt lat="50.04026" lon="1.98935">
        <ele>64.6</ele>
        <time>2022-04-17T10:37:17Z</time>
      </trkpt>
      <trkpt lat="50.04026" lon="1.98934">
        <ele>64.6</ele>
        <time>2022-04-17T10:37:18Z</time>
      </trkpt>
      <trkpt lat="50.04026" lon="1.98933">
        <ele>64.6</ele>
        <time>2022-04-17T10:37:19Z</time>
      </trkpt>
      <trkpt lat="50.04027" lon="1.9893">
        <ele>64.5</ele>
        <time>2022-04-17T10:37:20Z</time>
      </trkpt>
      <trkpt lat="50.04028" lon="1.98927">
        <ele>64.5</ele>
        <time>2022-04-17T10:37:22Z</time>
      </trkpt>
      <trkpt lat="50.04028" lon="1.98926">
        <ele>64.5</ele>
        <time>2022-04-17T10:37:23Z</time>
      </trkpt>
      <trkpt lat="50.04029" lon="1.98924">
        <ele>64.5</ele>
        <time>2022-04-17T10:37:24Z</time>
      </trkpt>
      <trkpt lat="50.04029" lon="1.98922">
        <ele>64.4</ele>
        <time>2022-04-17T10:37:25Z</time>
      </trkpt>
      <trkpt lat="50.0403" lon="1.98919">
        <ele>64.4</ele>
        <time>2022-04-17T10:37:27Z</time>
      </trkpt>
      <trkpt lat="50.04031" lon="1.98918">
        <ele>64.4</ele>
        <time>2022-04-17T10:37:28Z</time>
      </trkpt>
      <trkpt lat="50.04031" lon="1.98917">
        <ele>64.3</ele>
        <time>2022-04-17T10:37:29Z</time>
      </trkpt>
      <trkpt lat="50.04032" lon="1.98915">
        <ele>64.3</ele>
        <time>2022-04-17T10:37:30Z</time>
      </trkpt>
      <trkpt lat="50.04033" lon="1.98912">
        <ele>64.3</ele>
        <time>2022-04-17T10:37:32Z</time>
      </trkpt>
      <trkpt lat="50.04033" lon="1.98911">
        <ele>64.3</ele>
        <time>2022-04-17T10:37:33Z</time>
      </trkpt>
      <trkpt lat="50.04034" lon="1.98909">
        <ele>64.2</ele>
        <time>2022-04-17T10:37:34Z</time>
      </trkpt>
      <trkpt lat="50.04034" lon="1.98907">
        <ele>64.2</ele>
        <time>2022-04-17T10:37:35Z</time>
      </trkpt>
      <trkpt lat="50.04035" lon="1.98906">
        <ele>64.2</ele>
        <time>2022-04-17T10:37:36Z</time>
      </trkpt>
      <trkpt lat="50.04035" lon="1.98903">
        <ele>64.2</ele>
        <time>2022-04-17T10:37:37Z</time>
      </trkpt>
      <trkpt lat="50.04036" lon="1.98901">
        <ele>64.1</ele>
        <time>2022-04-17T10:37:39Z</time>
      </trkpt>
      <trkpt lat="50.04036" lon="1.98899">
        <ele>64.1</ele>
        <time>2022-04-17T10:37:41Z</time>
      </trkpt>
      <trkpt lat="50.04037" lon="1.98896">
        <ele>64</ele>
        <time>2022-04-17T10:37:42Z</time>
      </trkpt>
      <trkpt lat="50.04038" lon="1.98895">
        <ele>64</ele>
        <time>2022-04-17T10:37:43Z</time>
      </trkpt>
      <trkpt lat="50.04038" lon="1.98893">
        <ele>64</ele>
        <time>2022-04-17T10:37:44Z</time>
      </trkpt>
      <trkpt lat="50.04038" lon="1.98891">
        <ele>64</ele>
        <time>2022-04-17T10:37:45Z</time>
      </trkpt>
      <trkpt lat="50.04039" lon="1.98888">
        <ele>63.9</ele>
        <time>2022-04-17T10:37:47Z</time>
      </trkpt>
      <trkpt lat="50.04039" lon="1.98887">
        <ele>63.9</ele>
        <time>2022-04-17T10:37:48Z</time>
      </trkpt>
      <trkpt lat="50.0404" lon="1.98885">
        <ele>63.9</ele>
        <time>2022-04-17T10:37:49Z</time>
      </trkpt>
      <trkpt lat="50.0404" lon="1.98883">
        <ele>63.9</ele>
        <time>2022-04-17T10:37:50Z</time>
      </trkpt>
      <trkpt lat="50.04041" lon="1.98882">
        <ele>63.9</ele>
        <time>2022-04-17T10:37:51Z</time>
      </trkpt>
      <trkpt lat="50.04042" lon="1.98879">
        <ele>63.8</ele>
        <time>2022-04-17T10:37:52Z</time>
      </trkpt>
      <trkpt lat="50.04043" lon="1.98877">
        <ele>63.8</ele>
        <time>2022-04-17T10:37:54Z</time>
      </trkpt>
      <trkpt lat="50.04044" lon="1.98875">
        <ele>63.8</ele>
        <time>2022-04-17T10:37:56Z</time>
      </trkpt>
      <trkpt lat="50.04045" lon="1.98872">
        <ele>63.7</ele>
        <time>2022-04-17T10:37:57Z</time>
      </trkpt>
      <trkpt lat="50.04046" lon="1.98871">
        <ele>63.7</ele>
        <time>2022-04-17T10:37:58Z</time>
      </trkpt>
      <trkpt lat="50.04047" lon="1.98869">
        <ele>63.7</ele>
        <time>2022-04-17T10:37:59Z</time>
      </trkpt>
      <trkpt lat="50.04047" lon="1.98868">
        <ele>63.7</ele>
        <time>2022-04-17T10:38:00Z</time>
      </trkpt>
      <trkpt lat="50.04048" lon="1.98866">
        <ele>63.7</ele>
        <time>2022-04-17T10:38:02Z</time>
      </trkpt>
      <trkpt lat="50.04049" lon="1.98863">
        <ele>63.7</ele>
        <time>2022-04-17T10:38:03Z</time>
      </trkpt>
      <trkpt lat="50.0405" lon="1.98862">
        <ele>63.7</ele>
        <time>2022-04-17T10:38:04Z</time>
      </trkpt>
      <trkpt lat="50.0405" lon="1.98861">
        <ele>63.7</ele>
        <time>2022-04-17T10:38:05Z</time>
      </trkpt>
      <trkpt lat="50.04052" lon="1.98858">
        <ele>63.7</ele>
        <time>2022-04-17T10:38:07Z</time>
      </trkpt>
      <trkpt lat="50.04053" lon="1.98857">
        <ele>63.7</ele>
        <time>2022-04-17T10:38:08Z</time>
      </trkpt>
      <trkpt lat="50.04053" lon="1.98855">
        <ele>63.7</ele>
        <time>2022-04-17T10:38:09Z</time>
      </trkpt>
      <trkpt lat="50.04054" lon="1.98854">
        <ele>63.7</ele>
        <time>2022-04-17T10:38:10Z</time>
      </trkpt>
      <trkpt lat="50.04055" lon="1.98853">
        <ele>63.6</ele>
        <time>2022-04-17T10:38:11Z</time>
      </trkpt>
      <trkpt lat="50.04056" lon="1.98851">
        <ele>63.6</ele>
        <time>2022-04-17T10:38:12Z</time>
      </trkpt>
      <trkpt lat="50.04057" lon="1.9885">
        <ele>63.6</ele>
        <time>2022-04-17T10:38:13Z</time>
      </trkpt>
      <trkpt lat="50.04058" lon="1.9885">
        <ele>63.6</ele>
        <time>2022-04-17T10:38:14Z</time>
      </trkpt>
      <trkpt lat="50.0406" lon="1.98848">
        <ele>63.6</ele>
        <time>2022-04-17T10:38:16Z</time>
      </trkpt>
      <trkpt lat="50.04061" lon="1.98846">
        <ele>63.6</ele>
        <time>2022-04-17T10:38:17Z</time>
      </trkpt>
      <trkpt lat="50.04062" lon="1.98846">
        <ele>63.7</ele>
        <time>2022-04-17T10:38:18Z</time>
      </trkpt>
      <trkpt lat="50.04063" lon="1.98845">
        <ele>63.7</ele>
        <time>2022-04-17T10:38:19Z</time>
      </trkpt>
      <trkpt lat="50.04063" lon="1.98844">
        <ele>63.7</ele>
        <time>2022-04-17T10:38:20Z</time>
      </trkpt>
      <trkpt lat="50.04064" lon="1.98842">
        <ele>63.7</ele>
        <time>2022-04-17T10:38:21Z</time>
      </trkpt>
      <trkpt lat="50.04065" lon="1.98841">
        <ele>63.7</ele>
        <time>2022-04-17T10:38:22Z</time>
      </trkpt>
      <trkpt lat="50.04066" lon="1.9884">
        <ele>63.7</ele>
        <time>2022-04-17T10:38:23Z</time>
      </trkpt>
      <trkpt lat="50.04066" lon="1.98839">
        <ele>63.7</ele>
        <time>2022-04-17T10:38:24Z</time>
      </trkpt>
      <trkpt lat="50.04066" lon="1.98837">
        <ele>63.8</ele>
        <time>2022-04-17T10:38:25Z</time>
      </trkpt>
      <trkpt lat="50.04066" lon="1.98836">
        <ele>63.8</ele>
        <time>2022-04-17T10:38:26Z</time>
      </trkpt>
      <trkpt lat="50.04067" lon="1.98833">
        <ele>63.8</ele>
        <time>2022-04-17T10:38:28Z</time>
      </trkpt>
      <trkpt lat="50.04068" lon="1.98832">
        <ele>63.8</ele>
        <time>2022-04-17T10:38:29Z</time>
      </trkpt>
      <trkpt lat="50.04069" lon="1.98829">
        <ele>63.8</ele>
        <time>2022-04-17T10:38:30Z</time>
      </trkpt>
      <trkpt lat="50.04069" lon="1.98828">
        <ele>63.8</ele>
        <time>2022-04-17T10:38:31Z</time>
      </trkpt>
      <trkpt lat="50.0407" lon="1.98826">
        <ele>63.9</ele>
        <time>2022-04-17T10:38:32Z</time>
      </trkpt>
      <trkpt lat="50.0407" lon="1.98825">
        <ele>63.9</ele>
        <time>2022-04-17T10:38:33Z</time>
      </trkpt>
      <trkpt lat="50.04071" lon="1.98824">
        <ele>63.9</ele>
        <time>2022-04-17T10:38:35Z</time>
      </trkpt>
      <trkpt lat="50.04071" lon="1.98823">
        <ele>63.9</ele>
        <time>2022-04-17T10:38:36Z</time>
      </trkpt>
      <trkpt lat="50.04073" lon="1.98821">
        <ele>63.8</ele>
        <time>2022-04-17T10:38:37Z</time>
      </trkpt>
      <trkpt lat="50.04074" lon="1.9882">
        <ele>63.8</ele>
        <time>2022-04-17T10:38:39Z</time>
      </trkpt>
      <trkpt lat="50.04075" lon="1.9882">
        <ele>63.8</ele>
        <time>2022-04-17T10:38:40Z</time>
      </trkpt>
      <trkpt lat="50.04076" lon="1.9882">
        <ele>63.8</ele>
        <time>2022-04-17T10:38:41Z</time>
      </trkpt>
      <trkpt lat="50.04077" lon="1.9882">
        <ele>63.8</ele>
        <time>2022-04-17T10:38:43Z</time>
      </trkpt>
      <trkpt lat="50.04077" lon="1.9882">
        <ele>63.8</ele>
        <time>2022-04-17T10:38:44Z</time>
      </trkpt>
      <trkpt lat="50.04077" lon="1.98821">
        <ele>63.8</ele>
        <time>2022-04-17T10:38:45Z</time>
      </trkpt>
      <trkpt lat="50.04077" lon="1.98821">
        <ele>63.8</ele>
        <time>2022-04-17T10:38:46Z</time>
      </trkpt>
      <trkpt lat="50.04077" lon="1.98821">
        <ele>63.8</ele>
        <time>2022-04-17T10:38:47Z</time>
      </trkpt>
      <trkpt lat="50.04077" lon="1.98821">
        <ele>63.8</ele>
        <time>2022-04-17T10:38:48Z</time>
      </trkpt>
      <trkpt lat="50.04077" lon="1.98821">
        <ele>63.8</ele>
        <time>2022-04-17T10:38:49Z</time>
      </trkpt>
      <trkpt lat="50.04077" lon="1.9882">
        <ele>63.8</ele>
        <time>2022-04-17T10:38:50Z</time>
      </trkpt>
      <trkpt lat="50.04077" lon="1.98819">
        <ele>63.8</ele>
        <time>2022-04-17T10:38:51Z</time>
      </trkpt>
      <trkpt lat="50.04078" lon="1.98817">
        <ele>63.7</ele>
        <time>2022-04-17T10:38:53Z</time>
      </trkpt>
      <trkpt lat="50.04078" lon="1.98816">
        <ele>63.7</ele>
        <time>2022-04-17T10:38:54Z</time>
      </trkpt>
      <trkpt lat="50.0408" lon="1.98814">
        <ele>63.7</ele>
        <time>2022-04-17T10:38:55Z</time>
      </trkpt>
      <trkpt lat="50.0408" lon="1.98812">
        <ele>63.7</ele>
        <time>2022-04-17T10:38:56Z</time>
      </trkpt>
      <trkpt lat="50.04081" lon="1.98811">
        <ele>63.6</ele>
        <time>2022-04-17T10:38:57Z</time>
      </trkpt>
      <trkpt lat="50.04082" lon="1.9881">
        <ele>63.6</ele>
        <time>2022-04-17T10:38:58Z</time>
      </trkpt>
      <trkpt lat="50.04082" lon="1.98808">
        <ele>63.6</ele>
        <time>2022-04-17T10:38:59Z</time>
      </trkpt>
      <trkpt lat="50.04083" lon="1.98806">
        <ele>63.6</ele>
        <time>2022-04-17T10:39:01Z</time>
      </trkpt>
      <trkpt lat="50.04084" lon="1.98804">
        <ele>63.5</ele>
        <time>2022-04-17T10:39:02Z</time>
      </trkpt>
      <trkpt lat="50.04085" lon="1.98801">
        <ele>63.5</ele>
        <time>2022-04-17T10:39:03Z</time>
      </trkpt>
      <trkpt lat="50.04086" lon="1.98799">
        <ele>63.5</ele>
        <time>2022-04-17T10:39:04Z</time>
      </trkpt>
      <trkpt lat="50.04087" lon="1.98798">
        <ele>63.4</ele>
        <time>2022-04-17T10:39:05Z</time>
      </trkpt>
      <trkpt lat="50.04087" lon="1.98796">
        <ele>63.4</ele>
        <time>2022-04-17T10:39:06Z</time>
      </trkpt>
      <trkpt lat="50.04088" lon="1.98794">
        <ele>63.4</ele>
        <time>2022-04-17T10:39:07Z</time>
      </trkpt>
      <trkpt lat="50.04089" lon="1.98792">
        <ele>63.3</ele>
        <time>2022-04-17T10:39:09Z</time>
      </trkpt>
      <trkpt lat="50.0409" lon="1.9879">
        <ele>63.3</ele>
        <time>2022-04-17T10:39:10Z</time>
      </trkpt>
      <trkpt lat="50.04091" lon="1.98788">
        <ele>63.3</ele>
        <time>2022-04-17T10:39:11Z</time>
      </trkpt>
      <trkpt lat="50.04091" lon="1.98785">
        <ele>63.2</ele>
        <time>2022-04-17T10:39:13Z</time>
      </trkpt>
      <trkpt lat="50.04092" lon="1.98782">
        <ele>63.2</ele>
        <time>2022-04-17T10:39:14Z</time>
      </trkpt>
      <trkpt lat="50.04093" lon="1.9878">
        <ele>63.1</ele>
        <time>2022-04-17T10:39:15Z</time>
      </trkpt>
      <trkpt lat="50.04095" lon="1.98775">
        <ele>63.1</ele>
        <time>2022-04-17T10:39:18Z</time>
      </trkpt>
      <trkpt lat="50.04095" lon="1.98773">
        <ele>63.1</ele>
        <time>2022-04-17T10:39:19Z</time>
      </trkpt>
      <trkpt lat="50.04096" lon="1.98772">
        <ele>63</ele>
        <time>2022-04-17T10:39:20Z</time>
      </trkpt>
      <trkpt lat="50.04096" lon="1.9877">
        <ele>63</ele>
        <time>2022-04-17T10:39:21Z</time>
      </trkpt>
      <trkpt lat="50.04097" lon="1.98768">
        <ele>63</ele>
        <time>2022-04-17T10:39:22Z</time>
      </trkpt>
      <trkpt lat="50.04097" lon="1.98767">
        <ele>63</ele>
        <time>2022-04-17T10:39:23Z</time>
      </trkpt>
      <trkpt lat="50.04098" lon="1.98765">
        <ele>63</ele>
        <time>2022-04-17T10:39:24Z</time>
      </trkpt>
      <trkpt lat="50.04098" lon="1.98764">
        <ele>62.9</ele>
        <time>2022-04-17T10:39:25Z</time>
      </trkpt>
      <trkpt lat="50.04099" lon="1.98761">
        <ele>62.9</ele>
        <time>2022-04-17T10:39:27Z</time>
      </trkpt>
      <trkpt lat="50.041" lon="1.98758">
        <ele>62.9</ele>
        <time>2022-04-17T10:39:28Z</time>
      </trkpt>
      <trkpt lat="50.041" lon="1.98757">
        <ele>62.8</ele>
        <time>2022-04-17T10:39:29Z</time>
      </trkpt>
      <trkpt lat="50.041" lon="1.98756">
        <ele>62.8</ele>
        <time>2022-04-17T10:39:30Z</time>
      </trkpt>
      <trkpt lat="50.04101" lon="1.98754">
        <ele>62.8</ele>
        <time>2022-04-17T10:39:31Z</time>
      </trkpt>
      <trkpt lat="50.04102" lon="1.98751">
        <ele>62.8</ele>
        <time>2022-04-17T10:39:33Z</time>
      </trkpt>
      <trkpt lat="50.04102" lon="1.98749">
        <ele>62.8</ele>
        <time>2022-04-17T10:39:34Z</time>
      </trkpt>
      <trkpt lat="50.04104" lon="1.98746">
        <ele>62.7</ele>
        <time>2022-04-17T10:39:36Z</time>
      </trkpt>
      <trkpt lat="50.04104" lon="1.98743">
        <ele>62.7</ele>
        <time>2022-04-17T10:39:37Z</time>
      </trkpt>
      <trkpt lat="50.04105" lon="1.9874">
        <ele>62.6</ele>
        <time>2022-04-17T10:39:39Z</time>
      </trkpt>
      <trkpt lat="50.04106" lon="1.98739">
        <ele>62.6</ele>
        <time>2022-04-17T10:39:40Z</time>
      </trkpt>
      <trkpt lat="50.04106" lon="1.98737">
        <ele>62.6</ele>
        <time>2022-04-17T10:39:41Z</time>
      </trkpt>
      <trkpt lat="50.04106" lon="1.98733">
        <ele>62.6</ele>
        <time>2022-04-17T10:39:43Z</time>
      </trkpt>
      <trkpt lat="50.04107" lon="1.98731">
        <ele>62.6</ele>
        <time>2022-04-17T10:39:44Z</time>
      </trkpt>
      <trkpt lat="50.04107" lon="1.98729">
        <ele>62.5</ele>
        <time>2022-04-17T10:39:45Z</time>
      </trkpt>
      <trkpt lat="50.04108" lon="1.98726">
        <ele>62.5</ele>
        <time>2022-04-17T10:39:46Z</time>
      </trkpt>
      <trkpt lat="50.04108" lon="1.98724">
        <ele>62.5</ele>
        <time>2022-04-17T10:39:47Z</time>
      </trkpt>
      <trkpt lat="50.04108" lon="1.98722">
        <ele>62.5</ele>
        <time>2022-04-17T10:39:48Z</time>
      </trkpt>
      <trkpt lat="50.04108" lon="1.98721">
        <ele>62.5</ele>
        <time>2022-04-17T10:39:49Z</time>
      </trkpt>
      <trkpt lat="50.04109" lon="1.9872">
        <ele>62.5</ele>
        <time>2022-04-17T10:39:50Z</time>
      </trkpt>
      <trkpt lat="50.04109" lon="1.98718">
        <ele>62.5</ele>
        <time>2022-04-17T10:39:51Z</time>
      </trkpt>
      <trkpt lat="50.04109" lon="1.98716">
        <ele>62.4</ele>
        <time>2022-04-17T10:39:52Z</time>
      </trkpt>
      <trkpt lat="50.0411" lon="1.98714">
        <ele>62.4</ele>
        <time>2022-04-17T10:39:53Z</time>
      </trkpt>
      <trkpt lat="50.0411" lon="1.98712">
        <ele>62.4</ele>
        <time>2022-04-17T10:39:54Z</time>
      </trkpt>
      <trkpt lat="50.0411" lon="1.98711">
        <ele>62.4</ele>
        <time>2022-04-17T10:39:55Z</time>
      </trkpt>
      <trkpt lat="50.0411" lon="1.98708">
        <ele>62.4</ele>
        <time>2022-04-17T10:39:57Z</time>
      </trkpt>
      <trkpt lat="50.04111" lon="1.98705">
        <ele>62.4</ele>
        <time>2022-04-17T10:39:58Z</time>
      </trkpt>
      <trkpt lat="50.04111" lon="1.98703">
        <ele>62.4</ele>
        <time>2022-04-17T10:39:59Z</time>
      </trkpt>
      <trkpt lat="50.04111" lon="1.98701">
        <ele>62.4</ele>
        <time>2022-04-17T10:40:00Z</time>
      </trkpt>
      <trkpt lat="50.04111" lon="1.987">
        <ele>62.4</ele>
        <time>2022-04-17T10:40:01Z</time>
      </trkpt>
      <trkpt lat="50.04112" lon="1.98695">
        <ele>62.3</ele>
        <time>2022-04-17T10:40:03Z</time>
      </trkpt>
      <trkpt lat="50.04112" lon="1.98694">
        <ele>62.3</ele>
        <time>2022-04-17T10:40:04Z</time>
      </trkpt>
      <trkpt lat="50.04111" lon="1.98692">
        <ele>62.3</ele>
        <time>2022-04-17T10:40:05Z</time>
      </trkpt>
      <trkpt lat="50.04112" lon="1.98689">
        <ele>62.3</ele>
        <time>2022-04-17T10:40:07Z</time>
      </trkpt>
      <trkpt lat="50.04112" lon="1.98686">
        <ele>62.3</ele>
        <time>2022-04-17T10:40:08Z</time>
      </trkpt>
      <trkpt lat="50.04112" lon="1.98684">
        <ele>62.3</ele>
        <time>2022-04-17T10:40:09Z</time>
      </trkpt>
      <trkpt lat="50.04112" lon="1.98683">
        <ele>62.3</ele>
        <time>2022-04-17T10:40:10Z</time>
      </trkpt>
      <trkpt lat="50.04112" lon="1.98681">
        <ele>62.3</ele>
        <time>2022-04-17T10:40:11Z</time>
      </trkpt>
      <trkpt lat="50.04111" lon="1.98679">
        <ele>62.3</ele>
        <time>2022-04-17T10:40:12Z</time>
      </trkpt>
      <trkpt lat="50.04111" lon="1.98676">
        <ele>62.3</ele>
        <time>2022-04-17T10:40:14Z</time>
      </trkpt>
      <trkpt lat="50.04111" lon="1.98674">
        <ele>62.3</ele>
        <time>2022-04-17T10:40:15Z</time>
      </trkpt>
      <trkpt lat="50.04111" lon="1.9867">
        <ele>62.3</ele>
        <time>2022-04-17T10:40:16Z</time>
      </trkpt>
      <trkpt lat="50.04111" lon="1.98669">
        <ele>62.3</ele>
        <time>2022-04-17T10:40:17Z</time>
      </trkpt>
      <trkpt lat="50.04112" lon="1.98667">
        <ele>62.3</ele>
        <time>2022-04-17T10:40:18Z</time>
      </trkpt>
      <trkpt lat="50.04112" lon="1.98666">
        <ele>62.3</ele>
        <time>2022-04-17T10:40:19Z</time>
      </trkpt>
      <trkpt lat="50.04112" lon="1.98664">
        <ele>62.3</ele>
        <time>2022-04-17T10:40:20Z</time>
      </trkpt>
      <trkpt lat="50.04112" lon="1.98663">
        <ele>62.3</ele>
        <time>2022-04-17T10:40:21Z</time>
      </trkpt>
      <trkpt lat="50.04112" lon="1.98661">
        <ele>62.3</ele>
        <time>2022-04-17T10:40:23Z</time>
      </trkpt>
      <trkpt lat="50.04112" lon="1.98658">
        <ele>62.2</ele>
        <time>2022-04-17T10:40:24Z</time>
      </trkpt>
      <trkpt lat="50.04112" lon="1.98657">
        <ele>62.2</ele>
        <time>2022-04-17T10:40:25Z</time>
      </trkpt>
      <trkpt lat="50.04111" lon="1.98654">
        <ele>62.2</ele>
        <time>2022-04-17T10:40:26Z</time>
      </trkpt>
      <trkpt lat="50.04111" lon="1.98652">
        <ele>62.2</ele>
        <time>2022-04-17T10:40:27Z</time>
      </trkpt>
      <trkpt lat="50.04111" lon="1.98651">
        <ele>62.2</ele>
        <time>2022-04-17T10:40:28Z</time>
      </trkpt>
      <trkpt lat="50.04111" lon="1.9865">
        <ele>62.2</ele>
        <time>2022-04-17T10:40:29Z</time>
      </trkpt>
      <trkpt lat="50.04111" lon="1.98648">
        <ele>62.2</ele>
        <time>2022-04-17T10:40:30Z</time>
      </trkpt>
      <trkpt lat="50.04111" lon="1.98646">
        <ele>62.2</ele>
        <time>2022-04-17T10:40:32Z</time>
      </trkpt>
      <trkpt lat="50.04111" lon="1.98643">
        <ele>62.2</ele>
        <time>2022-04-17T10:40:33Z</time>
      </trkpt>
      <trkpt lat="50.04111" lon="1.98641">
        <ele>62.2</ele>
        <time>2022-04-17T10:40:35Z</time>
      </trkpt>
      <trkpt lat="50.04111" lon="1.98639">
        <ele>62.2</ele>
        <time>2022-04-17T10:40:36Z</time>
      </trkpt>
      <trkpt lat="50.04111" lon="1.98637">
        <ele>62.2</ele>
        <time>2022-04-17T10:40:37Z</time>
      </trkpt>
      <trkpt lat="50.04111" lon="1.98634">
        <ele>62.2</ele>
        <time>2022-04-17T10:40:38Z</time>
      </trkpt>
      <trkpt lat="50.04111" lon="1.98633">
        <ele>62.2</ele>
        <time>2022-04-17T10:40:39Z</time>
      </trkpt>
      <trkpt lat="50.04111" lon="1.98632">
        <ele>62.1</ele>
        <time>2022-04-17T10:40:41Z</time>
      </trkpt>
      <trkpt lat="50.04111" lon="1.9863">
        <ele>62.1</ele>
        <time>2022-04-17T10:40:42Z</time>
      </trkpt>
      <trkpt lat="50.04112" lon="1.98628">
        <ele>62.1</ele>
        <time>2022-04-17T10:40:43Z</time>
      </trkpt>
      <trkpt lat="50.04112" lon="1.98626">
        <ele>62.1</ele>
        <time>2022-04-17T10:40:44Z</time>
      </trkpt>
      <trkpt lat="50.04112" lon="1.98625">
        <ele>62.1</ele>
        <time>2022-04-17T10:40:45Z</time>
      </trkpt>
      <trkpt lat="50.04112" lon="1.98623">
        <ele>62.1</ele>
        <time>2022-04-17T10:40:46Z</time>
      </trkpt>
      <trkpt lat="50.04112" lon="1.98621">
        <ele>62.1</ele>
        <time>2022-04-17T10:40:48Z</time>
      </trkpt>
      <trkpt lat="50.04113" lon="1.98619">
        <ele>62.1</ele>
        <time>2022-04-17T10:40:49Z</time>
      </trkpt>
      <trkpt lat="50.04113" lon="1.98618">
        <ele>62.1</ele>
        <time>2022-04-17T10:40:50Z</time>
      </trkpt>
      <trkpt lat="50.04113" lon="1.98616">
        <ele>62.1</ele>
        <time>2022-04-17T10:40:51Z</time>
      </trkpt>
      <trkpt lat="50.04114" lon="1.98614">
        <ele>62.1</ele>
        <time>2022-04-17T10:40:52Z</time>
      </trkpt>
      <trkpt lat="50.04114" lon="1.98612">
        <ele>62.1</ele>
        <time>2022-04-17T10:40:53Z</time>
      </trkpt>
      <trkpt lat="50.04114" lon="1.98611">
        <ele>62.1</ele>
        <time>2022-04-17T10:40:54Z</time>
      </trkpt>
      <trkpt lat="50.04115" lon="1.98609">
        <ele>62.1</ele>
        <time>2022-04-17T10:40:56Z</time>
      </trkpt>
      <trkpt lat="50.04115" lon="1.98608">
        <ele>62.1</ele>
        <time>2022-04-17T10:40:57Z</time>
      </trkpt>
      <trkpt lat="50.04116" lon="1.98606">
        <ele>62.1</ele>
        <time>2022-04-17T10:40:58Z</time>
      </trkpt>
      <trkpt lat="50.04116" lon="1.98603">
        <ele>62.1</ele>
        <time>2022-04-17T10:40:59Z</time>
      </trkpt>
      <trkpt lat="50.04117" lon="1.98602">
        <ele>62.1</ele>
        <time>2022-04-17T10:41:00Z</time>
      </trkpt>
      <trkpt lat="50.04117" lon="1.986">
        <ele>62.1</ele>
        <time>2022-04-17T10:41:01Z</time>
      </trkpt>
      <trkpt lat="50.04118" lon="1.98598">
        <ele>62.1</ele>
        <time>2022-04-17T10:41:02Z</time>
      </trkpt>
      <trkpt lat="50.04119" lon="1.98594">
        <ele>62.1</ele>
        <time>2022-04-17T10:41:03Z</time>
      </trkpt>
      <trkpt lat="50.04119" lon="1.98593">
        <ele>62.1</ele>
        <time>2022-04-17T10:41:05Z</time>
      </trkpt>
      <trkpt lat="50.04119" lon="1.98592">
        <ele>62.1</ele>
        <time>2022-04-17T10:41:06Z</time>
      </trkpt>
      <trkpt lat="50.04119" lon="1.9859">
        <ele>62.1</ele>
        <time>2022-04-17T10:41:07Z</time>
      </trkpt>
      <trkpt lat="50.0412" lon="1.98589">
        <ele>62.1</ele>
        <time>2022-04-17T10:41:08Z</time>
      </trkpt>
      <trkpt lat="50.0412" lon="1.98585">
        <ele>62.1</ele>
        <time>2022-04-17T10:41:09Z</time>
      </trkpt>
      <trkpt lat="50.0412" lon="1.98584">
        <ele>62.1</ele>
        <time>2022-04-17T10:41:10Z</time>
      </trkpt>
      <trkpt lat="50.04121" lon="1.98583">
        <ele>62.1</ele>
        <time>2022-04-17T10:41:11Z</time>
      </trkpt>
      <trkpt lat="50.04121" lon="1.9858">
        <ele>62.1</ele>
        <time>2022-04-17T10:41:12Z</time>
      </trkpt>
      <trkpt lat="50.04121" lon="1.98579">
        <ele>62.1</ele>
        <time>2022-04-17T10:41:14Z</time>
      </trkpt>
      <trkpt lat="50.04121" lon="1.98578">
        <ele>62.1</ele>
        <time>2022-04-17T10:41:15Z</time>
      </trkpt>
      <trkpt lat="50.04121" lon="1.98574">
        <ele>62.1</ele>
        <time>2022-04-17T10:41:16Z</time>
      </trkpt>
      <trkpt lat="50.04121" lon="1.98573">
        <ele>62.1</ele>
        <time>2022-04-17T10:41:17Z</time>
      </trkpt>
      <trkpt lat="50.04122" lon="1.98571">
        <ele>62.2</ele>
        <time>2022-04-17T10:41:18Z</time>
      </trkpt>
      <trkpt lat="50.04121" lon="1.98569">
        <ele>62.2</ele>
        <time>2022-04-17T10:41:19Z</time>
      </trkpt>
      <trkpt lat="50.04121" lon="1.98568">
        <ele>62.2</ele>
        <time>2022-04-17T10:41:20Z</time>
      </trkpt>
      <trkpt lat="50.04121" lon="1.98567">
        <ele>62.2</ele>
        <time>2022-04-17T10:41:22Z</time>
      </trkpt>
      <trkpt lat="50.04121" lon="1.98565">
        <ele>62.2</ele>
        <time>2022-04-17T10:41:23Z</time>
      </trkpt>
      <trkpt lat="50.04121" lon="1.98563">
        <ele>62.2</ele>
        <time>2022-04-17T10:41:24Z</time>
      </trkpt>
      <trkpt lat="50.04121" lon="1.98562">
        <ele>62.2</ele>
        <time>2022-04-17T10:41:25Z</time>
      </trkpt>
      <trkpt lat="50.04121" lon="1.9856">
        <ele>62.2</ele>
        <time>2022-04-17T10:41:26Z</time>
      </trkpt>
      <trkpt lat="50.04121" lon="1.98558">
        <ele>62.2</ele>
        <time>2022-04-17T10:41:27Z</time>
      </trkpt>
      <trkpt lat="50.04121" lon="1.98556">
        <ele>62.2</ele>
        <time>2022-04-17T10:41:28Z</time>
      </trkpt>
      <trkpt lat="50.04121" lon="1.98555">
        <ele>62.3</ele>
        <time>2022-04-17T10:41:30Z</time>
      </trkpt>
      <trkpt lat="50.04122" lon="1.98553">
        <ele>62.3</ele>
        <time>2022-04-17T10:41:31Z</time>
      </trkpt>
      <trkpt lat="50.04122" lon="1.98552">
        <ele>62.3</ele>
        <time>2022-04-17T10:41:32Z</time>
      </trkpt>
      <trkpt lat="50.04122" lon="1.98548">
        <ele>62.3</ele>
        <time>2022-04-17T10:41:34Z</time>
      </trkpt>
      <trkpt lat="50.04122" lon="1.98546">
        <ele>62.3</ele>
        <time>2022-04-17T10:41:35Z</time>
      </trkpt>
      <trkpt lat="50.04123" lon="1.98545">
        <ele>62.4</ele>
        <time>2022-04-17T10:41:36Z</time>
      </trkpt>
      <trkpt lat="50.04123" lon="1.98543">
        <ele>62.4</ele>
        <time>2022-04-17T10:41:37Z</time>
      </trkpt>
      <trkpt lat="50.04123" lon="1.98539">
        <ele>62.4</ele>
        <time>2022-04-17T10:41:38Z</time>
      </trkpt>
      <trkpt lat="50.04123" lon="1.98537">
        <ele>62.4</ele>
        <time>2022-04-17T10:41:39Z</time>
      </trkpt>
      <trkpt lat="50.04124" lon="1.98536">
        <ele>62.4</ele>
        <time>2022-04-17T10:41:41Z</time>
      </trkpt>
      <trkpt lat="50.04124" lon="1.98535">
        <ele>62.5</ele>
        <time>2022-04-17T10:41:42Z</time>
      </trkpt>
      <trkpt lat="50.04124" lon="1.98533">
        <ele>62.5</ele>
        <time>2022-04-17T10:41:43Z</time>
      </trkpt>
      <trkpt lat="50.04124" lon="1.98532">
        <ele>62.5</ele>
        <time>2022-04-17T10:41:44Z</time>
      </trkpt>
      <trkpt lat="50.04124" lon="1.98531">
        <ele>62.5</ele>
        <time>2022-04-17T10:41:45Z</time>
      </trkpt>
      <trkpt lat="50.04125" lon="1.98529">
        <ele>62.5</ele>
        <time>2022-04-17T10:41:46Z</time>
      </trkpt>
      <trkpt lat="50.04125" lon="1.98529">
        <ele>62.5</ele>
        <time>2022-04-17T10:41:47Z</time>
      </trkpt>
      <trkpt lat="50.04125" lon="1.98528">
        <ele>62.5</ele>
        <time>2022-04-17T10:41:48Z</time>
      </trkpt>
      <trkpt lat="50.04125" lon="1.98525">
        <ele>62.6</ele>
        <time>2022-04-17T10:41:50Z</time>
      </trkpt>
      <trkpt lat="50.04125" lon="1.98524">
        <ele>62.6</ele>
        <time>2022-04-17T10:41:51Z</time>
      </trkpt>
      <trkpt lat="50.04125" lon="1.98523">
        <ele>62.6</ele>
        <time>2022-04-17T10:41:52Z</time>
      </trkpt>
      <trkpt lat="50.04125" lon="1.98522">
        <ele>62.6</ele>
        <time>2022-04-17T10:41:53Z</time>
      </trkpt>
      <trkpt lat="50.04125" lon="1.98519">
        <ele>62.6</ele>
        <time>2022-04-17T10:41:54Z</time>
      </trkpt>
      <trkpt lat="50.04125" lon="1.98517">
        <ele>62.6</ele>
        <time>2022-04-17T10:41:55Z</time>
      </trkpt>
      <trkpt lat="50.04125" lon="1.98516">
        <ele>62.7</ele>
        <time>2022-04-17T10:41:56Z</time>
      </trkpt>
      <trkpt lat="50.04125" lon="1.98514">
        <ele>62.7</ele>
        <time>2022-04-17T10:41:57Z</time>
      </trkpt>
      <trkpt lat="50.04125" lon="1.98511">
        <ele>62.7</ele>
        <time>2022-04-17T10:41:59Z</time>
      </trkpt>
      <trkpt lat="50.04125" lon="1.9851">
        <ele>62.7</ele>
        <time>2022-04-17T10:42:00Z</time>
      </trkpt>
      <trkpt lat="50.04125" lon="1.98508">
        <ele>62.8</ele>
        <time>2022-04-17T10:42:01Z</time>
      </trkpt>
      <trkpt lat="50.04125" lon="1.98506">
        <ele>62.8</ele>
        <time>2022-04-17T10:42:02Z</time>
      </trkpt>
      <trkpt lat="50.04125" lon="1.98505">
        <ele>62.8</ele>
        <time>2022-04-17T10:42:03Z</time>
      </trkpt>
      <trkpt lat="50.04125" lon="1.98502">
        <ele>62.8</ele>
        <time>2022-04-17T10:42:04Z</time>
      </trkpt>
      <trkpt lat="50.04125" lon="1.98499">
        <ele>62.9</ele>
        <time>2022-04-17T10:42:05Z</time>
      </trkpt>
      <trkpt lat="50.04125" lon="1.98497">
        <ele>62.9</ele>
        <time>2022-04-17T10:42:07Z</time>
      </trkpt>
      <trkpt lat="50.04124" lon="1.98495">
        <ele>62.9</ele>
        <time>2022-04-17T10:42:08Z</time>
      </trkpt>
      <trkpt lat="50.04124" lon="1.98492">
        <ele>63</ele>
        <time>2022-04-17T10:42:09Z</time>
      </trkpt>
      <trkpt lat="50.04124" lon="1.9849">
        <ele>63</ele>
        <time>2022-04-17T10:42:10Z</time>
      </trkpt>
      <trkpt lat="50.04123" lon="1.98488">
        <ele>63</ele>
        <time>2022-04-17T10:42:12Z</time>
      </trkpt>
      <trkpt lat="50.04124" lon="1.98486">
        <ele>63</ele>
        <time>2022-04-17T10:42:13Z</time>
      </trkpt>
      <trkpt lat="50.04125" lon="1.98485">
        <ele>63.1</ele>
        <time>2022-04-17T10:42:15Z</time>
      </trkpt>
      <trkpt lat="50.04126" lon="1.98486">
        <ele>63.1</ele>
        <time>2022-04-17T10:42:16Z</time>
      </trkpt>
      <trkpt lat="50.04127" lon="1.98486">
        <ele>63.1</ele>
        <time>2022-04-17T10:42:18Z</time>
      </trkpt>
      <trkpt lat="50.04127" lon="1.98485">
        <ele>63.1</ele>
        <time>2022-04-17T10:42:19Z</time>
      </trkpt>
      <trkpt lat="50.04127" lon="1.98484">
        <ele>63.1</ele>
        <time>2022-04-17T10:42:20Z</time>
      </trkpt>
      <trkpt lat="50.04128" lon="1.98483">
        <ele>63.1</ele>
        <time>2022-04-17T10:42:21Z</time>
      </trkpt>
      <trkpt lat="50.04128" lon="1.98482">
        <ele>63.1</ele>
        <time>2022-04-17T10:42:22Z</time>
      </trkpt>
      <trkpt lat="50.04129" lon="1.9848">
        <ele>63.1</ele>
        <time>2022-04-17T10:42:24Z</time>
      </trkpt>
      <trkpt lat="50.04129" lon="1.98478">
        <ele>63.1</ele>
        <time>2022-04-17T10:42:25Z</time>
      </trkpt>
      <trkpt lat="50.0413" lon="1.98475">
        <ele>63.2</ele>
        <time>2022-04-17T10:42:26Z</time>
      </trkpt>
      <trkpt lat="50.0413" lon="1.98474">
        <ele>63.2</ele>
        <time>2022-04-17T10:42:27Z</time>
      </trkpt>
      <trkpt lat="50.0413" lon="1.98472">
        <ele>63.2</ele>
        <time>2022-04-17T10:42:28Z</time>
      </trkpt>
      <trkpt lat="50.0413" lon="1.9847">
        <ele>63.2</ele>
        <time>2022-04-17T10:42:29Z</time>
      </trkpt>
      <trkpt lat="50.0413" lon="1.98468">
        <ele>63.2</ele>
        <time>2022-04-17T10:42:30Z</time>
      </trkpt>
      <trkpt lat="50.04129" lon="1.98465">
        <ele>63.2</ele>
        <time>2022-04-17T10:42:31Z</time>
      </trkpt>
      <trkpt lat="50.04129" lon="1.98464">
        <ele>63.2</ele>
        <time>2022-04-17T10:42:32Z</time>
      </trkpt>
      <trkpt lat="50.04129" lon="1.98462">
        <ele>63.2</ele>
        <time>2022-04-17T10:42:33Z</time>
      </trkpt>
      <trkpt lat="50.04129" lon="1.98458">
        <ele>63.1</ele>
        <time>2022-04-17T10:42:34Z</time>
      </trkpt>
      <trkpt lat="50.04129" lon="1.98456">
        <ele>63.1</ele>
        <time>2022-04-17T10:42:36Z</time>
      </trkpt>
      <trkpt lat="50.04129" lon="1.98454">
        <ele>63.1</ele>
        <time>2022-04-17T10:42:37Z</time>
      </trkpt>
      <trkpt lat="50.04129" lon="1.98452">
        <ele>63.1</ele>
        <time>2022-04-17T10:42:39Z</time>
      </trkpt>
      <trkpt lat="50.04129" lon="1.98451">
        <ele>63.1</ele>
        <time>2022-04-17T10:42:40Z</time>
      </trkpt>
      <trkpt lat="50.0413" lon="1.98449">
        <ele>63.1</ele>
        <time>2022-04-17T10:42:41Z</time>
      </trkpt>
      <trkpt lat="50.0413" lon="1.98447">
        <ele>63</ele>
        <time>2022-04-17T10:42:42Z</time>
      </trkpt>
      <trkpt lat="50.04131" lon="1.98446">
        <ele>63</ele>
        <time>2022-04-17T10:42:43Z</time>
      </trkpt>
      <trkpt lat="50.04131" lon="1.98445">
        <ele>63</ele>
        <time>2022-04-17T10:42:44Z</time>
      </trkpt>
      <trkpt lat="50.04131" lon="1.98442">
        <ele>62.9</ele>
        <time>2022-04-17T10:42:45Z</time>
      </trkpt>
      <trkpt lat="50.04132" lon="1.98441">
        <ele>62.9</ele>
        <time>2022-04-17T10:42:47Z</time>
      </trkpt>
      <trkpt lat="50.04132" lon="1.98439">
        <ele>62.9</ele>
        <time>2022-04-17T10:42:48Z</time>
      </trkpt>
      <trkpt lat="50.04133" lon="1.98436">
        <ele>62.8</ele>
        <time>2022-04-17T10:42:49Z</time>
      </trkpt>
      <trkpt lat="50.04133" lon="1.98435">
        <ele>62.8</ele>
        <time>2022-04-17T10:42:50Z</time>
      </trkpt>
      <trkpt lat="50.04133" lon="1.98434">
        <ele>62.8</ele>
        <time>2022-04-17T10:42:51Z</time>
      </trkpt>
      <trkpt lat="50.04133" lon="1.98432">
        <ele>62.8</ele>
        <time>2022-04-17T10:42:52Z</time>
      </trkpt>
      <trkpt lat="50.04134" lon="1.98429">
        <ele>63.2</ele>
        <time>2022-04-17T10:42:54Z</time>
      </trkpt>
      <trkpt lat="50.04134" lon="1.98428">
        <ele>63.2</ele>
        <time>2022-04-17T10:42:55Z</time>
      </trkpt>
      <trkpt lat="50.04135" lon="1.98426">
        <ele>63.3</ele>
        <time>2022-04-17T10:42:56Z</time>
      </trkpt>
      <trkpt lat="50.04135" lon="1.98425">
        <ele>63.4</ele>
        <time>2022-04-17T10:42:57Z</time>
      </trkpt>
      <trkpt lat="50.04136" lon="1.98424">
        <ele>63.5</ele>
        <time>2022-04-17T10:42:58Z</time>
      </trkpt>
      <trkpt lat="50.04137" lon="1.98422">
        <ele>63.6</ele>
        <time>2022-04-17T10:42:59Z</time>
      </trkpt>
      <trkpt lat="50.04138" lon="1.98422">
        <ele>63.6</ele>
        <time>2022-04-17T10:43:01Z</time>
      </trkpt>
      <trkpt lat="50.04139" lon="1.98421">
        <ele>63.7</ele>
        <time>2022-04-17T10:43:02Z</time>
      </trkpt>
      <trkpt lat="50.04141" lon="1.98421">
        <ele>63.8</ele>
        <time>2022-04-17T10:43:03Z</time>
      </trkpt>
      <trkpt lat="50.04142" lon="1.9842">
        <ele>63.9</ele>
        <time>2022-04-17T10:43:04Z</time>
      </trkpt>
      <trkpt lat="50.04143" lon="1.9842">
        <ele>64</ele>
        <time>2022-04-17T10:43:05Z</time>
      </trkpt>
      <trkpt lat="50.04145" lon="1.9842">
        <ele>64.2</ele>
        <time>2022-04-17T10:43:06Z</time>
      </trkpt>
      <trkpt lat="50.04146" lon="1.9842">
        <ele>64.2</ele>
        <time>2022-04-17T10:43:08Z</time>
      </trkpt>
      <trkpt lat="50.04147" lon="1.9842">
        <ele>64.3</ele>
        <time>2022-04-17T10:43:09Z</time>
      </trkpt>
      <trkpt lat="50.04149" lon="1.9842">
        <ele>64.4</ele>
        <time>2022-04-17T10:43:10Z</time>
      </trkpt>
      <trkpt lat="50.0415" lon="1.9842">
        <ele>64.5</ele>
        <time>2022-04-17T10:43:11Z</time>
      </trkpt>
      <trkpt lat="50.04151" lon="1.9842">
        <ele>64.6</ele>
        <time>2022-04-17T10:43:12Z</time>
      </trkpt>
      <trkpt lat="50.04152" lon="1.9842">
        <ele>64.6</ele>
        <time>2022-04-17T10:43:13Z</time>
      </trkpt>
      <trkpt lat="50.04153" lon="1.9842">
        <ele>64.7</ele>
        <time>2022-04-17T10:43:15Z</time>
      </trkpt>
      <trkpt lat="50.04154" lon="1.9842">
        <ele>64.8</ele>
        <time>2022-04-17T10:43:16Z</time>
      </trkpt>
      <trkpt lat="50.04155" lon="1.98419">
        <ele>64.9</ele>
        <time>2022-04-17T10:43:17Z</time>
      </trkpt>
      <trkpt lat="50.04156" lon="1.98419">
        <ele>64.9</ele>
        <time>2022-04-17T10:43:18Z</time>
      </trkpt>
      <trkpt lat="50.04157" lon="1.98418">
        <ele>64.9</ele>
        <time>2022-04-17T10:43:20Z</time>
      </trkpt>
      <trkpt lat="50.04158" lon="1.98417">
        <ele>64.9</ele>
        <time>2022-04-17T10:43:21Z</time>
      </trkpt>
      <trkpt lat="50.04159" lon="1.98416">
        <ele>64.9</ele>
        <time>2022-04-17T10:43:22Z</time>
      </trkpt>
      <trkpt lat="50.04159" lon="1.98415">
        <ele>64.9</ele>
        <time>2022-04-17T10:43:23Z</time>
      </trkpt>
      <trkpt lat="50.0416" lon="1.98415">
        <ele>64.9</ele>
        <time>2022-04-17T10:43:24Z</time>
      </trkpt>
      <trkpt lat="50.04161" lon="1.98413">
        <ele>65</ele>
        <time>2022-04-17T10:43:26Z</time>
      </trkpt>
      <trkpt lat="50.04162" lon="1.98412">
        <ele>65</ele>
        <time>2022-04-17T10:43:27Z</time>
      </trkpt>
      <trkpt lat="50.04162" lon="1.9841">
        <ele>65</ele>
        <time>2022-04-17T10:43:28Z</time>
      </trkpt>
      <trkpt lat="50.04162" lon="1.9841">
        <ele>65</ele>
        <time>2022-04-17T10:43:29Z</time>
      </trkpt>
      <trkpt lat="50.04163" lon="1.98409">
        <ele>65</ele>
        <time>2022-04-17T10:43:30Z</time>
      </trkpt>
      <trkpt lat="50.04164" lon="1.98407">
        <ele>65</ele>
        <time>2022-04-17T10:43:32Z</time>
      </trkpt>
      <trkpt lat="50.04164" lon="1.98406">
        <ele>65</ele>
        <time>2022-04-17T10:43:33Z</time>
      </trkpt>
      <trkpt lat="50.04165" lon="1.98405">
        <ele>65</ele>
        <time>2022-04-17T10:43:34Z</time>
      </trkpt>
      <trkpt lat="50.04166" lon="1.98404">
        <ele>65</ele>
        <time>2022-04-17T10:43:35Z</time>
      </trkpt>
      <trkpt lat="50.04167" lon="1.98403">
        <ele>65</ele>
        <time>2022-04-17T10:43:37Z</time>
      </trkpt>
      <trkpt lat="50.04167" lon="1.98402">
        <ele>65</ele>
        <time>2022-04-17T10:43:38Z</time>
      </trkpt>
      <trkpt lat="50.04168" lon="1.984">
        <ele>65.1</ele>
        <time>2022-04-17T10:43:39Z</time>
      </trkpt>
      <trkpt lat="50.04168" lon="1.98397">
        <ele>65.1</ele>
        <time>2022-04-17T10:43:40Z</time>
      </trkpt>
      <trkpt lat="50.04169" lon="1.98396">
        <ele>65.1</ele>
        <time>2022-04-17T10:43:41Z</time>
      </trkpt>
      <trkpt lat="50.04169" lon="1.98395">
        <ele>65.1</ele>
        <time>2022-04-17T10:43:42Z</time>
      </trkpt>
      <trkpt lat="50.04169" lon="1.98391">
        <ele>65.1</ele>
        <time>2022-04-17T10:43:43Z</time>
      </trkpt>
      <trkpt lat="50.0417" lon="1.9839">
        <ele>65.1</ele>
        <time>2022-04-17T10:43:45Z</time>
      </trkpt>
      <trkpt lat="50.0417" lon="1.98389">
        <ele>65.1</ele>
        <time>2022-04-17T10:43:46Z</time>
      </trkpt>
      <trkpt lat="50.04171" lon="1.98386">
        <ele>65.1</ele>
        <time>2022-04-17T10:43:47Z</time>
      </trkpt>
      <trkpt lat="50.04172" lon="1.98385">
        <ele>65.1</ele>
        <time>2022-04-17T10:43:48Z</time>
      </trkpt>
      <trkpt lat="50.04172" lon="1.98384">
        <ele>65.1</ele>
        <time>2022-04-17T10:43:49Z</time>
      </trkpt>
      <trkpt lat="50.04173" lon="1.98382">
        <ele>65.1</ele>
        <time>2022-04-17T10:43:50Z</time>
      </trkpt>
      <trkpt lat="50.04174" lon="1.9838">
        <ele>65</ele>
        <time>2022-04-17T10:43:52Z</time>
      </trkpt>
      <trkpt lat="50.04174" lon="1.98379">
        <ele>65</ele>
        <time>2022-04-17T10:43:53Z</time>
      </trkpt>
      <trkpt lat="50.04175" lon="1.98377">
        <ele>65</ele>
        <time>2022-04-17T10:43:54Z</time>
      </trkpt>
      <trkpt lat="50.04175" lon="1.98375">
        <ele>65</ele>
        <time>2022-04-17T10:43:55Z</time>
      </trkpt>
      <trkpt lat="50.04176" lon="1.98373">
        <ele>65</ele>
        <time>2022-04-17T10:43:56Z</time>
      </trkpt>
      <trkpt lat="50.04177" lon="1.98372">
        <ele>64.9</ele>
        <time>2022-04-17T10:43:57Z</time>
      </trkpt>
      <trkpt lat="50.04178" lon="1.98369">
        <ele>64.9</ele>
        <time>2022-04-17T10:43:59Z</time>
      </trkpt>
      <trkpt lat="50.04179" lon="1.98367">
        <ele>64.9</ele>
        <time>2022-04-17T10:44:00Z</time>
      </trkpt>
      <trkpt lat="50.0418" lon="1.98366">
        <ele>64.8</ele>
        <time>2022-04-17T10:44:01Z</time>
      </trkpt>
      <trkpt lat="50.0418" lon="1.98365">
        <ele>64.8</ele>
        <time>2022-04-17T10:44:02Z</time>
      </trkpt>
      <trkpt lat="50.04181" lon="1.98362">
        <ele>64.8</ele>
        <time>2022-04-17T10:44:04Z</time>
      </trkpt>
      <trkpt lat="50.04182" lon="1.98361">
        <ele>64.7</ele>
        <time>2022-04-17T10:44:05Z</time>
      </trkpt>
      <trkpt lat="50.04183" lon="1.9836">
        <ele>64.7</ele>
        <time>2022-04-17T10:44:06Z</time>
      </trkpt>
      <trkpt lat="50.04184" lon="1.98359">
        <ele>64.7</ele>
        <time>2022-04-17T10:44:07Z</time>
      </trkpt>
      <trkpt lat="50.04185" lon="1.98357">
        <ele>64.6</ele>
        <time>2022-04-17T10:44:08Z</time>
      </trkpt>
      <trkpt lat="50.04185" lon="1.98356">
        <ele>64.6</ele>
        <time>2022-04-17T10:44:09Z</time>
      </trkpt>
      <trkpt lat="50.04186" lon="1.98355">
        <ele>64.6</ele>
        <time>2022-04-17T10:44:10Z</time>
      </trkpt>
      <trkpt lat="50.04187" lon="1.98352">
        <ele>64.5</ele>
        <time>2022-04-17T10:44:12Z</time>
      </trkpt>
      <trkpt lat="50.04187" lon="1.98351">
        <ele>64.4</ele>
        <time>2022-04-17T10:44:13Z</time>
      </trkpt>
      <trkpt lat="50.04188" lon="1.9835">
        <ele>64.4</ele>
        <time>2022-04-17T10:44:14Z</time>
      </trkpt>
      <trkpt lat="50.04188" lon="1.98348">
        <ele>64.4</ele>
        <time>2022-04-17T10:44:15Z</time>
      </trkpt>
      <trkpt lat="50.04188" lon="1.98344">
        <ele>64.3</ele>
        <time>2022-04-17T10:44:17Z</time>
      </trkpt>
      <trkpt lat="50.04188" lon="1.98343">
        <ele>64.2</ele>
        <time>2022-04-17T10:44:18Z</time>
      </trkpt>
      <trkpt lat="50.04188" lon="1.98342">
        <ele>64.2</ele>
        <time>2022-04-17T10:44:19Z</time>
      </trkpt>
      <trkpt lat="50.04188" lon="1.98341">
        <ele>64.2</ele>
        <time>2022-04-17T10:44:20Z</time>
      </trkpt>
      <trkpt lat="50.04188" lon="1.98341">
        <ele>64.2</ele>
        <time>2022-04-17T10:44:21Z</time>
      </trkpt>
      <trkpt lat="50.04187" lon="1.98342">
        <ele>64.1</ele>
        <time>2022-04-17T10:44:22Z</time>
      </trkpt>
      <trkpt lat="50.04187" lon="1.98342">
        <ele>64.1</ele>
        <time>2022-04-17T10:44:23Z</time>
      </trkpt>
      <trkpt lat="50.04187" lon="1.98342">
        <ele>64.1</ele>
        <time>2022-04-17T10:44:24Z</time>
      </trkpt>
      <trkpt lat="50.04187" lon="1.98342">
        <ele>64.1</ele>
        <time>2022-04-17T10:44:25Z</time>
      </trkpt>
      <trkpt lat="50.04187" lon="1.98342">
        <ele>64.1</ele>
        <time>2022-04-17T10:44:26Z</time>
      </trkpt>
      <trkpt lat="50.04187" lon="1.98342">
        <ele>64.1</ele>
        <time>2022-04-17T10:44:27Z</time>
      </trkpt>
      <trkpt lat="50.04186" lon="1.98342">
        <ele>64.1</ele>
        <time>2022-04-17T10:44:28Z</time>
      </trkpt>
      <trkpt lat="50.04186" lon="1.98341">
        <ele>64.1</ele>
        <time>2022-04-17T10:44:30Z</time>
      </trkpt>
      <trkpt lat="50.04186" lon="1.98341">
        <ele>64.1</ele>
        <time>2022-04-17T10:44:31Z</time>
      </trkpt>
      <trkpt lat="50.04186" lon="1.98341">
        <ele>64.1</ele>
        <time>2022-04-17T10:44:33Z</time>
      </trkpt>
      <trkpt lat="50.04186" lon="1.98341">
        <ele>64.1</ele>
        <time>2022-04-17T10:44:34Z</time>
      </trkpt>
      <trkpt lat="50.04186" lon="1.98341">
        <ele>64.1</ele>
        <time>2022-04-17T10:44:35Z</time>
      </trkpt>
      <trkpt lat="50.04186" lon="1.9834">
        <ele>64.1</ele>
        <time>2022-04-17T10:44:36Z</time>
      </trkpt>
      <trkpt lat="50.04186" lon="1.9834">
        <ele>64</ele>
        <time>2022-04-17T10:44:37Z</time>
      </trkpt>
      <trkpt lat="50.04185" lon="1.98339">
        <ele>64</ele>
        <time>2022-04-17T10:44:38Z</time>
      </trkpt>
      <trkpt lat="50.04185" lon="1.98339">
        <ele>63.9</ele>
        <time>2022-04-17T10:44:39Z</time>
      </trkpt>
      <trkpt lat="50.04185" lon="1.98338">
        <ele>63.9</ele>
        <time>2022-04-17T10:44:40Z</time>
      </trkpt>
      <trkpt lat="50.04184" lon="1.98338">
        <ele>63.9</ele>
        <time>2022-04-17T10:44:41Z</time>
      </trkpt>
      <trkpt lat="50.04184" lon="1.98338">
        <ele>63.9</ele>
        <time>2022-04-17T10:44:42Z</time>
      </trkpt>
      <trkpt lat="50.04184" lon="1.98338">
        <ele>63.9</ele>
        <time>2022-04-17T10:44:43Z</time>
      </trkpt>
      <trkpt lat="50.04184" lon="1.98338">
        <ele>63.9</ele>
        <time>2022-04-17T10:44:44Z</time>
      </trkpt>
      <trkpt lat="50.04184" lon="1.98338">
        <ele>63.9</ele>
        <time>2022-04-17T10:44:45Z</time>
      </trkpt>
      <trkpt lat="50.04184" lon="1.98339">
        <ele>63.9</ele>
        <time>2022-04-17T10:44:46Z</time>
      </trkpt>
      <trkpt lat="50.04184" lon="1.98339">
        <ele>63.9</ele>
        <time>2022-04-17T10:44:47Z</time>
      </trkpt>
      <trkpt lat="50.04184" lon="1.98339">
        <ele>63.9</ele>
        <time>2022-04-17T10:44:48Z</time>
      </trkpt>
      <trkpt lat="50.04184" lon="1.9834">
        <ele>63.8</ele>
        <time>2022-04-17T10:44:49Z</time>
      </trkpt>
      <trkpt lat="50.04184" lon="1.9834">
        <ele>63.8</ele>
        <time>2022-04-17T10:44:50Z</time>
      </trkpt>
      <trkpt lat="50.04184" lon="1.98341">
        <ele>63.8</ele>
        <time>2022-04-17T10:44:51Z</time>
      </trkpt>
      <trkpt lat="50.04184" lon="1.98341">
        <ele>63.9</ele>
        <time>2022-04-17T10:44:52Z</time>
      </trkpt>
      <trkpt lat="50.04184" lon="1.98341">
        <ele>63.8</ele>
        <time>2022-04-17T10:44:53Z</time>
      </trkpt>
      <trkpt lat="50.04184" lon="1.98342">
        <ele>63.8</ele>
        <time>2022-04-17T10:44:54Z</time>
      </trkpt>
      <trkpt lat="50.04184" lon="1.98342">
        <ele>63.8</ele>
        <time>2022-04-17T10:44:55Z</time>
      </trkpt>
      <trkpt lat="50.04184" lon="1.98342">
        <ele>63.8</ele>
        <time>2022-04-17T10:44:56Z</time>
      </trkpt>
      <trkpt lat="50.04184" lon="1.98342">
        <ele>63.8</ele>
        <time>2022-04-17T10:44:57Z</time>
      </trkpt>
      <trkpt lat="50.04184" lon="1.98342">
        <ele>63.8</ele>
        <time>2022-04-17T10:44:58Z</time>
      </trkpt>
      <trkpt lat="50.04184" lon="1.98342">
        <ele>63.8</ele>
        <time>2022-04-17T10:44:59Z</time>
      </trkpt>
      <trkpt lat="50.04184" lon="1.98342">
        <ele>63.8</ele>
        <time>2022-04-17T10:45:00Z</time>
      </trkpt>
      <trkpt lat="50.04184" lon="1.98342">
        <ele>63.8</ele>
        <time>2022-04-17T10:45:02Z</time>
      </trkpt>
      <trkpt lat="50.04184" lon="1.98342">
        <ele>63.8</ele>
        <time>2022-04-17T10:45:04Z</time>
      </trkpt>
      <trkpt lat="50.04183" lon="1.98341">
        <ele>63.8</ele>
        <time>2022-04-17T10:45:05Z</time>
      </trkpt>
      <trkpt lat="50.04184" lon="1.9834">
        <ele>63.8</ele>
        <time>2022-04-17T10:45:06Z</time>
      </trkpt>
      <trkpt lat="50.04184" lon="1.98339">
        <ele>63.8</ele>
        <time>2022-04-17T10:45:07Z</time>
      </trkpt>
      <trkpt lat="50.04185" lon="1.98339">
        <ele>63.8</ele>
        <time>2022-04-17T10:45:09Z</time>
      </trkpt>
      <trkpt lat="50.04185" lon="1.98338">
        <ele>63.7</ele>
        <time>2022-04-17T10:45:10Z</time>
      </trkpt>
      <trkpt lat="50.04185" lon="1.98337">
        <ele>63.7</ele>
        <time>2022-04-17T10:45:11Z</time>
      </trkpt>
      <trkpt lat="50.04185" lon="1.98335">
        <ele>63.6</ele>
        <time>2022-04-17T10:45:12Z</time>
      </trkpt>
      <trkpt lat="50.04185" lon="1.98333">
        <ele>63.6</ele>
        <time>2022-04-17T10:45:14Z</time>
      </trkpt>
      <trkpt lat="50.04184" lon="1.98331">
        <ele>63.5</ele>
        <time>2022-04-17T10:45:15Z</time>
      </trkpt>
      <trkpt lat="50.04184" lon="1.9833">
        <ele>63.4</ele>
        <time>2022-04-17T10:45:16Z</time>
      </trkpt>
      <trkpt lat="50.04184" lon="1.98329">
        <ele>63.4</ele>
        <time>2022-04-17T10:45:17Z</time>
      </trkpt>
      <trkpt lat="50.04185" lon="1.98329">
        <ele>63.3</ele>
        <time>2022-04-17T10:45:18Z</time>
      </trkpt>
      <trkpt lat="50.04185" lon="1.98329">
        <ele>63.4</ele>
        <time>2022-04-17T10:45:19Z</time>
      </trkpt>
      <trkpt lat="50.04185" lon="1.98329">
        <ele>63.4</ele>
        <time>2022-04-17T10:45:20Z</time>
      </trkpt>
      <trkpt lat="50.04185" lon="1.98329">
        <ele>63.4</ele>
        <time>2022-04-17T10:45:21Z</time>
      </trkpt>
      <trkpt lat="50.04185" lon="1.9833">
        <ele>63.3</ele>
        <time>2022-04-17T10:45:22Z</time>
      </trkpt>
      <trkpt lat="50.04185" lon="1.98331">
        <ele>63.3</ele>
        <time>2022-04-17T10:45:23Z</time>
      </trkpt>
      <trkpt lat="50.04185" lon="1.98331">
        <ele>63.3</ele>
        <time>2022-04-17T10:45:24Z</time>
      </trkpt>
      <trkpt lat="50.04185" lon="1.98331">
        <ele>63.3</ele>
        <time>2022-04-17T10:45:25Z</time>
      </trkpt>
      <trkpt lat="50.04185" lon="1.98332">
        <ele>63.2</ele>
        <time>2022-04-17T10:45:26Z</time>
      </trkpt>
      <trkpt lat="50.04185" lon="1.98332">
        <ele>63.3</ele>
        <time>2022-04-17T10:45:27Z</time>
      </trkpt>
      <trkpt lat="50.04185" lon="1.98332">
        <ele>63.3</ele>
        <time>2022-04-17T10:45:28Z</time>
      </trkpt>
      <trkpt lat="50.04185" lon="1.98332">
        <ele>63.3</ele>
        <time>2022-04-17T10:45:29Z</time>
      </trkpt>
      <trkpt lat="50.04185" lon="1.98332">
        <ele>63.3</ele>
        <time>2022-04-17T10:45:30Z</time>
      </trkpt>
      <trkpt lat="50.04185" lon="1.98332">
        <ele>63.3</ele>
        <time>2022-04-17T10:45:31Z</time>
      </trkpt>
      <trkpt lat="50.04185" lon="1.98332">
        <ele>63.3</ele>
        <time>2022-04-17T10:45:32Z</time>
      </trkpt>
      <trkpt lat="50.04185" lon="1.98332">
        <ele>63.3</ele>
        <time>2022-04-17T10:45:33Z</time>
      </trkpt>
      <trkpt lat="50.04185" lon="1.98333">
        <ele>63.3</ele>
        <time>2022-04-17T10:45:34Z</time>
      </trkpt>
      <trkpt lat="50.04185" lon="1.98333">
        <ele>63.3</ele>
        <time>2022-04-17T10:45:35Z</time>
      </trkpt>
      <trkpt lat="50.04185" lon="1.98334">
        <ele>63.3</ele>
        <time>2022-04-17T10:45:36Z</time>
      </trkpt>
      <trkpt lat="50.04185" lon="1.98334">
        <ele>63.3</ele>
        <time>2022-04-17T10:45:37Z</time>
      </trkpt>
      <trkpt lat="50.04185" lon="1.98334">
        <ele>63.3</ele>
        <time>2022-04-17T10:45:38Z</time>
      </trkpt>
      <trkpt lat="50.04185" lon="1.98334">
        <ele>63.3</ele>
        <time>2022-04-17T10:45:39Z</time>
      </trkpt>
      <trkpt lat="50.04185" lon="1.98334">
        <ele>63.3</ele>
        <time>2022-04-17T10:45:40Z</time>
      </trkpt>
      <trkpt lat="50.04185" lon="1.98334">
        <ele>63.3</ele>
        <time>2022-04-17T10:45:41Z</time>
      </trkpt>
      <trkpt lat="50.04185" lon="1.98334">
        <ele>63.3</ele>
        <time>2022-04-17T10:45:42Z</time>
      </trkpt>
      <trkpt lat="50.04185" lon="1.98334">
        <ele>63.3</ele>
        <time>2022-04-17T10:45:43Z</time>
      </trkpt>
      <trkpt lat="50.04185" lon="1.98334">
        <ele>63.4</ele>
        <time>2022-04-17T10:45:44Z</time>
      </trkpt>
      <trkpt lat="50.04185" lon="1.98334">
        <ele>63.4</ele>
        <time>2022-04-17T10:45:45Z</time>
      </trkpt>
      <trkpt lat="50.04185" lon="1.98334">
        <ele>63.4</ele>
        <time>2022-04-17T10:45:46Z</time>
      </trkpt>
      <trkpt lat="50.04185" lon="1.98334">
        <ele>63.4</ele>
        <time>2022-04-17T10:45:47Z</time>
      </trkpt>
      <trkpt lat="50.04185" lon="1.98334">
        <ele>63.4</ele>
        <time>2022-04-17T10:45:48Z</time>
      </trkpt>
      <trkpt lat="50.04185" lon="1.98334">
        <ele>63.4</ele>
        <time>2022-04-17T10:45:49Z</time>
      </trkpt>
      <trkpt lat="50.04185" lon="1.98334">
        <ele>63.4</ele>
        <time>2022-04-17T10:45:51Z</time>
      </trkpt>
      <trkpt lat="50.04185" lon="1.98334">
        <ele>63.4</ele>
        <time>2022-04-17T10:45:52Z</time>
      </trkpt>
      <trkpt lat="50.04185" lon="1.98334">
        <ele>63.5</ele>
        <time>2022-04-17T10:45:53Z</time>
      </trkpt>
      <trkpt lat="50.04185" lon="1.98334">
        <ele>63.5</ele>
        <time>2022-04-17T10:45:54Z</time>
      </trkpt>
      <trkpt lat="50.04185" lon="1.98334">
        <ele>63.5</ele>
        <time>2022-04-17T10:45:55Z</time>
      </trkpt>
      <trkpt lat="50.04185" lon="1.98334">
        <ele>63.5</ele>
        <time>2022-04-17T10:45:56Z</time>
      </trkpt>
      <trkpt lat="50.04185" lon="1.98334">
        <ele>63.5</ele>
        <time>2022-04-17T10:45:57Z</time>
      </trkpt>
      <trkpt lat="50.04185" lon="1.98334">
        <ele>63.5</ele>
        <time>2022-04-17T10:45:58Z</time>
      </trkpt>
      <trkpt lat="50.04185" lon="1.98332">
        <ele>63.4</ele>
        <time>2022-04-17T10:45:59Z</time>
      </trkpt>
      <trkpt lat="50.04185" lon="1.98333">
        <ele>63.3</ele>
        <time>2022-04-17T10:46:00Z</time>
      </trkpt>
      <trkpt lat="50.04185" lon="1.98333">
        <ele>63.4</ele>
        <time>2022-04-17T10:46:01Z</time>
      </trkpt>
      <trkpt lat="50.04184" lon="1.98334">
        <ele>63.3</ele>
        <time>2022-04-17T10:46:02Z</time>
      </trkpt>
      <trkpt lat="50.04184" lon="1.98334">
        <ele>63.3</ele>
        <time>2022-04-17T10:46:03Z</time>
      </trkpt>
      <trkpt lat="50.04183" lon="1.98334">
        <ele>63.3</ele>
        <time>2022-04-17T10:46:04Z</time>
      </trkpt>
      <trkpt lat="50.04183" lon="1.98334">
        <ele>63.2</ele>
        <time>2022-04-17T10:46:05Z</time>
      </trkpt>
      <trkpt lat="50.04183" lon="1.98334">
        <ele>63.2</ele>
        <time>2022-04-17T10:46:07Z</time>
      </trkpt>
      <trkpt lat="50.04182" lon="1.98334">
        <ele>63.1</ele>
        <time>2022-04-17T10:46:08Z</time>
      </trkpt>
      <trkpt lat="50.04181" lon="1.98336">
        <ele>63</ele>
        <time>2022-04-17T10:46:09Z</time>
      </trkpt>
      <trkpt lat="50.04179" lon="1.98337">
        <ele>62.8</ele>
        <time>2022-04-17T10:46:11Z</time>
      </trkpt>
      <trkpt lat="50.04178" lon="1.98337">
        <ele>62.6</ele>
        <time>2022-04-17T10:46:12Z</time>
      </trkpt>
      <trkpt lat="50.04176" lon="1.98337">
        <ele>62.5</ele>
        <time>2022-04-17T10:46:13Z</time>
      </trkpt>
      <trkpt lat="50.04174" lon="1.98337">
        <ele>62.3</ele>
        <time>2022-04-17T10:46:14Z</time>
      </trkpt>
      <trkpt lat="50.04173" lon="1.98337">
        <ele>62.2</ele>
        <time>2022-04-17T10:46:15Z</time>
      </trkpt>
      <trkpt lat="50.04172" lon="1.98337">
        <ele>62.1</ele>
        <time>2022-04-17T10:46:16Z</time>
      </trkpt>
      <trkpt lat="50.04171" lon="1.98337">
        <ele>61.9</ele>
        <time>2022-04-17T10:46:17Z</time>
      </trkpt>
      <trkpt lat="50.04168" lon="1.98336">
        <ele>61.6</ele>
        <time>2022-04-17T10:46:19Z</time>
      </trkpt>
      <trkpt lat="50.04165" lon="1.98332">
        <ele>61.3</ele>
        <time>2022-04-17T10:46:21Z</time>
      </trkpt>
      <trkpt lat="50.04164" lon="1.98331">
        <ele>61.2</ele>
        <time>2022-04-17T10:46:22Z</time>
      </trkpt>
      <trkpt lat="50.04163" lon="1.98329">
        <ele>61</ele>
        <time>2022-04-17T10:46:24Z</time>
      </trkpt>
      <trkpt lat="50.04163" lon="1.98328">
        <ele>61</ele>
        <time>2022-04-17T10:46:25Z</time>
      </trkpt>
      <trkpt lat="50.04162" lon="1.98327">
        <ele>60.8</ele>
        <time>2022-04-17T10:46:26Z</time>
      </trkpt>
      <trkpt lat="50.04161" lon="1.98325">
        <ele>60.7</ele>
        <time>2022-04-17T10:46:27Z</time>
      </trkpt>
      <trkpt lat="50.04161" lon="1.98324">
        <ele>60.6</ele>
        <time>2022-04-17T10:46:28Z</time>
      </trkpt>
      <trkpt lat="50.0416" lon="1.98323">
        <ele>60.5</ele>
        <time>2022-04-17T10:46:29Z</time>
      </trkpt>
      <trkpt lat="50.04159" lon="1.98322">
        <ele>60.5</ele>
        <time>2022-04-17T10:46:30Z</time>
      </trkpt>
      <trkpt lat="50.04159" lon="1.98322">
        <ele>60.4</ele>
        <time>2022-04-17T10:46:32Z</time>
      </trkpt>
      <trkpt lat="50.04159" lon="1.98321">
        <ele>60.3</ele>
        <time>2022-04-17T10:46:33Z</time>
      </trkpt>
      <trkpt lat="50.04157" lon="1.9832">
        <ele>60.2</ele>
        <time>2022-04-17T10:46:34Z</time>
      </trkpt>
      <trkpt lat="50.04157" lon="1.98319">
        <ele>60.1</ele>
        <time>2022-04-17T10:46:35Z</time>
      </trkpt>
      <trkpt lat="50.04155" lon="1.98317">
        <ele>59.9</ele>
        <time>2022-04-17T10:46:36Z</time>
      </trkpt>
      <trkpt lat="50.04154" lon="1.98317">
        <ele>59.9</ele>
        <time>2022-04-17T10:46:37Z</time>
      </trkpt>
      <trkpt lat="50.04154" lon="1.98316">
        <ele>59.8</ele>
        <time>2022-04-17T10:46:39Z</time>
      </trkpt>
      <trkpt lat="50.04153" lon="1.98316">
        <ele>59.7</ele>
        <time>2022-04-17T10:46:40Z</time>
      </trkpt>
      <trkpt lat="50.04151" lon="1.98313">
        <ele>59.5</ele>
        <time>2022-04-17T10:46:42Z</time>
      </trkpt>
      <trkpt lat="50.04151" lon="1.98313">
        <ele>59.4</ele>
        <time>2022-04-17T10:46:43Z</time>
      </trkpt>
      <trkpt lat="50.0415" lon="1.98312">
        <ele>59.3</ele>
        <time>2022-04-17T10:46:44Z</time>
      </trkpt>
      <trkpt lat="50.04149" lon="1.98312">
        <ele>59.3</ele>
        <time>2022-04-17T10:46:45Z</time>
      </trkpt>
      <trkpt lat="50.04149" lon="1.98312">
        <ele>59.2</ele>
        <time>2022-04-17T10:46:46Z</time>
      </trkpt>
      <trkpt lat="50.04149" lon="1.98313">
        <ele>59.2</ele>
        <time>2022-04-17T10:46:47Z</time>
      </trkpt>
      <trkpt lat="50.04148" lon="1.98313">
        <ele>59.2</ele>
        <time>2022-04-17T10:46:48Z</time>
      </trkpt>
      <trkpt lat="50.04148" lon="1.98313">
        <ele>59.1</ele>
        <time>2022-04-17T10:46:49Z</time>
      </trkpt>
      <trkpt lat="50.04149" lon="1.98314">
        <ele>59.1</ele>
        <time>2022-04-17T10:46:50Z</time>
      </trkpt>
      <trkpt lat="50.04149" lon="1.98314">
        <ele>59.1</ele>
        <time>2022-04-17T10:46:51Z</time>
      </trkpt>
      <trkpt lat="50.04148" lon="1.98313">
        <ele>59.1</ele>
        <time>2022-04-17T10:46:52Z</time>
      </trkpt>
      <trkpt lat="50.04148" lon="1.98313">
        <ele>59.1</ele>
        <time>2022-04-17T10:46:53Z</time>
      </trkpt>
      <trkpt lat="50.04148" lon="1.98313">
        <ele>59.1</ele>
        <time>2022-04-17T10:46:54Z</time>
      </trkpt>
      <trkpt lat="50.04149" lon="1.98313">
        <ele>59</ele>
        <time>2022-04-17T10:46:55Z</time>
      </trkpt>
      <trkpt lat="50.04149" lon="1.98313">
        <ele>59</ele>
        <time>2022-04-17T10:46:56Z</time>
      </trkpt>
      <trkpt lat="50.04149" lon="1.98313">
        <ele>59</ele>
        <time>2022-04-17T10:46:58Z</time>
      </trkpt>
      <trkpt lat="50.04148" lon="1.98312">
        <ele>58.9</ele>
        <time>2022-04-17T10:46:59Z</time>
      </trkpt>
      <trkpt lat="50.04148" lon="1.98312">
        <ele>58.9</ele>
        <time>2022-04-17T10:47:00Z</time>
      </trkpt>
      <trkpt lat="50.04147" lon="1.98312">
        <ele>58.8</ele>
        <time>2022-04-17T10:47:02Z</time>
      </trkpt>
      <trkpt lat="50.04146" lon="1.98311">
        <ele>58.7</ele>
        <time>2022-04-17T10:47:04Z</time>
      </trkpt>
      <trkpt lat="50.04145" lon="1.98311">
        <ele>58.6</ele>
        <time>2022-04-17T10:47:05Z</time>
      </trkpt>
      <trkpt lat="50.04145" lon="1.9831">
        <ele>58.6</ele>
        <time>2022-04-17T10:47:06Z</time>
      </trkpt>
      <trkpt lat="50.04144" lon="1.98309">
        <ele>58.5</ele>
        <time>2022-04-17T10:47:07Z</time>
      </trkpt>
      <trkpt lat="50.04143" lon="1.98307">
        <ele>58.3</ele>
        <time>2022-04-17T10:47:08Z</time>
      </trkpt>
      <trkpt lat="50.04142" lon="1.98306">
        <ele>58.2</ele>
        <time>2022-04-17T10:47:09Z</time>
      </trkpt>
      <trkpt lat="50.04141" lon="1.98305">
        <ele>58.1</ele>
        <time>2022-04-17T10:47:10Z</time>
      </trkpt>
      <trkpt lat="50.0414" lon="1.98304">
        <ele>58</ele>
        <time>2022-04-17T10:47:12Z</time>
      </trkpt>
      <trkpt lat="50.04139" lon="1.98303">
        <ele>57.9</ele>
        <time>2022-04-17T10:47:13Z</time>
      </trkpt>
      <trkpt lat="50.04138" lon="1.98302">
        <ele>57.7</ele>
        <time>2022-04-17T10:47:14Z</time>
      </trkpt>
      <trkpt lat="50.04137" lon="1.983">
        <ele>57.6</ele>
        <time>2022-04-17T10:47:15Z</time>
      </trkpt>
      <trkpt lat="50.04136" lon="1.983">
        <ele>57.5</ele>
        <time>2022-04-17T10:47:17Z</time>
      </trkpt>
      <trkpt lat="50.04135" lon="1.98299">
        <ele>57.4</ele>
        <time>2022-04-17T10:47:18Z</time>
      </trkpt>
      <trkpt lat="50.04134" lon="1.98298">
        <ele>57.2</ele>
        <time>2022-04-17T10:47:19Z</time>
      </trkpt>
      <trkpt lat="50.04132" lon="1.98297">
        <ele>57.1</ele>
        <time>2022-04-17T10:47:20Z</time>
      </trkpt>
      <trkpt lat="50.04132" lon="1.98296">
        <ele>57</ele>
        <time>2022-04-17T10:47:21Z</time>
      </trkpt>
      <trkpt lat="50.04131" lon="1.98296">
        <ele>56.9</ele>
        <time>2022-04-17T10:47:22Z</time>
      </trkpt>
      <trkpt lat="50.0413" lon="1.98295">
        <ele>56.8</ele>
        <time>2022-04-17T10:47:24Z</time>
      </trkpt>
      <trkpt lat="50.04128" lon="1.98295">
        <ele>56.6</ele>
        <time>2022-04-17T10:47:25Z</time>
      </trkpt>
      <trkpt lat="50.04127" lon="1.98294">
        <ele>56.5</ele>
        <time>2022-04-17T10:47:26Z</time>
      </trkpt>
      <trkpt lat="50.04126" lon="1.98294">
        <ele>56.4</ele>
        <time>2022-04-17T10:47:27Z</time>
      </trkpt>
      <trkpt lat="50.04125" lon="1.98294">
        <ele>56.3</ele>
        <time>2022-04-17T10:47:28Z</time>
      </trkpt>
      <trkpt lat="50.04124" lon="1.98294">
        <ele>56.1</ele>
        <time>2022-04-17T10:47:30Z</time>
      </trkpt>
      <trkpt lat="50.04122" lon="1.98293">
        <ele>55.9</ele>
        <time>2022-04-17T10:47:31Z</time>
      </trkpt>
      <trkpt lat="50.04121" lon="1.98293">
        <ele>55.8</ele>
        <time>2022-04-17T10:47:32Z</time>
      </trkpt>
      <trkpt lat="50.0412" lon="1.98292">
        <ele>55.7</ele>
        <time>2022-04-17T10:47:33Z</time>
      </trkpt>
      <trkpt lat="50.04119" lon="1.98292">
        <ele>55.6</ele>
        <time>2022-04-17T10:47:34Z</time>
      </trkpt>
      <trkpt lat="50.04119" lon="1.98291">
        <ele>55.5</ele>
        <time>2022-04-17T10:47:35Z</time>
      </trkpt>
      <trkpt lat="50.04118" lon="1.9829">
        <ele>55.3</ele>
        <time>2022-04-17T10:47:37Z</time>
      </trkpt>
      <trkpt lat="50.04117" lon="1.9829">
        <ele>55.2</ele>
        <time>2022-04-17T10:47:38Z</time>
      </trkpt>
      <trkpt lat="50.04116" lon="1.98289">
        <ele>55.1</ele>
        <time>2022-04-17T10:47:39Z</time>
      </trkpt>
      <trkpt lat="50.04115" lon="1.98286">
        <ele>54.9</ele>
        <time>2022-04-17T10:47:41Z</time>
      </trkpt>
      <trkpt lat="50.04114" lon="1.98286">
        <ele>54.8</ele>
        <time>2022-04-17T10:47:42Z</time>
      </trkpt>
      <trkpt lat="50.04114" lon="1.98285">
        <ele>54.7</ele>
        <time>2022-04-17T10:47:43Z</time>
      </trkpt>
      <trkpt lat="50.04113" lon="1.98284">
        <ele>54.5</ele>
        <time>2022-04-17T10:47:44Z</time>
      </trkpt>
      <trkpt lat="50.04111" lon="1.98281">
        <ele>54.3</ele>
        <time>2022-04-17T10:47:46Z</time>
      </trkpt>
      <trkpt lat="50.0411" lon="1.9828">
        <ele>54.2</ele>
        <time>2022-04-17T10:47:47Z</time>
      </trkpt>
      <trkpt lat="50.04109" lon="1.98279">
        <ele>54</ele>
        <time>2022-04-17T10:47:48Z</time>
      </trkpt>
      <trkpt lat="50.04109" lon="1.98277">
        <ele>53.9</ele>
        <time>2022-04-17T10:47:49Z</time>
      </trkpt>
      <trkpt lat="50.04109" lon="1.98274">
        <ele>53.7</ele>
        <time>2022-04-17T10:47:50Z</time>
      </trkpt>
      <trkpt lat="50.04108" lon="1.98273">
        <ele>53.6</ele>
        <time>2022-04-17T10:47:52Z</time>
      </trkpt>
      <trkpt lat="50.04108" lon="1.98272">
        <ele>53.5</ele>
        <time>2022-04-17T10:47:53Z</time>
      </trkpt>
      <trkpt lat="50.04107" lon="1.98269">
        <ele>53.3</ele>
        <time>2022-04-17T10:47:54Z</time>
      </trkpt>
      <trkpt lat="50.04106" lon="1.98268">
        <ele>53.2</ele>
        <time>2022-04-17T10:47:55Z</time>
      </trkpt>
      <trkpt lat="50.04104" lon="1.98265">
        <ele>52.9</ele>
        <time>2022-04-17T10:47:56Z</time>
      </trkpt>
      <trkpt lat="50.04104" lon="1.98264">
        <ele>52.7</ele>
        <time>2022-04-17T10:47:58Z</time>
      </trkpt>
      <trkpt lat="50.04103" lon="1.98262">
        <ele>52.6</ele>
        <time>2022-04-17T10:47:59Z</time>
      </trkpt>
      <trkpt lat="50.04102" lon="1.98261">
        <ele>52.4</ele>
        <time>2022-04-17T10:48:00Z</time>
      </trkpt>
      <trkpt lat="50.04101" lon="1.9826">
        <ele>52.3</ele>
        <time>2022-04-17T10:48:01Z</time>
      </trkpt>
      <trkpt lat="50.041" lon="1.9826">
        <ele>52.2</ele>
        <time>2022-04-17T10:48:02Z</time>
      </trkpt>
      <trkpt lat="50.04099" lon="1.98259">
        <ele>52.1</ele>
        <time>2022-04-17T10:48:03Z</time>
      </trkpt>
      <trkpt lat="50.04098" lon="1.98258">
        <ele>52</ele>
        <time>2022-04-17T10:48:04Z</time>
      </trkpt>
      <trkpt lat="50.04096" lon="1.98257">
        <ele>51.8</ele>
        <time>2022-04-17T10:48:05Z</time>
      </trkpt>
      <trkpt lat="50.04095" lon="1.98256">
        <ele>51.6</ele>
        <time>2022-04-17T10:48:06Z</time>
      </trkpt>
      <trkpt lat="50.04095" lon="1.98255">
        <ele>51.5</ele>
        <time>2022-04-17T10:48:08Z</time>
      </trkpt>
      <trkpt lat="50.04094" lon="1.98254">
        <ele>50.2</ele>
        <time>2022-04-17T10:48:09Z</time>
      </trkpt>
      <trkpt lat="50.04093" lon="1.98253">
        <ele>50.1</ele>
        <time>2022-04-17T10:48:10Z</time>
      </trkpt>
      <trkpt lat="50.04092" lon="1.98252">
        <ele>50</ele>
        <time>2022-04-17T10:48:11Z</time>
      </trkpt>
      <trkpt lat="50.04091" lon="1.9825">
        <ele>49.9</ele>
        <time>2022-04-17T10:48:12Z</time>
      </trkpt>
      <trkpt lat="50.04091" lon="1.98249">
        <ele>49.8</ele>
        <time>2022-04-17T10:48:13Z</time>
      </trkpt>
      <trkpt lat="50.04091" lon="1.98247">
        <ele>49.7</ele>
        <time>2022-04-17T10:48:14Z</time>
      </trkpt>
      <trkpt lat="50.04093" lon="1.98242">
        <ele>49.3</ele>
        <time>2022-04-17T10:48:16Z</time>
      </trkpt>
      <trkpt lat="50.04093" lon="1.9824">
        <ele>49.1</ele>
        <time>2022-04-17T10:48:17Z</time>
      </trkpt>
      <trkpt lat="50.04094" lon="1.9824">
        <ele>49.1</ele>
        <time>2022-04-17T10:48:18Z</time>
      </trkpt>
      <trkpt lat="50.04094" lon="1.98238">
        <ele>49</ele>
        <time>2022-04-17T10:48:19Z</time>
      </trkpt>
      <trkpt lat="50.04095" lon="1.98236">
        <ele>48.9</ele>
        <time>2022-04-17T10:48:20Z</time>
      </trkpt>
      <trkpt lat="50.04096" lon="1.98235">
        <ele>48.7</ele>
        <time>2022-04-17T10:48:21Z</time>
      </trkpt>
      <trkpt lat="50.04098" lon="1.98233">
        <ele>48.5</ele>
        <time>2022-04-17T10:48:22Z</time>
      </trkpt>
      <trkpt lat="50.04098" lon="1.98232">
        <ele>48.4</ele>
        <time>2022-04-17T10:48:23Z</time>
      </trkpt>
      <trkpt lat="50.04099" lon="1.98231">
        <ele>48.4</ele>
        <time>2022-04-17T10:48:24Z</time>
      </trkpt>
      <trkpt lat="50.04099" lon="1.98229">
        <ele>48.2</ele>
        <time>2022-04-17T10:48:25Z</time>
      </trkpt>
      <trkpt lat="50.041" lon="1.98228">
        <ele>48.1</ele>
        <time>2022-04-17T10:48:26Z</time>
      </trkpt>
      <trkpt lat="50.04101" lon="1.98227">
        <ele>48</ele>
        <time>2022-04-17T10:48:27Z</time>
      </trkpt>
      <trkpt lat="50.04102" lon="1.98225">
        <ele>47.9</ele>
        <time>2022-04-17T10:48:29Z</time>
      </trkpt>
      <trkpt lat="50.04103" lon="1.98223">
        <ele>47.7</ele>
        <time>2022-04-17T10:48:30Z</time>
      </trkpt>
      <trkpt lat="50.04104" lon="1.98222">
        <ele>47.6</ele>
        <time>2022-04-17T10:48:31Z</time>
      </trkpt>
      <trkpt lat="50.04105" lon="1.98218">
        <ele>47.4</ele>
        <time>2022-04-17T10:48:32Z</time>
      </trkpt>
      <trkpt lat="50.04106" lon="1.98217">
        <ele>47.3</ele>
        <time>2022-04-17T10:48:34Z</time>
      </trkpt>
      <trkpt lat="50.04106" lon="1.98216">
        <ele>47.2</ele>
        <time>2022-04-17T10:48:35Z</time>
      </trkpt>
      <trkpt lat="50.04108" lon="1.98213">
        <ele>47</ele>
        <time>2022-04-17T10:48:36Z</time>
      </trkpt>
      <trkpt lat="50.04109" lon="1.98212">
        <ele>46.8</ele>
        <time>2022-04-17T10:48:37Z</time>
      </trkpt>
      <trkpt lat="50.04109" lon="1.98212">
        <ele>46.8</ele>
        <time>2022-04-17T10:48:38Z</time>
      </trkpt>
      <trkpt lat="50.0411" lon="1.9821">
        <ele>46.7</ele>
        <time>2022-04-17T10:48:39Z</time>
      </trkpt>
      <trkpt lat="50.04111" lon="1.98209">
        <ele>46.5</ele>
        <time>2022-04-17T10:48:40Z</time>
      </trkpt>
      <trkpt lat="50.04112" lon="1.98208">
        <ele>46.4</ele>
        <time>2022-04-17T10:48:41Z</time>
      </trkpt>
      <trkpt lat="50.04112" lon="1.98207">
        <ele>46.3</ele>
        <time>2022-04-17T10:48:42Z</time>
      </trkpt>
      <trkpt lat="50.04113" lon="1.98206">
        <ele>46.2</ele>
        <time>2022-04-17T10:48:43Z</time>
      </trkpt>
      <trkpt lat="50.04114" lon="1.98205">
        <ele>46.1</ele>
        <time>2022-04-17T10:48:44Z</time>
      </trkpt>
      <trkpt lat="50.04114" lon="1.98204">
        <ele>46</ele>
        <time>2022-04-17T10:48:45Z</time>
      </trkpt>
      <trkpt lat="50.04115" lon="1.98199">
        <ele>45.7</ele>
        <time>2022-04-17T10:48:47Z</time>
      </trkpt>
      <trkpt lat="50.04116" lon="1.98197">
        <ele>45.5</ele>
        <time>2022-04-17T10:48:48Z</time>
      </trkpt>
      <trkpt lat="50.04116" lon="1.98195">
        <ele>45.4</ele>
        <time>2022-04-17T10:48:49Z</time>
      </trkpt>
      <trkpt lat="50.04116" lon="1.98193">
        <ele>45.3</ele>
        <time>2022-04-17T10:48:51Z</time>
      </trkpt>
      <trkpt lat="50.04116" lon="1.98192">
        <ele>45.2</ele>
        <time>2022-04-17T10:48:52Z</time>
      </trkpt>
      <trkpt lat="50.04115" lon="1.98192">
        <ele>45.1</ele>
        <time>2022-04-17T10:48:53Z</time>
      </trkpt>
      <trkpt lat="50.04113" lon="1.98191">
        <ele>44.9</ele>
        <time>2022-04-17T10:48:54Z</time>
      </trkpt>
      <trkpt lat="50.04112" lon="1.9819">
        <ele>44.8</ele>
        <time>2022-04-17T10:48:55Z</time>
      </trkpt>
      <trkpt lat="50.04111" lon="1.98188">
        <ele>44.6</ele>
        <time>2022-04-17T10:48:56Z</time>
      </trkpt>
      <trkpt lat="50.04107" lon="1.98187">
        <ele>44.3</ele>
        <time>2022-04-17T10:48:57Z</time>
      </trkpt>
      <trkpt lat="50.04107" lon="1.98186">
        <ele>44.2</ele>
        <time>2022-04-17T10:48:58Z</time>
      </trkpt>
      <trkpt lat="50.04106" lon="1.98185">
        <ele>44.1</ele>
        <time>2022-04-17T10:48:59Z</time>
      </trkpt>
      <trkpt lat="50.04105" lon="1.98184">
        <ele>43.9</ele>
        <time>2022-04-17T10:49:00Z</time>
      </trkpt>
      <trkpt lat="50.04103" lon="1.98182">
        <ele>43.7</ele>
        <time>2022-04-17T10:49:01Z</time>
      </trkpt>
      <trkpt lat="50.04102" lon="1.98181">
        <ele>43.6</ele>
        <time>2022-04-17T10:49:02Z</time>
      </trkpt>
      <trkpt lat="50.041" lon="1.9818">
        <ele>43.5</ele>
        <time>2022-04-17T10:49:04Z</time>
      </trkpt>
      <trkpt lat="50.04099" lon="1.98179">
        <ele>43.3</ele>
        <time>2022-04-17T10:49:05Z</time>
      </trkpt>
      <trkpt lat="50.04097" lon="1.98177">
        <ele>43.2</ele>
        <time>2022-04-17T10:49:06Z</time>
      </trkpt>
      <trkpt lat="50.04097" lon="1.98176">
        <ele>43.1</ele>
        <time>2022-04-17T10:49:07Z</time>
      </trkpt>
      <trkpt lat="50.04096" lon="1.98176">
        <ele>43</ele>
        <time>2022-04-17T10:49:08Z</time>
      </trkpt>
      <trkpt lat="50.04094" lon="1.98174">
        <ele>42.8</ele>
        <time>2022-04-17T10:49:09Z</time>
      </trkpt>
      <trkpt lat="50.04093" lon="1.98174">
        <ele>42.8</ele>
        <time>2022-04-17T10:49:10Z</time>
      </trkpt>
      <trkpt lat="50.04093" lon="1.98173">
        <ele>42.7</ele>
        <time>2022-04-17T10:49:11Z</time>
      </trkpt>
      <trkpt lat="50.0409" lon="1.98174">
        <ele>42.5</ele>
        <time>2022-04-17T10:49:12Z</time>
      </trkpt>
      <trkpt lat="50.04088" lon="1.98173">
        <ele>42.3</ele>
        <time>2022-04-17T10:49:14Z</time>
      </trkpt>
      <trkpt lat="50.04086" lon="1.98172">
        <ele>42.2</ele>
        <time>2022-04-17T10:49:15Z</time>
      </trkpt>
      <trkpt lat="50.04085" lon="1.98171">
        <ele>42.1</ele>
        <time>2022-04-17T10:49:16Z</time>
      </trkpt>
      <trkpt lat="50.04085" lon="1.9817">
        <ele>42</ele>
        <time>2022-04-17T10:49:17Z</time>
      </trkpt>
      <trkpt lat="50.04083" lon="1.98168">
        <ele>41.9</ele>
        <time>2022-04-17T10:49:18Z</time>
      </trkpt>
      <trkpt lat="50.04083" lon="1.98167">
        <ele>41.8</ele>
        <time>2022-04-17T10:49:19Z</time>
      </trkpt>
      <trkpt lat="50.04082" lon="1.98166">
        <ele>41.7</ele>
        <time>2022-04-17T10:49:20Z</time>
      </trkpt>
      <trkpt lat="50.0408" lon="1.98165">
        <ele>41.6</ele>
        <time>2022-04-17T10:49:22Z</time>
      </trkpt>
      <trkpt lat="50.04079" lon="1.98164">
        <ele>41.4</ele>
        <time>2022-04-17T10:49:23Z</time>
      </trkpt>
      <trkpt lat="50.04077" lon="1.98161">
        <ele>41.2</ele>
        <time>2022-04-17T10:49:24Z</time>
      </trkpt>
      <trkpt lat="50.04075" lon="1.9816">
        <ele>41</ele>
        <time>2022-04-17T10:49:25Z</time>
      </trkpt>
      <trkpt lat="50.04074" lon="1.98159">
        <ele>40.9</ele>
        <time>2022-04-17T10:49:26Z</time>
      </trkpt>
      <trkpt lat="50.04073" lon="1.98159">
        <ele>40.8</ele>
        <time>2022-04-17T10:49:27Z</time>
      </trkpt>
      <trkpt lat="50.04073" lon="1.98158">
        <ele>40.8</ele>
        <time>2022-04-17T10:49:28Z</time>
      </trkpt>
      <trkpt lat="50.04072" lon="1.98158">
        <ele>40.7</ele>
        <time>2022-04-17T10:49:29Z</time>
      </trkpt>
      <trkpt lat="50.0407" lon="1.98158">
        <ele>40.5</ele>
        <time>2022-04-17T10:49:31Z</time>
      </trkpt>
      <trkpt lat="50.04068" lon="1.98158">
        <ele>40.3</ele>
        <time>2022-04-17T10:49:32Z</time>
      </trkpt>
      <trkpt lat="50.04067" lon="1.98157">
        <ele>40.2</ele>
        <time>2022-04-17T10:49:33Z</time>
      </trkpt>
      <trkpt lat="50.04065" lon="1.98156">
        <ele>40</ele>
        <time>2022-04-17T10:49:34Z</time>
      </trkpt>
      <trkpt lat="50.04062" lon="1.98155">
        <ele>39.6</ele>
        <time>2022-04-17T10:49:35Z</time>
      </trkpt>
      <trkpt lat="50.04062" lon="1.98155">
        <ele>39.6</ele>
        <time>2022-04-17T10:49:36Z</time>
      </trkpt>
      <trkpt lat="50.04061" lon="1.98155">
        <ele>39.5</ele>
        <time>2022-04-17T10:49:37Z</time>
      </trkpt>
      <trkpt lat="50.0406" lon="1.98155">
        <ele>39.4</ele>
        <time>2022-04-17T10:49:38Z</time>
      </trkpt>
      <trkpt lat="50.04059" lon="1.98155">
        <ele>39.3</ele>
        <time>2022-04-17T10:49:39Z</time>
      </trkpt>
      <trkpt lat="50.04059" lon="1.98154">
        <ele>39.2</ele>
        <time>2022-04-17T10:49:41Z</time>
      </trkpt>
      <trkpt lat="50.04058" lon="1.98154">
        <ele>39.1</ele>
        <time>2022-04-17T10:49:42Z</time>
      </trkpt>
      <trkpt lat="50.04057" lon="1.98155">
        <ele>39</ele>
        <time>2022-04-17T10:49:43Z</time>
      </trkpt>
      <trkpt lat="50.04056" lon="1.98156">
        <ele>38.9</ele>
        <time>2022-04-17T10:49:44Z</time>
      </trkpt>
      <trkpt lat="50.04056" lon="1.98155">
        <ele>38.3</ele>
        <time>2022-04-17T10:49:45Z</time>
      </trkpt>
      <trkpt lat="50.04056" lon="1.98154">
        <ele>38.3</ele>
        <time>2022-04-17T10:49:46Z</time>
      </trkpt>
      <trkpt lat="50.04055" lon="1.98154">
        <ele>38.3</ele>
        <time>2022-04-17T10:49:47Z</time>
      </trkpt>
      <trkpt lat="50.04053" lon="1.98155">
        <ele>38.2</ele>
        <time>2022-04-17T10:49:49Z</time>
      </trkpt>
      <trkpt lat="50.04052" lon="1.98159">
        <ele>38.1</ele>
        <time>2022-04-17T10:49:50Z</time>
      </trkpt>
      <trkpt lat="50.04052" lon="1.98159">
        <ele>38.1</ele>
        <time>2022-04-17T10:49:51Z</time>
      </trkpt>
      <trkpt lat="50.04051" lon="1.9816">
        <ele>38.1</ele>
        <time>2022-04-17T10:49:52Z</time>
      </trkpt>
      <trkpt lat="50.0405" lon="1.9816">
        <ele>38.1</ele>
        <time>2022-04-17T10:49:53Z</time>
      </trkpt>
      <trkpt lat="50.04049" lon="1.9816">
        <ele>38</ele>
        <time>2022-04-17T10:49:54Z</time>
      </trkpt>
      <trkpt lat="50.0405" lon="1.98159">
        <ele>38</ele>
        <time>2022-04-17T10:49:56Z</time>
      </trkpt>
      <trkpt lat="50.04049" lon="1.98159">
        <ele>38</ele>
        <time>2022-04-17T10:49:57Z</time>
      </trkpt>
      <trkpt lat="50.04048" lon="1.98159">
        <ele>37.9</ele>
        <time>2022-04-17T10:49:58Z</time>
      </trkpt>
      <trkpt lat="50.04047" lon="1.98158">
        <ele>37.9</ele>
        <time>2022-04-17T10:49:59Z</time>
      </trkpt>
      <trkpt lat="50.04047" lon="1.98157">
        <ele>37.3</ele>
        <time>2022-04-17T10:50:00Z</time>
      </trkpt>
      <trkpt lat="50.04045" lon="1.98157">
        <ele>37.1</ele>
        <time>2022-04-17T10:50:02Z</time>
      </trkpt>
      <trkpt lat="50.04044" lon="1.98156">
        <ele>36.9</ele>
        <time>2022-04-17T10:50:03Z</time>
      </trkpt>
      <trkpt lat="50.04043" lon="1.98156">
        <ele>36.7</ele>
        <time>2022-04-17T10:50:04Z</time>
      </trkpt>
      <trkpt lat="50.04042" lon="1.98156">
        <ele>36.6</ele>
        <time>2022-04-17T10:50:05Z</time>
      </trkpt>
      <trkpt lat="50.04041" lon="1.98156">
        <ele>36.5</ele>
        <time>2022-04-17T10:50:06Z</time>
      </trkpt>
      <trkpt lat="50.0404" lon="1.98155">
        <ele>36.4</ele>
        <time>2022-04-17T10:50:07Z</time>
      </trkpt>
      <trkpt lat="50.04038" lon="1.98154">
        <ele>36.1</ele>
        <time>2022-04-17T10:50:09Z</time>
      </trkpt>
      <trkpt lat="50.04035" lon="1.98152">
        <ele>35.6</ele>
        <time>2022-04-17T10:50:10Z</time>
      </trkpt>
      <trkpt lat="50.04034" lon="1.98152">
        <ele>35.6</ele>
        <time>2022-04-17T10:50:11Z</time>
      </trkpt>
      <trkpt lat="50.04034" lon="1.98151">
        <ele>35.5</ele>
        <time>2022-04-17T10:50:12Z</time>
      </trkpt>
      <trkpt lat="50.04033" lon="1.9815">
        <ele>35.3</ele>
        <time>2022-04-17T10:50:13Z</time>
      </trkpt>
      <trkpt lat="50.04032" lon="1.9815">
        <ele>35.2</ele>
        <time>2022-04-17T10:50:14Z</time>
      </trkpt>
      <trkpt lat="50.0403" lon="1.98148">
        <ele>34.9</ele>
        <time>2022-04-17T10:50:15Z</time>
      </trkpt>
      <trkpt lat="50.04029" lon="1.98148">
        <ele>34.8</ele>
        <time>2022-04-17T10:50:16Z</time>
      </trkpt>
      <trkpt lat="50.04029" lon="1.98147">
        <ele>34.7</ele>
        <time>2022-04-17T10:50:17Z</time>
      </trkpt>
      <trkpt lat="50.04028" lon="1.98147">
        <ele>34.6</ele>
        <time>2022-04-17T10:50:18Z</time>
      </trkpt>
      <trkpt lat="50.04027" lon="1.98146">
        <ele>34.5</ele>
        <time>2022-04-17T10:50:19Z</time>
      </trkpt>
      <trkpt lat="50.04026" lon="1.98145">
        <ele>34.3</ele>
        <time>2022-04-17T10:50:21Z</time>
      </trkpt>
      <trkpt lat="50.04025" lon="1.98145">
        <ele>34.2</ele>
        <time>2022-04-17T10:50:22Z</time>
      </trkpt>
      <trkpt lat="50.04024" lon="1.98145">
        <ele>34.1</ele>
        <time>2022-04-17T10:50:23Z</time>
      </trkpt>
      <trkpt lat="50.04023" lon="1.98144">
        <ele>33.9</ele>
        <time>2022-04-17T10:50:24Z</time>
      </trkpt>
      <trkpt lat="50.0402" lon="1.98143">
        <ele>33.6</ele>
        <time>2022-04-17T10:50:25Z</time>
      </trkpt>
      <trkpt lat="50.04019" lon="1.98143">
        <ele>33.5</ele>
        <time>2022-04-17T10:50:26Z</time>
      </trkpt>
      <trkpt lat="50.04019" lon="1.98143">
        <ele>33.5</ele>
        <time>2022-04-17T10:50:27Z</time>
      </trkpt>
      <trkpt lat="50.04017" lon="1.98142">
        <ele>33.2</ele>
        <time>2022-04-17T10:50:28Z</time>
      </trkpt>
      <trkpt lat="50.04016" lon="1.98142">
        <ele>33.1</ele>
        <time>2022-04-17T10:50:30Z</time>
      </trkpt>
      <trkpt lat="50.04015" lon="1.98142">
        <ele>33</ele>
        <time>2022-04-17T10:50:31Z</time>
      </trkpt>
      <trkpt lat="50.04014" lon="1.98142">
        <ele>32.9</ele>
        <time>2022-04-17T10:50:32Z</time>
      </trkpt>
      <trkpt lat="50.04012" lon="1.98142">
        <ele>32.7</ele>
        <time>2022-04-17T10:50:33Z</time>
      </trkpt>
      <trkpt lat="50.04011" lon="1.98142">
        <ele>32.6</ele>
        <time>2022-04-17T10:50:34Z</time>
      </trkpt>
      <trkpt lat="50.0401" lon="1.98142">
        <ele>32.4</ele>
        <time>2022-04-17T10:50:35Z</time>
      </trkpt>
      <trkpt lat="50.04009" lon="1.98142">
        <ele>32.3</ele>
        <time>2022-04-17T10:50:36Z</time>
      </trkpt>
      <trkpt lat="50.04008" lon="1.98143">
        <ele>32.1</ele>
        <time>2022-04-17T10:50:38Z</time>
      </trkpt>
      <trkpt lat="50.04007" lon="1.98143">
        <ele>32</ele>
        <time>2022-04-17T10:50:39Z</time>
      </trkpt>
      <trkpt lat="50.04006" lon="1.98144">
        <ele>31.9</ele>
        <time>2022-04-17T10:50:40Z</time>
      </trkpt>
      <trkpt lat="50.04004" lon="1.98144">
        <ele>31.7</ele>
        <time>2022-04-17T10:50:41Z</time>
      </trkpt>
      <trkpt lat="50.04004" lon="1.98144">
        <ele>31.6</ele>
        <time>2022-04-17T10:50:42Z</time>
      </trkpt>
      <trkpt lat="50.04003" lon="1.98144">
        <ele>31.5</ele>
        <time>2022-04-17T10:50:43Z</time>
      </trkpt>
      <trkpt lat="50.04002" lon="1.98144">
        <ele>31.5</ele>
        <time>2022-04-17T10:50:44Z</time>
      </trkpt>
      <trkpt lat="50.04001" lon="1.98143">
        <ele>31.4</ele>
        <time>2022-04-17T10:50:46Z</time>
      </trkpt>
      <trkpt lat="50.03999" lon="1.98143">
        <ele>31.3</ele>
        <time>2022-04-17T10:50:47Z</time>
      </trkpt>
      <trkpt lat="50.03999" lon="1.98142">
        <ele>31.2</ele>
        <time>2022-04-17T10:50:48Z</time>
      </trkpt>
      <trkpt lat="50.03998" lon="1.98142">
        <ele>31.1</ele>
        <time>2022-04-17T10:50:50Z</time>
      </trkpt>
      <trkpt lat="50.03996" lon="1.98142">
        <ele>31</ele>
        <time>2022-04-17T10:50:51Z</time>
      </trkpt>
      <trkpt lat="50.03995" lon="1.98142">
        <ele>30.9</ele>
        <time>2022-04-17T10:50:52Z</time>
      </trkpt>
      <trkpt lat="50.03994" lon="1.98142">
        <ele>30.9</ele>
        <time>2022-04-17T10:50:53Z</time>
      </trkpt>
      <trkpt lat="50.03993" lon="1.98142">
        <ele>30.8</ele>
        <time>2022-04-17T10:50:54Z</time>
      </trkpt>
      <trkpt lat="50.03992" lon="1.98141">
        <ele>30.7</ele>
        <time>2022-04-17T10:50:55Z</time>
      </trkpt>
      <trkpt lat="50.0399" lon="1.98141">
        <ele>30.5</ele>
        <time>2022-04-17T10:50:57Z</time>
      </trkpt>
      <trkpt lat="50.03989" lon="1.9814">
        <ele>30.5</ele>
        <time>2022-04-17T10:50:58Z</time>
      </trkpt>
      <trkpt lat="50.03988" lon="1.9814">
        <ele>30.4</ele>
        <time>2022-04-17T10:50:59Z</time>
      </trkpt>
      <trkpt lat="50.03986" lon="1.98141">
        <ele>30.3</ele>
        <time>2022-04-17T10:51:00Z</time>
      </trkpt>
      <trkpt lat="50.03985" lon="1.98141">
        <ele>30.2</ele>
        <time>2022-04-17T10:51:01Z</time>
      </trkpt>
      <trkpt lat="50.03984" lon="1.98141">
        <ele>30.1</ele>
        <time>2022-04-17T10:51:02Z</time>
      </trkpt>
      <trkpt lat="50.03983" lon="1.98141">
        <ele>30</ele>
        <time>2022-04-17T10:51:03Z</time>
      </trkpt>
      <trkpt lat="50.03982" lon="1.98141">
        <ele>29.9</ele>
        <time>2022-04-17T10:51:05Z</time>
      </trkpt>
      <trkpt lat="50.03979" lon="1.98142">
        <ele>29.7</ele>
        <time>2022-04-17T10:51:06Z</time>
      </trkpt>
      <trkpt lat="50.03978" lon="1.98141">
        <ele>29.7</ele>
        <time>2022-04-17T10:51:07Z</time>
      </trkpt>
      <trkpt lat="50.03977" lon="1.98141">
        <ele>29.6</ele>
        <time>2022-04-17T10:51:08Z</time>
      </trkpt>
      <trkpt lat="50.03977" lon="1.98139">
        <ele>29.5</ele>
        <time>2022-04-17T10:51:10Z</time>
      </trkpt>
      <trkpt lat="50.03976" lon="1.98138">
        <ele>29.4</ele>
        <time>2022-04-17T10:51:11Z</time>
      </trkpt>
      <trkpt lat="50.03977" lon="1.98136">
        <ele>29.4</ele>
        <time>2022-04-17T10:51:12Z</time>
      </trkpt>
      <trkpt lat="50.03977" lon="1.98134">
        <ele>29.3</ele>
        <time>2022-04-17T10:51:13Z</time>
      </trkpt>
      <trkpt lat="50.03978" lon="1.98133">
        <ele>29.2</ele>
        <time>2022-04-17T10:51:14Z</time>
      </trkpt>
      <trkpt lat="50.03979" lon="1.98131">
        <ele>29.1</ele>
        <time>2022-04-17T10:51:15Z</time>
      </trkpt>
      <trkpt lat="50.0398" lon="1.9813">
        <ele>29</ele>
        <time>2022-04-17T10:51:17Z</time>
      </trkpt>
      <trkpt lat="50.0398" lon="1.98129">
        <ele>29</ele>
        <time>2022-04-17T10:51:18Z</time>
      </trkpt>
      <trkpt lat="50.0398" lon="1.98129">
        <ele>28.9</ele>
        <time>2022-04-17T10:51:19Z</time>
      </trkpt>
      <trkpt lat="50.0398" lon="1.98128">
        <ele>28.9</ele>
        <time>2022-04-17T10:51:20Z</time>
      </trkpt>
      <trkpt lat="50.03979" lon="1.98127">
        <ele>28.8</ele>
        <time>2022-04-17T10:51:22Z</time>
      </trkpt>
      <trkpt lat="50.03978" lon="1.98127">
        <ele>28.8</ele>
        <time>2022-04-17T10:51:23Z</time>
      </trkpt>
      <trkpt lat="50.03977" lon="1.98126">
        <ele>28.7</ele>
        <time>2022-04-17T10:51:24Z</time>
      </trkpt>
      <trkpt lat="50.03973" lon="1.98124">
        <ele>28.4</ele>
        <time>2022-04-17T10:51:26Z</time>
      </trkpt>
      <trkpt lat="50.03972" lon="1.98123">
        <ele>28.3</ele>
        <time>2022-04-17T10:51:27Z</time>
      </trkpt>
      <trkpt lat="50.03971" lon="1.98122">
        <ele>28.3</ele>
        <time>2022-04-17T10:51:28Z</time>
      </trkpt>
      <trkpt lat="50.0397" lon="1.98122">
        <ele>28.2</ele>
        <time>2022-04-17T10:51:29Z</time>
      </trkpt>
      <trkpt lat="50.03968" lon="1.9812">
        <ele>28</ele>
        <time>2022-04-17T10:51:30Z</time>
      </trkpt>
      <trkpt lat="50.03966" lon="1.98119">
        <ele>27.9</ele>
        <time>2022-04-17T10:51:31Z</time>
      </trkpt>
      <trkpt lat="50.03966" lon="1.98119">
        <ele>27.9</ele>
        <time>2022-04-17T10:51:32Z</time>
      </trkpt>
      <trkpt lat="50.03965" lon="1.98118">
        <ele>27.8</ele>
        <time>2022-04-17T10:51:33Z</time>
      </trkpt>
      <trkpt lat="50.03964" lon="1.98118">
        <ele>27.8</ele>
        <time>2022-04-17T10:51:34Z</time>
      </trkpt>
      <trkpt lat="50.0396" lon="1.98116">
        <ele>27.5</ele>
        <time>2022-04-17T10:51:36Z</time>
      </trkpt>
      <trkpt lat="50.0396" lon="1.98115">
        <ele>27.5</ele>
        <time>2022-04-17T10:51:37Z</time>
      </trkpt>
      <trkpt lat="50.03959" lon="1.98114">
        <ele>27.4</ele>
        <time>2022-04-17T10:51:38Z</time>
      </trkpt>
      <trkpt lat="50.03958" lon="1.98114">
        <ele>27.3</ele>
        <time>2022-04-17T10:51:39Z</time>
      </trkpt>
      <trkpt lat="50.03956" lon="1.98112">
        <ele>27.2</ele>
        <time>2022-04-17T10:51:41Z</time>
      </trkpt>
      <trkpt lat="50.03955" lon="1.98112">
        <ele>27.1</ele>
        <time>2022-04-17T10:51:42Z</time>
      </trkpt>
      <trkpt lat="50.03955" lon="1.98111">
        <ele>27.1</ele>
        <time>2022-04-17T10:51:43Z</time>
      </trkpt>
      <trkpt lat="50.03954" lon="1.98111">
        <ele>27</ele>
        <time>2022-04-17T10:51:44Z</time>
      </trkpt>
      <trkpt lat="50.03951" lon="1.98109">
        <ele>26.6</ele>
        <time>2022-04-17T10:51:46Z</time>
      </trkpt>
      <trkpt lat="50.03951" lon="1.98109">
        <ele>26.5</ele>
        <time>2022-04-17T10:51:47Z</time>
      </trkpt>
      <trkpt lat="50.03951" lon="1.98107">
        <ele>26.5</ele>
        <time>2022-04-17T10:51:48Z</time>
      </trkpt>
      <trkpt lat="50.03951" lon="1.98105">
        <ele>26.5</ele>
        <time>2022-04-17T10:51:49Z</time>
      </trkpt>
      <trkpt lat="50.03952" lon="1.98101">
        <ele>26.5</ele>
        <time>2022-04-17T10:51:51Z</time>
      </trkpt>
      <trkpt lat="50.03952" lon="1.981">
        <ele>26.5</ele>
        <time>2022-04-17T10:51:52Z</time>
      </trkpt>
      <trkpt lat="50.03953" lon="1.98099">
        <ele>26.5</ele>
        <time>2022-04-17T10:51:53Z</time>
      </trkpt>
      <trkpt lat="50.03953" lon="1.98099">
        <ele>26.5</ele>
        <time>2022-04-17T10:51:54Z</time>
      </trkpt>
      <trkpt lat="50.03954" lon="1.98099">
        <ele>26.5</ele>
        <time>2022-04-17T10:51:55Z</time>
      </trkpt>
      <trkpt lat="50.03954" lon="1.98099">
        <ele>26.5</ele>
        <time>2022-04-17T10:51:56Z</time>
      </trkpt>
      <trkpt lat="50.03954" lon="1.98098">
        <ele>26.5</ele>
        <time>2022-04-17T10:51:58Z</time>
      </trkpt>
      <trkpt lat="50.03954" lon="1.98098">
        <ele>26.5</ele>
        <time>2022-04-17T10:51:59Z</time>
      </trkpt>
      <trkpt lat="50.03955" lon="1.98099">
        <ele>26.5</ele>
        <time>2022-04-17T10:52:00Z</time>
      </trkpt>
      <trkpt lat="50.03955" lon="1.981">
        <ele>26.5</ele>
        <time>2022-04-17T10:52:01Z</time>
      </trkpt>
      <trkpt lat="50.03955" lon="1.981">
        <ele>26.5</ele>
        <time>2022-04-17T10:52:02Z</time>
      </trkpt>
      <trkpt lat="50.03955" lon="1.981">
        <ele>26.5</ele>
        <time>2022-04-17T10:52:03Z</time>
      </trkpt>
      <trkpt lat="50.03955" lon="1.981">
        <ele>26.5</ele>
        <time>2022-04-17T10:52:04Z</time>
      </trkpt>
      <trkpt lat="50.03955" lon="1.981">
        <ele>26.5</ele>
        <time>2022-04-17T10:52:06Z</time>
      </trkpt>
      <trkpt lat="50.03955" lon="1.98099">
        <ele>26.5</ele>
        <time>2022-04-17T10:52:07Z</time>
      </trkpt>
      <trkpt lat="50.03955" lon="1.98099">
        <ele>26.5</ele>
        <time>2022-04-17T10:52:08Z</time>
      </trkpt>
      <trkpt lat="50.03955" lon="1.98099">
        <ele>26.4</ele>
        <time>2022-04-17T10:52:10Z</time>
      </trkpt>
      <trkpt lat="50.03955" lon="1.98099">
        <ele>26.4</ele>
        <time>2022-04-17T10:52:11Z</time>
      </trkpt>
      <trkpt lat="50.03955" lon="1.98099">
        <ele>26.4</ele>
        <time>2022-04-17T10:52:12Z</time>
      </trkpt>
      <trkpt lat="50.03955" lon="1.98099">
        <ele>26.4</ele>
        <time>2022-04-17T10:52:13Z</time>
      </trkpt>
      <trkpt lat="50.03955" lon="1.98099">
        <ele>26.4</ele>
        <time>2022-04-17T10:52:14Z</time>
      </trkpt>
      <trkpt lat="50.03955" lon="1.981">
        <ele>26.4</ele>
        <time>2022-04-17T10:52:15Z</time>
      </trkpt>
      <trkpt lat="50.03956" lon="1.98099">
        <ele>26.4</ele>
        <time>2022-04-17T10:52:16Z</time>
      </trkpt>
      <trkpt lat="50.03956" lon="1.98099">
        <ele>26.4</ele>
        <time>2022-04-17T10:52:17Z</time>
      </trkpt>
      <trkpt lat="50.03956" lon="1.981">
        <ele>26.4</ele>
        <time>2022-04-17T10:52:18Z</time>
      </trkpt>
      <trkpt lat="50.03957" lon="1.981">
        <ele>26.4</ele>
        <time>2022-04-17T10:52:20Z</time>
      </trkpt>
      <trkpt lat="50.03957" lon="1.98101">
        <ele>26.4</ele>
        <time>2022-04-17T10:52:21Z</time>
      </trkpt>
      <trkpt lat="50.03958" lon="1.98102">
        <ele>26.4</ele>
        <time>2022-04-17T10:52:22Z</time>
      </trkpt>
      <trkpt lat="50.03959" lon="1.98104">
        <ele>26.4</ele>
        <time>2022-04-17T10:52:23Z</time>
      </trkpt>
      <trkpt lat="50.03959" lon="1.98104">
        <ele>26.4</ele>
        <time>2022-04-17T10:52:24Z</time>
      </trkpt>
      <trkpt lat="50.0396" lon="1.98104">
        <ele>26.4</ele>
        <time>2022-04-17T10:52:25Z</time>
      </trkpt>
      <trkpt lat="50.03961" lon="1.98104">
        <ele>26.4</ele>
        <time>2022-04-17T10:52:26Z</time>
      </trkpt>
      <trkpt lat="50.03963" lon="1.98104">
        <ele>26.4</ele>
        <time>2022-04-17T10:52:28Z</time>
      </trkpt>
      <trkpt lat="50.03964" lon="1.98101">
        <ele>26.3</ele>
        <time>2022-04-17T10:52:29Z</time>
      </trkpt>
      <trkpt lat="50.03965" lon="1.98099">
        <ele>26.3</ele>
        <time>2022-04-17T10:52:30Z</time>
      </trkpt>
      <trkpt lat="50.03966" lon="1.98098">
        <ele>26.3</ele>
        <time>2022-04-17T10:52:31Z</time>
      </trkpt>
      <trkpt lat="50.03967" lon="1.98097">
        <ele>26.3</ele>
        <time>2022-04-17T10:52:33Z</time>
      </trkpt>
      <trkpt lat="50.03968" lon="1.98096">
        <ele>26.3</ele>
        <time>2022-04-17T10:52:34Z</time>
      </trkpt>
      <trkpt lat="50.03969" lon="1.98094">
        <ele>26.3</ele>
        <time>2022-04-17T10:52:35Z</time>
      </trkpt>
      <trkpt lat="50.0397" lon="1.98093">
        <ele>26.3</ele>
        <time>2022-04-17T10:52:36Z</time>
      </trkpt>
      <trkpt lat="50.03971" lon="1.98091">
        <ele>26.3</ele>
        <time>2022-04-17T10:52:37Z</time>
      </trkpt>
      <trkpt lat="50.03971" lon="1.9809">
        <ele>26.3</ele>
        <time>2022-04-17T10:52:38Z</time>
      </trkpt>
      <trkpt lat="50.03971" lon="1.98088">
        <ele>26.3</ele>
        <time>2022-04-17T10:52:39Z</time>
      </trkpt>
      <trkpt lat="50.03972" lon="1.98087">
        <ele>26.3</ele>
        <time>2022-04-17T10:52:40Z</time>
      </trkpt>
      <trkpt lat="50.0397" lon="1.98084">
        <ele>26.2</ele>
        <time>2022-04-17T10:52:41Z</time>
      </trkpt>
      <trkpt lat="50.03969" lon="1.98079">
        <ele>26.2</ele>
        <time>2022-04-17T10:52:42Z</time>
      </trkpt>
      <trkpt lat="50.03969" lon="1.98078">
        <ele>26.1</ele>
        <time>2022-04-17T10:52:44Z</time>
      </trkpt>
      <trkpt lat="50.03969" lon="1.98077">
        <ele>26</ele>
        <time>2022-04-17T10:52:45Z</time>
      </trkpt>
      <trkpt lat="50.03969" lon="1.98075">
        <ele>25.9</ele>
        <time>2022-04-17T10:52:46Z</time>
      </trkpt>
      <trkpt lat="50.03968" lon="1.98074">
        <ele>25.8</ele>
        <time>2022-04-17T10:52:47Z</time>
      </trkpt>
      <trkpt lat="50.03968" lon="1.98072">
        <ele>25.7</ele>
        <time>2022-04-17T10:52:48Z</time>
      </trkpt>
      <trkpt lat="50.03968" lon="1.98071">
        <ele>25.6</ele>
        <time>2022-04-17T10:52:49Z</time>
      </trkpt>
      <trkpt lat="50.03967" lon="1.98071">
        <ele>25.5</ele>
        <time>2022-04-17T10:52:51Z</time>
      </trkpt>
      <trkpt lat="50.03967" lon="1.98069">
        <ele>25.3</ele>
        <time>2022-04-17T10:52:52Z</time>
      </trkpt>
      <trkpt lat="50.03966" lon="1.98068">
        <ele>25.2</ele>
        <time>2022-04-17T10:52:53Z</time>
      </trkpt>
      <trkpt lat="50.03963" lon="1.98065">
        <ele>24.8</ele>
        <time>2022-04-17T10:52:56Z</time>
      </trkpt>
      <trkpt lat="50.03962" lon="1.98065">
        <ele>24.7</ele>
        <time>2022-04-17T10:52:58Z</time>
      </trkpt>
      <trkpt lat="50.03961" lon="1.98064">
        <ele>24.6</ele>
        <time>2022-04-17T10:52:59Z</time>
      </trkpt>
      <trkpt lat="50.0396" lon="1.98063">
        <ele>24.4</ele>
        <time>2022-04-17T10:53:00Z</time>
      </trkpt>
      <trkpt lat="50.03959" lon="1.98061">
        <ele>24.3</ele>
        <time>2022-04-17T10:53:01Z</time>
      </trkpt>
      <trkpt lat="50.03959" lon="1.9806">
        <ele>24.1</ele>
        <time>2022-04-17T10:53:02Z</time>
      </trkpt>
      <trkpt lat="50.03957" lon="1.98057">
        <ele>23.8</ele>
        <time>2022-04-17T10:53:03Z</time>
      </trkpt>
      <trkpt lat="50.03956" lon="1.98055">
        <ele>23.7</ele>
        <time>2022-04-17T10:53:05Z</time>
      </trkpt>
      <trkpt lat="50.03956" lon="1.98053">
        <ele>23.5</ele>
        <time>2022-04-17T10:53:06Z</time>
      </trkpt>
      <trkpt lat="50.03955" lon="1.98052">
        <ele>23.4</ele>
        <time>2022-04-17T10:53:07Z</time>
      </trkpt>
      <trkpt lat="50.03954" lon="1.9805">
        <ele>23.2</ele>
        <time>2022-04-17T10:53:09Z</time>
      </trkpt>
      <trkpt lat="50.03954" lon="1.98048">
        <ele>23.1</ele>
        <time>2022-04-17T10:53:11Z</time>
      </trkpt>
      <trkpt lat="50.03953" lon="1.98047">
        <ele>22.9</ele>
        <time>2022-04-17T10:53:12Z</time>
      </trkpt>
      <trkpt lat="50.03952" lon="1.98044">
        <ele>22.7</ele>
        <time>2022-04-17T10:53:13Z</time>
      </trkpt>
      <trkpt lat="50.03951" lon="1.98043">
        <ele>22.6</ele>
        <time>2022-04-17T10:53:15Z</time>
      </trkpt>
      <trkpt lat="50.0395" lon="1.98043">
        <ele>22.5</ele>
        <time>2022-04-17T10:53:16Z</time>
      </trkpt>
      <trkpt lat="50.0395" lon="1.98042">
        <ele>22.4</ele>
        <time>2022-04-17T10:53:17Z</time>
      </trkpt>
      <trkpt lat="50.03949" lon="1.98041">
        <ele>22.3</ele>
        <time>2022-04-17T10:53:18Z</time>
      </trkpt>
      <trkpt lat="50.03948" lon="1.9804">
        <ele>22.3</ele>
        <time>2022-04-17T10:53:20Z</time>
      </trkpt>
      <trkpt lat="50.03948" lon="1.98039">
        <ele>22.2</ele>
        <time>2022-04-17T10:53:22Z</time>
      </trkpt>
      <trkpt lat="50.03947" lon="1.98038">
        <ele>22.1</ele>
        <time>2022-04-17T10:53:23Z</time>
      </trkpt>
      <trkpt lat="50.03946" lon="1.98038">
        <ele>22</ele>
        <time>2022-04-17T10:53:24Z</time>
      </trkpt>
      <trkpt lat="50.03946" lon="1.98037">
        <ele>21.9</ele>
        <time>2022-04-17T10:53:25Z</time>
      </trkpt>
      <trkpt lat="50.03945" lon="1.98036">
        <ele>21.8</ele>
        <time>2022-04-17T10:53:26Z</time>
      </trkpt>
      <trkpt lat="50.03946" lon="1.98035">
        <ele>21.8</ele>
        <time>2022-04-17T10:53:27Z</time>
      </trkpt>
      <trkpt lat="50.03946" lon="1.98035">
        <ele>21.7</ele>
        <time>2022-04-17T10:53:28Z</time>
      </trkpt>
      <trkpt lat="50.03946" lon="1.98035">
        <ele>21.7</ele>
        <time>2022-04-17T10:53:30Z</time>
      </trkpt>
      <trkpt lat="50.03947" lon="1.98034">
        <ele>21.6</ele>
        <time>2022-04-17T10:53:31Z</time>
      </trkpt>
      <trkpt lat="50.03947" lon="1.98034">
        <ele>21.6</ele>
        <time>2022-04-17T10:53:32Z</time>
      </trkpt>
      <trkpt lat="50.03947" lon="1.98034">
        <ele>21.6</ele>
        <time>2022-04-17T10:53:33Z</time>
      </trkpt>
      <trkpt lat="50.03948" lon="1.98033">
        <ele>21.4</ele>
        <time>2022-04-17T10:53:34Z</time>
      </trkpt>
      <trkpt lat="50.03949" lon="1.98032">
        <ele>21.3</ele>
        <time>2022-04-17T10:53:35Z</time>
      </trkpt>
      <trkpt lat="50.0395" lon="1.98029">
        <ele>21.1</ele>
        <time>2022-04-17T10:53:37Z</time>
      </trkpt>
      <trkpt lat="50.0395" lon="1.98028">
        <ele>21</ele>
        <time>2022-04-17T10:53:38Z</time>
      </trkpt>
      <trkpt lat="50.0395" lon="1.98026">
        <ele>20.9</ele>
        <time>2022-04-17T10:53:39Z</time>
      </trkpt>
      <trkpt lat="50.0395" lon="1.98024">
        <ele>20.8</ele>
        <time>2022-04-17T10:53:40Z</time>
      </trkpt>
      <trkpt lat="50.0395" lon="1.98023">
        <ele>20.8</ele>
        <time>2022-04-17T10:53:41Z</time>
      </trkpt>
      <trkpt lat="50.03949" lon="1.98021">
        <ele>20.7</ele>
        <time>2022-04-17T10:53:42Z</time>
      </trkpt>
      <trkpt lat="50.03949" lon="1.98019">
        <ele>20.6</ele>
        <time>2022-04-17T10:53:44Z</time>
      </trkpt>
      <trkpt lat="50.03949" lon="1.98019">
        <ele>20.6</ele>
        <time>2022-04-17T10:53:45Z</time>
      </trkpt>
      <trkpt lat="50.03949" lon="1.98018">
        <ele>20.6</ele>
        <time>2022-04-17T10:53:46Z</time>
      </trkpt>
      <trkpt lat="50.03948" lon="1.98017">
        <ele>20.5</ele>
        <time>2022-04-17T10:53:47Z</time>
      </trkpt>
      <trkpt lat="50.03948" lon="1.98016">
        <ele>20.5</ele>
        <time>2022-04-17T10:53:48Z</time>
      </trkpt>
      <trkpt lat="50.03947" lon="1.98015">
        <ele>20.4</ele>
        <time>2022-04-17T10:53:49Z</time>
      </trkpt>
      <trkpt lat="50.03947" lon="1.98013">
        <ele>20.4</ele>
        <time>2022-04-17T10:53:50Z</time>
      </trkpt>
      <trkpt lat="50.03946" lon="1.98011">
        <ele>20.3</ele>
        <time>2022-04-17T10:53:52Z</time>
      </trkpt>
      <trkpt lat="50.03945" lon="1.98009">
        <ele>20.2</ele>
        <time>2022-04-17T10:53:53Z</time>
      </trkpt>
      <trkpt lat="50.03944" lon="1.98008">
        <ele>20.2</ele>
        <time>2022-04-17T10:53:54Z</time>
      </trkpt>
      <trkpt lat="50.03943" lon="1.98007">
        <ele>20.1</ele>
        <time>2022-04-17T10:53:55Z</time>
      </trkpt>
      <trkpt lat="50.03943" lon="1.98006">
        <ele>20</ele>
        <time>2022-04-17T10:53:56Z</time>
      </trkpt>
      <trkpt lat="50.03942" lon="1.98005">
        <ele>20</ele>
        <time>2022-04-17T10:53:57Z</time>
      </trkpt>
      <trkpt lat="50.03941" lon="1.98003">
        <ele>19.9</ele>
        <time>2022-04-17T10:53:58Z</time>
      </trkpt>
      <trkpt lat="50.0394" lon="1.98002">
        <ele>19.8</ele>
        <time>2022-04-17T10:53:59Z</time>
      </trkpt>
      <trkpt lat="50.0394" lon="1.98">
        <ele>19.8</ele>
        <time>2022-04-17T10:54:00Z</time>
      </trkpt>
      <trkpt lat="50.03938" lon="1.97999">
        <ele>19.6</ele>
        <time>2022-04-17T10:54:02Z</time>
      </trkpt>
      <trkpt lat="50.03936" lon="1.97997">
        <ele>19.3</ele>
        <time>2022-04-17T10:54:03Z</time>
      </trkpt>
      <trkpt lat="50.03935" lon="1.97997">
        <ele>19.2</ele>
        <time>2022-04-17T10:54:04Z</time>
      </trkpt>
      <trkpt lat="50.03935" lon="1.97996">
        <ele>19.2</ele>
        <time>2022-04-17T10:54:05Z</time>
      </trkpt>
      <trkpt lat="50.03934" lon="1.97995">
        <ele>19</ele>
        <time>2022-04-17T10:54:06Z</time>
      </trkpt>
      <trkpt lat="50.03933" lon="1.97993">
        <ele>18.8</ele>
        <time>2022-04-17T10:54:07Z</time>
      </trkpt>
      <trkpt lat="50.0393" lon="1.9799">
        <ele>18.5</ele>
        <time>2022-04-17T10:54:09Z</time>
      </trkpt>
      <trkpt lat="50.03929" lon="1.97989">
        <ele>18.4</ele>
        <time>2022-04-17T10:54:10Z</time>
      </trkpt>
      <trkpt lat="50.03926" lon="1.97987">
        <ele>18</ele>
        <time>2022-04-17T10:54:11Z</time>
      </trkpt>
      <trkpt lat="50.03925" lon="1.97986">
        <ele>18</ele>
        <time>2022-04-17T10:54:12Z</time>
      </trkpt>
      <trkpt lat="50.03924" lon="1.97984">
        <ele>17.7</ele>
        <time>2022-04-17T10:54:13Z</time>
      </trkpt>
      <trkpt lat="50.03923" lon="1.97983">
        <ele>17.6</ele>
        <time>2022-04-17T10:54:14Z</time>
      </trkpt>
      <trkpt lat="50.03922" lon="1.97982">
        <ele>17.5</ele>
        <time>2022-04-17T10:54:15Z</time>
      </trkpt>
      <trkpt lat="50.03921" lon="1.97981">
        <ele>17.3</ele>
        <time>2022-04-17T10:54:16Z</time>
      </trkpt>
      <trkpt lat="50.0392" lon="1.9798">
        <ele>17.2</ele>
        <time>2022-04-17T10:54:17Z</time>
      </trkpt>
      <trkpt lat="50.03919" lon="1.97979">
        <ele>17.1</ele>
        <time>2022-04-17T10:54:18Z</time>
      </trkpt>
      <trkpt lat="50.03918" lon="1.97978">
        <ele>17</ele>
        <time>2022-04-17T10:54:20Z</time>
      </trkpt>
      <trkpt lat="50.03916" lon="1.97977">
        <ele>16.8</ele>
        <time>2022-04-17T10:54:21Z</time>
      </trkpt>
      <trkpt lat="50.03914" lon="1.97978">
        <ele>16.6</ele>
        <time>2022-04-17T10:54:22Z</time>
      </trkpt>
      <trkpt lat="50.03913" lon="1.97978">
        <ele>16.6</ele>
        <time>2022-04-17T10:54:23Z</time>
      </trkpt>
      <trkpt lat="50.03912" lon="1.97977">
        <ele>16.5</ele>
        <time>2022-04-17T10:54:24Z</time>
      </trkpt>
      <trkpt lat="50.03911" lon="1.97976">
        <ele>16.3</ele>
        <time>2022-04-17T10:54:25Z</time>
      </trkpt>
      <trkpt lat="50.03909" lon="1.97975">
        <ele>16.3</ele>
        <time>2022-04-17T10:54:27Z</time>
      </trkpt>
      <trkpt lat="50.03907" lon="1.97974">
        <ele>16.2</ele>
        <time>2022-04-17T10:54:28Z</time>
      </trkpt>
      <trkpt lat="50.03906" lon="1.97974">
        <ele>16.2</ele>
        <time>2022-04-17T10:54:29Z</time>
      </trkpt>
      <trkpt lat="50.03904" lon="1.97971">
        <ele>16.1</ele>
        <time>2022-04-17T10:54:30Z</time>
      </trkpt>
      <trkpt lat="50.03903" lon="1.97969">
        <ele>16.1</ele>
        <time>2022-04-17T10:54:31Z</time>
      </trkpt>
      <trkpt lat="50.03903" lon="1.97968">
        <ele>16</ele>
        <time>2022-04-17T10:54:32Z</time>
      </trkpt>
      <trkpt lat="50.03902" lon="1.97968">
        <ele>16</ele>
        <time>2022-04-17T10:54:34Z</time>
      </trkpt>
      <trkpt lat="50.03901" lon="1.97967">
        <ele>16</ele>
        <time>2022-04-17T10:54:35Z</time>
      </trkpt>
      <trkpt lat="50.039" lon="1.97967">
        <ele>16</ele>
        <time>2022-04-17T10:54:36Z</time>
      </trkpt>
      <trkpt lat="50.03899" lon="1.97967">
        <ele>15.9</ele>
        <time>2022-04-17T10:54:37Z</time>
      </trkpt>
      <trkpt lat="50.03897" lon="1.97967">
        <ele>15.9</ele>
        <time>2022-04-17T10:54:38Z</time>
      </trkpt>
      <trkpt lat="50.03896" lon="1.97966">
        <ele>15.9</ele>
        <time>2022-04-17T10:54:39Z</time>
      </trkpt>
      <trkpt lat="50.03895" lon="1.97966">
        <ele>15.8</ele>
        <time>2022-04-17T10:54:41Z</time>
      </trkpt>
      <trkpt lat="50.03893" lon="1.97966">
        <ele>15.8</ele>
        <time>2022-04-17T10:54:42Z</time>
      </trkpt>
      <trkpt lat="50.03893" lon="1.97966">
        <ele>15.8</ele>
        <time>2022-04-17T10:54:43Z</time>
      </trkpt>
      <trkpt lat="50.03892" lon="1.97965">
        <ele>15.7</ele>
        <time>2022-04-17T10:54:44Z</time>
      </trkpt>
      <trkpt lat="50.03891" lon="1.97965">
        <ele>15.7</ele>
        <time>2022-04-17T10:54:45Z</time>
      </trkpt>
      <trkpt lat="50.0389" lon="1.97964">
        <ele>15.7</ele>
        <time>2022-04-17T10:54:46Z</time>
      </trkpt>
      <trkpt lat="50.0389" lon="1.97961">
        <ele>15.6</ele>
        <time>2022-04-17T10:54:47Z</time>
      </trkpt>
      <trkpt lat="50.0389" lon="1.9796">
        <ele>15.6</ele>
        <time>2022-04-17T10:54:48Z</time>
      </trkpt>
      <trkpt lat="50.03889" lon="1.97959">
        <ele>15.6</ele>
        <time>2022-04-17T10:54:49Z</time>
      </trkpt>
      <trkpt lat="50.03889" lon="1.97958">
        <ele>15.6</ele>
        <time>2022-04-17T10:54:50Z</time>
      </trkpt>
      <trkpt lat="50.03888" lon="1.97957">
        <ele>15.6</ele>
        <time>2022-04-17T10:54:51Z</time>
      </trkpt>
      <trkpt lat="50.0389" lon="1.97955">
        <ele>15.5</ele>
        <time>2022-04-17T10:54:52Z</time>
      </trkpt>
      <trkpt lat="50.0389" lon="1.97955">
        <ele>15.5</ele>
        <time>2022-04-17T10:54:53Z</time>
      </trkpt>
      <trkpt lat="50.03891" lon="1.97955">
        <ele>15.5</ele>
        <time>2022-04-17T10:54:54Z</time>
      </trkpt>
      <trkpt lat="50.03891" lon="1.97955">
        <ele>15.5</ele>
        <time>2022-04-17T10:54:55Z</time>
      </trkpt>
      <trkpt lat="50.03891" lon="1.97955">
        <ele>15.5</ele>
        <time>2022-04-17T10:54:56Z</time>
      </trkpt>
      <trkpt lat="50.03891" lon="1.97955">
        <ele>15.5</ele>
        <time>2022-04-17T10:54:57Z</time>
      </trkpt>
      <trkpt lat="50.03892" lon="1.97955">
        <ele>15.5</ele>
        <time>2022-04-17T10:54:58Z</time>
      </trkpt>
      <trkpt lat="50.03892" lon="1.97956">
        <ele>15.4</ele>
        <time>2022-04-17T10:55:00Z</time>
      </trkpt>
      <trkpt lat="50.03892" lon="1.97956">
        <ele>15.4</ele>
        <time>2022-04-17T10:55:01Z</time>
      </trkpt>
      <trkpt lat="50.03891" lon="1.97956">
        <ele>15.4</ele>
        <time>2022-04-17T10:55:02Z</time>
      </trkpt>
      <trkpt lat="50.03891" lon="1.97956">
        <ele>15.4</ele>
        <time>2022-04-17T10:55:03Z</time>
      </trkpt>
      <trkpt lat="50.03891" lon="1.97957">
        <ele>15.4</ele>
        <time>2022-04-17T10:55:05Z</time>
      </trkpt>
      <trkpt lat="50.0389" lon="1.97957">
        <ele>15.4</ele>
        <time>2022-04-17T10:55:06Z</time>
      </trkpt>
      <trkpt lat="50.0389" lon="1.97958">
        <ele>15.4</ele>
        <time>2022-04-17T10:55:07Z</time>
      </trkpt>
      <trkpt lat="50.0389" lon="1.97959">
        <ele>15.4</ele>
        <time>2022-04-17T10:55:08Z</time>
      </trkpt>
      <trkpt lat="50.03889" lon="1.97959">
        <ele>15.4</ele>
        <time>2022-04-17T10:55:09Z</time>
      </trkpt>
      <trkpt lat="50.03889" lon="1.97959">
        <ele>15.4</ele>
        <time>2022-04-17T10:55:10Z</time>
      </trkpt>
      <trkpt lat="50.03889" lon="1.97959">
        <ele>15.4</ele>
        <time>2022-04-17T10:55:11Z</time>
      </trkpt>
      <trkpt lat="50.0389" lon="1.97957">
        <ele>15.3</ele>
        <time>2022-04-17T10:55:12Z</time>
      </trkpt>
      <trkpt lat="50.0389" lon="1.97957">
        <ele>15.3</ele>
        <time>2022-04-17T10:55:13Z</time>
      </trkpt>
      <trkpt lat="50.0389" lon="1.97956">
        <ele>15.3</ele>
        <time>2022-04-17T10:55:14Z</time>
      </trkpt>
      <trkpt lat="50.0389" lon="1.97956">
        <ele>15.3</ele>
        <time>2022-04-17T10:55:15Z</time>
      </trkpt>
      <trkpt lat="50.0389" lon="1.97955">
        <ele>15.3</ele>
        <time>2022-04-17T10:55:16Z</time>
      </trkpt>
      <trkpt lat="50.03891" lon="1.97953">
        <ele>15.2</ele>
        <time>2022-04-17T10:55:17Z</time>
      </trkpt>
      <trkpt lat="50.03891" lon="1.97953">
        <ele>15.2</ele>
        <time>2022-04-17T10:55:18Z</time>
      </trkpt>
      <trkpt lat="50.03891" lon="1.97953">
        <ele>15.2</ele>
        <time>2022-04-17T10:55:19Z</time>
      </trkpt>
      <trkpt lat="50.03891" lon="1.97953">
        <ele>15.2</ele>
        <time>2022-04-17T10:55:20Z</time>
      </trkpt>
      <trkpt lat="50.03891" lon="1.97954">
        <ele>15.2</ele>
        <time>2022-04-17T10:55:21Z</time>
      </trkpt>
      <trkpt lat="50.03892" lon="1.97953">
        <ele>15.2</ele>
        <time>2022-04-17T10:55:22Z</time>
      </trkpt>
      <trkpt lat="50.03892" lon="1.97953">
        <ele>15.2</ele>
        <time>2022-04-17T10:55:23Z</time>
      </trkpt>
      <trkpt lat="50.03892" lon="1.97953">
        <ele>15.2</ele>
        <time>2022-04-17T10:55:24Z</time>
      </trkpt>
      <trkpt lat="50.03892" lon="1.97953">
        <ele>15.2</ele>
        <time>2022-04-17T10:55:25Z</time>
      </trkpt>
      <trkpt lat="50.03892" lon="1.97954">
        <ele>15.2</ele>
        <time>2022-04-17T10:55:26Z</time>
      </trkpt>
      <trkpt lat="50.03891" lon="1.97957">
        <ele>15.2</ele>
        <time>2022-04-17T10:55:27Z</time>
      </trkpt>
      <trkpt lat="50.03891" lon="1.97957">
        <ele>15.2</ele>
        <time>2022-04-17T10:55:28Z</time>
      </trkpt>
      <trkpt lat="50.03891" lon="1.97957">
        <ele>15.2</ele>
        <time>2022-04-17T10:55:29Z</time>
      </trkpt>
      <trkpt lat="50.03891" lon="1.97957">
        <ele>15.1</ele>
        <time>2022-04-17T10:55:30Z</time>
      </trkpt>
      <trkpt lat="50.03891" lon="1.97957">
        <ele>15.1</ele>
        <time>2022-04-17T10:55:31Z</time>
      </trkpt>
      <trkpt lat="50.03891" lon="1.97957">
        <ele>15.1</ele>
        <time>2022-04-17T10:55:32Z</time>
      </trkpt>
      <trkpt lat="50.03891" lon="1.97957">
        <ele>15.1</ele>
        <time>2022-04-17T10:55:33Z</time>
      </trkpt>
      <trkpt lat="50.03891" lon="1.97957">
        <ele>15.1</ele>
        <time>2022-04-17T10:55:34Z</time>
      </trkpt>
      <trkpt lat="50.03891" lon="1.97957">
        <ele>15.1</ele>
        <time>2022-04-17T10:55:35Z</time>
      </trkpt>
      <trkpt lat="50.03891" lon="1.97957">
        <ele>15.1</ele>
        <time>2022-04-17T10:55:36Z</time>
      </trkpt>
      <trkpt lat="50.03891" lon="1.97957">
        <ele>15.1</ele>
        <time>2022-04-17T10:55:37Z</time>
      </trkpt>
      <trkpt lat="50.03891" lon="1.97957">
        <ele>15.1</ele>
        <time>2022-04-17T10:55:38Z</time>
      </trkpt>
      <trkpt lat="50.03891" lon="1.97957">
        <ele>15.1</ele>
        <time>2022-04-17T10:55:39Z</time>
      </trkpt>
      <trkpt lat="50.03891" lon="1.97957">
        <ele>15.1</ele>
        <time>2022-04-17T10:55:40Z</time>
      </trkpt>
      <trkpt lat="50.03891" lon="1.97957">
        <ele>15.1</ele>
        <time>2022-04-17T10:55:41Z</time>
      </trkpt>
      <trkpt lat="50.03894" lon="1.97953">
        <ele>15</ele>
        <time>2022-04-17T10:55:43Z</time>
      </trkpt>
      <trkpt lat="50.03893" lon="1.97952">
        <ele>15</ele>
        <time>2022-04-17T10:55:44Z</time>
      </trkpt>
      <trkpt lat="50.03893" lon="1.97952">
        <ele>15</ele>
        <time>2022-04-17T10:55:45Z</time>
      </trkpt>
      <trkpt lat="50.03892" lon="1.97952">
        <ele>15</ele>
        <time>2022-04-17T10:55:46Z</time>
      </trkpt>
      <trkpt lat="50.03891" lon="1.97953">
        <ele>15</ele>
        <time>2022-04-17T10:55:47Z</time>
      </trkpt>
      <trkpt lat="50.03891" lon="1.97953">
        <ele>15</ele>
        <time>2022-04-17T10:55:48Z</time>
      </trkpt>
      <trkpt lat="50.0389" lon="1.97954">
        <ele>14.9</ele>
        <time>2022-04-17T10:55:49Z</time>
      </trkpt>
      <trkpt lat="50.0389" lon="1.97954">
        <ele>14.9</ele>
        <time>2022-04-17T10:55:50Z</time>
      </trkpt>
      <trkpt lat="50.0389" lon="1.97955">
        <ele>14.9</ele>
        <time>2022-04-17T10:55:51Z</time>
      </trkpt>
      <trkpt lat="50.0389" lon="1.97956">
        <ele>14.9</ele>
        <time>2022-04-17T10:55:52Z</time>
      </trkpt>
      <trkpt lat="50.0389" lon="1.97957">
        <ele>14.9</ele>
        <time>2022-04-17T10:55:53Z</time>
      </trkpt>
      <trkpt lat="50.0389" lon="1.97957">
        <ele>14.9</ele>
        <time>2022-04-17T10:55:54Z</time>
      </trkpt>
      <trkpt lat="50.0389" lon="1.97957">
        <ele>14.9</ele>
        <time>2022-04-17T10:55:55Z</time>
      </trkpt>
      <trkpt lat="50.0389" lon="1.97957">
        <ele>14.9</ele>
        <time>2022-04-17T10:55:56Z</time>
      </trkpt>
      <trkpt lat="50.03889" lon="1.97957">
        <ele>14.9</ele>
        <time>2022-04-17T10:55:57Z</time>
      </trkpt>
      <trkpt lat="50.03889" lon="1.97957">
        <ele>14.9</ele>
        <time>2022-04-17T10:55:58Z</time>
      </trkpt>
      <trkpt lat="50.03889" lon="1.97957">
        <ele>14.9</ele>
        <time>2022-04-17T10:55:59Z</time>
      </trkpt>
      <trkpt lat="50.03889" lon="1.97957">
        <ele>14.9</ele>
        <time>2022-04-17T10:56:00Z</time>
      </trkpt>
      <trkpt lat="50.03889" lon="1.97958">
        <ele>14.9</ele>
        <time>2022-04-17T10:56:01Z</time>
      </trkpt>
      <trkpt lat="50.03889" lon="1.97958">
        <ele>14.9</ele>
        <time>2022-04-17T10:56:02Z</time>
      </trkpt>
      <trkpt lat="50.03889" lon="1.97958">
        <ele>14.9</ele>
        <time>2022-04-17T10:56:03Z</time>
      </trkpt>
      <trkpt lat="50.03889" lon="1.97958">
        <ele>14.8</ele>
        <time>2022-04-17T10:56:04Z</time>
      </trkpt>
      <trkpt lat="50.03888" lon="1.9796">
        <ele>14.8</ele>
        <time>2022-04-17T10:56:05Z</time>
      </trkpt>
      <trkpt lat="50.03887" lon="1.9796">
        <ele>14.8</ele>
        <time>2022-04-17T10:56:06Z</time>
      </trkpt>
      <trkpt lat="50.03887" lon="1.97961">
        <ele>14.8</ele>
        <time>2022-04-17T10:56:07Z</time>
      </trkpt>
      <trkpt lat="50.03887" lon="1.97961">
        <ele>14.8</ele>
        <time>2022-04-17T10:56:08Z</time>
      </trkpt>
      <trkpt lat="50.03887" lon="1.97961">
        <ele>14.8</ele>
        <time>2022-04-17T10:56:09Z</time>
      </trkpt>
      <trkpt lat="50.03887" lon="1.97961">
        <ele>14.8</ele>
        <time>2022-04-17T10:56:10Z</time>
      </trkpt>
      <trkpt lat="50.03887" lon="1.97961">
        <ele>14.8</ele>
        <time>2022-04-17T10:56:11Z</time>
      </trkpt>
      <trkpt lat="50.03887" lon="1.97961">
        <ele>14.8</ele>
        <time>2022-04-17T10:56:12Z</time>
      </trkpt>
      <trkpt lat="50.03887" lon="1.97961">
        <ele>14.8</ele>
        <time>2022-04-17T10:56:13Z</time>
      </trkpt>
      <trkpt lat="50.03887" lon="1.97961">
        <ele>14.8</ele>
        <time>2022-04-17T10:56:14Z</time>
      </trkpt>
      <trkpt lat="50.03888" lon="1.9796">
        <ele>14.8</ele>
        <time>2022-04-17T10:56:15Z</time>
      </trkpt>
      <trkpt lat="50.03888" lon="1.97958">
        <ele>14.7</ele>
        <time>2022-04-17T10:56:16Z</time>
      </trkpt>
      <trkpt lat="50.03888" lon="1.97957">
        <ele>14.7</ele>
        <time>2022-04-17T10:56:17Z</time>
      </trkpt>
      <trkpt lat="50.03889" lon="1.97956">
        <ele>14.7</ele>
        <time>2022-04-17T10:56:18Z</time>
      </trkpt>
      <trkpt lat="50.03889" lon="1.97952">
        <ele>14.6</ele>
        <time>2022-04-17T10:56:20Z</time>
      </trkpt>
      <trkpt lat="50.03889" lon="1.97951">
        <ele>14.6</ele>
        <time>2022-04-17T10:56:21Z</time>
      </trkpt>
      <trkpt lat="50.0389" lon="1.9795">
        <ele>14.6</ele>
        <time>2022-04-17T10:56:22Z</time>
      </trkpt>
      <trkpt lat="50.0389" lon="1.97949">
        <ele>14.6</ele>
        <time>2022-04-17T10:56:23Z</time>
      </trkpt>
      <trkpt lat="50.03889" lon="1.97948">
        <ele>14.6</ele>
        <time>2022-04-17T10:56:24Z</time>
      </trkpt>
      <trkpt lat="50.03889" lon="1.97946">
        <ele>14.6</ele>
        <time>2022-04-17T10:56:26Z</time>
      </trkpt>
      <trkpt lat="50.03889" lon="1.97945">
        <ele>14.5</ele>
        <time>2022-04-17T10:56:27Z</time>
      </trkpt>
      <trkpt lat="50.03893" lon="1.9794">
        <ele>14.5</ele>
        <time>2022-04-17T10:56:28Z</time>
      </trkpt>
      <trkpt lat="50.03893" lon="1.97938">
        <ele>14.5</ele>
        <time>2022-04-17T10:56:29Z</time>
      </trkpt>
      <trkpt lat="50.03893" lon="1.97937">
        <ele>14.5</ele>
        <time>2022-04-17T10:56:30Z</time>
      </trkpt>
      <trkpt lat="50.03892" lon="1.97935">
        <ele>14.5</ele>
        <time>2022-04-17T10:56:32Z</time>
      </trkpt>
      <trkpt lat="50.03889" lon="1.97933">
        <ele>14.4</ele>
        <time>2022-04-17T10:56:33Z</time>
      </trkpt>
      <trkpt lat="50.03888" lon="1.97931">
        <ele>14.4</ele>
        <time>2022-04-17T10:56:34Z</time>
      </trkpt>
      <trkpt lat="50.03886" lon="1.9793">
        <ele>14.2</ele>
        <time>2022-04-17T10:56:36Z</time>
      </trkpt>
      <trkpt lat="50.03884" lon="1.9793">
        <ele>14.1</ele>
        <time>2022-04-17T10:56:37Z</time>
      </trkpt>
      <trkpt lat="50.03882" lon="1.97929">
        <ele>14</ele>
        <time>2022-04-17T10:56:38Z</time>
      </trkpt>
      <trkpt lat="50.03879" lon="1.97932">
        <ele>13.9</ele>
        <time>2022-04-17T10:56:40Z</time>
      </trkpt>
      <trkpt lat="50.03879" lon="1.97932">
        <ele>13.9</ele>
        <time>2022-04-17T10:56:41Z</time>
      </trkpt>
      <trkpt lat="50.03877" lon="1.97936">
        <ele>13.8</ele>
        <time>2022-04-17T10:56:42Z</time>
      </trkpt>
      <trkpt lat="50.03877" lon="1.97936">
        <ele>13.8</ele>
        <time>2022-04-17T10:56:43Z</time>
      </trkpt>
      <trkpt lat="50.03876" lon="1.97936">
        <ele>13.7</ele>
        <time>2022-04-17T10:56:44Z</time>
      </trkpt>
      <trkpt lat="50.03876" lon="1.97937">
        <ele>13.7</ele>
        <time>2022-04-17T10:56:45Z</time>
      </trkpt>
      <trkpt lat="50.03875" lon="1.97937">
        <ele>13.7</ele>
        <time>2022-04-17T10:56:46Z</time>
      </trkpt>
      <trkpt lat="50.03874" lon="1.97938">
        <ele>13.6</ele>
        <time>2022-04-17T10:56:47Z</time>
      </trkpt>
      <trkpt lat="50.03874" lon="1.97938">
        <ele>13.6</ele>
        <time>2022-04-17T10:56:48Z</time>
      </trkpt>
      <trkpt lat="50.03873" lon="1.97939">
        <ele>13.6</ele>
        <time>2022-04-17T10:56:49Z</time>
      </trkpt>
      <trkpt lat="50.03873" lon="1.97939">
        <ele>13.6</ele>
        <time>2022-04-17T10:56:50Z</time>
      </trkpt>
      <trkpt lat="50.03873" lon="1.97939">
        <ele>13.6</ele>
        <time>2022-04-17T10:56:51Z</time>
      </trkpt>
      <trkpt lat="50.03872" lon="1.9794">
        <ele>13.5</ele>
        <time>2022-04-17T10:56:52Z</time>
      </trkpt>
      <trkpt lat="50.03872" lon="1.9794">
        <ele>13.5</ele>
        <time>2022-04-17T10:56:53Z</time>
      </trkpt>
      <trkpt lat="50.03872" lon="1.9794">
        <ele>13.5</ele>
        <time>2022-04-17T10:56:54Z</time>
      </trkpt>
      <trkpt lat="50.03872" lon="1.9794">
        <ele>13.5</ele>
        <time>2022-04-17T10:56:55Z</time>
      </trkpt>
      <trkpt lat="50.03872" lon="1.9794">
        <ele>13.5</ele>
        <time>2022-04-17T10:56:56Z</time>
      </trkpt>
      <trkpt lat="50.03872" lon="1.9794">
        <ele>13.5</ele>
        <time>2022-04-17T10:56:58Z</time>
      </trkpt>
      <trkpt lat="50.03872" lon="1.9794">
        <ele>13.5</ele>
        <time>2022-04-17T10:56:59Z</time>
      </trkpt>
      <trkpt lat="50.03872" lon="1.9794">
        <ele>13.5</ele>
        <time>2022-04-17T10:57:00Z</time>
      </trkpt>
      <trkpt lat="50.03872" lon="1.97939">
        <ele>13.5</ele>
        <time>2022-04-17T10:57:01Z</time>
      </trkpt>
      <trkpt lat="50.03872" lon="1.97939">
        <ele>13.5</ele>
        <time>2022-04-17T10:57:02Z</time>
      </trkpt>
      <trkpt lat="50.03872" lon="1.97939">
        <ele>13.5</ele>
        <time>2022-04-17T10:57:03Z</time>
      </trkpt>
      <trkpt lat="50.03872" lon="1.97939">
        <ele>13.5</ele>
        <time>2022-04-17T10:57:04Z</time>
      </trkpt>
      <trkpt lat="50.03872" lon="1.97939">
        <ele>13.5</ele>
        <time>2022-04-17T10:57:05Z</time>
      </trkpt>
      <trkpt lat="50.03872" lon="1.97939">
        <ele>13.5</ele>
        <time>2022-04-17T10:57:06Z</time>
      </trkpt>
      <trkpt lat="50.03872" lon="1.97939">
        <ele>13.5</ele>
        <time>2022-04-17T10:57:07Z</time>
      </trkpt>
      <trkpt lat="50.03872" lon="1.97939">
        <ele>13.5</ele>
        <time>2022-04-17T10:57:08Z</time>
      </trkpt>
      <trkpt lat="50.03872" lon="1.97939">
        <ele>13.5</ele>
        <time>2022-04-17T10:57:09Z</time>
      </trkpt>
      <trkpt lat="50.03872" lon="1.97939">
        <ele>13.5</ele>
        <time>2022-04-17T10:57:10Z</time>
      </trkpt>
      <trkpt lat="50.03872" lon="1.97939">
        <ele>13.5</ele>
        <time>2022-04-17T10:57:11Z</time>
      </trkpt>
      <trkpt lat="50.03872" lon="1.97939">
        <ele>13.5</ele>
        <time>2022-04-17T10:57:12Z</time>
      </trkpt>
      <trkpt lat="50.03872" lon="1.97939">
        <ele>13.5</ele>
        <time>2022-04-17T10:57:13Z</time>
      </trkpt>
      <trkpt lat="50.03872" lon="1.97939">
        <ele>13.5</ele>
        <time>2022-04-17T10:57:14Z</time>
      </trkpt>
      <trkpt lat="50.03872" lon="1.97939">
        <ele>13.5</ele>
        <time>2022-04-17T10:57:15Z</time>
      </trkpt>
      <trkpt lat="50.03872" lon="1.97939">
        <ele>13.5</ele>
        <time>2022-04-17T10:57:16Z</time>
      </trkpt>
      <trkpt lat="50.03872" lon="1.97939">
        <ele>13.5</ele>
        <time>2022-04-17T10:57:17Z</time>
      </trkpt>
      <trkpt lat="50.03872" lon="1.97939">
        <ele>13.5</ele>
        <time>2022-04-17T10:57:18Z</time>
      </trkpt>
      <trkpt lat="50.03872" lon="1.97939">
        <ele>13.5</ele>
        <time>2022-04-17T10:57:19Z</time>
      </trkpt>
      <trkpt lat="50.03872" lon="1.97939">
        <ele>13.5</ele>
        <time>2022-04-17T10:57:20Z</time>
      </trkpt>
      <trkpt lat="50.03872" lon="1.97939">
        <ele>13.5</ele>
        <time>2022-04-17T10:57:21Z</time>
      </trkpt>
      <trkpt lat="50.03872" lon="1.97939">
        <ele>13.5</ele>
        <time>2022-04-17T10:57:22Z</time>
      </trkpt>
      <trkpt lat="50.03872" lon="1.97939">
        <ele>13.5</ele>
        <time>2022-04-17T10:57:23Z</time>
      </trkpt>
      <trkpt lat="50.03872" lon="1.97939">
        <ele>13.5</ele>
        <time>2022-04-17T10:57:24Z</time>
      </trkpt>
      <trkpt lat="50.03872" lon="1.97939">
        <ele>13.5</ele>
        <time>2022-04-17T10:57:25Z</time>
      </trkpt>
      <trkpt lat="50.03872" lon="1.97939">
        <ele>13.5</ele>
        <time>2022-04-17T10:57:26Z</time>
      </trkpt>
      <trkpt lat="50.03872" lon="1.97939">
        <ele>13.5</ele>
        <time>2022-04-17T10:57:27Z</time>
      </trkpt>
      <trkpt lat="50.03872" lon="1.97939">
        <ele>13.5</ele>
        <time>2022-04-17T10:57:28Z</time>
      </trkpt>
      <trkpt lat="50.03872" lon="1.97939">
        <ele>13.5</ele>
        <time>2022-04-17T10:57:29Z</time>
      </trkpt>
      <trkpt lat="50.03872" lon="1.97939">
        <ele>13.5</ele>
        <time>2022-04-17T10:57:30Z</time>
      </trkpt>
      <trkpt lat="50.03872" lon="1.97939">
        <ele>13.5</ele>
        <time>2022-04-17T10:57:31Z</time>
      </trkpt>
      <trkpt lat="50.03872" lon="1.97939">
        <ele>13.5</ele>
        <time>2022-04-17T10:57:32Z</time>
      </trkpt>
      <trkpt lat="50.03872" lon="1.97939">
        <ele>13.5</ele>
        <time>2022-04-17T10:57:33Z</time>
      </trkpt>
      <trkpt lat="50.03872" lon="1.97939">
        <ele>13.5</ele>
        <time>2022-04-17T10:57:34Z</time>
      </trkpt>
      <trkpt lat="50.03872" lon="1.97939">
        <ele>13.5</ele>
        <time>2022-04-17T10:57:35Z</time>
      </trkpt>
      <trkpt lat="50.03872" lon="1.97939">
        <ele>13.5</ele>
        <time>2022-04-17T10:57:36Z</time>
      </trkpt>
      <trkpt lat="50.03872" lon="1.97939">
        <ele>13.5</ele>
        <time>2022-04-17T10:57:37Z</time>
      </trkpt>
      <trkpt lat="50.03872" lon="1.97939">
        <ele>13.5</ele>
        <time>2022-04-17T10:57:38Z</time>
      </trkpt>
      <trkpt lat="50.03872" lon="1.97939">
        <ele>13.5</ele>
        <time>2022-04-17T10:57:39Z</time>
      </trkpt>
      <trkpt lat="50.03872" lon="1.97939">
        <ele>13.5</ele>
        <time>2022-04-17T10:57:40Z</time>
      </trkpt>
      <trkpt lat="50.03872" lon="1.97939">
        <ele>13.5</ele>
        <time>2022-04-17T10:57:41Z</time>
      </trkpt>
      <trkpt lat="50.03872" lon="1.97939">
        <ele>13.5</ele>
        <time>2022-04-17T10:57:42Z</time>
      </trkpt>
      <trkpt lat="50.03872" lon="1.97939">
        <ele>13.5</ele>
        <time>2022-04-17T10:57:43Z</time>
      </trkpt>
      <trkpt lat="50.03872" lon="1.97939">
        <ele>13.5</ele>
        <time>2022-04-17T10:57:44Z</time>
      </trkpt>
      <trkpt lat="50.03872" lon="1.97939">
        <ele>13.5</ele>
        <time>2022-04-17T10:57:45Z</time>
      </trkpt>
      <trkpt lat="50.03872" lon="1.97939">
        <ele>13.5</ele>
        <time>2022-04-17T10:57:46Z</time>
      </trkpt>
      <trkpt lat="50.03872" lon="1.97939">
        <ele>13.5</ele>
        <time>2022-04-17T10:57:47Z</time>
      </trkpt>
      <trkpt lat="50.03872" lon="1.97939">
        <ele>13.5</ele>
        <time>2022-04-17T10:57:48Z</time>
      </trkpt>
      <trkpt lat="50.03872" lon="1.97939">
        <ele>13.5</ele>
        <time>2022-04-17T10:57:49Z</time>
      </trkpt>
      <trkpt lat="50.03872" lon="1.97939">
        <ele>13.5</ele>
        <time>2022-04-17T10:57:50Z</time>
      </trkpt>
      <trkpt lat="50.03872" lon="1.97939">
        <ele>13.5</ele>
        <time>2022-04-17T10:57:51Z</time>
      </trkpt>
      <trkpt lat="50.03872" lon="1.97939">
        <ele>13.5</ele>
        <time>2022-04-17T10:57:52Z</time>
      </trkpt>
      <trkpt lat="50.03872" lon="1.97939">
        <ele>13.5</ele>
        <time>2022-04-17T10:57:53Z</time>
      </trkpt>
      <trkpt lat="50.03872" lon="1.97939">
        <ele>13.5</ele>
        <time>2022-04-17T10:57:54Z</time>
      </trkpt>
      <trkpt lat="50.03872" lon="1.97939">
        <ele>13.5</ele>
        <time>2022-04-17T10:57:55Z</time>
      </trkpt>
      <trkpt lat="50.03872" lon="1.97939">
        <ele>13.5</ele>
        <time>2022-04-17T10:57:56Z</time>
      </trkpt>
      <trkpt lat="50.03872" lon="1.97939">
        <ele>13.5</ele>
        <time>2022-04-17T10:57:57Z</time>
      </trkpt>
      <trkpt lat="50.03872" lon="1.97939">
        <ele>13.5</ele>
        <time>2022-04-17T10:57:58Z</time>
      </trkpt>
      <trkpt lat="50.03872" lon="1.97939">
        <ele>13.5</ele>
        <time>2022-04-17T10:57:59Z</time>
      </trkpt>
      <trkpt lat="50.03872" lon="1.97939">
        <ele>13.5</ele>
        <time>2022-04-17T10:58:00Z</time>
      </trkpt>
      <trkpt lat="50.03872" lon="1.97938">
        <ele>13.4</ele>
        <time>2022-04-17T10:58:01Z</time>
      </trkpt>
      <trkpt lat="50.03873" lon="1.97937">
        <ele>13.4</ele>
        <time>2022-04-17T10:58:02Z</time>
      </trkpt>
      <trkpt lat="50.03874" lon="1.97936">
        <ele>13.4</ele>
        <time>2022-04-17T10:58:03Z</time>
      </trkpt>
      <trkpt lat="50.03874" lon="1.97935">
        <ele>13.3</ele>
        <time>2022-04-17T10:58:04Z</time>
      </trkpt>
      <trkpt lat="50.03873" lon="1.97934">
        <ele>13.3</ele>
        <time>2022-04-17T10:58:05Z</time>
      </trkpt>
      <trkpt lat="50.03872" lon="1.97933">
        <ele>13.3</ele>
        <time>2022-04-17T10:58:06Z</time>
      </trkpt>
      <trkpt lat="50.03872" lon="1.97933">
        <ele>13.3</ele>
        <time>2022-04-17T10:58:07Z</time>
      </trkpt>
      <trkpt lat="50.03871" lon="1.97933">
        <ele>13.2</ele>
        <time>2022-04-17T10:58:08Z</time>
      </trkpt>
      <trkpt lat="50.0387" lon="1.97932">
        <ele>13.2</ele>
        <time>2022-04-17T10:58:09Z</time>
      </trkpt>
      <trkpt lat="50.03869" lon="1.97931">
        <ele>13.1</ele>
        <time>2022-04-17T10:58:10Z</time>
      </trkpt>
      <trkpt lat="50.03868" lon="1.97931">
        <ele>13.1</ele>
        <time>2022-04-17T10:58:12Z</time>
      </trkpt>
      <trkpt lat="50.03867" lon="1.9793">
        <ele>13</ele>
        <time>2022-04-17T10:58:13Z</time>
      </trkpt>
      <trkpt lat="50.03866" lon="1.97928">
        <ele>12.9</ele>
        <time>2022-04-17T10:58:14Z</time>
      </trkpt>
      <trkpt lat="50.03865" lon="1.97927">
        <ele>12.9</ele>
        <time>2022-04-17T10:58:16Z</time>
      </trkpt>
      <trkpt lat="50.03865" lon="1.97926">
        <ele>12.8</ele>
        <time>2022-04-17T10:58:17Z</time>
      </trkpt>
      <trkpt lat="50.03863" lon="1.97924">
        <ele>12.7</ele>
        <time>2022-04-17T10:58:18Z</time>
      </trkpt>
      <trkpt lat="50.03862" lon="1.97923">
        <ele>12.7</ele>
        <time>2022-04-17T10:58:19Z</time>
      </trkpt>
      <trkpt lat="50.03861" lon="1.97921">
        <ele>12.6</ele>
        <time>2022-04-17T10:58:20Z</time>
      </trkpt>
      <trkpt lat="50.0386" lon="1.9792">
        <ele>12.5</ele>
        <time>2022-04-17T10:58:21Z</time>
      </trkpt>
      <trkpt lat="50.03859" lon="1.97919">
        <ele>12.5</ele>
        <time>2022-04-17T10:58:22Z</time>
      </trkpt>
      <trkpt lat="50.03858" lon="1.97918">
        <ele>12.4</ele>
        <time>2022-04-17T10:58:24Z</time>
      </trkpt>
      <trkpt lat="50.03857" lon="1.97917">
        <ele>12.3</ele>
        <time>2022-04-17T10:58:25Z</time>
      </trkpt>
      <trkpt lat="50.03856" lon="1.97916">
        <ele>12.2</ele>
        <time>2022-04-17T10:58:26Z</time>
      </trkpt>
      <trkpt lat="50.03855" lon="1.97915">
        <ele>12.2</ele>
        <time>2022-04-17T10:58:27Z</time>
      </trkpt>
      <trkpt lat="50.03854" lon="1.97914">
        <ele>12.1</ele>
        <time>2022-04-17T10:58:28Z</time>
      </trkpt>
      <trkpt lat="50.03853" lon="1.97914">
        <ele>12.1</ele>
        <time>2022-04-17T10:58:29Z</time>
      </trkpt>
      <trkpt lat="50.03852" lon="1.97913">
        <ele>12</ele>
        <time>2022-04-17T10:58:30Z</time>
      </trkpt>
      <trkpt lat="50.03851" lon="1.97913">
        <ele>12</ele>
        <time>2022-04-17T10:58:31Z</time>
      </trkpt>
      <trkpt lat="50.0385" lon="1.97912">
        <ele>11.9</ele>
        <time>2022-04-17T10:58:32Z</time>
      </trkpt>
      <trkpt lat="50.03848" lon="1.97912">
        <ele>11.8</ele>
        <time>2022-04-17T10:58:33Z</time>
      </trkpt>
      <trkpt lat="50.03848" lon="1.97911">
        <ele>11.8</ele>
        <time>2022-04-17T10:58:34Z</time>
      </trkpt>
      <trkpt lat="50.03847" lon="1.97911">
        <ele>11.8</ele>
        <time>2022-04-17T10:58:35Z</time>
      </trkpt>
      <trkpt lat="50.03846" lon="1.97911">
        <ele>11.7</ele>
        <time>2022-04-17T10:58:36Z</time>
      </trkpt>
      <trkpt lat="50.03845" lon="1.9791">
        <ele>11.7</ele>
        <time>2022-04-17T10:58:37Z</time>
      </trkpt>
      <trkpt lat="50.03843" lon="1.9791">
        <ele>11.6</ele>
        <time>2022-04-17T10:58:39Z</time>
      </trkpt>
      <trkpt lat="50.03842" lon="1.97909">
        <ele>11.5</ele>
        <time>2022-04-17T10:58:40Z</time>
      </trkpt>
      <trkpt lat="50.0384" lon="1.97908">
        <ele>11.4</ele>
        <time>2022-04-17T10:58:41Z</time>
      </trkpt>
      <trkpt lat="50.03839" lon="1.97908">
        <ele>11.4</ele>
        <time>2022-04-17T10:58:42Z</time>
      </trkpt>
      <trkpt lat="50.03838" lon="1.97907">
        <ele>11.3</ele>
        <time>2022-04-17T10:58:43Z</time>
      </trkpt>
      <trkpt lat="50.03837" lon="1.97907">
        <ele>11.3</ele>
        <time>2022-04-17T10:58:44Z</time>
      </trkpt>
      <trkpt lat="50.03836" lon="1.97906">
        <ele>11.2</ele>
        <time>2022-04-17T10:58:46Z</time>
      </trkpt>
      <trkpt lat="50.03835" lon="1.97905">
        <ele>11.1</ele>
        <time>2022-04-17T10:58:47Z</time>
      </trkpt>
      <trkpt lat="50.03834" lon="1.97903">
        <ele>11.1</ele>
        <time>2022-04-17T10:58:48Z</time>
      </trkpt>
      <trkpt lat="50.03833" lon="1.97902">
        <ele>11</ele>
        <time>2022-04-17T10:58:49Z</time>
      </trkpt>
      <trkpt lat="50.03832" lon="1.97901">
        <ele>11</ele>
        <time>2022-04-17T10:58:50Z</time>
      </trkpt>
      <trkpt lat="50.03831" lon="1.979">
        <ele>10.9</ele>
        <time>2022-04-17T10:58:52Z</time>
      </trkpt>
      <trkpt lat="50.03829" lon="1.97898">
        <ele>10.8</ele>
        <time>2022-04-17T10:58:53Z</time>
      </trkpt>
      <trkpt lat="50.03828" lon="1.97897">
        <ele>10.7</ele>
        <time>2022-04-17T10:58:54Z</time>
      </trkpt>
      <trkpt lat="50.03826" lon="1.97896">
        <ele>10.6</ele>
        <time>2022-04-17T10:58:55Z</time>
      </trkpt>
      <trkpt lat="50.03824" lon="1.97896">
        <ele>10.6</ele>
        <time>2022-04-17T10:58:57Z</time>
      </trkpt>
      <trkpt lat="50.03823" lon="1.97895">
        <ele>10.6</ele>
        <time>2022-04-17T10:58:58Z</time>
      </trkpt>
      <trkpt lat="50.03822" lon="1.97895">
        <ele>10.6</ele>
        <time>2022-04-17T10:58:59Z</time>
      </trkpt>
      <trkpt lat="50.03821" lon="1.97894">
        <ele>10.6</ele>
        <time>2022-04-17T10:59:00Z</time>
      </trkpt>
      <trkpt lat="50.03821" lon="1.97894">
        <ele>10.6</ele>
        <time>2022-04-17T10:59:01Z</time>
      </trkpt>
      <trkpt lat="50.03821" lon="1.97889">
        <ele>10.6</ele>
        <time>2022-04-17T10:59:03Z</time>
      </trkpt>
      <trkpt lat="50.03823" lon="1.97886">
        <ele>10.6</ele>
        <time>2022-04-17T10:59:04Z</time>
      </trkpt>
      <trkpt lat="50.03823" lon="1.97885">
        <ele>10.6</ele>
        <time>2022-04-17T10:59:06Z</time>
      </trkpt>
      <trkpt lat="50.03824" lon="1.97884">
        <ele>10.6</ele>
        <time>2022-04-17T10:59:07Z</time>
      </trkpt>
      <trkpt lat="50.03826" lon="1.97882">
        <ele>10.6</ele>
        <time>2022-04-17T10:59:08Z</time>
      </trkpt>
      <trkpt lat="50.03827" lon="1.97881">
        <ele>10.6</ele>
        <time>2022-04-17T10:59:09Z</time>
      </trkpt>
      <trkpt lat="50.03828" lon="1.9788">
        <ele>10.5</ele>
        <time>2022-04-17T10:59:11Z</time>
      </trkpt>
      <trkpt lat="50.03829" lon="1.97879">
        <ele>10.5</ele>
        <time>2022-04-17T10:59:12Z</time>
      </trkpt>
      <trkpt lat="50.0383" lon="1.9788">
        <ele>10.5</ele>
        <time>2022-04-17T10:59:13Z</time>
      </trkpt>
      <trkpt lat="50.0383" lon="1.9788">
        <ele>10.5</ele>
        <time>2022-04-17T10:59:14Z</time>
      </trkpt>
      <trkpt lat="50.03832" lon="1.9788">
        <ele>10.5</ele>
        <time>2022-04-17T10:59:16Z</time>
      </trkpt>
      <trkpt lat="50.03833" lon="1.9788">
        <ele>10.5</ele>
        <time>2022-04-17T10:59:17Z</time>
      </trkpt>
      <trkpt lat="50.03833" lon="1.97881">
        <ele>10.5</ele>
        <time>2022-04-17T10:59:18Z</time>
      </trkpt>
      <trkpt lat="50.03833" lon="1.97881">
        <ele>10.5</ele>
        <time>2022-04-17T10:59:19Z</time>
      </trkpt>
      <trkpt lat="50.03834" lon="1.97881">
        <ele>10.5</ele>
        <time>2022-04-17T10:59:20Z</time>
      </trkpt>
      <trkpt lat="50.03834" lon="1.97881">
        <ele>10.5</ele>
        <time>2022-04-17T10:59:21Z</time>
      </trkpt>
      <trkpt lat="50.03834" lon="1.97882">
        <ele>10.5</ele>
        <time>2022-04-17T10:59:22Z</time>
      </trkpt>
      <trkpt lat="50.03833" lon="1.97882">
        <ele>10.5</ele>
        <time>2022-04-17T10:59:23Z</time>
      </trkpt>
      <trkpt lat="50.03833" lon="1.97882">
        <ele>10.4</ele>
        <time>2022-04-17T10:59:24Z</time>
      </trkpt>
      <trkpt lat="50.03833" lon="1.97883">
        <ele>10.4</ele>
        <time>2022-04-17T10:59:25Z</time>
      </trkpt>
      <trkpt lat="50.03832" lon="1.97883">
        <ele>10.4</ele>
        <time>2022-04-17T10:59:26Z</time>
      </trkpt>
      <trkpt lat="50.03832" lon="1.97884">
        <ele>10.4</ele>
        <time>2022-04-17T10:59:28Z</time>
      </trkpt>
      <trkpt lat="50.03832" lon="1.97884">
        <ele>10.4</ele>
        <time>2022-04-17T10:59:29Z</time>
      </trkpt>
      <trkpt lat="50.03832" lon="1.97884">
        <ele>10.4</ele>
        <time>2022-04-17T10:59:30Z</time>
      </trkpt>
      <trkpt lat="50.03832" lon="1.97884">
        <ele>10.4</ele>
        <time>2022-04-17T10:59:31Z</time>
      </trkpt>
      <trkpt lat="50.03832" lon="1.97884">
        <ele>10.4</ele>
        <time>2022-04-17T10:59:32Z</time>
      </trkpt>
      <trkpt lat="50.03831" lon="1.97884">
        <ele>10.4</ele>
        <time>2022-04-17T10:59:33Z</time>
      </trkpt>
      <trkpt lat="50.03831" lon="1.97885">
        <ele>10.4</ele>
        <time>2022-04-17T10:59:34Z</time>
      </trkpt>
      <trkpt lat="50.03831" lon="1.97885">
        <ele>10.4</ele>
        <time>2022-04-17T10:59:35Z</time>
      </trkpt>
      <trkpt lat="50.03831" lon="1.97885">
        <ele>10.4</ele>
        <time>2022-04-17T10:59:36Z</time>
      </trkpt>
      <trkpt lat="50.03831" lon="1.97885">
        <ele>10.4</ele>
        <time>2022-04-17T10:59:37Z</time>
      </trkpt>
      <trkpt lat="50.03831" lon="1.97885">
        <ele>10.4</ele>
        <time>2022-04-17T10:59:38Z</time>
      </trkpt>
      <trkpt lat="50.03831" lon="1.97885">
        <ele>10.4</ele>
        <time>2022-04-17T10:59:39Z</time>
      </trkpt>
      <trkpt lat="50.03831" lon="1.97885">
        <ele>10.4</ele>
        <time>2022-04-17T10:59:40Z</time>
      </trkpt>
      <trkpt lat="50.03831" lon="1.97885">
        <ele>10.4</ele>
        <time>2022-04-17T10:59:42Z</time>
      </trkpt>
      <trkpt lat="50.03832" lon="1.97883">
        <ele>10.4</ele>
        <time>2022-04-17T10:59:44Z</time>
      </trkpt>
      <trkpt lat="50.03832" lon="1.97883">
        <ele>10.4</ele>
        <time>2022-04-17T10:59:45Z</time>
      </trkpt>
      <trkpt lat="50.03833" lon="1.97882">
        <ele>10.4</ele>
        <time>2022-04-17T10:59:46Z</time>
      </trkpt>
      <trkpt lat="50.03834" lon="1.97883">
        <ele>10.3</ele>
        <time>2022-04-17T10:59:48Z</time>
      </trkpt>
      <trkpt lat="50.03835" lon="1.97883">
        <ele>10.3</ele>
        <time>2022-04-17T10:59:49Z</time>
      </trkpt>
      <trkpt lat="50.03835" lon="1.97882">
        <ele>10.3</ele>
        <time>2022-04-17T10:59:51Z</time>
      </trkpt>
      <trkpt lat="50.03836" lon="1.97881">
        <ele>10.3</ele>
        <time>2022-04-17T10:59:52Z</time>
      </trkpt>
      <trkpt lat="50.03837" lon="1.9788">
        <ele>10.3</ele>
        <time>2022-04-17T10:59:53Z</time>
      </trkpt>
      <trkpt lat="50.03837" lon="1.97878">
        <ele>10.3</ele>
        <time>2022-04-17T10:59:54Z</time>
      </trkpt>
      <trkpt lat="50.03838" lon="1.97877">
        <ele>10.2</ele>
        <time>2022-04-17T10:59:55Z</time>
      </trkpt>
      <trkpt lat="50.03839" lon="1.97876">
        <ele>10.2</ele>
        <time>2022-04-17T10:59:56Z</time>
      </trkpt>
      <trkpt lat="50.03839" lon="1.97874">
        <ele>10.2</ele>
        <time>2022-04-17T10:59:57Z</time>
      </trkpt>
      <trkpt lat="50.03839" lon="1.97873">
        <ele>10.2</ele>
        <time>2022-04-17T10:59:59Z</time>
      </trkpt>
      <trkpt lat="50.0384" lon="1.97872">
        <ele>10.2</ele>
        <time>2022-04-17T11:00:00Z</time>
      </trkpt>
      <trkpt lat="50.0384" lon="1.9787">
        <ele>10.2</ele>
        <time>2022-04-17T11:00:01Z</time>
      </trkpt>
      <trkpt lat="50.03841" lon="1.97868">
        <ele>10.2</ele>
        <time>2022-04-17T11:00:03Z</time>
      </trkpt>
      <trkpt lat="50.03842" lon="1.97867">
        <ele>10.1</ele>
        <time>2022-04-17T11:00:04Z</time>
      </trkpt>
      <trkpt lat="50.03843" lon="1.97866">
        <ele>10.1</ele>
        <time>2022-04-17T11:00:05Z</time>
      </trkpt>
      <trkpt lat="50.03843" lon="1.97864">
        <ele>10.1</ele>
        <time>2022-04-17T11:00:06Z</time>
      </trkpt>
      <trkpt lat="50.03845" lon="1.97862">
        <ele>10.1</ele>
        <time>2022-04-17T11:00:07Z</time>
      </trkpt>
      <trkpt lat="50.03845" lon="1.9786">
        <ele>10.1</ele>
        <time>2022-04-17T11:00:08Z</time>
      </trkpt>
      <trkpt lat="50.03846" lon="1.97859">
        <ele>10.1</ele>
        <time>2022-04-17T11:00:09Z</time>
      </trkpt>
      <trkpt lat="50.03847" lon="1.97857">
        <ele>10</ele>
        <time>2022-04-17T11:00:10Z</time>
      </trkpt>
      <trkpt lat="50.03848" lon="1.97856">
        <ele>10</ele>
        <time>2022-04-17T11:00:12Z</time>
      </trkpt>
      <trkpt lat="50.03849" lon="1.97855">
        <ele>10</ele>
        <time>2022-04-17T11:00:13Z</time>
      </trkpt>
      <trkpt lat="50.0385" lon="1.97853">
        <ele>10</ele>
        <time>2022-04-17T11:00:14Z</time>
      </trkpt>
      <trkpt lat="50.03851" lon="1.97852">
        <ele>10</ele>
        <time>2022-04-17T11:00:15Z</time>
      </trkpt>
      <trkpt lat="50.03851" lon="1.97851">
        <ele>10</ele>
        <time>2022-04-17T11:00:16Z</time>
      </trkpt>
      <trkpt lat="50.03852" lon="1.97849">
        <ele>9.9</ele>
        <time>2022-04-17T11:00:17Z</time>
      </trkpt>
      <trkpt lat="50.03853" lon="1.97847">
        <ele>9.9</ele>
        <time>2022-04-17T11:00:18Z</time>
      </trkpt>
      <trkpt lat="50.03853" lon="1.97848">
        <ele>9.9</ele>
        <time>2022-04-17T11:00:19Z</time>
      </trkpt>
      <trkpt lat="50.03853" lon="1.97848">
        <ele>9.9</ele>
        <time>2022-04-17T11:00:20Z</time>
      </trkpt>
      <trkpt lat="50.03853" lon="1.97848">
        <ele>9.9</ele>
        <time>2022-04-17T11:00:21Z</time>
      </trkpt>
      <trkpt lat="50.03853" lon="1.97848">
        <ele>9.9</ele>
        <time>2022-04-17T11:00:22Z</time>
      </trkpt>
      <trkpt lat="50.03853" lon="1.97848">
        <ele>9.9</ele>
        <time>2022-04-17T11:00:23Z</time>
      </trkpt>
      <trkpt lat="50.03852" lon="1.97847">
        <ele>9.9</ele>
        <time>2022-04-17T11:00:24Z</time>
      </trkpt>
      <trkpt lat="50.03852" lon="1.97847">
        <ele>9.9</ele>
        <time>2022-04-17T11:00:25Z</time>
      </trkpt>
      <trkpt lat="50.03852" lon="1.97847">
        <ele>9.9</ele>
        <time>2022-04-17T11:00:26Z</time>
      </trkpt>
      <trkpt lat="50.03852" lon="1.97846">
        <ele>9.9</ele>
        <time>2022-04-17T11:00:27Z</time>
      </trkpt>
      <trkpt lat="50.03852" lon="1.97846">
        <ele>9.9</ele>
        <time>2022-04-17T11:00:29Z</time>
      </trkpt>
      <trkpt lat="50.03852" lon="1.97846">
        <ele>9.9</ele>
        <time>2022-04-17T11:00:30Z</time>
      </trkpt>
      <trkpt lat="50.03852" lon="1.97845">
        <ele>9.9</ele>
        <time>2022-04-17T11:00:31Z</time>
      </trkpt>
      <trkpt lat="50.03852" lon="1.97842">
        <ele>9.9</ele>
        <time>2022-04-17T11:00:33Z</time>
      </trkpt>
      <trkpt lat="50.03853" lon="1.97839">
        <ele>9.9</ele>
        <time>2022-04-17T11:00:34Z</time>
      </trkpt>
      <trkpt lat="50.03853" lon="1.97837">
        <ele>9.9</ele>
        <time>2022-04-17T11:00:35Z</time>
      </trkpt>
      <trkpt lat="50.03853" lon="1.97836">
        <ele>9.9</ele>
        <time>2022-04-17T11:00:36Z</time>
      </trkpt>
      <trkpt lat="50.03851" lon="1.97832">
        <ele>9.9</ele>
        <time>2022-04-17T11:00:38Z</time>
      </trkpt>
      <trkpt lat="50.03851" lon="1.9783">
        <ele>9.9</ele>
        <time>2022-04-17T11:00:39Z</time>
      </trkpt>
      <trkpt lat="50.0385" lon="1.97828">
        <ele>9.9</ele>
        <time>2022-04-17T11:00:40Z</time>
      </trkpt>
      <trkpt lat="50.0385" lon="1.97827">
        <ele>9.9</ele>
        <time>2022-04-17T11:00:41Z</time>
      </trkpt>
      <trkpt lat="50.03849" lon="1.97826">
        <ele>9.9</ele>
        <time>2022-04-17T11:00:42Z</time>
      </trkpt>
      <trkpt lat="50.03848" lon="1.97825">
        <ele>9.9</ele>
        <time>2022-04-17T11:00:43Z</time>
      </trkpt>
      <trkpt lat="50.03847" lon="1.97824">
        <ele>9.9</ele>
        <time>2022-04-17T11:00:45Z</time>
      </trkpt>
      <trkpt lat="50.03847" lon="1.97823">
        <ele>9.9</ele>
        <time>2022-04-17T11:00:46Z</time>
      </trkpt>
      <trkpt lat="50.03846" lon="1.97821">
        <ele>9.9</ele>
        <time>2022-04-17T11:00:47Z</time>
      </trkpt>
      <trkpt lat="50.03845" lon="1.97819">
        <ele>9.9</ele>
        <time>2022-04-17T11:00:48Z</time>
      </trkpt>
      <trkpt lat="50.03845" lon="1.97818">
        <ele>9.9</ele>
        <time>2022-04-17T11:00:49Z</time>
      </trkpt>
      <trkpt lat="50.03844" lon="1.97816">
        <ele>9.9</ele>
        <time>2022-04-17T11:00:50Z</time>
      </trkpt>
      <trkpt lat="50.03844" lon="1.97813">
        <ele>9.8</ele>
        <time>2022-04-17T11:00:51Z</time>
      </trkpt>
      <trkpt lat="50.03844" lon="1.97812">
        <ele>9.8</ele>
        <time>2022-04-17T11:00:53Z</time>
      </trkpt>
      <trkpt lat="50.03843" lon="1.97811">
        <ele>9.8</ele>
        <time>2022-04-17T11:00:54Z</time>
      </trkpt>
      <trkpt lat="50.03843" lon="1.97809">
        <ele>9.8</ele>
        <time>2022-04-17T11:00:55Z</time>
      </trkpt>
      <trkpt lat="50.03842" lon="1.97808">
        <ele>9.8</ele>
        <time>2022-04-17T11:00:56Z</time>
      </trkpt>
      <trkpt lat="50.03842" lon="1.97807">
        <ele>9.8</ele>
        <time>2022-04-17T11:00:57Z</time>
      </trkpt>
      <trkpt lat="50.03841" lon="1.97805">
        <ele>9.8</ele>
        <time>2022-04-17T11:00:58Z</time>
      </trkpt>
      <trkpt lat="50.03841" lon="1.97803">
        <ele>9.8</ele>
        <time>2022-04-17T11:00:59Z</time>
      </trkpt>
      <trkpt lat="50.0384" lon="1.97802">
        <ele>9.8</ele>
        <time>2022-04-17T11:01:00Z</time>
      </trkpt>
      <trkpt lat="50.0384" lon="1.978">
        <ele>9.8</ele>
        <time>2022-04-17T11:01:01Z</time>
      </trkpt>
      <trkpt lat="50.0384" lon="1.978">
        <ele>9.8</ele>
        <time>2022-04-17T11:01:02Z</time>
      </trkpt>
      <trkpt lat="50.03838" lon="1.97797">
        <ele>9.8</ele>
        <time>2022-04-17T11:01:04Z</time>
      </trkpt>
      <trkpt lat="50.03837" lon="1.97794">
        <ele>9.8</ele>
        <time>2022-04-17T11:01:05Z</time>
      </trkpt>
      <trkpt lat="50.03837" lon="1.97793">
        <ele>9.8</ele>
        <time>2022-04-17T11:01:06Z</time>
      </trkpt>
      <trkpt lat="50.03837" lon="1.97791">
        <ele>9.8</ele>
        <time>2022-04-17T11:01:07Z</time>
      </trkpt>
      <trkpt lat="50.03836" lon="1.97787">
        <ele>9.8</ele>
        <time>2022-04-17T11:01:08Z</time>
      </trkpt>
      <trkpt lat="50.03836" lon="1.97785">
        <ele>9.8</ele>
        <time>2022-04-17T11:01:10Z</time>
      </trkpt>
      <trkpt lat="50.03835" lon="1.97783">
        <ele>9.8</ele>
        <time>2022-04-17T11:01:11Z</time>
      </trkpt>
      <trkpt lat="50.03835" lon="1.9778">
        <ele>9.8</ele>
        <time>2022-04-17T11:01:12Z</time>
      </trkpt>
      <trkpt lat="50.03834" lon="1.97778">
        <ele>9.8</ele>
        <time>2022-04-17T11:01:13Z</time>
      </trkpt>
      <trkpt lat="50.03834" lon="1.97775">
        <ele>9.8</ele>
        <time>2022-04-17T11:01:14Z</time>
      </trkpt>
      <trkpt lat="50.03833" lon="1.97772">
        <ele>9.8</ele>
        <time>2022-04-17T11:01:15Z</time>
      </trkpt>
      <trkpt lat="50.03833" lon="1.97771">
        <ele>9.8</ele>
        <time>2022-04-17T11:01:16Z</time>
      </trkpt>
      <trkpt lat="50.03833" lon="1.97769">
        <ele>9.8</ele>
        <time>2022-04-17T11:01:17Z</time>
      </trkpt>
      <trkpt lat="50.03832" lon="1.97767">
        <ele>9.8</ele>
        <time>2022-04-17T11:01:18Z</time>
      </trkpt>
      <trkpt lat="50.03832" lon="1.97765">
        <ele>9.7</ele>
        <time>2022-04-17T11:01:19Z</time>
      </trkpt>
      <trkpt lat="50.03831" lon="1.9776">
        <ele>9.7</ele>
        <time>2022-04-17T11:01:21Z</time>
      </trkpt>
      <trkpt lat="50.0383" lon="1.97758">
        <ele>9.7</ele>
        <time>2022-04-17T11:01:22Z</time>
      </trkpt>
      <trkpt lat="50.0383" lon="1.97757">
        <ele>9.7</ele>
        <time>2022-04-17T11:01:23Z</time>
      </trkpt>
      <trkpt lat="50.0383" lon="1.97755">
        <ele>9.7</ele>
        <time>2022-04-17T11:01:25Z</time>
      </trkpt>
      <trkpt lat="50.03829" lon="1.97753">
        <ele>9.7</ele>
        <time>2022-04-17T11:01:26Z</time>
      </trkpt>
      <trkpt lat="50.03829" lon="1.97752">
        <ele>9.7</ele>
        <time>2022-04-17T11:01:27Z</time>
      </trkpt>
      <trkpt lat="50.03828" lon="1.97751">
        <ele>9.7</ele>
        <time>2022-04-17T11:01:28Z</time>
      </trkpt>
      <trkpt lat="50.03829" lon="1.9775">
        <ele>9.7</ele>
        <time>2022-04-17T11:01:30Z</time>
      </trkpt>
      <trkpt lat="50.03829" lon="1.97749">
        <ele>9.7</ele>
        <time>2022-04-17T11:01:31Z</time>
      </trkpt>
      <trkpt lat="50.03829" lon="1.97748">
        <ele>9.7</ele>
        <time>2022-04-17T11:01:32Z</time>
      </trkpt>
      <trkpt lat="50.03829" lon="1.97746">
        <ele>9.7</ele>
        <time>2022-04-17T11:01:33Z</time>
      </trkpt>
      <trkpt lat="50.03831" lon="1.9774">
        <ele>9.7</ele>
        <time>2022-04-17T11:01:35Z</time>
      </trkpt>
      <trkpt lat="50.03831" lon="1.9774">
        <ele>9.7</ele>
        <time>2022-04-17T11:01:36Z</time>
      </trkpt>
      <trkpt lat="50.03832" lon="1.97738">
        <ele>9.7</ele>
        <time>2022-04-17T11:01:37Z</time>
      </trkpt>
      <trkpt lat="50.03832" lon="1.97736">
        <ele>9.7</ele>
        <time>2022-04-17T11:01:38Z</time>
      </trkpt>
      <trkpt lat="50.03832" lon="1.97732">
        <ele>9.7</ele>
        <time>2022-04-17T11:01:39Z</time>
      </trkpt>
      <trkpt lat="50.03833" lon="1.9773">
        <ele>9.7</ele>
        <time>2022-04-17T11:01:40Z</time>
      </trkpt>
      <trkpt lat="50.03833" lon="1.97732">
        <ele>9.7</ele>
        <time>2022-04-17T11:01:41Z</time>
      </trkpt>
      <trkpt lat="50.03833" lon="1.97731">
        <ele>9.7</ele>
        <time>2022-04-17T11:01:42Z</time>
      </trkpt>
      <trkpt lat="50.03832" lon="1.97732">
        <ele>9.7</ele>
        <time>2022-04-17T11:01:43Z</time>
      </trkpt>
      <trkpt lat="50.03831" lon="1.97733">
        <ele>9.7</ele>
        <time>2022-04-17T11:01:44Z</time>
      </trkpt>
      <trkpt lat="50.03829" lon="1.97738">
        <ele>9.7</ele>
        <time>2022-04-17T11:01:46Z</time>
      </trkpt>
      <trkpt lat="50.03828" lon="1.97739">
        <ele>9.7</ele>
        <time>2022-04-17T11:01:47Z</time>
      </trkpt>
      <trkpt lat="50.03828" lon="1.97741">
        <ele>9.7</ele>
        <time>2022-04-17T11:01:48Z</time>
      </trkpt>
      <trkpt lat="50.03827" lon="1.97741">
        <ele>9.7</ele>
        <time>2022-04-17T11:01:49Z</time>
      </trkpt>
      <trkpt lat="50.03827" lon="1.97743">
        <ele>9.7</ele>
        <time>2022-04-17T11:01:51Z</time>
      </trkpt>
      <trkpt lat="50.03828" lon="1.97742">
        <ele>9.7</ele>
        <time>2022-04-17T11:01:52Z</time>
      </trkpt>
      <trkpt lat="50.03828" lon="1.97741">
        <ele>9.7</ele>
        <time>2022-04-17T11:01:53Z</time>
      </trkpt>
      <trkpt lat="50.03827" lon="1.97741">
        <ele>9.7</ele>
        <time>2022-04-17T11:01:54Z</time>
      </trkpt>
      <trkpt lat="50.03826" lon="1.97742">
        <ele>9.7</ele>
        <time>2022-04-17T11:01:55Z</time>
      </trkpt>
      <trkpt lat="50.03826" lon="1.97743">
        <ele>9.7</ele>
        <time>2022-04-17T11:01:57Z</time>
      </trkpt>
      <trkpt lat="50.03826" lon="1.97745">
        <ele>9.7</ele>
        <time>2022-04-17T11:01:58Z</time>
      </trkpt>
      <trkpt lat="50.03826" lon="1.97746">
        <ele>9.7</ele>
        <time>2022-04-17T11:01:59Z</time>
      </trkpt>
      <trkpt lat="50.03826" lon="1.97747">
        <ele>9.7</ele>
        <time>2022-04-17T11:02:00Z</time>
      </trkpt>
      <trkpt lat="50.03825" lon="1.97747">
        <ele>9.7</ele>
        <time>2022-04-17T11:02:01Z</time>
      </trkpt>
      <trkpt lat="50.03825" lon="1.97747">
        <ele>9.7</ele>
        <time>2022-04-17T11:02:02Z</time>
      </trkpt>
      <trkpt lat="50.03824" lon="1.97747">
        <ele>9.7</ele>
        <time>2022-04-17T11:02:03Z</time>
      </trkpt>
      <trkpt lat="50.03823" lon="1.97747">
        <ele>9.6</ele>
        <time>2022-04-17T11:02:04Z</time>
      </trkpt>
      <trkpt lat="50.03822" lon="1.97747">
        <ele>9.6</ele>
        <time>2022-04-17T11:02:06Z</time>
      </trkpt>
      <trkpt lat="50.03821" lon="1.97746">
        <ele>9.6</ele>
        <time>2022-04-17T11:02:07Z</time>
      </trkpt>
      <trkpt lat="50.03821" lon="1.97746">
        <ele>9.6</ele>
        <time>2022-04-17T11:02:08Z</time>
      </trkpt>
      <trkpt lat="50.0382" lon="1.97745">
        <ele>9.6</ele>
        <time>2022-04-17T11:02:09Z</time>
      </trkpt>
      <trkpt lat="50.0382" lon="1.97744">
        <ele>9.6</ele>
        <time>2022-04-17T11:02:10Z</time>
      </trkpt>
      <trkpt lat="50.03819" lon="1.97744">
        <ele>9.6</ele>
        <time>2022-04-17T11:02:12Z</time>
      </trkpt>
      <trkpt lat="50.03819" lon="1.97743">
        <ele>9.6</ele>
        <time>2022-04-17T11:02:13Z</time>
      </trkpt>
      <trkpt lat="50.03819" lon="1.97742">
        <ele>9.6</ele>
        <time>2022-04-17T11:02:14Z</time>
      </trkpt>
      <trkpt lat="50.03817" lon="1.97738">
        <ele>9.6</ele>
        <time>2022-04-17T11:02:15Z</time>
      </trkpt>
      <trkpt lat="50.03818" lon="1.97738">
        <ele>9.6</ele>
        <time>2022-04-17T11:02:16Z</time>
      </trkpt>
      <trkpt lat="50.03817" lon="1.97736">
        <ele>9.6</ele>
        <time>2022-04-17T11:02:17Z</time>
      </trkpt>
      <trkpt lat="50.03817" lon="1.97735">
        <ele>9.6</ele>
        <time>2022-04-17T11:02:18Z</time>
      </trkpt>
      <trkpt lat="50.03817" lon="1.97733">
        <ele>9.6</ele>
        <time>2022-04-17T11:02:19Z</time>
      </trkpt>
      <trkpt lat="50.03817" lon="1.97728">
        <ele>9.6</ele>
        <time>2022-04-17T11:02:21Z</time>
      </trkpt>
      <trkpt lat="50.03817" lon="1.97727">
        <ele>9.6</ele>
        <time>2022-04-17T11:02:22Z</time>
      </trkpt>
      <trkpt lat="50.03817" lon="1.97725">
        <ele>9.6</ele>
        <time>2022-04-17T11:02:23Z</time>
      </trkpt>
      <trkpt lat="50.03817" lon="1.97724">
        <ele>9.6</ele>
        <time>2022-04-17T11:02:24Z</time>
      </trkpt>
      <trkpt lat="50.03818" lon="1.97722">
        <ele>9.6</ele>
        <time>2022-04-17T11:02:25Z</time>
      </trkpt>
      <trkpt lat="50.03816" lon="1.97721">
        <ele>9.6</ele>
        <time>2022-04-17T11:02:26Z</time>
      </trkpt>
      <trkpt lat="50.03815" lon="1.97721">
        <ele>9.6</ele>
        <time>2022-04-17T11:02:28Z</time>
      </trkpt>
      <trkpt lat="50.03814" lon="1.97721">
        <ele>9.6</ele>
        <time>2022-04-17T11:02:29Z</time>
      </trkpt>
      <trkpt lat="50.03813" lon="1.97721">
        <ele>9.6</ele>
        <time>2022-04-17T11:02:30Z</time>
      </trkpt>
      <trkpt lat="50.03813" lon="1.97722">
        <ele>9.6</ele>
        <time>2022-04-17T11:02:31Z</time>
      </trkpt>
      <trkpt lat="50.03813" lon="1.97723">
        <ele>9.6</ele>
        <time>2022-04-17T11:02:32Z</time>
      </trkpt>
      <trkpt lat="50.03813" lon="1.97724">
        <ele>9.6</ele>
        <time>2022-04-17T11:02:33Z</time>
      </trkpt>
      <trkpt lat="50.03813" lon="1.97725">
        <ele>9.6</ele>
        <time>2022-04-17T11:02:34Z</time>
      </trkpt>
      <trkpt lat="50.03813" lon="1.97725">
        <ele>9.6</ele>
        <time>2022-04-17T11:02:35Z</time>
      </trkpt>
      <trkpt lat="50.03813" lon="1.97725">
        <ele>9.6</ele>
        <time>2022-04-17T11:02:36Z</time>
      </trkpt>
      <trkpt lat="50.03812" lon="1.97725">
        <ele>9.6</ele>
        <time>2022-04-17T11:02:37Z</time>
      </trkpt>
      <trkpt lat="50.03812" lon="1.97725">
        <ele>9.6</ele>
        <time>2022-04-17T11:02:38Z</time>
      </trkpt>
      <trkpt lat="50.03812" lon="1.97725">
        <ele>9.6</ele>
        <time>2022-04-17T11:02:39Z</time>
      </trkpt>
      <trkpt lat="50.03812" lon="1.97725">
        <ele>9.6</ele>
        <time>2022-04-17T11:02:40Z</time>
      </trkpt>
      <trkpt lat="50.03812" lon="1.97725">
        <ele>9.6</ele>
        <time>2022-04-17T11:02:41Z</time>
      </trkpt>
      <trkpt lat="50.03812" lon="1.97725">
        <ele>9.6</ele>
        <time>2022-04-17T11:02:42Z</time>
      </trkpt>
      <trkpt lat="50.03812" lon="1.97725">
        <ele>9.6</ele>
        <time>2022-04-17T11:02:43Z</time>
      </trkpt>
      <trkpt lat="50.03812" lon="1.97725">
        <ele>9.6</ele>
        <time>2022-04-17T11:02:44Z</time>
      </trkpt>
      <trkpt lat="50.03812" lon="1.97725">
        <ele>9.6</ele>
        <time>2022-04-17T11:02:45Z</time>
      </trkpt>
      <trkpt lat="50.03812" lon="1.97725">
        <ele>9.6</ele>
        <time>2022-04-17T11:02:46Z</time>
      </trkpt>
      <trkpt lat="50.03812" lon="1.97725">
        <ele>9.6</ele>
        <time>2022-04-17T11:02:47Z</time>
      </trkpt>
      <trkpt lat="50.03812" lon="1.97725">
        <ele>9.6</ele>
        <time>2022-04-17T11:02:48Z</time>
      </trkpt>
      <trkpt lat="50.03812" lon="1.97725">
        <ele>9.6</ele>
        <time>2022-04-17T11:02:49Z</time>
      </trkpt>
      <trkpt lat="50.03812" lon="1.97725">
        <ele>9.6</ele>
        <time>2022-04-17T11:02:50Z</time>
      </trkpt>
      <trkpt lat="50.03812" lon="1.97725">
        <ele>9.6</ele>
        <time>2022-04-17T11:02:51Z</time>
      </trkpt>
      <trkpt lat="50.03812" lon="1.97725">
        <ele>9.6</ele>
        <time>2022-04-17T11:02:52Z</time>
      </trkpt>
      <trkpt lat="50.03812" lon="1.97725">
        <ele>9.6</ele>
        <time>2022-04-17T11:02:53Z</time>
      </trkpt>
      <trkpt lat="50.03812" lon="1.97725">
        <ele>9.6</ele>
        <time>2022-04-17T11:02:54Z</time>
      </trkpt>
      <trkpt lat="50.03812" lon="1.97725">
        <ele>9.6</ele>
        <time>2022-04-17T11:02:55Z</time>
      </trkpt>
      <trkpt lat="50.03812" lon="1.97725">
        <ele>9.6</ele>
        <time>2022-04-17T11:02:56Z</time>
      </trkpt>
      <trkpt lat="50.03812" lon="1.97725">
        <ele>9.6</ele>
        <time>2022-04-17T11:02:57Z</time>
      </trkpt>
      <trkpt lat="50.03812" lon="1.97725">
        <ele>9.6</ele>
        <time>2022-04-17T11:02:58Z</time>
      </trkpt>
      <trkpt lat="50.03812" lon="1.97725">
        <ele>9.6</ele>
        <time>2022-04-17T11:02:59Z</time>
      </trkpt>
      <trkpt lat="50.03812" lon="1.97725">
        <ele>9.6</ele>
        <time>2022-04-17T11:03:00Z</time>
      </trkpt>
      <trkpt lat="50.03812" lon="1.97725">
        <ele>9.6</ele>
        <time>2022-04-17T11:03:01Z</time>
      </trkpt>
      <trkpt lat="50.03812" lon="1.97725">
        <ele>9.6</ele>
        <time>2022-04-17T11:03:02Z</time>
      </trkpt>
      <trkpt lat="50.03812" lon="1.97725">
        <ele>9.6</ele>
        <time>2022-04-17T11:03:03Z</time>
      </trkpt>
      <trkpt lat="50.03812" lon="1.97725">
        <ele>9.6</ele>
        <time>2022-04-17T11:03:04Z</time>
      </trkpt>
      <trkpt lat="50.03812" lon="1.97725">
        <ele>9.6</ele>
        <time>2022-04-17T11:03:05Z</time>
      </trkpt>
      <trkpt lat="50.03812" lon="1.97725">
        <ele>9.6</ele>
        <time>2022-04-17T11:03:06Z</time>
      </trkpt>
      <trkpt lat="50.03812" lon="1.97725">
        <ele>9.6</ele>
        <time>2022-04-17T11:03:07Z</time>
      </trkpt>
      <trkpt lat="50.03812" lon="1.97725">
        <ele>9.6</ele>
        <time>2022-04-17T11:03:08Z</time>
      </trkpt>
      <trkpt lat="50.03812" lon="1.97725">
        <ele>9.6</ele>
        <time>2022-04-17T11:03:09Z</time>
      </trkpt>
      <trkpt lat="50.03812" lon="1.97725">
        <ele>9.6</ele>
        <time>2022-04-17T11:03:10Z</time>
      </trkpt>
      <trkpt lat="50.03812" lon="1.97725">
        <ele>9.6</ele>
        <time>2022-04-17T11:03:11Z</time>
      </trkpt>
      <trkpt lat="50.03812" lon="1.97725">
        <ele>9.6</ele>
        <time>2022-04-17T11:03:12Z</time>
      </trkpt>
      <trkpt lat="50.03812" lon="1.97725">
        <ele>9.6</ele>
        <time>2022-04-17T11:03:13Z</time>
      </trkpt>
      <trkpt lat="50.03812" lon="1.97725">
        <ele>9.6</ele>
        <time>2022-04-17T11:03:14Z</time>
      </trkpt>
      <trkpt lat="50.03812" lon="1.97725">
        <ele>9.6</ele>
        <time>2022-04-17T11:03:15Z</time>
      </trkpt>
      <trkpt lat="50.03812" lon="1.97725">
        <ele>9.6</ele>
        <time>2022-04-17T11:03:16Z</time>
      </trkpt>
      <trkpt lat="50.03812" lon="1.97725">
        <ele>9.6</ele>
        <time>2022-04-17T11:03:17Z</time>
      </trkpt>
      <trkpt lat="50.03812" lon="1.97725">
        <ele>9.6</ele>
        <time>2022-04-17T11:03:18Z</time>
      </trkpt>
      <trkpt lat="50.03812" lon="1.97725">
        <ele>9.6</ele>
        <time>2022-04-17T11:03:19Z</time>
      </trkpt>
      <trkpt lat="50.03812" lon="1.97725">
        <ele>9.6</ele>
        <time>2022-04-17T11:03:20Z</time>
      </trkpt>
      <trkpt lat="50.03812" lon="1.97725">
        <ele>9.6</ele>
        <time>2022-04-17T11:03:21Z</time>
      </trkpt>
      <trkpt lat="50.03812" lon="1.97725">
        <ele>9.6</ele>
        <time>2022-04-17T11:03:22Z</time>
      </trkpt>
      <trkpt lat="50.03812" lon="1.97725">
        <ele>9.6</ele>
        <time>2022-04-17T11:03:23Z</time>
      </trkpt>
      <trkpt lat="50.03812" lon="1.97725">
        <ele>9.6</ele>
        <time>2022-04-17T11:03:24Z</time>
      </trkpt>
      <trkpt lat="50.03812" lon="1.97725">
        <ele>9.6</ele>
        <time>2022-04-17T11:03:25Z</time>
      </trkpt>
      <trkpt lat="50.03812" lon="1.97725">
        <ele>9.6</ele>
        <time>2022-04-17T11:03:26Z</time>
      </trkpt>
      <trkpt lat="50.03812" lon="1.97725">
        <ele>9.6</ele>
        <time>2022-04-17T11:03:27Z</time>
      </trkpt>
      <trkpt lat="50.03812" lon="1.97725">
        <ele>9.6</ele>
        <time>2022-04-17T11:03:28Z</time>
      </trkpt>
      <trkpt lat="50.03812" lon="1.97725">
        <ele>9.6</ele>
        <time>2022-04-17T11:03:29Z</time>
      </trkpt>
      <trkpt lat="50.03812" lon="1.97725">
        <ele>9.6</ele>
        <time>2022-04-17T11:03:30Z</time>
      </trkpt>
      <trkpt lat="50.03812" lon="1.97725">
        <ele>9.6</ele>
        <time>2022-04-17T11:03:31Z</time>
      </trkpt>
      <trkpt lat="50.03812" lon="1.97725">
        <ele>9.6</ele>
        <time>2022-04-17T11:03:32Z</time>
      </trkpt>
      <trkpt lat="50.03812" lon="1.97725">
        <ele>9.6</ele>
        <time>2022-04-17T11:03:33Z</time>
      </trkpt>
      <trkpt lat="50.03812" lon="1.97725">
        <ele>9.6</ele>
        <time>2022-04-17T11:03:34Z</time>
      </trkpt>
      <trkpt lat="50.03812" lon="1.97725">
        <ele>9.6</ele>
        <time>2022-04-17T11:03:35Z</time>
      </trkpt>
      <trkpt lat="50.03812" lon="1.97725">
        <ele>9.6</ele>
        <time>2022-04-17T11:03:36Z</time>
      </trkpt>
      <trkpt lat="50.03812" lon="1.97725">
        <ele>9.6</ele>
        <time>2022-04-17T11:03:37Z</time>
      </trkpt>
      <trkpt lat="50.03812" lon="1.97725">
        <ele>9.6</ele>
        <time>2022-04-17T11:03:38Z</time>
      </trkpt>
      <trkpt lat="50.03812" lon="1.97725">
        <ele>9.6</ele>
        <time>2022-04-17T11:03:39Z</time>
      </trkpt>
      <trkpt lat="50.03812" lon="1.97725">
        <ele>9.6</ele>
        <time>2022-04-17T11:03:40Z</time>
      </trkpt>
      <trkpt lat="50.03812" lon="1.97725">
        <ele>9.6</ele>
        <time>2022-04-17T11:03:41Z</time>
      </trkpt>
      <trkpt lat="50.03812" lon="1.97725">
        <ele>9.6</ele>
        <time>2022-04-17T11:03:42Z</time>
      </trkpt>
      <trkpt lat="50.03812" lon="1.97725">
        <ele>9.6</ele>
        <time>2022-04-17T11:03:43Z</time>
      </trkpt>
      <trkpt lat="50.03812" lon="1.97725">
        <ele>9.6</ele>
        <time>2022-04-17T11:03:44Z</time>
      </trkpt>
      <trkpt lat="50.03812" lon="1.97725">
        <ele>9.6</ele>
        <time>2022-04-17T11:03:45Z</time>
      </trkpt>
      <trkpt lat="50.03812" lon="1.97725">
        <ele>9.6</ele>
        <time>2022-04-17T11:03:46Z</time>
      </trkpt>
      <trkpt lat="50.03812" lon="1.97725">
        <ele>9.6</ele>
        <time>2022-04-17T11:03:47Z</time>
      </trkpt>
      <trkpt lat="50.03812" lon="1.97725">
        <ele>9.6</ele>
        <time>2022-04-17T11:03:48Z</time>
      </trkpt>
      <trkpt lat="50.03812" lon="1.97725">
        <ele>9.6</ele>
        <time>2022-04-17T11:03:49Z</time>
      </trkpt>
      <trkpt lat="50.03812" lon="1.97725">
        <ele>9.6</ele>
        <time>2022-04-17T11:03:50Z</time>
      </trkpt>
      <trkpt lat="50.03812" lon="1.97725">
        <ele>9.6</ele>
        <time>2022-04-17T11:03:51Z</time>
      </trkpt>
      <trkpt lat="50.03812" lon="1.97725">
        <ele>9.6</ele>
        <time>2022-04-17T11:03:52Z</time>
      </trkpt>
      <trkpt lat="50.03812" lon="1.97725">
        <ele>9.6</ele>
        <time>2022-04-17T11:03:53Z</time>
      </trkpt>
      <trkpt lat="50.03812" lon="1.97725">
        <ele>9.6</ele>
        <time>2022-04-17T11:03:54Z</time>
      </trkpt>
      <trkpt lat="50.03812" lon="1.97725">
        <ele>9.6</ele>
        <time>2022-04-17T11:03:55Z</time>
      </trkpt>
      <trkpt lat="50.03812" lon="1.97725">
        <ele>9.6</ele>
        <time>2022-04-17T11:03:56Z</time>
      </trkpt>
      <trkpt lat="50.03812" lon="1.97725">
        <ele>9.6</ele>
        <time>2022-04-17T11:03:57Z</time>
      </trkpt>
      <trkpt lat="50.03812" lon="1.97725">
        <ele>9.6</ele>
        <time>2022-04-17T11:03:58Z</time>
      </trkpt>
      <trkpt lat="50.03812" lon="1.97725">
        <ele>9.6</ele>
        <time>2022-04-17T11:03:59Z</time>
      </trkpt>
      <trkpt lat="50.03812" lon="1.97725">
        <ele>9.6</ele>
        <time>2022-04-17T11:04:00Z</time>
      </trkpt>
      <trkpt lat="50.03812" lon="1.97725">
        <ele>9.6</ele>
        <time>2022-04-17T11:04:01Z</time>
      </trkpt>
      <trkpt lat="50.03812" lon="1.97725">
        <ele>9.6</ele>
        <time>2022-04-17T11:04:02Z</time>
      </trkpt>
      <trkpt lat="50.03812" lon="1.97725">
        <ele>9.6</ele>
        <time>2022-04-17T11:04:03Z</time>
      </trkpt>
      <trkpt lat="50.03812" lon="1.97725">
        <ele>9.6</ele>
        <time>2022-04-17T11:04:04Z</time>
      </trkpt>
      <trkpt lat="50.03812" lon="1.97725">
        <ele>9.6</ele>
        <time>2022-04-17T11:04:05Z</time>
      </trkpt>
      <trkpt lat="50.03812" lon="1.97725">
        <ele>9.6</ele>
        <time>2022-04-17T11:04:06Z</time>
      </trkpt>
      <trkpt lat="50.03812" lon="1.97725">
        <ele>9.6</ele>
        <time>2022-04-17T11:04:07Z</time>
      </trkpt>
      <trkpt lat="50.03812" lon="1.97725">
        <ele>9.6</ele>
        <time>2022-04-17T11:04:08Z</time>
      </trkpt>
      <trkpt lat="50.03812" lon="1.97725">
        <ele>9.6</ele>
        <time>2022-04-17T11:04:09Z</time>
      </trkpt>
      <trkpt lat="50.03812" lon="1.97725">
        <ele>9.6</ele>
        <time>2022-04-17T11:04:10Z</time>
      </trkpt>
      <trkpt lat="50.03812" lon="1.97725">
        <ele>9.6</ele>
        <time>2022-04-17T11:04:11Z</time>
      </trkpt>
      <trkpt lat="50.03812" lon="1.97725">
        <ele>9.6</ele>
        <time>2022-04-17T11:04:12Z</time>
      </trkpt>
      <trkpt lat="50.03812" lon="1.97725">
        <ele>9.6</ele>
        <time>2022-04-17T11:04:13Z</time>
      </trkpt>
      <trkpt lat="50.03812" lon="1.97725">
        <ele>9.6</ele>
        <time>2022-04-17T11:04:14Z</time>
      </trkpt>
      <trkpt lat="50.03812" lon="1.97725">
        <ele>9.6</ele>
        <time>2022-04-17T11:04:15Z</time>
      </trkpt>
      <trkpt lat="50.03812" lon="1.97725">
        <ele>9.6</ele>
        <time>2022-04-17T11:04:16Z</time>
      </trkpt>
      <trkpt lat="50.03812" lon="1.97725">
        <ele>9.6</ele>
        <time>2022-04-17T11:04:17Z</time>
      </trkpt>
      <trkpt lat="50.03812" lon="1.97725">
        <ele>9.6</ele>
        <time>2022-04-17T11:04:18Z</time>
      </trkpt>
      <trkpt lat="50.03812" lon="1.97725">
        <ele>9.6</ele>
        <time>2022-04-17T11:04:19Z</time>
      </trkpt>
      <trkpt lat="50.03812" lon="1.97725">
        <ele>9.6</ele>
        <time>2022-04-17T11:04:20Z</time>
      </trkpt>
      <trkpt lat="50.03812" lon="1.97725">
        <ele>9.6</ele>
        <time>2022-04-17T11:04:21Z</time>
      </trkpt>
      <trkpt lat="50.03812" lon="1.97725">
        <ele>9.6</ele>
        <time>2022-04-17T11:04:22Z</time>
      </trkpt>
      <trkpt lat="50.03812" lon="1.97725">
        <ele>9.6</ele>
        <time>2022-04-17T11:04:23Z</time>
      </trkpt>
      <trkpt lat="50.03812" lon="1.97725">
        <ele>9.6</ele>
        <time>2022-04-17T11:04:24Z</time>
      </trkpt>
      <trkpt lat="50.03812" lon="1.97725">
        <ele>9.6</ele>
        <time>2022-04-17T11:04:25Z</time>
      </trkpt>
      <trkpt lat="50.03812" lon="1.97725">
        <ele>9.6</ele>
        <time>2022-04-17T11:04:26Z</time>
      </trkpt>
      <trkpt lat="50.03812" lon="1.97725">
        <ele>9.6</ele>
        <time>2022-04-17T11:04:27Z</time>
      </trkpt>
      <trkpt lat="50.03812" lon="1.97725">
        <ele>9.6</ele>
        <time>2022-04-17T11:04:28Z</time>
      </trkpt>
      <trkpt lat="50.03812" lon="1.97725">
        <ele>9.6</ele>
        <time>2022-04-17T11:04:29Z</time>
      </trkpt>
      <trkpt lat="50.03812" lon="1.97725">
        <ele>9.6</ele>
        <time>2022-04-17T11:04:30Z</time>
      </trkpt>
      <trkpt lat="50.03812" lon="1.97725">
        <ele>9.6</ele>
        <time>2022-04-17T11:04:31Z</time>
      </trkpt>
      <trkpt lat="50.03812" lon="1.97725">
        <ele>9.6</ele>
        <time>2022-04-17T11:04:32Z</time>
      </trkpt>
      <trkpt lat="50.03812" lon="1.97725">
        <ele>9.6</ele>
        <time>2022-04-17T11:04:33Z</time>
      </trkpt>
      <trkpt lat="50.03812" lon="1.97725">
        <ele>9.6</ele>
        <time>2022-04-17T11:04:34Z</time>
      </trkpt>
      <trkpt lat="50.03812" lon="1.97725">
        <ele>9.6</ele>
        <time>2022-04-17T11:04:35Z</time>
      </trkpt>
      <trkpt lat="50.03812" lon="1.97725">
        <ele>9.6</ele>
        <time>2022-04-17T11:04:36Z</time>
      </trkpt>
      <trkpt lat="50.03812" lon="1.97725">
        <ele>9.6</ele>
        <time>2022-04-17T11:04:37Z</time>
      </trkpt>
      <trkpt lat="50.03812" lon="1.97725">
        <ele>9.6</ele>
        <time>2022-04-17T11:04:38Z</time>
      </trkpt>
      <trkpt lat="50.03812" lon="1.97725">
        <ele>9.6</ele>
        <time>2022-04-17T11:04:39Z</time>
      </trkpt>
      <trkpt lat="50.03812" lon="1.97725">
        <ele>9.6</ele>
        <time>2022-04-17T11:04:40Z</time>
      </trkpt>
      <trkpt lat="50.03812" lon="1.97725">
        <ele>9.6</ele>
        <time>2022-04-17T11:04:41Z</time>
      </trkpt>
      <trkpt lat="50.03812" lon="1.97725">
        <ele>9.6</ele>
        <time>2022-04-17T11:04:42Z</time>
      </trkpt>
      <trkpt lat="50.03812" lon="1.97725">
        <ele>9.6</ele>
        <time>2022-04-17T11:04:43Z</time>
      </trkpt>
      <trkpt lat="50.03812" lon="1.97725">
        <ele>9.6</ele>
        <time>2022-04-17T11:04:44Z</time>
      </trkpt>
      <trkpt lat="50.03812" lon="1.97725">
        <ele>9.6</ele>
        <time>2022-04-17T11:04:45Z</time>
      </trkpt>
      <trkpt lat="50.03812" lon="1.97725">
        <ele>9.6</ele>
        <time>2022-04-17T11:04:46Z</time>
      </trkpt>
      <trkpt lat="50.03812" lon="1.97725">
        <ele>9.6</ele>
        <time>2022-04-17T11:04:47Z</time>
      </trkpt>
      <trkpt lat="50.03812" lon="1.97725">
        <ele>9.6</ele>
        <time>2022-04-17T11:04:48Z</time>
      </trkpt>
      <trkpt lat="50.03812" lon="1.97725">
        <ele>9.6</ele>
        <time>2022-04-17T11:04:49Z</time>
      </trkpt>
      <trkpt lat="50.03812" lon="1.97725">
        <ele>9.6</ele>
        <time>2022-04-17T11:04:50Z</time>
      </trkpt>
      <trkpt lat="50.03812" lon="1.97725">
        <ele>9.6</ele>
        <time>2022-04-17T11:04:51Z</time>
      </trkpt>
      <trkpt lat="50.03812" lon="1.97725">
        <ele>9.6</ele>
        <time>2022-04-17T11:04:52Z</time>
      </trkpt>
      <trkpt lat="50.03812" lon="1.97725">
        <ele>9.6</ele>
        <time>2022-04-17T11:04:53Z</time>
      </trkpt>
      <trkpt lat="50.03812" lon="1.97725">
        <ele>9.6</ele>
        <time>2022-04-17T11:04:54Z</time>
      </trkpt>
      <trkpt lat="50.03812" lon="1.97725">
        <ele>9.6</ele>
        <time>2022-04-17T11:04:55Z</time>
      </trkpt>
      <trkpt lat="50.03812" lon="1.97725">
        <ele>9.6</ele>
        <time>2022-04-17T11:04:56Z</time>
      </trkpt>
      <trkpt lat="50.03812" lon="1.97725">
        <ele>9.6</ele>
        <time>2022-04-17T11:04:57Z</time>
      </trkpt>
      <trkpt lat="50.03812" lon="1.97725">
        <ele>9.6</ele>
        <time>2022-04-17T11:04:58Z</time>
      </trkpt>
      <trkpt lat="50.03812" lon="1.97725">
        <ele>9.6</ele>
        <time>2022-04-17T11:04:59Z</time>
      </trkpt>
      <trkpt lat="50.03812" lon="1.97725">
        <ele>9.6</ele>
        <time>2022-04-17T11:05:00Z</time>
      </trkpt>
      <trkpt lat="50.03812" lon="1.97725">
        <ele>9.6</ele>
        <time>2022-04-17T11:05:01Z</time>
      </trkpt>
      <trkpt lat="50.03812" lon="1.97725">
        <ele>9.6</ele>
        <time>2022-04-17T11:05:02Z</time>
      </trkpt>
      <trkpt lat="50.03812" lon="1.97725">
        <ele>9.6</ele>
        <time>2022-04-17T11:05:03Z</time>
      </trkpt>
      <trkpt lat="50.03812" lon="1.97725">
        <ele>9.6</ele>
        <time>2022-04-17T11:05:04Z</time>
      </trkpt>
      <trkpt lat="50.03812" lon="1.97725">
        <ele>9.6</ele>
        <time>2022-04-17T11:05:05Z</time>
      </trkpt>
      <trkpt lat="50.03812" lon="1.97725">
        <ele>9.6</ele>
        <time>2022-04-17T11:05:06Z</time>
      </trkpt>
      <trkpt lat="50.03812" lon="1.97725">
        <ele>9.6</ele>
        <time>2022-04-17T11:05:07Z</time>
      </trkpt>
      <trkpt lat="50.03812" lon="1.97725">
        <ele>9.6</ele>
        <time>2022-04-17T11:05:08Z</time>
      </trkpt>
      <trkpt lat="50.03812" lon="1.97725">
        <ele>9.6</ele>
        <time>2022-04-17T11:05:09Z</time>
      </trkpt>
      <trkpt lat="50.03812" lon="1.97725">
        <ele>9.6</ele>
        <time>2022-04-17T11:05:10Z</time>
      </trkpt>
      <trkpt lat="50.03812" lon="1.97725">
        <ele>9.6</ele>
        <time>2022-04-17T11:05:11Z</time>
      </trkpt>
      <trkpt lat="50.03812" lon="1.97725">
        <ele>9.6</ele>
        <time>2022-04-17T11:05:12Z</time>
      </trkpt>
      <trkpt lat="50.03812" lon="1.97725">
        <ele>9.6</ele>
        <time>2022-04-17T11:05:13Z</time>
      </trkpt>
      <trkpt lat="50.03812" lon="1.97725">
        <ele>9.6</ele>
        <time>2022-04-17T11:05:14Z</time>
      </trkpt>
      <trkpt lat="50.03812" lon="1.97725">
        <ele>9.6</ele>
        <time>2022-04-17T11:05:15Z</time>
      </trkpt>
      <trkpt lat="50.03812" lon="1.97725">
        <ele>9.6</ele>
        <time>2022-04-17T11:05:16Z</time>
      </trkpt>
      <trkpt lat="50.03812" lon="1.97725">
        <ele>9.6</ele>
        <time>2022-04-17T11:05:17Z</time>
      </trkpt>
      <trkpt lat="50.03812" lon="1.97725">
        <ele>9.6</ele>
        <time>2022-04-17T11:05:18Z</time>
      </trkpt>
      <trkpt lat="50.03812" lon="1.97725">
        <ele>9.6</ele>
        <time>2022-04-17T11:05:19Z</time>
      </trkpt>
      <trkpt lat="50.03812" lon="1.97725">
        <ele>9.6</ele>
        <time>2022-04-17T11:05:20Z</time>
      </trkpt>
      <trkpt lat="50.03812" lon="1.97725">
        <ele>9.6</ele>
        <time>2022-04-17T11:05:21Z</time>
      </trkpt>
      <trkpt lat="50.03812" lon="1.97725">
        <ele>9.6</ele>
        <time>2022-04-17T11:05:22Z</time>
      </trkpt>
      <trkpt lat="50.03812" lon="1.97725">
        <ele>9.6</ele>
        <time>2022-04-17T11:05:23Z</time>
      </trkpt>
      <trkpt lat="50.03812" lon="1.97725">
        <ele>9.6</ele>
        <time>2022-04-17T11:05:24Z</time>
      </trkpt>
      <trkpt lat="50.03812" lon="1.97725">
        <ele>9.6</ele>
        <time>2022-04-17T11:05:25Z</time>
      </trkpt>
      <trkpt lat="50.03812" lon="1.97725">
        <ele>9.6</ele>
        <time>2022-04-17T11:05:26Z</time>
      </trkpt>
      <trkpt lat="50.03812" lon="1.97725">
        <ele>9.6</ele>
        <time>2022-04-17T11:05:27Z</time>
      </trkpt>
      <trkpt lat="50.03812" lon="1.97725">
        <ele>9.6</ele>
        <time>2022-04-17T11:05:28Z</time>
      </trkpt>
      <trkpt lat="50.03812" lon="1.97725">
        <ele>9.6</ele>
        <time>2022-04-17T11:05:29Z</time>
      </trkpt>
      <trkpt lat="50.03812" lon="1.97725">
        <ele>9.6</ele>
        <time>2022-04-17T11:05:30Z</time>
      </trkpt>
      <trkpt lat="50.03812" lon="1.97725">
        <ele>9.6</ele>
        <time>2022-04-17T11:05:31Z</time>
      </trkpt>
      <trkpt lat="50.03812" lon="1.97725">
        <ele>9.6</ele>
        <time>2022-04-17T11:05:32Z</time>
      </trkpt>
      <trkpt lat="50.03812" lon="1.97725">
        <ele>9.6</ele>
        <time>2022-04-17T11:05:33Z</time>
      </trkpt>
      <trkpt lat="50.03812" lon="1.97725">
        <ele>9.6</ele>
        <time>2022-04-17T11:05:34Z</time>
      </trkpt>
      <trkpt lat="50.03812" lon="1.97725">
        <ele>9.6</ele>
        <time>2022-04-17T11:05:35Z</time>
      </trkpt>
      <trkpt lat="50.03812" lon="1.97725">
        <ele>9.6</ele>
        <time>2022-04-17T11:05:36Z</time>
      </trkpt>
      <trkpt lat="50.03812" lon="1.97725">
        <ele>9.6</ele>
        <time>2022-04-17T11:05:37Z</time>
      </trkpt>
      <trkpt lat="50.03812" lon="1.97725">
        <ele>9.6</ele>
        <time>2022-04-17T11:05:38Z</time>
      </trkpt>
      <trkpt lat="50.03812" lon="1.97725">
        <ele>9.6</ele>
        <time>2022-04-17T11:05:39Z</time>
      </trkpt>
      <trkpt lat="50.03812" lon="1.97725">
        <ele>9.6</ele>
        <time>2022-04-17T11:05:40Z</time>
      </trkpt>
      <trkpt lat="50.03812" lon="1.97725">
        <ele>9.6</ele>
        <time>2022-04-17T11:05:41Z</time>
      </trkpt>
      <trkpt lat="50.03812" lon="1.97725">
        <ele>9.6</ele>
        <time>2022-04-17T11:05:42Z</time>
      </trkpt>
      <trkpt lat="50.03812" lon="1.97725">
        <ele>9.6</ele>
        <time>2022-04-17T11:05:43Z</time>
      </trkpt>
      <trkpt lat="50.03812" lon="1.97725">
        <ele>9.6</ele>
        <time>2022-04-17T11:05:44Z</time>
      </trkpt>
      <trkpt lat="50.03812" lon="1.97725">
        <ele>9.6</ele>
        <time>2022-04-17T11:05:45Z</time>
      </trkpt>
      <trkpt lat="50.03812" lon="1.97725">
        <ele>9.6</ele>
        <time>2022-04-17T11:05:46Z</time>
      </trkpt>
      <trkpt lat="50.03812" lon="1.97725">
        <ele>9.6</ele>
        <time>2022-04-17T11:05:47Z</time>
      </trkpt>
      <trkpt lat="50.03812" lon="1.97725">
        <ele>9.6</ele>
        <time>2022-04-17T11:05:48Z</time>
      </trkpt>
      <trkpt lat="50.03812" lon="1.97725">
        <ele>9.6</ele>
        <time>2022-04-17T11:05:49Z</time>
      </trkpt>
      <trkpt lat="50.03812" lon="1.97725">
        <ele>9.6</ele>
        <time>2022-04-17T11:05:50Z</time>
      </trkpt>
      <trkpt lat="50.03812" lon="1.97725">
        <ele>9.6</ele>
        <time>2022-04-17T11:05:51Z</time>
      </trkpt>
      <trkpt lat="50.03812" lon="1.97725">
        <ele>9.6</ele>
        <time>2022-04-17T11:05:52Z</time>
      </trkpt>
      <trkpt lat="50.03812" lon="1.97725">
        <ele>9.6</ele>
        <time>2022-04-17T11:05:53Z</time>
      </trkpt>
      <trkpt lat="50.03812" lon="1.97725">
        <ele>9.6</ele>
        <time>2022-04-17T11:05:54Z</time>
      </trkpt>
      <trkpt lat="50.03812" lon="1.97725">
        <ele>9.6</ele>
        <time>2022-04-17T11:05:55Z</time>
      </trkpt>
      <trkpt lat="50.03812" lon="1.97725">
        <ele>9.6</ele>
        <time>2022-04-17T11:05:56Z</time>
      </trkpt>
      <trkpt lat="50.03812" lon="1.97725">
        <ele>9.6</ele>
        <time>2022-04-17T11:05:57Z</time>
      </trkpt>
      <trkpt lat="50.03812" lon="1.97725">
        <ele>9.6</ele>
        <time>2022-04-17T11:05:58Z</time>
      </trkpt>
      <trkpt lat="50.03812" lon="1.97725">
        <ele>9.6</ele>
        <time>2022-04-17T11:05:59Z</time>
      </trkpt>
      <trkpt lat="50.03812" lon="1.97725">
        <ele>9.6</ele>
        <time>2022-04-17T11:06:00Z</time>
      </trkpt>
      <trkpt lat="50.03812" lon="1.97725">
        <ele>9.6</ele>
        <time>2022-04-17T11:06:01Z</time>
      </trkpt>
      <trkpt lat="50.03812" lon="1.97725">
        <ele>9.6</ele>
        <time>2022-04-17T11:06:02Z</time>
      </trkpt>
      <trkpt lat="50.03812" lon="1.97725">
        <ele>9.6</ele>
        <time>2022-04-17T11:06:03Z</time>
      </trkpt>
      <trkpt lat="50.03812" lon="1.97725">
        <ele>9.6</ele>
        <time>2022-04-17T11:06:04Z</time>
      </trkpt>
      <trkpt lat="50.03812" lon="1.97725">
        <ele>9.6</ele>
        <time>2022-04-17T11:06:05Z</time>
      </trkpt>
      <trkpt lat="50.03812" lon="1.97725">
        <ele>9.6</ele>
        <time>2022-04-17T11:06:06Z</time>
      </trkpt>
      <trkpt lat="50.03812" lon="1.97725">
        <ele>9.6</ele>
        <time>2022-04-17T11:06:07Z</time>
      </trkpt>
      <trkpt lat="50.03812" lon="1.97725">
        <ele>9.6</ele>
        <time>2022-04-17T11:06:08Z</time>
      </trkpt>
      <trkpt lat="50.03812" lon="1.97725">
        <ele>9.6</ele>
        <time>2022-04-17T11:06:09Z</time>
      </trkpt>
      <trkpt lat="50.03812" lon="1.97725">
        <ele>9.6</ele>
        <time>2022-04-17T11:06:10Z</time>
      </trkpt>
      <trkpt lat="50.03812" lon="1.97725">
        <ele>9.6</ele>
        <time>2022-04-17T11:06:11Z</time>
      </trkpt>
      <trkpt lat="50.03812" lon="1.97725">
        <ele>9.6</ele>
        <time>2022-04-17T11:06:12Z</time>
      </trkpt>
      <trkpt lat="50.03812" lon="1.97725">
        <ele>9.6</ele>
        <time>2022-04-17T11:06:13Z</time>
      </trkpt>
      <trkpt lat="50.03812" lon="1.97725">
        <ele>9.6</ele>
        <time>2022-04-17T11:06:14Z</time>
      </trkpt>
      <trkpt lat="50.03812" lon="1.97725">
        <ele>9.6</ele>
        <time>2022-04-17T11:06:15Z</time>
      </trkpt>
      <trkpt lat="50.03812" lon="1.97725">
        <ele>9.6</ele>
        <time>2022-04-17T11:06:16Z</time>
      </trkpt>
      <trkpt lat="50.03812" lon="1.97725">
        <ele>9.6</ele>
        <time>2022-04-17T11:06:17Z</time>
      </trkpt>
      <trkpt lat="50.03812" lon="1.97725">
        <ele>9.6</ele>
        <time>2022-04-17T11:06:18Z</time>
      </trkpt>
      <trkpt lat="50.03812" lon="1.97725">
        <ele>9.6</ele>
        <time>2022-04-17T11:06:19Z</time>
      </trkpt>
      <trkpt lat="50.03812" lon="1.97725">
        <ele>9.6</ele>
        <time>2022-04-17T11:06:20Z</time>
      </trkpt>
      <trkpt lat="50.03812" lon="1.97725">
        <ele>9.6</ele>
        <time>2022-04-17T11:06:21Z</time>
      </trkpt>
      <trkpt lat="50.03812" lon="1.97725">
        <ele>9.6</ele>
        <time>2022-04-17T11:06:22Z</time>
      </trkpt>
      <trkpt lat="50.03812" lon="1.97725">
        <ele>9.6</ele>
        <time>2022-04-17T11:06:23Z</time>
      </trkpt>
      <trkpt lat="50.03812" lon="1.97725">
        <ele>9.6</ele>
        <time>2022-04-17T11:06:24Z</time>
      </trkpt>
      <trkpt lat="50.03812" lon="1.97725">
        <ele>9.6</ele>
        <time>2022-04-17T11:06:25Z</time>
      </trkpt>
      <trkpt lat="50.03812" lon="1.97725">
        <ele>9.6</ele>
        <time>2022-04-17T11:06:26Z</time>
      </trkpt>
      <trkpt lat="50.03812" lon="1.97725">
        <ele>9.6</ele>
        <time>2022-04-17T11:06:27Z</time>
      </trkpt>
      <trkpt lat="50.03812" lon="1.97725">
        <ele>9.6</ele>
        <time>2022-04-17T11:06:28Z</time>
      </trkpt>
      <trkpt lat="50.03812" lon="1.97725">
        <ele>9.6</ele>
        <time>2022-04-17T11:06:29Z</time>
      </trkpt>
      <trkpt lat="50.03812" lon="1.97725">
        <ele>9.6</ele>
        <time>2022-04-17T11:06:30Z</time>
      </trkpt>
      <trkpt lat="50.03812" lon="1.97725">
        <ele>9.6</ele>
        <time>2022-04-17T11:06:31Z</time>
      </trkpt>
      <trkpt lat="50.03812" lon="1.97725">
        <ele>9.6</ele>
        <time>2022-04-17T11:06:32Z</time>
      </trkpt>
      <trkpt lat="50.03812" lon="1.97725">
        <ele>9.6</ele>
        <time>2022-04-17T11:06:33Z</time>
      </trkpt>
      <trkpt lat="50.03812" lon="1.97725">
        <ele>9.6</ele>
        <time>2022-04-17T11:06:34Z</time>
      </trkpt>
      <trkpt lat="50.03812" lon="1.97725">
        <ele>9.6</ele>
        <time>2022-04-17T11:06:35Z</time>
      </trkpt>
      <trkpt lat="50.03812" lon="1.97725">
        <ele>9.6</ele>
        <time>2022-04-17T11:06:36Z</time>
      </trkpt>
      <trkpt lat="50.03812" lon="1.97725">
        <ele>9.6</ele>
        <time>2022-04-17T11:06:37Z</time>
      </trkpt>
      <trkpt lat="50.03812" lon="1.97725">
        <ele>9.6</ele>
        <time>2022-04-17T11:06:38Z</time>
      </trkpt>
      <trkpt lat="50.03812" lon="1.97725">
        <ele>9.6</ele>
        <time>2022-04-17T11:06:39Z</time>
      </trkpt>
      <trkpt lat="50.03812" lon="1.97725">
        <ele>9.6</ele>
        <time>2022-04-17T11:06:40Z</time>
      </trkpt>
      <trkpt lat="50.03812" lon="1.97725">
        <ele>9.6</ele>
        <time>2022-04-17T11:06:41Z</time>
      </trkpt>
      <trkpt lat="50.03812" lon="1.97725">
        <ele>9.6</ele>
        <time>2022-04-17T11:06:42Z</time>
      </trkpt>
      <trkpt lat="50.03812" lon="1.97725">
        <ele>9.6</ele>
        <time>2022-04-17T11:06:43Z</time>
      </trkpt>
      <trkpt lat="50.03812" lon="1.97725">
        <ele>9.6</ele>
        <time>2022-04-17T11:06:44Z</time>
      </trkpt>
      <trkpt lat="50.03812" lon="1.97725">
        <ele>9.6</ele>
        <time>2022-04-17T11:06:45Z</time>
      </trkpt>
      <trkpt lat="50.03812" lon="1.97725">
        <ele>9.6</ele>
        <time>2022-04-17T11:06:46Z</time>
      </trkpt>
      <trkpt lat="50.03812" lon="1.97725">
        <ele>9.6</ele>
        <time>2022-04-17T11:06:47Z</time>
      </trkpt>
      <trkpt lat="50.03812" lon="1.97725">
        <ele>9.6</ele>
        <time>2022-04-17T11:06:48Z</time>
      </trkpt>
      <trkpt lat="50.03812" lon="1.97725">
        <ele>9.6</ele>
        <time>2022-04-17T11:06:49Z</time>
      </trkpt>
      <trkpt lat="50.03812" lon="1.97725">
        <ele>9.6</ele>
        <time>2022-04-17T11:06:50Z</time>
      </trkpt>
      <trkpt lat="50.03812" lon="1.97725">
        <ele>9.6</ele>
        <time>2022-04-17T11:06:51Z</time>
      </trkpt>
      <trkpt lat="50.03812" lon="1.97725">
        <ele>9.6</ele>
        <time>2022-04-17T11:06:52Z</time>
      </trkpt>
      <trkpt lat="50.03812" lon="1.97725">
        <ele>9.6</ele>
        <time>2022-04-17T11:06:53Z</time>
      </trkpt>
      <trkpt lat="50.03812" lon="1.97725">
        <ele>9.6</ele>
        <time>2022-04-17T11:06:54Z</time>
      </trkpt>
      <trkpt lat="50.03812" lon="1.97725">
        <ele>9.6</ele>
        <time>2022-04-17T11:06:55Z</time>
      </trkpt>
      <trkpt lat="50.03812" lon="1.97725">
        <ele>9.6</ele>
        <time>2022-04-17T11:06:56Z</time>
      </trkpt>
      <trkpt lat="50.03812" lon="1.97725">
        <ele>9.6</ele>
        <time>2022-04-17T11:06:57Z</time>
      </trkpt>
      <trkpt lat="50.03812" lon="1.97725">
        <ele>9.6</ele>
        <time>2022-04-17T11:06:58Z</time>
      </trkpt>
      <trkpt lat="50.03812" lon="1.97725">
        <ele>9.6</ele>
        <time>2022-04-17T11:06:59Z</time>
      </trkpt>
      <trkpt lat="50.03812" lon="1.97725">
        <ele>9.6</ele>
        <time>2022-04-17T11:07:00Z</time>
      </trkpt>
      <trkpt lat="50.03812" lon="1.97725">
        <ele>9.6</ele>
        <time>2022-04-17T11:07:01Z</time>
      </trkpt>
      <trkpt lat="50.03812" lon="1.97725">
        <ele>9.6</ele>
        <time>2022-04-17T11:07:02Z</time>
      </trkpt>
      <trkpt lat="50.03812" lon="1.97725">
        <ele>9.6</ele>
        <time>2022-04-17T11:07:03Z</time>
      </trkpt>
      <trkpt lat="50.03812" lon="1.97725">
        <ele>9.6</ele>
        <time>2022-04-17T11:07:04Z</time>
      </trkpt>
      <trkpt lat="50.03812" lon="1.97725">
        <ele>9.6</ele>
        <time>2022-04-17T11:07:05Z</time>
      </trkpt>
      <trkpt lat="50.03812" lon="1.97725">
        <ele>9.6</ele>
        <time>2022-04-17T11:07:06Z</time>
      </trkpt>
      <trkpt lat="50.03812" lon="1.97725">
        <ele>9.6</ele>
        <time>2022-04-17T11:07:07Z</time>
      </trkpt>
      <trkpt lat="50.03812" lon="1.97725">
        <ele>9.6</ele>
        <time>2022-04-17T11:07:08Z</time>
      </trkpt>
      <trkpt lat="50.03812" lon="1.97725">
        <ele>9.6</ele>
        <time>2022-04-17T11:07:09Z</time>
      </trkpt>
      <trkpt lat="50.03812" lon="1.97725">
        <ele>9.6</ele>
        <time>2022-04-17T11:07:10Z</time>
      </trkpt>
      <trkpt lat="50.03812" lon="1.97725">
        <ele>9.6</ele>
        <time>2022-04-17T11:07:11Z</time>
      </trkpt>
      <trkpt lat="50.03812" lon="1.97725">
        <ele>9.6</ele>
        <time>2022-04-17T11:07:12Z</time>
      </trkpt>
      <trkpt lat="50.03812" lon="1.97725">
        <ele>9.6</ele>
        <time>2022-04-17T11:07:13Z</time>
      </trkpt>
      <trkpt lat="50.03812" lon="1.97725">
        <ele>9.6</ele>
        <time>2022-04-17T11:07:14Z</time>
      </trkpt>
      <trkpt lat="50.03812" lon="1.97725">
        <ele>9.6</ele>
        <time>2022-04-17T11:07:15Z</time>
      </trkpt>
      <trkpt lat="50.03812" lon="1.97725">
        <ele>9.6</ele>
        <time>2022-04-17T11:07:16Z</time>
      </trkpt>
      <trkpt lat="50.03812" lon="1.97725">
        <ele>9.6</ele>
        <time>2022-04-17T11:07:17Z</time>
      </trkpt>
      <trkpt lat="50.03812" lon="1.97725">
        <ele>9.6</ele>
        <time>2022-04-17T11:07:18Z</time>
      </trkpt>
      <trkpt lat="50.03812" lon="1.97725">
        <ele>9.6</ele>
        <time>2022-04-17T11:07:19Z</time>
      </trkpt>
      <trkpt lat="50.03812" lon="1.97725">
        <ele>9.6</ele>
        <time>2022-04-17T11:07:20Z</time>
      </trkpt>
      <trkpt lat="50.03812" lon="1.97725">
        <ele>9.6</ele>
        <time>2022-04-17T11:07:21Z</time>
      </trkpt>
      <trkpt lat="50.03812" lon="1.97725">
        <ele>9.6</ele>
        <time>2022-04-17T11:07:22Z</time>
      </trkpt>
      <trkpt lat="50.03812" lon="1.97725">
        <ele>9.6</ele>
        <time>2022-04-17T11:07:23Z</time>
      </trkpt>
      <trkpt lat="50.03812" lon="1.97725">
        <ele>9.6</ele>
        <time>2022-04-17T11:07:24Z</time>
      </trkpt>
      <trkpt lat="50.03812" lon="1.97725">
        <ele>9.6</ele>
        <time>2022-04-17T11:07:25Z</time>
      </trkpt>
      <trkpt lat="50.03812" lon="1.97725">
        <ele>9.6</ele>
        <time>2022-04-17T11:07:26Z</time>
      </trkpt>
      <trkpt lat="50.03812" lon="1.97725">
        <ele>9.6</ele>
        <time>2022-04-17T11:07:27Z</time>
      </trkpt>
      <trkpt lat="50.03812" lon="1.97725">
        <ele>9.6</ele>
        <time>2022-04-17T11:07:28Z</time>
      </trkpt>
      <trkpt lat="50.03812" lon="1.97725">
        <ele>9.6</ele>
        <time>2022-04-17T11:07:29Z</time>
      </trkpt>
      <trkpt lat="50.03812" lon="1.97725">
        <ele>9.6</ele>
        <time>2022-04-17T11:07:30Z</time>
      </trkpt>
      <trkpt lat="50.03812" lon="1.97725">
        <ele>9.6</ele>
        <time>2022-04-17T11:07:31Z</time>
      </trkpt>
      <trkpt lat="50.03812" lon="1.97725">
        <ele>9.6</ele>
        <time>2022-04-17T11:07:32Z</time>
      </trkpt>
      <trkpt lat="50.03812" lon="1.97725">
        <ele>9.6</ele>
        <time>2022-04-17T11:07:33Z</time>
      </trkpt>
      <trkpt lat="50.03812" lon="1.97725">
        <ele>9.6</ele>
        <time>2022-04-17T11:07:34Z</time>
      </trkpt>
      <trkpt lat="50.03812" lon="1.97725">
        <ele>9.6</ele>
        <time>2022-04-17T11:07:35Z</time>
      </trkpt>
      <trkpt lat="50.03812" lon="1.97725">
        <ele>9.6</ele>
        <time>2022-04-17T11:07:36Z</time>
      </trkpt>
      <trkpt lat="50.03812" lon="1.97725">
        <ele>9.6</ele>
        <time>2022-04-17T11:07:37Z</time>
      </trkpt>
      <trkpt lat="50.03812" lon="1.97725">
        <ele>9.6</ele>
        <time>2022-04-17T11:07:38Z</time>
      </trkpt>
      <trkpt lat="50.03812" lon="1.97725">
        <ele>9.6</ele>
        <time>2022-04-17T11:07:39Z</time>
      </trkpt>
      <trkpt lat="50.03812" lon="1.97725">
        <ele>9.6</ele>
        <time>2022-04-17T11:07:40Z</time>
      </trkpt>
      <trkpt lat="50.03812" lon="1.97725">
        <ele>9.6</ele>
        <time>2022-04-17T11:07:41Z</time>
      </trkpt>
      <trkpt lat="50.03812" lon="1.97725">
        <ele>9.6</ele>
        <time>2022-04-17T11:07:42Z</time>
      </trkpt>
      <trkpt lat="50.03812" lon="1.97725">
        <ele>9.6</ele>
        <time>2022-04-17T11:07:43Z</time>
      </trkpt>
      <trkpt lat="50.03812" lon="1.97725">
        <ele>9.6</ele>
        <time>2022-04-17T11:07:44Z</time>
      </trkpt>
      <trkpt lat="50.03812" lon="1.97725">
        <ele>9.6</ele>
        <time>2022-04-17T11:07:45Z</time>
      </trkpt>
      <trkpt lat="50.03812" lon="1.97725">
        <ele>9.6</ele>
        <time>2022-04-17T11:07:46Z</time>
      </trkpt>
      <trkpt lat="50.03812" lon="1.97725">
        <ele>9.6</ele>
        <time>2022-04-17T11:07:47Z</time>
      </trkpt>
      <trkpt lat="50.03812" lon="1.97725">
        <ele>9.6</ele>
        <time>2022-04-17T11:07:48Z</time>
      </trkpt>
      <trkpt lat="50.03812" lon="1.97725">
        <ele>9.6</ele>
        <time>2022-04-17T11:07:49Z</time>
      </trkpt>
      <trkpt lat="50.03812" lon="1.97725">
        <ele>9.6</ele>
        <time>2022-04-17T11:07:50Z</time>
      </trkpt>
      <trkpt lat="50.03812" lon="1.97725">
        <ele>9.6</ele>
        <time>2022-04-17T11:07:51Z</time>
      </trkpt>
      <trkpt lat="50.03812" lon="1.97725">
        <ele>9.6</ele>
        <time>2022-04-17T11:07:52Z</time>
      </trkpt>
      <trkpt lat="50.03812" lon="1.97725">
        <ele>9.6</ele>
        <time>2022-04-17T11:07:53Z</time>
      </trkpt>
      <trkpt lat="50.03812" lon="1.97725">
        <ele>9.6</ele>
        <time>2022-04-17T11:07:54Z</time>
      </trkpt>
      <trkpt lat="50.03812" lon="1.97725">
        <ele>9.6</ele>
        <time>2022-04-17T11:07:55Z</time>
      </trkpt>
      <trkpt lat="50.03812" lon="1.97725">
        <ele>9.6</ele>
        <time>2022-04-17T11:07:56Z</time>
      </trkpt>
      <trkpt lat="50.03812" lon="1.97725">
        <ele>9.6</ele>
        <time>2022-04-17T11:07:57Z</time>
      </trkpt>
      <trkpt lat="50.03812" lon="1.97725">
        <ele>9.6</ele>
        <time>2022-04-17T11:07:58Z</time>
      </trkpt>
      <trkpt lat="50.03812" lon="1.97725">
        <ele>9.6</ele>
        <time>2022-04-17T11:07:59Z</time>
      </trkpt>
      <trkpt lat="50.03812" lon="1.97725">
        <ele>9.6</ele>
        <time>2022-04-17T11:08:00Z</time>
      </trkpt>
      <trkpt lat="50.03812" lon="1.97725">
        <ele>9.6</ele>
        <time>2022-04-17T11:08:01Z</time>
      </trkpt>
      <trkpt lat="50.03812" lon="1.97725">
        <ele>9.6</ele>
        <time>2022-04-17T11:08:02Z</time>
      </trkpt>
      <trkpt lat="50.03812" lon="1.97725">
        <ele>9.6</ele>
        <time>2022-04-17T11:08:03Z</time>
      </trkpt>
      <trkpt lat="50.03812" lon="1.97725">
        <ele>9.6</ele>
        <time>2022-04-17T11:08:04Z</time>
      </trkpt>
      <trkpt lat="50.03812" lon="1.97725">
        <ele>9.6</ele>
        <time>2022-04-17T11:08:05Z</time>
      </trkpt>
      <trkpt lat="50.03812" lon="1.97725">
        <ele>9.6</ele>
        <time>2022-04-17T11:08:06Z</time>
      </trkpt>
      <trkpt lat="50.03812" lon="1.97725">
        <ele>9.6</ele>
        <time>2022-04-17T11:08:07Z</time>
      </trkpt>
      <trkpt lat="50.03812" lon="1.97725">
        <ele>9.5</ele>
        <time>2022-04-17T11:08:08Z</time>
      </trkpt>
      <trkpt lat="50.03812" lon="1.97725">
        <ele>9.5</ele>
        <time>2022-04-17T11:08:09Z</time>
      </trkpt>
      <trkpt lat="50.03812" lon="1.97725">
        <ele>9.5</ele>
        <time>2022-04-17T11:08:10Z</time>
      </trkpt>
      <trkpt lat="50.03812" lon="1.97725">
        <ele>9.5</ele>
        <time>2022-04-17T11:08:11Z</time>
      </trkpt>
      <trkpt lat="50.03812" lon="1.97725">
        <ele>9.5</ele>
        <time>2022-04-17T11:08:12Z</time>
      </trkpt>
      <trkpt lat="50.03812" lon="1.97725">
        <ele>9.5</ele>
        <time>2022-04-17T11:08:13Z</time>
      </trkpt>
      <trkpt lat="50.03812" lon="1.97725">
        <ele>9.5</ele>
        <time>2022-04-17T11:08:14Z</time>
      </trkpt>
      <trkpt lat="50.03812" lon="1.97725">
        <ele>9.5</ele>
        <time>2022-04-17T11:08:15Z</time>
      </trkpt>
      <trkpt lat="50.03812" lon="1.97725">
        <ele>9.5</ele>
        <time>2022-04-17T11:08:16Z</time>
      </trkpt>
      <trkpt lat="50.03812" lon="1.97725">
        <ele>9.5</ele>
        <time>2022-04-17T11:08:17Z</time>
      </trkpt>
      <trkpt lat="50.03812" lon="1.97725">
        <ele>9.5</ele>
        <time>2022-04-17T11:08:18Z</time>
      </trkpt>
      <trkpt lat="50.03812" lon="1.97725">
        <ele>9.5</ele>
        <time>2022-04-17T11:08:19Z</time>
      </trkpt>
      <trkpt lat="50.03812" lon="1.97725">
        <ele>9.5</ele>
        <time>2022-04-17T11:08:20Z</time>
      </trkpt>
      <trkpt lat="50.03812" lon="1.97725">
        <ele>9.5</ele>
        <time>2022-04-17T11:08:21Z</time>
      </trkpt>
      <trkpt lat="50.03812" lon="1.97725">
        <ele>9.5</ele>
        <time>2022-04-17T11:08:22Z</time>
      </trkpt>
      <trkpt lat="50.03812" lon="1.97725">
        <ele>9.5</ele>
        <time>2022-04-17T11:08:23Z</time>
      </trkpt>
      <trkpt lat="50.03812" lon="1.97725">
        <ele>9.5</ele>
        <time>2022-04-17T11:08:24Z</time>
      </trkpt>
      <trkpt lat="50.03812" lon="1.97725">
        <ele>9.5</ele>
        <time>2022-04-17T11:08:25Z</time>
      </trkpt>
      <trkpt lat="50.03812" lon="1.97725">
        <ele>9.5</ele>
        <time>2022-04-17T11:08:26Z</time>
      </trkpt>
      <trkpt lat="50.03812" lon="1.97725">
        <ele>9.5</ele>
        <time>2022-04-17T11:08:27Z</time>
      </trkpt>
      <trkpt lat="50.03812" lon="1.97725">
        <ele>9.5</ele>
        <time>2022-04-17T11:08:28Z</time>
      </trkpt>
      <trkpt lat="50.03812" lon="1.97725">
        <ele>9.5</ele>
        <time>2022-04-17T11:08:29Z</time>
      </trkpt>
      <trkpt lat="50.03812" lon="1.97725">
        <ele>9.5</ele>
        <time>2022-04-17T11:08:30Z</time>
      </trkpt>
      <trkpt lat="50.03812" lon="1.97725">
        <ele>9.5</ele>
        <time>2022-04-17T11:08:31Z</time>
      </trkpt>
      <trkpt lat="50.03812" lon="1.97725">
        <ele>9.5</ele>
        <time>2022-04-17T11:08:32Z</time>
      </trkpt>
      <trkpt lat="50.03812" lon="1.97725">
        <ele>9.5</ele>
        <time>2022-04-17T11:08:33Z</time>
      </trkpt>
      <trkpt lat="50.03812" lon="1.97725">
        <ele>9.5</ele>
        <time>2022-04-17T11:08:34Z</time>
      </trkpt>
      <trkpt lat="50.03812" lon="1.97725">
        <ele>9.5</ele>
        <time>2022-04-17T11:08:35Z</time>
      </trkpt>
      <trkpt lat="50.03812" lon="1.97725">
        <ele>9.5</ele>
        <time>2022-04-17T11:08:36Z</time>
      </trkpt>
      <trkpt lat="50.03812" lon="1.97725">
        <ele>9.5</ele>
        <time>2022-04-17T11:08:37Z</time>
      </trkpt>
      <trkpt lat="50.03812" lon="1.97725">
        <ele>9.5</ele>
        <time>2022-04-17T11:08:38Z</time>
      </trkpt>
      <trkpt lat="50.03812" lon="1.97725">
        <ele>9.5</ele>
        <time>2022-04-17T11:08:39Z</time>
      </trkpt>
      <trkpt lat="50.03812" lon="1.97725">
        <ele>9.5</ele>
        <time>2022-04-17T11:08:40Z</time>
      </trkpt>
      <trkpt lat="50.03812" lon="1.97725">
        <ele>9.5</ele>
        <time>2022-04-17T11:08:41Z</time>
      </trkpt>
      <trkpt lat="50.03812" lon="1.97725">
        <ele>9.5</ele>
        <time>2022-04-17T11:08:42Z</time>
      </trkpt>
      <trkpt lat="50.03812" lon="1.97725">
        <ele>9.5</ele>
        <time>2022-04-17T11:08:43Z</time>
      </trkpt>
      <trkpt lat="50.03812" lon="1.97725">
        <ele>9.5</ele>
        <time>2022-04-17T11:08:44Z</time>
      </trkpt>
      <trkpt lat="50.03812" lon="1.97725">
        <ele>9.5</ele>
        <time>2022-04-17T11:08:45Z</time>
      </trkpt>
      <trkpt lat="50.03812" lon="1.97725">
        <ele>9.5</ele>
        <time>2022-04-17T11:08:46Z</time>
      </trkpt>
      <trkpt lat="50.03812" lon="1.97725">
        <ele>9.5</ele>
        <time>2022-04-17T11:08:47Z</time>
      </trkpt>
      <trkpt lat="50.03812" lon="1.97725">
        <ele>9.5</ele>
        <time>2022-04-17T11:08:48Z</time>
      </trkpt>
      <trkpt lat="50.03812" lon="1.97725">
        <ele>9.5</ele>
        <time>2022-04-17T11:08:49Z</time>
      </trkpt>
      <trkpt lat="50.03812" lon="1.97725">
        <ele>9.5</ele>
        <time>2022-04-17T11:08:50Z</time>
      </trkpt>
      <trkpt lat="50.03812" lon="1.97725">
        <ele>9.5</ele>
        <time>2022-04-17T11:08:51Z</time>
      </trkpt>
      <trkpt lat="50.03812" lon="1.97725">
        <ele>9.5</ele>
        <time>2022-04-17T11:08:52Z</time>
      </trkpt>
      <trkpt lat="50.03812" lon="1.97725">
        <ele>9.5</ele>
        <time>2022-04-17T11:08:53Z</time>
      </trkpt>
      <trkpt lat="50.03812" lon="1.97725">
        <ele>9.5</ele>
        <time>2022-04-17T11:08:54Z</time>
      </trkpt>
      <trkpt lat="50.03812" lon="1.97725">
        <ele>9.5</ele>
        <time>2022-04-17T11:08:55Z</time>
      </trkpt>
      <trkpt lat="50.03812" lon="1.97725">
        <ele>9.5</ele>
        <time>2022-04-17T11:08:56Z</time>
      </trkpt>
      <trkpt lat="50.03812" lon="1.97725">
        <ele>9.5</ele>
        <time>2022-04-17T11:08:57Z</time>
      </trkpt>
      <trkpt lat="50.03812" lon="1.97725">
        <ele>9.5</ele>
        <time>2022-04-17T11:08:58Z</time>
      </trkpt>
      <trkpt lat="50.03812" lon="1.97725">
        <ele>9.5</ele>
        <time>2022-04-17T11:08:59Z</time>
      </trkpt>
      <trkpt lat="50.03812" lon="1.97725">
        <ele>9.5</ele>
        <time>2022-04-17T11:09:00Z</time>
      </trkpt>
      <trkpt lat="50.03812" lon="1.97725">
        <ele>9.5</ele>
        <time>2022-04-17T11:09:01Z</time>
      </trkpt>
      <trkpt lat="50.03812" lon="1.97725">
        <ele>9.5</ele>
        <time>2022-04-17T11:09:02Z</time>
      </trkpt>
      <trkpt lat="50.03812" lon="1.97725">
        <ele>9.5</ele>
        <time>2022-04-17T11:09:03Z</time>
      </trkpt>
      <trkpt lat="50.03812" lon="1.97725">
        <ele>9.5</ele>
        <time>2022-04-17T11:09:04Z</time>
      </trkpt>
      <trkpt lat="50.03812" lon="1.97725">
        <ele>9.5</ele>
        <time>2022-04-17T11:09:05Z</time>
      </trkpt>
      <trkpt lat="50.03812" lon="1.97725">
        <ele>9.5</ele>
        <time>2022-04-17T11:09:06Z</time>
      </trkpt>
      <trkpt lat="50.03812" lon="1.97725">
        <ele>9.5</ele>
        <time>2022-04-17T11:09:07Z</time>
      </trkpt>
      <trkpt lat="50.03812" lon="1.97725">
        <ele>9.5</ele>
        <time>2022-04-17T11:09:08Z</time>
      </trkpt>
      <trkpt lat="50.03812" lon="1.97725">
        <ele>9.5</ele>
        <time>2022-04-17T11:09:09Z</time>
      </trkpt>
      <trkpt lat="50.03812" lon="1.97725">
        <ele>9.5</ele>
        <time>2022-04-17T11:09:10Z</time>
      </trkpt>
      <trkpt lat="50.03812" lon="1.97725">
        <ele>9.5</ele>
        <time>2022-04-17T11:09:11Z</time>
      </trkpt>
      <trkpt lat="50.03812" lon="1.97725">
        <ele>9.5</ele>
        <time>2022-04-17T11:09:12Z</time>
      </trkpt>
      <trkpt lat="50.03812" lon="1.97725">
        <ele>9.5</ele>
        <time>2022-04-17T11:09:13Z</time>
      </trkpt>
      <trkpt lat="50.03812" lon="1.97725">
        <ele>9.5</ele>
        <time>2022-04-17T11:09:14Z</time>
      </trkpt>
      <trkpt lat="50.03812" lon="1.97725">
        <ele>9.5</ele>
        <time>2022-04-17T11:09:15Z</time>
      </trkpt>
      <trkpt lat="50.03812" lon="1.97725">
        <ele>9.5</ele>
        <time>2022-04-17T11:09:16Z</time>
      </trkpt>
      <trkpt lat="50.03812" lon="1.97725">
        <ele>9.5</ele>
        <time>2022-04-17T11:09:17Z</time>
      </trkpt>
      <trkpt lat="50.03812" lon="1.97725">
        <ele>9.5</ele>
        <time>2022-04-17T11:09:18Z</time>
      </trkpt>
      <trkpt lat="50.03812" lon="1.97725">
        <ele>9.5</ele>
        <time>2022-04-17T11:09:19Z</time>
      </trkpt>
      <trkpt lat="50.03812" lon="1.97725">
        <ele>9.5</ele>
        <time>2022-04-17T11:09:20Z</time>
      </trkpt>
      <trkpt lat="50.03812" lon="1.97725">
        <ele>9.5</ele>
        <time>2022-04-17T11:09:21Z</time>
      </trkpt>
      <trkpt lat="50.03812" lon="1.97725">
        <ele>9.5</ele>
        <time>2022-04-17T11:09:22Z</time>
      </trkpt>
      <trkpt lat="50.03812" lon="1.97725">
        <ele>9.5</ele>
        <time>2022-04-17T11:09:23Z</time>
      </trkpt>
      <trkpt lat="50.03812" lon="1.97725">
        <ele>9.5</ele>
        <time>2022-04-17T11:09:24Z</time>
      </trkpt>
      <trkpt lat="50.03812" lon="1.97725">
        <ele>9.5</ele>
        <time>2022-04-17T11:09:25Z</time>
      </trkpt>
      <trkpt lat="50.03812" lon="1.97725">
        <ele>9.5</ele>
        <time>2022-04-17T11:09:26Z</time>
      </trkpt>
      <trkpt lat="50.03812" lon="1.97725">
        <ele>9.5</ele>
        <time>2022-04-17T11:09:27Z</time>
      </trkpt>
      <trkpt lat="50.03812" lon="1.97725">
        <ele>9.5</ele>
        <time>2022-04-17T11:09:28Z</time>
      </trkpt>
      <trkpt lat="50.03812" lon="1.97725">
        <ele>9.5</ele>
        <time>2022-04-17T11:09:29Z</time>
      </trkpt>
      <trkpt lat="50.03812" lon="1.97725">
        <ele>9.5</ele>
        <time>2022-04-17T11:09:30Z</time>
      </trkpt>
      <trkpt lat="50.03812" lon="1.97725">
        <ele>9.5</ele>
        <time>2022-04-17T11:09:31Z</time>
      </trkpt>
      <trkpt lat="50.03812" lon="1.97725">
        <ele>9.5</ele>
        <time>2022-04-17T11:09:32Z</time>
      </trkpt>
      <trkpt lat="50.03812" lon="1.97725">
        <ele>9.5</ele>
        <time>2022-04-17T11:09:33Z</time>
      </trkpt>
      <trkpt lat="50.03812" lon="1.97725">
        <ele>9.5</ele>
        <time>2022-04-17T11:09:34Z</time>
      </trkpt>
      <trkpt lat="50.03812" lon="1.97725">
        <ele>9.5</ele>
        <time>2022-04-17T11:09:35Z</time>
      </trkpt>
      <trkpt lat="50.03812" lon="1.97725">
        <ele>9.5</ele>
        <time>2022-04-17T11:09:36Z</time>
      </trkpt>
      <trkpt lat="50.03812" lon="1.97725">
        <ele>9.5</ele>
        <time>2022-04-17T11:09:37Z</time>
      </trkpt>
      <trkpt lat="50.03812" lon="1.97725">
        <ele>9.5</ele>
        <time>2022-04-17T11:09:38Z</time>
      </trkpt>
      <trkpt lat="50.03812" lon="1.97725">
        <ele>9.5</ele>
        <time>2022-04-17T11:09:39Z</time>
      </trkpt>
      <trkpt lat="50.03812" lon="1.97725">
        <ele>9.5</ele>
        <time>2022-04-17T11:09:40Z</time>
      </trkpt>
      <trkpt lat="50.03812" lon="1.97725">
        <ele>9.5</ele>
        <time>2022-04-17T11:09:41Z</time>
      </trkpt>
      <trkpt lat="50.03812" lon="1.97725">
        <ele>9.5</ele>
        <time>2022-04-17T11:09:42Z</time>
      </trkpt>
      <trkpt lat="50.03812" lon="1.97725">
        <ele>9.5</ele>
        <time>2022-04-17T11:09:43Z</time>
      </trkpt>
      <trkpt lat="50.03812" lon="1.97725">
        <ele>9.5</ele>
        <time>2022-04-17T11:09:44Z</time>
      </trkpt>
      <trkpt lat="50.03812" lon="1.97725">
        <ele>9.5</ele>
        <time>2022-04-17T11:09:45Z</time>
      </trkpt>
      <trkpt lat="50.03812" lon="1.97725">
        <ele>9.5</ele>
        <time>2022-04-17T11:09:46Z</time>
      </trkpt>
      <trkpt lat="50.03812" lon="1.97725">
        <ele>9.5</ele>
        <time>2022-04-17T11:09:47Z</time>
      </trkpt>
      <trkpt lat="50.03812" lon="1.97725">
        <ele>9.5</ele>
        <time>2022-04-17T11:09:48Z</time>
      </trkpt>
      <trkpt lat="50.03812" lon="1.97725">
        <ele>9.5</ele>
        <time>2022-04-17T11:09:49Z</time>
      </trkpt>
      <trkpt lat="50.03812" lon="1.97725">
        <ele>9.5</ele>
        <time>2022-04-17T11:09:50Z</time>
      </trkpt>
      <trkpt lat="50.03812" lon="1.97725">
        <ele>9.5</ele>
        <time>2022-04-17T11:09:51Z</time>
      </trkpt>
      <trkpt lat="50.03812" lon="1.97725">
        <ele>9.5</ele>
        <time>2022-04-17T11:09:52Z</time>
      </trkpt>
      <trkpt lat="50.03812" lon="1.97725">
        <ele>9.5</ele>
        <time>2022-04-17T11:09:53Z</time>
      </trkpt>
      <trkpt lat="50.03812" lon="1.97725">
        <ele>9.5</ele>
        <time>2022-04-17T11:09:54Z</time>
      </trkpt>
      <trkpt lat="50.03812" lon="1.97725">
        <ele>9.5</ele>
        <time>2022-04-17T11:09:55Z</time>
      </trkpt>
      <trkpt lat="50.03812" lon="1.97725">
        <ele>9.5</ele>
        <time>2022-04-17T11:09:56Z</time>
      </trkpt>
      <trkpt lat="50.03812" lon="1.97725">
        <ele>9.5</ele>
        <time>2022-04-17T11:09:57Z</time>
      </trkpt>
      <trkpt lat="50.03812" lon="1.97725">
        <ele>9.5</ele>
        <time>2022-04-17T11:09:58Z</time>
      </trkpt>
      <trkpt lat="50.03812" lon="1.97725">
        <ele>9.5</ele>
        <time>2022-04-17T11:09:59Z</time>
      </trkpt>
      <trkpt lat="50.03812" lon="1.97725">
        <ele>9.5</ele>
        <time>2022-04-17T11:10:00Z</time>
      </trkpt>
      <trkpt lat="50.03812" lon="1.97725">
        <ele>9.5</ele>
        <time>2022-04-17T11:10:01Z</time>
      </trkpt>
      <trkpt lat="50.03812" lon="1.97725">
        <ele>9.5</ele>
        <time>2022-04-17T11:10:02Z</time>
      </trkpt>
      <trkpt lat="50.03812" lon="1.97725">
        <ele>9.5</ele>
        <time>2022-04-17T11:10:03Z</time>
      </trkpt>
      <trkpt lat="50.03812" lon="1.97725">
        <ele>9.5</ele>
        <time>2022-04-17T11:10:04Z</time>
      </trkpt>
      <trkpt lat="50.03812" lon="1.97725">
        <ele>9.5</ele>
        <time>2022-04-17T11:10:05Z</time>
      </trkpt>
      <trkpt lat="50.03812" lon="1.97725">
        <ele>9.5</ele>
        <time>2022-04-17T11:10:06Z</time>
      </trkpt>
      <trkpt lat="50.03812" lon="1.97725">
        <ele>9.5</ele>
        <time>2022-04-17T11:10:07Z</time>
      </trkpt>
      <trkpt lat="50.03812" lon="1.97725">
        <ele>9.5</ele>
        <time>2022-04-17T11:10:08Z</time>
      </trkpt>
      <trkpt lat="50.03812" lon="1.97725">
        <ele>9.5</ele>
        <time>2022-04-17T11:10:09Z</time>
      </trkpt>
      <trkpt lat="50.03812" lon="1.97725">
        <ele>9.5</ele>
        <time>2022-04-17T11:10:10Z</time>
      </trkpt>
      <trkpt lat="50.03812" lon="1.97725">
        <ele>9.5</ele>
        <time>2022-04-17T11:10:11Z</time>
      </trkpt>
      <trkpt lat="50.03812" lon="1.97725">
        <ele>9.5</ele>
        <time>2022-04-17T11:10:12Z</time>
      </trkpt>
      <trkpt lat="50.03812" lon="1.97725">
        <ele>9.5</ele>
        <time>2022-04-17T11:10:13Z</time>
      </trkpt>
      <trkpt lat="50.03812" lon="1.97725">
        <ele>9.5</ele>
        <time>2022-04-17T11:10:14Z</time>
      </trkpt>
      <trkpt lat="50.03812" lon="1.97725">
        <ele>9.5</ele>
        <time>2022-04-17T11:10:15Z</time>
      </trkpt>
      <trkpt lat="50.03812" lon="1.97725">
        <ele>9.5</ele>
        <time>2022-04-17T11:10:16Z</time>
      </trkpt>
      <trkpt lat="50.03812" lon="1.97725">
        <ele>9.5</ele>
        <time>2022-04-17T11:10:17Z</time>
      </trkpt>
      <trkpt lat="50.03812" lon="1.97725">
        <ele>9.5</ele>
        <time>2022-04-17T11:10:18Z</time>
      </trkpt>
      <trkpt lat="50.03812" lon="1.97725">
        <ele>9.5</ele>
        <time>2022-04-17T11:10:19Z</time>
      </trkpt>
      <trkpt lat="50.03812" lon="1.97725">
        <ele>9.5</ele>
        <time>2022-04-17T11:10:20Z</time>
      </trkpt>
      <trkpt lat="50.03812" lon="1.97725">
        <ele>9.5</ele>
        <time>2022-04-17T11:10:21Z</time>
      </trkpt>
      <trkpt lat="50.03812" lon="1.97725">
        <ele>9.5</ele>
        <time>2022-04-17T11:10:22Z</time>
      </trkpt>
      <trkpt lat="50.03812" lon="1.97725">
        <ele>9.5</ele>
        <time>2022-04-17T11:10:23Z</time>
      </trkpt>
      <trkpt lat="50.03812" lon="1.97725">
        <ele>9.5</ele>
        <time>2022-04-17T11:10:24Z</time>
      </trkpt>
      <trkpt lat="50.03812" lon="1.97725">
        <ele>9.5</ele>
        <time>2022-04-17T11:10:25Z</time>
      </trkpt>
      <trkpt lat="50.03812" lon="1.97725">
        <ele>9.5</ele>
        <time>2022-04-17T11:10:26Z</time>
      </trkpt>
      <trkpt lat="50.03812" lon="1.97725">
        <ele>9.5</ele>
        <time>2022-04-17T11:10:27Z</time>
      </trkpt>
      <trkpt lat="50.03812" lon="1.97725">
        <ele>9.5</ele>
        <time>2022-04-17T11:10:28Z</time>
      </trkpt>
      <trkpt lat="50.03812" lon="1.97725">
        <ele>9.5</ele>
        <time>2022-04-17T11:10:29Z</time>
      </trkpt>
      <trkpt lat="50.03812" lon="1.97725">
        <ele>9.5</ele>
        <time>2022-04-17T11:10:30Z</time>
      </trkpt>
      <trkpt lat="50.03812" lon="1.97725">
        <ele>9.5</ele>
        <time>2022-04-17T11:10:31Z</time>
      </trkpt>
      <trkpt lat="50.03812" lon="1.97725">
        <ele>9.5</ele>
        <time>2022-04-17T11:10:32Z</time>
      </trkpt>
      <trkpt lat="50.03812" lon="1.97725">
        <ele>9.5</ele>
        <time>2022-04-17T11:10:33Z</time>
      </trkpt>
      <trkpt lat="50.03812" lon="1.97725">
        <ele>9.5</ele>
        <time>2022-04-17T11:10:34Z</time>
      </trkpt>
      <trkpt lat="50.03812" lon="1.97725">
        <ele>9.5</ele>
        <time>2022-04-17T11:10:35Z</time>
      </trkpt>
      <trkpt lat="50.03812" lon="1.97725">
        <ele>9.5</ele>
        <time>2022-04-17T11:10:36Z</time>
      </trkpt>
      <trkpt lat="50.03812" lon="1.97725">
        <ele>9.5</ele>
        <time>2022-04-17T11:10:37Z</time>
      </trkpt>
      <trkpt lat="50.03812" lon="1.97725">
        <ele>9.5</ele>
        <time>2022-04-17T11:10:38Z</time>
      </trkpt>
      <trkpt lat="50.03812" lon="1.97725">
        <ele>9.5</ele>
        <time>2022-04-17T11:10:39Z</time>
      </trkpt>
      <trkpt lat="50.03812" lon="1.97725">
        <ele>9.5</ele>
        <time>2022-04-17T11:10:40Z</time>
      </trkpt>
      <trkpt lat="50.03812" lon="1.97725">
        <ele>9.5</ele>
        <time>2022-04-17T11:10:41Z</time>
      </trkpt>
      <trkpt lat="50.03812" lon="1.97725">
        <ele>9.5</ele>
        <time>2022-04-17T11:10:42Z</time>
      </trkpt>
      <trkpt lat="50.03812" lon="1.97725">
        <ele>9.5</ele>
        <time>2022-04-17T11:10:43Z</time>
      </trkpt>
      <trkpt lat="50.03812" lon="1.97725">
        <ele>9.5</ele>
        <time>2022-04-17T11:10:44Z</time>
      </trkpt>
      <trkpt lat="50.03812" lon="1.97725">
        <ele>9.5</ele>
        <time>2022-04-17T11:10:45Z</time>
      </trkpt>
      <trkpt lat="50.03812" lon="1.97725">
        <ele>9.5</ele>
        <time>2022-04-17T11:10:46Z</time>
      </trkpt>
      <trkpt lat="50.03812" lon="1.97725">
        <ele>9.5</ele>
        <time>2022-04-17T11:10:47Z</time>
      </trkpt>
      <trkpt lat="50.03812" lon="1.97725">
        <ele>9.5</ele>
        <time>2022-04-17T11:10:48Z</time>
      </trkpt>
      <trkpt lat="50.03812" lon="1.97725">
        <ele>9.5</ele>
        <time>2022-04-17T11:10:49Z</time>
      </trkpt>
      <trkpt lat="50.03812" lon="1.97725">
        <ele>9.5</ele>
        <time>2022-04-17T11:10:50Z</time>
      </trkpt>
      <trkpt lat="50.03812" lon="1.97725">
        <ele>9.5</ele>
        <time>2022-04-17T11:10:51Z</time>
      </trkpt>
      <trkpt lat="50.03812" lon="1.97725">
        <ele>9.5</ele>
        <time>2022-04-17T11:10:52Z</time>
      </trkpt>
      <trkpt lat="50.03812" lon="1.97725">
        <ele>9.5</ele>
        <time>2022-04-17T11:10:53Z</time>
      </trkpt>
      <trkpt lat="50.03812" lon="1.97725">
        <ele>9.5</ele>
        <time>2022-04-17T11:10:54Z</time>
      </trkpt>
      <trkpt lat="50.03812" lon="1.97725">
        <ele>9.5</ele>
        <time>2022-04-17T11:10:55Z</time>
      </trkpt>
      <trkpt lat="50.03812" lon="1.97725">
        <ele>9.5</ele>
        <time>2022-04-17T11:10:56Z</time>
      </trkpt>
      <trkpt lat="50.03812" lon="1.97725">
        <ele>9.5</ele>
        <time>2022-04-17T11:10:57Z</time>
      </trkpt>
      <trkpt lat="50.03812" lon="1.97725">
        <ele>9.5</ele>
        <time>2022-04-17T11:10:58Z</time>
      </trkpt>
      <trkpt lat="50.03812" lon="1.97725">
        <ele>9.5</ele>
        <time>2022-04-17T11:10:59Z</time>
      </trkpt>
      <trkpt lat="50.03812" lon="1.97725">
        <ele>9.5</ele>
        <time>2022-04-17T11:11:00Z</time>
      </trkpt>
      <trkpt lat="50.03812" lon="1.97725">
        <ele>9.5</ele>
        <time>2022-04-17T11:11:01Z</time>
      </trkpt>
      <trkpt lat="50.03812" lon="1.97725">
        <ele>9.5</ele>
        <time>2022-04-17T11:11:02Z</time>
      </trkpt>
      <trkpt lat="50.03812" lon="1.97725">
        <ele>9.5</ele>
        <time>2022-04-17T11:11:03Z</time>
      </trkpt>
      <trkpt lat="50.03812" lon="1.97725">
        <ele>9.5</ele>
        <time>2022-04-17T11:11:04Z</time>
      </trkpt>
      <trkpt lat="50.03812" lon="1.97725">
        <ele>9.5</ele>
        <time>2022-04-17T11:11:05Z</time>
      </trkpt>
      <trkpt lat="50.03812" lon="1.97725">
        <ele>9.5</ele>
        <time>2022-04-17T11:11:06Z</time>
      </trkpt>
      <trkpt lat="50.03812" lon="1.97725">
        <ele>9.5</ele>
        <time>2022-04-17T11:11:07Z</time>
      </trkpt>
      <trkpt lat="50.03812" lon="1.97725">
        <ele>9.5</ele>
        <time>2022-04-17T11:11:08Z</time>
      </trkpt>
      <trkpt lat="50.03812" lon="1.97725">
        <ele>9.5</ele>
        <time>2022-04-17T11:11:09Z</time>
      </trkpt>
      <trkpt lat="50.03812" lon="1.97725">
        <ele>9.5</ele>
        <time>2022-04-17T11:11:10Z</time>
      </trkpt>
      <trkpt lat="50.03812" lon="1.97725">
        <ele>9.5</ele>
        <time>2022-04-17T11:11:11Z</time>
      </trkpt>
      <trkpt lat="50.03812" lon="1.97725">
        <ele>9.5</ele>
        <time>2022-04-17T11:11:12Z</time>
      </trkpt>
      <trkpt lat="50.03812" lon="1.97725">
        <ele>9.5</ele>
        <time>2022-04-17T11:11:13Z</time>
      </trkpt>
      <trkpt lat="50.03812" lon="1.97725">
        <ele>9.5</ele>
        <time>2022-04-17T11:11:14Z</time>
      </trkpt>
      <trkpt lat="50.03812" lon="1.97725">
        <ele>9.5</ele>
        <time>2022-04-17T11:11:15Z</time>
      </trkpt>
      <trkpt lat="50.03812" lon="1.97725">
        <ele>9.5</ele>
        <time>2022-04-17T11:11:16Z</time>
      </trkpt>
      <trkpt lat="50.03812" lon="1.97725">
        <ele>9.5</ele>
        <time>2022-04-17T11:11:17Z</time>
      </trkpt>
      <trkpt lat="50.03812" lon="1.97725">
        <ele>9.5</ele>
        <time>2022-04-17T11:11:18Z</time>
      </trkpt>
      <trkpt lat="50.03812" lon="1.97725">
        <ele>9.5</ele>
        <time>2022-04-17T11:11:19Z</time>
      </trkpt>
      <trkpt lat="50.03812" lon="1.97725">
        <ele>9.5</ele>
        <time>2022-04-17T11:11:20Z</time>
      </trkpt>
      <trkpt lat="50.03812" lon="1.97725">
        <ele>9.5</ele>
        <time>2022-04-17T11:11:21Z</time>
      </trkpt>
      <trkpt lat="50.03812" lon="1.97725">
        <ele>9.5</ele>
        <time>2022-04-17T11:11:22Z</time>
      </trkpt>
      <trkpt lat="50.03812" lon="1.97725">
        <ele>9.5</ele>
        <time>2022-04-17T11:11:23Z</time>
      </trkpt>
      <trkpt lat="50.03812" lon="1.97725">
        <ele>9.5</ele>
        <time>2022-04-17T11:11:24Z</time>
      </trkpt>
      <trkpt lat="50.03812" lon="1.97725">
        <ele>9.5</ele>
        <time>2022-04-17T11:11:25Z</time>
      </trkpt>
      <trkpt lat="50.03812" lon="1.97725">
        <ele>9.5</ele>
        <time>2022-04-17T11:11:26Z</time>
      </trkpt>
      <trkpt lat="50.03812" lon="1.97725">
        <ele>9.5</ele>
        <time>2022-04-17T11:11:27Z</time>
      </trkpt>
      <trkpt lat="50.03812" lon="1.97725">
        <ele>9.5</ele>
        <time>2022-04-17T11:11:28Z</time>
      </trkpt>
      <trkpt lat="50.03812" lon="1.97725">
        <ele>9.5</ele>
        <time>2022-04-17T11:11:29Z</time>
      </trkpt>
      <trkpt lat="50.03812" lon="1.97725">
        <ele>9.5</ele>
        <time>2022-04-17T11:11:30Z</time>
      </trkpt>
      <trkpt lat="50.03812" lon="1.97725">
        <ele>9.5</ele>
        <time>2022-04-17T11:11:31Z</time>
      </trkpt>
      <trkpt lat="50.03812" lon="1.97725">
        <ele>9.5</ele>
        <time>2022-04-17T11:11:32Z</time>
      </trkpt>
      <trkpt lat="50.03812" lon="1.97725">
        <ele>9.5</ele>
        <time>2022-04-17T11:11:33Z</time>
      </trkpt>
      <trkpt lat="50.03812" lon="1.97725">
        <ele>9.5</ele>
        <time>2022-04-17T11:11:34Z</time>
      </trkpt>
      <trkpt lat="50.03812" lon="1.97725">
        <ele>9.5</ele>
        <time>2022-04-17T11:11:35Z</time>
      </trkpt>
      <trkpt lat="50.03812" lon="1.97725">
        <ele>9.5</ele>
        <time>2022-04-17T11:11:36Z</time>
      </trkpt>
      <trkpt lat="50.03812" lon="1.97725">
        <ele>9.5</ele>
        <time>2022-04-17T11:11:37Z</time>
      </trkpt>
      <trkpt lat="50.03812" lon="1.97725">
        <ele>9.5</ele>
        <time>2022-04-17T11:11:38Z</time>
      </trkpt>
      <trkpt lat="50.03812" lon="1.97725">
        <ele>9.5</ele>
        <time>2022-04-17T11:11:39Z</time>
      </trkpt>
      <trkpt lat="50.03812" lon="1.97725">
        <ele>9.5</ele>
        <time>2022-04-17T11:11:40Z</time>
      </trkpt>
      <trkpt lat="50.03812" lon="1.97725">
        <ele>9.5</ele>
        <time>2022-04-17T11:11:41Z</time>
      </trkpt>
      <trkpt lat="50.03812" lon="1.97725">
        <ele>9.5</ele>
        <time>2022-04-17T11:11:42Z</time>
      </trkpt>
      <trkpt lat="50.03812" lon="1.97725">
        <ele>9.5</ele>
        <time>2022-04-17T11:11:43Z</time>
      </trkpt>
      <trkpt lat="50.03812" lon="1.97725">
        <ele>9.5</ele>
        <time>2022-04-17T11:11:44Z</time>
      </trkpt>
      <trkpt lat="50.03812" lon="1.97725">
        <ele>9.5</ele>
        <time>2022-04-17T11:11:45Z</time>
      </trkpt>
      <trkpt lat="50.03812" lon="1.97725">
        <ele>9.5</ele>
        <time>2022-04-17T11:11:46Z</time>
      </trkpt>
      <trkpt lat="50.03812" lon="1.97725">
        <ele>9.5</ele>
        <time>2022-04-17T11:11:47Z</time>
      </trkpt>
      <trkpt lat="50.03812" lon="1.97725">
        <ele>9.5</ele>
        <time>2022-04-17T11:11:48Z</time>
      </trkpt>
      <trkpt lat="50.03812" lon="1.97725">
        <ele>9.5</ele>
        <time>2022-04-17T11:11:49Z</time>
      </trkpt>
      <trkpt lat="50.03812" lon="1.97725">
        <ele>9.5</ele>
        <time>2022-04-17T11:11:50Z</time>
      </trkpt>
      <trkpt lat="50.03812" lon="1.97725">
        <ele>9.5</ele>
        <time>2022-04-17T11:11:51Z</time>
      </trkpt>
      <trkpt lat="50.03812" lon="1.97725">
        <ele>9.5</ele>
        <time>2022-04-17T11:11:52Z</time>
      </trkpt>
      <trkpt lat="50.03812" lon="1.97725">
        <ele>9.5</ele>
        <time>2022-04-17T11:11:53Z</time>
      </trkpt>
      <trkpt lat="50.03812" lon="1.97725">
        <ele>9.5</ele>
        <time>2022-04-17T11:11:54Z</time>
      </trkpt>
      <trkpt lat="50.03812" lon="1.97725">
        <ele>9.5</ele>
        <time>2022-04-17T11:11:55Z</time>
      </trkpt>
      <trkpt lat="50.03812" lon="1.97725">
        <ele>9.5</ele>
        <time>2022-04-17T11:11:56Z</time>
      </trkpt>
      <trkpt lat="50.03812" lon="1.97725">
        <ele>9.5</ele>
        <time>2022-04-17T11:11:57Z</time>
      </trkpt>
      <trkpt lat="50.03812" lon="1.97725">
        <ele>9.5</ele>
        <time>2022-04-17T11:11:58Z</time>
      </trkpt>
      <trkpt lat="50.03812" lon="1.97725">
        <ele>9.5</ele>
        <time>2022-04-17T11:11:59Z</time>
      </trkpt>
      <trkpt lat="50.03812" lon="1.97725">
        <ele>9.5</ele>
        <time>2022-04-17T11:12:00Z</time>
      </trkpt>
      <trkpt lat="50.03812" lon="1.97725">
        <ele>9.5</ele>
        <time>2022-04-17T11:12:01Z</time>
      </trkpt>
      <trkpt lat="50.03812" lon="1.97725">
        <ele>9.5</ele>
        <time>2022-04-17T11:12:02Z</time>
      </trkpt>
      <trkpt lat="50.03812" lon="1.97725">
        <ele>9.5</ele>
        <time>2022-04-17T11:12:03Z</time>
      </trkpt>
      <trkpt lat="50.03812" lon="1.97725">
        <ele>9.5</ele>
        <time>2022-04-17T11:12:04Z</time>
      </trkpt>
      <trkpt lat="50.03812" lon="1.97725">
        <ele>9.5</ele>
        <time>2022-04-17T11:12:05Z</time>
      </trkpt>
      <trkpt lat="50.03812" lon="1.97725">
        <ele>9.5</ele>
        <time>2022-04-17T11:12:06Z</time>
      </trkpt>
      <trkpt lat="50.03812" lon="1.97725">
        <ele>9.5</ele>
        <time>2022-04-17T11:12:07Z</time>
      </trkpt>
      <trkpt lat="50.03812" lon="1.97725">
        <ele>9.5</ele>
        <time>2022-04-17T11:12:08Z</time>
      </trkpt>
      <trkpt lat="50.03812" lon="1.97725">
        <ele>9.5</ele>
        <time>2022-04-17T11:12:09Z</time>
      </trkpt>
      <trkpt lat="50.03812" lon="1.97725">
        <ele>9.5</ele>
        <time>2022-04-17T11:12:10Z</time>
      </trkpt>
      <trkpt lat="50.03812" lon="1.97725">
        <ele>9.5</ele>
        <time>2022-04-17T11:12:11Z</time>
      </trkpt>
      <trkpt lat="50.03812" lon="1.97725">
        <ele>9.5</ele>
        <time>2022-04-17T11:12:12Z</time>
      </trkpt>
      <trkpt lat="50.03812" lon="1.97725">
        <ele>9.5</ele>
        <time>2022-04-17T11:12:13Z</time>
      </trkpt>
      <trkpt lat="50.03812" lon="1.97725">
        <ele>9.5</ele>
        <time>2022-04-17T11:12:14Z</time>
      </trkpt>
      <trkpt lat="50.03812" lon="1.97725">
        <ele>9.5</ele>
        <time>2022-04-17T11:12:15Z</time>
      </trkpt>
      <trkpt lat="50.03812" lon="1.97725">
        <ele>9.5</ele>
        <time>2022-04-17T11:12:16Z</time>
      </trkpt>
      <trkpt lat="50.03812" lon="1.97725">
        <ele>9.5</ele>
        <time>2022-04-17T11:12:17Z</time>
      </trkpt>
      <trkpt lat="50.03812" lon="1.97725">
        <ele>9.5</ele>
        <time>2022-04-17T11:12:18Z</time>
      </trkpt>
      <trkpt lat="50.03812" lon="1.97725">
        <ele>9.5</ele>
        <time>2022-04-17T11:12:19Z</time>
      </trkpt>
      <trkpt lat="50.03812" lon="1.97725">
        <ele>9.5</ele>
        <time>2022-04-17T11:12:20Z</time>
      </trkpt>
      <trkpt lat="50.03812" lon="1.97725">
        <ele>9.5</ele>
        <time>2022-04-17T11:12:21Z</time>
      </trkpt>
      <trkpt lat="50.03812" lon="1.97725">
        <ele>9.5</ele>
        <time>2022-04-17T11:12:22Z</time>
      </trkpt>
      <trkpt lat="50.03812" lon="1.97725">
        <ele>9.5</ele>
        <time>2022-04-17T11:12:23Z</time>
      </trkpt>
      <trkpt lat="50.03812" lon="1.97725">
        <ele>9.5</ele>
        <time>2022-04-17T11:12:24Z</time>
      </trkpt>
      <trkpt lat="50.03812" lon="1.97725">
        <ele>9.5</ele>
        <time>2022-04-17T11:12:25Z</time>
      </trkpt>
      <trkpt lat="50.03812" lon="1.97725">
        <ele>9.5</ele>
        <time>2022-04-17T11:12:26Z</time>
      </trkpt>
      <trkpt lat="50.03812" lon="1.97725">
        <ele>9.5</ele>
        <time>2022-04-17T11:12:27Z</time>
      </trkpt>
      <trkpt lat="50.03812" lon="1.97725">
        <ele>9.5</ele>
        <time>2022-04-17T11:12:28Z</time>
      </trkpt>
      <trkpt lat="50.03812" lon="1.97725">
        <ele>9.5</ele>
        <time>2022-04-17T11:12:29Z</time>
      </trkpt>
      <trkpt lat="50.03812" lon="1.97725">
        <ele>9.5</ele>
        <time>2022-04-17T11:12:30Z</time>
      </trkpt>
      <trkpt lat="50.03812" lon="1.97725">
        <ele>9.5</ele>
        <time>2022-04-17T11:12:31Z</time>
      </trkpt>
      <trkpt lat="50.03812" lon="1.97725">
        <ele>9.5</ele>
        <time>2022-04-17T11:12:32Z</time>
      </trkpt>
      <trkpt lat="50.03812" lon="1.97725">
        <ele>9.5</ele>
        <time>2022-04-17T11:12:33Z</time>
      </trkpt>
      <trkpt lat="50.03812" lon="1.97725">
        <ele>9.5</ele>
        <time>2022-04-17T11:12:34Z</time>
      </trkpt>
      <trkpt lat="50.03812" lon="1.97725">
        <ele>9.5</ele>
        <time>2022-04-17T11:12:35Z</time>
      </trkpt>
      <trkpt lat="50.03812" lon="1.97725">
        <ele>9.5</ele>
        <time>2022-04-17T11:12:36Z</time>
      </trkpt>
      <trkpt lat="50.03812" lon="1.97725">
        <ele>9.5</ele>
        <time>2022-04-17T11:12:37Z</time>
      </trkpt>
      <trkpt lat="50.03812" lon="1.97725">
        <ele>9.5</ele>
        <time>2022-04-17T11:12:38Z</time>
      </trkpt>
      <trkpt lat="50.03812" lon="1.97725">
        <ele>9.5</ele>
        <time>2022-04-17T11:12:39Z</time>
      </trkpt>
      <trkpt lat="50.03812" lon="1.97725">
        <ele>9.5</ele>
        <time>2022-04-17T11:12:40Z</time>
      </trkpt>
      <trkpt lat="50.03812" lon="1.97725">
        <ele>9.5</ele>
        <time>2022-04-17T11:12:41Z</time>
      </trkpt>
      <trkpt lat="50.03812" lon="1.97725">
        <ele>9.5</ele>
        <time>2022-04-17T11:12:42Z</time>
      </trkpt>
      <trkpt lat="50.03812" lon="1.97725">
        <ele>9.5</ele>
        <time>2022-04-17T11:12:43Z</time>
      </trkpt>
      <trkpt lat="50.03812" lon="1.97725">
        <ele>9.5</ele>
        <time>2022-04-17T11:12:44Z</time>
      </trkpt>
      <trkpt lat="50.03812" lon="1.97725">
        <ele>9.5</ele>
        <time>2022-04-17T11:12:45Z</time>
      </trkpt>
      <trkpt lat="50.03812" lon="1.97725">
        <ele>9.5</ele>
        <time>2022-04-17T11:12:46Z</time>
      </trkpt>
      <trkpt lat="50.03812" lon="1.97725">
        <ele>9.5</ele>
        <time>2022-04-17T11:12:47Z</time>
      </trkpt>
      <trkpt lat="50.03812" lon="1.97725">
        <ele>9.5</ele>
        <time>2022-04-17T11:12:48Z</time>
      </trkpt>
      <trkpt lat="50.03812" lon="1.97725">
        <ele>9.5</ele>
        <time>2022-04-17T11:12:49Z</time>
      </trkpt>
      <trkpt lat="50.03812" lon="1.97725">
        <ele>9.5</ele>
        <time>2022-04-17T11:12:50Z</time>
      </trkpt>
      <trkpt lat="50.03812" lon="1.97725">
        <ele>9.5</ele>
        <time>2022-04-17T11:12:51Z</time>
      </trkpt>
      <trkpt lat="50.03812" lon="1.97725">
        <ele>9.5</ele>
        <time>2022-04-17T11:12:52Z</time>
      </trkpt>
      <trkpt lat="50.03812" lon="1.97725">
        <ele>9.5</ele>
        <time>2022-04-17T11:12:53Z</time>
      </trkpt>
      <trkpt lat="50.03812" lon="1.97725">
        <ele>9.5</ele>
        <time>2022-04-17T11:12:54Z</time>
      </trkpt>
      <trkpt lat="50.03812" lon="1.97725">
        <ele>9.5</ele>
        <time>2022-04-17T11:12:55Z</time>
      </trkpt>
      <trkpt lat="50.03812" lon="1.97725">
        <ele>9.5</ele>
        <time>2022-04-17T11:12:56Z</time>
      </trkpt>
      <trkpt lat="50.03812" lon="1.97725">
        <ele>9.5</ele>
        <time>2022-04-17T11:12:57Z</time>
      </trkpt>
      <trkpt lat="50.03812" lon="1.97725">
        <ele>9.5</ele>
        <time>2022-04-17T11:12:58Z</time>
      </trkpt>
      <trkpt lat="50.03812" lon="1.97725">
        <ele>9.5</ele>
        <time>2022-04-17T11:12:59Z</time>
      </trkpt>
      <trkpt lat="50.03812" lon="1.97725">
        <ele>9.5</ele>
        <time>2022-04-17T11:13:00Z</time>
      </trkpt>
      <trkpt lat="50.03812" lon="1.97725">
        <ele>9.5</ele>
        <time>2022-04-17T11:13:01Z</time>
      </trkpt>
      <trkpt lat="50.03812" lon="1.97725">
        <ele>9.5</ele>
        <time>2022-04-17T11:13:02Z</time>
      </trkpt>
      <trkpt lat="50.03812" lon="1.97725">
        <ele>9.5</ele>
        <time>2022-04-17T11:13:03Z</time>
      </trkpt>
      <trkpt lat="50.03812" lon="1.97725">
        <ele>9.5</ele>
        <time>2022-04-17T11:13:04Z</time>
      </trkpt>
      <trkpt lat="50.03812" lon="1.97725">
        <ele>9.5</ele>
        <time>2022-04-17T11:13:05Z</time>
      </trkpt>
      <trkpt lat="50.03812" lon="1.97725">
        <ele>9.5</ele>
        <time>2022-04-17T11:13:06Z</time>
      </trkpt>
      <trkpt lat="50.03812" lon="1.97725">
        <ele>9.5</ele>
        <time>2022-04-17T11:13:07Z</time>
      </trkpt>
      <trkpt lat="50.03812" lon="1.97725">
        <ele>9.5</ele>
        <time>2022-04-17T11:13:08Z</time>
      </trkpt>
      <trkpt lat="50.03812" lon="1.97725">
        <ele>9.5</ele>
        <time>2022-04-17T11:13:09Z</time>
      </trkpt>
      <trkpt lat="50.03812" lon="1.97725">
        <ele>9.5</ele>
        <time>2022-04-17T11:13:10Z</time>
      </trkpt>
      <trkpt lat="50.03812" lon="1.97725">
        <ele>9.5</ele>
        <time>2022-04-17T11:13:11Z</time>
      </trkpt>
      <trkpt lat="50.03812" lon="1.97725">
        <ele>9.5</ele>
        <time>2022-04-17T11:13:12Z</time>
      </trkpt>
      <trkpt lat="50.03812" lon="1.97725">
        <ele>9.5</ele>
        <time>2022-04-17T11:13:13Z</time>
      </trkpt>
      <trkpt lat="50.03812" lon="1.97725">
        <ele>9.5</ele>
        <time>2022-04-17T11:13:14Z</time>
      </trkpt>
      <trkpt lat="50.03812" lon="1.97725">
        <ele>9.5</ele>
        <time>2022-04-17T11:13:15Z</time>
      </trkpt>
      <trkpt lat="50.03812" lon="1.97725">
        <ele>9.5</ele>
        <time>2022-04-17T11:13:16Z</time>
      </trkpt>
      <trkpt lat="50.03812" lon="1.97725">
        <ele>9.5</ele>
        <time>2022-04-17T11:13:17Z</time>
      </trkpt>
      <trkpt lat="50.03812" lon="1.97725">
        <ele>9.5</ele>
        <time>2022-04-17T11:13:18Z</time>
      </trkpt>
      <trkpt lat="50.03812" lon="1.97725">
        <ele>9.5</ele>
        <time>2022-04-17T11:13:19Z</time>
      </trkpt>
      <trkpt lat="50.03812" lon="1.97725">
        <ele>9.5</ele>
        <time>2022-04-17T11:13:20Z</time>
      </trkpt>
      <trkpt lat="50.03812" lon="1.97725">
        <ele>9.5</ele>
        <time>2022-04-17T11:13:21Z</time>
      </trkpt>
      <trkpt lat="50.03812" lon="1.97725">
        <ele>9.5</ele>
        <time>2022-04-17T11:13:22Z</time>
      </trkpt>
      <trkpt lat="50.03812" lon="1.97725">
        <ele>9.5</ele>
        <time>2022-04-17T11:13:23Z</time>
      </trkpt>
      <trkpt lat="50.03812" lon="1.97725">
        <ele>9.5</ele>
        <time>2022-04-17T11:13:24Z</time>
      </trkpt>
      <trkpt lat="50.03812" lon="1.97725">
        <ele>9.5</ele>
        <time>2022-04-17T11:13:25Z</time>
      </trkpt>
      <trkpt lat="50.03812" lon="1.97725">
        <ele>9.5</ele>
        <time>2022-04-17T11:13:26Z</time>
      </trkpt>
      <trkpt lat="50.03812" lon="1.97725">
        <ele>9.5</ele>
        <time>2022-04-17T11:13:27Z</time>
      </trkpt>
      <trkpt lat="50.03812" lon="1.97725">
        <ele>9.5</ele>
        <time>2022-04-17T11:13:28Z</time>
      </trkpt>
      <trkpt lat="50.03812" lon="1.97725">
        <ele>9.5</ele>
        <time>2022-04-17T11:13:29Z</time>
      </trkpt>
      <trkpt lat="50.03812" lon="1.97725">
        <ele>9.5</ele>
        <time>2022-04-17T11:13:30Z</time>
      </trkpt>
      <trkpt lat="50.03812" lon="1.97725">
        <ele>9.5</ele>
        <time>2022-04-17T11:13:31Z</time>
      </trkpt>
      <trkpt lat="50.03812" lon="1.97725">
        <ele>9.5</ele>
        <time>2022-04-17T11:13:32Z</time>
      </trkpt>
      <trkpt lat="50.03812" lon="1.97725">
        <ele>9.5</ele>
        <time>2022-04-17T11:13:33Z</time>
      </trkpt>
      <trkpt lat="50.03812" lon="1.97725">
        <ele>9.5</ele>
        <time>2022-04-17T11:13:34Z</time>
      </trkpt>
      <trkpt lat="50.03812" lon="1.97725">
        <ele>9.5</ele>
        <time>2022-04-17T11:13:35Z</time>
      </trkpt>
      <trkpt lat="50.03812" lon="1.97725">
        <ele>9.5</ele>
        <time>2022-04-17T11:13:36Z</time>
      </trkpt>
      <trkpt lat="50.03812" lon="1.97725">
        <ele>9.5</ele>
        <time>2022-04-17T11:13:37Z</time>
      </trkpt>
      <trkpt lat="50.03812" lon="1.97725">
        <ele>9.5</ele>
        <time>2022-04-17T11:13:38Z</time>
      </trkpt>
      <trkpt lat="50.03812" lon="1.97725">
        <ele>9.5</ele>
        <time>2022-04-17T11:13:39Z</time>
      </trkpt>
      <trkpt lat="50.03812" lon="1.97725">
        <ele>9.5</ele>
        <time>2022-04-17T11:13:40Z</time>
      </trkpt>
      <trkpt lat="50.03812" lon="1.97725">
        <ele>9.5</ele>
        <time>2022-04-17T11:13:41Z</time>
      </trkpt>
      <trkpt lat="50.03812" lon="1.97725">
        <ele>9.5</ele>
        <time>2022-04-17T11:13:42Z</time>
      </trkpt>
      <trkpt lat="50.03812" lon="1.97725">
        <ele>9.5</ele>
        <time>2022-04-17T11:13:43Z</time>
      </trkpt>
      <trkpt lat="50.03812" lon="1.97725">
        <ele>9.5</ele>
        <time>2022-04-17T11:13:44Z</time>
      </trkpt>
      <trkpt lat="50.03812" lon="1.97725">
        <ele>9.5</ele>
        <time>2022-04-17T11:13:45Z</time>
      </trkpt>
      <trkpt lat="50.03812" lon="1.97725">
        <ele>9.5</ele>
        <time>2022-04-17T11:13:46Z</time>
      </trkpt>
      <trkpt lat="50.03812" lon="1.97725">
        <ele>9.5</ele>
        <time>2022-04-17T11:13:47Z</time>
      </trkpt>
      <trkpt lat="50.03812" lon="1.97725">
        <ele>9.5</ele>
        <time>2022-04-17T11:13:48Z</time>
      </trkpt>
      <trkpt lat="50.03812" lon="1.97725">
        <ele>9.5</ele>
        <time>2022-04-17T11:13:49Z</time>
      </trkpt>
      <trkpt lat="50.03812" lon="1.97725">
        <ele>9.5</ele>
        <time>2022-04-17T11:13:50Z</time>
      </trkpt>
      <trkpt lat="50.03812" lon="1.97725">
        <ele>9.5</ele>
        <time>2022-04-17T11:13:51Z</time>
      </trkpt>
      <trkpt lat="50.03812" lon="1.97725">
        <ele>9.5</ele>
        <time>2022-04-17T11:13:52Z</time>
      </trkpt>
      <trkpt lat="50.03812" lon="1.97725">
        <ele>9.5</ele>
        <time>2022-04-17T11:13:53Z</time>
      </trkpt>
      <trkpt lat="50.03812" lon="1.97725">
        <ele>9.5</ele>
        <time>2022-04-17T11:13:54Z</time>
      </trkpt>
      <trkpt lat="50.03812" lon="1.97725">
        <ele>9.5</ele>
        <time>2022-04-17T11:13:55Z</time>
      </trkpt>
      <trkpt lat="50.03812" lon="1.97725">
        <ele>9.5</ele>
        <time>2022-04-17T11:13:56Z</time>
      </trkpt>
      <trkpt lat="50.03812" lon="1.97725">
        <ele>9.5</ele>
        <time>2022-04-17T11:13:57Z</time>
      </trkpt>
      <trkpt lat="50.03812" lon="1.97725">
        <ele>9.5</ele>
        <time>2022-04-17T11:13:58Z</time>
      </trkpt>
      <trkpt lat="50.03812" lon="1.97725">
        <ele>9.5</ele>
        <time>2022-04-17T11:13:59Z</time>
      </trkpt>
      <trkpt lat="50.03812" lon="1.97725">
        <ele>9.5</ele>
        <time>2022-04-17T11:14:00Z</time>
      </trkpt>
      <trkpt lat="50.03812" lon="1.97725">
        <ele>9.5</ele>
        <time>2022-04-17T11:14:01Z</time>
      </trkpt>
      <trkpt lat="50.03812" lon="1.97725">
        <ele>9.5</ele>
        <time>2022-04-17T11:14:02Z</time>
      </trkpt>
      <trkpt lat="50.03812" lon="1.97725">
        <ele>9.5</ele>
        <time>2022-04-17T11:14:03Z</time>
      </trkpt>
      <trkpt lat="50.03812" lon="1.97725">
        <ele>9.5</ele>
        <time>2022-04-17T11:14:04Z</time>
      </trkpt>
      <trkpt lat="50.03812" lon="1.97725">
        <ele>9.5</ele>
        <time>2022-04-17T11:14:05Z</time>
      </trkpt>
      <trkpt lat="50.03812" lon="1.97725">
        <ele>9.5</ele>
        <time>2022-04-17T11:14:06Z</time>
      </trkpt>
      <trkpt lat="50.03812" lon="1.97725">
        <ele>9.5</ele>
        <time>2022-04-17T11:14:07Z</time>
      </trkpt>
      <trkpt lat="50.03812" lon="1.97725">
        <ele>9.5</ele>
        <time>2022-04-17T11:14:08Z</time>
      </trkpt>
      <trkpt lat="50.03812" lon="1.97725">
        <ele>9.5</ele>
        <time>2022-04-17T11:14:09Z</time>
      </trkpt>
      <trkpt lat="50.03812" lon="1.97725">
        <ele>9.5</ele>
        <time>2022-04-17T11:14:10Z</time>
      </trkpt>
      <trkpt lat="50.03812" lon="1.97725">
        <ele>9.5</ele>
        <time>2022-04-17T11:14:11Z</time>
      </trkpt>
      <trkpt lat="50.03812" lon="1.97725">
        <ele>9.5</ele>
        <time>2022-04-17T11:14:12Z</time>
      </trkpt>
      <trkpt lat="50.03812" lon="1.97725">
        <ele>9.5</ele>
        <time>2022-04-17T11:14:13Z</time>
      </trkpt>
      <trkpt lat="50.03812" lon="1.97725">
        <ele>9.5</ele>
        <time>2022-04-17T11:14:14Z</time>
      </trkpt>
      <trkpt lat="50.03812" lon="1.97725">
        <ele>9.5</ele>
        <time>2022-04-17T11:14:15Z</time>
      </trkpt>
      <trkpt lat="50.03812" lon="1.97725">
        <ele>9.5</ele>
        <time>2022-04-17T11:14:16Z</time>
      </trkpt>
      <trkpt lat="50.03812" lon="1.97725">
        <ele>9.5</ele>
        <time>2022-04-17T11:14:17Z</time>
      </trkpt>
      <trkpt lat="50.03812" lon="1.97725">
        <ele>9.5</ele>
        <time>2022-04-17T11:14:18Z</time>
      </trkpt>
      <trkpt lat="50.03812" lon="1.97725">
        <ele>9.5</ele>
        <time>2022-04-17T11:14:19Z</time>
      </trkpt>
      <trkpt lat="50.03812" lon="1.97725">
        <ele>9.5</ele>
        <time>2022-04-17T11:14:20Z</time>
      </trkpt>
      <trkpt lat="50.03812" lon="1.97725">
        <ele>9.5</ele>
        <time>2022-04-17T11:14:21Z</time>
      </trkpt>
      <trkpt lat="50.03812" lon="1.97725">
        <ele>9.5</ele>
        <time>2022-04-17T11:14:22Z</time>
      </trkpt>
      <trkpt lat="50.03812" lon="1.97725">
        <ele>9.5</ele>
        <time>2022-04-17T11:14:23Z</time>
      </trkpt>
      <trkpt lat="50.03812" lon="1.97725">
        <ele>9.5</ele>
        <time>2022-04-17T11:14:24Z</time>
      </trkpt>
      <trkpt lat="50.03812" lon="1.97725">
        <ele>9.5</ele>
        <time>2022-04-17T11:14:25Z</time>
      </trkpt>
      <trkpt lat="50.03812" lon="1.97725">
        <ele>9.5</ele>
        <time>2022-04-17T11:14:26Z</time>
      </trkpt>
      <trkpt lat="50.03812" lon="1.97725">
        <ele>9.5</ele>
        <time>2022-04-17T11:14:27Z</time>
      </trkpt>
      <trkpt lat="50.03812" lon="1.97725">
        <ele>9.5</ele>
        <time>2022-04-17T11:14:28Z</time>
      </trkpt>
      <trkpt lat="50.03812" lon="1.97725">
        <ele>9.5</ele>
        <time>2022-04-17T11:14:29Z</time>
      </trkpt>
      <trkpt lat="50.03812" lon="1.97725">
        <ele>9.5</ele>
        <time>2022-04-17T11:14:30Z</time>
      </trkpt>
      <trkpt lat="50.03812" lon="1.97725">
        <ele>9.5</ele>
        <time>2022-04-17T11:14:31Z</time>
      </trkpt>
      <trkpt lat="50.03812" lon="1.97725">
        <ele>9.5</ele>
        <time>2022-04-17T11:14:32Z</time>
      </trkpt>
      <trkpt lat="50.03812" lon="1.97725">
        <ele>9.5</ele>
        <time>2022-04-17T11:14:33Z</time>
      </trkpt>
      <trkpt lat="50.03812" lon="1.97725">
        <ele>9.5</ele>
        <time>2022-04-17T11:14:34Z</time>
      </trkpt>
      <trkpt lat="50.03812" lon="1.97725">
        <ele>9.5</ele>
        <time>2022-04-17T11:14:35Z</time>
      </trkpt>
      <trkpt lat="50.03812" lon="1.97725">
        <ele>9.5</ele>
        <time>2022-04-17T11:14:36Z</time>
      </trkpt>
      <trkpt lat="50.03812" lon="1.97725">
        <ele>9.5</ele>
        <time>2022-04-17T11:14:37Z</time>
      </trkpt>
      <trkpt lat="50.03812" lon="1.97725">
        <ele>9.5</ele>
        <time>2022-04-17T11:14:38Z</time>
      </trkpt>
      <trkpt lat="50.03812" lon="1.97725">
        <ele>9.5</ele>
        <time>2022-04-17T11:14:39Z</time>
      </trkpt>
      <trkpt lat="50.03812" lon="1.97725">
        <ele>9.5</ele>
        <time>2022-04-17T11:14:40Z</time>
      </trkpt>
      <trkpt lat="50.03812" lon="1.97725">
        <ele>9.5</ele>
        <time>2022-04-17T11:14:41Z</time>
      </trkpt>
      <trkpt lat="50.03812" lon="1.97725">
        <ele>9.5</ele>
        <time>2022-04-17T11:14:42Z</time>
      </trkpt>
      <trkpt lat="50.03812" lon="1.97725">
        <ele>9.5</ele>
        <time>2022-04-17T11:14:43Z</time>
      </trkpt>
      <trkpt lat="50.03812" lon="1.97725">
        <ele>9.5</ele>
        <time>2022-04-17T11:14:44Z</time>
      </trkpt>
      <trkpt lat="50.03812" lon="1.97725">
        <ele>9.5</ele>
        <time>2022-04-17T11:14:45Z</time>
      </trkpt>
      <trkpt lat="50.03812" lon="1.97725">
        <ele>9.5</ele>
        <time>2022-04-17T11:14:46Z</time>
      </trkpt>
      <trkpt lat="50.03812" lon="1.97725">
        <ele>9.5</ele>
        <time>2022-04-17T11:14:47Z</time>
      </trkpt>
      <trkpt lat="50.03812" lon="1.97725">
        <ele>9.5</ele>
        <time>2022-04-17T11:14:48Z</time>
      </trkpt>
      <trkpt lat="50.03812" lon="1.97725">
        <ele>9.5</ele>
        <time>2022-04-17T11:14:49Z</time>
      </trkpt>
      <trkpt lat="50.03812" lon="1.97725">
        <ele>9.5</ele>
        <time>2022-04-17T11:14:50Z</time>
      </trkpt>
      <trkpt lat="50.03812" lon="1.97725">
        <ele>9.5</ele>
        <time>2022-04-17T11:14:51Z</time>
      </trkpt>
      <trkpt lat="50.03812" lon="1.97725">
        <ele>9.5</ele>
        <time>2022-04-17T11:14:52Z</time>
      </trkpt>
      <trkpt lat="50.03812" lon="1.97725">
        <ele>9.5</ele>
        <time>2022-04-17T11:14:53Z</time>
      </trkpt>
      <trkpt lat="50.03812" lon="1.97725">
        <ele>9.5</ele>
        <time>2022-04-17T11:14:54Z</time>
      </trkpt>
      <trkpt lat="50.03812" lon="1.97725">
        <ele>9.5</ele>
        <time>2022-04-17T11:14:55Z</time>
      </trkpt>
      <trkpt lat="50.03812" lon="1.97725">
        <ele>9.5</ele>
        <time>2022-04-17T11:14:56Z</time>
      </trkpt>
      <trkpt lat="50.03812" lon="1.97725">
        <ele>9.5</ele>
        <time>2022-04-17T11:14:57Z</time>
      </trkpt>
      <trkpt lat="50.03812" lon="1.97725">
        <ele>9.5</ele>
        <time>2022-04-17T11:14:58Z</time>
      </trkpt>
      <trkpt lat="50.03812" lon="1.97725">
        <ele>9.5</ele>
        <time>2022-04-17T11:14:59Z</time>
      </trkpt>
      <trkpt lat="50.03812" lon="1.97725">
        <ele>9.5</ele>
        <time>2022-04-17T11:15:00Z</time>
      </trkpt>
      <trkpt lat="50.03812" lon="1.97725">
        <ele>9.5</ele>
        <time>2022-04-17T11:15:01Z</time>
      </trkpt>
      <trkpt lat="50.03812" lon="1.97725">
        <ele>9.5</ele>
        <time>2022-04-17T11:15:02Z</time>
      </trkpt>
      <trkpt lat="50.03812" lon="1.97725">
        <ele>9.5</ele>
        <time>2022-04-17T11:15:03Z</time>
      </trkpt>
      <trkpt lat="50.03812" lon="1.97725">
        <ele>9.5</ele>
        <time>2022-04-17T11:15:04Z</time>
      </trkpt>
      <trkpt lat="50.03812" lon="1.97725">
        <ele>9.5</ele>
        <time>2022-04-17T11:15:05Z</time>
      </trkpt>
      <trkpt lat="50.03812" lon="1.97725">
        <ele>9.5</ele>
        <time>2022-04-17T11:15:06Z</time>
      </trkpt>
      <trkpt lat="50.03812" lon="1.97725">
        <ele>9.5</ele>
        <time>2022-04-17T11:15:07Z</time>
      </trkpt>
      <trkpt lat="50.03812" lon="1.97725">
        <ele>9.5</ele>
        <time>2022-04-17T11:15:08Z</time>
      </trkpt>
      <trkpt lat="50.03812" lon="1.97725">
        <ele>9.5</ele>
        <time>2022-04-17T11:15:09Z</time>
      </trkpt>
      <trkpt lat="50.03812" lon="1.97725">
        <ele>9.5</ele>
        <time>2022-04-17T11:15:10Z</time>
      </trkpt>
      <trkpt lat="50.03812" lon="1.97725">
        <ele>9.5</ele>
        <time>2022-04-17T11:15:11Z</time>
      </trkpt>
      <trkpt lat="50.03812" lon="1.97725">
        <ele>9.5</ele>
        <time>2022-04-17T11:15:12Z</time>
      </trkpt>
      <trkpt lat="50.03812" lon="1.97725">
        <ele>9.5</ele>
        <time>2022-04-17T11:15:13Z</time>
      </trkpt>
      <trkpt lat="50.03812" lon="1.97725">
        <ele>9.5</ele>
        <time>2022-04-17T11:15:14Z</time>
      </trkpt>
      <trkpt lat="50.03812" lon="1.97725">
        <ele>9.5</ele>
        <time>2022-04-17T11:15:15Z</time>
      </trkpt>
      <trkpt lat="50.03812" lon="1.97725">
        <ele>9.5</ele>
        <time>2022-04-17T11:15:16Z</time>
      </trkpt>
      <trkpt lat="50.03812" lon="1.97725">
        <ele>9.5</ele>
        <time>2022-04-17T11:15:17Z</time>
      </trkpt>
      <trkpt lat="50.03812" lon="1.97725">
        <ele>9.5</ele>
        <time>2022-04-17T11:15:18Z</time>
      </trkpt>
      <trkpt lat="50.03812" lon="1.97725">
        <ele>9.5</ele>
        <time>2022-04-17T11:15:19Z</time>
      </trkpt>
      <trkpt lat="50.03812" lon="1.97725">
        <ele>9.5</ele>
        <time>2022-04-17T11:15:20Z</time>
      </trkpt>
      <trkpt lat="50.03812" lon="1.97725">
        <ele>9.5</ele>
        <time>2022-04-17T11:15:21Z</time>
      </trkpt>
      <trkpt lat="50.03812" lon="1.97725">
        <ele>9.5</ele>
        <time>2022-04-17T11:15:22Z</time>
      </trkpt>
      <trkpt lat="50.03812" lon="1.97725">
        <ele>9.5</ele>
        <time>2022-04-17T11:15:23Z</time>
      </trkpt>
      <trkpt lat="50.03812" lon="1.97725">
        <ele>9.5</ele>
        <time>2022-04-17T11:15:24Z</time>
      </trkpt>
      <trkpt lat="50.03812" lon="1.97725">
        <ele>9.5</ele>
        <time>2022-04-17T11:15:25Z</time>
      </trkpt>
      <trkpt lat="50.03812" lon="1.97725">
        <ele>9.5</ele>
        <time>2022-04-17T11:15:26Z</time>
      </trkpt>
      <trkpt lat="50.03812" lon="1.97725">
        <ele>9.5</ele>
        <time>2022-04-17T11:15:27Z</time>
      </trkpt>
      <trkpt lat="50.03812" lon="1.97725">
        <ele>9.5</ele>
        <time>2022-04-17T11:15:28Z</time>
      </trkpt>
      <trkpt lat="50.03812" lon="1.97725">
        <ele>9.5</ele>
        <time>2022-04-17T11:15:29Z</time>
      </trkpt>
      <trkpt lat="50.03812" lon="1.97725">
        <ele>9.5</ele>
        <time>2022-04-17T11:15:30Z</time>
      </trkpt>
      <trkpt lat="50.03812" lon="1.97725">
        <ele>9.5</ele>
        <time>2022-04-17T11:15:31Z</time>
      </trkpt>
      <trkpt lat="50.03812" lon="1.97725">
        <ele>9.5</ele>
        <time>2022-04-17T11:15:32Z</time>
      </trkpt>
      <trkpt lat="50.03812" lon="1.97725">
        <ele>9.5</ele>
        <time>2022-04-17T11:15:33Z</time>
      </trkpt>
      <trkpt lat="50.03812" lon="1.97725">
        <ele>9.5</ele>
        <time>2022-04-17T11:15:34Z</time>
      </trkpt>
      <trkpt lat="50.03812" lon="1.97725">
        <ele>9.5</ele>
        <time>2022-04-17T11:15:35Z</time>
      </trkpt>
      <trkpt lat="50.03812" lon="1.97725">
        <ele>9.5</ele>
        <time>2022-04-17T11:15:36Z</time>
      </trkpt>
      <trkpt lat="50.03812" lon="1.97725">
        <ele>9.5</ele>
        <time>2022-04-17T11:15:37Z</time>
      </trkpt>
      <trkpt lat="50.03812" lon="1.97725">
        <ele>9.5</ele>
        <time>2022-04-17T11:15:38Z</time>
      </trkpt>
      <trkpt lat="50.03812" lon="1.97725">
        <ele>9.5</ele>
        <time>2022-04-17T11:15:39Z</time>
      </trkpt>
      <trkpt lat="50.03812" lon="1.97725">
        <ele>9.5</ele>
        <time>2022-04-17T11:15:40Z</time>
      </trkpt>
      <trkpt lat="50.03812" lon="1.97725">
        <ele>9.5</ele>
        <time>2022-04-17T11:15:41Z</time>
      </trkpt>
      <trkpt lat="50.03812" lon="1.97725">
        <ele>9.5</ele>
        <time>2022-04-17T11:15:42Z</time>
      </trkpt>
      <trkpt lat="50.03812" lon="1.97725">
        <ele>9.5</ele>
        <time>2022-04-17T11:15:43Z</time>
      </trkpt>
      <trkpt lat="50.03812" lon="1.97725">
        <ele>9.5</ele>
        <time>2022-04-17T11:15:44Z</time>
      </trkpt>
      <trkpt lat="50.03812" lon="1.97725">
        <ele>9.5</ele>
        <time>2022-04-17T11:15:45Z</time>
      </trkpt>
      <trkpt lat="50.03812" lon="1.97725">
        <ele>9.5</ele>
        <time>2022-04-17T11:15:46Z</time>
      </trkpt>
      <trkpt lat="50.03812" lon="1.97725">
        <ele>9.5</ele>
        <time>2022-04-17T11:15:47Z</time>
      </trkpt>
      <trkpt lat="50.03812" lon="1.97725">
        <ele>9.5</ele>
        <time>2022-04-17T11:15:48Z</time>
      </trkpt>
      <trkpt lat="50.03812" lon="1.97725">
        <ele>9.5</ele>
        <time>2022-04-17T11:15:49Z</time>
      </trkpt>
      <trkpt lat="50.03812" lon="1.97725">
        <ele>9.5</ele>
        <time>2022-04-17T11:15:50Z</time>
      </trkpt>
      <trkpt lat="50.03812" lon="1.97725">
        <ele>9.5</ele>
        <time>2022-04-17T11:15:51Z</time>
      </trkpt>
      <trkpt lat="50.03812" lon="1.97725">
        <ele>9.5</ele>
        <time>2022-04-17T11:15:52Z</time>
      </trkpt>
      <trkpt lat="50.03812" lon="1.97725">
        <ele>9.5</ele>
        <time>2022-04-17T11:15:53Z</time>
      </trkpt>
      <trkpt lat="50.03812" lon="1.97725">
        <ele>9.5</ele>
        <time>2022-04-17T11:15:54Z</time>
      </trkpt>
      <trkpt lat="50.03812" lon="1.97725">
        <ele>9.5</ele>
        <time>2022-04-17T11:15:55Z</time>
      </trkpt>
      <trkpt lat="50.03812" lon="1.97725">
        <ele>9.5</ele>
        <time>2022-04-17T11:15:56Z</time>
      </trkpt>
      <trkpt lat="50.03812" lon="1.97725">
        <ele>9.5</ele>
        <time>2022-04-17T11:15:57Z</time>
      </trkpt>
      <trkpt lat="50.03812" lon="1.97725">
        <ele>9.5</ele>
        <time>2022-04-17T11:15:58Z</time>
      </trkpt>
      <trkpt lat="50.03812" lon="1.97725">
        <ele>9.5</ele>
        <time>2022-04-17T11:15:59Z</time>
      </trkpt>
      <trkpt lat="50.03812" lon="1.97725">
        <ele>9.5</ele>
        <time>2022-04-17T11:16:00Z</time>
      </trkpt>
      <trkpt lat="50.03812" lon="1.97725">
        <ele>9.5</ele>
        <time>2022-04-17T11:16:01Z</time>
      </trkpt>
      <trkpt lat="50.03812" lon="1.97725">
        <ele>9.5</ele>
        <time>2022-04-17T11:16:02Z</time>
      </trkpt>
      <trkpt lat="50.03812" lon="1.97725">
        <ele>9.5</ele>
        <time>2022-04-17T11:16:03Z</time>
      </trkpt>
      <trkpt lat="50.03812" lon="1.97725">
        <ele>9.5</ele>
        <time>2022-04-17T11:16:04Z</time>
      </trkpt>
      <trkpt lat="50.03812" lon="1.97725">
        <ele>9.5</ele>
        <time>2022-04-17T11:16:05Z</time>
      </trkpt>
      <trkpt lat="50.03812" lon="1.97725">
        <ele>9.5</ele>
        <time>2022-04-17T11:16:06Z</time>
      </trkpt>
      <trkpt lat="50.03812" lon="1.97725">
        <ele>9.5</ele>
        <time>2022-04-17T11:16:07Z</time>
      </trkpt>
      <trkpt lat="50.03812" lon="1.97725">
        <ele>9.5</ele>
        <time>2022-04-17T11:16:08Z</time>
      </trkpt>
      <trkpt lat="50.03812" lon="1.97725">
        <ele>9.5</ele>
        <time>2022-04-17T11:16:09Z</time>
      </trkpt>
      <trkpt lat="50.03812" lon="1.97725">
        <ele>9.5</ele>
        <time>2022-04-17T11:16:10Z</time>
      </trkpt>
      <trkpt lat="50.03812" lon="1.97725">
        <ele>9.5</ele>
        <time>2022-04-17T11:16:11Z</time>
      </trkpt>
      <trkpt lat="50.03812" lon="1.97725">
        <ele>9.5</ele>
        <time>2022-04-17T11:16:12Z</time>
      </trkpt>
      <trkpt lat="50.03812" lon="1.97725">
        <ele>9.5</ele>
        <time>2022-04-17T11:16:13Z</time>
      </trkpt>
      <trkpt lat="50.03812" lon="1.97725">
        <ele>9.5</ele>
        <time>2022-04-17T11:16:14Z</time>
      </trkpt>
      <trkpt lat="50.03812" lon="1.97725">
        <ele>9.5</ele>
        <time>2022-04-17T11:16:15Z</time>
      </trkpt>
      <trkpt lat="50.03812" lon="1.97725">
        <ele>9.5</ele>
        <time>2022-04-17T11:16:16Z</time>
      </trkpt>
      <trkpt lat="50.03812" lon="1.97725">
        <ele>9.5</ele>
        <time>2022-04-17T11:16:17Z</time>
      </trkpt>
      <trkpt lat="50.03812" lon="1.97725">
        <ele>9.5</ele>
        <time>2022-04-17T11:16:18Z</time>
      </trkpt>
      <trkpt lat="50.03812" lon="1.97725">
        <ele>9.5</ele>
        <time>2022-04-17T11:16:19Z</time>
      </trkpt>
      <trkpt lat="50.03812" lon="1.97725">
        <ele>9.5</ele>
        <time>2022-04-17T11:16:20Z</time>
      </trkpt>
      <trkpt lat="50.03812" lon="1.97725">
        <ele>9.5</ele>
        <time>2022-04-17T11:16:21Z</time>
      </trkpt>
      <trkpt lat="50.03812" lon="1.97725">
        <ele>9.5</ele>
        <time>2022-04-17T11:16:22Z</time>
      </trkpt>
      <trkpt lat="50.03812" lon="1.97725">
        <ele>9.5</ele>
        <time>2022-04-17T11:16:23Z</time>
      </trkpt>
      <trkpt lat="50.03812" lon="1.97725">
        <ele>9.5</ele>
        <time>2022-04-17T11:16:24Z</time>
      </trkpt>
      <trkpt lat="50.03812" lon="1.97725">
        <ele>9.5</ele>
        <time>2022-04-17T11:16:25Z</time>
      </trkpt>
      <trkpt lat="50.03812" lon="1.97725">
        <ele>9.5</ele>
        <time>2022-04-17T11:16:26Z</time>
      </trkpt>
      <trkpt lat="50.03812" lon="1.97725">
        <ele>9.5</ele>
        <time>2022-04-17T11:16:27Z</time>
      </trkpt>
      <trkpt lat="50.03812" lon="1.97725">
        <ele>9.5</ele>
        <time>2022-04-17T11:16:28Z</time>
      </trkpt>
      <trkpt lat="50.03812" lon="1.97725">
        <ele>9.5</ele>
        <time>2022-04-17T11:16:29Z</time>
      </trkpt>
      <trkpt lat="50.03812" lon="1.97725">
        <ele>9.5</ele>
        <time>2022-04-17T11:16:30Z</time>
      </trkpt>
      <trkpt lat="50.03812" lon="1.97725">
        <ele>9.5</ele>
        <time>2022-04-17T11:16:31Z</time>
      </trkpt>
      <trkpt lat="50.03812" lon="1.97725">
        <ele>9.5</ele>
        <time>2022-04-17T11:16:32Z</time>
      </trkpt>
      <trkpt lat="50.03812" lon="1.97725">
        <ele>9.5</ele>
        <time>2022-04-17T11:16:33Z</time>
      </trkpt>
      <trkpt lat="50.03812" lon="1.97725">
        <ele>9.5</ele>
        <time>2022-04-17T11:16:34Z</time>
      </trkpt>
      <trkpt lat="50.03812" lon="1.97725">
        <ele>9.5</ele>
        <time>2022-04-17T11:16:35Z</time>
      </trkpt>
      <trkpt lat="50.03812" lon="1.97725">
        <ele>9.5</ele>
        <time>2022-04-17T11:16:36Z</time>
      </trkpt>
      <trkpt lat="50.03812" lon="1.97725">
        <ele>9.5</ele>
        <time>2022-04-17T11:16:37Z</time>
      </trkpt>
      <trkpt lat="50.03812" lon="1.97725">
        <ele>9.5</ele>
        <time>2022-04-17T11:16:38Z</time>
      </trkpt>
      <trkpt lat="50.03812" lon="1.97725">
        <ele>9.5</ele>
        <time>2022-04-17T11:16:39Z</time>
      </trkpt>
      <trkpt lat="50.03812" lon="1.97725">
        <ele>9.5</ele>
        <time>2022-04-17T11:16:40Z</time>
      </trkpt>
      <trkpt lat="50.03812" lon="1.97725">
        <ele>9.5</ele>
        <time>2022-04-17T11:16:41Z</time>
      </trkpt>
      <trkpt lat="50.03812" lon="1.97725">
        <ele>9.5</ele>
        <time>2022-04-17T11:16:42Z</time>
      </trkpt>
      <trkpt lat="50.03812" lon="1.97725">
        <ele>9.5</ele>
        <time>2022-04-17T11:16:43Z</time>
      </trkpt>
      <trkpt lat="50.03812" lon="1.97725">
        <ele>9.5</ele>
        <time>2022-04-17T11:16:44Z</time>
      </trkpt>
      <trkpt lat="50.03812" lon="1.97725">
        <ele>9.5</ele>
        <time>2022-04-17T11:16:45Z</time>
      </trkpt>
      <trkpt lat="50.03812" lon="1.97725">
        <ele>9.5</ele>
        <time>2022-04-17T11:16:46Z</time>
      </trkpt>
      <trkpt lat="50.03812" lon="1.97725">
        <ele>9.5</ele>
        <time>2022-04-17T11:16:47Z</time>
      </trkpt>
      <trkpt lat="50.03812" lon="1.97725">
        <ele>9.5</ele>
        <time>2022-04-17T11:16:48Z</time>
      </trkpt>
      <trkpt lat="50.03812" lon="1.97725">
        <ele>9.5</ele>
        <time>2022-04-17T11:16:49Z</time>
      </trkpt>
      <trkpt lat="50.03812" lon="1.97725">
        <ele>9.5</ele>
        <time>2022-04-17T11:16:50Z</time>
      </trkpt>
      <trkpt lat="50.03812" lon="1.97725">
        <ele>9.5</ele>
        <time>2022-04-17T11:16:51Z</time>
      </trkpt>
      <trkpt lat="50.03812" lon="1.97725">
        <ele>9.5</ele>
        <time>2022-04-17T11:16:52Z</time>
      </trkpt>
      <trkpt lat="50.03812" lon="1.97725">
        <ele>9.5</ele>
        <time>2022-04-17T11:16:53Z</time>
      </trkpt>
      <trkpt lat="50.03812" lon="1.97725">
        <ele>9.5</ele>
        <time>2022-04-17T11:16:54Z</time>
      </trkpt>
      <trkpt lat="50.03812" lon="1.97725">
        <ele>9.5</ele>
        <time>2022-04-17T11:16:56Z</time>
      </trkpt>
      <trkpt lat="50.03812" lon="1.97725">
        <ele>9.5</ele>
        <time>2022-04-17T11:16:57Z</time>
      </trkpt>
      <trkpt lat="50.03812" lon="1.97725">
        <ele>9.5</ele>
        <time>2022-04-17T11:16:58Z</time>
      </trkpt>
      <trkpt lat="50.03812" lon="1.97725">
        <ele>9.5</ele>
        <time>2022-04-17T11:16:59Z</time>
      </trkpt>
      <trkpt lat="50.03812" lon="1.97725">
        <ele>9.5</ele>
        <time>2022-04-17T11:17:00Z</time>
      </trkpt>
      <trkpt lat="50.03812" lon="1.97725">
        <ele>9.5</ele>
        <time>2022-04-17T11:17:01Z</time>
      </trkpt>
      <trkpt lat="50.03812" lon="1.97725">
        <ele>9.5</ele>
        <time>2022-04-17T11:17:02Z</time>
      </trkpt>
      <trkpt lat="50.03812" lon="1.97725">
        <ele>9.5</ele>
        <time>2022-04-17T11:17:03Z</time>
      </trkpt>
      <trkpt lat="50.03812" lon="1.97725">
        <ele>9.5</ele>
        <time>2022-04-17T11:17:04Z</time>
      </trkpt>
      <trkpt lat="50.03812" lon="1.97725">
        <ele>9.5</ele>
        <time>2022-04-17T11:17:05Z</time>
      </trkpt>
      <trkpt lat="50.03812" lon="1.97725">
        <ele>9.5</ele>
        <time>2022-04-17T11:17:06Z</time>
      </trkpt>
      <trkpt lat="50.03812" lon="1.97725">
        <ele>9.5</ele>
        <time>2022-04-17T11:17:07Z</time>
      </trkpt>
      <trkpt lat="50.03812" lon="1.97725">
        <ele>9.5</ele>
        <time>2022-04-17T11:17:08Z</time>
      </trkpt>
      <trkpt lat="50.03812" lon="1.97725">
        <ele>9.5</ele>
        <time>2022-04-17T11:17:09Z</time>
      </trkpt>
      <trkpt lat="50.03812" lon="1.97725">
        <ele>9.5</ele>
        <time>2022-04-17T11:17:10Z</time>
      </trkpt>
      <trkpt lat="50.03812" lon="1.97725">
        <ele>9.5</ele>
        <time>2022-04-17T11:17:11Z</time>
      </trkpt>
      <trkpt lat="50.03812" lon="1.97725">
        <ele>9.5</ele>
        <time>2022-04-17T11:17:12Z</time>
      </trkpt>
      <trkpt lat="50.03812" lon="1.97725">
        <ele>9.5</ele>
        <time>2022-04-17T11:17:13Z</time>
      </trkpt>
      <trkpt lat="50.03812" lon="1.97725">
        <ele>9.5</ele>
        <time>2022-04-17T11:17:14Z</time>
      </trkpt>
      <trkpt lat="50.03812" lon="1.97725">
        <ele>9.5</ele>
        <time>2022-04-17T11:17:15Z</time>
      </trkpt>
      <trkpt lat="50.03812" lon="1.97725">
        <ele>9.5</ele>
        <time>2022-04-17T11:17:16Z</time>
      </trkpt>
      <trkpt lat="50.03812" lon="1.97725">
        <ele>9.5</ele>
        <time>2022-04-17T11:17:17Z</time>
      </trkpt>
      <trkpt lat="50.03812" lon="1.97725">
        <ele>9.5</ele>
        <time>2022-04-17T11:17:18Z</time>
      </trkpt>
      <trkpt lat="50.03812" lon="1.97725">
        <ele>9.5</ele>
        <time>2022-04-17T11:17:19Z</time>
      </trkpt>
      <trkpt lat="50.03812" lon="1.97725">
        <ele>9.5</ele>
        <time>2022-04-17T11:17:20Z</time>
      </trkpt>
      <trkpt lat="50.03812" lon="1.97725">
        <ele>9.5</ele>
        <time>2022-04-17T11:17:21Z</time>
      </trkpt>
      <trkpt lat="50.03812" lon="1.97725">
        <ele>9.5</ele>
        <time>2022-04-17T11:17:22Z</time>
      </trkpt>
      <trkpt lat="50.03812" lon="1.97725">
        <ele>9.5</ele>
        <time>2022-04-17T11:17:23Z</time>
      </trkpt>
      <trkpt lat="50.03813" lon="1.97725">
        <ele>9.5</ele>
        <time>2022-04-17T11:17:24Z</time>
      </trkpt>
      <trkpt lat="50.03814" lon="1.97725">
        <ele>9.5</ele>
        <time>2022-04-17T11:17:25Z</time>
      </trkpt>
      <trkpt lat="50.03815" lon="1.97725">
        <ele>9.5</ele>
        <time>2022-04-17T11:17:26Z</time>
      </trkpt>
      <trkpt lat="50.03815" lon="1.97725">
        <ele>9.5</ele>
        <time>2022-04-17T11:17:27Z</time>
      </trkpt>
      <trkpt lat="50.03815" lon="1.97724">
        <ele>9.5</ele>
        <time>2022-04-17T11:17:28Z</time>
      </trkpt>
      <trkpt lat="50.03815" lon="1.97725">
        <ele>9.5</ele>
        <time>2022-04-17T11:17:29Z</time>
      </trkpt>
      <trkpt lat="50.03815" lon="1.97725">
        <ele>9.5</ele>
        <time>2022-04-17T11:17:31Z</time>
      </trkpt>
      <trkpt lat="50.03815" lon="1.97725">
        <ele>9.5</ele>
        <time>2022-04-17T11:17:32Z</time>
      </trkpt>
      <trkpt lat="50.03815" lon="1.97725">
        <ele>9.5</ele>
        <time>2022-04-17T11:17:33Z</time>
      </trkpt>
      <trkpt lat="50.03815" lon="1.97725">
        <ele>9.5</ele>
        <time>2022-04-17T11:17:34Z</time>
      </trkpt>
      <trkpt lat="50.03815" lon="1.97725">
        <ele>9.5</ele>
        <time>2022-04-17T11:17:35Z</time>
      </trkpt>
      <trkpt lat="50.03816" lon="1.97724">
        <ele>9.5</ele>
        <time>2022-04-17T11:17:36Z</time>
      </trkpt>
      <trkpt lat="50.03816" lon="1.97724">
        <ele>9.5</ele>
        <time>2022-04-17T11:17:37Z</time>
      </trkpt>
      <trkpt lat="50.03816" lon="1.97724">
        <ele>9.5</ele>
        <time>2022-04-17T11:17:38Z</time>
      </trkpt>
      <trkpt lat="50.03816" lon="1.97724">
        <ele>9.5</ele>
        <time>2022-04-17T11:17:39Z</time>
      </trkpt>
      <trkpt lat="50.03816" lon="1.97724">
        <ele>9.5</ele>
        <time>2022-04-17T11:17:40Z</time>
      </trkpt>
      <trkpt lat="50.03816" lon="1.97724">
        <ele>9.5</ele>
        <time>2022-04-17T11:17:41Z</time>
      </trkpt>
      <trkpt lat="50.03816" lon="1.97724">
        <ele>9.5</ele>
        <time>2022-04-17T11:17:42Z</time>
      </trkpt>
      <trkpt lat="50.03816" lon="1.97724">
        <ele>9.5</ele>
        <time>2022-04-17T11:17:43Z</time>
      </trkpt>
      <trkpt lat="50.03816" lon="1.97724">
        <ele>9.5</ele>
        <time>2022-04-17T11:17:44Z</time>
      </trkpt>
      <trkpt lat="50.03816" lon="1.97724">
        <ele>9.5</ele>
        <time>2022-04-17T11:17:46Z</time>
      </trkpt>
      <trkpt lat="50.03816" lon="1.97724">
        <ele>9.5</ele>
        <time>2022-04-17T11:17:47Z</time>
      </trkpt>
      <trkpt lat="50.03816" lon="1.97724">
        <ele>9.5</ele>
        <time>2022-04-17T11:17:48Z</time>
      </trkpt>
      <trkpt lat="50.03816" lon="1.97724">
        <ele>9.5</ele>
        <time>2022-04-17T11:17:49Z</time>
      </trkpt>
      <trkpt lat="50.03816" lon="1.97724">
        <ele>9.5</ele>
        <time>2022-04-17T11:17:50Z</time>
      </trkpt>
      <trkpt lat="50.03816" lon="1.97724">
        <ele>9.5</ele>
        <time>2022-04-17T11:17:51Z</time>
      </trkpt>
      <trkpt lat="50.03816" lon="1.97724">
        <ele>9.5</ele>
        <time>2022-04-17T11:17:52Z</time>
      </trkpt>
      <trkpt lat="50.03816" lon="1.97724">
        <ele>9.5</ele>
        <time>2022-04-17T11:17:53Z</time>
      </trkpt>
      <trkpt lat="50.03816" lon="1.97724">
        <ele>9.5</ele>
        <time>2022-04-17T11:17:54Z</time>
      </trkpt>
      <trkpt lat="50.03816" lon="1.97724">
        <ele>9.5</ele>
        <time>2022-04-17T11:17:55Z</time>
      </trkpt>
      <trkpt lat="50.03816" lon="1.97724">
        <ele>9.5</ele>
        <time>2022-04-17T11:17:56Z</time>
      </trkpt>
      <trkpt lat="50.03816" lon="1.97724">
        <ele>9.5</ele>
        <time>2022-04-17T11:17:57Z</time>
      </trkpt>
      <trkpt lat="50.03816" lon="1.97724">
        <ele>9.5</ele>
        <time>2022-04-17T11:17:58Z</time>
      </trkpt>
      <trkpt lat="50.03816" lon="1.97724">
        <ele>9.5</ele>
        <time>2022-04-17T11:17:59Z</time>
      </trkpt>
      <trkpt lat="50.03816" lon="1.97724">
        <ele>9.5</ele>
        <time>2022-04-17T11:18:00Z</time>
      </trkpt>
      <trkpt lat="50.03816" lon="1.97724">
        <ele>9.5</ele>
        <time>2022-04-17T11:18:01Z</time>
      </trkpt>
      <trkpt lat="50.03816" lon="1.97724">
        <ele>9.5</ele>
        <time>2022-04-17T11:18:02Z</time>
      </trkpt>
      <trkpt lat="50.03816" lon="1.97724">
        <ele>9.5</ele>
        <time>2022-04-17T11:18:03Z</time>
      </trkpt>
      <trkpt lat="50.03816" lon="1.97724">
        <ele>9.5</ele>
        <time>2022-04-17T11:18:04Z</time>
      </trkpt>
      <trkpt lat="50.03816" lon="1.97724">
        <ele>9.5</ele>
        <time>2022-04-17T11:18:05Z</time>
      </trkpt>
      <trkpt lat="50.03816" lon="1.97724">
        <ele>9.5</ele>
        <time>2022-04-17T11:18:06Z</time>
      </trkpt>
      <trkpt lat="50.03816" lon="1.97724">
        <ele>9.5</ele>
        <time>2022-04-17T11:18:07Z</time>
      </trkpt>
      <trkpt lat="50.03816" lon="1.97724">
        <ele>9.5</ele>
        <time>2022-04-17T11:18:08Z</time>
      </trkpt>
      <trkpt lat="50.03816" lon="1.97724">
        <ele>9.5</ele>
        <time>2022-04-17T11:18:09Z</time>
      </trkpt>
      <trkpt lat="50.03816" lon="1.97724">
        <ele>9.5</ele>
        <time>2022-04-17T11:18:10Z</time>
      </trkpt>
      <trkpt lat="50.03816" lon="1.97724">
        <ele>9.5</ele>
        <time>2022-04-17T11:18:11Z</time>
      </trkpt>
      <trkpt lat="50.03816" lon="1.97724">
        <ele>9.5</ele>
        <time>2022-04-17T11:18:12Z</time>
      </trkpt>
      <trkpt lat="50.03816" lon="1.97724">
        <ele>9.5</ele>
        <time>2022-04-17T11:18:13Z</time>
      </trkpt>
      <trkpt lat="50.03816" lon="1.97724">
        <ele>9.5</ele>
        <time>2022-04-17T11:18:14Z</time>
      </trkpt>
      <trkpt lat="50.03816" lon="1.97724">
        <ele>9.5</ele>
        <time>2022-04-17T11:18:15Z</time>
      </trkpt>
      <trkpt lat="50.03816" lon="1.97724">
        <ele>9.5</ele>
        <time>2022-04-17T11:18:16Z</time>
      </trkpt>
      <trkpt lat="50.03816" lon="1.97724">
        <ele>9.5</ele>
        <time>2022-04-17T11:18:17Z</time>
      </trkpt>
      <trkpt lat="50.03816" lon="1.97724">
        <ele>9.5</ele>
        <time>2022-04-17T11:18:18Z</time>
      </trkpt>
      <trkpt lat="50.03816" lon="1.97724">
        <ele>9.5</ele>
        <time>2022-04-17T11:18:19Z</time>
      </trkpt>
      <trkpt lat="50.03816" lon="1.97724">
        <ele>9.5</ele>
        <time>2022-04-17T11:18:20Z</time>
      </trkpt>
      <trkpt lat="50.03816" lon="1.97724">
        <ele>9.5</ele>
        <time>2022-04-17T11:18:21Z</time>
      </trkpt>
      <trkpt lat="50.03816" lon="1.97724">
        <ele>9.5</ele>
        <time>2022-04-17T11:18:22Z</time>
      </trkpt>
      <trkpt lat="50.03816" lon="1.97724">
        <ele>9.5</ele>
        <time>2022-04-17T11:18:23Z</time>
      </trkpt>
      <trkpt lat="50.03816" lon="1.97724">
        <ele>9.5</ele>
        <time>2022-04-17T11:18:24Z</time>
      </trkpt>
      <trkpt lat="50.03816" lon="1.97724">
        <ele>9.5</ele>
        <time>2022-04-17T11:18:25Z</time>
      </trkpt>
      <trkpt lat="50.03816" lon="1.97724">
        <ele>9.5</ele>
        <time>2022-04-17T11:18:26Z</time>
      </trkpt>
      <trkpt lat="50.03816" lon="1.97724">
        <ele>9.5</ele>
        <time>2022-04-17T11:18:27Z</time>
      </trkpt>
      <trkpt lat="50.03816" lon="1.97724">
        <ele>9.5</ele>
        <time>2022-04-17T11:18:28Z</time>
      </trkpt>
      <trkpt lat="50.03816" lon="1.97724">
        <ele>9.5</ele>
        <time>2022-04-17T11:18:29Z</time>
      </trkpt>
      <trkpt lat="50.03816" lon="1.97724">
        <ele>9.5</ele>
        <time>2022-04-17T11:18:30Z</time>
      </trkpt>
      <trkpt lat="50.03816" lon="1.97724">
        <ele>9.5</ele>
        <time>2022-04-17T11:18:31Z</time>
      </trkpt>
      <trkpt lat="50.03816" lon="1.97724">
        <ele>9.5</ele>
        <time>2022-04-17T11:18:32Z</time>
      </trkpt>
      <trkpt lat="50.03816" lon="1.97724">
        <ele>9.5</ele>
        <time>2022-04-17T11:18:33Z</time>
      </trkpt>
      <trkpt lat="50.03816" lon="1.97724">
        <ele>9.5</ele>
        <time>2022-04-17T11:18:34Z</time>
      </trkpt>
      <trkpt lat="50.03816" lon="1.97724">
        <ele>9.5</ele>
        <time>2022-04-17T11:18:35Z</time>
      </trkpt>
      <trkpt lat="50.03816" lon="1.97724">
        <ele>9.5</ele>
        <time>2022-04-17T11:18:36Z</time>
      </trkpt>
      <trkpt lat="50.03816" lon="1.97724">
        <ele>9.5</ele>
        <time>2022-04-17T11:18:37Z</time>
      </trkpt>
      <trkpt lat="50.03816" lon="1.97724">
        <ele>9.5</ele>
        <time>2022-04-17T11:18:38Z</time>
      </trkpt>
      <trkpt lat="50.03816" lon="1.97724">
        <ele>9.5</ele>
        <time>2022-04-17T11:18:39Z</time>
      </trkpt>
      <trkpt lat="50.03816" lon="1.97724">
        <ele>9.5</ele>
        <time>2022-04-17T11:18:40Z</time>
      </trkpt>
      <trkpt lat="50.03816" lon="1.97724">
        <ele>9.5</ele>
        <time>2022-04-17T11:18:41Z</time>
      </trkpt>
      <trkpt lat="50.03816" lon="1.97724">
        <ele>9.5</ele>
        <time>2022-04-17T11:18:42Z</time>
      </trkpt>
      <trkpt lat="50.03816" lon="1.97724">
        <ele>9.5</ele>
        <time>2022-04-17T11:18:43Z</time>
      </trkpt>
      <trkpt lat="50.03816" lon="1.97724">
        <ele>9.5</ele>
        <time>2022-04-17T11:18:44Z</time>
      </trkpt>
      <trkpt lat="50.03816" lon="1.97724">
        <ele>9.5</ele>
        <time>2022-04-17T11:18:45Z</time>
      </trkpt>
      <trkpt lat="50.03816" lon="1.97724">
        <ele>9.5</ele>
        <time>2022-04-17T11:18:46Z</time>
      </trkpt>
      <trkpt lat="50.03816" lon="1.97724">
        <ele>9.5</ele>
        <time>2022-04-17T11:18:47Z</time>
      </trkpt>
      <trkpt lat="50.03816" lon="1.97724">
        <ele>9.5</ele>
        <time>2022-04-17T11:18:48Z</time>
      </trkpt>
      <trkpt lat="50.03816" lon="1.97724">
        <ele>9.5</ele>
        <time>2022-04-17T11:18:49Z</time>
      </trkpt>
      <trkpt lat="50.03816" lon="1.97724">
        <ele>9.5</ele>
        <time>2022-04-17T11:18:50Z</time>
      </trkpt>
      <trkpt lat="50.03816" lon="1.97724">
        <ele>9.5</ele>
        <time>2022-04-17T11:18:51Z</time>
      </trkpt>
      <trkpt lat="50.03816" lon="1.97724">
        <ele>9.5</ele>
        <time>2022-04-17T11:18:52Z</time>
      </trkpt>
      <trkpt lat="50.03816" lon="1.97724">
        <ele>9.5</ele>
        <time>2022-04-17T11:18:53Z</time>
      </trkpt>
      <trkpt lat="50.03816" lon="1.97724">
        <ele>9.5</ele>
        <time>2022-04-17T11:18:54Z</time>
      </trkpt>
      <trkpt lat="50.03816" lon="1.97724">
        <ele>9.5</ele>
        <time>2022-04-17T11:18:55Z</time>
      </trkpt>
      <trkpt lat="50.03816" lon="1.97724">
        <ele>9.5</ele>
        <time>2022-04-17T11:18:56Z</time>
      </trkpt>
      <trkpt lat="50.03816" lon="1.97724">
        <ele>9.5</ele>
        <time>2022-04-17T11:18:57Z</time>
      </trkpt>
      <trkpt lat="50.03816" lon="1.97724">
        <ele>9.5</ele>
        <time>2022-04-17T11:18:58Z</time>
      </trkpt>
      <trkpt lat="50.03816" lon="1.97724">
        <ele>9.5</ele>
        <time>2022-04-17T11:18:59Z</time>
      </trkpt>
      <trkpt lat="50.03816" lon="1.97724">
        <ele>9.5</ele>
        <time>2022-04-17T11:19:00Z</time>
      </trkpt>
      <trkpt lat="50.03816" lon="1.97724">
        <ele>9.5</ele>
        <time>2022-04-17T11:19:01Z</time>
      </trkpt>
      <trkpt lat="50.03816" lon="1.97724">
        <ele>9.5</ele>
        <time>2022-04-17T11:19:02Z</time>
      </trkpt>
      <trkpt lat="50.03816" lon="1.97724">
        <ele>9.5</ele>
        <time>2022-04-17T11:19:03Z</time>
      </trkpt>
      <trkpt lat="50.03816" lon="1.97724">
        <ele>9.5</ele>
        <time>2022-04-17T11:19:04Z</time>
      </trkpt>
      <trkpt lat="50.03816" lon="1.97724">
        <ele>9.5</ele>
        <time>2022-04-17T11:19:05Z</time>
      </trkpt>
      <trkpt lat="50.03816" lon="1.97724">
        <ele>9.5</ele>
        <time>2022-04-17T11:19:06Z</time>
      </trkpt>
      <trkpt lat="50.03816" lon="1.97724">
        <ele>9.5</ele>
        <time>2022-04-17T11:19:07Z</time>
      </trkpt>
      <trkpt lat="50.03816" lon="1.97724">
        <ele>9.5</ele>
        <time>2022-04-17T11:19:08Z</time>
      </trkpt>
      <trkpt lat="50.03816" lon="1.97724">
        <ele>9.5</ele>
        <time>2022-04-17T11:19:09Z</time>
      </trkpt>
      <trkpt lat="50.03816" lon="1.97724">
        <ele>9.5</ele>
        <time>2022-04-17T11:19:10Z</time>
      </trkpt>
      <trkpt lat="50.03816" lon="1.97724">
        <ele>9.5</ele>
        <time>2022-04-17T11:19:11Z</time>
      </trkpt>
      <trkpt lat="50.03816" lon="1.97724">
        <ele>9.5</ele>
        <time>2022-04-17T11:19:12Z</time>
      </trkpt>
      <trkpt lat="50.03816" lon="1.97724">
        <ele>9.5</ele>
        <time>2022-04-17T11:19:13Z</time>
      </trkpt>
      <trkpt lat="50.03816" lon="1.97724">
        <ele>9.5</ele>
        <time>2022-04-17T11:19:14Z</time>
      </trkpt>
      <trkpt lat="50.03816" lon="1.97724">
        <ele>9.5</ele>
        <time>2022-04-17T11:19:15Z</time>
      </trkpt>
      <trkpt lat="50.03816" lon="1.97724">
        <ele>9.5</ele>
        <time>2022-04-17T11:19:16Z</time>
      </trkpt>
      <trkpt lat="50.03816" lon="1.97724">
        <ele>9.5</ele>
        <time>2022-04-17T11:19:17Z</time>
      </trkpt>
      <trkpt lat="50.03816" lon="1.97724">
        <ele>9.5</ele>
        <time>2022-04-17T11:19:18Z</time>
      </trkpt>
      <trkpt lat="50.03816" lon="1.97724">
        <ele>9.5</ele>
        <time>2022-04-17T11:19:19Z</time>
      </trkpt>
      <trkpt lat="50.03816" lon="1.97724">
        <ele>9.5</ele>
        <time>2022-04-17T11:19:20Z</time>
      </trkpt>
      <trkpt lat="50.03816" lon="1.97724">
        <ele>9.5</ele>
        <time>2022-04-17T11:19:21Z</time>
      </trkpt>
      <trkpt lat="50.03816" lon="1.97724">
        <ele>9.5</ele>
        <time>2022-04-17T11:19:22Z</time>
      </trkpt>
      <trkpt lat="50.03816" lon="1.97724">
        <ele>9.5</ele>
        <time>2022-04-17T11:19:23Z</time>
      </trkpt>
      <trkpt lat="50.03816" lon="1.97724">
        <ele>9.5</ele>
        <time>2022-04-17T11:19:24Z</time>
      </trkpt>
      <trkpt lat="50.03816" lon="1.97724">
        <ele>9.5</ele>
        <time>2022-04-17T11:19:25Z</time>
      </trkpt>
      <trkpt lat="50.03816" lon="1.97724">
        <ele>9.5</ele>
        <time>2022-04-17T11:19:26Z</time>
      </trkpt>
      <trkpt lat="50.03816" lon="1.97724">
        <ele>9.5</ele>
        <time>2022-04-17T11:19:27Z</time>
      </trkpt>
      <trkpt lat="50.03816" lon="1.97724">
        <ele>9.5</ele>
        <time>2022-04-17T11:19:28Z</time>
      </trkpt>
      <trkpt lat="50.03816" lon="1.97724">
        <ele>9.5</ele>
        <time>2022-04-17T11:19:29Z</time>
      </trkpt>
      <trkpt lat="50.03816" lon="1.97724">
        <ele>9.5</ele>
        <time>2022-04-17T11:19:30Z</time>
      </trkpt>
      <trkpt lat="50.03816" lon="1.97724">
        <ele>9.5</ele>
        <time>2022-04-17T11:19:31Z</time>
      </trkpt>
      <trkpt lat="50.03816" lon="1.97724">
        <ele>9.5</ele>
        <time>2022-04-17T11:19:32Z</time>
      </trkpt>
      <trkpt lat="50.03816" lon="1.97724">
        <ele>9.5</ele>
        <time>2022-04-17T11:19:33Z</time>
      </trkpt>
      <trkpt lat="50.03816" lon="1.97724">
        <ele>9.5</ele>
        <time>2022-04-17T11:19:34Z</time>
      </trkpt>
      <trkpt lat="50.03816" lon="1.97724">
        <ele>9.5</ele>
        <time>2022-04-17T11:19:35Z</time>
      </trkpt>
      <trkpt lat="50.03816" lon="1.97724">
        <ele>9.5</ele>
        <time>2022-04-17T11:19:36Z</time>
      </trkpt>
      <trkpt lat="50.03816" lon="1.97724">
        <ele>9.5</ele>
        <time>2022-04-17T11:19:37Z</time>
      </trkpt>
      <trkpt lat="50.03816" lon="1.97724">
        <ele>9.5</ele>
        <time>2022-04-17T11:19:38Z</time>
      </trkpt>
      <trkpt lat="50.03816" lon="1.97724">
        <ele>9.5</ele>
        <time>2022-04-17T11:19:39Z</time>
      </trkpt>
      <trkpt lat="50.03816" lon="1.97724">
        <ele>9.5</ele>
        <time>2022-04-17T11:19:40Z</time>
      </trkpt>
      <trkpt lat="50.03816" lon="1.97724">
        <ele>9.5</ele>
        <time>2022-04-17T11:19:41Z</time>
      </trkpt>
      <trkpt lat="50.03816" lon="1.97724">
        <ele>9.5</ele>
        <time>2022-04-17T11:19:42Z</time>
      </trkpt>
      <trkpt lat="50.03816" lon="1.97724">
        <ele>9.5</ele>
        <time>2022-04-17T11:19:43Z</time>
      </trkpt>
      <trkpt lat="50.03816" lon="1.97724">
        <ele>9.5</ele>
        <time>2022-04-17T11:19:44Z</time>
      </trkpt>
      <trkpt lat="50.03816" lon="1.97724">
        <ele>9.5</ele>
        <time>2022-04-17T11:19:45Z</time>
      </trkpt>
      <trkpt lat="50.03816" lon="1.97724">
        <ele>9.5</ele>
        <time>2022-04-17T11:19:46Z</time>
      </trkpt>
      <trkpt lat="50.03816" lon="1.97723">
        <ele>9.5</ele>
        <time>2022-04-17T11:19:47Z</time>
      </trkpt>
      <trkpt lat="50.03816" lon="1.97723">
        <ele>9.5</ele>
        <time>2022-04-17T11:19:48Z</time>
      </trkpt>
      <trkpt lat="50.03816" lon="1.97723">
        <ele>9.5</ele>
        <time>2022-04-17T11:19:49Z</time>
      </trkpt>
      <trkpt lat="50.03816" lon="1.97723">
        <ele>9.5</ele>
        <time>2022-04-17T11:19:50Z</time>
      </trkpt>
      <trkpt lat="50.03816" lon="1.97723">
        <ele>9.5</ele>
        <time>2022-04-17T11:19:51Z</time>
      </trkpt>
      <trkpt lat="50.03816" lon="1.97723">
        <ele>9.5</ele>
        <time>2022-04-17T11:19:52Z</time>
      </trkpt>
      <trkpt lat="50.03816" lon="1.97723">
        <ele>9.5</ele>
        <time>2022-04-17T11:19:53Z</time>
      </trkpt>
      <trkpt lat="50.03816" lon="1.97723">
        <ele>9.5</ele>
        <time>2022-04-17T11:19:54Z</time>
      </trkpt>
      <trkpt lat="50.03816" lon="1.97723">
        <ele>9.5</ele>
        <time>2022-04-17T11:19:55Z</time>
      </trkpt>
      <trkpt lat="50.03816" lon="1.97723">
        <ele>9.5</ele>
        <time>2022-04-17T11:19:56Z</time>
      </trkpt>
      <trkpt lat="50.03816" lon="1.97723">
        <ele>9.5</ele>
        <time>2022-04-17T11:19:57Z</time>
      </trkpt>
      <trkpt lat="50.03816" lon="1.97723">
        <ele>9.5</ele>
        <time>2022-04-17T11:19:58Z</time>
      </trkpt>
      <trkpt lat="50.03816" lon="1.97723">
        <ele>9.5</ele>
        <time>2022-04-17T11:19:59Z</time>
      </trkpt>
      <trkpt lat="50.03816" lon="1.97723">
        <ele>9.5</ele>
        <time>2022-04-17T11:20:00Z</time>
      </trkpt>
      <trkpt lat="50.03816" lon="1.97723">
        <ele>9.5</ele>
        <time>2022-04-17T11:20:01Z</time>
      </trkpt>
      <trkpt lat="50.03816" lon="1.97723">
        <ele>9.5</ele>
        <time>2022-04-17T11:20:02Z</time>
      </trkpt>
      <trkpt lat="50.03816" lon="1.97723">
        <ele>9.5</ele>
        <time>2022-04-17T11:20:03Z</time>
      </trkpt>
      <trkpt lat="50.03816" lon="1.97723">
        <ele>9.5</ele>
        <time>2022-04-17T11:20:04Z</time>
      </trkpt>
      <trkpt lat="50.03816" lon="1.97723">
        <ele>9.5</ele>
        <time>2022-04-17T11:20:05Z</time>
      </trkpt>
      <trkpt lat="50.03816" lon="1.97723">
        <ele>9.5</ele>
        <time>2022-04-17T11:20:06Z</time>
      </trkpt>
      <trkpt lat="50.03816" lon="1.97723">
        <ele>9.5</ele>
        <time>2022-04-17T11:20:07Z</time>
      </trkpt>
      <trkpt lat="50.03816" lon="1.97723">
        <ele>9.5</ele>
        <time>2022-04-17T11:20:08Z</time>
      </trkpt>
      <trkpt lat="50.03816" lon="1.97723">
        <ele>9.5</ele>
        <time>2022-04-17T11:20:09Z</time>
      </trkpt>
      <trkpt lat="50.03816" lon="1.97723">
        <ele>9.5</ele>
        <time>2022-04-17T11:20:10Z</time>
      </trkpt>
      <trkpt lat="50.03816" lon="1.97723">
        <ele>9.5</ele>
        <time>2022-04-17T11:20:11Z</time>
      </trkpt>
      <trkpt lat="50.03816" lon="1.97723">
        <ele>9.5</ele>
        <time>2022-04-17T11:20:12Z</time>
      </trkpt>
      <trkpt lat="50.03816" lon="1.97723">
        <ele>9.5</ele>
        <time>2022-04-17T11:20:13Z</time>
      </trkpt>
      <trkpt lat="50.03816" lon="1.97723">
        <ele>9.5</ele>
        <time>2022-04-17T11:20:14Z</time>
      </trkpt>
      <trkpt lat="50.03816" lon="1.97723">
        <ele>9.5</ele>
        <time>2022-04-17T11:20:15Z</time>
      </trkpt>
      <trkpt lat="50.03816" lon="1.97723">
        <ele>9.5</ele>
        <time>2022-04-17T11:20:16Z</time>
      </trkpt>
      <trkpt lat="50.03816" lon="1.97723">
        <ele>9.5</ele>
        <time>2022-04-17T11:20:17Z</time>
      </trkpt>
      <trkpt lat="50.03816" lon="1.97723">
        <ele>9.5</ele>
        <time>2022-04-17T11:20:18Z</time>
      </trkpt>
      <trkpt lat="50.03816" lon="1.97723">
        <ele>9.5</ele>
        <time>2022-04-17T11:20:19Z</time>
      </trkpt>
      <trkpt lat="50.03816" lon="1.97723">
        <ele>9.5</ele>
        <time>2022-04-17T11:20:20Z</time>
      </trkpt>
      <trkpt lat="50.03816" lon="1.97723">
        <ele>9.5</ele>
        <time>2022-04-17T11:20:21Z</time>
      </trkpt>
      <trkpt lat="50.03816" lon="1.97723">
        <ele>9.5</ele>
        <time>2022-04-17T11:20:22Z</time>
      </trkpt>
      <trkpt lat="50.03816" lon="1.97723">
        <ele>9.5</ele>
        <time>2022-04-17T11:20:23Z</time>
      </trkpt>
      <trkpt lat="50.03816" lon="1.97723">
        <ele>9.5</ele>
        <time>2022-04-17T11:20:24Z</time>
      </trkpt>
      <trkpt lat="50.03816" lon="1.97723">
        <ele>9.5</ele>
        <time>2022-04-17T11:20:25Z</time>
      </trkpt>
      <trkpt lat="50.03816" lon="1.97723">
        <ele>9.5</ele>
        <time>2022-04-17T11:20:26Z</time>
      </trkpt>
      <trkpt lat="50.03816" lon="1.97723">
        <ele>9.5</ele>
        <time>2022-04-17T11:20:27Z</time>
      </trkpt>
      <trkpt lat="50.03816" lon="1.97723">
        <ele>9.5</ele>
        <time>2022-04-17T11:20:28Z</time>
      </trkpt>
      <trkpt lat="50.03816" lon="1.97723">
        <ele>9.5</ele>
        <time>2022-04-17T11:20:29Z</time>
      </trkpt>
      <trkpt lat="50.03816" lon="1.97723">
        <ele>9.5</ele>
        <time>2022-04-17T11:20:30Z</time>
      </trkpt>
      <trkpt lat="50.03816" lon="1.97723">
        <ele>9.5</ele>
        <time>2022-04-17T11:20:31Z</time>
      </trkpt>
      <trkpt lat="50.03816" lon="1.97723">
        <ele>9.5</ele>
        <time>2022-04-17T11:20:32Z</time>
      </trkpt>
      <trkpt lat="50.03816" lon="1.97723">
        <ele>9.5</ele>
        <time>2022-04-17T11:20:33Z</time>
      </trkpt>
      <trkpt lat="50.03816" lon="1.97723">
        <ele>9.5</ele>
        <time>2022-04-17T11:20:34Z</time>
      </trkpt>
      <trkpt lat="50.03816" lon="1.97723">
        <ele>9.5</ele>
        <time>2022-04-17T11:20:35Z</time>
      </trkpt>
      <trkpt lat="50.03816" lon="1.97723">
        <ele>9.5</ele>
        <time>2022-04-17T11:20:36Z</time>
      </trkpt>
      <trkpt lat="50.03816" lon="1.97723">
        <ele>9.5</ele>
        <time>2022-04-17T11:20:37Z</time>
      </trkpt>
      <trkpt lat="50.03816" lon="1.97723">
        <ele>9.5</ele>
        <time>2022-04-17T11:20:38Z</time>
      </trkpt>
      <trkpt lat="50.03816" lon="1.97723">
        <ele>9.5</ele>
        <time>2022-04-17T11:20:39Z</time>
      </trkpt>
      <trkpt lat="50.03816" lon="1.97723">
        <ele>9.5</ele>
        <time>2022-04-17T11:20:40Z</time>
      </trkpt>
      <trkpt lat="50.03816" lon="1.97723">
        <ele>9.5</ele>
        <time>2022-04-17T11:20:41Z</time>
      </trkpt>
      <trkpt lat="50.03816" lon="1.97723">
        <ele>9.5</ele>
        <time>2022-04-17T11:20:42Z</time>
      </trkpt>
      <trkpt lat="50.03816" lon="1.97723">
        <ele>9.5</ele>
        <time>2022-04-17T11:20:43Z</time>
      </trkpt>
      <trkpt lat="50.03816" lon="1.97723">
        <ele>9.5</ele>
        <time>2022-04-17T11:20:44Z</time>
      </trkpt>
      <trkpt lat="50.03816" lon="1.97723">
        <ele>9.5</ele>
        <time>2022-04-17T11:20:45Z</time>
      </trkpt>
      <trkpt lat="50.03816" lon="1.97723">
        <ele>9.5</ele>
        <time>2022-04-17T11:20:46Z</time>
      </trkpt>
      <trkpt lat="50.03816" lon="1.97723">
        <ele>9.5</ele>
        <time>2022-04-17T11:20:47Z</time>
      </trkpt>
      <trkpt lat="50.03816" lon="1.97723">
        <ele>9.5</ele>
        <time>2022-04-17T11:20:48Z</time>
      </trkpt>
      <trkpt lat="50.03816" lon="1.97723">
        <ele>9.5</ele>
        <time>2022-04-17T11:20:49Z</time>
      </trkpt>
      <trkpt lat="50.03816" lon="1.97723">
        <ele>9.5</ele>
        <time>2022-04-17T11:20:50Z</time>
      </trkpt>
      <trkpt lat="50.03816" lon="1.97723">
        <ele>9.5</ele>
        <time>2022-04-17T11:20:51Z</time>
      </trkpt>
      <trkpt lat="50.03816" lon="1.97723">
        <ele>9.5</ele>
        <time>2022-04-17T11:20:52Z</time>
      </trkpt>
      <trkpt lat="50.03816" lon="1.97723">
        <ele>9.5</ele>
        <time>2022-04-17T11:20:53Z</time>
      </trkpt>
      <trkpt lat="50.03816" lon="1.97723">
        <ele>9.5</ele>
        <time>2022-04-17T11:20:54Z</time>
      </trkpt>
      <trkpt lat="50.03816" lon="1.97723">
        <ele>9.5</ele>
        <time>2022-04-17T11:20:55Z</time>
      </trkpt>
      <trkpt lat="50.03816" lon="1.97723">
        <ele>9.5</ele>
        <time>2022-04-17T11:20:56Z</time>
      </trkpt>
      <trkpt lat="50.03816" lon="1.97723">
        <ele>9.5</ele>
        <time>2022-04-17T11:20:57Z</time>
      </trkpt>
      <trkpt lat="50.03816" lon="1.97723">
        <ele>9.5</ele>
        <time>2022-04-17T11:20:59Z</time>
      </trkpt>
      <trkpt lat="50.03816" lon="1.97723">
        <ele>9.5</ele>
        <time>2022-04-17T11:21:00Z</time>
      </trkpt>
      <trkpt lat="50.03816" lon="1.97723">
        <ele>9.5</ele>
        <time>2022-04-17T11:21:01Z</time>
      </trkpt>
      <trkpt lat="50.03816" lon="1.97723">
        <ele>9.5</ele>
        <time>2022-04-17T11:21:02Z</time>
      </trkpt>
      <trkpt lat="50.03816" lon="1.97723">
        <ele>9.5</ele>
        <time>2022-04-17T11:21:03Z</time>
      </trkpt>
      <trkpt lat="50.03816" lon="1.97723">
        <ele>9.5</ele>
        <time>2022-04-17T11:21:04Z</time>
      </trkpt>
      <trkpt lat="50.03816" lon="1.97723">
        <ele>9.5</ele>
        <time>2022-04-17T11:21:05Z</time>
      </trkpt>
      <trkpt lat="50.03816" lon="1.97723">
        <ele>9.5</ele>
        <time>2022-04-17T11:21:06Z</time>
      </trkpt>
      <trkpt lat="50.03816" lon="1.97723">
        <ele>9.5</ele>
        <time>2022-04-17T11:21:07Z</time>
      </trkpt>
      <trkpt lat="50.03816" lon="1.97723">
        <ele>9.5</ele>
        <time>2022-04-17T11:21:08Z</time>
      </trkpt>
      <trkpt lat="50.03816" lon="1.97723">
        <ele>9.5</ele>
        <time>2022-04-17T11:21:09Z</time>
      </trkpt>
      <trkpt lat="50.03816" lon="1.97723">
        <ele>9.5</ele>
        <time>2022-04-17T11:21:10Z</time>
      </trkpt>
      <trkpt lat="50.03816" lon="1.97723">
        <ele>9.5</ele>
        <time>2022-04-17T11:21:11Z</time>
      </trkpt>
      <trkpt lat="50.03816" lon="1.97723">
        <ele>9.5</ele>
        <time>2022-04-17T11:21:12Z</time>
      </trkpt>
      <trkpt lat="50.03816" lon="1.97723">
        <ele>9.5</ele>
        <time>2022-04-17T11:21:13Z</time>
      </trkpt>
      <trkpt lat="50.03816" lon="1.97723">
        <ele>9.5</ele>
        <time>2022-04-17T11:21:14Z</time>
      </trkpt>
      <trkpt lat="50.03816" lon="1.97723">
        <ele>9.5</ele>
        <time>2022-04-17T11:21:15Z</time>
      </trkpt>
      <trkpt lat="50.03816" lon="1.97723">
        <ele>9.5</ele>
        <time>2022-04-17T11:21:16Z</time>
      </trkpt>
      <trkpt lat="50.03816" lon="1.97723">
        <ele>9.5</ele>
        <time>2022-04-17T11:21:17Z</time>
      </trkpt>
      <trkpt lat="50.03816" lon="1.97723">
        <ele>9.5</ele>
        <time>2022-04-17T11:21:18Z</time>
      </trkpt>
      <trkpt lat="50.03816" lon="1.97723">
        <ele>9.5</ele>
        <time>2022-04-17T11:21:19Z</time>
      </trkpt>
      <trkpt lat="50.03816" lon="1.97723">
        <ele>9.5</ele>
        <time>2022-04-17T11:21:20Z</time>
      </trkpt>
      <trkpt lat="50.03816" lon="1.97723">
        <ele>9.5</ele>
        <time>2022-04-17T11:21:21Z</time>
      </trkpt>
      <trkpt lat="50.03816" lon="1.97723">
        <ele>9.5</ele>
        <time>2022-04-17T11:21:22Z</time>
      </trkpt>
      <trkpt lat="50.03816" lon="1.97723">
        <ele>9.5</ele>
        <time>2022-04-17T11:21:23Z</time>
      </trkpt>
      <trkpt lat="50.03816" lon="1.97723">
        <ele>9.5</ele>
        <time>2022-04-17T11:21:24Z</time>
      </trkpt>
      <trkpt lat="50.03816" lon="1.97723">
        <ele>9.5</ele>
        <time>2022-04-17T11:21:25Z</time>
      </trkpt>
      <trkpt lat="50.03816" lon="1.97723">
        <ele>9.5</ele>
        <time>2022-04-17T11:21:26Z</time>
      </trkpt>
      <trkpt lat="50.03816" lon="1.97723">
        <ele>9.5</ele>
        <time>2022-04-17T11:21:27Z</time>
      </trkpt>
      <trkpt lat="50.03816" lon="1.97723">
        <ele>9.5</ele>
        <time>2022-04-17T11:21:28Z</time>
      </trkpt>
      <trkpt lat="50.03816" lon="1.97723">
        <ele>9.5</ele>
        <time>2022-04-17T11:21:29Z</time>
      </trkpt>
      <trkpt lat="50.03816" lon="1.97723">
        <ele>9.5</ele>
        <time>2022-04-17T11:21:30Z</time>
      </trkpt>
      <trkpt lat="50.03816" lon="1.97723">
        <ele>9.5</ele>
        <time>2022-04-17T11:21:31Z</time>
      </trkpt>
      <trkpt lat="50.03816" lon="1.97723">
        <ele>9.5</ele>
        <time>2022-04-17T11:21:32Z</time>
      </trkpt>
      <trkpt lat="50.03816" lon="1.97723">
        <ele>9.5</ele>
        <time>2022-04-17T11:21:33Z</time>
      </trkpt>
      <trkpt lat="50.03816" lon="1.97723">
        <ele>9.5</ele>
        <time>2022-04-17T11:21:34Z</time>
      </trkpt>
      <trkpt lat="50.03816" lon="1.97723">
        <ele>9.5</ele>
        <time>2022-04-17T11:21:35Z</time>
      </trkpt>
      <trkpt lat="50.03816" lon="1.97723">
        <ele>9.5</ele>
        <time>2022-04-17T11:21:36Z</time>
      </trkpt>
      <trkpt lat="50.03816" lon="1.97723">
        <ele>9.5</ele>
        <time>2022-04-17T11:21:37Z</time>
      </trkpt>
      <trkpt lat="50.03816" lon="1.97723">
        <ele>9.5</ele>
        <time>2022-04-17T11:21:38Z</time>
      </trkpt>
      <trkpt lat="50.03816" lon="1.97723">
        <ele>9.5</ele>
        <time>2022-04-17T11:21:39Z</time>
      </trkpt>
      <trkpt lat="50.03816" lon="1.97723">
        <ele>9.5</ele>
        <time>2022-04-17T11:21:40Z</time>
      </trkpt>
      <trkpt lat="50.03816" lon="1.97723">
        <ele>9.5</ele>
        <time>2022-04-17T11:21:41Z</time>
      </trkpt>
      <trkpt lat="50.03816" lon="1.97723">
        <ele>9.5</ele>
        <time>2022-04-17T11:21:42Z</time>
      </trkpt>
      <trkpt lat="50.03816" lon="1.97723">
        <ele>9.5</ele>
        <time>2022-04-17T11:21:43Z</time>
      </trkpt>
      <trkpt lat="50.03816" lon="1.97723">
        <ele>9.5</ele>
        <time>2022-04-17T11:21:44Z</time>
      </trkpt>
      <trkpt lat="50.03816" lon="1.97723">
        <ele>9.5</ele>
        <time>2022-04-17T11:21:45Z</time>
      </trkpt>
      <trkpt lat="50.03816" lon="1.97723">
        <ele>9.5</ele>
        <time>2022-04-17T11:21:46Z</time>
      </trkpt>
      <trkpt lat="50.03816" lon="1.97723">
        <ele>9.5</ele>
        <time>2022-04-17T11:21:47Z</time>
      </trkpt>
      <trkpt lat="50.03816" lon="1.97723">
        <ele>9.5</ele>
        <time>2022-04-17T11:21:48Z</time>
      </trkpt>
      <trkpt lat="50.03816" lon="1.97723">
        <ele>9.5</ele>
        <time>2022-04-17T11:21:49Z</time>
      </trkpt>
      <trkpt lat="50.03816" lon="1.97723">
        <ele>9.5</ele>
        <time>2022-04-17T11:21:50Z</time>
      </trkpt>
      <trkpt lat="50.03816" lon="1.97723">
        <ele>9.5</ele>
        <time>2022-04-17T11:21:51Z</time>
      </trkpt>
      <trkpt lat="50.03816" lon="1.97723">
        <ele>9.5</ele>
        <time>2022-04-17T11:21:52Z</time>
      </trkpt>
      <trkpt lat="50.03816" lon="1.97723">
        <ele>9.5</ele>
        <time>2022-04-17T11:21:53Z</time>
      </trkpt>
      <trkpt lat="50.03816" lon="1.97723">
        <ele>9.5</ele>
        <time>2022-04-17T11:21:54Z</time>
      </trkpt>
      <trkpt lat="50.03816" lon="1.97723">
        <ele>9.5</ele>
        <time>2022-04-17T11:21:55Z</time>
      </trkpt>
      <trkpt lat="50.03816" lon="1.97723">
        <ele>9.5</ele>
        <time>2022-04-17T11:21:56Z</time>
      </trkpt>
      <trkpt lat="50.03816" lon="1.97723">
        <ele>9.5</ele>
        <time>2022-04-17T11:21:57Z</time>
      </trkpt>
      <trkpt lat="50.03816" lon="1.97723">
        <ele>9.5</ele>
        <time>2022-04-17T11:21:58Z</time>
      </trkpt>
      <trkpt lat="50.03816" lon="1.97723">
        <ele>9.5</ele>
        <time>2022-04-17T11:21:59Z</time>
      </trkpt>
      <trkpt lat="50.03816" lon="1.97723">
        <ele>9.5</ele>
        <time>2022-04-17T11:22:00Z</time>
      </trkpt>
      <trkpt lat="50.03816" lon="1.97723">
        <ele>9.5</ele>
        <time>2022-04-17T11:22:01Z</time>
      </trkpt>
      <trkpt lat="50.03816" lon="1.97723">
        <ele>9.5</ele>
        <time>2022-04-17T11:22:02Z</time>
      </trkpt>
      <trkpt lat="50.03816" lon="1.97723">
        <ele>9.5</ele>
        <time>2022-04-17T11:22:03Z</time>
      </trkpt>
      <trkpt lat="50.03816" lon="1.97723">
        <ele>9.5</ele>
        <time>2022-04-17T11:22:04Z</time>
      </trkpt>
      <trkpt lat="50.03816" lon="1.97723">
        <ele>9.5</ele>
        <time>2022-04-17T11:22:05Z</time>
      </trkpt>
      <trkpt lat="50.03816" lon="1.97723">
        <ele>9.5</ele>
        <time>2022-04-17T11:22:06Z</time>
      </trkpt>
      <trkpt lat="50.03816" lon="1.97723">
        <ele>9.5</ele>
        <time>2022-04-17T11:22:07Z</time>
      </trkpt>
      <trkpt lat="50.03816" lon="1.97723">
        <ele>9.5</ele>
        <time>2022-04-17T11:22:08Z</time>
      </trkpt>
      <trkpt lat="50.03816" lon="1.97723">
        <ele>9.5</ele>
        <time>2022-04-17T11:22:09Z</time>
      </trkpt>
      <trkpt lat="50.03816" lon="1.97723">
        <ele>9.5</ele>
        <time>2022-04-17T11:22:10Z</time>
      </trkpt>
      <trkpt lat="50.03816" lon="1.97723">
        <ele>9.5</ele>
        <time>2022-04-17T11:22:11Z</time>
      </trkpt>
      <trkpt lat="50.03816" lon="1.97723">
        <ele>9.5</ele>
        <time>2022-04-17T11:22:12Z</time>
      </trkpt>
      <trkpt lat="50.03816" lon="1.97723">
        <ele>9.5</ele>
        <time>2022-04-17T11:22:13Z</time>
      </trkpt>
      <trkpt lat="50.03816" lon="1.97723">
        <ele>9.5</ele>
        <time>2022-04-17T11:22:14Z</time>
      </trkpt>
      <trkpt lat="50.03816" lon="1.97723">
        <ele>9.5</ele>
        <time>2022-04-17T11:22:15Z</time>
      </trkpt>
      <trkpt lat="50.03816" lon="1.97723">
        <ele>9.5</ele>
        <time>2022-04-17T11:22:16Z</time>
      </trkpt>
      <trkpt lat="50.03816" lon="1.97723">
        <ele>9.5</ele>
        <time>2022-04-17T11:22:17Z</time>
      </trkpt>
      <trkpt lat="50.03816" lon="1.97723">
        <ele>9.5</ele>
        <time>2022-04-17T11:22:18Z</time>
      </trkpt>
      <trkpt lat="50.03816" lon="1.97723">
        <ele>9.5</ele>
        <time>2022-04-17T11:22:19Z</time>
      </trkpt>
      <trkpt lat="50.03816" lon="1.97723">
        <ele>9.5</ele>
        <time>2022-04-17T11:22:20Z</time>
      </trkpt>
      <trkpt lat="50.03816" lon="1.97723">
        <ele>9.5</ele>
        <time>2022-04-17T11:22:21Z</time>
      </trkpt>
      <trkpt lat="50.03816" lon="1.97723">
        <ele>9.5</ele>
        <time>2022-04-17T11:22:22Z</time>
      </trkpt>
      <trkpt lat="50.03816" lon="1.97723">
        <ele>9.5</ele>
        <time>2022-04-17T11:22:23Z</time>
      </trkpt>
      <trkpt lat="50.03816" lon="1.97723">
        <ele>9.5</ele>
        <time>2022-04-17T11:22:24Z</time>
      </trkpt>
      <trkpt lat="50.03816" lon="1.97723">
        <ele>9.5</ele>
        <time>2022-04-17T11:22:25Z</time>
      </trkpt>
      <trkpt lat="50.03816" lon="1.97723">
        <ele>9.5</ele>
        <time>2022-04-17T11:22:26Z</time>
      </trkpt>
      <trkpt lat="50.03816" lon="1.97723">
        <ele>9.5</ele>
        <time>2022-04-17T11:22:27Z</time>
      </trkpt>
      <trkpt lat="50.03816" lon="1.97723">
        <ele>9.5</ele>
        <time>2022-04-17T11:22:28Z</time>
      </trkpt>
      <trkpt lat="50.03816" lon="1.97723">
        <ele>9.5</ele>
        <time>2022-04-17T11:22:29Z</time>
      </trkpt>
      <trkpt lat="50.03816" lon="1.97723">
        <ele>9.5</ele>
        <time>2022-04-17T11:22:30Z</time>
      </trkpt>
      <trkpt lat="50.03816" lon="1.97723">
        <ele>9.5</ele>
        <time>2022-04-17T11:22:31Z</time>
      </trkpt>
      <trkpt lat="50.03816" lon="1.97723">
        <ele>9.5</ele>
        <time>2022-04-17T11:22:32Z</time>
      </trkpt>
      <trkpt lat="50.03816" lon="1.97723">
        <ele>9.5</ele>
        <time>2022-04-17T11:22:33Z</time>
      </trkpt>
      <trkpt lat="50.03816" lon="1.97723">
        <ele>9.5</ele>
        <time>2022-04-17T11:22:34Z</time>
      </trkpt>
      <trkpt lat="50.03816" lon="1.97723">
        <ele>9.5</ele>
        <time>2022-04-17T11:22:35Z</time>
      </trkpt>
      <trkpt lat="50.03816" lon="1.97723">
        <ele>9.5</ele>
        <time>2022-04-17T11:22:36Z</time>
      </trkpt>
      <trkpt lat="50.03816" lon="1.97723">
        <ele>9.5</ele>
        <time>2022-04-17T11:22:37Z</time>
      </trkpt>
      <trkpt lat="50.03816" lon="1.97723">
        <ele>9.5</ele>
        <time>2022-04-17T11:22:38Z</time>
      </trkpt>
      <trkpt lat="50.03816" lon="1.97723">
        <ele>9.5</ele>
        <time>2022-04-17T11:22:39Z</time>
      </trkpt>
      <trkpt lat="50.03816" lon="1.97723">
        <ele>9.5</ele>
        <time>2022-04-17T11:22:40Z</time>
      </trkpt>
      <trkpt lat="50.03816" lon="1.97723">
        <ele>9.5</ele>
        <time>2022-04-17T11:22:41Z</time>
      </trkpt>
      <trkpt lat="50.03816" lon="1.97723">
        <ele>9.5</ele>
        <time>2022-04-17T11:22:42Z</time>
      </trkpt>
      <trkpt lat="50.03816" lon="1.97723">
        <ele>9.5</ele>
        <time>2022-04-17T11:22:43Z</time>
      </trkpt>
      <trkpt lat="50.03816" lon="1.97723">
        <ele>9.5</ele>
        <time>2022-04-17T11:22:44Z</time>
      </trkpt>
      <trkpt lat="50.03816" lon="1.97723">
        <ele>9.5</ele>
        <time>2022-04-17T11:22:45Z</time>
      </trkpt>
      <trkpt lat="50.03816" lon="1.97723">
        <ele>9.5</ele>
        <time>2022-04-17T11:22:46Z</time>
      </trkpt>
      <trkpt lat="50.03816" lon="1.97723">
        <ele>9.5</ele>
        <time>2022-04-17T11:22:47Z</time>
      </trkpt>
      <trkpt lat="50.03816" lon="1.97723">
        <ele>9.5</ele>
        <time>2022-04-17T11:22:48Z</time>
      </trkpt>
      <trkpt lat="50.03816" lon="1.97723">
        <ele>9.5</ele>
        <time>2022-04-17T11:22:49Z</time>
      </trkpt>
      <trkpt lat="50.03816" lon="1.97723">
        <ele>9.5</ele>
        <time>2022-04-17T11:22:50Z</time>
      </trkpt>
      <trkpt lat="50.03816" lon="1.97723">
        <ele>9.5</ele>
        <time>2022-04-17T11:22:51Z</time>
      </trkpt>
      <trkpt lat="50.03816" lon="1.97723">
        <ele>9.5</ele>
        <time>2022-04-17T11:22:52Z</time>
      </trkpt>
      <trkpt lat="50.03816" lon="1.97723">
        <ele>9.5</ele>
        <time>2022-04-17T11:22:53Z</time>
      </trkpt>
      <trkpt lat="50.03816" lon="1.97723">
        <ele>9.5</ele>
        <time>2022-04-17T11:22:54Z</time>
      </trkpt>
      <trkpt lat="50.03816" lon="1.97723">
        <ele>9.5</ele>
        <time>2022-04-17T11:22:55Z</time>
      </trkpt>
      <trkpt lat="50.03816" lon="1.97722">
        <ele>9.5</ele>
        <time>2022-04-17T11:22:56Z</time>
      </trkpt>
      <trkpt lat="50.03816" lon="1.97722">
        <ele>9.5</ele>
        <time>2022-04-17T11:22:57Z</time>
      </trkpt>
      <trkpt lat="50.03816" lon="1.97722">
        <ele>9.5</ele>
        <time>2022-04-17T11:22:58Z</time>
      </trkpt>
      <trkpt lat="50.03816" lon="1.97722">
        <ele>9.5</ele>
        <time>2022-04-17T11:22:59Z</time>
      </trkpt>
      <trkpt lat="50.03816" lon="1.97722">
        <ele>9.5</ele>
        <time>2022-04-17T11:23:00Z</time>
      </trkpt>
      <trkpt lat="50.03816" lon="1.97722">
        <ele>9.5</ele>
        <time>2022-04-17T11:23:01Z</time>
      </trkpt>
      <trkpt lat="50.03816" lon="1.97722">
        <ele>9.5</ele>
        <time>2022-04-17T11:23:02Z</time>
      </trkpt>
      <trkpt lat="50.03816" lon="1.97722">
        <ele>9.5</ele>
        <time>2022-04-17T11:23:03Z</time>
      </trkpt>
      <trkpt lat="50.03816" lon="1.97722">
        <ele>9.5</ele>
        <time>2022-04-17T11:23:04Z</time>
      </trkpt>
      <trkpt lat="50.03816" lon="1.97722">
        <ele>9.5</ele>
        <time>2022-04-17T11:23:05Z</time>
      </trkpt>
      <trkpt lat="50.03816" lon="1.97722">
        <ele>9.5</ele>
        <time>2022-04-17T11:23:06Z</time>
      </trkpt>
      <trkpt lat="50.03816" lon="1.97722">
        <ele>9.5</ele>
        <time>2022-04-17T11:23:07Z</time>
      </trkpt>
      <trkpt lat="50.03816" lon="1.97722">
        <ele>9.5</ele>
        <time>2022-04-17T11:23:08Z</time>
      </trkpt>
      <trkpt lat="50.03816" lon="1.97722">
        <ele>9.5</ele>
        <time>2022-04-17T11:23:09Z</time>
      </trkpt>
      <trkpt lat="50.03816" lon="1.97722">
        <ele>9.5</ele>
        <time>2022-04-17T11:23:10Z</time>
      </trkpt>
      <trkpt lat="50.03816" lon="1.97722">
        <ele>9.5</ele>
        <time>2022-04-17T11:23:11Z</time>
      </trkpt>
      <trkpt lat="50.03816" lon="1.97722">
        <ele>9.5</ele>
        <time>2022-04-17T11:23:12Z</time>
      </trkpt>
      <trkpt lat="50.03816" lon="1.97722">
        <ele>9.5</ele>
        <time>2022-04-17T11:23:13Z</time>
      </trkpt>
      <trkpt lat="50.03816" lon="1.97722">
        <ele>9.5</ele>
        <time>2022-04-17T11:23:14Z</time>
      </trkpt>
      <trkpt lat="50.03816" lon="1.97722">
        <ele>9.5</ele>
        <time>2022-04-17T11:23:15Z</time>
      </trkpt>
      <trkpt lat="50.03816" lon="1.97722">
        <ele>9.5</ele>
        <time>2022-04-17T11:23:16Z</time>
      </trkpt>
      <trkpt lat="50.03816" lon="1.97722">
        <ele>9.5</ele>
        <time>2022-04-17T11:23:17Z</time>
      </trkpt>
      <trkpt lat="50.03816" lon="1.97722">
        <ele>9.5</ele>
        <time>2022-04-17T11:23:18Z</time>
      </trkpt>
      <trkpt lat="50.03816" lon="1.97722">
        <ele>9.5</ele>
        <time>2022-04-17T11:23:19Z</time>
      </trkpt>
      <trkpt lat="50.03816" lon="1.97722">
        <ele>9.5</ele>
        <time>2022-04-17T11:23:20Z</time>
      </trkpt>
      <trkpt lat="50.03816" lon="1.97722">
        <ele>9.5</ele>
        <time>2022-04-17T11:23:21Z</time>
      </trkpt>
      <trkpt lat="50.03816" lon="1.97722">
        <ele>9.5</ele>
        <time>2022-04-17T11:23:22Z</time>
      </trkpt>
      <trkpt lat="50.03816" lon="1.97722">
        <ele>9.5</ele>
        <time>2022-04-17T11:23:23Z</time>
      </trkpt>
      <trkpt lat="50.03816" lon="1.97722">
        <ele>9.5</ele>
        <time>2022-04-17T11:23:24Z</time>
      </trkpt>
      <trkpt lat="50.03816" lon="1.97722">
        <ele>9.5</ele>
        <time>2022-04-17T11:23:25Z</time>
      </trkpt>
      <trkpt lat="50.03816" lon="1.97722">
        <ele>9.5</ele>
        <time>2022-04-17T11:23:26Z</time>
      </trkpt>
      <trkpt lat="50.03816" lon="1.97722">
        <ele>9.5</ele>
        <time>2022-04-17T11:23:27Z</time>
      </trkpt>
      <trkpt lat="50.03816" lon="1.97722">
        <ele>9.5</ele>
        <time>2022-04-17T11:23:28Z</time>
      </trkpt>
      <trkpt lat="50.03816" lon="1.97722">
        <ele>9.5</ele>
        <time>2022-04-17T11:23:29Z</time>
      </trkpt>
      <trkpt lat="50.03816" lon="1.97722">
        <ele>9.5</ele>
        <time>2022-04-17T11:23:30Z</time>
      </trkpt>
      <trkpt lat="50.03816" lon="1.97722">
        <ele>9.5</ele>
        <time>2022-04-17T11:23:31Z</time>
      </trkpt>
      <trkpt lat="50.03816" lon="1.97722">
        <ele>9.5</ele>
        <time>2022-04-17T11:23:32Z</time>
      </trkpt>
      <trkpt lat="50.03816" lon="1.97722">
        <ele>9.5</ele>
        <time>2022-04-17T11:23:33Z</time>
      </trkpt>
      <trkpt lat="50.03816" lon="1.97722">
        <ele>9.5</ele>
        <time>2022-04-17T11:23:34Z</time>
      </trkpt>
      <trkpt lat="50.03816" lon="1.97722">
        <ele>9.5</ele>
        <time>2022-04-17T11:23:35Z</time>
      </trkpt>
      <trkpt lat="50.03816" lon="1.97722">
        <ele>9.5</ele>
        <time>2022-04-17T11:23:36Z</time>
      </trkpt>
      <trkpt lat="50.03816" lon="1.97722">
        <ele>9.5</ele>
        <time>2022-04-17T11:23:37Z</time>
      </trkpt>
      <trkpt lat="50.03816" lon="1.97722">
        <ele>9.5</ele>
        <time>2022-04-17T11:23:38Z</time>
      </trkpt>
      <trkpt lat="50.03816" lon="1.97722">
        <ele>9.5</ele>
        <time>2022-04-17T11:23:39Z</time>
      </trkpt>
      <trkpt lat="50.03816" lon="1.97722">
        <ele>9.5</ele>
        <time>2022-04-17T11:23:40Z</time>
      </trkpt>
      <trkpt lat="50.03816" lon="1.97722">
        <ele>9.5</ele>
        <time>2022-04-17T11:23:41Z</time>
      </trkpt>
      <trkpt lat="50.03816" lon="1.97722">
        <ele>9.5</ele>
        <time>2022-04-17T11:23:42Z</time>
      </trkpt>
      <trkpt lat="50.03816" lon="1.97722">
        <ele>9.5</ele>
        <time>2022-04-17T11:23:43Z</time>
      </trkpt>
      <trkpt lat="50.03816" lon="1.97722">
        <ele>9.5</ele>
        <time>2022-04-17T11:23:44Z</time>
      </trkpt>
      <trkpt lat="50.03816" lon="1.97722">
        <ele>9.5</ele>
        <time>2022-04-17T11:23:45Z</time>
      </trkpt>
      <trkpt lat="50.03816" lon="1.97722">
        <ele>9.5</ele>
        <time>2022-04-17T11:23:46Z</time>
      </trkpt>
      <trkpt lat="50.03816" lon="1.97722">
        <ele>9.5</ele>
        <time>2022-04-17T11:23:47Z</time>
      </trkpt>
      <trkpt lat="50.03816" lon="1.97722">
        <ele>9.5</ele>
        <time>2022-04-17T11:23:48Z</time>
      </trkpt>
      <trkpt lat="50.03816" lon="1.97722">
        <ele>9.5</ele>
        <time>2022-04-17T11:23:49Z</time>
      </trkpt>
      <trkpt lat="50.03816" lon="1.97722">
        <ele>9.5</ele>
        <time>2022-04-17T11:23:50Z</time>
      </trkpt>
      <trkpt lat="50.03816" lon="1.97722">
        <ele>9.5</ele>
        <time>2022-04-17T11:23:51Z</time>
      </trkpt>
      <trkpt lat="50.03816" lon="1.97722">
        <ele>9.5</ele>
        <time>2022-04-17T11:23:52Z</time>
      </trkpt>
      <trkpt lat="50.03816" lon="1.97722">
        <ele>9.5</ele>
        <time>2022-04-17T11:23:53Z</time>
      </trkpt>
      <trkpt lat="50.03816" lon="1.97722">
        <ele>9.5</ele>
        <time>2022-04-17T11:23:54Z</time>
      </trkpt>
      <trkpt lat="50.03816" lon="1.97722">
        <ele>9.5</ele>
        <time>2022-04-17T11:23:55Z</time>
      </trkpt>
      <trkpt lat="50.03816" lon="1.97722">
        <ele>9.5</ele>
        <time>2022-04-17T11:23:56Z</time>
      </trkpt>
      <trkpt lat="50.03816" lon="1.97722">
        <ele>9.5</ele>
        <time>2022-04-17T11:23:57Z</time>
      </trkpt>
      <trkpt lat="50.03816" lon="1.97722">
        <ele>9.5</ele>
        <time>2022-04-17T11:23:58Z</time>
      </trkpt>
      <trkpt lat="50.03816" lon="1.97722">
        <ele>9.5</ele>
        <time>2022-04-17T11:23:59Z</time>
      </trkpt>
      <trkpt lat="50.03816" lon="1.97722">
        <ele>9.5</ele>
        <time>2022-04-17T11:24:00Z</time>
      </trkpt>
      <trkpt lat="50.03816" lon="1.97722">
        <ele>9.5</ele>
        <time>2022-04-17T11:24:01Z</time>
      </trkpt>
      <trkpt lat="50.03816" lon="1.97722">
        <ele>9.5</ele>
        <time>2022-04-17T11:24:02Z</time>
      </trkpt>
      <trkpt lat="50.03816" lon="1.97722">
        <ele>9.5</ele>
        <time>2022-04-17T11:24:03Z</time>
      </trkpt>
      <trkpt lat="50.03816" lon="1.97722">
        <ele>9.5</ele>
        <time>2022-04-17T11:24:04Z</time>
      </trkpt>
      <trkpt lat="50.03816" lon="1.97722">
        <ele>9.5</ele>
        <time>2022-04-17T11:24:05Z</time>
      </trkpt>
      <trkpt lat="50.03816" lon="1.97722">
        <ele>9.5</ele>
        <time>2022-04-17T11:24:06Z</time>
      </trkpt>
      <trkpt lat="50.03816" lon="1.97722">
        <ele>9.5</ele>
        <time>2022-04-17T11:24:07Z</time>
      </trkpt>
      <trkpt lat="50.03816" lon="1.97722">
        <ele>9.5</ele>
        <time>2022-04-17T11:24:08Z</time>
      </trkpt>
      <trkpt lat="50.03816" lon="1.97722">
        <ele>9.5</ele>
        <time>2022-04-17T11:24:09Z</time>
      </trkpt>
      <trkpt lat="50.03816" lon="1.97722">
        <ele>9.5</ele>
        <time>2022-04-17T11:24:10Z</time>
      </trkpt>
      <trkpt lat="50.03816" lon="1.97722">
        <ele>9.5</ele>
        <time>2022-04-17T11:24:11Z</time>
      </trkpt>
      <trkpt lat="50.03816" lon="1.97722">
        <ele>9.5</ele>
        <time>2022-04-17T11:24:12Z</time>
      </trkpt>
      <trkpt lat="50.03816" lon="1.97722">
        <ele>9.5</ele>
        <time>2022-04-17T11:24:13Z</time>
      </trkpt>
      <trkpt lat="50.03816" lon="1.97722">
        <ele>9.5</ele>
        <time>2022-04-17T11:24:14Z</time>
      </trkpt>
      <trkpt lat="50.03816" lon="1.97722">
        <ele>9.5</ele>
        <time>2022-04-17T11:24:15Z</time>
      </trkpt>
      <trkpt lat="50.03816" lon="1.97722">
        <ele>9.5</ele>
        <time>2022-04-17T11:24:16Z</time>
      </trkpt>
      <trkpt lat="50.03816" lon="1.97722">
        <ele>9.5</ele>
        <time>2022-04-17T11:24:17Z</time>
      </trkpt>
      <trkpt lat="50.03816" lon="1.97722">
        <ele>9.5</ele>
        <time>2022-04-17T11:24:18Z</time>
      </trkpt>
      <trkpt lat="50.03816" lon="1.97722">
        <ele>9.5</ele>
        <time>2022-04-17T11:24:19Z</time>
      </trkpt>
      <trkpt lat="50.03816" lon="1.97722">
        <ele>9.5</ele>
        <time>2022-04-17T11:24:20Z</time>
      </trkpt>
      <trkpt lat="50.03816" lon="1.97722">
        <ele>9.5</ele>
        <time>2022-04-17T11:24:21Z</time>
      </trkpt>
      <trkpt lat="50.03816" lon="1.97722">
        <ele>9.5</ele>
        <time>2022-04-17T11:24:22Z</time>
      </trkpt>
      <trkpt lat="50.03816" lon="1.97722">
        <ele>9.5</ele>
        <time>2022-04-17T11:24:23Z</time>
      </trkpt>
      <trkpt lat="50.03816" lon="1.97722">
        <ele>9.5</ele>
        <time>2022-04-17T11:24:24Z</time>
      </trkpt>
      <trkpt lat="50.03816" lon="1.97722">
        <ele>9.5</ele>
        <time>2022-04-17T11:24:25Z</time>
      </trkpt>
      <trkpt lat="50.03816" lon="1.97722">
        <ele>9.5</ele>
        <time>2022-04-17T11:24:26Z</time>
      </trkpt>
      <trkpt lat="50.03816" lon="1.97722">
        <ele>9.5</ele>
        <time>2022-04-17T11:24:27Z</time>
      </trkpt>
      <trkpt lat="50.03816" lon="1.97722">
        <ele>9.5</ele>
        <time>2022-04-17T11:24:28Z</time>
      </trkpt>
      <trkpt lat="50.03816" lon="1.97722">
        <ele>9.5</ele>
        <time>2022-04-17T11:24:29Z</time>
      </trkpt>
      <trkpt lat="50.03816" lon="1.97722">
        <ele>9.5</ele>
        <time>2022-04-17T11:24:30Z</time>
      </trkpt>
      <trkpt lat="50.03816" lon="1.97722">
        <ele>9.5</ele>
        <time>2022-04-17T11:24:31Z</time>
      </trkpt>
      <trkpt lat="50.03816" lon="1.97722">
        <ele>9.5</ele>
        <time>2022-04-17T11:24:32Z</time>
      </trkpt>
      <trkpt lat="50.03816" lon="1.97722">
        <ele>9.5</ele>
        <time>2022-04-17T11:24:33Z</time>
      </trkpt>
      <trkpt lat="50.03816" lon="1.97722">
        <ele>9.5</ele>
        <time>2022-04-17T11:24:34Z</time>
      </trkpt>
      <trkpt lat="50.03816" lon="1.97722">
        <ele>9.5</ele>
        <time>2022-04-17T11:24:35Z</time>
      </trkpt>
      <trkpt lat="50.03816" lon="1.97722">
        <ele>9.5</ele>
        <time>2022-04-17T11:24:36Z</time>
      </trkpt>
      <trkpt lat="50.03816" lon="1.97722">
        <ele>9.5</ele>
        <time>2022-04-17T11:24:37Z</time>
      </trkpt>
      <trkpt lat="50.03816" lon="1.97722">
        <ele>9.5</ele>
        <time>2022-04-17T11:24:38Z</time>
      </trkpt>
      <trkpt lat="50.03816" lon="1.97722">
        <ele>9.5</ele>
        <time>2022-04-17T11:24:39Z</time>
      </trkpt>
      <trkpt lat="50.03816" lon="1.97722">
        <ele>9.5</ele>
        <time>2022-04-17T11:24:40Z</time>
      </trkpt>
      <trkpt lat="50.03816" lon="1.97722">
        <ele>9.5</ele>
        <time>2022-04-17T11:24:41Z</time>
      </trkpt>
      <trkpt lat="50.03816" lon="1.97722">
        <ele>9.5</ele>
        <time>2022-04-17T11:24:42Z</time>
      </trkpt>
      <trkpt lat="50.03816" lon="1.97722">
        <ele>9.5</ele>
        <time>2022-04-17T11:24:43Z</time>
      </trkpt>
      <trkpt lat="50.03817" lon="1.97722">
        <ele>9.5</ele>
        <time>2022-04-17T11:24:44Z</time>
      </trkpt>
      <trkpt lat="50.03817" lon="1.97722">
        <ele>9.5</ele>
        <time>2022-04-17T11:24:45Z</time>
      </trkpt>
      <trkpt lat="50.03817" lon="1.97722">
        <ele>9.5</ele>
        <time>2022-04-17T11:24:46Z</time>
      </trkpt>
      <trkpt lat="50.03817" lon="1.97722">
        <ele>9.5</ele>
        <time>2022-04-17T11:24:47Z</time>
      </trkpt>
      <trkpt lat="50.03817" lon="1.97722">
        <ele>9.5</ele>
        <time>2022-04-17T11:24:48Z</time>
      </trkpt>
      <trkpt lat="50.03817" lon="1.97722">
        <ele>9.5</ele>
        <time>2022-04-17T11:24:49Z</time>
      </trkpt>
      <trkpt lat="50.03817" lon="1.97722">
        <ele>9.5</ele>
        <time>2022-04-17T11:24:50Z</time>
      </trkpt>
      <trkpt lat="50.03817" lon="1.97722">
        <ele>9.5</ele>
        <time>2022-04-17T11:24:51Z</time>
      </trkpt>
      <trkpt lat="50.03817" lon="1.97722">
        <ele>9.5</ele>
        <time>2022-04-17T11:24:52Z</time>
      </trkpt>
      <trkpt lat="50.03817" lon="1.97722">
        <ele>9.5</ele>
        <time>2022-04-17T11:24:53Z</time>
      </trkpt>
      <trkpt lat="50.03817" lon="1.97722">
        <ele>9.5</ele>
        <time>2022-04-17T11:24:54Z</time>
      </trkpt>
      <trkpt lat="50.03817" lon="1.97722">
        <ele>9.5</ele>
        <time>2022-04-17T11:24:55Z</time>
      </trkpt>
      <trkpt lat="50.03817" lon="1.97722">
        <ele>9.5</ele>
        <time>2022-04-17T11:24:56Z</time>
      </trkpt>
      <trkpt lat="50.03817" lon="1.97722">
        <ele>9.5</ele>
        <time>2022-04-17T11:24:57Z</time>
      </trkpt>
      <trkpt lat="50.03817" lon="1.97722">
        <ele>9.5</ele>
        <time>2022-04-17T11:24:58Z</time>
      </trkpt>
      <trkpt lat="50.03817" lon="1.97722">
        <ele>9.5</ele>
        <time>2022-04-17T11:24:59Z</time>
      </trkpt>
      <trkpt lat="50.03817" lon="1.97722">
        <ele>9.5</ele>
        <time>2022-04-17T11:25:00Z</time>
      </trkpt>
      <trkpt lat="50.03817" lon="1.97722">
        <ele>9.5</ele>
        <time>2022-04-17T11:25:01Z</time>
      </trkpt>
      <trkpt lat="50.03817" lon="1.97722">
        <ele>9.5</ele>
        <time>2022-04-17T11:25:02Z</time>
      </trkpt>
      <trkpt lat="50.03817" lon="1.97722">
        <ele>9.5</ele>
        <time>2022-04-17T11:25:03Z</time>
      </trkpt>
      <trkpt lat="50.03817" lon="1.97722">
        <ele>9.5</ele>
        <time>2022-04-17T11:25:04Z</time>
      </trkpt>
      <trkpt lat="50.03817" lon="1.97722">
        <ele>9.5</ele>
        <time>2022-04-17T11:25:05Z</time>
      </trkpt>
      <trkpt lat="50.03817" lon="1.97722">
        <ele>9.5</ele>
        <time>2022-04-17T11:25:06Z</time>
      </trkpt>
      <trkpt lat="50.03817" lon="1.97722">
        <ele>9.5</ele>
        <time>2022-04-17T11:25:07Z</time>
      </trkpt>
      <trkpt lat="50.03817" lon="1.97722">
        <ele>9.5</ele>
        <time>2022-04-17T11:25:08Z</time>
      </trkpt>
      <trkpt lat="50.03817" lon="1.97722">
        <ele>9.5</ele>
        <time>2022-04-17T11:25:09Z</time>
      </trkpt>
      <trkpt lat="50.03817" lon="1.97722">
        <ele>9.5</ele>
        <time>2022-04-17T11:25:10Z</time>
      </trkpt>
      <trkpt lat="50.03817" lon="1.97722">
        <ele>9.5</ele>
        <time>2022-04-17T11:25:11Z</time>
      </trkpt>
      <trkpt lat="50.03817" lon="1.97722">
        <ele>9.5</ele>
        <time>2022-04-17T11:25:12Z</time>
      </trkpt>
      <trkpt lat="50.03817" lon="1.97722">
        <ele>9.5</ele>
        <time>2022-04-17T11:25:13Z</time>
      </trkpt>
      <trkpt lat="50.03817" lon="1.97722">
        <ele>9.5</ele>
        <time>2022-04-17T11:25:14Z</time>
      </trkpt>
      <trkpt lat="50.03817" lon="1.97722">
        <ele>9.5</ele>
        <time>2022-04-17T11:25:15Z</time>
      </trkpt>
      <trkpt lat="50.03817" lon="1.97722">
        <ele>9.5</ele>
        <time>2022-04-17T11:25:16Z</time>
      </trkpt>
      <trkpt lat="50.03817" lon="1.97722">
        <ele>9.5</ele>
        <time>2022-04-17T11:25:17Z</time>
      </trkpt>
      <trkpt lat="50.03817" lon="1.97722">
        <ele>9.5</ele>
        <time>2022-04-17T11:25:18Z</time>
      </trkpt>
      <trkpt lat="50.03817" lon="1.97722">
        <ele>9.5</ele>
        <time>2022-04-17T11:25:19Z</time>
      </trkpt>
      <trkpt lat="50.03817" lon="1.97722">
        <ele>9.5</ele>
        <time>2022-04-17T11:25:20Z</time>
      </trkpt>
      <trkpt lat="50.03817" lon="1.97722">
        <ele>9.5</ele>
        <time>2022-04-17T11:25:21Z</time>
      </trkpt>
      <trkpt lat="50.03817" lon="1.97722">
        <ele>9.5</ele>
        <time>2022-04-17T11:25:22Z</time>
      </trkpt>
      <trkpt lat="50.03817" lon="1.97722">
        <ele>9.5</ele>
        <time>2022-04-17T11:25:23Z</time>
      </trkpt>
      <trkpt lat="50.03817" lon="1.97722">
        <ele>9.5</ele>
        <time>2022-04-17T11:25:24Z</time>
      </trkpt>
      <trkpt lat="50.03817" lon="1.97722">
        <ele>9.5</ele>
        <time>2022-04-17T11:25:25Z</time>
      </trkpt>
      <trkpt lat="50.03817" lon="1.97722">
        <ele>9.5</ele>
        <time>2022-04-17T11:25:26Z</time>
      </trkpt>
      <trkpt lat="50.03817" lon="1.97722">
        <ele>9.5</ele>
        <time>2022-04-17T11:25:27Z</time>
      </trkpt>
      <trkpt lat="50.03817" lon="1.97722">
        <ele>9.5</ele>
        <time>2022-04-17T11:25:28Z</time>
      </trkpt>
      <trkpt lat="50.03817" lon="1.97722">
        <ele>9.5</ele>
        <time>2022-04-17T11:25:29Z</time>
      </trkpt>
      <trkpt lat="50.03817" lon="1.97722">
        <ele>9.5</ele>
        <time>2022-04-17T11:25:30Z</time>
      </trkpt>
      <trkpt lat="50.03817" lon="1.97722">
        <ele>9.5</ele>
        <time>2022-04-17T11:25:31Z</time>
      </trkpt>
      <trkpt lat="50.03817" lon="1.97722">
        <ele>9.5</ele>
        <time>2022-04-17T11:25:32Z</time>
      </trkpt>
      <trkpt lat="50.03817" lon="1.97722">
        <ele>9.5</ele>
        <time>2022-04-17T11:25:33Z</time>
      </trkpt>
      <trkpt lat="50.03817" lon="1.97722">
        <ele>9.5</ele>
        <time>2022-04-17T11:25:34Z</time>
      </trkpt>
      <trkpt lat="50.03817" lon="1.97722">
        <ele>9.5</ele>
        <time>2022-04-17T11:25:35Z</time>
      </trkpt>
      <trkpt lat="50.03817" lon="1.97722">
        <ele>9.5</ele>
        <time>2022-04-17T11:25:36Z</time>
      </trkpt>
      <trkpt lat="50.03817" lon="1.97722">
        <ele>9.5</ele>
        <time>2022-04-17T11:25:37Z</time>
      </trkpt>
      <trkpt lat="50.03817" lon="1.97722">
        <ele>9.5</ele>
        <time>2022-04-17T11:25:38Z</time>
      </trkpt>
      <trkpt lat="50.03817" lon="1.97722">
        <ele>9.5</ele>
        <time>2022-04-17T11:25:39Z</time>
      </trkpt>
      <trkpt lat="50.03817" lon="1.97722">
        <ele>9.5</ele>
        <time>2022-04-17T11:25:40Z</time>
      </trkpt>
      <trkpt lat="50.03817" lon="1.97722">
        <ele>9.5</ele>
        <time>2022-04-17T11:25:41Z</time>
      </trkpt>
      <trkpt lat="50.03817" lon="1.97722">
        <ele>9.5</ele>
        <time>2022-04-17T11:25:42Z</time>
      </trkpt>
      <trkpt lat="50.03817" lon="1.97722">
        <ele>9.5</ele>
        <time>2022-04-17T11:25:43Z</time>
      </trkpt>
      <trkpt lat="50.03817" lon="1.97722">
        <ele>9.5</ele>
        <time>2022-04-17T11:25:44Z</time>
      </trkpt>
      <trkpt lat="50.03817" lon="1.97722">
        <ele>9.5</ele>
        <time>2022-04-17T11:25:45Z</time>
      </trkpt>
      <trkpt lat="50.03817" lon="1.97722">
        <ele>9.5</ele>
        <time>2022-04-17T11:25:46Z</time>
      </trkpt>
      <trkpt lat="50.03817" lon="1.97722">
        <ele>9.5</ele>
        <time>2022-04-17T11:25:47Z</time>
      </trkpt>
      <trkpt lat="50.03817" lon="1.97722">
        <ele>9.5</ele>
        <time>2022-04-17T11:25:48Z</time>
      </trkpt>
      <trkpt lat="50.03817" lon="1.97722">
        <ele>9.5</ele>
        <time>2022-04-17T11:25:49Z</time>
      </trkpt>
      <trkpt lat="50.03817" lon="1.97722">
        <ele>9.5</ele>
        <time>2022-04-17T11:25:50Z</time>
      </trkpt>
      <trkpt lat="50.03817" lon="1.97722">
        <ele>9.5</ele>
        <time>2022-04-17T11:25:51Z</time>
      </trkpt>
      <trkpt lat="50.03817" lon="1.97722">
        <ele>9.5</ele>
        <time>2022-04-17T11:25:52Z</time>
      </trkpt>
      <trkpt lat="50.03817" lon="1.97722">
        <ele>9.5</ele>
        <time>2022-04-17T11:25:53Z</time>
      </trkpt>
      <trkpt lat="50.03817" lon="1.97722">
        <ele>9.5</ele>
        <time>2022-04-17T11:25:54Z</time>
      </trkpt>
      <trkpt lat="50.03817" lon="1.97722">
        <ele>9.5</ele>
        <time>2022-04-17T11:25:55Z</time>
      </trkpt>
      <trkpt lat="50.03817" lon="1.97722">
        <ele>9.5</ele>
        <time>2022-04-17T11:25:56Z</time>
      </trkpt>
      <trkpt lat="50.03817" lon="1.97722">
        <ele>9.5</ele>
        <time>2022-04-17T11:25:57Z</time>
      </trkpt>
      <trkpt lat="50.03817" lon="1.97722">
        <ele>9.5</ele>
        <time>2022-04-17T11:25:58Z</time>
      </trkpt>
      <trkpt lat="50.03817" lon="1.97722">
        <ele>9.5</ele>
        <time>2022-04-17T11:25:59Z</time>
      </trkpt>
      <trkpt lat="50.03817" lon="1.97722">
        <ele>9.5</ele>
        <time>2022-04-17T11:26:00Z</time>
      </trkpt>
      <trkpt lat="50.03817" lon="1.97722">
        <ele>9.5</ele>
        <time>2022-04-17T11:26:01Z</time>
      </trkpt>
      <trkpt lat="50.03817" lon="1.97722">
        <ele>9.5</ele>
        <time>2022-04-17T11:26:02Z</time>
      </trkpt>
      <trkpt lat="50.03817" lon="1.97722">
        <ele>9.5</ele>
        <time>2022-04-17T11:26:03Z</time>
      </trkpt>
      <trkpt lat="50.03817" lon="1.97722">
        <ele>9.5</ele>
        <time>2022-04-17T11:26:04Z</time>
      </trkpt>
      <trkpt lat="50.03817" lon="1.97721">
        <ele>9.5</ele>
        <time>2022-04-17T11:26:05Z</time>
      </trkpt>
      <trkpt lat="50.03817" lon="1.97721">
        <ele>9.5</ele>
        <time>2022-04-17T11:26:06Z</time>
      </trkpt>
      <trkpt lat="50.03817" lon="1.97721">
        <ele>9.5</ele>
        <time>2022-04-17T11:26:07Z</time>
      </trkpt>
      <trkpt lat="50.03817" lon="1.97721">
        <ele>9.5</ele>
        <time>2022-04-17T11:26:08Z</time>
      </trkpt>
      <trkpt lat="50.03817" lon="1.97721">
        <ele>9.5</ele>
        <time>2022-04-17T11:26:09Z</time>
      </trkpt>
      <trkpt lat="50.03817" lon="1.97721">
        <ele>9.5</ele>
        <time>2022-04-17T11:26:10Z</time>
      </trkpt>
      <trkpt lat="50.03817" lon="1.97721">
        <ele>9.5</ele>
        <time>2022-04-17T11:26:11Z</time>
      </trkpt>
      <trkpt lat="50.03817" lon="1.97721">
        <ele>9.5</ele>
        <time>2022-04-17T11:26:12Z</time>
      </trkpt>
      <trkpt lat="50.03817" lon="1.97721">
        <ele>9.5</ele>
        <time>2022-04-17T11:26:13Z</time>
      </trkpt>
      <trkpt lat="50.03817" lon="1.97721">
        <ele>9.5</ele>
        <time>2022-04-17T11:26:14Z</time>
      </trkpt>
      <trkpt lat="50.03817" lon="1.97721">
        <ele>9.5</ele>
        <time>2022-04-17T11:26:15Z</time>
      </trkpt>
      <trkpt lat="50.03817" lon="1.97721">
        <ele>9.5</ele>
        <time>2022-04-17T11:26:16Z</time>
      </trkpt>
      <trkpt lat="50.03817" lon="1.97721">
        <ele>9.5</ele>
        <time>2022-04-17T11:26:17Z</time>
      </trkpt>
      <trkpt lat="50.03817" lon="1.97721">
        <ele>9.5</ele>
        <time>2022-04-17T11:26:18Z</time>
      </trkpt>
      <trkpt lat="50.03817" lon="1.97721">
        <ele>9.5</ele>
        <time>2022-04-17T11:26:19Z</time>
      </trkpt>
      <trkpt lat="50.03817" lon="1.97721">
        <ele>9.5</ele>
        <time>2022-04-17T11:26:20Z</time>
      </trkpt>
      <trkpt lat="50.03817" lon="1.97721">
        <ele>9.5</ele>
        <time>2022-04-17T11:26:21Z</time>
      </trkpt>
      <trkpt lat="50.03817" lon="1.97721">
        <ele>9.5</ele>
        <time>2022-04-17T11:26:22Z</time>
      </trkpt>
      <trkpt lat="50.03817" lon="1.97721">
        <ele>9.5</ele>
        <time>2022-04-17T11:26:23Z</time>
      </trkpt>
      <trkpt lat="50.03817" lon="1.97721">
        <ele>9.5</ele>
        <time>2022-04-17T11:26:24Z</time>
      </trkpt>
      <trkpt lat="50.03817" lon="1.97721">
        <ele>9.5</ele>
        <time>2022-04-17T11:26:25Z</time>
      </trkpt>
      <trkpt lat="50.03817" lon="1.97721">
        <ele>9.5</ele>
        <time>2022-04-17T11:26:26Z</time>
      </trkpt>
      <trkpt lat="50.03817" lon="1.97721">
        <ele>9.5</ele>
        <time>2022-04-17T11:26:27Z</time>
      </trkpt>
      <trkpt lat="50.03817" lon="1.97721">
        <ele>9.5</ele>
        <time>2022-04-17T11:26:28Z</time>
      </trkpt>
      <trkpt lat="50.03817" lon="1.97721">
        <ele>9.5</ele>
        <time>2022-04-17T11:26:29Z</time>
      </trkpt>
      <trkpt lat="50.03817" lon="1.97721">
        <ele>9.5</ele>
        <time>2022-04-17T11:26:30Z</time>
      </trkpt>
      <trkpt lat="50.03817" lon="1.97721">
        <ele>9.5</ele>
        <time>2022-04-17T11:26:31Z</time>
      </trkpt>
      <trkpt lat="50.03817" lon="1.97721">
        <ele>9.5</ele>
        <time>2022-04-17T11:26:32Z</time>
      </trkpt>
      <trkpt lat="50.03817" lon="1.97721">
        <ele>9.5</ele>
        <time>2022-04-17T11:26:33Z</time>
      </trkpt>
      <trkpt lat="50.03817" lon="1.97721">
        <ele>9.5</ele>
        <time>2022-04-17T11:26:34Z</time>
      </trkpt>
      <trkpt lat="50.03817" lon="1.97721">
        <ele>9.5</ele>
        <time>2022-04-17T11:26:35Z</time>
      </trkpt>
      <trkpt lat="50.03817" lon="1.97721">
        <ele>9.5</ele>
        <time>2022-04-17T11:26:36Z</time>
      </trkpt>
      <trkpt lat="50.03817" lon="1.97721">
        <ele>9.5</ele>
        <time>2022-04-17T11:26:37Z</time>
      </trkpt>
      <trkpt lat="50.03817" lon="1.97721">
        <ele>9.5</ele>
        <time>2022-04-17T11:26:38Z</time>
      </trkpt>
      <trkpt lat="50.03817" lon="1.97721">
        <ele>9.5</ele>
        <time>2022-04-17T11:26:40Z</time>
      </trkpt>
      <trkpt lat="50.03817" lon="1.97721">
        <ele>9.5</ele>
        <time>2022-04-17T11:26:41Z</time>
      </trkpt>
      <trkpt lat="50.03817" lon="1.97721">
        <ele>9.5</ele>
        <time>2022-04-17T11:26:42Z</time>
      </trkpt>
      <trkpt lat="50.03817" lon="1.97721">
        <ele>9.5</ele>
        <time>2022-04-17T11:26:43Z</time>
      </trkpt>
      <trkpt lat="50.03817" lon="1.97721">
        <ele>9.5</ele>
        <time>2022-04-17T11:26:44Z</time>
      </trkpt>
      <trkpt lat="50.03817" lon="1.97721">
        <ele>9.5</ele>
        <time>2022-04-17T11:26:45Z</time>
      </trkpt>
      <trkpt lat="50.03817" lon="1.97721">
        <ele>9.5</ele>
        <time>2022-04-17T11:26:46Z</time>
      </trkpt>
      <trkpt lat="50.03817" lon="1.97721">
        <ele>9.5</ele>
        <time>2022-04-17T11:26:47Z</time>
      </trkpt>
      <trkpt lat="50.03817" lon="1.97721">
        <ele>9.5</ele>
        <time>2022-04-17T11:26:48Z</time>
      </trkpt>
      <trkpt lat="50.03817" lon="1.97721">
        <ele>9.5</ele>
        <time>2022-04-17T11:26:49Z</time>
      </trkpt>
      <trkpt lat="50.03817" lon="1.97721">
        <ele>9.5</ele>
        <time>2022-04-17T11:26:50Z</time>
      </trkpt>
      <trkpt lat="50.03817" lon="1.97721">
        <ele>9.5</ele>
        <time>2022-04-17T11:26:51Z</time>
      </trkpt>
      <trkpt lat="50.03817" lon="1.97721">
        <ele>9.5</ele>
        <time>2022-04-17T11:26:52Z</time>
      </trkpt>
      <trkpt lat="50.03817" lon="1.97721">
        <ele>9.5</ele>
        <time>2022-04-17T11:26:53Z</time>
      </trkpt>
      <trkpt lat="50.03817" lon="1.97721">
        <ele>9.5</ele>
        <time>2022-04-17T11:26:54Z</time>
      </trkpt>
      <trkpt lat="50.03817" lon="1.97721">
        <ele>9.5</ele>
        <time>2022-04-17T11:26:55Z</time>
      </trkpt>
      <trkpt lat="50.03817" lon="1.97721">
        <ele>9.5</ele>
        <time>2022-04-17T11:26:56Z</time>
      </trkpt>
      <trkpt lat="50.03817" lon="1.97721">
        <ele>9.5</ele>
        <time>2022-04-17T11:26:57Z</time>
      </trkpt>
      <trkpt lat="50.03817" lon="1.97721">
        <ele>9.5</ele>
        <time>2022-04-17T11:26:58Z</time>
      </trkpt>
      <trkpt lat="50.03817" lon="1.97721">
        <ele>9.5</ele>
        <time>2022-04-17T11:26:59Z</time>
      </trkpt>
      <trkpt lat="50.03817" lon="1.97721">
        <ele>9.5</ele>
        <time>2022-04-17T11:27:00Z</time>
      </trkpt>
      <trkpt lat="50.03817" lon="1.97721">
        <ele>9.5</ele>
        <time>2022-04-17T11:27:01Z</time>
      </trkpt>
      <trkpt lat="50.03817" lon="1.97721">
        <ele>9.5</ele>
        <time>2022-04-17T11:27:02Z</time>
      </trkpt>
      <trkpt lat="50.03817" lon="1.97721">
        <ele>9.5</ele>
        <time>2022-04-17T11:27:03Z</time>
      </trkpt>
      <trkpt lat="50.03817" lon="1.97721">
        <ele>9.5</ele>
        <time>2022-04-17T11:27:04Z</time>
      </trkpt>
      <trkpt lat="50.03817" lon="1.97721">
        <ele>9.5</ele>
        <time>2022-04-17T11:27:05Z</time>
      </trkpt>
      <trkpt lat="50.03817" lon="1.97721">
        <ele>9.5</ele>
        <time>2022-04-17T11:27:06Z</time>
      </trkpt>
      <trkpt lat="50.03817" lon="1.97721">
        <ele>9.5</ele>
        <time>2022-04-17T11:27:07Z</time>
      </trkpt>
      <trkpt lat="50.03817" lon="1.97721">
        <ele>9.5</ele>
        <time>2022-04-17T11:27:08Z</time>
      </trkpt>
      <trkpt lat="50.03817" lon="1.97721">
        <ele>9.5</ele>
        <time>2022-04-17T11:27:09Z</time>
      </trkpt>
      <trkpt lat="50.03817" lon="1.97721">
        <ele>9.5</ele>
        <time>2022-04-17T11:27:10Z</time>
      </trkpt>
      <trkpt lat="50.03817" lon="1.97721">
        <ele>9.5</ele>
        <time>2022-04-17T11:27:11Z</time>
      </trkpt>
      <trkpt lat="50.03817" lon="1.97721">
        <ele>9.5</ele>
        <time>2022-04-17T11:27:12Z</time>
      </trkpt>
      <trkpt lat="50.03817" lon="1.97721">
        <ele>9.5</ele>
        <time>2022-04-17T11:27:13Z</time>
      </trkpt>
      <trkpt lat="50.03817" lon="1.97721">
        <ele>9.5</ele>
        <time>2022-04-17T11:27:14Z</time>
      </trkpt>
      <trkpt lat="50.03817" lon="1.97721">
        <ele>9.5</ele>
        <time>2022-04-17T11:27:15Z</time>
      </trkpt>
      <trkpt lat="50.03817" lon="1.97721">
        <ele>9.5</ele>
        <time>2022-04-17T11:27:16Z</time>
      </trkpt>
      <trkpt lat="50.03817" lon="1.97721">
        <ele>9.5</ele>
        <time>2022-04-17T11:27:17Z</time>
      </trkpt>
      <trkpt lat="50.03817" lon="1.97721">
        <ele>9.5</ele>
        <time>2022-04-17T11:27:18Z</time>
      </trkpt>
      <trkpt lat="50.03817" lon="1.97721">
        <ele>9.5</ele>
        <time>2022-04-17T11:27:19Z</time>
      </trkpt>
      <trkpt lat="50.03817" lon="1.97721">
        <ele>9.5</ele>
        <time>2022-04-17T11:27:20Z</time>
      </trkpt>
      <trkpt lat="50.03817" lon="1.97721">
        <ele>9.5</ele>
        <time>2022-04-17T11:27:21Z</time>
      </trkpt>
      <trkpt lat="50.03817" lon="1.97721">
        <ele>9.5</ele>
        <time>2022-04-17T11:27:22Z</time>
      </trkpt>
      <trkpt lat="50.03817" lon="1.97721">
        <ele>9.5</ele>
        <time>2022-04-17T11:27:23Z</time>
      </trkpt>
      <trkpt lat="50.03817" lon="1.97721">
        <ele>9.5</ele>
        <time>2022-04-17T11:27:24Z</time>
      </trkpt>
      <trkpt lat="50.03817" lon="1.97721">
        <ele>9.5</ele>
        <time>2022-04-17T11:27:25Z</time>
      </trkpt>
      <trkpt lat="50.03817" lon="1.97721">
        <ele>9.5</ele>
        <time>2022-04-17T11:27:26Z</time>
      </trkpt>
      <trkpt lat="50.03817" lon="1.97721">
        <ele>9.5</ele>
        <time>2022-04-17T11:27:27Z</time>
      </trkpt>
      <trkpt lat="50.03817" lon="1.97721">
        <ele>9.5</ele>
        <time>2022-04-17T11:27:28Z</time>
      </trkpt>
      <trkpt lat="50.03817" lon="1.97721">
        <ele>9.5</ele>
        <time>2022-04-17T11:27:29Z</time>
      </trkpt>
      <trkpt lat="50.03817" lon="1.97721">
        <ele>9.5</ele>
        <time>2022-04-17T11:27:30Z</time>
      </trkpt>
      <trkpt lat="50.03817" lon="1.97721">
        <ele>9.5</ele>
        <time>2022-04-17T11:27:31Z</time>
      </trkpt>
      <trkpt lat="50.03817" lon="1.97721">
        <ele>9.5</ele>
        <time>2022-04-17T11:27:32Z</time>
      </trkpt>
      <trkpt lat="50.03817" lon="1.97721">
        <ele>9.5</ele>
        <time>2022-04-17T11:27:33Z</time>
      </trkpt>
      <trkpt lat="50.03817" lon="1.97721">
        <ele>9.5</ele>
        <time>2022-04-17T11:27:34Z</time>
      </trkpt>
      <trkpt lat="50.03817" lon="1.97721">
        <ele>9.5</ele>
        <time>2022-04-17T11:27:35Z</time>
      </trkpt>
      <trkpt lat="50.03817" lon="1.97721">
        <ele>9.5</ele>
        <time>2022-04-17T11:27:36Z</time>
      </trkpt>
      <trkpt lat="50.03817" lon="1.97721">
        <ele>9.5</ele>
        <time>2022-04-17T11:27:38Z</time>
      </trkpt>
      <trkpt lat="50.03817" lon="1.97721">
        <ele>9.5</ele>
        <time>2022-04-17T11:27:39Z</time>
      </trkpt>
      <trkpt lat="50.03817" lon="1.97721">
        <ele>9.5</ele>
        <time>2022-04-17T11:27:40Z</time>
      </trkpt>
      <trkpt lat="50.03817" lon="1.97721">
        <ele>9.5</ele>
        <time>2022-04-17T11:27:41Z</time>
      </trkpt>
      <trkpt lat="50.03817" lon="1.97721">
        <ele>9.5</ele>
        <time>2022-04-17T11:27:43Z</time>
      </trkpt>
      <trkpt lat="50.03817" lon="1.97721">
        <ele>9.5</ele>
        <time>2022-04-17T11:27:44Z</time>
      </trkpt>
      <trkpt lat="50.03817" lon="1.97721">
        <ele>9.5</ele>
        <time>2022-04-17T11:27:45Z</time>
      </trkpt>
      <trkpt lat="50.03817" lon="1.97721">
        <ele>9.5</ele>
        <time>2022-04-17T11:27:46Z</time>
      </trkpt>
      <trkpt lat="50.03817" lon="1.97721">
        <ele>9.5</ele>
        <time>2022-04-17T11:27:47Z</time>
      </trkpt>
      <trkpt lat="50.03817" lon="1.97721">
        <ele>9.5</ele>
        <time>2022-04-17T11:27:48Z</time>
      </trkpt>
      <trkpt lat="50.03817" lon="1.97721">
        <ele>9.5</ele>
        <time>2022-04-17T11:27:49Z</time>
      </trkpt>
      <trkpt lat="50.03817" lon="1.97721">
        <ele>9.5</ele>
        <time>2022-04-17T11:27:50Z</time>
      </trkpt>
      <trkpt lat="50.03817" lon="1.97721">
        <ele>9.5</ele>
        <time>2022-04-17T11:27:51Z</time>
      </trkpt>
      <trkpt lat="50.03817" lon="1.97721">
        <ele>9.5</ele>
        <time>2022-04-17T11:27:52Z</time>
      </trkpt>
      <trkpt lat="50.03817" lon="1.97721">
        <ele>9.5</ele>
        <time>2022-04-17T11:27:53Z</time>
      </trkpt>
      <trkpt lat="50.03817" lon="1.97721">
        <ele>9.5</ele>
        <time>2022-04-17T11:27:55Z</time>
      </trkpt>
      <trkpt lat="50.03817" lon="1.97721">
        <ele>9.5</ele>
        <time>2022-04-17T11:27:56Z</time>
      </trkpt>
      <trkpt lat="50.03817" lon="1.97721">
        <ele>9.5</ele>
        <time>2022-04-17T11:27:57Z</time>
      </trkpt>
      <trkpt lat="50.03817" lon="1.97721">
        <ele>9.5</ele>
        <time>2022-04-17T11:27:58Z</time>
      </trkpt>
      <trkpt lat="50.03817" lon="1.97721">
        <ele>9.5</ele>
        <time>2022-04-17T11:27:59Z</time>
      </trkpt>
      <trkpt lat="50.03817" lon="1.97721">
        <ele>9.5</ele>
        <time>2022-04-17T11:28:00Z</time>
      </trkpt>
      <trkpt lat="50.03817" lon="1.97721">
        <ele>9.5</ele>
        <time>2022-04-17T11:28:01Z</time>
      </trkpt>
      <trkpt lat="50.03817" lon="1.97721">
        <ele>9.5</ele>
        <time>2022-04-17T11:28:02Z</time>
      </trkpt>
      <trkpt lat="50.03817" lon="1.97721">
        <ele>9.5</ele>
        <time>2022-04-17T11:28:03Z</time>
      </trkpt>
      <trkpt lat="50.03817" lon="1.97721">
        <ele>9.5</ele>
        <time>2022-04-17T11:28:04Z</time>
      </trkpt>
      <trkpt lat="50.03817" lon="1.97721">
        <ele>9.5</ele>
        <time>2022-04-17T11:28:06Z</time>
      </trkpt>
      <trkpt lat="50.03817" lon="1.97721">
        <ele>9.5</ele>
        <time>2022-04-17T11:28:08Z</time>
      </trkpt>
      <trkpt lat="50.03817" lon="1.97721">
        <ele>9.5</ele>
        <time>2022-04-17T11:28:10Z</time>
      </trkpt>
      <trkpt lat="50.03817" lon="1.97721">
        <ele>9.5</ele>
        <time>2022-04-17T11:28:11Z</time>
      </trkpt>
      <trkpt lat="50.03817" lon="1.97721">
        <ele>9.5</ele>
        <time>2022-04-17T11:28:12Z</time>
      </trkpt>
      <trkpt lat="50.03817" lon="1.97721">
        <ele>9.5</ele>
        <time>2022-04-17T11:28:13Z</time>
      </trkpt>
      <trkpt lat="50.03817" lon="1.97721">
        <ele>9.5</ele>
        <time>2022-04-17T11:28:14Z</time>
      </trkpt>
      <trkpt lat="50.03817" lon="1.97721">
        <ele>9.5</ele>
        <time>2022-04-17T11:28:15Z</time>
      </trkpt>
      <trkpt lat="50.03817" lon="1.97721">
        <ele>9.5</ele>
        <time>2022-04-17T11:28:16Z</time>
      </trkpt>
      <trkpt lat="50.03817" lon="1.97721">
        <ele>9.5</ele>
        <time>2022-04-17T11:28:17Z</time>
      </trkpt>
      <trkpt lat="50.03817" lon="1.97721">
        <ele>9.5</ele>
        <time>2022-04-17T11:28:18Z</time>
      </trkpt>
      <trkpt lat="50.03817" lon="1.97721">
        <ele>9.5</ele>
        <time>2022-04-17T11:28:19Z</time>
      </trkpt>
      <trkpt lat="50.03817" lon="1.97721">
        <ele>9.5</ele>
        <time>2022-04-17T11:28:20Z</time>
      </trkpt>
      <trkpt lat="50.03817" lon="1.97721">
        <ele>9.5</ele>
        <time>2022-04-17T11:28:21Z</time>
      </trkpt>
      <trkpt lat="50.03817" lon="1.97721">
        <ele>9.5</ele>
        <time>2022-04-17T11:28:23Z</time>
      </trkpt>
      <trkpt lat="50.03817" lon="1.97721">
        <ele>9.5</ele>
        <time>2022-04-17T11:28:25Z</time>
      </trkpt>
      <trkpt lat="50.03817" lon="1.97721">
        <ele>9.5</ele>
        <time>2022-04-17T11:28:26Z</time>
      </trkpt>
      <trkpt lat="50.03817" lon="1.97721">
        <ele>9.5</ele>
        <time>2022-04-17T11:28:27Z</time>
      </trkpt>
      <trkpt lat="50.03817" lon="1.97721">
        <ele>9.5</ele>
        <time>2022-04-17T11:28:28Z</time>
      </trkpt>
      <trkpt lat="50.03817" lon="1.97721">
        <ele>9.5</ele>
        <time>2022-04-17T11:28:29Z</time>
      </trkpt>
      <trkpt lat="50.03817" lon="1.97721">
        <ele>9.5</ele>
        <time>2022-04-17T11:28:30Z</time>
      </trkpt>
      <trkpt lat="50.03817" lon="1.97721">
        <ele>9.5</ele>
        <time>2022-04-17T11:28:31Z</time>
      </trkpt>
      <trkpt lat="50.03817" lon="1.97721">
        <ele>9.5</ele>
        <time>2022-04-17T11:28:32Z</time>
      </trkpt>
      <trkpt lat="50.03817" lon="1.97721">
        <ele>9.5</ele>
        <time>2022-04-17T11:28:33Z</time>
      </trkpt>
      <trkpt lat="50.03817" lon="1.97721">
        <ele>9.5</ele>
        <time>2022-04-17T11:28:34Z</time>
      </trkpt>
      <trkpt lat="50.03817" lon="1.97721">
        <ele>9.5</ele>
        <time>2022-04-17T11:28:35Z</time>
      </trkpt>
      <trkpt lat="50.03817" lon="1.97721">
        <ele>9.5</ele>
        <time>2022-04-17T11:28:36Z</time>
      </trkpt>
      <trkpt lat="50.03817" lon="1.97721">
        <ele>9.5</ele>
        <time>2022-04-17T11:28:37Z</time>
      </trkpt>
      <trkpt lat="50.03817" lon="1.97721">
        <ele>9.5</ele>
        <time>2022-04-17T11:28:38Z</time>
      </trkpt>
      <trkpt lat="50.03817" lon="1.97721">
        <ele>9.5</ele>
        <time>2022-04-17T11:28:39Z</time>
      </trkpt>
      <trkpt lat="50.03817" lon="1.97721">
        <ele>9.5</ele>
        <time>2022-04-17T11:28:40Z</time>
      </trkpt>
      <trkpt lat="50.03817" lon="1.97721">
        <ele>9.5</ele>
        <time>2022-04-17T11:28:41Z</time>
      </trkpt>
      <trkpt lat="50.03817" lon="1.97721">
        <ele>9.5</ele>
        <time>2022-04-17T11:28:42Z</time>
      </trkpt>
      <trkpt lat="50.03817" lon="1.97721">
        <ele>9.5</ele>
        <time>2022-04-17T11:28:43Z</time>
      </trkpt>
      <trkpt lat="50.03817" lon="1.97721">
        <ele>9.5</ele>
        <time>2022-04-17T11:28:44Z</time>
      </trkpt>
      <trkpt lat="50.03817" lon="1.97721">
        <ele>9.5</ele>
        <time>2022-04-17T11:28:45Z</time>
      </trkpt>
      <trkpt lat="50.03817" lon="1.97721">
        <ele>9.5</ele>
        <time>2022-04-17T11:28:46Z</time>
      </trkpt>
      <trkpt lat="50.03817" lon="1.97721">
        <ele>9.5</ele>
        <time>2022-04-17T11:28:47Z</time>
      </trkpt>
      <trkpt lat="50.03817" lon="1.97721">
        <ele>9.5</ele>
        <time>2022-04-17T11:28:48Z</time>
      </trkpt>
      <trkpt lat="50.03817" lon="1.97721">
        <ele>9.5</ele>
        <time>2022-04-17T11:28:49Z</time>
      </trkpt>
      <trkpt lat="50.03817" lon="1.97721">
        <ele>9.5</ele>
        <time>2022-04-17T11:28:50Z</time>
      </trkpt>
      <trkpt lat="50.03817" lon="1.97721">
        <ele>9.5</ele>
        <time>2022-04-17T11:28:51Z</time>
      </trkpt>
      <trkpt lat="50.03817" lon="1.97721">
        <ele>9.5</ele>
        <time>2022-04-17T11:28:52Z</time>
      </trkpt>
      <trkpt lat="50.03817" lon="1.97721">
        <ele>9.5</ele>
        <time>2022-04-17T11:28:53Z</time>
      </trkpt>
      <trkpt lat="50.03817" lon="1.97721">
        <ele>9.5</ele>
        <time>2022-04-17T11:28:54Z</time>
      </trkpt>
      <trkpt lat="50.03817" lon="1.97721">
        <ele>9.5</ele>
        <time>2022-04-17T11:28:56Z</time>
      </trkpt>
      <trkpt lat="50.03817" lon="1.97721">
        <ele>9.5</ele>
        <time>2022-04-17T11:28:57Z</time>
      </trkpt>
      <trkpt lat="50.03817" lon="1.97721">
        <ele>9.5</ele>
        <time>2022-04-17T11:28:58Z</time>
      </trkpt>
      <trkpt lat="50.03817" lon="1.97721">
        <ele>9.5</ele>
        <time>2022-04-17T11:28:59Z</time>
      </trkpt>
      <trkpt lat="50.03817" lon="1.97721">
        <ele>9.5</ele>
        <time>2022-04-17T11:29:00Z</time>
      </trkpt>
      <trkpt lat="50.03817" lon="1.97721">
        <ele>9.5</ele>
        <time>2022-04-17T11:29:01Z</time>
      </trkpt>
      <trkpt lat="50.03817" lon="1.97721">
        <ele>9.5</ele>
        <time>2022-04-17T11:29:02Z</time>
      </trkpt>
      <trkpt lat="50.03817" lon="1.97721">
        <ele>9.5</ele>
        <time>2022-04-17T11:29:03Z</time>
      </trkpt>
      <trkpt lat="50.03817" lon="1.97721">
        <ele>9.5</ele>
        <time>2022-04-17T11:29:04Z</time>
      </trkpt>
      <trkpt lat="50.03817" lon="1.97721">
        <ele>9.5</ele>
        <time>2022-04-17T11:29:06Z</time>
      </trkpt>
      <trkpt lat="50.03817" lon="1.97721">
        <ele>9.5</ele>
        <time>2022-04-17T11:29:07Z</time>
      </trkpt>
      <trkpt lat="50.03817" lon="1.97721">
        <ele>9.5</ele>
        <time>2022-04-17T11:29:08Z</time>
      </trkpt>
      <trkpt lat="50.03817" lon="1.97721">
        <ele>9.5</ele>
        <time>2022-04-17T11:29:09Z</time>
      </trkpt>
      <trkpt lat="50.03817" lon="1.97721">
        <ele>9.5</ele>
        <time>2022-04-17T11:29:10Z</time>
      </trkpt>
      <trkpt lat="50.03817" lon="1.97721">
        <ele>9.5</ele>
        <time>2022-04-17T11:29:11Z</time>
      </trkpt>
      <trkpt lat="50.03817" lon="1.97721">
        <ele>9.5</ele>
        <time>2022-04-17T11:29:12Z</time>
      </trkpt>
      <trkpt lat="50.03817" lon="1.97721">
        <ele>9.5</ele>
        <time>2022-04-17T11:29:13Z</time>
      </trkpt>
      <trkpt lat="50.03817" lon="1.97721">
        <ele>9.5</ele>
        <time>2022-04-17T11:29:14Z</time>
      </trkpt>
      <trkpt lat="50.03817" lon="1.97721">
        <ele>9.5</ele>
        <time>2022-04-17T11:29:15Z</time>
      </trkpt>
      <trkpt lat="50.03817" lon="1.97721">
        <ele>9.5</ele>
        <time>2022-04-17T11:29:16Z</time>
      </trkpt>
      <trkpt lat="50.03817" lon="1.97721">
        <ele>9.5</ele>
        <time>2022-04-17T11:29:17Z</time>
      </trkpt>
      <trkpt lat="50.03817" lon="1.97721">
        <ele>9.5</ele>
        <time>2022-04-17T11:29:18Z</time>
      </trkpt>
      <trkpt lat="50.03817" lon="1.97721">
        <ele>9.5</ele>
        <time>2022-04-17T11:29:19Z</time>
      </trkpt>
      <trkpt lat="50.03817" lon="1.97721">
        <ele>9.5</ele>
        <time>2022-04-17T11:29:21Z</time>
      </trkpt>
      <trkpt lat="50.03817" lon="1.97721">
        <ele>9.5</ele>
        <time>2022-04-17T11:29:22Z</time>
      </trkpt>
      <trkpt lat="50.03817" lon="1.97721">
        <ele>9.5</ele>
        <time>2022-04-17T11:29:24Z</time>
      </trkpt>
      <trkpt lat="50.03817" lon="1.97721">
        <ele>9.5</ele>
        <time>2022-04-17T11:29:25Z</time>
      </trkpt>
      <trkpt lat="50.03817" lon="1.9772">
        <ele>9.5</ele>
        <time>2022-04-17T11:29:26Z</time>
      </trkpt>
      <trkpt lat="50.03817" lon="1.9772">
        <ele>9.5</ele>
        <time>2022-04-17T11:29:27Z</time>
      </trkpt>
      <trkpt lat="50.03817" lon="1.9772">
        <ele>9.5</ele>
        <time>2022-04-17T11:29:28Z</time>
      </trkpt>
      <trkpt lat="50.03817" lon="1.9772">
        <ele>9.5</ele>
        <time>2022-04-17T11:29:29Z</time>
      </trkpt>
      <trkpt lat="50.03817" lon="1.9772">
        <ele>9.5</ele>
        <time>2022-04-17T11:29:30Z</time>
      </trkpt>
      <trkpt lat="50.03817" lon="1.9772">
        <ele>9.5</ele>
        <time>2022-04-17T11:29:31Z</time>
      </trkpt>
      <trkpt lat="50.03817" lon="1.9772">
        <ele>9.5</ele>
        <time>2022-04-17T11:29:32Z</time>
      </trkpt>
      <trkpt lat="50.03817" lon="1.9772">
        <ele>9.5</ele>
        <time>2022-04-17T11:29:33Z</time>
      </trkpt>
      <trkpt lat="50.03817" lon="1.9772">
        <ele>9.5</ele>
        <time>2022-04-17T11:29:34Z</time>
      </trkpt>
      <trkpt lat="50.03817" lon="1.9772">
        <ele>9.5</ele>
        <time>2022-04-17T11:29:35Z</time>
      </trkpt>
      <trkpt lat="50.03817" lon="1.9772">
        <ele>9.5</ele>
        <time>2022-04-17T11:29:36Z</time>
      </trkpt>
      <trkpt lat="50.03817" lon="1.9772">
        <ele>9.5</ele>
        <time>2022-04-17T11:29:37Z</time>
      </trkpt>
      <trkpt lat="50.03817" lon="1.9772">
        <ele>9.5</ele>
        <time>2022-04-17T11:29:38Z</time>
      </trkpt>
      <trkpt lat="50.03817" lon="1.9772">
        <ele>9.5</ele>
        <time>2022-04-17T11:29:39Z</time>
      </trkpt>
      <trkpt lat="50.03817" lon="1.9772">
        <ele>9.5</ele>
        <time>2022-04-17T11:29:40Z</time>
      </trkpt>
      <trkpt lat="50.03817" lon="1.9772">
        <ele>9.5</ele>
        <time>2022-04-17T11:29:42Z</time>
      </trkpt>
      <trkpt lat="50.03817" lon="1.9772">
        <ele>9.5</ele>
        <time>2022-04-17T11:29:43Z</time>
      </trkpt>
      <trkpt lat="50.03817" lon="1.9772">
        <ele>9.5</ele>
        <time>2022-04-17T11:29:44Z</time>
      </trkpt>
      <trkpt lat="50.03817" lon="1.9772">
        <ele>9.5</ele>
        <time>2022-04-17T11:29:45Z</time>
      </trkpt>
      <trkpt lat="50.03817" lon="1.9772">
        <ele>9.5</ele>
        <time>2022-04-17T11:29:46Z</time>
      </trkpt>
      <trkpt lat="50.03817" lon="1.9772">
        <ele>9.5</ele>
        <time>2022-04-17T11:29:47Z</time>
      </trkpt>
      <trkpt lat="50.03817" lon="1.9772">
        <ele>9.5</ele>
        <time>2022-04-17T11:29:48Z</time>
      </trkpt>
      <trkpt lat="50.03817" lon="1.9772">
        <ele>9.5</ele>
        <time>2022-04-17T11:29:49Z</time>
      </trkpt>
      <trkpt lat="50.03817" lon="1.9772">
        <ele>9.5</ele>
        <time>2022-04-17T11:29:50Z</time>
      </trkpt>
      <trkpt lat="50.03817" lon="1.9772">
        <ele>9.5</ele>
        <time>2022-04-17T11:29:51Z</time>
      </trkpt>
      <trkpt lat="50.03817" lon="1.9772">
        <ele>9.5</ele>
        <time>2022-04-17T11:29:53Z</time>
      </trkpt>
      <trkpt lat="50.03817" lon="1.9772">
        <ele>9.5</ele>
        <time>2022-04-17T11:29:54Z</time>
      </trkpt>
      <trkpt lat="50.03817" lon="1.9772">
        <ele>9.5</ele>
        <time>2022-04-17T11:29:55Z</time>
      </trkpt>
      <trkpt lat="50.03817" lon="1.9772">
        <ele>9.5</ele>
        <time>2022-04-17T11:29:56Z</time>
      </trkpt>
      <trkpt lat="50.03817" lon="1.9772">
        <ele>9.5</ele>
        <time>2022-04-17T11:29:57Z</time>
      </trkpt>
      <trkpt lat="50.03817" lon="1.9772">
        <ele>9.5</ele>
        <time>2022-04-17T11:29:58Z</time>
      </trkpt>
      <trkpt lat="50.03817" lon="1.9772">
        <ele>9.5</ele>
        <time>2022-04-17T11:29:59Z</time>
      </trkpt>
      <trkpt lat="50.03817" lon="1.9772">
        <ele>9.5</ele>
        <time>2022-04-17T11:30:00Z</time>
      </trkpt>
      <trkpt lat="50.03817" lon="1.9772">
        <ele>9.5</ele>
        <time>2022-04-17T11:30:01Z</time>
      </trkpt>
      <trkpt lat="50.03817" lon="1.9772">
        <ele>9.5</ele>
        <time>2022-04-17T11:30:02Z</time>
      </trkpt>
      <trkpt lat="50.03817" lon="1.9772">
        <ele>9.5</ele>
        <time>2022-04-17T11:30:03Z</time>
      </trkpt>
      <trkpt lat="50.03817" lon="1.9772">
        <ele>9.5</ele>
        <time>2022-04-17T11:30:04Z</time>
      </trkpt>
      <trkpt lat="50.03817" lon="1.9772">
        <ele>9.5</ele>
        <time>2022-04-17T11:30:05Z</time>
      </trkpt>
      <trkpt lat="50.03817" lon="1.9772">
        <ele>9.5</ele>
        <time>2022-04-17T11:30:06Z</time>
      </trkpt>
      <trkpt lat="50.03817" lon="1.9772">
        <ele>9.5</ele>
        <time>2022-04-17T11:30:07Z</time>
      </trkpt>
      <trkpt lat="50.03817" lon="1.9772">
        <ele>9.5</ele>
        <time>2022-04-17T11:30:08Z</time>
      </trkpt>
      <trkpt lat="50.03817" lon="1.9772">
        <ele>9.5</ele>
        <time>2022-04-17T11:30:10Z</time>
      </trkpt>
      <trkpt lat="50.03817" lon="1.9772">
        <ele>9.5</ele>
        <time>2022-04-17T11:30:11Z</time>
      </trkpt>
      <trkpt lat="50.03817" lon="1.9772">
        <ele>9.5</ele>
        <time>2022-04-17T11:30:12Z</time>
      </trkpt>
      <trkpt lat="50.03817" lon="1.9772">
        <ele>9.5</ele>
        <time>2022-04-17T11:30:13Z</time>
      </trkpt>
      <trkpt lat="50.03817" lon="1.9772">
        <ele>9.5</ele>
        <time>2022-04-17T11:30:14Z</time>
      </trkpt>
      <trkpt lat="50.03817" lon="1.9772">
        <ele>9.5</ele>
        <time>2022-04-17T11:30:15Z</time>
      </trkpt>
      <trkpt lat="50.03817" lon="1.9772">
        <ele>9.5</ele>
        <time>2022-04-17T11:30:16Z</time>
      </trkpt>
      <trkpt lat="50.03817" lon="1.9772">
        <ele>9.5</ele>
        <time>2022-04-17T11:30:17Z</time>
      </trkpt>
      <trkpt lat="50.03817" lon="1.9772">
        <ele>9.5</ele>
        <time>2022-04-17T11:30:18Z</time>
      </trkpt>
      <trkpt lat="50.03817" lon="1.9772">
        <ele>9.5</ele>
        <time>2022-04-17T11:30:19Z</time>
      </trkpt>
      <trkpt lat="50.03817" lon="1.9772">
        <ele>9.5</ele>
        <time>2022-04-17T11:30:20Z</time>
      </trkpt>
      <trkpt lat="50.03817" lon="1.9772">
        <ele>9.5</ele>
        <time>2022-04-17T11:30:21Z</time>
      </trkpt>
      <trkpt lat="50.03817" lon="1.9772">
        <ele>9.5</ele>
        <time>2022-04-17T11:30:22Z</time>
      </trkpt>
      <trkpt lat="50.03817" lon="1.9772">
        <ele>9.5</ele>
        <time>2022-04-17T11:30:23Z</time>
      </trkpt>
      <trkpt lat="50.03817" lon="1.9772">
        <ele>9.5</ele>
        <time>2022-04-17T11:30:24Z</time>
      </trkpt>
      <trkpt lat="50.03817" lon="1.9772">
        <ele>9.5</ele>
        <time>2022-04-17T11:30:25Z</time>
      </trkpt>
      <trkpt lat="50.03817" lon="1.9772">
        <ele>9.5</ele>
        <time>2022-04-17T11:30:26Z</time>
      </trkpt>
      <trkpt lat="50.03817" lon="1.9772">
        <ele>9.5</ele>
        <time>2022-04-17T11:30:27Z</time>
      </trkpt>
      <trkpt lat="50.03817" lon="1.9772">
        <ele>9.5</ele>
        <time>2022-04-17T11:30:28Z</time>
      </trkpt>
      <trkpt lat="50.03817" lon="1.9772">
        <ele>9.5</ele>
        <time>2022-04-17T11:30:29Z</time>
      </trkpt>
      <trkpt lat="50.03817" lon="1.9772">
        <ele>9.5</ele>
        <time>2022-04-17T11:30:30Z</time>
      </trkpt>
      <trkpt lat="50.03817" lon="1.9772">
        <ele>9.5</ele>
        <time>2022-04-17T11:30:32Z</time>
      </trkpt>
      <trkpt lat="50.03817" lon="1.9772">
        <ele>9.5</ele>
        <time>2022-04-17T11:30:33Z</time>
      </trkpt>
      <trkpt lat="50.03817" lon="1.9772">
        <ele>9.5</ele>
        <time>2022-04-17T11:30:34Z</time>
      </trkpt>
      <trkpt lat="50.03817" lon="1.9772">
        <ele>9.5</ele>
        <time>2022-04-17T11:30:35Z</time>
      </trkpt>
      <trkpt lat="50.03817" lon="1.9772">
        <ele>9.5</ele>
        <time>2022-04-17T11:30:36Z</time>
      </trkpt>
      <trkpt lat="50.03817" lon="1.9772">
        <ele>9.5</ele>
        <time>2022-04-17T11:30:37Z</time>
      </trkpt>
      <trkpt lat="50.03817" lon="1.9772">
        <ele>9.5</ele>
        <time>2022-04-17T11:30:38Z</time>
      </trkpt>
      <trkpt lat="50.03817" lon="1.9772">
        <ele>9.5</ele>
        <time>2022-04-17T11:30:39Z</time>
      </trkpt>
      <trkpt lat="50.03817" lon="1.9772">
        <ele>9.5</ele>
        <time>2022-04-17T11:30:40Z</time>
      </trkpt>
      <trkpt lat="50.03817" lon="1.9772">
        <ele>9.5</ele>
        <time>2022-04-17T11:30:41Z</time>
      </trkpt>
      <trkpt lat="50.03817" lon="1.9772">
        <ele>9.5</ele>
        <time>2022-04-17T11:30:42Z</time>
      </trkpt>
      <trkpt lat="50.03817" lon="1.9772">
        <ele>9.5</ele>
        <time>2022-04-17T11:30:43Z</time>
      </trkpt>
      <trkpt lat="50.03817" lon="1.9772">
        <ele>9.5</ele>
        <time>2022-04-17T11:30:44Z</time>
      </trkpt>
      <trkpt lat="50.03817" lon="1.9772">
        <ele>9.5</ele>
        <time>2022-04-17T11:30:45Z</time>
      </trkpt>
      <trkpt lat="50.03817" lon="1.9772">
        <ele>9.5</ele>
        <time>2022-04-17T11:30:46Z</time>
      </trkpt>
      <trkpt lat="50.03817" lon="1.9772">
        <ele>9.5</ele>
        <time>2022-04-17T11:30:47Z</time>
      </trkpt>
      <trkpt lat="50.03817" lon="1.9772">
        <ele>9.5</ele>
        <time>2022-04-17T11:30:48Z</time>
      </trkpt>
      <trkpt lat="50.03817" lon="1.9772">
        <ele>9.5</ele>
        <time>2022-04-17T11:30:49Z</time>
      </trkpt>
      <trkpt lat="50.03817" lon="1.9772">
        <ele>9.5</ele>
        <time>2022-04-17T11:30:50Z</time>
      </trkpt>
      <trkpt lat="50.03817" lon="1.9772">
        <ele>9.5</ele>
        <time>2022-04-17T11:30:51Z</time>
      </trkpt>
      <trkpt lat="50.03817" lon="1.9772">
        <ele>9.5</ele>
        <time>2022-04-17T11:30:52Z</time>
      </trkpt>
      <trkpt lat="50.03817" lon="1.9772">
        <ele>9.5</ele>
        <time>2022-04-17T11:30:53Z</time>
      </trkpt>
      <trkpt lat="50.03817" lon="1.9772">
        <ele>9.5</ele>
        <time>2022-04-17T11:30:54Z</time>
      </trkpt>
      <trkpt lat="50.03817" lon="1.9772">
        <ele>9.5</ele>
        <time>2022-04-17T11:30:55Z</time>
      </trkpt>
      <trkpt lat="50.03817" lon="1.9772">
        <ele>9.5</ele>
        <time>2022-04-17T11:30:56Z</time>
      </trkpt>
      <trkpt lat="50.03817" lon="1.9772">
        <ele>9.5</ele>
        <time>2022-04-17T11:30:57Z</time>
      </trkpt>
      <trkpt lat="50.03817" lon="1.9772">
        <ele>9.5</ele>
        <time>2022-04-17T11:30:58Z</time>
      </trkpt>
      <trkpt lat="50.03817" lon="1.9772">
        <ele>9.5</ele>
        <time>2022-04-17T11:30:59Z</time>
      </trkpt>
      <trkpt lat="50.03817" lon="1.9772">
        <ele>9.5</ele>
        <time>2022-04-17T11:31:00Z</time>
      </trkpt>
      <trkpt lat="50.03817" lon="1.9772">
        <ele>9.5</ele>
        <time>2022-04-17T11:31:01Z</time>
      </trkpt>
      <trkpt lat="50.03817" lon="1.9772">
        <ele>9.5</ele>
        <time>2022-04-17T11:31:02Z</time>
      </trkpt>
      <trkpt lat="50.03817" lon="1.9772">
        <ele>9.5</ele>
        <time>2022-04-17T11:31:03Z</time>
      </trkpt>
      <trkpt lat="50.03817" lon="1.9772">
        <ele>9.5</ele>
        <time>2022-04-17T11:31:04Z</time>
      </trkpt>
      <trkpt lat="50.03817" lon="1.9772">
        <ele>9.5</ele>
        <time>2022-04-17T11:31:05Z</time>
      </trkpt>
      <trkpt lat="50.03817" lon="1.9772">
        <ele>9.5</ele>
        <time>2022-04-17T11:31:06Z</time>
      </trkpt>
      <trkpt lat="50.03817" lon="1.9772">
        <ele>9.5</ele>
        <time>2022-04-17T11:31:07Z</time>
      </trkpt>
      <trkpt lat="50.03817" lon="1.9772">
        <ele>9.5</ele>
        <time>2022-04-17T11:31:08Z</time>
      </trkpt>
      <trkpt lat="50.03817" lon="1.9772">
        <ele>9.5</ele>
        <time>2022-04-17T11:31:09Z</time>
      </trkpt>
      <trkpt lat="50.03817" lon="1.9772">
        <ele>9.5</ele>
        <time>2022-04-17T11:31:10Z</time>
      </trkpt>
      <trkpt lat="50.03817" lon="1.9772">
        <ele>9.5</ele>
        <time>2022-04-17T11:31:11Z</time>
      </trkpt>
      <trkpt lat="50.03817" lon="1.9772">
        <ele>9.5</ele>
        <time>2022-04-17T11:31:12Z</time>
      </trkpt>
      <trkpt lat="50.03817" lon="1.9772">
        <ele>9.5</ele>
        <time>2022-04-17T11:31:13Z</time>
      </trkpt>
      <trkpt lat="50.03817" lon="1.9772">
        <ele>9.5</ele>
        <time>2022-04-17T11:31:14Z</time>
      </trkpt>
      <trkpt lat="50.03817" lon="1.9772">
        <ele>9.5</ele>
        <time>2022-04-17T11:31:15Z</time>
      </trkpt>
      <trkpt lat="50.03817" lon="1.9772">
        <ele>9.5</ele>
        <time>2022-04-17T11:31:16Z</time>
      </trkpt>
      <trkpt lat="50.03817" lon="1.9772">
        <ele>9.5</ele>
        <time>2022-04-17T11:31:17Z</time>
      </trkpt>
      <trkpt lat="50.03817" lon="1.9772">
        <ele>9.5</ele>
        <time>2022-04-17T11:31:18Z</time>
      </trkpt>
      <trkpt lat="50.03817" lon="1.9772">
        <ele>9.5</ele>
        <time>2022-04-17T11:31:19Z</time>
      </trkpt>
      <trkpt lat="50.03817" lon="1.9772">
        <ele>9.5</ele>
        <time>2022-04-17T11:31:20Z</time>
      </trkpt>
      <trkpt lat="50.03817" lon="1.9772">
        <ele>9.5</ele>
        <time>2022-04-17T11:31:21Z</time>
      </trkpt>
      <trkpt lat="50.03817" lon="1.9772">
        <ele>9.5</ele>
        <time>2022-04-17T11:31:22Z</time>
      </trkpt>
      <trkpt lat="50.03817" lon="1.9772">
        <ele>9.5</ele>
        <time>2022-04-17T11:31:23Z</time>
      </trkpt>
      <trkpt lat="50.03817" lon="1.9772">
        <ele>9.5</ele>
        <time>2022-04-17T11:31:24Z</time>
      </trkpt>
      <trkpt lat="50.03817" lon="1.9772">
        <ele>9.5</ele>
        <time>2022-04-17T11:31:25Z</time>
      </trkpt>
      <trkpt lat="50.03817" lon="1.9772">
        <ele>9.5</ele>
        <time>2022-04-17T11:31:27Z</time>
      </trkpt>
      <trkpt lat="50.03817" lon="1.9772">
        <ele>9.5</ele>
        <time>2022-04-17T11:31:28Z</time>
      </trkpt>
      <trkpt lat="50.03817" lon="1.9772">
        <ele>9.5</ele>
        <time>2022-04-17T11:31:29Z</time>
      </trkpt>
      <trkpt lat="50.03817" lon="1.9772">
        <ele>9.5</ele>
        <time>2022-04-17T11:31:30Z</time>
      </trkpt>
      <trkpt lat="50.03817" lon="1.9772">
        <ele>9.5</ele>
        <time>2022-04-17T11:31:31Z</time>
      </trkpt>
      <trkpt lat="50.03817" lon="1.9772">
        <ele>9.5</ele>
        <time>2022-04-17T11:31:32Z</time>
      </trkpt>
      <trkpt lat="50.03817" lon="1.9772">
        <ele>9.5</ele>
        <time>2022-04-17T11:31:33Z</time>
      </trkpt>
      <trkpt lat="50.03817" lon="1.9772">
        <ele>9.5</ele>
        <time>2022-04-17T11:31:34Z</time>
      </trkpt>
      <trkpt lat="50.03817" lon="1.9772">
        <ele>9.5</ele>
        <time>2022-04-17T11:31:35Z</time>
      </trkpt>
      <trkpt lat="50.03817" lon="1.9772">
        <ele>9.5</ele>
        <time>2022-04-17T11:31:36Z</time>
      </trkpt>
      <trkpt lat="50.03817" lon="1.9772">
        <ele>9.5</ele>
        <time>2022-04-17T11:31:38Z</time>
      </trkpt>
      <trkpt lat="50.03817" lon="1.9772">
        <ele>9.5</ele>
        <time>2022-04-17T11:31:39Z</time>
      </trkpt>
      <trkpt lat="50.03817" lon="1.9772">
        <ele>9.5</ele>
        <time>2022-04-17T11:31:40Z</time>
      </trkpt>
      <trkpt lat="50.03817" lon="1.9772">
        <ele>9.5</ele>
        <time>2022-04-17T11:31:41Z</time>
      </trkpt>
      <trkpt lat="50.03817" lon="1.9772">
        <ele>9.5</ele>
        <time>2022-04-17T11:31:42Z</time>
      </trkpt>
      <trkpt lat="50.03817" lon="1.9772">
        <ele>9.5</ele>
        <time>2022-04-17T11:31:43Z</time>
      </trkpt>
      <trkpt lat="50.03817" lon="1.9772">
        <ele>9.5</ele>
        <time>2022-04-17T11:31:44Z</time>
      </trkpt>
      <trkpt lat="50.03817" lon="1.9772">
        <ele>9.5</ele>
        <time>2022-04-17T11:31:45Z</time>
      </trkpt>
      <trkpt lat="50.03817" lon="1.9772">
        <ele>9.5</ele>
        <time>2022-04-17T11:31:46Z</time>
      </trkpt>
      <trkpt lat="50.03817" lon="1.9772">
        <ele>9.5</ele>
        <time>2022-04-17T11:31:47Z</time>
      </trkpt>
      <trkpt lat="50.03817" lon="1.9772">
        <ele>9.5</ele>
        <time>2022-04-17T11:31:48Z</time>
      </trkpt>
      <trkpt lat="50.03817" lon="1.9772">
        <ele>9.5</ele>
        <time>2022-04-17T11:31:49Z</time>
      </trkpt>
      <trkpt lat="50.03817" lon="1.9772">
        <ele>9.5</ele>
        <time>2022-04-17T11:31:50Z</time>
      </trkpt>
      <trkpt lat="50.03817" lon="1.9772">
        <ele>9.5</ele>
        <time>2022-04-17T11:31:51Z</time>
      </trkpt>
      <trkpt lat="50.03817" lon="1.9772">
        <ele>9.5</ele>
        <time>2022-04-17T11:31:52Z</time>
      </trkpt>
      <trkpt lat="50.03817" lon="1.9772">
        <ele>9.5</ele>
        <time>2022-04-17T11:31:53Z</time>
      </trkpt>
      <trkpt lat="50.03817" lon="1.9772">
        <ele>9.5</ele>
        <time>2022-04-17T11:31:55Z</time>
      </trkpt>
      <trkpt lat="50.03817" lon="1.9772">
        <ele>9.5</ele>
        <time>2022-04-17T11:31:56Z</time>
      </trkpt>
      <trkpt lat="50.03817" lon="1.9772">
        <ele>9.5</ele>
        <time>2022-04-17T11:31:57Z</time>
      </trkpt>
      <trkpt lat="50.03817" lon="1.9772">
        <ele>9.5</ele>
        <time>2022-04-17T11:31:58Z</time>
      </trkpt>
      <trkpt lat="50.03817" lon="1.9772">
        <ele>9.5</ele>
        <time>2022-04-17T11:31:59Z</time>
      </trkpt>
      <trkpt lat="50.03817" lon="1.9772">
        <ele>9.5</ele>
        <time>2022-04-17T11:32:00Z</time>
      </trkpt>
      <trkpt lat="50.03817" lon="1.9772">
        <ele>9.5</ele>
        <time>2022-04-17T11:32:01Z</time>
      </trkpt>
      <trkpt lat="50.03817" lon="1.9772">
        <ele>9.5</ele>
        <time>2022-04-17T11:32:02Z</time>
      </trkpt>
      <trkpt lat="50.03817" lon="1.9772">
        <ele>9.5</ele>
        <time>2022-04-17T11:32:03Z</time>
      </trkpt>
      <trkpt lat="50.03817" lon="1.9772">
        <ele>9.5</ele>
        <time>2022-04-17T11:32:04Z</time>
      </trkpt>
      <trkpt lat="50.03817" lon="1.9772">
        <ele>9.5</ele>
        <time>2022-04-17T11:32:06Z</time>
      </trkpt>
      <trkpt lat="50.03817" lon="1.9772">
        <ele>9.5</ele>
        <time>2022-04-17T11:32:07Z</time>
      </trkpt>
      <trkpt lat="50.03817" lon="1.9772">
        <ele>9.5</ele>
        <time>2022-04-17T11:32:08Z</time>
      </trkpt>
      <trkpt lat="50.03817" lon="1.9772">
        <ele>9.5</ele>
        <time>2022-04-17T11:32:09Z</time>
      </trkpt>
      <trkpt lat="50.03817" lon="1.9772">
        <ele>9.5</ele>
        <time>2022-04-17T11:32:10Z</time>
      </trkpt>
      <trkpt lat="50.03817" lon="1.9772">
        <ele>9.5</ele>
        <time>2022-04-17T11:32:11Z</time>
      </trkpt>
      <trkpt lat="50.03817" lon="1.9772">
        <ele>9.5</ele>
        <time>2022-04-17T11:32:12Z</time>
      </trkpt>
      <trkpt lat="50.03817" lon="1.9772">
        <ele>9.5</ele>
        <time>2022-04-17T11:32:13Z</time>
      </trkpt>
      <trkpt lat="50.03817" lon="1.9772">
        <ele>9.5</ele>
        <time>2022-04-17T11:32:14Z</time>
      </trkpt>
      <trkpt lat="50.03817" lon="1.9772">
        <ele>9.5</ele>
        <time>2022-04-17T11:32:15Z</time>
      </trkpt>
      <trkpt lat="50.03817" lon="1.9772">
        <ele>9.5</ele>
        <time>2022-04-17T11:32:16Z</time>
      </trkpt>
      <trkpt lat="50.03817" lon="1.9772">
        <ele>9.5</ele>
        <time>2022-04-17T11:32:17Z</time>
      </trkpt>
      <trkpt lat="50.03817" lon="1.9772">
        <ele>9.5</ele>
        <time>2022-04-17T11:32:18Z</time>
      </trkpt>
      <trkpt lat="50.03817" lon="1.9772">
        <ele>9.5</ele>
        <time>2022-04-17T11:32:19Z</time>
      </trkpt>
      <trkpt lat="50.03817" lon="1.9772">
        <ele>9.5</ele>
        <time>2022-04-17T11:32:20Z</time>
      </trkpt>
      <trkpt lat="50.03817" lon="1.9772">
        <ele>9.5</ele>
        <time>2022-04-17T11:32:21Z</time>
      </trkpt>
      <trkpt lat="50.03817" lon="1.9772">
        <ele>9.5</ele>
        <time>2022-04-17T11:32:22Z</time>
      </trkpt>
      <trkpt lat="50.03817" lon="1.9772">
        <ele>9.5</ele>
        <time>2022-04-17T11:32:23Z</time>
      </trkpt>
      <trkpt lat="50.03817" lon="1.9772">
        <ele>9.5</ele>
        <time>2022-04-17T11:32:24Z</time>
      </trkpt>
      <trkpt lat="50.03817" lon="1.9772">
        <ele>9.5</ele>
        <time>2022-04-17T11:32:25Z</time>
      </trkpt>
      <trkpt lat="50.03817" lon="1.9772">
        <ele>9.5</ele>
        <time>2022-04-17T11:32:26Z</time>
      </trkpt>
      <trkpt lat="50.03817" lon="1.9772">
        <ele>9.5</ele>
        <time>2022-04-17T11:32:27Z</time>
      </trkpt>
      <trkpt lat="50.03817" lon="1.9772">
        <ele>9.5</ele>
        <time>2022-04-17T11:32:28Z</time>
      </trkpt>
      <trkpt lat="50.03817" lon="1.9772">
        <ele>9.5</ele>
        <time>2022-04-17T11:32:29Z</time>
      </trkpt>
      <trkpt lat="50.03817" lon="1.9772">
        <ele>9.5</ele>
        <time>2022-04-17T11:32:30Z</time>
      </trkpt>
      <trkpt lat="50.03817" lon="1.9772">
        <ele>9.5</ele>
        <time>2022-04-17T11:32:31Z</time>
      </trkpt>
      <trkpt lat="50.03817" lon="1.9772">
        <ele>9.5</ele>
        <time>2022-04-17T11:32:32Z</time>
      </trkpt>
      <trkpt lat="50.03817" lon="1.9772">
        <ele>9.5</ele>
        <time>2022-04-17T11:32:33Z</time>
      </trkpt>
      <trkpt lat="50.03817" lon="1.9772">
        <ele>9.5</ele>
        <time>2022-04-17T11:32:34Z</time>
      </trkpt>
      <trkpt lat="50.03817" lon="1.9772">
        <ele>9.5</ele>
        <time>2022-04-17T11:32:35Z</time>
      </trkpt>
      <trkpt lat="50.03817" lon="1.9772">
        <ele>9.5</ele>
        <time>2022-04-17T11:32:36Z</time>
      </trkpt>
      <trkpt lat="50.03817" lon="1.9772">
        <ele>9.5</ele>
        <time>2022-04-17T11:32:37Z</time>
      </trkpt>
      <trkpt lat="50.03817" lon="1.9772">
        <ele>9.5</ele>
        <time>2022-04-17T11:32:39Z</time>
      </trkpt>
      <trkpt lat="50.03817" lon="1.9772">
        <ele>9.5</ele>
        <time>2022-04-17T11:32:40Z</time>
      </trkpt>
      <trkpt lat="50.03817" lon="1.9772">
        <ele>9.5</ele>
        <time>2022-04-17T11:32:41Z</time>
      </trkpt>
      <trkpt lat="50.03817" lon="1.9772">
        <ele>9.5</ele>
        <time>2022-04-17T11:32:42Z</time>
      </trkpt>
      <trkpt lat="50.03817" lon="1.9772">
        <ele>9.5</ele>
        <time>2022-04-17T11:32:43Z</time>
      </trkpt>
      <trkpt lat="50.03817" lon="1.97719">
        <ele>9.5</ele>
        <time>2022-04-17T11:32:44Z</time>
      </trkpt>
      <trkpt lat="50.03817" lon="1.97719">
        <ele>9.5</ele>
        <time>2022-04-17T11:32:45Z</time>
      </trkpt>
      <trkpt lat="50.03817" lon="1.97719">
        <ele>9.5</ele>
        <time>2022-04-17T11:32:46Z</time>
      </trkpt>
      <trkpt lat="50.03817" lon="1.97719">
        <ele>9.5</ele>
        <time>2022-04-17T11:32:47Z</time>
      </trkpt>
      <trkpt lat="50.03817" lon="1.97719">
        <ele>9.5</ele>
        <time>2022-04-17T11:32:48Z</time>
      </trkpt>
      <trkpt lat="50.03817" lon="1.97719">
        <ele>9.5</ele>
        <time>2022-04-17T11:32:50Z</time>
      </trkpt>
      <trkpt lat="50.03817" lon="1.97719">
        <ele>9.5</ele>
        <time>2022-04-17T11:32:51Z</time>
      </trkpt>
      <trkpt lat="50.03817" lon="1.97719">
        <ele>9.5</ele>
        <time>2022-04-17T11:32:52Z</time>
      </trkpt>
      <trkpt lat="50.03817" lon="1.97719">
        <ele>9.5</ele>
        <time>2022-04-17T11:32:53Z</time>
      </trkpt>
      <trkpt lat="50.03817" lon="1.97719">
        <ele>9.5</ele>
        <time>2022-04-17T11:32:54Z</time>
      </trkpt>
      <trkpt lat="50.03817" lon="1.97719">
        <ele>9.5</ele>
        <time>2022-04-17T11:32:55Z</time>
      </trkpt>
      <trkpt lat="50.03817" lon="1.97719">
        <ele>9.5</ele>
        <time>2022-04-17T11:32:56Z</time>
      </trkpt>
      <trkpt lat="50.03817" lon="1.97719">
        <ele>9.5</ele>
        <time>2022-04-17T11:32:57Z</time>
      </trkpt>
      <trkpt lat="50.03817" lon="1.97719">
        <ele>9.5</ele>
        <time>2022-04-17T11:32:58Z</time>
      </trkpt>
      <trkpt lat="50.03817" lon="1.97719">
        <ele>9.5</ele>
        <time>2022-04-17T11:32:59Z</time>
      </trkpt>
      <trkpt lat="50.03817" lon="1.97719">
        <ele>9.5</ele>
        <time>2022-04-17T11:33:00Z</time>
      </trkpt>
      <trkpt lat="50.03817" lon="1.97719">
        <ele>9.5</ele>
        <time>2022-04-17T11:33:01Z</time>
      </trkpt>
      <trkpt lat="50.03817" lon="1.97719">
        <ele>9.5</ele>
        <time>2022-04-17T11:33:02Z</time>
      </trkpt>
      <trkpt lat="50.03817" lon="1.97719">
        <ele>9.5</ele>
        <time>2022-04-17T11:33:03Z</time>
      </trkpt>
      <trkpt lat="50.03817" lon="1.97719">
        <ele>9.5</ele>
        <time>2022-04-17T11:33:04Z</time>
      </trkpt>
      <trkpt lat="50.03817" lon="1.97719">
        <ele>9.5</ele>
        <time>2022-04-17T11:33:05Z</time>
      </trkpt>
      <trkpt lat="50.03817" lon="1.97719">
        <ele>9.5</ele>
        <time>2022-04-17T11:33:06Z</time>
      </trkpt>
      <trkpt lat="50.03817" lon="1.97719">
        <ele>9.5</ele>
        <time>2022-04-17T11:33:07Z</time>
      </trkpt>
      <trkpt lat="50.03817" lon="1.97719">
        <ele>9.5</ele>
        <time>2022-04-17T11:33:08Z</time>
      </trkpt>
      <trkpt lat="50.03817" lon="1.97719">
        <ele>9.5</ele>
        <time>2022-04-17T11:33:09Z</time>
      </trkpt>
      <trkpt lat="50.03817" lon="1.97719">
        <ele>9.5</ele>
        <time>2022-04-17T11:33:10Z</time>
      </trkpt>
      <trkpt lat="50.03817" lon="1.97719">
        <ele>9.5</ele>
        <time>2022-04-17T11:33:12Z</time>
      </trkpt>
      <trkpt lat="50.03817" lon="1.97719">
        <ele>9.5</ele>
        <time>2022-04-17T11:33:13Z</time>
      </trkpt>
      <trkpt lat="50.03817" lon="1.97719">
        <ele>9.5</ele>
        <time>2022-04-17T11:33:14Z</time>
      </trkpt>
      <trkpt lat="50.03817" lon="1.97719">
        <ele>9.5</ele>
        <time>2022-04-17T11:33:15Z</time>
      </trkpt>
      <trkpt lat="50.03817" lon="1.97719">
        <ele>9.5</ele>
        <time>2022-04-17T11:33:16Z</time>
      </trkpt>
      <trkpt lat="50.03817" lon="1.97719">
        <ele>9.5</ele>
        <time>2022-04-17T11:33:17Z</time>
      </trkpt>
      <trkpt lat="50.03817" lon="1.97719">
        <ele>9.5</ele>
        <time>2022-04-17T11:33:18Z</time>
      </trkpt>
      <trkpt lat="50.03817" lon="1.97719">
        <ele>9.5</ele>
        <time>2022-04-17T11:33:19Z</time>
      </trkpt>
      <trkpt lat="50.03817" lon="1.97719">
        <ele>9.5</ele>
        <time>2022-04-17T11:33:20Z</time>
      </trkpt>
      <trkpt lat="50.03817" lon="1.97719">
        <ele>9.5</ele>
        <time>2022-04-17T11:33:21Z</time>
      </trkpt>
      <trkpt lat="50.03817" lon="1.97719">
        <ele>9.5</ele>
        <time>2022-04-17T11:33:22Z</time>
      </trkpt>
      <trkpt lat="50.03817" lon="1.97719">
        <ele>9.5</ele>
        <time>2022-04-17T11:33:23Z</time>
      </trkpt>
      <trkpt lat="50.03817" lon="1.97719">
        <ele>9.5</ele>
        <time>2022-04-17T11:33:24Z</time>
      </trkpt>
      <trkpt lat="50.03817" lon="1.97719">
        <ele>9.5</ele>
        <time>2022-04-17T11:33:25Z</time>
      </trkpt>
      <trkpt lat="50.03818" lon="1.97716">
        <ele>9.5</ele>
        <time>2022-04-17T11:33:27Z</time>
      </trkpt>
      <trkpt lat="50.03818" lon="1.97714">
        <ele>9.5</ele>
        <time>2022-04-17T11:33:28Z</time>
      </trkpt>
      <trkpt lat="50.03818" lon="1.97713">
        <ele>9.5</ele>
        <time>2022-04-17T11:33:29Z</time>
      </trkpt>
      <trkpt lat="50.03819" lon="1.97711">
        <ele>9.5</ele>
        <time>2022-04-17T11:33:30Z</time>
      </trkpt>
      <trkpt lat="50.0382" lon="1.97709">
        <ele>9.5</ele>
        <time>2022-04-17T11:33:31Z</time>
      </trkpt>
      <trkpt lat="50.03821" lon="1.97708">
        <ele>9.4</ele>
        <time>2022-04-17T11:33:32Z</time>
      </trkpt>
      <trkpt lat="50.03822" lon="1.97708">
        <ele>9.4</ele>
        <time>2022-04-17T11:33:33Z</time>
      </trkpt>
      <trkpt lat="50.03823" lon="1.97708">
        <ele>9.4</ele>
        <time>2022-04-17T11:33:35Z</time>
      </trkpt>
      <trkpt lat="50.03824" lon="1.97707">
        <ele>9.4</ele>
        <time>2022-04-17T11:33:36Z</time>
      </trkpt>
      <trkpt lat="50.03824" lon="1.97706">
        <ele>9.4</ele>
        <time>2022-04-17T11:33:37Z</time>
      </trkpt>
      <trkpt lat="50.03824" lon="1.97705">
        <ele>9.4</ele>
        <time>2022-04-17T11:33:38Z</time>
      </trkpt>
      <trkpt lat="50.03825" lon="1.97706">
        <ele>9.4</ele>
        <time>2022-04-17T11:33:39Z</time>
      </trkpt>
      <trkpt lat="50.03824" lon="1.97707">
        <ele>9.4</ele>
        <time>2022-04-17T11:33:40Z</time>
      </trkpt>
      <trkpt lat="50.03824" lon="1.97708">
        <ele>9.4</ele>
        <time>2022-04-17T11:33:42Z</time>
      </trkpt>
      <trkpt lat="50.03823" lon="1.97709">
        <ele>9.4</ele>
        <time>2022-04-17T11:33:43Z</time>
      </trkpt>
      <trkpt lat="50.03824" lon="1.97709">
        <ele>9.4</ele>
        <time>2022-04-17T11:33:44Z</time>
      </trkpt>
      <trkpt lat="50.03823" lon="1.97709">
        <ele>9.4</ele>
        <time>2022-04-17T11:33:45Z</time>
      </trkpt>
      <trkpt lat="50.03823" lon="1.97709">
        <ele>9.4</ele>
        <time>2022-04-17T11:33:46Z</time>
      </trkpt>
      <trkpt lat="50.03823" lon="1.97709">
        <ele>9.4</ele>
        <time>2022-04-17T11:33:47Z</time>
      </trkpt>
      <trkpt lat="50.03823" lon="1.97709">
        <ele>9.4</ele>
        <time>2022-04-17T11:33:49Z</time>
      </trkpt>
      <trkpt lat="50.03823" lon="1.97709">
        <ele>9.4</ele>
        <time>2022-04-17T11:33:51Z</time>
      </trkpt>
      <trkpt lat="50.03823" lon="1.97709">
        <ele>9.4</ele>
        <time>2022-04-17T11:33:52Z</time>
      </trkpt>
      <trkpt lat="50.03822" lon="1.97709">
        <ele>9.4</ele>
        <time>2022-04-17T11:33:53Z</time>
      </trkpt>
      <trkpt lat="50.03822" lon="1.97709">
        <ele>9.4</ele>
        <time>2022-04-17T11:33:54Z</time>
      </trkpt>
      <trkpt lat="50.03822" lon="1.97709">
        <ele>9.4</ele>
        <time>2022-04-17T11:33:56Z</time>
      </trkpt>
      <trkpt lat="50.03822" lon="1.97708">
        <ele>9.4</ele>
        <time>2022-04-17T11:33:57Z</time>
      </trkpt>
      <trkpt lat="50.03822" lon="1.97707">
        <ele>9.4</ele>
        <time>2022-04-17T11:33:58Z</time>
      </trkpt>
      <trkpt lat="50.03822" lon="1.97707">
        <ele>9.4</ele>
        <time>2022-04-17T11:33:59Z</time>
      </trkpt>
      <trkpt lat="50.03822" lon="1.97707">
        <ele>9.4</ele>
        <time>2022-04-17T11:34:01Z</time>
      </trkpt>
      <trkpt lat="50.03822" lon="1.97707">
        <ele>9.4</ele>
        <time>2022-04-17T11:34:03Z</time>
      </trkpt>
      <trkpt lat="50.03822" lon="1.97707">
        <ele>9.4</ele>
        <time>2022-04-17T11:34:05Z</time>
      </trkpt>
      <trkpt lat="50.03822" lon="1.97707">
        <ele>9.4</ele>
        <time>2022-04-17T11:34:06Z</time>
      </trkpt>
      <trkpt lat="50.03822" lon="1.97707">
        <ele>9.4</ele>
        <time>2022-04-17T11:34:07Z</time>
      </trkpt>
      <trkpt lat="50.03822" lon="1.97707">
        <ele>9.4</ele>
        <time>2022-04-17T11:34:08Z</time>
      </trkpt>
      <trkpt lat="50.03822" lon="1.97707">
        <ele>9.4</ele>
        <time>2022-04-17T11:34:09Z</time>
      </trkpt>
      <trkpt lat="50.03822" lon="1.97707">
        <ele>9.4</ele>
        <time>2022-04-17T11:34:11Z</time>
      </trkpt>
      <trkpt lat="50.03822" lon="1.97707">
        <ele>9.4</ele>
        <time>2022-04-17T11:34:12Z</time>
      </trkpt>
      <trkpt lat="50.03822" lon="1.97707">
        <ele>9.4</ele>
        <time>2022-04-17T11:34:13Z</time>
      </trkpt>
      <trkpt lat="50.03822" lon="1.97707">
        <ele>9.4</ele>
        <time>2022-04-17T11:34:14Z</time>
      </trkpt>
      <trkpt lat="50.03823" lon="1.97706">
        <ele>9.4</ele>
        <time>2022-04-17T11:34:15Z</time>
      </trkpt>
      <trkpt lat="50.03824" lon="1.97704">
        <ele>9.4</ele>
        <time>2022-04-17T11:34:16Z</time>
      </trkpt>
      <trkpt lat="50.03824" lon="1.97704">
        <ele>9.3</ele>
        <time>2022-04-17T11:34:17Z</time>
      </trkpt>
      <trkpt lat="50.03823" lon="1.97704">
        <ele>9.3</ele>
        <time>2022-04-17T11:34:19Z</time>
      </trkpt>
      <trkpt lat="50.03823" lon="1.97703">
        <ele>9.3</ele>
        <time>2022-04-17T11:34:20Z</time>
      </trkpt>
      <trkpt lat="50.03822" lon="1.977">
        <ele>9.3</ele>
        <time>2022-04-17T11:34:21Z</time>
      </trkpt>
      <trkpt lat="50.03821" lon="1.97699">
        <ele>9.3</ele>
        <time>2022-04-17T11:34:23Z</time>
      </trkpt>
      <trkpt lat="50.03821" lon="1.97697">
        <ele>9.3</ele>
        <time>2022-04-17T11:34:24Z</time>
      </trkpt>
      <trkpt lat="50.03821" lon="1.97694">
        <ele>9.3</ele>
        <time>2022-04-17T11:34:25Z</time>
      </trkpt>
      <trkpt lat="50.03821" lon="1.97693">
        <ele>9.3</ele>
        <time>2022-04-17T11:34:26Z</time>
      </trkpt>
      <trkpt lat="50.03821" lon="1.97691">
        <ele>9.3</ele>
        <time>2022-04-17T11:34:27Z</time>
      </trkpt>
      <trkpt lat="50.03821" lon="1.97689">
        <ele>9.3</ele>
        <time>2022-04-17T11:34:28Z</time>
      </trkpt>
      <trkpt lat="50.03822" lon="1.97687">
        <ele>9.2</ele>
        <time>2022-04-17T11:34:30Z</time>
      </trkpt>
      <trkpt lat="50.03823" lon="1.97684">
        <ele>9.2</ele>
        <time>2022-04-17T11:34:31Z</time>
      </trkpt>
      <trkpt lat="50.03824" lon="1.97682">
        <ele>9.2</ele>
        <time>2022-04-17T11:34:32Z</time>
      </trkpt>
      <trkpt lat="50.03823" lon="1.9768">
        <ele>9.2</ele>
        <time>2022-04-17T11:34:34Z</time>
      </trkpt>
      <trkpt lat="50.03822" lon="1.97678">
        <ele>9.2</ele>
        <time>2022-04-17T11:34:35Z</time>
      </trkpt>
      <trkpt lat="50.03822" lon="1.97676">
        <ele>9.2</ele>
        <time>2022-04-17T11:34:36Z</time>
      </trkpt>
      <trkpt lat="50.03822" lon="1.97674">
        <ele>9.2</ele>
        <time>2022-04-17T11:34:37Z</time>
      </trkpt>
      <trkpt lat="50.03821" lon="1.97671">
        <ele>9.2</ele>
        <time>2022-04-17T11:34:39Z</time>
      </trkpt>
      <trkpt lat="50.0382" lon="1.97668">
        <ele>9.2</ele>
        <time>2022-04-17T11:34:41Z</time>
      </trkpt>
      <trkpt lat="50.0382" lon="1.97666">
        <ele>9.1</ele>
        <time>2022-04-17T11:34:42Z</time>
      </trkpt>
      <trkpt lat="50.03819" lon="1.97664">
        <ele>9.1</ele>
        <time>2022-04-17T11:34:43Z</time>
      </trkpt>
      <trkpt lat="50.03819" lon="1.97662">
        <ele>9.1</ele>
        <time>2022-04-17T11:34:44Z</time>
      </trkpt>
      <trkpt lat="50.03819" lon="1.9766">
        <ele>9.1</ele>
        <time>2022-04-17T11:34:45Z</time>
      </trkpt>
      <trkpt lat="50.03819" lon="1.97659">
        <ele>9.1</ele>
        <time>2022-04-17T11:34:46Z</time>
      </trkpt>
      <trkpt lat="50.03819" lon="1.97658">
        <ele>9.1</ele>
        <time>2022-04-17T11:34:48Z</time>
      </trkpt>
      <trkpt lat="50.03818" lon="1.97657">
        <ele>9.1</ele>
        <time>2022-04-17T11:34:49Z</time>
      </trkpt>
      <trkpt lat="50.03818" lon="1.97655">
        <ele>9.1</ele>
        <time>2022-04-17T11:34:50Z</time>
      </trkpt>
      <trkpt lat="50.03818" lon="1.97653">
        <ele>9.1</ele>
        <time>2022-04-17T11:34:52Z</time>
      </trkpt>
      <trkpt lat="50.03818" lon="1.97652">
        <ele>9.1</ele>
        <time>2022-04-17T11:34:53Z</time>
      </trkpt>
      <trkpt lat="50.03817" lon="1.97651">
        <ele>9.1</ele>
        <time>2022-04-17T11:34:54Z</time>
      </trkpt>
      <trkpt lat="50.03817" lon="1.9765">
        <ele>9.1</ele>
        <time>2022-04-17T11:34:55Z</time>
      </trkpt>
      <trkpt lat="50.03817" lon="1.97648">
        <ele>9.1</ele>
        <time>2022-04-17T11:34:56Z</time>
      </trkpt>
      <trkpt lat="50.03816" lon="1.97646">
        <ele>9.1</ele>
        <time>2022-04-17T11:34:57Z</time>
      </trkpt>
      <trkpt lat="50.03816" lon="1.97643">
        <ele>9.1</ele>
        <time>2022-04-17T11:34:59Z</time>
      </trkpt>
      <trkpt lat="50.03815" lon="1.97641">
        <ele>9.1</ele>
        <time>2022-04-17T11:35:00Z</time>
      </trkpt>
      <trkpt lat="50.03815" lon="1.97638">
        <ele>9</ele>
        <time>2022-04-17T11:35:01Z</time>
      </trkpt>
      <trkpt lat="50.03815" lon="1.97636">
        <ele>9</ele>
        <time>2022-04-17T11:35:02Z</time>
      </trkpt>
      <trkpt lat="50.03814" lon="1.97634">
        <ele>9</ele>
        <time>2022-04-17T11:35:03Z</time>
      </trkpt>
      <trkpt lat="50.03813" lon="1.9763">
        <ele>9</ele>
        <time>2022-04-17T11:35:04Z</time>
      </trkpt>
      <trkpt lat="50.03813" lon="1.97629">
        <ele>9</ele>
        <time>2022-04-17T11:35:06Z</time>
      </trkpt>
      <trkpt lat="50.03813" lon="1.97627">
        <ele>9</ele>
        <time>2022-04-17T11:35:07Z</time>
      </trkpt>
      <trkpt lat="50.03812" lon="1.97626">
        <ele>9</ele>
        <time>2022-04-17T11:35:08Z</time>
      </trkpt>
      <trkpt lat="50.03812" lon="1.97625">
        <ele>9</ele>
        <time>2022-04-17T11:35:09Z</time>
      </trkpt>
      <trkpt lat="50.03811" lon="1.97624">
        <ele>9</ele>
        <time>2022-04-17T11:35:11Z</time>
      </trkpt>
      <trkpt lat="50.03811" lon="1.97622">
        <ele>9</ele>
        <time>2022-04-17T11:35:12Z</time>
      </trkpt>
      <trkpt lat="50.03811" lon="1.9762">
        <ele>9</ele>
        <time>2022-04-17T11:35:13Z</time>
      </trkpt>
      <trkpt lat="50.03811" lon="1.97619">
        <ele>9</ele>
        <time>2022-04-17T11:35:14Z</time>
      </trkpt>
      <trkpt lat="50.03812" lon="1.97617">
        <ele>9</ele>
        <time>2022-04-17T11:35:15Z</time>
      </trkpt>
      <trkpt lat="50.03812" lon="1.97615">
        <ele>9</ele>
        <time>2022-04-17T11:35:16Z</time>
      </trkpt>
      <trkpt lat="50.03812" lon="1.97614">
        <ele>9</ele>
        <time>2022-04-17T11:35:17Z</time>
      </trkpt>
      <trkpt lat="50.03813" lon="1.97612">
        <ele>9</ele>
        <time>2022-04-17T11:35:19Z</time>
      </trkpt>
      <trkpt lat="50.03813" lon="1.9761">
        <ele>9</ele>
        <time>2022-04-17T11:35:20Z</time>
      </trkpt>
      <trkpt lat="50.03813" lon="1.97609">
        <ele>8.9</ele>
        <time>2022-04-17T11:35:21Z</time>
      </trkpt>
      <trkpt lat="50.03813" lon="1.97607">
        <ele>8.9</ele>
        <time>2022-04-17T11:35:22Z</time>
      </trkpt>
      <trkpt lat="50.03813" lon="1.97606">
        <ele>8.9</ele>
        <time>2022-04-17T11:35:23Z</time>
      </trkpt>
      <trkpt lat="50.03813" lon="1.97604">
        <ele>8.9</ele>
        <time>2022-04-17T11:35:24Z</time>
      </trkpt>
      <trkpt lat="50.03814" lon="1.97603">
        <ele>8.9</ele>
        <time>2022-04-17T11:35:25Z</time>
      </trkpt>
      <trkpt lat="50.03813" lon="1.97603">
        <ele>8.9</ele>
        <time>2022-04-17T11:35:26Z</time>
      </trkpt>
      <trkpt lat="50.03813" lon="1.97602">
        <ele>8.9</ele>
        <time>2022-04-17T11:35:28Z</time>
      </trkpt>
      <trkpt lat="50.03813" lon="1.97602">
        <ele>8.9</ele>
        <time>2022-04-17T11:35:29Z</time>
      </trkpt>
      <trkpt lat="50.03813" lon="1.97602">
        <ele>8.9</ele>
        <time>2022-04-17T11:35:30Z</time>
      </trkpt>
      <trkpt lat="50.03813" lon="1.97602">
        <ele>8.9</ele>
        <time>2022-04-17T11:35:31Z</time>
      </trkpt>
      <trkpt lat="50.03813" lon="1.97602">
        <ele>8.9</ele>
        <time>2022-04-17T11:35:33Z</time>
      </trkpt>
      <trkpt lat="50.03813" lon="1.97601">
        <ele>8.9</ele>
        <time>2022-04-17T11:35:34Z</time>
      </trkpt>
      <trkpt lat="50.03813" lon="1.97601">
        <ele>8.9</ele>
        <time>2022-04-17T11:35:35Z</time>
      </trkpt>
      <trkpt lat="50.03813" lon="1.97601">
        <ele>8.9</ele>
        <time>2022-04-17T11:35:36Z</time>
      </trkpt>
      <trkpt lat="50.03813" lon="1.97601">
        <ele>8.9</ele>
        <time>2022-04-17T11:35:37Z</time>
      </trkpt>
      <trkpt lat="50.03813" lon="1.976">
        <ele>8.9</ele>
        <time>2022-04-17T11:35:38Z</time>
      </trkpt>
      <trkpt lat="50.03813" lon="1.976">
        <ele>8.9</ele>
        <time>2022-04-17T11:35:39Z</time>
      </trkpt>
      <trkpt lat="50.03813" lon="1.976">
        <ele>8.9</ele>
        <time>2022-04-17T11:35:40Z</time>
      </trkpt>
      <trkpt lat="50.03813" lon="1.976">
        <ele>8.9</ele>
        <time>2022-04-17T11:35:41Z</time>
      </trkpt>
      <trkpt lat="50.03813" lon="1.97599">
        <ele>8.9</ele>
        <time>2022-04-17T11:35:43Z</time>
      </trkpt>
      <trkpt lat="50.03813" lon="1.97599">
        <ele>8.9</ele>
        <time>2022-04-17T11:35:44Z</time>
      </trkpt>
      <trkpt lat="50.03813" lon="1.97599">
        <ele>8.9</ele>
        <time>2022-04-17T11:35:45Z</time>
      </trkpt>
      <trkpt lat="50.03813" lon="1.97599">
        <ele>8.9</ele>
        <time>2022-04-17T11:35:46Z</time>
      </trkpt>
      <trkpt lat="50.03813" lon="1.97599">
        <ele>8.9</ele>
        <time>2022-04-17T11:35:47Z</time>
      </trkpt>
      <trkpt lat="50.03812" lon="1.97594">
        <ele>8.9</ele>
        <time>2022-04-17T11:35:49Z</time>
      </trkpt>
      <trkpt lat="50.03812" lon="1.97593">
        <ele>8.9</ele>
        <time>2022-04-17T11:35:50Z</time>
      </trkpt>
      <trkpt lat="50.03811" lon="1.9759">
        <ele>8.9</ele>
        <time>2022-04-17T11:35:52Z</time>
      </trkpt>
      <trkpt lat="50.03811" lon="1.97588">
        <ele>8.9</ele>
        <time>2022-04-17T11:35:53Z</time>
      </trkpt>
      <trkpt lat="50.0381" lon="1.97586">
        <ele>8.9</ele>
        <time>2022-04-17T11:35:54Z</time>
      </trkpt>
      <trkpt lat="50.0381" lon="1.97584">
        <ele>8.9</ele>
        <time>2022-04-17T11:35:55Z</time>
      </trkpt>
      <trkpt lat="50.0381" lon="1.97583">
        <ele>8.9</ele>
        <time>2022-04-17T11:35:56Z</time>
      </trkpt>
      <trkpt lat="50.0381" lon="1.97581">
        <ele>8.9</ele>
        <time>2022-04-17T11:35:57Z</time>
      </trkpt>
      <trkpt lat="50.03811" lon="1.97581">
        <ele>8.9</ele>
        <time>2022-04-17T11:35:58Z</time>
      </trkpt>
      <trkpt lat="50.03812" lon="1.97582">
        <ele>8.9</ele>
        <time>2022-04-17T11:36:00Z</time>
      </trkpt>
      <trkpt lat="50.03812" lon="1.97582">
        <ele>8.9</ele>
        <time>2022-04-17T11:36:01Z</time>
      </trkpt>
      <trkpt lat="50.03812" lon="1.97583">
        <ele>8.9</ele>
        <time>2022-04-17T11:36:02Z</time>
      </trkpt>
      <trkpt lat="50.03811" lon="1.97583">
        <ele>8.9</ele>
        <time>2022-04-17T11:36:03Z</time>
      </trkpt>
      <trkpt lat="50.03811" lon="1.97584">
        <ele>8.9</ele>
        <time>2022-04-17T11:36:04Z</time>
      </trkpt>
      <trkpt lat="50.03811" lon="1.97584">
        <ele>8.9</ele>
        <time>2022-04-17T11:36:05Z</time>
      </trkpt>
      <trkpt lat="50.03811" lon="1.97584">
        <ele>8.9</ele>
        <time>2022-04-17T11:36:06Z</time>
      </trkpt>
      <trkpt lat="50.03811" lon="1.97584">
        <ele>8.9</ele>
        <time>2022-04-17T11:36:07Z</time>
      </trkpt>
      <trkpt lat="50.03811" lon="1.97585">
        <ele>8.9</ele>
        <time>2022-04-17T11:36:08Z</time>
      </trkpt>
      <trkpt lat="50.03811" lon="1.97585">
        <ele>8.9</ele>
        <time>2022-04-17T11:36:09Z</time>
      </trkpt>
      <trkpt lat="50.03811" lon="1.97585">
        <ele>8.9</ele>
        <time>2022-04-17T11:36:10Z</time>
      </trkpt>
      <trkpt lat="50.03811" lon="1.97585">
        <ele>8.9</ele>
        <time>2022-04-17T11:36:12Z</time>
      </trkpt>
      <trkpt lat="50.0381" lon="1.97585">
        <ele>8.9</ele>
        <time>2022-04-17T11:36:13Z</time>
      </trkpt>
      <trkpt lat="50.0381" lon="1.97584">
        <ele>8.8</ele>
        <time>2022-04-17T11:36:14Z</time>
      </trkpt>
      <trkpt lat="50.0381" lon="1.97584">
        <ele>8.8</ele>
        <time>2022-04-17T11:36:16Z</time>
      </trkpt>
      <trkpt lat="50.03809" lon="1.97583">
        <ele>8.8</ele>
        <time>2022-04-17T11:36:17Z</time>
      </trkpt>
      <trkpt lat="50.03809" lon="1.97581">
        <ele>8.8</ele>
        <time>2022-04-17T11:36:18Z</time>
      </trkpt>
      <trkpt lat="50.03808" lon="1.9758">
        <ele>8.8</ele>
        <time>2022-04-17T11:36:19Z</time>
      </trkpt>
      <trkpt lat="50.03808" lon="1.97579">
        <ele>8.8</ele>
        <time>2022-04-17T11:36:20Z</time>
      </trkpt>
      <trkpt lat="50.03808" lon="1.97578">
        <ele>8.8</ele>
        <time>2022-04-17T11:36:22Z</time>
      </trkpt>
      <trkpt lat="50.03808" lon="1.97577">
        <ele>8.8</ele>
        <time>2022-04-17T11:36:23Z</time>
      </trkpt>
      <trkpt lat="50.03808" lon="1.97576">
        <ele>8.8</ele>
        <time>2022-04-17T11:36:24Z</time>
      </trkpt>
      <trkpt lat="50.03808" lon="1.97576">
        <ele>8.8</ele>
        <time>2022-04-17T11:36:25Z</time>
      </trkpt>
      <trkpt lat="50.03808" lon="1.97575">
        <ele>8.8</ele>
        <time>2022-04-17T11:36:27Z</time>
      </trkpt>
      <trkpt lat="50.03807" lon="1.97574">
        <ele>8.8</ele>
        <time>2022-04-17T11:36:28Z</time>
      </trkpt>
      <trkpt lat="50.03807" lon="1.97572">
        <ele>8.8</ele>
        <time>2022-04-17T11:36:29Z</time>
      </trkpt>
      <trkpt lat="50.03806" lon="1.97569">
        <ele>8.8</ele>
        <time>2022-04-17T11:36:30Z</time>
      </trkpt>
      <trkpt lat="50.03806" lon="1.97567">
        <ele>8.8</ele>
        <time>2022-04-17T11:36:31Z</time>
      </trkpt>
      <trkpt lat="50.03807" lon="1.97563">
        <ele>8.7</ele>
        <time>2022-04-17T11:36:33Z</time>
      </trkpt>
      <trkpt lat="50.03808" lon="1.9756">
        <ele>8.7</ele>
        <time>2022-04-17T11:36:34Z</time>
      </trkpt>
      <trkpt lat="50.03809" lon="1.97559">
        <ele>8.7</ele>
        <time>2022-04-17T11:36:36Z</time>
      </trkpt>
      <trkpt lat="50.0381" lon="1.97557">
        <ele>8.6</ele>
        <time>2022-04-17T11:36:37Z</time>
      </trkpt>
      <trkpt lat="50.0381" lon="1.97556">
        <ele>8.6</ele>
        <time>2022-04-17T11:36:38Z</time>
      </trkpt>
      <trkpt lat="50.03811" lon="1.97555">
        <ele>8.6</ele>
        <time>2022-04-17T11:36:39Z</time>
      </trkpt>
      <trkpt lat="50.03812" lon="1.97552">
        <ele>8.6</ele>
        <time>2022-04-17T11:36:40Z</time>
      </trkpt>
      <trkpt lat="50.03813" lon="1.97552">
        <ele>8.5</ele>
        <time>2022-04-17T11:36:41Z</time>
      </trkpt>
      <trkpt lat="50.03813" lon="1.97551">
        <ele>8.5</ele>
        <time>2022-04-17T11:36:42Z</time>
      </trkpt>
      <trkpt lat="50.03814" lon="1.97549">
        <ele>8.5</ele>
        <time>2022-04-17T11:36:43Z</time>
      </trkpt>
      <trkpt lat="50.03815" lon="1.97548">
        <ele>8.5</ele>
        <time>2022-04-17T11:36:44Z</time>
      </trkpt>
      <trkpt lat="50.03816" lon="1.97545">
        <ele>8.4</ele>
        <time>2022-04-17T11:36:46Z</time>
      </trkpt>
      <trkpt lat="50.03817" lon="1.97542">
        <ele>8.4</ele>
        <time>2022-04-17T11:36:47Z</time>
      </trkpt>
      <trkpt lat="50.03818" lon="1.97541">
        <ele>8.4</ele>
        <time>2022-04-17T11:36:48Z</time>
      </trkpt>
      <trkpt lat="50.03819" lon="1.97539">
        <ele>8.4</ele>
        <time>2022-04-17T11:36:49Z</time>
      </trkpt>
      <trkpt lat="50.03819" lon="1.97537">
        <ele>8.4</ele>
        <time>2022-04-17T11:36:50Z</time>
      </trkpt>
      <trkpt lat="50.0382" lon="1.97535">
        <ele>8.4</ele>
        <time>2022-04-17T11:36:51Z</time>
      </trkpt>
      <trkpt lat="50.03821" lon="1.97533">
        <ele>8.3</ele>
        <time>2022-04-17T11:36:52Z</time>
      </trkpt>
      <trkpt lat="50.03823" lon="1.9753">
        <ele>8.3</ele>
        <time>2022-04-17T11:36:54Z</time>
      </trkpt>
      <trkpt lat="50.03823" lon="1.97528">
        <ele>8.3</ele>
        <time>2022-04-17T11:36:55Z</time>
      </trkpt>
      <trkpt lat="50.03825" lon="1.97525">
        <ele>8.3</ele>
        <time>2022-04-17T11:36:57Z</time>
      </trkpt>
      <trkpt lat="50.03826" lon="1.97524">
        <ele>8.3</ele>
        <time>2022-04-17T11:36:58Z</time>
      </trkpt>
      <trkpt lat="50.03827" lon="1.97521">
        <ele>8.2</ele>
        <time>2022-04-17T11:37:00Z</time>
      </trkpt>
      <trkpt lat="50.03828" lon="1.9752">
        <ele>8.2</ele>
        <time>2022-04-17T11:37:01Z</time>
      </trkpt>
      <trkpt lat="50.03829" lon="1.97518">
        <ele>8.2</ele>
        <time>2022-04-17T11:37:02Z</time>
      </trkpt>
      <trkpt lat="50.0383" lon="1.97515">
        <ele>8.2</ele>
        <time>2022-04-17T11:37:04Z</time>
      </trkpt>
      <trkpt lat="50.03831" lon="1.97514">
        <ele>8.2</ele>
        <time>2022-04-17T11:37:05Z</time>
      </trkpt>
      <trkpt lat="50.03832" lon="1.97512">
        <ele>8.2</ele>
        <time>2022-04-17T11:37:06Z</time>
      </trkpt>
      <trkpt lat="50.03832" lon="1.97511">
        <ele>8.2</ele>
        <time>2022-04-17T11:37:08Z</time>
      </trkpt>
      <trkpt lat="50.03833" lon="1.97508">
        <ele>8.2</ele>
        <time>2022-04-17T11:37:09Z</time>
      </trkpt>
      <trkpt lat="50.03834" lon="1.97506">
        <ele>8.2</ele>
        <time>2022-04-17T11:37:10Z</time>
      </trkpt>
      <trkpt lat="50.03834" lon="1.97505">
        <ele>8.1</ele>
        <time>2022-04-17T11:37:11Z</time>
      </trkpt>
      <trkpt lat="50.03835" lon="1.97503">
        <ele>8.1</ele>
        <time>2022-04-17T11:37:12Z</time>
      </trkpt>
      <trkpt lat="50.03835" lon="1.97502">
        <ele>8.1</ele>
        <time>2022-04-17T11:37:13Z</time>
      </trkpt>
      <trkpt lat="50.03836" lon="1.975">
        <ele>8.1</ele>
        <time>2022-04-17T11:37:14Z</time>
      </trkpt>
      <trkpt lat="50.03837" lon="1.97499">
        <ele>8.1</ele>
        <time>2022-04-17T11:37:15Z</time>
      </trkpt>
      <trkpt lat="50.03837" lon="1.97497">
        <ele>8.1</ele>
        <time>2022-04-17T11:37:16Z</time>
      </trkpt>
      <trkpt lat="50.03838" lon="1.97495">
        <ele>8.1</ele>
        <time>2022-04-17T11:37:18Z</time>
      </trkpt>
      <trkpt lat="50.03838" lon="1.97493">
        <ele>8.1</ele>
        <time>2022-04-17T11:37:19Z</time>
      </trkpt>
      <trkpt lat="50.03839" lon="1.97488">
        <ele>8.1</ele>
        <time>2022-04-17T11:37:21Z</time>
      </trkpt>
      <trkpt lat="50.03839" lon="1.97487">
        <ele>8.1</ele>
        <time>2022-04-17T11:37:22Z</time>
      </trkpt>
      <trkpt lat="50.0384" lon="1.97485">
        <ele>8.1</ele>
        <time>2022-04-17T11:37:23Z</time>
      </trkpt>
      <trkpt lat="50.0384" lon="1.97482">
        <ele>8.1</ele>
        <time>2022-04-17T11:37:25Z</time>
      </trkpt>
      <trkpt lat="50.0384" lon="1.9748">
        <ele>8.1</ele>
        <time>2022-04-17T11:37:26Z</time>
      </trkpt>
      <trkpt lat="50.0384" lon="1.97478">
        <ele>8.1</ele>
        <time>2022-04-17T11:37:27Z</time>
      </trkpt>
      <trkpt lat="50.0384" lon="1.97476">
        <ele>8.1</ele>
        <time>2022-04-17T11:37:28Z</time>
      </trkpt>
      <trkpt lat="50.0384" lon="1.97475">
        <ele>8</ele>
        <time>2022-04-17T11:37:29Z</time>
      </trkpt>
      <trkpt lat="50.03839" lon="1.97472">
        <ele>8</ele>
        <time>2022-04-17T11:37:30Z</time>
      </trkpt>
      <trkpt lat="50.03839" lon="1.97469">
        <ele>8</ele>
        <time>2022-04-17T11:37:31Z</time>
      </trkpt>
      <trkpt lat="50.03839" lon="1.97467">
        <ele>8</ele>
        <time>2022-04-17T11:37:33Z</time>
      </trkpt>
      <trkpt lat="50.03838" lon="1.97466">
        <ele>8</ele>
        <time>2022-04-17T11:37:34Z</time>
      </trkpt>
      <trkpt lat="50.03838" lon="1.97463">
        <ele>8</ele>
        <time>2022-04-17T11:37:35Z</time>
      </trkpt>
      <trkpt lat="50.03838" lon="1.97462">
        <ele>8</ele>
        <time>2022-04-17T11:37:36Z</time>
      </trkpt>
      <trkpt lat="50.03838" lon="1.97459">
        <ele>8</ele>
        <time>2022-04-17T11:37:38Z</time>
      </trkpt>
      <trkpt lat="50.03838" lon="1.97457">
        <ele>8</ele>
        <time>2022-04-17T11:37:39Z</time>
      </trkpt>
      <trkpt lat="50.03838" lon="1.97454">
        <ele>8</ele>
        <time>2022-04-17T11:37:40Z</time>
      </trkpt>
      <trkpt lat="50.03838" lon="1.97451">
        <ele>8</ele>
        <time>2022-04-17T11:37:42Z</time>
      </trkpt>
      <trkpt lat="50.03838" lon="1.97449">
        <ele>8</ele>
        <time>2022-04-17T11:37:43Z</time>
      </trkpt>
      <trkpt lat="50.03838" lon="1.97448">
        <ele>8</ele>
        <time>2022-04-17T11:37:44Z</time>
      </trkpt>
      <trkpt lat="50.03837" lon="1.97443">
        <ele>8</ele>
        <time>2022-04-17T11:37:45Z</time>
      </trkpt>
      <trkpt lat="50.03837" lon="1.97442">
        <ele>8</ele>
        <time>2022-04-17T11:37:46Z</time>
      </trkpt>
      <trkpt lat="50.03837" lon="1.97439">
        <ele>8</ele>
        <time>2022-04-17T11:37:47Z</time>
      </trkpt>
      <trkpt lat="50.03837" lon="1.97438">
        <ele>8</ele>
        <time>2022-04-17T11:37:48Z</time>
      </trkpt>
      <trkpt lat="50.03837" lon="1.97437">
        <ele>8</ele>
        <time>2022-04-17T11:37:49Z</time>
      </trkpt>
      <trkpt lat="50.03836" lon="1.97433">
        <ele>8</ele>
        <time>2022-04-17T11:37:50Z</time>
      </trkpt>
      <trkpt lat="50.03836" lon="1.97432">
        <ele>8</ele>
        <time>2022-04-17T11:37:52Z</time>
      </trkpt>
      <trkpt lat="50.03836" lon="1.9743">
        <ele>8</ele>
        <time>2022-04-17T11:37:53Z</time>
      </trkpt>
      <trkpt lat="50.03836" lon="1.97429">
        <ele>8</ele>
        <time>2022-04-17T11:37:54Z</time>
      </trkpt>
      <trkpt lat="50.03836" lon="1.97426">
        <ele>8</ele>
        <time>2022-04-17T11:37:55Z</time>
      </trkpt>
      <trkpt lat="50.03837" lon="1.97424">
        <ele>8</ele>
        <time>2022-04-17T11:37:56Z</time>
      </trkpt>
      <trkpt lat="50.03837" lon="1.97423">
        <ele>8</ele>
        <time>2022-04-17T11:37:57Z</time>
      </trkpt>
      <trkpt lat="50.03837" lon="1.97421">
        <ele>8</ele>
        <time>2022-04-17T11:37:58Z</time>
      </trkpt>
      <trkpt lat="50.03838" lon="1.97418">
        <ele>8</ele>
        <time>2022-04-17T11:37:59Z</time>
      </trkpt>
      <trkpt lat="50.03838" lon="1.97416">
        <ele>8</ele>
        <time>2022-04-17T11:38:01Z</time>
      </trkpt>
      <trkpt lat="50.03839" lon="1.97415">
        <ele>8</ele>
        <time>2022-04-17T11:38:02Z</time>
      </trkpt>
      <trkpt lat="50.03839" lon="1.97413">
        <ele>8</ele>
        <time>2022-04-17T11:38:03Z</time>
      </trkpt>
      <trkpt lat="50.03839" lon="1.97411">
        <ele>8</ele>
        <time>2022-04-17T11:38:04Z</time>
      </trkpt>
      <trkpt lat="50.0384" lon="1.97409">
        <ele>8</ele>
        <time>2022-04-17T11:38:05Z</time>
      </trkpt>
      <trkpt lat="50.0384" lon="1.97407">
        <ele>8</ele>
        <time>2022-04-17T11:38:06Z</time>
      </trkpt>
      <trkpt lat="50.03841" lon="1.97403">
        <ele>8</ele>
        <time>2022-04-17T11:38:08Z</time>
      </trkpt>
      <trkpt lat="50.03841" lon="1.97402">
        <ele>8</ele>
        <time>2022-04-17T11:38:09Z</time>
      </trkpt>
      <trkpt lat="50.03841" lon="1.97401">
        <ele>8</ele>
        <time>2022-04-17T11:38:10Z</time>
      </trkpt>
      <trkpt lat="50.03842" lon="1.97397">
        <ele>8</ele>
        <time>2022-04-17T11:38:11Z</time>
      </trkpt>
      <trkpt lat="50.03842" lon="1.97396">
        <ele>8</ele>
        <time>2022-04-17T11:38:12Z</time>
      </trkpt>
      <trkpt lat="50.03842" lon="1.97395">
        <ele>8</ele>
        <time>2022-04-17T11:38:13Z</time>
      </trkpt>
      <trkpt lat="50.03843" lon="1.97393">
        <ele>8</ele>
        <time>2022-04-17T11:38:14Z</time>
      </trkpt>
      <trkpt lat="50.03843" lon="1.97391">
        <ele>8</ele>
        <time>2022-04-17T11:38:15Z</time>
      </trkpt>
      <trkpt lat="50.03844" lon="1.97387">
        <ele>8</ele>
        <time>2022-04-17T11:38:16Z</time>
      </trkpt>
      <trkpt lat="50.03844" lon="1.97386">
        <ele>8</ele>
        <time>2022-04-17T11:38:17Z</time>
      </trkpt>
      <trkpt lat="50.03844" lon="1.97386">
        <ele>8</ele>
        <time>2022-04-17T11:38:18Z</time>
      </trkpt>
      <trkpt lat="50.03844" lon="1.97384">
        <ele>8</ele>
        <time>2022-04-17T11:38:19Z</time>
      </trkpt>
      <trkpt lat="50.03845" lon="1.97383">
        <ele>8</ele>
        <time>2022-04-17T11:38:20Z</time>
      </trkpt>
      <trkpt lat="50.03845" lon="1.97381">
        <ele>8</ele>
        <time>2022-04-17T11:38:21Z</time>
      </trkpt>
      <trkpt lat="50.03846" lon="1.9738">
        <ele>8</ele>
        <time>2022-04-17T11:38:22Z</time>
      </trkpt>
      <trkpt lat="50.03846" lon="1.97378">
        <ele>8</ele>
        <time>2022-04-17T11:38:24Z</time>
      </trkpt>
      <trkpt lat="50.03846" lon="1.97376">
        <ele>8</ele>
        <time>2022-04-17T11:38:25Z</time>
      </trkpt>
      <trkpt lat="50.03847" lon="1.97373">
        <ele>8</ele>
        <time>2022-04-17T11:38:26Z</time>
      </trkpt>
      <trkpt lat="50.03847" lon="1.97372">
        <ele>8</ele>
        <time>2022-04-17T11:38:27Z</time>
      </trkpt>
      <trkpt lat="50.03848" lon="1.9737">
        <ele>8</ele>
        <time>2022-04-17T11:38:28Z</time>
      </trkpt>
      <trkpt lat="50.03848" lon="1.97369">
        <ele>8</ele>
        <time>2022-04-17T11:38:29Z</time>
      </trkpt>
      <trkpt lat="50.03848" lon="1.97367">
        <ele>8</ele>
        <time>2022-04-17T11:38:30Z</time>
      </trkpt>
      <trkpt lat="50.03849" lon="1.97363">
        <ele>8</ele>
        <time>2022-04-17T11:38:31Z</time>
      </trkpt>
      <trkpt lat="50.03849" lon="1.97361">
        <ele>8</ele>
        <time>2022-04-17T11:38:32Z</time>
      </trkpt>
      <trkpt lat="50.0385" lon="1.97359">
        <ele>8</ele>
        <time>2022-04-17T11:38:34Z</time>
      </trkpt>
      <trkpt lat="50.0385" lon="1.97357">
        <ele>8</ele>
        <time>2022-04-17T11:38:36Z</time>
      </trkpt>
      <trkpt lat="50.03851" lon="1.97355">
        <ele>8</ele>
        <time>2022-04-17T11:38:37Z</time>
      </trkpt>
      <trkpt lat="50.03851" lon="1.97354">
        <ele>8</ele>
        <time>2022-04-17T11:38:38Z</time>
      </trkpt>
      <trkpt lat="50.03851" lon="1.97352">
        <ele>8</ele>
        <time>2022-04-17T11:38:39Z</time>
      </trkpt>
      <trkpt lat="50.03852" lon="1.9735">
        <ele>8</ele>
        <time>2022-04-17T11:38:40Z</time>
      </trkpt>
      <trkpt lat="50.03853" lon="1.97347">
        <ele>8</ele>
        <time>2022-04-17T11:38:41Z</time>
      </trkpt>
      <trkpt lat="50.03853" lon="1.97345">
        <ele>8</ele>
        <time>2022-04-17T11:38:42Z</time>
      </trkpt>
      <trkpt lat="50.03854" lon="1.97344">
        <ele>8</ele>
        <time>2022-04-17T11:38:43Z</time>
      </trkpt>
      <trkpt lat="50.03854" lon="1.97343">
        <ele>8</ele>
        <time>2022-04-17T11:38:44Z</time>
      </trkpt>
      <trkpt lat="50.03855" lon="1.97341">
        <ele>8</ele>
        <time>2022-04-17T11:38:45Z</time>
      </trkpt>
      <trkpt lat="50.03855" lon="1.9734">
        <ele>8</ele>
        <time>2022-04-17T11:38:46Z</time>
      </trkpt>
      <trkpt lat="50.03856" lon="1.97338">
        <ele>8</ele>
        <time>2022-04-17T11:38:48Z</time>
      </trkpt>
      <trkpt lat="50.03856" lon="1.97336">
        <ele>8</ele>
        <time>2022-04-17T11:38:49Z</time>
      </trkpt>
      <trkpt lat="50.03856" lon="1.97334">
        <ele>8.1</ele>
        <time>2022-04-17T11:38:50Z</time>
      </trkpt>
      <trkpt lat="50.03856" lon="1.97331">
        <ele>8.1</ele>
        <time>2022-04-17T11:38:51Z</time>
      </trkpt>
      <trkpt lat="50.03856" lon="1.97329">
        <ele>8.1</ele>
        <time>2022-04-17T11:38:52Z</time>
      </trkpt>
      <trkpt lat="50.03856" lon="1.97326">
        <ele>8.1</ele>
        <time>2022-04-17T11:38:53Z</time>
      </trkpt>
      <trkpt lat="50.03856" lon="1.97324">
        <ele>8.1</ele>
        <time>2022-04-17T11:38:54Z</time>
      </trkpt>
      <trkpt lat="50.03855" lon="1.97321">
        <ele>8.1</ele>
        <time>2022-04-17T11:38:56Z</time>
      </trkpt>
      <trkpt lat="50.03855" lon="1.97319">
        <ele>8.1</ele>
        <time>2022-04-17T11:38:57Z</time>
      </trkpt>
      <trkpt lat="50.03854" lon="1.97317">
        <ele>8.1</ele>
        <time>2022-04-17T11:38:58Z</time>
      </trkpt>
      <trkpt lat="50.03854" lon="1.97315">
        <ele>8.1</ele>
        <time>2022-04-17T11:38:59Z</time>
      </trkpt>
      <trkpt lat="50.03853" lon="1.97313">
        <ele>8.1</ele>
        <time>2022-04-17T11:39:00Z</time>
      </trkpt>
      <trkpt lat="50.03852" lon="1.9731">
        <ele>8.2</ele>
        <time>2022-04-17T11:39:01Z</time>
      </trkpt>
      <trkpt lat="50.03852" lon="1.97309">
        <ele>8.2</ele>
        <time>2022-04-17T11:39:02Z</time>
      </trkpt>
      <trkpt lat="50.03851" lon="1.97306">
        <ele>8.2</ele>
        <time>2022-04-17T11:39:04Z</time>
      </trkpt>
      <trkpt lat="50.0385" lon="1.97303">
        <ele>8.2</ele>
        <time>2022-04-17T11:39:06Z</time>
      </trkpt>
      <trkpt lat="50.0385" lon="1.97301">
        <ele>8.2</ele>
        <time>2022-04-17T11:39:07Z</time>
      </trkpt>
      <trkpt lat="50.03849" lon="1.97299">
        <ele>8.2</ele>
        <time>2022-04-17T11:39:08Z</time>
      </trkpt>
      <trkpt lat="50.03849" lon="1.97296">
        <ele>8.2</ele>
        <time>2022-04-17T11:39:10Z</time>
      </trkpt>
      <trkpt lat="50.03848" lon="1.97294">
        <ele>8.2</ele>
        <time>2022-04-17T11:39:11Z</time>
      </trkpt>
      <trkpt lat="50.03848" lon="1.9729">
        <ele>8.1</ele>
        <time>2022-04-17T11:39:13Z</time>
      </trkpt>
      <trkpt lat="50.03848" lon="1.97286">
        <ele>8.1</ele>
        <time>2022-04-17T11:39:15Z</time>
      </trkpt>
      <trkpt lat="50.03848" lon="1.97284">
        <ele>8.1</ele>
        <time>2022-04-17T11:39:16Z</time>
      </trkpt>
      <trkpt lat="50.03848" lon="1.97283">
        <ele>8.1</ele>
        <time>2022-04-17T11:39:17Z</time>
      </trkpt>
      <trkpt lat="50.03847" lon="1.9728">
        <ele>8.1</ele>
        <time>2022-04-17T11:39:19Z</time>
      </trkpt>
      <trkpt lat="50.03847" lon="1.97278">
        <ele>8.1</ele>
        <time>2022-04-17T11:39:20Z</time>
      </trkpt>
      <trkpt lat="50.03847" lon="1.97275">
        <ele>8.1</ele>
        <time>2022-04-17T11:39:21Z</time>
      </trkpt>
      <trkpt lat="50.03847" lon="1.97273">
        <ele>8.1</ele>
        <time>2022-04-17T11:39:22Z</time>
      </trkpt>
      <trkpt lat="50.03847" lon="1.97271">
        <ele>8.1</ele>
        <time>2022-04-17T11:39:23Z</time>
      </trkpt>
      <trkpt lat="50.03846" lon="1.97269">
        <ele>8.1</ele>
        <time>2022-04-17T11:39:25Z</time>
      </trkpt>
      <trkpt lat="50.03846" lon="1.97268">
        <ele>8.1</ele>
        <time>2022-04-17T11:39:26Z</time>
      </trkpt>
      <trkpt lat="50.03846" lon="1.97266">
        <ele>8.1</ele>
        <time>2022-04-17T11:39:27Z</time>
      </trkpt>
      <trkpt lat="50.03846" lon="1.97265">
        <ele>8.1</ele>
        <time>2022-04-17T11:39:28Z</time>
      </trkpt>
      <trkpt lat="50.03846" lon="1.9726">
        <ele>8.1</ele>
        <time>2022-04-17T11:39:30Z</time>
      </trkpt>
      <trkpt lat="50.03846" lon="1.97258">
        <ele>8.1</ele>
        <time>2022-04-17T11:39:31Z</time>
      </trkpt>
      <trkpt lat="50.03846" lon="1.97257">
        <ele>8.1</ele>
        <time>2022-04-17T11:39:32Z</time>
      </trkpt>
      <trkpt lat="50.03846" lon="1.97255">
        <ele>8.1</ele>
        <time>2022-04-17T11:39:34Z</time>
      </trkpt>
      <trkpt lat="50.03847" lon="1.97253">
        <ele>8.1</ele>
        <time>2022-04-17T11:39:35Z</time>
      </trkpt>
      <trkpt lat="50.03848" lon="1.97249">
        <ele>8.1</ele>
        <time>2022-04-17T11:39:37Z</time>
      </trkpt>
      <trkpt lat="50.03849" lon="1.97248">
        <ele>8.1</ele>
        <time>2022-04-17T11:39:38Z</time>
      </trkpt>
      <trkpt lat="50.03849" lon="1.97244">
        <ele>8.1</ele>
        <time>2022-04-17T11:39:39Z</time>
      </trkpt>
      <trkpt lat="50.03849" lon="1.97243">
        <ele>8.1</ele>
        <time>2022-04-17T11:39:40Z</time>
      </trkpt>
      <trkpt lat="50.03849" lon="1.97242">
        <ele>8.1</ele>
        <time>2022-04-17T11:39:41Z</time>
      </trkpt>
      <trkpt lat="50.03849" lon="1.9724">
        <ele>8.1</ele>
        <time>2022-04-17T11:39:42Z</time>
      </trkpt>
      <trkpt lat="50.0385" lon="1.97238">
        <ele>8.1</ele>
        <time>2022-04-17T11:39:43Z</time>
      </trkpt>
      <trkpt lat="50.0385" lon="1.97237">
        <ele>8.1</ele>
        <time>2022-04-17T11:39:44Z</time>
      </trkpt>
      <trkpt lat="50.0385" lon="1.97235">
        <ele>8.1</ele>
        <time>2022-04-17T11:39:46Z</time>
      </trkpt>
      <trkpt lat="50.0385" lon="1.97233">
        <ele>8.1</ele>
        <time>2022-04-17T11:39:47Z</time>
      </trkpt>
      <trkpt lat="50.03851" lon="1.97228">
        <ele>8.1</ele>
        <time>2022-04-17T11:39:48Z</time>
      </trkpt>
      <trkpt lat="50.03851" lon="1.97226">
        <ele>8.1</ele>
        <time>2022-04-17T11:39:50Z</time>
      </trkpt>
      <trkpt lat="50.03851" lon="1.97224">
        <ele>8.1</ele>
        <time>2022-04-17T11:39:51Z</time>
      </trkpt>
      <trkpt lat="50.03851" lon="1.97221">
        <ele>8.1</ele>
        <time>2022-04-17T11:39:52Z</time>
      </trkpt>
      <trkpt lat="50.03852" lon="1.9722">
        <ele>8.1</ele>
        <time>2022-04-17T11:39:54Z</time>
      </trkpt>
      <trkpt lat="50.03852" lon="1.97218">
        <ele>8.1</ele>
        <time>2022-04-17T11:39:55Z</time>
      </trkpt>
      <trkpt lat="50.03852" lon="1.97217">
        <ele>8.1</ele>
        <time>2022-04-17T11:39:56Z</time>
      </trkpt>
      <trkpt lat="50.03853" lon="1.97215">
        <ele>8.1</ele>
        <time>2022-04-17T11:39:57Z</time>
      </trkpt>
      <trkpt lat="50.03853" lon="1.97214">
        <ele>8.1</ele>
        <time>2022-04-17T11:39:58Z</time>
      </trkpt>
      <trkpt lat="50.03853" lon="1.97212">
        <ele>8.1</ele>
        <time>2022-04-17T11:39:59Z</time>
      </trkpt>
      <trkpt lat="50.03854" lon="1.97211">
        <ele>8.1</ele>
        <time>2022-04-17T11:40:00Z</time>
      </trkpt>
      <trkpt lat="50.03854" lon="1.97208">
        <ele>8.1</ele>
        <time>2022-04-17T11:40:02Z</time>
      </trkpt>
      <trkpt lat="50.03854" lon="1.97206">
        <ele>8.1</ele>
        <time>2022-04-17T11:40:03Z</time>
      </trkpt>
      <trkpt lat="50.03855" lon="1.97204">
        <ele>8.1</ele>
        <time>2022-04-17T11:40:04Z</time>
      </trkpt>
      <trkpt lat="50.03855" lon="1.97202">
        <ele>8.1</ele>
        <time>2022-04-17T11:40:05Z</time>
      </trkpt>
      <trkpt lat="50.03855" lon="1.97198">
        <ele>8.1</ele>
        <time>2022-04-17T11:40:07Z</time>
      </trkpt>
      <trkpt lat="50.03855" lon="1.97195">
        <ele>8.1</ele>
        <time>2022-04-17T11:40:08Z</time>
      </trkpt>
      <trkpt lat="50.03855" lon="1.97194">
        <ele>8.1</ele>
        <time>2022-04-17T11:40:09Z</time>
      </trkpt>
      <trkpt lat="50.03855" lon="1.97192">
        <ele>8.1</ele>
        <time>2022-04-17T11:40:10Z</time>
      </trkpt>
      <trkpt lat="50.03856" lon="1.97191">
        <ele>8.1</ele>
        <time>2022-04-17T11:40:11Z</time>
      </trkpt>
      <trkpt lat="50.03856" lon="1.97189">
        <ele>8.1</ele>
        <time>2022-04-17T11:40:12Z</time>
      </trkpt>
      <trkpt lat="50.03857" lon="1.97188">
        <ele>8.1</ele>
        <time>2022-04-17T11:40:14Z</time>
      </trkpt>
      <trkpt lat="50.03857" lon="1.97186">
        <ele>8.1</ele>
        <time>2022-04-17T11:40:15Z</time>
      </trkpt>
      <trkpt lat="50.03857" lon="1.97184">
        <ele>8.1</ele>
        <time>2022-04-17T11:40:16Z</time>
      </trkpt>
      <trkpt lat="50.03858" lon="1.97179">
        <ele>8.1</ele>
        <time>2022-04-17T11:40:18Z</time>
      </trkpt>
      <trkpt lat="50.03858" lon="1.97178">
        <ele>8.1</ele>
        <time>2022-04-17T11:40:19Z</time>
      </trkpt>
      <trkpt lat="50.03858" lon="1.97176">
        <ele>8.1</ele>
        <time>2022-04-17T11:40:20Z</time>
      </trkpt>
      <trkpt lat="50.03858" lon="1.97175">
        <ele>8.1</ele>
        <time>2022-04-17T11:40:21Z</time>
      </trkpt>
      <trkpt lat="50.03858" lon="1.97173">
        <ele>8.1</ele>
        <time>2022-04-17T11:40:22Z</time>
      </trkpt>
      <trkpt lat="50.03859" lon="1.97169">
        <ele>8.1</ele>
        <time>2022-04-17T11:40:24Z</time>
      </trkpt>
      <trkpt lat="50.03859" lon="1.97168">
        <ele>8.1</ele>
        <time>2022-04-17T11:40:25Z</time>
      </trkpt>
      <trkpt lat="50.03859" lon="1.97167">
        <ele>8.2</ele>
        <time>2022-04-17T11:40:26Z</time>
      </trkpt>
      <trkpt lat="50.03859" lon="1.97164">
        <ele>8.2</ele>
        <time>2022-04-17T11:40:27Z</time>
      </trkpt>
      <trkpt lat="50.03859" lon="1.97163">
        <ele>8.2</ele>
        <time>2022-04-17T11:40:28Z</time>
      </trkpt>
      <trkpt lat="50.03859" lon="1.97162">
        <ele>8.2</ele>
        <time>2022-04-17T11:40:30Z</time>
      </trkpt>
      <trkpt lat="50.03859" lon="1.9716">
        <ele>8.2</ele>
        <time>2022-04-17T11:40:31Z</time>
      </trkpt>
      <trkpt lat="50.03859" lon="1.97157">
        <ele>8.2</ele>
        <time>2022-04-17T11:40:32Z</time>
      </trkpt>
      <trkpt lat="50.03859" lon="1.97155">
        <ele>8.2</ele>
        <time>2022-04-17T11:40:33Z</time>
      </trkpt>
      <trkpt lat="50.03859" lon="1.97154">
        <ele>8.2</ele>
        <time>2022-04-17T11:40:35Z</time>
      </trkpt>
      <trkpt lat="50.03859" lon="1.97152">
        <ele>8.2</ele>
        <time>2022-04-17T11:40:36Z</time>
      </trkpt>
      <trkpt lat="50.0386" lon="1.97149">
        <ele>8.2</ele>
        <time>2022-04-17T11:40:37Z</time>
      </trkpt>
      <trkpt lat="50.0386" lon="1.97148">
        <ele>8.2</ele>
        <time>2022-04-17T11:40:38Z</time>
      </trkpt>
      <trkpt lat="50.0386" lon="1.97146">
        <ele>8.2</ele>
        <time>2022-04-17T11:40:39Z</time>
      </trkpt>
      <trkpt lat="50.0386" lon="1.97143">
        <ele>8.3</ele>
        <time>2022-04-17T11:40:40Z</time>
      </trkpt>
      <trkpt lat="50.0386" lon="1.97142">
        <ele>8.3</ele>
        <time>2022-04-17T11:40:41Z</time>
      </trkpt>
      <trkpt lat="50.03861" lon="1.9714">
        <ele>8.3</ele>
        <time>2022-04-17T11:40:42Z</time>
      </trkpt>
      <trkpt lat="50.03861" lon="1.97139">
        <ele>8.3</ele>
        <time>2022-04-17T11:40:43Z</time>
      </trkpt>
      <trkpt lat="50.03861" lon="1.97138">
        <ele>8.3</ele>
        <time>2022-04-17T11:40:44Z</time>
      </trkpt>
      <trkpt lat="50.03861" lon="1.97136">
        <ele>8.3</ele>
        <time>2022-04-17T11:40:46Z</time>
      </trkpt>
      <trkpt lat="50.03861" lon="1.97133">
        <ele>8.3</ele>
        <time>2022-04-17T11:40:47Z</time>
      </trkpt>
      <trkpt lat="50.03861" lon="1.97132">
        <ele>8.3</ele>
        <time>2022-04-17T11:40:48Z</time>
      </trkpt>
      <trkpt lat="50.03861" lon="1.9713">
        <ele>8.3</ele>
        <time>2022-04-17T11:40:49Z</time>
      </trkpt>
      <trkpt lat="50.03861" lon="1.97127">
        <ele>8.3</ele>
        <time>2022-04-17T11:40:50Z</time>
      </trkpt>
      <trkpt lat="50.03861" lon="1.97126">
        <ele>8.3</ele>
        <time>2022-04-17T11:40:51Z</time>
      </trkpt>
      <trkpt lat="50.03861" lon="1.97124">
        <ele>8.3</ele>
        <time>2022-04-17T11:40:52Z</time>
      </trkpt>
      <trkpt lat="50.03861" lon="1.97123">
        <ele>8.3</ele>
        <time>2022-04-17T11:40:53Z</time>
      </trkpt>
      <trkpt lat="50.03861" lon="1.97121">
        <ele>8.3</ele>
        <time>2022-04-17T11:40:54Z</time>
      </trkpt>
      <trkpt lat="50.0386" lon="1.97119">
        <ele>8.3</ele>
        <time>2022-04-17T11:40:55Z</time>
      </trkpt>
      <trkpt lat="50.0386" lon="1.97118">
        <ele>8.3</ele>
        <time>2022-04-17T11:40:56Z</time>
      </trkpt>
      <trkpt lat="50.0386" lon="1.97115">
        <ele>8.3</ele>
        <time>2022-04-17T11:40:58Z</time>
      </trkpt>
      <trkpt lat="50.0386" lon="1.97114">
        <ele>8.3</ele>
        <time>2022-04-17T11:40:59Z</time>
      </trkpt>
      <trkpt lat="50.03859" lon="1.97112">
        <ele>8.3</ele>
        <time>2022-04-17T11:41:00Z</time>
      </trkpt>
      <trkpt lat="50.03859" lon="1.9711">
        <ele>8.3</ele>
        <time>2022-04-17T11:41:01Z</time>
      </trkpt>
      <trkpt lat="50.03859" lon="1.97107">
        <ele>8.3</ele>
        <time>2022-04-17T11:41:02Z</time>
      </trkpt>
      <trkpt lat="50.03859" lon="1.97106">
        <ele>8.3</ele>
        <time>2022-04-17T11:41:03Z</time>
      </trkpt>
      <trkpt lat="50.03859" lon="1.97104">
        <ele>8.3</ele>
        <time>2022-04-17T11:41:04Z</time>
      </trkpt>
      <trkpt lat="50.03858" lon="1.97103">
        <ele>8.3</ele>
        <time>2022-04-17T11:41:05Z</time>
      </trkpt>
      <trkpt lat="50.03858" lon="1.97101">
        <ele>8.3</ele>
        <time>2022-04-17T11:41:06Z</time>
      </trkpt>
      <trkpt lat="50.03858" lon="1.97098">
        <ele>8.3</ele>
        <time>2022-04-17T11:41:08Z</time>
      </trkpt>
      <trkpt lat="50.03858" lon="1.97096">
        <ele>8.3</ele>
        <time>2022-04-17T11:41:09Z</time>
      </trkpt>
      <trkpt lat="50.03858" lon="1.97095">
        <ele>8.3</ele>
        <time>2022-04-17T11:41:10Z</time>
      </trkpt>
      <trkpt lat="50.03857" lon="1.97093">
        <ele>8.3</ele>
        <time>2022-04-17T11:41:11Z</time>
      </trkpt>
      <trkpt lat="50.03856" lon="1.9709">
        <ele>8.3</ele>
        <time>2022-04-17T11:41:13Z</time>
      </trkpt>
      <trkpt lat="50.03856" lon="1.97089">
        <ele>8.3</ele>
        <time>2022-04-17T11:41:14Z</time>
      </trkpt>
      <trkpt lat="50.03855" lon="1.97087">
        <ele>8.3</ele>
        <time>2022-04-17T11:41:15Z</time>
      </trkpt>
      <trkpt lat="50.03854" lon="1.97085">
        <ele>8.3</ele>
        <time>2022-04-17T11:41:16Z</time>
      </trkpt>
      <trkpt lat="50.03853" lon="1.97082">
        <ele>8.3</ele>
        <time>2022-04-17T11:41:17Z</time>
      </trkpt>
      <trkpt lat="50.03853" lon="1.97081">
        <ele>8.3</ele>
        <time>2022-04-17T11:41:18Z</time>
      </trkpt>
      <trkpt lat="50.03851" lon="1.97079">
        <ele>8.3</ele>
        <time>2022-04-17T11:41:19Z</time>
      </trkpt>
      <trkpt lat="50.0385" lon="1.97077">
        <ele>8.3</ele>
        <time>2022-04-17T11:41:21Z</time>
      </trkpt>
      <trkpt lat="50.03849" lon="1.97076">
        <ele>8.3</ele>
        <time>2022-04-17T11:41:22Z</time>
      </trkpt>
      <trkpt lat="50.03848" lon="1.97075">
        <ele>8.3</ele>
        <time>2022-04-17T11:41:23Z</time>
      </trkpt>
      <trkpt lat="50.03847" lon="1.97074">
        <ele>8.3</ele>
        <time>2022-04-17T11:41:24Z</time>
      </trkpt>
      <trkpt lat="50.03846" lon="1.97072">
        <ele>8.4</ele>
        <time>2022-04-17T11:41:25Z</time>
      </trkpt>
      <trkpt lat="50.03845" lon="1.9707">
        <ele>8.4</ele>
        <time>2022-04-17T11:41:26Z</time>
      </trkpt>
      <trkpt lat="50.03844" lon="1.97069">
        <ele>8.4</ele>
        <time>2022-04-17T11:41:27Z</time>
      </trkpt>
      <trkpt lat="50.03844" lon="1.97068">
        <ele>8.4</ele>
        <time>2022-04-17T11:41:28Z</time>
      </trkpt>
      <trkpt lat="50.03843" lon="1.97066">
        <ele>8.4</ele>
        <time>2022-04-17T11:41:29Z</time>
      </trkpt>
      <trkpt lat="50.03843" lon="1.97064">
        <ele>8.4</ele>
        <time>2022-04-17T11:41:30Z</time>
      </trkpt>
      <trkpt lat="50.03842" lon="1.97062">
        <ele>8.4</ele>
        <time>2022-04-17T11:41:31Z</time>
      </trkpt>
      <trkpt lat="50.03841" lon="1.9706">
        <ele>8.4</ele>
        <time>2022-04-17T11:41:32Z</time>
      </trkpt>
      <trkpt lat="50.03841" lon="1.97059">
        <ele>8.4</ele>
        <time>2022-04-17T11:41:33Z</time>
      </trkpt>
      <trkpt lat="50.0384" lon="1.97058">
        <ele>8.4</ele>
        <time>2022-04-17T11:41:35Z</time>
      </trkpt>
      <trkpt lat="50.03839" lon="1.97056">
        <ele>8.5</ele>
        <time>2022-04-17T11:41:36Z</time>
      </trkpt>
      <trkpt lat="50.03838" lon="1.97054">
        <ele>8.5</ele>
        <time>2022-04-17T11:41:37Z</time>
      </trkpt>
      <trkpt lat="50.03837" lon="1.97053">
        <ele>8.5</ele>
        <time>2022-04-17T11:41:38Z</time>
      </trkpt>
      <trkpt lat="50.03837" lon="1.97051">
        <ele>8.5</ele>
        <time>2022-04-17T11:41:39Z</time>
      </trkpt>
      <trkpt lat="50.03836" lon="1.9705">
        <ele>8.5</ele>
        <time>2022-04-17T11:41:40Z</time>
      </trkpt>
      <trkpt lat="50.03836" lon="1.97048">
        <ele>8.5</ele>
        <time>2022-04-17T11:41:41Z</time>
      </trkpt>
      <trkpt lat="50.03835" lon="1.97045">
        <ele>8.5</ele>
        <time>2022-04-17T11:41:42Z</time>
      </trkpt>
      <trkpt lat="50.03834" lon="1.97044">
        <ele>8.5</ele>
        <time>2022-04-17T11:41:44Z</time>
      </trkpt>
      <trkpt lat="50.03834" lon="1.97043">
        <ele>8.5</ele>
        <time>2022-04-17T11:41:45Z</time>
      </trkpt>
      <trkpt lat="50.03833" lon="1.97041">
        <ele>8.5</ele>
        <time>2022-04-17T11:41:46Z</time>
      </trkpt>
      <trkpt lat="50.03832" lon="1.97039">
        <ele>8.5</ele>
        <time>2022-04-17T11:41:47Z</time>
      </trkpt>
      <trkpt lat="50.03832" lon="1.97038">
        <ele>8.5</ele>
        <time>2022-04-17T11:41:48Z</time>
      </trkpt>
      <trkpt lat="50.03831" lon="1.97037">
        <ele>8.5</ele>
        <time>2022-04-17T11:41:49Z</time>
      </trkpt>
      <trkpt lat="50.03831" lon="1.97035">
        <ele>8.6</ele>
        <time>2022-04-17T11:41:51Z</time>
      </trkpt>
      <trkpt lat="50.0383" lon="1.97032">
        <ele>8.6</ele>
        <time>2022-04-17T11:41:52Z</time>
      </trkpt>
      <trkpt lat="50.03829" lon="1.97031">
        <ele>8.6</ele>
        <time>2022-04-17T11:41:53Z</time>
      </trkpt>
      <trkpt lat="50.03829" lon="1.97028">
        <ele>8.6</ele>
        <time>2022-04-17T11:41:55Z</time>
      </trkpt>
      <trkpt lat="50.03828" lon="1.97026">
        <ele>8.6</ele>
        <time>2022-04-17T11:41:56Z</time>
      </trkpt>
      <trkpt lat="50.03827" lon="1.97024">
        <ele>8.6</ele>
        <time>2022-04-17T11:41:57Z</time>
      </trkpt>
      <trkpt lat="50.03827" lon="1.97023">
        <ele>8.6</ele>
        <time>2022-04-17T11:41:58Z</time>
      </trkpt>
      <trkpt lat="50.03826" lon="1.97021">
        <ele>8.6</ele>
        <time>2022-04-17T11:41:59Z</time>
      </trkpt>
      <trkpt lat="50.03826" lon="1.9702">
        <ele>8.6</ele>
        <time>2022-04-17T11:42:00Z</time>
      </trkpt>
      <trkpt lat="50.03825" lon="1.97019">
        <ele>8.6</ele>
        <time>2022-04-17T11:42:01Z</time>
      </trkpt>
      <trkpt lat="50.03824" lon="1.97017">
        <ele>8.6</ele>
        <time>2022-04-17T11:42:02Z</time>
      </trkpt>
      <trkpt lat="50.03824" lon="1.97015">
        <ele>8.6</ele>
        <time>2022-04-17T11:42:03Z</time>
      </trkpt>
      <trkpt lat="50.03823" lon="1.97014">
        <ele>8.6</ele>
        <time>2022-04-17T11:42:04Z</time>
      </trkpt>
      <trkpt lat="50.03823" lon="1.97012">
        <ele>8.6</ele>
        <time>2022-04-17T11:42:06Z</time>
      </trkpt>
      <trkpt lat="50.03822" lon="1.97009">
        <ele>8.6</ele>
        <time>2022-04-17T11:42:07Z</time>
      </trkpt>
      <trkpt lat="50.03822" lon="1.97008">
        <ele>8.6</ele>
        <time>2022-04-17T11:42:08Z</time>
      </trkpt>
      <trkpt lat="50.03821" lon="1.97007">
        <ele>8.6</ele>
        <time>2022-04-17T11:42:09Z</time>
      </trkpt>
      <trkpt lat="50.03821" lon="1.97005">
        <ele>8.6</ele>
        <time>2022-04-17T11:42:10Z</time>
      </trkpt>
      <trkpt lat="50.0382" lon="1.97004">
        <ele>8.6</ele>
        <time>2022-04-17T11:42:11Z</time>
      </trkpt>
      <trkpt lat="50.03819" lon="1.97001">
        <ele>8.6</ele>
        <time>2022-04-17T11:42:12Z</time>
      </trkpt>
      <trkpt lat="50.03819" lon="1.97">
        <ele>8.6</ele>
        <time>2022-04-17T11:42:14Z</time>
      </trkpt>
      <trkpt lat="50.03819" lon="1.96998">
        <ele>8.6</ele>
        <time>2022-04-17T11:42:15Z</time>
      </trkpt>
      <trkpt lat="50.03819" lon="1.96997">
        <ele>8.6</ele>
        <time>2022-04-17T11:42:16Z</time>
      </trkpt>
      <trkpt lat="50.03819" lon="1.96995">
        <ele>8.6</ele>
        <time>2022-04-17T11:42:18Z</time>
      </trkpt>
      <trkpt lat="50.03819" lon="1.96993">
        <ele>8.6</ele>
        <time>2022-04-17T11:42:19Z</time>
      </trkpt>
      <trkpt lat="50.03818" lon="1.9699">
        <ele>8.6</ele>
        <time>2022-04-17T11:42:20Z</time>
      </trkpt>
      <trkpt lat="50.03818" lon="1.96989">
        <ele>8.6</ele>
        <time>2022-04-17T11:42:21Z</time>
      </trkpt>
      <trkpt lat="50.03818" lon="1.96988">
        <ele>8.6</ele>
        <time>2022-04-17T11:42:22Z</time>
      </trkpt>
      <trkpt lat="50.03817" lon="1.96985">
        <ele>8.6</ele>
        <time>2022-04-17T11:42:23Z</time>
      </trkpt>
      <trkpt lat="50.03817" lon="1.96984">
        <ele>8.6</ele>
        <time>2022-04-17T11:42:24Z</time>
      </trkpt>
      <trkpt lat="50.03816" lon="1.96983">
        <ele>8.6</ele>
        <time>2022-04-17T11:42:25Z</time>
      </trkpt>
      <trkpt lat="50.03816" lon="1.96982">
        <ele>8.6</ele>
        <time>2022-04-17T11:42:26Z</time>
      </trkpt>
      <trkpt lat="50.03816" lon="1.96978">
        <ele>8.6</ele>
        <time>2022-04-17T11:42:27Z</time>
      </trkpt>
      <trkpt lat="50.03816" lon="1.96977">
        <ele>8.6</ele>
        <time>2022-04-17T11:42:29Z</time>
      </trkpt>
      <trkpt lat="50.03816" lon="1.96977">
        <ele>8.6</ele>
        <time>2022-04-17T11:42:30Z</time>
      </trkpt>
      <trkpt lat="50.03815" lon="1.96975">
        <ele>8.6</ele>
        <time>2022-04-17T11:42:31Z</time>
      </trkpt>
      <trkpt lat="50.03814" lon="1.96973">
        <ele>8.6</ele>
        <time>2022-04-17T11:42:32Z</time>
      </trkpt>
      <trkpt lat="50.03815" lon="1.96972">
        <ele>8.6</ele>
        <time>2022-04-17T11:42:34Z</time>
      </trkpt>
      <trkpt lat="50.03816" lon="1.96972">
        <ele>8.6</ele>
        <time>2022-04-17T11:42:35Z</time>
      </trkpt>
      <trkpt lat="50.03816" lon="1.96973">
        <ele>8.6</ele>
        <time>2022-04-17T11:42:36Z</time>
      </trkpt>
      <trkpt lat="50.03816" lon="1.96973">
        <ele>8.7</ele>
        <time>2022-04-17T11:42:37Z</time>
      </trkpt>
      <trkpt lat="50.03816" lon="1.96973">
        <ele>8.7</ele>
        <time>2022-04-17T11:42:38Z</time>
      </trkpt>
      <trkpt lat="50.03816" lon="1.96973">
        <ele>8.7</ele>
        <time>2022-04-17T11:42:39Z</time>
      </trkpt>
      <trkpt lat="50.03816" lon="1.96973">
        <ele>8.7</ele>
        <time>2022-04-17T11:42:40Z</time>
      </trkpt>
      <trkpt lat="50.03817" lon="1.96974">
        <ele>8.7</ele>
        <time>2022-04-17T11:42:42Z</time>
      </trkpt>
      <trkpt lat="50.03817" lon="1.96974">
        <ele>8.7</ele>
        <time>2022-04-17T11:42:43Z</time>
      </trkpt>
      <trkpt lat="50.03817" lon="1.96974">
        <ele>8.7</ele>
        <time>2022-04-17T11:42:44Z</time>
      </trkpt>
      <trkpt lat="50.03817" lon="1.96974">
        <ele>8.7</ele>
        <time>2022-04-17T11:42:45Z</time>
      </trkpt>
      <trkpt lat="50.03818" lon="1.96975">
        <ele>8.7</ele>
        <time>2022-04-17T11:42:46Z</time>
      </trkpt>
      <trkpt lat="50.03819" lon="1.96976">
        <ele>8.7</ele>
        <time>2022-04-17T11:42:48Z</time>
      </trkpt>
      <trkpt lat="50.0382" lon="1.96978">
        <ele>8.7</ele>
        <time>2022-04-17T11:42:49Z</time>
      </trkpt>
      <trkpt lat="50.03821" lon="1.96979">
        <ele>8.7</ele>
        <time>2022-04-17T11:42:50Z</time>
      </trkpt>
      <trkpt lat="50.03821" lon="1.9698">
        <ele>8.7</ele>
        <time>2022-04-17T11:42:51Z</time>
      </trkpt>
      <trkpt lat="50.03822" lon="1.96982">
        <ele>8.7</ele>
        <time>2022-04-17T11:42:52Z</time>
      </trkpt>
      <trkpt lat="50.03822" lon="1.96983">
        <ele>8.7</ele>
        <time>2022-04-17T11:42:53Z</time>
      </trkpt>
      <trkpt lat="50.03823" lon="1.96985">
        <ele>8.7</ele>
        <time>2022-04-17T11:42:54Z</time>
      </trkpt>
      <trkpt lat="50.03823" lon="1.96987">
        <ele>8.7</ele>
        <time>2022-04-17T11:42:56Z</time>
      </trkpt>
      <trkpt lat="50.03824" lon="1.96989">
        <ele>8.7</ele>
        <time>2022-04-17T11:42:57Z</time>
      </trkpt>
      <trkpt lat="50.03824" lon="1.9699">
        <ele>8.7</ele>
        <time>2022-04-17T11:42:58Z</time>
      </trkpt>
      <trkpt lat="50.03825" lon="1.96991">
        <ele>8.7</ele>
        <time>2022-04-17T11:42:59Z</time>
      </trkpt>
      <trkpt lat="50.03825" lon="1.96992">
        <ele>8.7</ele>
        <time>2022-04-17T11:43:00Z</time>
      </trkpt>
      <trkpt lat="50.03826" lon="1.96992">
        <ele>8.7</ele>
        <time>2022-04-17T11:43:01Z</time>
      </trkpt>
      <trkpt lat="50.03826" lon="1.96992">
        <ele>8.7</ele>
        <time>2022-04-17T11:43:02Z</time>
      </trkpt>
      <trkpt lat="50.03827" lon="1.96993">
        <ele>8.8</ele>
        <time>2022-04-17T11:43:03Z</time>
      </trkpt>
      <trkpt lat="50.03827" lon="1.96993">
        <ele>8.8</ele>
        <time>2022-04-17T11:43:04Z</time>
      </trkpt>
      <trkpt lat="50.03828" lon="1.96994">
        <ele>8.8</ele>
        <time>2022-04-17T11:43:05Z</time>
      </trkpt>
      <trkpt lat="50.03828" lon="1.96995">
        <ele>8.8</ele>
        <time>2022-04-17T11:43:06Z</time>
      </trkpt>
      <trkpt lat="50.03828" lon="1.96995">
        <ele>8.8</ele>
        <time>2022-04-17T11:43:07Z</time>
      </trkpt>
      <trkpt lat="50.03828" lon="1.96995">
        <ele>8.8</ele>
        <time>2022-04-17T11:43:08Z</time>
      </trkpt>
      <trkpt lat="50.03828" lon="1.96995">
        <ele>8.8</ele>
        <time>2022-04-17T11:43:09Z</time>
      </trkpt>
      <trkpt lat="50.03828" lon="1.96995">
        <ele>8.8</ele>
        <time>2022-04-17T11:43:10Z</time>
      </trkpt>
      <trkpt lat="50.03828" lon="1.96995">
        <ele>8.8</ele>
        <time>2022-04-17T11:43:11Z</time>
      </trkpt>
      <trkpt lat="50.03828" lon="1.96996">
        <ele>8.8</ele>
        <time>2022-04-17T11:43:13Z</time>
      </trkpt>
      <trkpt lat="50.03828" lon="1.96996">
        <ele>8.8</ele>
        <time>2022-04-17T11:43:14Z</time>
      </trkpt>
      <trkpt lat="50.03828" lon="1.96996">
        <ele>8.8</ele>
        <time>2022-04-17T11:43:15Z</time>
      </trkpt>
      <trkpt lat="50.03828" lon="1.96996">
        <ele>8.8</ele>
        <time>2022-04-17T11:43:16Z</time>
      </trkpt>
      <trkpt lat="50.03827" lon="1.96996">
        <ele>8.8</ele>
        <time>2022-04-17T11:43:17Z</time>
      </trkpt>
      <trkpt lat="50.03828" lon="1.96996">
        <ele>8.8</ele>
        <time>2022-04-17T11:43:18Z</time>
      </trkpt>
      <trkpt lat="50.03828" lon="1.96996">
        <ele>8.8</ele>
        <time>2022-04-17T11:43:19Z</time>
      </trkpt>
      <trkpt lat="50.03828" lon="1.96996">
        <ele>8.8</ele>
        <time>2022-04-17T11:43:20Z</time>
      </trkpt>
      <trkpt lat="50.03827" lon="1.96996">
        <ele>8.8</ele>
        <time>2022-04-17T11:43:21Z</time>
      </trkpt>
      <trkpt lat="50.03827" lon="1.96996">
        <ele>8.8</ele>
        <time>2022-04-17T11:43:22Z</time>
      </trkpt>
      <trkpt lat="50.03827" lon="1.96996">
        <ele>8.8</ele>
        <time>2022-04-17T11:43:23Z</time>
      </trkpt>
      <trkpt lat="50.03827" lon="1.96996">
        <ele>8.8</ele>
        <time>2022-04-17T11:43:24Z</time>
      </trkpt>
      <trkpt lat="50.03827" lon="1.96996">
        <ele>8.8</ele>
        <time>2022-04-17T11:43:25Z</time>
      </trkpt>
      <trkpt lat="50.03827" lon="1.96996">
        <ele>8.8</ele>
        <time>2022-04-17T11:43:26Z</time>
      </trkpt>
      <trkpt lat="50.03827" lon="1.96996">
        <ele>8.8</ele>
        <time>2022-04-17T11:43:27Z</time>
      </trkpt>
      <trkpt lat="50.03827" lon="1.96996">
        <ele>8.8</ele>
        <time>2022-04-17T11:43:28Z</time>
      </trkpt>
      <trkpt lat="50.03827" lon="1.96996">
        <ele>8.8</ele>
        <time>2022-04-17T11:43:29Z</time>
      </trkpt>
      <trkpt lat="50.03827" lon="1.96996">
        <ele>8.8</ele>
        <time>2022-04-17T11:43:30Z</time>
      </trkpt>
      <trkpt lat="50.03827" lon="1.96996">
        <ele>8.8</ele>
        <time>2022-04-17T11:43:31Z</time>
      </trkpt>
      <trkpt lat="50.03827" lon="1.96996">
        <ele>8.8</ele>
        <time>2022-04-17T11:43:32Z</time>
      </trkpt>
      <trkpt lat="50.03827" lon="1.96996">
        <ele>8.8</ele>
        <time>2022-04-17T11:43:33Z</time>
      </trkpt>
      <trkpt lat="50.03827" lon="1.96996">
        <ele>8.8</ele>
        <time>2022-04-17T11:43:34Z</time>
      </trkpt>
      <trkpt lat="50.03827" lon="1.96996">
        <ele>8.8</ele>
        <time>2022-04-17T11:43:35Z</time>
      </trkpt>
      <trkpt lat="50.03827" lon="1.96996">
        <ele>8.8</ele>
        <time>2022-04-17T11:43:36Z</time>
      </trkpt>
      <trkpt lat="50.03827" lon="1.96996">
        <ele>8.8</ele>
        <time>2022-04-17T11:43:37Z</time>
      </trkpt>
      <trkpt lat="50.03827" lon="1.96996">
        <ele>8.8</ele>
        <time>2022-04-17T11:43:38Z</time>
      </trkpt>
      <trkpt lat="50.03827" lon="1.96996">
        <ele>8.8</ele>
        <time>2022-04-17T11:43:39Z</time>
      </trkpt>
      <trkpt lat="50.03827" lon="1.96996">
        <ele>8.8</ele>
        <time>2022-04-17T11:43:40Z</time>
      </trkpt>
      <trkpt lat="50.03827" lon="1.96996">
        <ele>8.8</ele>
        <time>2022-04-17T11:43:41Z</time>
      </trkpt>
      <trkpt lat="50.03827" lon="1.96996">
        <ele>8.8</ele>
        <time>2022-04-17T11:43:42Z</time>
      </trkpt>
      <trkpt lat="50.03827" lon="1.96996">
        <ele>8.8</ele>
        <time>2022-04-17T11:43:43Z</time>
      </trkpt>
      <trkpt lat="50.03827" lon="1.96996">
        <ele>8.8</ele>
        <time>2022-04-17T11:43:44Z</time>
      </trkpt>
      <trkpt lat="50.03826" lon="1.96994">
        <ele>8.8</ele>
        <time>2022-04-17T11:43:45Z</time>
      </trkpt>
      <trkpt lat="50.03825" lon="1.96992">
        <ele>8.8</ele>
        <time>2022-04-17T11:43:46Z</time>
      </trkpt>
      <trkpt lat="50.03824" lon="1.96992">
        <ele>8.8</ele>
        <time>2022-04-17T11:43:47Z</time>
      </trkpt>
      <trkpt lat="50.03824" lon="1.96991">
        <ele>8.8</ele>
        <time>2022-04-17T11:43:48Z</time>
      </trkpt>
      <trkpt lat="50.03824" lon="1.96991">
        <ele>8.8</ele>
        <time>2022-04-17T11:43:49Z</time>
      </trkpt>
      <trkpt lat="50.03824" lon="1.96991">
        <ele>8.8</ele>
        <time>2022-04-17T11:43:50Z</time>
      </trkpt>
      <trkpt lat="50.03824" lon="1.96991">
        <ele>8.8</ele>
        <time>2022-04-17T11:43:51Z</time>
      </trkpt>
      <trkpt lat="50.03824" lon="1.96991">
        <ele>8.8</ele>
        <time>2022-04-17T11:43:53Z</time>
      </trkpt>
      <trkpt lat="50.03824" lon="1.96991">
        <ele>8.8</ele>
        <time>2022-04-17T11:43:54Z</time>
      </trkpt>
      <trkpt lat="50.03824" lon="1.96991">
        <ele>8.8</ele>
        <time>2022-04-17T11:43:55Z</time>
      </trkpt>
      <trkpt lat="50.03824" lon="1.9699">
        <ele>8.8</ele>
        <time>2022-04-17T11:43:56Z</time>
      </trkpt>
      <trkpt lat="50.03824" lon="1.9699">
        <ele>8.8</ele>
        <time>2022-04-17T11:43:57Z</time>
      </trkpt>
      <trkpt lat="50.03824" lon="1.9699">
        <ele>8.8</ele>
        <time>2022-04-17T11:43:58Z</time>
      </trkpt>
      <trkpt lat="50.03824" lon="1.9699">
        <ele>8.8</ele>
        <time>2022-04-17T11:43:59Z</time>
      </trkpt>
      <trkpt lat="50.03823" lon="1.9699">
        <ele>8.8</ele>
        <time>2022-04-17T11:44:00Z</time>
      </trkpt>
      <trkpt lat="50.03823" lon="1.9699">
        <ele>8.8</ele>
        <time>2022-04-17T11:44:01Z</time>
      </trkpt>
      <trkpt lat="50.03823" lon="1.96989">
        <ele>8.8</ele>
        <time>2022-04-17T11:44:02Z</time>
      </trkpt>
      <trkpt lat="50.03823" lon="1.96989">
        <ele>8.8</ele>
        <time>2022-04-17T11:44:03Z</time>
      </trkpt>
      <trkpt lat="50.03823" lon="1.96989">
        <ele>8.8</ele>
        <time>2022-04-17T11:44:05Z</time>
      </trkpt>
      <trkpt lat="50.03823" lon="1.96989">
        <ele>8.8</ele>
        <time>2022-04-17T11:44:06Z</time>
      </trkpt>
      <trkpt lat="50.03823" lon="1.96989">
        <ele>8.8</ele>
        <time>2022-04-17T11:44:07Z</time>
      </trkpt>
      <trkpt lat="50.03823" lon="1.96989">
        <ele>8.8</ele>
        <time>2022-04-17T11:44:09Z</time>
      </trkpt>
      <trkpt lat="50.03823" lon="1.96988">
        <ele>8.8</ele>
        <time>2022-04-17T11:44:10Z</time>
      </trkpt>
      <trkpt lat="50.03823" lon="1.96988">
        <ele>8.8</ele>
        <time>2022-04-17T11:44:11Z</time>
      </trkpt>
      <trkpt lat="50.03823" lon="1.96988">
        <ele>8.8</ele>
        <time>2022-04-17T11:44:12Z</time>
      </trkpt>
      <trkpt lat="50.03823" lon="1.96988">
        <ele>8.8</ele>
        <time>2022-04-17T11:44:13Z</time>
      </trkpt>
      <trkpt lat="50.03823" lon="1.96988">
        <ele>8.8</ele>
        <time>2022-04-17T11:44:14Z</time>
      </trkpt>
      <trkpt lat="50.03823" lon="1.96988">
        <ele>8.8</ele>
        <time>2022-04-17T11:44:15Z</time>
      </trkpt>
      <trkpt lat="50.03823" lon="1.96988">
        <ele>8.8</ele>
        <time>2022-04-17T11:44:17Z</time>
      </trkpt>
      <trkpt lat="50.03823" lon="1.96987">
        <ele>8.8</ele>
        <time>2022-04-17T11:44:18Z</time>
      </trkpt>
      <trkpt lat="50.03823" lon="1.96987">
        <ele>8.8</ele>
        <time>2022-04-17T11:44:19Z</time>
      </trkpt>
      <trkpt lat="50.03823" lon="1.96987">
        <ele>8.8</ele>
        <time>2022-04-17T11:44:20Z</time>
      </trkpt>
      <trkpt lat="50.03822" lon="1.96986">
        <ele>8.8</ele>
        <time>2022-04-17T11:44:21Z</time>
      </trkpt>
      <trkpt lat="50.0382" lon="1.96985">
        <ele>8.8</ele>
        <time>2022-04-17T11:44:22Z</time>
      </trkpt>
      <trkpt lat="50.03819" lon="1.96984">
        <ele>8.8</ele>
        <time>2022-04-17T11:44:23Z</time>
      </trkpt>
      <trkpt lat="50.03819" lon="1.96984">
        <ele>8.8</ele>
        <time>2022-04-17T11:44:24Z</time>
      </trkpt>
      <trkpt lat="50.03817" lon="1.96983">
        <ele>8.8</ele>
        <time>2022-04-17T11:44:26Z</time>
      </trkpt>
      <trkpt lat="50.03816" lon="1.96983">
        <ele>8.8</ele>
        <time>2022-04-17T11:44:27Z</time>
      </trkpt>
      <trkpt lat="50.03815" lon="1.96982">
        <ele>8.8</ele>
        <time>2022-04-17T11:44:28Z</time>
      </trkpt>
      <trkpt lat="50.03814" lon="1.96981">
        <ele>8.8</ele>
        <time>2022-04-17T11:44:29Z</time>
      </trkpt>
      <trkpt lat="50.03813" lon="1.96979">
        <ele>8.8</ele>
        <time>2022-04-17T11:44:30Z</time>
      </trkpt>
      <trkpt lat="50.03812" lon="1.96978">
        <ele>8.8</ele>
        <time>2022-04-17T11:44:31Z</time>
      </trkpt>
      <trkpt lat="50.03811" lon="1.96976">
        <ele>8.8</ele>
        <time>2022-04-17T11:44:33Z</time>
      </trkpt>
      <trkpt lat="50.0381" lon="1.96974">
        <ele>8.8</ele>
        <time>2022-04-17T11:44:34Z</time>
      </trkpt>
      <trkpt lat="50.03809" lon="1.96973">
        <ele>8.8</ele>
        <time>2022-04-17T11:44:35Z</time>
      </trkpt>
      <trkpt lat="50.03808" lon="1.96971">
        <ele>8.8</ele>
        <time>2022-04-17T11:44:36Z</time>
      </trkpt>
      <trkpt lat="50.03808" lon="1.9697">
        <ele>8.8</ele>
        <time>2022-04-17T11:44:37Z</time>
      </trkpt>
      <trkpt lat="50.03808" lon="1.96969">
        <ele>8.8</ele>
        <time>2022-04-17T11:44:38Z</time>
      </trkpt>
      <trkpt lat="50.03807" lon="1.96967">
        <ele>8.8</ele>
        <time>2022-04-17T11:44:40Z</time>
      </trkpt>
      <trkpt lat="50.03806" lon="1.96965">
        <ele>8.8</ele>
        <time>2022-04-17T11:44:41Z</time>
      </trkpt>
      <trkpt lat="50.03804" lon="1.96962">
        <ele>8.8</ele>
        <time>2022-04-17T11:44:42Z</time>
      </trkpt>
      <trkpt lat="50.03804" lon="1.96961">
        <ele>8.8</ele>
        <time>2022-04-17T11:44:43Z</time>
      </trkpt>
      <trkpt lat="50.03803" lon="1.96959">
        <ele>8.8</ele>
        <time>2022-04-17T11:44:44Z</time>
      </trkpt>
      <trkpt lat="50.03802" lon="1.96958">
        <ele>8.8</ele>
        <time>2022-04-17T11:44:45Z</time>
      </trkpt>
      <trkpt lat="50.03801" lon="1.96955">
        <ele>8.8</ele>
        <time>2022-04-17T11:44:46Z</time>
      </trkpt>
      <trkpt lat="50.038" lon="1.96953">
        <ele>8.8</ele>
        <time>2022-04-17T11:44:48Z</time>
      </trkpt>
      <trkpt lat="50.03799" lon="1.96951">
        <ele>8.8</ele>
        <time>2022-04-17T11:44:49Z</time>
      </trkpt>
      <trkpt lat="50.03798" lon="1.96948">
        <ele>8.8</ele>
        <time>2022-04-17T11:44:50Z</time>
      </trkpt>
      <trkpt lat="50.03797" lon="1.96947">
        <ele>8.8</ele>
        <time>2022-04-17T11:44:51Z</time>
      </trkpt>
      <trkpt lat="50.03797" lon="1.96945">
        <ele>8.8</ele>
        <time>2022-04-17T11:44:52Z</time>
      </trkpt>
      <trkpt lat="50.03796" lon="1.96942">
        <ele>8.8</ele>
        <time>2022-04-17T11:44:53Z</time>
      </trkpt>
      <trkpt lat="50.03795" lon="1.96941">
        <ele>8.8</ele>
        <time>2022-04-17T11:44:54Z</time>
      </trkpt>
      <trkpt lat="50.03794" lon="1.96938">
        <ele>8.8</ele>
        <time>2022-04-17T11:44:55Z</time>
      </trkpt>
      <trkpt lat="50.03793" lon="1.96936">
        <ele>8.8</ele>
        <time>2022-04-17T11:44:57Z</time>
      </trkpt>
      <trkpt lat="50.03793" lon="1.96935">
        <ele>8.8</ele>
        <time>2022-04-17T11:44:58Z</time>
      </trkpt>
      <trkpt lat="50.03792" lon="1.96934">
        <ele>8.8</ele>
        <time>2022-04-17T11:44:59Z</time>
      </trkpt>
      <trkpt lat="50.03792" lon="1.96933">
        <ele>8.8</ele>
        <time>2022-04-17T11:45:00Z</time>
      </trkpt>
      <trkpt lat="50.03791" lon="1.96931">
        <ele>8.8</ele>
        <time>2022-04-17T11:45:02Z</time>
      </trkpt>
      <trkpt lat="50.0379" lon="1.96929">
        <ele>8.8</ele>
        <time>2022-04-17T11:45:03Z</time>
      </trkpt>
      <trkpt lat="50.03789" lon="1.96928">
        <ele>8.8</ele>
        <time>2022-04-17T11:45:04Z</time>
      </trkpt>
      <trkpt lat="50.03788" lon="1.96928">
        <ele>8.8</ele>
        <time>2022-04-17T11:45:05Z</time>
      </trkpt>
      <trkpt lat="50.03787" lon="1.96926">
        <ele>8.8</ele>
        <time>2022-04-17T11:45:06Z</time>
      </trkpt>
      <trkpt lat="50.03786" lon="1.96925">
        <ele>8.8</ele>
        <time>2022-04-17T11:45:07Z</time>
      </trkpt>
      <trkpt lat="50.03785" lon="1.96923">
        <ele>8.8</ele>
        <time>2022-04-17T11:45:08Z</time>
      </trkpt>
      <trkpt lat="50.03784" lon="1.96923">
        <ele>8.8</ele>
        <time>2022-04-17T11:45:09Z</time>
      </trkpt>
      <trkpt lat="50.03783" lon="1.96922">
        <ele>8.8</ele>
        <time>2022-04-17T11:45:10Z</time>
      </trkpt>
      <trkpt lat="50.03781" lon="1.96918">
        <ele>8.8</ele>
        <time>2022-04-17T11:45:12Z</time>
      </trkpt>
      <trkpt lat="50.03781" lon="1.96917">
        <ele>8.8</ele>
        <time>2022-04-17T11:45:13Z</time>
      </trkpt>
      <trkpt lat="50.0378" lon="1.96916">
        <ele>8.8</ele>
        <time>2022-04-17T11:45:15Z</time>
      </trkpt>
      <trkpt lat="50.03779" lon="1.96915">
        <ele>8.8</ele>
        <time>2022-04-17T11:45:16Z</time>
      </trkpt>
      <trkpt lat="50.03778" lon="1.96913">
        <ele>8.7</ele>
        <time>2022-04-17T11:45:17Z</time>
      </trkpt>
      <trkpt lat="50.03777" lon="1.96911">
        <ele>8.7</ele>
        <time>2022-04-17T11:45:18Z</time>
      </trkpt>
      <trkpt lat="50.03776" lon="1.96909">
        <ele>8.7</ele>
        <time>2022-04-17T11:45:20Z</time>
      </trkpt>
      <trkpt lat="50.03776" lon="1.96907">
        <ele>8.7</ele>
        <time>2022-04-17T11:45:21Z</time>
      </trkpt>
      <trkpt lat="50.03775" lon="1.96904">
        <ele>8.7</ele>
        <time>2022-04-17T11:45:22Z</time>
      </trkpt>
      <trkpt lat="50.03773" lon="1.96901">
        <ele>8.7</ele>
        <time>2022-04-17T11:45:23Z</time>
      </trkpt>
      <trkpt lat="50.03773" lon="1.969">
        <ele>8.7</ele>
        <time>2022-04-17T11:45:25Z</time>
      </trkpt>
      <trkpt lat="50.03773" lon="1.96899">
        <ele>8.7</ele>
        <time>2022-04-17T11:45:26Z</time>
      </trkpt>
      <trkpt lat="50.03772" lon="1.96897">
        <ele>8.7</ele>
        <time>2022-04-17T11:45:27Z</time>
      </trkpt>
      <trkpt lat="50.03771" lon="1.96896">
        <ele>8.7</ele>
        <time>2022-04-17T11:45:28Z</time>
      </trkpt>
      <trkpt lat="50.03769" lon="1.96893">
        <ele>8.7</ele>
        <time>2022-04-17T11:45:29Z</time>
      </trkpt>
      <trkpt lat="50.03768" lon="1.96892">
        <ele>8.7</ele>
        <time>2022-04-17T11:45:31Z</time>
      </trkpt>
      <trkpt lat="50.03768" lon="1.96891">
        <ele>8.7</ele>
        <time>2022-04-17T11:45:32Z</time>
      </trkpt>
      <trkpt lat="50.03766" lon="1.96888">
        <ele>8.7</ele>
        <time>2022-04-17T11:45:33Z</time>
      </trkpt>
      <trkpt lat="50.03766" lon="1.96887">
        <ele>8.7</ele>
        <time>2022-04-17T11:45:34Z</time>
      </trkpt>
      <trkpt lat="50.03764" lon="1.96884">
        <ele>8.7</ele>
        <time>2022-04-17T11:45:36Z</time>
      </trkpt>
      <trkpt lat="50.03764" lon="1.96883">
        <ele>8.7</ele>
        <time>2022-04-17T11:45:37Z</time>
      </trkpt>
      <trkpt lat="50.03763" lon="1.96881">
        <ele>8.7</ele>
        <time>2022-04-17T11:45:38Z</time>
      </trkpt>
      <trkpt lat="50.03762" lon="1.96881">
        <ele>8.7</ele>
        <time>2022-04-17T11:45:39Z</time>
      </trkpt>
      <trkpt lat="50.03761" lon="1.96879">
        <ele>8.7</ele>
        <time>2022-04-17T11:45:41Z</time>
      </trkpt>
      <trkpt lat="50.0376" lon="1.96878">
        <ele>8.7</ele>
        <time>2022-04-17T11:45:42Z</time>
      </trkpt>
      <trkpt lat="50.03759" lon="1.96876">
        <ele>8.7</ele>
        <time>2022-04-17T11:45:43Z</time>
      </trkpt>
      <trkpt lat="50.03759" lon="1.96874">
        <ele>8.6</ele>
        <time>2022-04-17T11:45:44Z</time>
      </trkpt>
      <trkpt lat="50.03758" lon="1.96873">
        <ele>8.6</ele>
        <time>2022-04-17T11:45:45Z</time>
      </trkpt>
      <trkpt lat="50.03758" lon="1.96871">
        <ele>8.6</ele>
        <time>2022-04-17T11:45:46Z</time>
      </trkpt>
      <trkpt lat="50.03757" lon="1.96869">
        <ele>8.6</ele>
        <time>2022-04-17T11:45:47Z</time>
      </trkpt>
      <trkpt lat="50.03757" lon="1.96868">
        <ele>8.6</ele>
        <time>2022-04-17T11:45:48Z</time>
      </trkpt>
      <trkpt lat="50.03756" lon="1.96866">
        <ele>8.6</ele>
        <time>2022-04-17T11:45:49Z</time>
      </trkpt>
      <trkpt lat="50.03756" lon="1.96865">
        <ele>8.6</ele>
        <time>2022-04-17T11:45:50Z</time>
      </trkpt>
      <trkpt lat="50.03755" lon="1.96864">
        <ele>8.6</ele>
        <time>2022-04-17T11:45:51Z</time>
      </trkpt>
      <trkpt lat="50.03754" lon="1.96863">
        <ele>8.6</ele>
        <time>2022-04-17T11:45:52Z</time>
      </trkpt>
      <trkpt lat="50.03754" lon="1.96861">
        <ele>8.6</ele>
        <time>2022-04-17T11:45:53Z</time>
      </trkpt>
      <trkpt lat="50.03752" lon="1.96858">
        <ele>8.6</ele>
        <time>2022-04-17T11:45:54Z</time>
      </trkpt>
      <trkpt lat="50.03752" lon="1.96857">
        <ele>8.5</ele>
        <time>2022-04-17T11:45:56Z</time>
      </trkpt>
      <trkpt lat="50.03751" lon="1.96855">
        <ele>8.5</ele>
        <time>2022-04-17T11:45:57Z</time>
      </trkpt>
      <trkpt lat="50.0375" lon="1.96852">
        <ele>8.5</ele>
        <time>2022-04-17T11:45:59Z</time>
      </trkpt>
      <trkpt lat="50.03749" lon="1.96851">
        <ele>8.5</ele>
        <time>2022-04-17T11:46:00Z</time>
      </trkpt>
      <trkpt lat="50.03748" lon="1.96848">
        <ele>8.5</ele>
        <time>2022-04-17T11:46:01Z</time>
      </trkpt>
      <trkpt lat="50.03747" lon="1.96847">
        <ele>8.5</ele>
        <time>2022-04-17T11:46:02Z</time>
      </trkpt>
      <trkpt lat="50.03747" lon="1.96846">
        <ele>8.5</ele>
        <time>2022-04-17T11:46:03Z</time>
      </trkpt>
      <trkpt lat="50.03746" lon="1.96845">
        <ele>8.5</ele>
        <time>2022-04-17T11:46:04Z</time>
      </trkpt>
      <trkpt lat="50.03745" lon="1.96843">
        <ele>8.4</ele>
        <time>2022-04-17T11:46:05Z</time>
      </trkpt>
      <trkpt lat="50.03744" lon="1.96842">
        <ele>8.4</ele>
        <time>2022-04-17T11:46:06Z</time>
      </trkpt>
      <trkpt lat="50.03743" lon="1.9684">
        <ele>8.4</ele>
        <time>2022-04-17T11:46:07Z</time>
      </trkpt>
      <trkpt lat="50.03742" lon="1.96838">
        <ele>8.4</ele>
        <time>2022-04-17T11:46:09Z</time>
      </trkpt>
      <trkpt lat="50.03741" lon="1.96837">
        <ele>8.4</ele>
        <time>2022-04-17T11:46:10Z</time>
      </trkpt>
      <trkpt lat="50.0374" lon="1.96836">
        <ele>8.4</ele>
        <time>2022-04-17T11:46:11Z</time>
      </trkpt>
      <trkpt lat="50.03739" lon="1.96835">
        <ele>8.4</ele>
        <time>2022-04-17T11:46:12Z</time>
      </trkpt>
      <trkpt lat="50.03738" lon="1.96833">
        <ele>8.4</ele>
        <time>2022-04-17T11:46:13Z</time>
      </trkpt>
      <trkpt lat="50.03737" lon="1.96832">
        <ele>8.4</ele>
        <time>2022-04-17T11:46:14Z</time>
      </trkpt>
      <trkpt lat="50.03736" lon="1.9683">
        <ele>8.4</ele>
        <time>2022-04-17T11:46:15Z</time>
      </trkpt>
      <trkpt lat="50.03735" lon="1.96829">
        <ele>8.4</ele>
        <time>2022-04-17T11:46:17Z</time>
      </trkpt>
      <trkpt lat="50.03734" lon="1.96828">
        <ele>8.3</ele>
        <time>2022-04-17T11:46:18Z</time>
      </trkpt>
      <trkpt lat="50.03732" lon="1.96827">
        <ele>8.3</ele>
        <time>2022-04-17T11:46:19Z</time>
      </trkpt>
      <trkpt lat="50.03731" lon="1.96826">
        <ele>8.3</ele>
        <time>2022-04-17T11:46:20Z</time>
      </trkpt>
      <trkpt lat="50.03729" lon="1.96825">
        <ele>8.3</ele>
        <time>2022-04-17T11:46:21Z</time>
      </trkpt>
      <trkpt lat="50.03728" lon="1.96824">
        <ele>8.3</ele>
        <time>2022-04-17T11:46:22Z</time>
      </trkpt>
      <trkpt lat="50.03727" lon="1.96823">
        <ele>8.3</ele>
        <time>2022-04-17T11:46:23Z</time>
      </trkpt>
      <trkpt lat="50.03727" lon="1.96822">
        <ele>8.3</ele>
        <time>2022-04-17T11:46:24Z</time>
      </trkpt>
      <trkpt lat="50.03726" lon="1.96821">
        <ele>8.3</ele>
        <time>2022-04-17T11:46:26Z</time>
      </trkpt>
      <trkpt lat="50.03725" lon="1.9682">
        <ele>8.3</ele>
        <time>2022-04-17T11:46:27Z</time>
      </trkpt>
      <trkpt lat="50.03724" lon="1.96818">
        <ele>8.3</ele>
        <time>2022-04-17T11:46:28Z</time>
      </trkpt>
      <trkpt lat="50.03723" lon="1.96817">
        <ele>8.3</ele>
        <time>2022-04-17T11:46:29Z</time>
      </trkpt>
      <trkpt lat="50.03722" lon="1.96816">
        <ele>8.3</ele>
        <time>2022-04-17T11:46:30Z</time>
      </trkpt>
      <trkpt lat="50.03721" lon="1.96814">
        <ele>8.3</ele>
        <time>2022-04-17T11:46:31Z</time>
      </trkpt>
      <trkpt lat="50.03721" lon="1.96813">
        <ele>8.3</ele>
        <time>2022-04-17T11:46:32Z</time>
      </trkpt>
      <trkpt lat="50.0372" lon="1.96812">
        <ele>8.3</ele>
        <time>2022-04-17T11:46:33Z</time>
      </trkpt>
      <trkpt lat="50.03719" lon="1.9681">
        <ele>8.3</ele>
        <time>2022-04-17T11:46:34Z</time>
      </trkpt>
      <trkpt lat="50.03718" lon="1.96809">
        <ele>8.2</ele>
        <time>2022-04-17T11:46:35Z</time>
      </trkpt>
      <trkpt lat="50.03717" lon="1.96808">
        <ele>8.2</ele>
        <time>2022-04-17T11:46:36Z</time>
      </trkpt>
      <trkpt lat="50.03716" lon="1.96806">
        <ele>8.2</ele>
        <time>2022-04-17T11:46:37Z</time>
      </trkpt>
      <trkpt lat="50.03716" lon="1.96805">
        <ele>8.2</ele>
        <time>2022-04-17T11:46:38Z</time>
      </trkpt>
      <trkpt lat="50.03715" lon="1.96803">
        <ele>8.2</ele>
        <time>2022-04-17T11:46:39Z</time>
      </trkpt>
      <trkpt lat="50.03715" lon="1.96802">
        <ele>8.2</ele>
        <time>2022-04-17T11:46:41Z</time>
      </trkpt>
      <trkpt lat="50.03714" lon="1.96799">
        <ele>8.2</ele>
        <time>2022-04-17T11:46:42Z</time>
      </trkpt>
      <trkpt lat="50.03713" lon="1.96797">
        <ele>8.2</ele>
        <time>2022-04-17T11:46:43Z</time>
      </trkpt>
      <trkpt lat="50.03712" lon="1.96795">
        <ele>8.2</ele>
        <time>2022-04-17T11:46:44Z</time>
      </trkpt>
      <trkpt lat="50.03712" lon="1.96793">
        <ele>8.2</ele>
        <time>2022-04-17T11:46:46Z</time>
      </trkpt>
      <trkpt lat="50.03711" lon="1.96792">
        <ele>8.2</ele>
        <time>2022-04-17T11:46:47Z</time>
      </trkpt>
      <trkpt lat="50.03711" lon="1.96791">
        <ele>8.2</ele>
        <time>2022-04-17T11:46:48Z</time>
      </trkpt>
      <trkpt lat="50.03711" lon="1.9679">
        <ele>8.2</ele>
        <time>2022-04-17T11:46:49Z</time>
      </trkpt>
      <trkpt lat="50.0371" lon="1.96788">
        <ele>8.2</ele>
        <time>2022-04-17T11:46:50Z</time>
      </trkpt>
      <trkpt lat="50.0371" lon="1.96786">
        <ele>8.2</ele>
        <time>2022-04-17T11:46:51Z</time>
      </trkpt>
      <trkpt lat="50.0371" lon="1.96785">
        <ele>8.2</ele>
        <time>2022-04-17T11:46:52Z</time>
      </trkpt>
      <trkpt lat="50.03709" lon="1.96784">
        <ele>8.2</ele>
        <time>2022-04-17T11:46:53Z</time>
      </trkpt>
      <trkpt lat="50.03709" lon="1.96782">
        <ele>8.2</ele>
        <time>2022-04-17T11:46:54Z</time>
      </trkpt>
      <trkpt lat="50.03708" lon="1.96779">
        <ele>8.1</ele>
        <time>2022-04-17T11:46:55Z</time>
      </trkpt>
      <trkpt lat="50.03708" lon="1.96776">
        <ele>8.1</ele>
        <time>2022-04-17T11:46:56Z</time>
      </trkpt>
      <trkpt lat="50.03708" lon="1.96775">
        <ele>8.1</ele>
        <time>2022-04-17T11:46:58Z</time>
      </trkpt>
      <trkpt lat="50.03707" lon="1.96773">
        <ele>8.1</ele>
        <time>2022-04-17T11:46:59Z</time>
      </trkpt>
      <trkpt lat="50.03707" lon="1.96771">
        <ele>8.1</ele>
        <time>2022-04-17T11:47:00Z</time>
      </trkpt>
      <trkpt lat="50.03707" lon="1.9677">
        <ele>8.1</ele>
        <time>2022-04-17T11:47:01Z</time>
      </trkpt>
      <trkpt lat="50.03706" lon="1.96766">
        <ele>8.1</ele>
        <time>2022-04-17T11:47:03Z</time>
      </trkpt>
      <trkpt lat="50.03705" lon="1.96764">
        <ele>8.1</ele>
        <time>2022-04-17T11:47:04Z</time>
      </trkpt>
      <trkpt lat="50.03705" lon="1.96762">
        <ele>8.1</ele>
        <time>2022-04-17T11:47:05Z</time>
      </trkpt>
      <trkpt lat="50.03704" lon="1.9676">
        <ele>8.1</ele>
        <time>2022-04-17T11:47:07Z</time>
      </trkpt>
      <trkpt lat="50.03703" lon="1.96758">
        <ele>8.1</ele>
        <time>2022-04-17T11:47:08Z</time>
      </trkpt>
      <trkpt lat="50.03703" lon="1.96757">
        <ele>8.1</ele>
        <time>2022-04-17T11:47:09Z</time>
      </trkpt>
      <trkpt lat="50.03702" lon="1.96753">
        <ele>8</ele>
        <time>2022-04-17T11:47:10Z</time>
      </trkpt>
      <trkpt lat="50.03702" lon="1.96752">
        <ele>8</ele>
        <time>2022-04-17T11:47:12Z</time>
      </trkpt>
      <trkpt lat="50.03701" lon="1.96751">
        <ele>8</ele>
        <time>2022-04-17T11:47:13Z</time>
      </trkpt>
      <trkpt lat="50.03701" lon="1.9675">
        <ele>8</ele>
        <time>2022-04-17T11:47:14Z</time>
      </trkpt>
      <trkpt lat="50.037" lon="1.96748">
        <ele>8</ele>
        <time>2022-04-17T11:47:15Z</time>
      </trkpt>
      <trkpt lat="50.037" lon="1.96747">
        <ele>8</ele>
        <time>2022-04-17T11:47:16Z</time>
      </trkpt>
      <trkpt lat="50.03699" lon="1.96745">
        <ele>8</ele>
        <time>2022-04-17T11:47:17Z</time>
      </trkpt>
      <trkpt lat="50.03699" lon="1.96744">
        <ele>8</ele>
        <time>2022-04-17T11:47:18Z</time>
      </trkpt>
      <trkpt lat="50.03698" lon="1.96742">
        <ele>8</ele>
        <time>2022-04-17T11:47:19Z</time>
      </trkpt>
      <trkpt lat="50.03698" lon="1.9674">
        <ele>8</ele>
        <time>2022-04-17T11:47:21Z</time>
      </trkpt>
      <trkpt lat="50.03698" lon="1.96739">
        <ele>8</ele>
        <time>2022-04-17T11:47:22Z</time>
      </trkpt>
      <trkpt lat="50.03697" lon="1.96737">
        <ele>8</ele>
        <time>2022-04-17T11:47:23Z</time>
      </trkpt>
      <trkpt lat="50.03697" lon="1.96734">
        <ele>8</ele>
        <time>2022-04-17T11:47:24Z</time>
      </trkpt>
      <trkpt lat="50.03696" lon="1.96733">
        <ele>8</ele>
        <time>2022-04-17T11:47:25Z</time>
      </trkpt>
      <trkpt lat="50.03696" lon="1.96732">
        <ele>8</ele>
        <time>2022-04-17T11:47:26Z</time>
      </trkpt>
      <trkpt lat="50.03695" lon="1.96729">
        <ele>8</ele>
        <time>2022-04-17T11:47:27Z</time>
      </trkpt>
      <trkpt lat="50.03694" lon="1.96728">
        <ele>7.9</ele>
        <time>2022-04-17T11:47:28Z</time>
      </trkpt>
      <trkpt lat="50.03694" lon="1.96727">
        <ele>7.9</ele>
        <time>2022-04-17T11:47:29Z</time>
      </trkpt>
      <trkpt lat="50.03693" lon="1.96724">
        <ele>7.9</ele>
        <time>2022-04-17T11:47:30Z</time>
      </trkpt>
      <trkpt lat="50.03692" lon="1.96723">
        <ele>7.9</ele>
        <time>2022-04-17T11:47:32Z</time>
      </trkpt>
      <trkpt lat="50.03691" lon="1.96721">
        <ele>7.9</ele>
        <time>2022-04-17T11:47:33Z</time>
      </trkpt>
      <trkpt lat="50.03691" lon="1.9672">
        <ele>7.9</ele>
        <time>2022-04-17T11:47:34Z</time>
      </trkpt>
      <trkpt lat="50.03689" lon="1.96717">
        <ele>7.9</ele>
        <time>2022-04-17T11:47:35Z</time>
      </trkpt>
      <trkpt lat="50.03689" lon="1.96716">
        <ele>7.9</ele>
        <time>2022-04-17T11:47:36Z</time>
      </trkpt>
      <trkpt lat="50.03688" lon="1.96715">
        <ele>7.9</ele>
        <time>2022-04-17T11:47:37Z</time>
      </trkpt>
      <trkpt lat="50.03687" lon="1.96714">
        <ele>7.9</ele>
        <time>2022-04-17T11:47:38Z</time>
      </trkpt>
      <trkpt lat="50.03687" lon="1.96713">
        <ele>7.9</ele>
        <time>2022-04-17T11:47:39Z</time>
      </trkpt>
      <trkpt lat="50.03686" lon="1.96711">
        <ele>7.9</ele>
        <time>2022-04-17T11:47:40Z</time>
      </trkpt>
      <trkpt lat="50.03685" lon="1.9671">
        <ele>7.9</ele>
        <time>2022-04-17T11:47:41Z</time>
      </trkpt>
      <trkpt lat="50.03685" lon="1.96709">
        <ele>7.9</ele>
        <time>2022-04-17T11:47:42Z</time>
      </trkpt>
      <trkpt lat="50.03684" lon="1.96707">
        <ele>7.9</ele>
        <time>2022-04-17T11:47:43Z</time>
      </trkpt>
      <trkpt lat="50.03684" lon="1.96706">
        <ele>7.9</ele>
        <time>2022-04-17T11:47:44Z</time>
      </trkpt>
      <trkpt lat="50.03683" lon="1.96704">
        <ele>7.9</ele>
        <time>2022-04-17T11:47:45Z</time>
      </trkpt>
      <trkpt lat="50.03681" lon="1.96702">
        <ele>7.9</ele>
        <time>2022-04-17T11:47:47Z</time>
      </trkpt>
      <trkpt lat="50.03681" lon="1.967">
        <ele>7.9</ele>
        <time>2022-04-17T11:47:48Z</time>
      </trkpt>
      <trkpt lat="50.0368" lon="1.96699">
        <ele>7.9</ele>
        <time>2022-04-17T11:47:49Z</time>
      </trkpt>
      <trkpt lat="50.0368" lon="1.96698">
        <ele>7.9</ele>
        <time>2022-04-17T11:47:50Z</time>
      </trkpt>
      <trkpt lat="50.03679" lon="1.96696">
        <ele>8</ele>
        <time>2022-04-17T11:47:51Z</time>
      </trkpt>
      <trkpt lat="50.03678" lon="1.96694">
        <ele>8</ele>
        <time>2022-04-17T11:47:52Z</time>
      </trkpt>
      <trkpt lat="50.03677" lon="1.96693">
        <ele>8</ele>
        <time>2022-04-17T11:47:53Z</time>
      </trkpt>
      <trkpt lat="50.03677" lon="1.96691">
        <ele>8</ele>
        <time>2022-04-17T11:47:55Z</time>
      </trkpt>
      <trkpt lat="50.03676" lon="1.96688">
        <ele>8</ele>
        <time>2022-04-17T11:47:56Z</time>
      </trkpt>
      <trkpt lat="50.03676" lon="1.96687">
        <ele>8</ele>
        <time>2022-04-17T11:47:57Z</time>
      </trkpt>
      <trkpt lat="50.03675" lon="1.96684">
        <ele>7.9</ele>
        <time>2022-04-17T11:47:58Z</time>
      </trkpt>
      <trkpt lat="50.03674" lon="1.96682">
        <ele>7.9</ele>
        <time>2022-04-17T11:47:59Z</time>
      </trkpt>
      <trkpt lat="50.03674" lon="1.96681">
        <ele>7.9</ele>
        <time>2022-04-17T11:48:00Z</time>
      </trkpt>
      <trkpt lat="50.03673" lon="1.96678">
        <ele>7.9</ele>
        <time>2022-04-17T11:48:01Z</time>
      </trkpt>
      <trkpt lat="50.03672" lon="1.96677">
        <ele>7.9</ele>
        <time>2022-04-17T11:48:02Z</time>
      </trkpt>
      <trkpt lat="50.03671" lon="1.96675">
        <ele>7.9</ele>
        <time>2022-04-17T11:48:03Z</time>
      </trkpt>
      <trkpt lat="50.03671" lon="1.96673">
        <ele>7.9</ele>
        <time>2022-04-17T11:48:05Z</time>
      </trkpt>
      <trkpt lat="50.0367" lon="1.96672">
        <ele>7.9</ele>
        <time>2022-04-17T11:48:06Z</time>
      </trkpt>
      <trkpt lat="50.0367" lon="1.9667">
        <ele>7.9</ele>
        <time>2022-04-17T11:48:07Z</time>
      </trkpt>
      <trkpt lat="50.0367" lon="1.96669">
        <ele>7.9</ele>
        <time>2022-04-17T11:48:08Z</time>
      </trkpt>
      <trkpt lat="50.03669" lon="1.96667">
        <ele>7.9</ele>
        <time>2022-04-17T11:48:09Z</time>
      </trkpt>
      <trkpt lat="50.03669" lon="1.96664">
        <ele>7.9</ele>
        <time>2022-04-17T11:48:10Z</time>
      </trkpt>
      <trkpt lat="50.03668" lon="1.96663">
        <ele>7.9</ele>
        <time>2022-04-17T11:48:11Z</time>
      </trkpt>
      <trkpt lat="50.03668" lon="1.96661">
        <ele>7.9</ele>
        <time>2022-04-17T11:48:13Z</time>
      </trkpt>
      <trkpt lat="50.03668" lon="1.9666">
        <ele>7.9</ele>
        <time>2022-04-17T11:48:14Z</time>
      </trkpt>
      <trkpt lat="50.03667" lon="1.96659">
        <ele>7.9</ele>
        <time>2022-04-17T11:48:15Z</time>
      </trkpt>
      <trkpt lat="50.03667" lon="1.96657">
        <ele>7.9</ele>
        <time>2022-04-17T11:48:16Z</time>
      </trkpt>
      <trkpt lat="50.03666" lon="1.96655">
        <ele>7.9</ele>
        <time>2022-04-17T11:48:17Z</time>
      </trkpt>
      <trkpt lat="50.03665" lon="1.96654">
        <ele>7.9</ele>
        <time>2022-04-17T11:48:18Z</time>
      </trkpt>
      <trkpt lat="50.03664" lon="1.96652">
        <ele>7.9</ele>
        <time>2022-04-17T11:48:19Z</time>
      </trkpt>
      <trkpt lat="50.03664" lon="1.96651">
        <ele>7.9</ele>
        <time>2022-04-17T11:48:20Z</time>
      </trkpt>
      <trkpt lat="50.03662" lon="1.96649">
        <ele>7.9</ele>
        <time>2022-04-17T11:48:22Z</time>
      </trkpt>
      <trkpt lat="50.03662" lon="1.96647">
        <ele>7.9</ele>
        <time>2022-04-17T11:48:23Z</time>
      </trkpt>
      <trkpt lat="50.03661" lon="1.96646">
        <ele>7.9</ele>
        <time>2022-04-17T11:48:24Z</time>
      </trkpt>
      <trkpt lat="50.03661" lon="1.96644">
        <ele>7.9</ele>
        <time>2022-04-17T11:48:25Z</time>
      </trkpt>
      <trkpt lat="50.0366" lon="1.9664">
        <ele>7.9</ele>
        <time>2022-04-17T11:48:27Z</time>
      </trkpt>
      <trkpt lat="50.0366" lon="1.96639">
        <ele>7.9</ele>
        <time>2022-04-17T11:48:28Z</time>
      </trkpt>
      <trkpt lat="50.03659" lon="1.96638">
        <ele>7.9</ele>
        <time>2022-04-17T11:48:29Z</time>
      </trkpt>
      <trkpt lat="50.03659" lon="1.96635">
        <ele>7.9</ele>
        <time>2022-04-17T11:48:30Z</time>
      </trkpt>
      <trkpt lat="50.03659" lon="1.96634">
        <ele>7.9</ele>
        <time>2022-04-17T11:48:31Z</time>
      </trkpt>
      <trkpt lat="50.03658" lon="1.96632">
        <ele>7.9</ele>
        <time>2022-04-17T11:48:32Z</time>
      </trkpt>
      <trkpt lat="50.03658" lon="1.96631">
        <ele>8</ele>
        <time>2022-04-17T11:48:33Z</time>
      </trkpt>
      <trkpt lat="50.03658" lon="1.96629">
        <ele>8</ele>
        <time>2022-04-17T11:48:34Z</time>
      </trkpt>
      <trkpt lat="50.03658" lon="1.96627">
        <ele>8</ele>
        <time>2022-04-17T11:48:35Z</time>
      </trkpt>
      <trkpt lat="50.03658" lon="1.96625">
        <ele>8</ele>
        <time>2022-04-17T11:48:37Z</time>
      </trkpt>
      <trkpt lat="50.03657" lon="1.96622">
        <ele>8</ele>
        <time>2022-04-17T11:48:38Z</time>
      </trkpt>
      <trkpt lat="50.03657" lon="1.96621">
        <ele>8</ele>
        <time>2022-04-17T11:48:39Z</time>
      </trkpt>
      <trkpt lat="50.03657" lon="1.96619">
        <ele>8</ele>
        <time>2022-04-17T11:48:40Z</time>
      </trkpt>
      <trkpt lat="50.03657" lon="1.96617">
        <ele>8</ele>
        <time>2022-04-17T11:48:41Z</time>
      </trkpt>
      <trkpt lat="50.03656" lon="1.96615">
        <ele>8</ele>
        <time>2022-04-17T11:48:42Z</time>
      </trkpt>
      <trkpt lat="50.03656" lon="1.96614">
        <ele>8</ele>
        <time>2022-04-17T11:48:43Z</time>
      </trkpt>
      <trkpt lat="50.03657" lon="1.96612">
        <ele>8</ele>
        <time>2022-04-17T11:48:45Z</time>
      </trkpt>
      <trkpt lat="50.03657" lon="1.9661">
        <ele>8</ele>
        <time>2022-04-17T11:48:46Z</time>
      </trkpt>
      <trkpt lat="50.03657" lon="1.96607">
        <ele>8</ele>
        <time>2022-04-17T11:48:47Z</time>
      </trkpt>
      <trkpt lat="50.03656" lon="1.96606">
        <ele>8</ele>
        <time>2022-04-17T11:48:48Z</time>
      </trkpt>
      <trkpt lat="50.03656" lon="1.96604">
        <ele>8</ele>
        <time>2022-04-17T11:48:49Z</time>
      </trkpt>
      <trkpt lat="50.03656" lon="1.96602">
        <ele>8</ele>
        <time>2022-04-17T11:48:50Z</time>
      </trkpt>
      <trkpt lat="50.03656" lon="1.96601">
        <ele>8</ele>
        <time>2022-04-17T11:48:51Z</time>
      </trkpt>
      <trkpt lat="50.03656" lon="1.96598">
        <ele>8</ele>
        <time>2022-04-17T11:48:52Z</time>
      </trkpt>
      <trkpt lat="50.03655" lon="1.96595">
        <ele>8</ele>
        <time>2022-04-17T11:48:53Z</time>
      </trkpt>
      <trkpt lat="50.03655" lon="1.96593">
        <ele>8</ele>
        <time>2022-04-17T11:48:55Z</time>
      </trkpt>
      <trkpt lat="50.03655" lon="1.96591">
        <ele>8</ele>
        <time>2022-04-17T11:48:56Z</time>
      </trkpt>
      <trkpt lat="50.03655" lon="1.96589">
        <ele>7.9</ele>
        <time>2022-04-17T11:48:57Z</time>
      </trkpt>
      <trkpt lat="50.03655" lon="1.96588">
        <ele>7.9</ele>
        <time>2022-04-17T11:48:58Z</time>
      </trkpt>
      <trkpt lat="50.03655" lon="1.96586">
        <ele>7.9</ele>
        <time>2022-04-17T11:48:59Z</time>
      </trkpt>
      <trkpt lat="50.03655" lon="1.96582">
        <ele>7.9</ele>
        <time>2022-04-17T11:49:01Z</time>
      </trkpt>
      <trkpt lat="50.03655" lon="1.96581">
        <ele>7.9</ele>
        <time>2022-04-17T11:49:02Z</time>
      </trkpt>
      <trkpt lat="50.03655" lon="1.96579">
        <ele>7.9</ele>
        <time>2022-04-17T11:49:03Z</time>
      </trkpt>
      <trkpt lat="50.03655" lon="1.96577">
        <ele>7.9</ele>
        <time>2022-04-17T11:49:04Z</time>
      </trkpt>
      <trkpt lat="50.03655" lon="1.96575">
        <ele>7.9</ele>
        <time>2022-04-17T11:49:06Z</time>
      </trkpt>
      <trkpt lat="50.03655" lon="1.96573">
        <ele>7.9</ele>
        <time>2022-04-17T11:49:07Z</time>
      </trkpt>
      <trkpt lat="50.03655" lon="1.9657">
        <ele>7.9</ele>
        <time>2022-04-17T11:49:08Z</time>
      </trkpt>
      <trkpt lat="50.03655" lon="1.96568">
        <ele>7.9</ele>
        <time>2022-04-17T11:49:09Z</time>
      </trkpt>
      <trkpt lat="50.03654" lon="1.96567">
        <ele>7.9</ele>
        <time>2022-04-17T11:49:10Z</time>
      </trkpt>
      <trkpt lat="50.03654" lon="1.96565">
        <ele>7.9</ele>
        <time>2022-04-17T11:49:11Z</time>
      </trkpt>
      <trkpt lat="50.03654" lon="1.96562">
        <ele>7.9</ele>
        <time>2022-04-17T11:49:12Z</time>
      </trkpt>
      <trkpt lat="50.03654" lon="1.96561">
        <ele>7.9</ele>
        <time>2022-04-17T11:49:13Z</time>
      </trkpt>
      <trkpt lat="50.03655" lon="1.96557">
        <ele>7.9</ele>
        <time>2022-04-17T11:49:15Z</time>
      </trkpt>
      <trkpt lat="50.03655" lon="1.96556">
        <ele>7.9</ele>
        <time>2022-04-17T11:49:16Z</time>
      </trkpt>
      <trkpt lat="50.03655" lon="1.96554">
        <ele>7.9</ele>
        <time>2022-04-17T11:49:17Z</time>
      </trkpt>
      <trkpt lat="50.03655" lon="1.96553">
        <ele>7.9</ele>
        <time>2022-04-17T11:49:18Z</time>
      </trkpt>
      <trkpt lat="50.03655" lon="1.96551">
        <ele>7.9</ele>
        <time>2022-04-17T11:49:19Z</time>
      </trkpt>
      <trkpt lat="50.03655" lon="1.9655">
        <ele>7.9</ele>
        <time>2022-04-17T11:49:20Z</time>
      </trkpt>
      <trkpt lat="50.03655" lon="1.96548">
        <ele>7.9</ele>
        <time>2022-04-17T11:49:21Z</time>
      </trkpt>
      <trkpt lat="50.03656" lon="1.96545">
        <ele>7.9</ele>
        <time>2022-04-17T11:49:22Z</time>
      </trkpt>
      <trkpt lat="50.03656" lon="1.96542">
        <ele>7.9</ele>
        <time>2022-04-17T11:49:23Z</time>
      </trkpt>
      <trkpt lat="50.03656" lon="1.96541">
        <ele>7.9</ele>
        <time>2022-04-17T11:49:24Z</time>
      </trkpt>
      <trkpt lat="50.03656" lon="1.9654">
        <ele>7.9</ele>
        <time>2022-04-17T11:49:25Z</time>
      </trkpt>
      <trkpt lat="50.03655" lon="1.96537">
        <ele>7.9</ele>
        <time>2022-04-17T11:49:26Z</time>
      </trkpt>
      <trkpt lat="50.03655" lon="1.96536">
        <ele>7.9</ele>
        <time>2022-04-17T11:49:27Z</time>
      </trkpt>
      <trkpt lat="50.03655" lon="1.96535">
        <ele>7.9</ele>
        <time>2022-04-17T11:49:28Z</time>
      </trkpt>
      <trkpt lat="50.03655" lon="1.96534">
        <ele>7.9</ele>
        <time>2022-04-17T11:49:29Z</time>
      </trkpt>
      <trkpt lat="50.03655" lon="1.96529">
        <ele>7.9</ele>
        <time>2022-04-17T11:49:31Z</time>
      </trkpt>
      <trkpt lat="50.03655" lon="1.96528">
        <ele>7.9</ele>
        <time>2022-04-17T11:49:32Z</time>
      </trkpt>
      <trkpt lat="50.03654" lon="1.96524">
        <ele>7.9</ele>
        <time>2022-04-17T11:49:33Z</time>
      </trkpt>
      <trkpt lat="50.03654" lon="1.96523">
        <ele>7.9</ele>
        <time>2022-04-17T11:49:35Z</time>
      </trkpt>
      <trkpt lat="50.03654" lon="1.96521">
        <ele>7.9</ele>
        <time>2022-04-17T11:49:36Z</time>
      </trkpt>
      <trkpt lat="50.03654" lon="1.96519">
        <ele>7.9</ele>
        <time>2022-04-17T11:49:37Z</time>
      </trkpt>
      <trkpt lat="50.03653" lon="1.96517">
        <ele>7.9</ele>
        <time>2022-04-17T11:49:38Z</time>
      </trkpt>
      <trkpt lat="50.03652" lon="1.96514">
        <ele>7.9</ele>
        <time>2022-04-17T11:49:40Z</time>
      </trkpt>
      <trkpt lat="50.03652" lon="1.96513">
        <ele>7.9</ele>
        <time>2022-04-17T11:49:41Z</time>
      </trkpt>
      <trkpt lat="50.03652" lon="1.96512">
        <ele>7.9</ele>
        <time>2022-04-17T11:49:42Z</time>
      </trkpt>
      <trkpt lat="50.03651" lon="1.96509">
        <ele>7.9</ele>
        <time>2022-04-17T11:49:43Z</time>
      </trkpt>
      <trkpt lat="50.0365" lon="1.96507">
        <ele>7.8</ele>
        <time>2022-04-17T11:49:44Z</time>
      </trkpt>
      <trkpt lat="50.0365" lon="1.96506">
        <ele>7.8</ele>
        <time>2022-04-17T11:49:45Z</time>
      </trkpt>
      <trkpt lat="50.03649" lon="1.96504">
        <ele>7.8</ele>
        <time>2022-04-17T11:49:46Z</time>
      </trkpt>
      <trkpt lat="50.03649" lon="1.96503">
        <ele>7.8</ele>
        <time>2022-04-17T11:49:47Z</time>
      </trkpt>
      <trkpt lat="50.03648" lon="1.96502">
        <ele>7.8</ele>
        <time>2022-04-17T11:49:48Z</time>
      </trkpt>
      <trkpt lat="50.03647" lon="1.965">
        <ele>7.8</ele>
        <time>2022-04-17T11:49:49Z</time>
      </trkpt>
      <trkpt lat="50.03647" lon="1.96498">
        <ele>7.8</ele>
        <time>2022-04-17T11:49:51Z</time>
      </trkpt>
      <trkpt lat="50.03646" lon="1.96496">
        <ele>7.8</ele>
        <time>2022-04-17T11:49:52Z</time>
      </trkpt>
      <trkpt lat="50.03645" lon="1.96494">
        <ele>7.8</ele>
        <time>2022-04-17T11:49:53Z</time>
      </trkpt>
      <trkpt lat="50.03645" lon="1.96492">
        <ele>7.8</ele>
        <time>2022-04-17T11:49:54Z</time>
      </trkpt>
      <trkpt lat="50.03644" lon="1.96489">
        <ele>7.8</ele>
        <time>2022-04-17T11:49:56Z</time>
      </trkpt>
      <trkpt lat="50.03644" lon="1.96488">
        <ele>7.8</ele>
        <time>2022-04-17T11:49:57Z</time>
      </trkpt>
      <trkpt lat="50.03643" lon="1.96486">
        <ele>7.8</ele>
        <time>2022-04-17T11:49:58Z</time>
      </trkpt>
      <trkpt lat="50.03643" lon="1.96484">
        <ele>7.7</ele>
        <time>2022-04-17T11:49:59Z</time>
      </trkpt>
      <trkpt lat="50.03642" lon="1.96481">
        <ele>7.7</ele>
        <time>2022-04-17T11:50:00Z</time>
      </trkpt>
      <trkpt lat="50.03642" lon="1.9648">
        <ele>7.7</ele>
        <time>2022-04-17T11:50:01Z</time>
      </trkpt>
      <trkpt lat="50.03641" lon="1.96477">
        <ele>7.7</ele>
        <time>2022-04-17T11:50:02Z</time>
      </trkpt>
      <trkpt lat="50.03641" lon="1.96476">
        <ele>7.7</ele>
        <time>2022-04-17T11:50:04Z</time>
      </trkpt>
      <trkpt lat="50.03641" lon="1.96475">
        <ele>7.7</ele>
        <time>2022-04-17T11:50:05Z</time>
      </trkpt>
      <trkpt lat="50.0364" lon="1.96472">
        <ele>7.7</ele>
        <time>2022-04-17T11:50:06Z</time>
      </trkpt>
      <trkpt lat="50.0364" lon="1.9647">
        <ele>7.7</ele>
        <time>2022-04-17T11:50:07Z</time>
      </trkpt>
      <trkpt lat="50.03639" lon="1.96467">
        <ele>7.6</ele>
        <time>2022-04-17T11:50:08Z</time>
      </trkpt>
      <trkpt lat="50.03639" lon="1.96466">
        <ele>7.6</ele>
        <time>2022-04-17T11:50:09Z</time>
      </trkpt>
      <trkpt lat="50.03639" lon="1.96464">
        <ele>7.6</ele>
        <time>2022-04-17T11:50:10Z</time>
      </trkpt>
      <trkpt lat="50.03638" lon="1.96463">
        <ele>7.6</ele>
        <time>2022-04-17T11:50:11Z</time>
      </trkpt>
      <trkpt lat="50.03638" lon="1.96461">
        <ele>7.6</ele>
        <time>2022-04-17T11:50:13Z</time>
      </trkpt>
      <trkpt lat="50.03638" lon="1.96459">
        <ele>7.6</ele>
        <time>2022-04-17T11:50:14Z</time>
      </trkpt>
      <trkpt lat="50.03637" lon="1.96456">
        <ele>7.6</ele>
        <time>2022-04-17T11:50:15Z</time>
      </trkpt>
      <trkpt lat="50.03637" lon="1.96455">
        <ele>7.6</ele>
        <time>2022-04-17T11:50:16Z</time>
      </trkpt>
      <trkpt lat="50.03636" lon="1.96454">
        <ele>7.6</ele>
        <time>2022-04-17T11:50:17Z</time>
      </trkpt>
      <trkpt lat="50.03636" lon="1.96452">
        <ele>7.6</ele>
        <time>2022-04-17T11:50:18Z</time>
      </trkpt>
      <trkpt lat="50.03635" lon="1.96451">
        <ele>7.6</ele>
        <time>2022-04-17T11:50:19Z</time>
      </trkpt>
      <trkpt lat="50.03635" lon="1.96449">
        <ele>7.6</ele>
        <time>2022-04-17T11:50:20Z</time>
      </trkpt>
      <trkpt lat="50.03635" lon="1.96448">
        <ele>7.6</ele>
        <time>2022-04-17T11:50:21Z</time>
      </trkpt>
      <trkpt lat="50.03634" lon="1.96446">
        <ele>7.6</ele>
        <time>2022-04-17T11:50:22Z</time>
      </trkpt>
      <trkpt lat="50.03634" lon="1.96443">
        <ele>7.6</ele>
        <time>2022-04-17T11:50:24Z</time>
      </trkpt>
      <trkpt lat="50.03634" lon="1.96441">
        <ele>7.6</ele>
        <time>2022-04-17T11:50:25Z</time>
      </trkpt>
      <trkpt lat="50.03633" lon="1.96439">
        <ele>7.6</ele>
        <time>2022-04-17T11:50:26Z</time>
      </trkpt>
      <trkpt lat="50.03633" lon="1.96438">
        <ele>7.6</ele>
        <time>2022-04-17T11:50:27Z</time>
      </trkpt>
      <trkpt lat="50.03633" lon="1.96436">
        <ele>7.6</ele>
        <time>2022-04-17T11:50:28Z</time>
      </trkpt>
      <trkpt lat="50.03633" lon="1.96434">
        <ele>7.6</ele>
        <time>2022-04-17T11:50:29Z</time>
      </trkpt>
      <trkpt lat="50.03632" lon="1.9643">
        <ele>7.6</ele>
        <time>2022-04-17T11:50:30Z</time>
      </trkpt>
      <trkpt lat="50.03632" lon="1.96429">
        <ele>7.6</ele>
        <time>2022-04-17T11:50:32Z</time>
      </trkpt>
      <trkpt lat="50.03632" lon="1.96428">
        <ele>7.6</ele>
        <time>2022-04-17T11:50:33Z</time>
      </trkpt>
      <trkpt lat="50.03632" lon="1.96425">
        <ele>7.6</ele>
        <time>2022-04-17T11:50:34Z</time>
      </trkpt>
      <trkpt lat="50.03631" lon="1.96423">
        <ele>7.6</ele>
        <time>2022-04-17T11:50:35Z</time>
      </trkpt>
      <trkpt lat="50.03631" lon="1.96422">
        <ele>7.6</ele>
        <time>2022-04-17T11:50:36Z</time>
      </trkpt>
      <trkpt lat="50.03631" lon="1.96419">
        <ele>7.7</ele>
        <time>2022-04-17T11:50:37Z</time>
      </trkpt>
      <trkpt lat="50.03631" lon="1.96418">
        <ele>7.7</ele>
        <time>2022-04-17T11:50:38Z</time>
      </trkpt>
      <trkpt lat="50.03631" lon="1.96417">
        <ele>7.7</ele>
        <time>2022-04-17T11:50:39Z</time>
      </trkpt>
      <trkpt lat="50.0363" lon="1.96412">
        <ele>7.7</ele>
        <time>2022-04-17T11:50:40Z</time>
      </trkpt>
      <trkpt lat="50.0363" lon="1.96411">
        <ele>7.7</ele>
        <time>2022-04-17T11:50:42Z</time>
      </trkpt>
      <trkpt lat="50.03629" lon="1.96409">
        <ele>7.8</ele>
        <time>2022-04-17T11:50:43Z</time>
      </trkpt>
      <trkpt lat="50.03629" lon="1.96408">
        <ele>7.8</ele>
        <time>2022-04-17T11:50:44Z</time>
      </trkpt>
      <trkpt lat="50.03629" lon="1.96407">
        <ele>7.8</ele>
        <time>2022-04-17T11:50:45Z</time>
      </trkpt>
      <trkpt lat="50.03628" lon="1.96405">
        <ele>7.8</ele>
        <time>2022-04-17T11:50:46Z</time>
      </trkpt>
      <trkpt lat="50.03628" lon="1.96403">
        <ele>7.8</ele>
        <time>2022-04-17T11:50:47Z</time>
      </trkpt>
      <trkpt lat="50.03628" lon="1.96401">
        <ele>7.8</ele>
        <time>2022-04-17T11:50:48Z</time>
      </trkpt>
      <trkpt lat="50.03627" lon="1.964">
        <ele>7.9</ele>
        <time>2022-04-17T11:50:49Z</time>
      </trkpt>
      <trkpt lat="50.03627" lon="1.96397">
        <ele>7.9</ele>
        <time>2022-04-17T11:50:51Z</time>
      </trkpt>
      <trkpt lat="50.03626" lon="1.96394">
        <ele>7.9</ele>
        <time>2022-04-17T11:50:52Z</time>
      </trkpt>
      <trkpt lat="50.03626" lon="1.96393">
        <ele>7.9</ele>
        <time>2022-04-17T11:50:53Z</time>
      </trkpt>
      <trkpt lat="50.03626" lon="1.96391">
        <ele>7.9</ele>
        <time>2022-04-17T11:50:54Z</time>
      </trkpt>
      <trkpt lat="50.03625" lon="1.96389">
        <ele>7.9</ele>
        <time>2022-04-17T11:50:56Z</time>
      </trkpt>
      <trkpt lat="50.03625" lon="1.96388">
        <ele>7.9</ele>
        <time>2022-04-17T11:50:57Z</time>
      </trkpt>
      <trkpt lat="50.03625" lon="1.96386">
        <ele>7.9</ele>
        <time>2022-04-17T11:50:58Z</time>
      </trkpt>
      <trkpt lat="50.03624" lon="1.96384">
        <ele>8</ele>
        <time>2022-04-17T11:50:59Z</time>
      </trkpt>
      <trkpt lat="50.03624" lon="1.96381">
        <ele>8</ele>
        <time>2022-04-17T11:51:01Z</time>
      </trkpt>
      <trkpt lat="50.03623" lon="1.96377">
        <ele>8</ele>
        <time>2022-04-17T11:51:02Z</time>
      </trkpt>
      <trkpt lat="50.03623" lon="1.96376">
        <ele>8</ele>
        <time>2022-04-17T11:51:03Z</time>
      </trkpt>
      <trkpt lat="50.03623" lon="1.96375">
        <ele>8</ele>
        <time>2022-04-17T11:51:04Z</time>
      </trkpt>
      <trkpt lat="50.03623" lon="1.96372">
        <ele>8</ele>
        <time>2022-04-17T11:51:05Z</time>
      </trkpt>
      <trkpt lat="50.03623" lon="1.96371">
        <ele>8</ele>
        <time>2022-04-17T11:51:06Z</time>
      </trkpt>
      <trkpt lat="50.03622" lon="1.96369">
        <ele>8</ele>
        <time>2022-04-17T11:51:07Z</time>
      </trkpt>
      <trkpt lat="50.03622" lon="1.96368">
        <ele>8</ele>
        <time>2022-04-17T11:51:08Z</time>
      </trkpt>
      <trkpt lat="50.03622" lon="1.96366">
        <ele>8</ele>
        <time>2022-04-17T11:51:09Z</time>
      </trkpt>
      <trkpt lat="50.03622" lon="1.96364">
        <ele>7.9</ele>
        <time>2022-04-17T11:51:10Z</time>
      </trkpt>
      <trkpt lat="50.03622" lon="1.96363">
        <ele>7.9</ele>
        <time>2022-04-17T11:51:11Z</time>
      </trkpt>
      <trkpt lat="50.03622" lon="1.96361">
        <ele>7.9</ele>
        <time>2022-04-17T11:51:12Z</time>
      </trkpt>
      <trkpt lat="50.03622" lon="1.96359">
        <ele>7.9</ele>
        <time>2022-04-17T11:51:13Z</time>
      </trkpt>
      <trkpt lat="50.03621" lon="1.96355">
        <ele>7.9</ele>
        <time>2022-04-17T11:51:15Z</time>
      </trkpt>
      <trkpt lat="50.03621" lon="1.96354">
        <ele>7.9</ele>
        <time>2022-04-17T11:51:16Z</time>
      </trkpt>
      <trkpt lat="50.03621" lon="1.96349">
        <ele>7.9</ele>
        <time>2022-04-17T11:51:17Z</time>
      </trkpt>
      <trkpt lat="50.03621" lon="1.96347">
        <ele>7.9</ele>
        <time>2022-04-17T11:51:19Z</time>
      </trkpt>
      <trkpt lat="50.0362" lon="1.96345">
        <ele>7.9</ele>
        <time>2022-04-17T11:51:20Z</time>
      </trkpt>
      <trkpt lat="50.0362" lon="1.96343">
        <ele>7.8</ele>
        <time>2022-04-17T11:51:21Z</time>
      </trkpt>
      <trkpt lat="50.0362" lon="1.96342">
        <ele>7.8</ele>
        <time>2022-04-17T11:51:23Z</time>
      </trkpt>
      <trkpt lat="50.0362" lon="1.96338">
        <ele>7.8</ele>
        <time>2022-04-17T11:51:24Z</time>
      </trkpt>
      <trkpt lat="50.0362" lon="1.96335">
        <ele>7.8</ele>
        <time>2022-04-17T11:51:25Z</time>
      </trkpt>
      <trkpt lat="50.0362" lon="1.96334">
        <ele>7.8</ele>
        <time>2022-04-17T11:51:26Z</time>
      </trkpt>
      <trkpt lat="50.0362" lon="1.9633">
        <ele>7.8</ele>
        <time>2022-04-17T11:51:27Z</time>
      </trkpt>
      <trkpt lat="50.0362" lon="1.96329">
        <ele>7.7</ele>
        <time>2022-04-17T11:51:29Z</time>
      </trkpt>
      <trkpt lat="50.0362" lon="1.96328">
        <ele>7.7</ele>
        <time>2022-04-17T11:51:30Z</time>
      </trkpt>
      <trkpt lat="50.0362" lon="1.96325">
        <ele>7.7</ele>
        <time>2022-04-17T11:51:31Z</time>
      </trkpt>
      <trkpt lat="50.0362" lon="1.96323">
        <ele>7.7</ele>
        <time>2022-04-17T11:51:33Z</time>
      </trkpt>
      <trkpt lat="50.0362" lon="1.9632">
        <ele>7.7</ele>
        <time>2022-04-17T11:51:35Z</time>
      </trkpt>
      <trkpt lat="50.0362" lon="1.96318">
        <ele>7.7</ele>
        <time>2022-04-17T11:51:36Z</time>
      </trkpt>
      <trkpt lat="50.0362" lon="1.96316">
        <ele>7.7</ele>
        <time>2022-04-17T11:51:37Z</time>
      </trkpt>
      <trkpt lat="50.0362" lon="1.96312">
        <ele>7.6</ele>
        <time>2022-04-17T11:51:39Z</time>
      </trkpt>
      <trkpt lat="50.0362" lon="1.96309">
        <ele>7.6</ele>
        <time>2022-04-17T11:51:40Z</time>
      </trkpt>
      <trkpt lat="50.0362" lon="1.96308">
        <ele>7.6</ele>
        <time>2022-04-17T11:51:41Z</time>
      </trkpt>
      <trkpt lat="50.03621" lon="1.96308">
        <ele>7.6</ele>
        <time>2022-04-17T11:51:42Z</time>
      </trkpt>
      <trkpt lat="50.03621" lon="1.96307">
        <ele>7.6</ele>
        <time>2022-04-17T11:51:43Z</time>
      </trkpt>
      <trkpt lat="50.03621" lon="1.96305">
        <ele>7.6</ele>
        <time>2022-04-17T11:51:44Z</time>
      </trkpt>
      <trkpt lat="50.03621" lon="1.96303">
        <ele>7.6</ele>
        <time>2022-04-17T11:51:45Z</time>
      </trkpt>
      <trkpt lat="50.03621" lon="1.963">
        <ele>7.5</ele>
        <time>2022-04-17T11:51:47Z</time>
      </trkpt>
      <trkpt lat="50.03622" lon="1.96299">
        <ele>7.5</ele>
        <time>2022-04-17T11:51:48Z</time>
      </trkpt>
      <trkpt lat="50.03622" lon="1.96297">
        <ele>7.5</ele>
        <time>2022-04-17T11:51:49Z</time>
      </trkpt>
      <trkpt lat="50.03622" lon="1.96294">
        <ele>7.5</ele>
        <time>2022-04-17T11:51:51Z</time>
      </trkpt>
      <trkpt lat="50.03623" lon="1.96293">
        <ele>7.5</ele>
        <time>2022-04-17T11:51:52Z</time>
      </trkpt>
      <trkpt lat="50.03623" lon="1.96291">
        <ele>7.5</ele>
        <time>2022-04-17T11:51:53Z</time>
      </trkpt>
      <trkpt lat="50.03624" lon="1.96289">
        <ele>7.5</ele>
        <time>2022-04-17T11:51:54Z</time>
      </trkpt>
      <trkpt lat="50.03624" lon="1.96288">
        <ele>7.5</ele>
        <time>2022-04-17T11:51:55Z</time>
      </trkpt>
      <trkpt lat="50.03625" lon="1.96285">
        <ele>7.4</ele>
        <time>2022-04-17T11:51:56Z</time>
      </trkpt>
      <trkpt lat="50.03625" lon="1.96284">
        <ele>7.4</ele>
        <time>2022-04-17T11:51:57Z</time>
      </trkpt>
      <trkpt lat="50.03625" lon="1.96282">
        <ele>7.4</ele>
        <time>2022-04-17T11:51:58Z</time>
      </trkpt>
      <trkpt lat="50.03626" lon="1.96281">
        <ele>7.4</ele>
        <time>2022-04-17T11:51:59Z</time>
      </trkpt>
      <trkpt lat="50.03626" lon="1.96279">
        <ele>7.4</ele>
        <time>2022-04-17T11:52:00Z</time>
      </trkpt>
      <trkpt lat="50.03627" lon="1.96277">
        <ele>7.4</ele>
        <time>2022-04-17T11:52:02Z</time>
      </trkpt>
      <trkpt lat="50.03628" lon="1.96275">
        <ele>7.4</ele>
        <time>2022-04-17T11:52:03Z</time>
      </trkpt>
      <trkpt lat="50.03628" lon="1.96273">
        <ele>7.4</ele>
        <time>2022-04-17T11:52:04Z</time>
      </trkpt>
      <trkpt lat="50.03629" lon="1.9627">
        <ele>7.4</ele>
        <time>2022-04-17T11:52:06Z</time>
      </trkpt>
      <trkpt lat="50.03629" lon="1.96268">
        <ele>7.3</ele>
        <time>2022-04-17T11:52:07Z</time>
      </trkpt>
      <trkpt lat="50.0363" lon="1.96266">
        <ele>7.3</ele>
        <time>2022-04-17T11:52:08Z</time>
      </trkpt>
      <trkpt lat="50.0363" lon="1.96264">
        <ele>7.3</ele>
        <time>2022-04-17T11:52:09Z</time>
      </trkpt>
      <trkpt lat="50.03631" lon="1.96261">
        <ele>7.3</ele>
        <time>2022-04-17T11:52:10Z</time>
      </trkpt>
      <trkpt lat="50.03631" lon="1.9626">
        <ele>7.3</ele>
        <time>2022-04-17T11:52:11Z</time>
      </trkpt>
      <trkpt lat="50.03632" lon="1.96258">
        <ele>7.3</ele>
        <time>2022-04-17T11:52:12Z</time>
      </trkpt>
      <trkpt lat="50.03632" lon="1.96255">
        <ele>7.3</ele>
        <time>2022-04-17T11:52:13Z</time>
      </trkpt>
      <trkpt lat="50.03632" lon="1.96254">
        <ele>7.3</ele>
        <time>2022-04-17T11:52:15Z</time>
      </trkpt>
      <trkpt lat="50.03632" lon="1.96252">
        <ele>7.2</ele>
        <time>2022-04-17T11:52:16Z</time>
      </trkpt>
      <trkpt lat="50.03632" lon="1.96251">
        <ele>7.2</ele>
        <time>2022-04-17T11:52:17Z</time>
      </trkpt>
      <trkpt lat="50.03633" lon="1.96249">
        <ele>7.2</ele>
        <time>2022-04-17T11:52:18Z</time>
      </trkpt>
      <trkpt lat="50.03633" lon="1.96247">
        <ele>7.2</ele>
        <time>2022-04-17T11:52:19Z</time>
      </trkpt>
      <trkpt lat="50.03633" lon="1.96245">
        <ele>7.2</ele>
        <time>2022-04-17T11:52:20Z</time>
      </trkpt>
      <trkpt lat="50.03634" lon="1.96242">
        <ele>7.2</ele>
        <time>2022-04-17T11:52:21Z</time>
      </trkpt>
      <trkpt lat="50.03634" lon="1.96241">
        <ele>7.2</ele>
        <time>2022-04-17T11:52:23Z</time>
      </trkpt>
      <trkpt lat="50.03634" lon="1.96239">
        <ele>7.2</ele>
        <time>2022-04-17T11:52:24Z</time>
      </trkpt>
      <trkpt lat="50.03634" lon="1.96237">
        <ele>7.2</ele>
        <time>2022-04-17T11:52:25Z</time>
      </trkpt>
      <trkpt lat="50.03635" lon="1.96233">
        <ele>7.2</ele>
        <time>2022-04-17T11:52:26Z</time>
      </trkpt>
      <trkpt lat="50.03636" lon="1.96233">
        <ele>7.1</ele>
        <time>2022-04-17T11:52:27Z</time>
      </trkpt>
      <trkpt lat="50.03636" lon="1.96232">
        <ele>7.1</ele>
        <time>2022-04-17T11:52:28Z</time>
      </trkpt>
      <trkpt lat="50.03636" lon="1.9623">
        <ele>7.1</ele>
        <time>2022-04-17T11:52:29Z</time>
      </trkpt>
      <trkpt lat="50.03637" lon="1.96228">
        <ele>7.1</ele>
        <time>2022-04-17T11:52:30Z</time>
      </trkpt>
      <trkpt lat="50.03638" lon="1.96225">
        <ele>7.1</ele>
        <time>2022-04-17T11:52:31Z</time>
      </trkpt>
      <trkpt lat="50.03638" lon="1.96224">
        <ele>7.1</ele>
        <time>2022-04-17T11:52:33Z</time>
      </trkpt>
      <trkpt lat="50.03638" lon="1.96221">
        <ele>7.1</ele>
        <time>2022-04-17T11:52:34Z</time>
      </trkpt>
      <trkpt lat="50.03638" lon="1.96219">
        <ele>7.1</ele>
        <time>2022-04-17T11:52:35Z</time>
      </trkpt>
      <trkpt lat="50.03638" lon="1.96216">
        <ele>7.1</ele>
        <time>2022-04-17T11:52:36Z</time>
      </trkpt>
      <trkpt lat="50.03638" lon="1.96214">
        <ele>7.1</ele>
        <time>2022-04-17T11:52:37Z</time>
      </trkpt>
      <trkpt lat="50.03637" lon="1.96212">
        <ele>7.1</ele>
        <time>2022-04-17T11:52:39Z</time>
      </trkpt>
      <trkpt lat="50.03637" lon="1.9621">
        <ele>7.1</ele>
        <time>2022-04-17T11:52:40Z</time>
      </trkpt>
      <trkpt lat="50.03636" lon="1.96208">
        <ele>7.1</ele>
        <time>2022-04-17T11:52:41Z</time>
      </trkpt>
      <trkpt lat="50.03636" lon="1.96206">
        <ele>7.1</ele>
        <time>2022-04-17T11:52:42Z</time>
      </trkpt>
      <trkpt lat="50.03636" lon="1.96205">
        <ele>7.1</ele>
        <time>2022-04-17T11:52:43Z</time>
      </trkpt>
      <trkpt lat="50.03636" lon="1.96203">
        <ele>7.1</ele>
        <time>2022-04-17T11:52:44Z</time>
      </trkpt>
      <trkpt lat="50.03636" lon="1.96201">
        <ele>7.1</ele>
        <time>2022-04-17T11:52:46Z</time>
      </trkpt>
      <trkpt lat="50.03636" lon="1.96199">
        <ele>7.1</ele>
        <time>2022-04-17T11:52:47Z</time>
      </trkpt>
      <trkpt lat="50.03636" lon="1.96198">
        <ele>7.1</ele>
        <time>2022-04-17T11:52:48Z</time>
      </trkpt>
      <trkpt lat="50.03637" lon="1.96198">
        <ele>7.1</ele>
        <time>2022-04-17T11:52:49Z</time>
      </trkpt>
      <trkpt lat="50.03637" lon="1.96198">
        <ele>7.1</ele>
        <time>2022-04-17T11:52:50Z</time>
      </trkpt>
      <trkpt lat="50.03637" lon="1.96197">
        <ele>7.1</ele>
        <time>2022-04-17T11:52:51Z</time>
      </trkpt>
      <trkpt lat="50.03637" lon="1.96197">
        <ele>7.2</ele>
        <time>2022-04-17T11:52:52Z</time>
      </trkpt>
      <trkpt lat="50.03637" lon="1.96196">
        <ele>7.2</ele>
        <time>2022-04-17T11:52:53Z</time>
      </trkpt>
      <trkpt lat="50.03637" lon="1.96195">
        <ele>7.2</ele>
        <time>2022-04-17T11:52:54Z</time>
      </trkpt>
      <trkpt lat="50.03637" lon="1.96194">
        <ele>7.2</ele>
        <time>2022-04-17T11:52:55Z</time>
      </trkpt>
      <trkpt lat="50.03636" lon="1.96193">
        <ele>7.2</ele>
        <time>2022-04-17T11:52:56Z</time>
      </trkpt>
      <trkpt lat="50.03635" lon="1.96192">
        <ele>7.2</ele>
        <time>2022-04-17T11:52:58Z</time>
      </trkpt>
      <trkpt lat="50.03634" lon="1.96191">
        <ele>7.2</ele>
        <time>2022-04-17T11:52:59Z</time>
      </trkpt>
      <trkpt lat="50.03634" lon="1.9619">
        <ele>7.2</ele>
        <time>2022-04-17T11:53:00Z</time>
      </trkpt>
      <trkpt lat="50.03634" lon="1.96189">
        <ele>7.2</ele>
        <time>2022-04-17T11:53:01Z</time>
      </trkpt>
      <trkpt lat="50.03634" lon="1.96188">
        <ele>7.2</ele>
        <time>2022-04-17T11:53:02Z</time>
      </trkpt>
      <trkpt lat="50.03635" lon="1.96188">
        <ele>7.2</ele>
        <time>2022-04-17T11:53:03Z</time>
      </trkpt>
      <trkpt lat="50.03635" lon="1.96188">
        <ele>7.2</ele>
        <time>2022-04-17T11:53:04Z</time>
      </trkpt>
      <trkpt lat="50.03635" lon="1.96188">
        <ele>7.2</ele>
        <time>2022-04-17T11:53:05Z</time>
      </trkpt>
      <trkpt lat="50.03635" lon="1.96188">
        <ele>7.2</ele>
        <time>2022-04-17T11:53:06Z</time>
      </trkpt>
      <trkpt lat="50.03635" lon="1.96188">
        <ele>7.2</ele>
        <time>2022-04-17T11:53:07Z</time>
      </trkpt>
      <trkpt lat="50.03635" lon="1.96189">
        <ele>7.2</ele>
        <time>2022-04-17T11:53:08Z</time>
      </trkpt>
      <trkpt lat="50.03635" lon="1.96189">
        <ele>7.2</ele>
        <time>2022-04-17T11:53:09Z</time>
      </trkpt>
      <trkpt lat="50.03635" lon="1.96189">
        <ele>7.2</ele>
        <time>2022-04-17T11:53:11Z</time>
      </trkpt>
      <trkpt lat="50.03635" lon="1.96189">
        <ele>7.2</ele>
        <time>2022-04-17T11:53:12Z</time>
      </trkpt>
      <trkpt lat="50.03635" lon="1.96188">
        <ele>7.2</ele>
        <time>2022-04-17T11:53:13Z</time>
      </trkpt>
      <trkpt lat="50.03634" lon="1.96188">
        <ele>7.2</ele>
        <time>2022-04-17T11:53:14Z</time>
      </trkpt>
      <trkpt lat="50.03634" lon="1.96187">
        <ele>7.2</ele>
        <time>2022-04-17T11:53:15Z</time>
      </trkpt>
      <trkpt lat="50.03633" lon="1.96186">
        <ele>7.2</ele>
        <time>2022-04-17T11:53:16Z</time>
      </trkpt>
      <trkpt lat="50.03632" lon="1.96184">
        <ele>7.2</ele>
        <time>2022-04-17T11:53:18Z</time>
      </trkpt>
      <trkpt lat="50.03631" lon="1.96182">
        <ele>7.2</ele>
        <time>2022-04-17T11:53:19Z</time>
      </trkpt>
      <trkpt lat="50.0363" lon="1.96181">
        <ele>7.2</ele>
        <time>2022-04-17T11:53:20Z</time>
      </trkpt>
      <trkpt lat="50.03629" lon="1.9618">
        <ele>7.2</ele>
        <time>2022-04-17T11:53:21Z</time>
      </trkpt>
      <trkpt lat="50.03629" lon="1.96179">
        <ele>7.2</ele>
        <time>2022-04-17T11:53:22Z</time>
      </trkpt>
      <trkpt lat="50.03628" lon="1.96177">
        <ele>7.2</ele>
        <time>2022-04-17T11:53:23Z</time>
      </trkpt>
      <trkpt lat="50.03628" lon="1.96176">
        <ele>7.2</ele>
        <time>2022-04-17T11:53:24Z</time>
      </trkpt>
      <trkpt lat="50.03627" lon="1.96173">
        <ele>7.2</ele>
        <time>2022-04-17T11:53:25Z</time>
      </trkpt>
      <trkpt lat="50.03626" lon="1.96172">
        <ele>7.2</ele>
        <time>2022-04-17T11:53:27Z</time>
      </trkpt>
      <trkpt lat="50.03625" lon="1.9617">
        <ele>7.2</ele>
        <time>2022-04-17T11:53:28Z</time>
      </trkpt>
      <trkpt lat="50.03625" lon="1.96168">
        <ele>7.2</ele>
        <time>2022-04-17T11:53:29Z</time>
      </trkpt>
      <trkpt lat="50.03624" lon="1.96167">
        <ele>7.2</ele>
        <time>2022-04-17T11:53:30Z</time>
      </trkpt>
      <trkpt lat="50.03623" lon="1.96164">
        <ele>7.2</ele>
        <time>2022-04-17T11:53:32Z</time>
      </trkpt>
      <trkpt lat="50.03623" lon="1.96162">
        <ele>7.2</ele>
        <time>2022-04-17T11:53:33Z</time>
      </trkpt>
      <trkpt lat="50.03622" lon="1.96161">
        <ele>7.2</ele>
        <time>2022-04-17T11:53:34Z</time>
      </trkpt>
      <trkpt lat="50.03622" lon="1.9616">
        <ele>7.2</ele>
        <time>2022-04-17T11:53:35Z</time>
      </trkpt>
      <trkpt lat="50.03621" lon="1.96157">
        <ele>7.2</ele>
        <time>2022-04-17T11:53:36Z</time>
      </trkpt>
      <trkpt lat="50.03621" lon="1.96156">
        <ele>7.2</ele>
        <time>2022-04-17T11:53:37Z</time>
      </trkpt>
      <trkpt lat="50.0362" lon="1.96155">
        <ele>7.2</ele>
        <time>2022-04-17T11:53:39Z</time>
      </trkpt>
      <trkpt lat="50.0362" lon="1.96153">
        <ele>7.2</ele>
        <time>2022-04-17T11:53:40Z</time>
      </trkpt>
      <trkpt lat="50.03619" lon="1.9615">
        <ele>7.2</ele>
        <time>2022-04-17T11:53:41Z</time>
      </trkpt>
      <trkpt lat="50.03619" lon="1.96149">
        <ele>7.2</ele>
        <time>2022-04-17T11:53:42Z</time>
      </trkpt>
      <trkpt lat="50.03618" lon="1.96146">
        <ele>7.2</ele>
        <time>2022-04-17T11:53:44Z</time>
      </trkpt>
      <trkpt lat="50.03618" lon="1.96145">
        <ele>7.2</ele>
        <time>2022-04-17T11:53:45Z</time>
      </trkpt>
      <trkpt lat="50.03617" lon="1.96143">
        <ele>7.2</ele>
        <time>2022-04-17T11:53:46Z</time>
      </trkpt>
      <trkpt lat="50.03617" lon="1.96141">
        <ele>7.2</ele>
        <time>2022-04-17T11:53:47Z</time>
      </trkpt>
      <trkpt lat="50.03616" lon="1.9614">
        <ele>7.2</ele>
        <time>2022-04-17T11:53:48Z</time>
      </trkpt>
      <trkpt lat="50.03615" lon="1.96137">
        <ele>7.2</ele>
        <time>2022-04-17T11:53:49Z</time>
      </trkpt>
      <trkpt lat="50.03614" lon="1.96135">
        <ele>7.2</ele>
        <time>2022-04-17T11:53:51Z</time>
      </trkpt>
      <trkpt lat="50.03614" lon="1.96134">
        <ele>7.2</ele>
        <time>2022-04-17T11:53:52Z</time>
      </trkpt>
      <trkpt lat="50.03613" lon="1.96133">
        <ele>7.2</ele>
        <time>2022-04-17T11:53:53Z</time>
      </trkpt>
      <trkpt lat="50.03613" lon="1.96131">
        <ele>7.2</ele>
        <time>2022-04-17T11:53:54Z</time>
      </trkpt>
      <trkpt lat="50.03612" lon="1.9613">
        <ele>7.2</ele>
        <time>2022-04-17T11:53:55Z</time>
      </trkpt>
      <trkpt lat="50.03611" lon="1.96128">
        <ele>7.2</ele>
        <time>2022-04-17T11:53:56Z</time>
      </trkpt>
      <trkpt lat="50.0361" lon="1.96126">
        <ele>7.2</ele>
        <time>2022-04-17T11:53:57Z</time>
      </trkpt>
      <trkpt lat="50.03608" lon="1.96124">
        <ele>7.2</ele>
        <time>2022-04-17T11:53:59Z</time>
      </trkpt>
      <trkpt lat="50.03607" lon="1.96121">
        <ele>7.2</ele>
        <time>2022-04-17T11:54:01Z</time>
      </trkpt>
      <trkpt lat="50.03606" lon="1.96119">
        <ele>7.2</ele>
        <time>2022-04-17T11:54:02Z</time>
      </trkpt>
      <trkpt lat="50.03606" lon="1.96118">
        <ele>7.2</ele>
        <time>2022-04-17T11:54:03Z</time>
      </trkpt>
      <trkpt lat="50.03605" lon="1.96117">
        <ele>7.1</ele>
        <time>2022-04-17T11:54:04Z</time>
      </trkpt>
      <trkpt lat="50.03604" lon="1.96114">
        <ele>7.1</ele>
        <time>2022-04-17T11:54:05Z</time>
      </trkpt>
      <trkpt lat="50.03604" lon="1.96113">
        <ele>7.1</ele>
        <time>2022-04-17T11:54:07Z</time>
      </trkpt>
      <trkpt lat="50.03604" lon="1.96111">
        <ele>7.1</ele>
        <time>2022-04-17T11:54:08Z</time>
      </trkpt>
      <trkpt lat="50.03603" lon="1.96108">
        <ele>7</ele>
        <time>2022-04-17T11:54:09Z</time>
      </trkpt>
      <trkpt lat="50.03603" lon="1.96107">
        <ele>7</ele>
        <time>2022-04-17T11:54:10Z</time>
      </trkpt>
      <trkpt lat="50.03602" lon="1.96106">
        <ele>7</ele>
        <time>2022-04-17T11:54:11Z</time>
      </trkpt>
      <trkpt lat="50.03602" lon="1.96104">
        <ele>7</ele>
        <time>2022-04-17T11:54:12Z</time>
      </trkpt>
      <trkpt lat="50.03601" lon="1.96101">
        <ele>7</ele>
        <time>2022-04-17T11:54:14Z</time>
      </trkpt>
      <trkpt lat="50.036" lon="1.96099">
        <ele>7</ele>
        <time>2022-04-17T11:54:15Z</time>
      </trkpt>
      <trkpt lat="50.036" lon="1.96097">
        <ele>6.9</ele>
        <time>2022-04-17T11:54:16Z</time>
      </trkpt>
      <trkpt lat="50.03599" lon="1.96095">
        <ele>6.9</ele>
        <time>2022-04-17T11:54:18Z</time>
      </trkpt>
      <trkpt lat="50.03598" lon="1.96093">
        <ele>6.9</ele>
        <time>2022-04-17T11:54:19Z</time>
      </trkpt>
      <trkpt lat="50.03598" lon="1.96091">
        <ele>6.9</ele>
        <time>2022-04-17T11:54:20Z</time>
      </trkpt>
      <trkpt lat="50.03597" lon="1.96089">
        <ele>6.9</ele>
        <time>2022-04-17T11:54:21Z</time>
      </trkpt>
      <trkpt lat="50.03597" lon="1.96088">
        <ele>6.9</ele>
        <time>2022-04-17T11:54:22Z</time>
      </trkpt>
      <trkpt lat="50.03596" lon="1.96087">
        <ele>6.9</ele>
        <time>2022-04-17T11:54:23Z</time>
      </trkpt>
      <trkpt lat="50.03596" lon="1.96085">
        <ele>6.9</ele>
        <time>2022-04-17T11:54:24Z</time>
      </trkpt>
      <trkpt lat="50.03596" lon="1.96084">
        <ele>6.9</ele>
        <time>2022-04-17T11:54:25Z</time>
      </trkpt>
      <trkpt lat="50.03595" lon="1.96082">
        <ele>6.9</ele>
        <time>2022-04-17T11:54:26Z</time>
      </trkpt>
      <trkpt lat="50.03594" lon="1.96081">
        <ele>6.9</ele>
        <time>2022-04-17T11:54:27Z</time>
      </trkpt>
      <trkpt lat="50.03593" lon="1.9608">
        <ele>6.9</ele>
        <time>2022-04-17T11:54:28Z</time>
      </trkpt>
      <trkpt lat="50.03593" lon="1.9608">
        <ele>6.8</ele>
        <time>2022-04-17T11:54:29Z</time>
      </trkpt>
      <trkpt lat="50.03592" lon="1.9608">
        <ele>6.8</ele>
        <time>2022-04-17T11:54:30Z</time>
      </trkpt>
      <trkpt lat="50.03592" lon="1.9608">
        <ele>6.8</ele>
        <time>2022-04-17T11:54:31Z</time>
      </trkpt>
      <trkpt lat="50.03592" lon="1.96081">
        <ele>6.8</ele>
        <time>2022-04-17T11:54:33Z</time>
      </trkpt>
      <trkpt lat="50.03592" lon="1.96081">
        <ele>6.8</ele>
        <time>2022-04-17T11:54:34Z</time>
      </trkpt>
      <trkpt lat="50.03593" lon="1.9608">
        <ele>6.8</ele>
        <time>2022-04-17T11:54:36Z</time>
      </trkpt>
      <trkpt lat="50.03593" lon="1.96079">
        <ele>6.8</ele>
        <time>2022-04-17T11:54:37Z</time>
      </trkpt>
      <trkpt lat="50.03593" lon="1.96079">
        <ele>6.8</ele>
        <time>2022-04-17T11:54:38Z</time>
      </trkpt>
      <trkpt lat="50.03593" lon="1.96079">
        <ele>6.8</ele>
        <time>2022-04-17T11:54:39Z</time>
      </trkpt>
      <trkpt lat="50.03594" lon="1.9608">
        <ele>6.8</ele>
        <time>2022-04-17T11:54:40Z</time>
      </trkpt>
      <trkpt lat="50.03594" lon="1.96079">
        <ele>6.8</ele>
        <time>2022-04-17T11:54:41Z</time>
      </trkpt>
      <trkpt lat="50.03594" lon="1.96079">
        <ele>6.8</ele>
        <time>2022-04-17T11:54:42Z</time>
      </trkpt>
      <trkpt lat="50.03594" lon="1.96079">
        <ele>6.8</ele>
        <time>2022-04-17T11:54:43Z</time>
      </trkpt>
      <trkpt lat="50.03594" lon="1.96079">
        <ele>6.8</ele>
        <time>2022-04-17T11:54:44Z</time>
      </trkpt>
      <trkpt lat="50.03594" lon="1.96079">
        <ele>6.8</ele>
        <time>2022-04-17T11:54:46Z</time>
      </trkpt>
      <trkpt lat="50.03594" lon="1.96079">
        <ele>6.8</ele>
        <time>2022-04-17T11:54:47Z</time>
      </trkpt>
      <trkpt lat="50.03594" lon="1.96079">
        <ele>6.8</ele>
        <time>2022-04-17T11:54:48Z</time>
      </trkpt>
      <trkpt lat="50.03595" lon="1.9608">
        <ele>6.8</ele>
        <time>2022-04-17T11:54:50Z</time>
      </trkpt>
      <trkpt lat="50.03595" lon="1.9608">
        <ele>6.8</ele>
        <time>2022-04-17T11:54:51Z</time>
      </trkpt>
      <trkpt lat="50.03596" lon="1.9608">
        <ele>6.8</ele>
        <time>2022-04-17T11:54:52Z</time>
      </trkpt>
      <trkpt lat="50.03596" lon="1.9608">
        <ele>6.8</ele>
        <time>2022-04-17T11:54:53Z</time>
      </trkpt>
      <trkpt lat="50.03597" lon="1.96079">
        <ele>6.8</ele>
        <time>2022-04-17T11:54:54Z</time>
      </trkpt>
      <trkpt lat="50.03597" lon="1.96076">
        <ele>6.8</ele>
        <time>2022-04-17T11:54:55Z</time>
      </trkpt>
      <trkpt lat="50.03596" lon="1.96074">
        <ele>6.8</ele>
        <time>2022-04-17T11:54:56Z</time>
      </trkpt>
      <trkpt lat="50.03596" lon="1.96073">
        <ele>6.8</ele>
        <time>2022-04-17T11:54:57Z</time>
      </trkpt>
      <trkpt lat="50.03594" lon="1.96069">
        <ele>6.8</ele>
        <time>2022-04-17T11:54:58Z</time>
      </trkpt>
      <trkpt lat="50.03594" lon="1.96068">
        <ele>6.8</ele>
        <time>2022-04-17T11:54:59Z</time>
      </trkpt>
      <trkpt lat="50.03592" lon="1.96066">
        <ele>6.8</ele>
        <time>2022-04-17T11:55:00Z</time>
      </trkpt>
      <trkpt lat="50.03592" lon="1.96065">
        <ele>6.8</ele>
        <time>2022-04-17T11:55:01Z</time>
      </trkpt>
      <trkpt lat="50.03591" lon="1.96062">
        <ele>6.8</ele>
        <time>2022-04-17T11:55:02Z</time>
      </trkpt>
      <trkpt lat="50.0359" lon="1.96061">
        <ele>6.8</ele>
        <time>2022-04-17T11:55:03Z</time>
      </trkpt>
      <trkpt lat="50.03589" lon="1.9606">
        <ele>6.8</ele>
        <time>2022-04-17T11:55:05Z</time>
      </trkpt>
      <trkpt lat="50.03588" lon="1.96058">
        <ele>6.8</ele>
        <time>2022-04-17T11:55:06Z</time>
      </trkpt>
      <trkpt lat="50.03587" lon="1.96059">
        <ele>6.8</ele>
        <time>2022-04-17T11:55:07Z</time>
      </trkpt>
      <trkpt lat="50.03586" lon="1.96058">
        <ele>6.8</ele>
        <time>2022-04-17T11:55:08Z</time>
      </trkpt>
      <trkpt lat="50.03586" lon="1.96056">
        <ele>6.8</ele>
        <time>2022-04-17T11:55:10Z</time>
      </trkpt>
      <trkpt lat="50.03585" lon="1.96054">
        <ele>6.8</ele>
        <time>2022-04-17T11:55:11Z</time>
      </trkpt>
      <trkpt lat="50.03584" lon="1.96052">
        <ele>6.8</ele>
        <time>2022-04-17T11:55:12Z</time>
      </trkpt>
      <trkpt lat="50.03583" lon="1.9605">
        <ele>6.8</ele>
        <time>2022-04-17T11:55:13Z</time>
      </trkpt>
      <trkpt lat="50.03583" lon="1.96047">
        <ele>6.8</ele>
        <time>2022-04-17T11:55:14Z</time>
      </trkpt>
      <trkpt lat="50.03581" lon="1.96044">
        <ele>6.8</ele>
        <time>2022-04-17T11:55:15Z</time>
      </trkpt>
      <trkpt lat="50.03581" lon="1.96042">
        <ele>6.8</ele>
        <time>2022-04-17T11:55:16Z</time>
      </trkpt>
      <trkpt lat="50.03579" lon="1.96038">
        <ele>6.8</ele>
        <time>2022-04-17T11:55:18Z</time>
      </trkpt>
      <trkpt lat="50.03578" lon="1.96036">
        <ele>6.8</ele>
        <time>2022-04-17T11:55:19Z</time>
      </trkpt>
      <trkpt lat="50.03578" lon="1.96034">
        <ele>6.8</ele>
        <time>2022-04-17T11:55:20Z</time>
      </trkpt>
      <trkpt lat="50.03577" lon="1.96033">
        <ele>6.8</ele>
        <time>2022-04-17T11:55:21Z</time>
      </trkpt>
      <trkpt lat="50.03577" lon="1.96031">
        <ele>6.8</ele>
        <time>2022-04-17T11:55:22Z</time>
      </trkpt>
      <trkpt lat="50.03576" lon="1.9603">
        <ele>6.8</ele>
        <time>2022-04-17T11:55:23Z</time>
      </trkpt>
      <trkpt lat="50.03574" lon="1.96027">
        <ele>6.8</ele>
        <time>2022-04-17T11:55:25Z</time>
      </trkpt>
      <trkpt lat="50.03573" lon="1.96026">
        <ele>6.8</ele>
        <time>2022-04-17T11:55:26Z</time>
      </trkpt>
      <trkpt lat="50.03572" lon="1.96024">
        <ele>6.8</ele>
        <time>2022-04-17T11:55:27Z</time>
      </trkpt>
      <trkpt lat="50.03571" lon="1.96022">
        <ele>6.8</ele>
        <time>2022-04-17T11:55:28Z</time>
      </trkpt>
      <trkpt lat="50.0357" lon="1.96021">
        <ele>6.8</ele>
        <time>2022-04-17T11:55:29Z</time>
      </trkpt>
      <trkpt lat="50.0357" lon="1.9602">
        <ele>6.8</ele>
        <time>2022-04-17T11:55:30Z</time>
      </trkpt>
      <trkpt lat="50.03569" lon="1.96018">
        <ele>6.8</ele>
        <time>2022-04-17T11:55:31Z</time>
      </trkpt>
      <trkpt lat="50.03568" lon="1.96017">
        <ele>6.8</ele>
        <time>2022-04-17T11:55:32Z</time>
      </trkpt>
      <trkpt lat="50.03567" lon="1.96014">
        <ele>6.8</ele>
        <time>2022-04-17T11:55:33Z</time>
      </trkpt>
      <trkpt lat="50.03566" lon="1.96012">
        <ele>6.8</ele>
        <time>2022-04-17T11:55:35Z</time>
      </trkpt>
      <trkpt lat="50.03565" lon="1.96011">
        <ele>6.8</ele>
        <time>2022-04-17T11:55:36Z</time>
      </trkpt>
      <trkpt lat="50.03565" lon="1.9601">
        <ele>6.8</ele>
        <time>2022-04-17T11:55:37Z</time>
      </trkpt>
      <trkpt lat="50.03564" lon="1.96008">
        <ele>6.8</ele>
        <time>2022-04-17T11:55:38Z</time>
      </trkpt>
      <trkpt lat="50.03563" lon="1.96006">
        <ele>6.8</ele>
        <time>2022-04-17T11:55:39Z</time>
      </trkpt>
      <trkpt lat="50.03563" lon="1.96005">
        <ele>6.8</ele>
        <time>2022-04-17T11:55:40Z</time>
      </trkpt>
      <trkpt lat="50.03562" lon="1.96004">
        <ele>6.8</ele>
        <time>2022-04-17T11:55:42Z</time>
      </trkpt>
      <trkpt lat="50.03561" lon="1.96001">
        <ele>6.8</ele>
        <time>2022-04-17T11:55:43Z</time>
      </trkpt>
      <trkpt lat="50.0356" lon="1.95999">
        <ele>6.8</ele>
        <time>2022-04-17T11:55:44Z</time>
      </trkpt>
      <trkpt lat="50.0356" lon="1.95998">
        <ele>6.8</ele>
        <time>2022-04-17T11:55:45Z</time>
      </trkpt>
      <trkpt lat="50.0356" lon="1.95996">
        <ele>6.8</ele>
        <time>2022-04-17T11:55:47Z</time>
      </trkpt>
      <trkpt lat="50.03559" lon="1.95994">
        <ele>6.8</ele>
        <time>2022-04-17T11:55:48Z</time>
      </trkpt>
      <trkpt lat="50.03558" lon="1.95992">
        <ele>6.8</ele>
        <time>2022-04-17T11:55:49Z</time>
      </trkpt>
      <trkpt lat="50.03558" lon="1.9599">
        <ele>6.8</ele>
        <time>2022-04-17T11:55:50Z</time>
      </trkpt>
      <trkpt lat="50.03557" lon="1.95988">
        <ele>6.8</ele>
        <time>2022-04-17T11:55:51Z</time>
      </trkpt>
      <trkpt lat="50.03557" lon="1.95987">
        <ele>6.8</ele>
        <time>2022-04-17T11:55:52Z</time>
      </trkpt>
      <trkpt lat="50.03556" lon="1.95985">
        <ele>6.8</ele>
        <time>2022-04-17T11:55:53Z</time>
      </trkpt>
      <trkpt lat="50.03556" lon="1.95983">
        <ele>6.8</ele>
        <time>2022-04-17T11:55:55Z</time>
      </trkpt>
      <trkpt lat="50.03556" lon="1.95981">
        <ele>6.8</ele>
        <time>2022-04-17T11:55:56Z</time>
      </trkpt>
      <trkpt lat="50.03555" lon="1.9598">
        <ele>6.8</ele>
        <time>2022-04-17T11:55:57Z</time>
      </trkpt>
      <trkpt lat="50.03554" lon="1.95976">
        <ele>6.8</ele>
        <time>2022-04-17T11:55:58Z</time>
      </trkpt>
      <trkpt lat="50.03554" lon="1.95975">
        <ele>6.8</ele>
        <time>2022-04-17T11:55:59Z</time>
      </trkpt>
      <trkpt lat="50.03554" lon="1.95974">
        <ele>6.8</ele>
        <time>2022-04-17T11:56:00Z</time>
      </trkpt>
      <trkpt lat="50.03553" lon="1.95972">
        <ele>6.8</ele>
        <time>2022-04-17T11:56:01Z</time>
      </trkpt>
      <trkpt lat="50.03553" lon="1.9597">
        <ele>6.8</ele>
        <time>2022-04-17T11:56:03Z</time>
      </trkpt>
      <trkpt lat="50.03552" lon="1.95969">
        <ele>6.8</ele>
        <time>2022-04-17T11:56:04Z</time>
      </trkpt>
      <trkpt lat="50.03551" lon="1.95965">
        <ele>6.8</ele>
        <time>2022-04-17T11:56:05Z</time>
      </trkpt>
      <trkpt lat="50.03551" lon="1.95964">
        <ele>6.8</ele>
        <time>2022-04-17T11:56:06Z</time>
      </trkpt>
      <trkpt lat="50.03551" lon="1.95963">
        <ele>6.8</ele>
        <time>2022-04-17T11:56:07Z</time>
      </trkpt>
      <trkpt lat="50.03551" lon="1.95962">
        <ele>6.8</ele>
        <time>2022-04-17T11:56:08Z</time>
      </trkpt>
      <trkpt lat="50.0355" lon="1.9596">
        <ele>6.8</ele>
        <time>2022-04-17T11:56:09Z</time>
      </trkpt>
      <trkpt lat="50.0355" lon="1.95959">
        <ele>6.8</ele>
        <time>2022-04-17T11:56:10Z</time>
      </trkpt>
      <trkpt lat="50.03548" lon="1.95957">
        <ele>6.8</ele>
        <time>2022-04-17T11:56:11Z</time>
      </trkpt>
      <trkpt lat="50.03548" lon="1.95956">
        <ele>6.8</ele>
        <time>2022-04-17T11:56:13Z</time>
      </trkpt>
      <trkpt lat="50.03547" lon="1.95954">
        <ele>6.8</ele>
        <time>2022-04-17T11:56:14Z</time>
      </trkpt>
      <trkpt lat="50.03546" lon="1.95952">
        <ele>6.8</ele>
        <time>2022-04-17T11:56:15Z</time>
      </trkpt>
      <trkpt lat="50.03546" lon="1.95951">
        <ele>6.8</ele>
        <time>2022-04-17T11:56:16Z</time>
      </trkpt>
      <trkpt lat="50.03545" lon="1.9595">
        <ele>6.8</ele>
        <time>2022-04-17T11:56:17Z</time>
      </trkpt>
      <trkpt lat="50.03545" lon="1.95948">
        <ele>6.8</ele>
        <time>2022-04-17T11:56:18Z</time>
      </trkpt>
      <trkpt lat="50.03544" lon="1.95947">
        <ele>6.8</ele>
        <time>2022-04-17T11:56:19Z</time>
      </trkpt>
      <trkpt lat="50.03544" lon="1.95945">
        <ele>6.8</ele>
        <time>2022-04-17T11:56:20Z</time>
      </trkpt>
      <trkpt lat="50.03542" lon="1.95943">
        <ele>6.8</ele>
        <time>2022-04-17T11:56:22Z</time>
      </trkpt>
      <trkpt lat="50.03542" lon="1.95942">
        <ele>6.8</ele>
        <time>2022-04-17T11:56:23Z</time>
      </trkpt>
      <trkpt lat="50.03541" lon="1.9594">
        <ele>6.8</ele>
        <time>2022-04-17T11:56:24Z</time>
      </trkpt>
      <trkpt lat="50.0354" lon="1.95939">
        <ele>6.8</ele>
        <time>2022-04-17T11:56:25Z</time>
      </trkpt>
      <trkpt lat="50.0354" lon="1.95937">
        <ele>6.8</ele>
        <time>2022-04-17T11:56:26Z</time>
      </trkpt>
      <trkpt lat="50.03538" lon="1.95934">
        <ele>6.8</ele>
        <time>2022-04-17T11:56:27Z</time>
      </trkpt>
      <trkpt lat="50.03538" lon="1.95932">
        <ele>6.8</ele>
        <time>2022-04-17T11:56:29Z</time>
      </trkpt>
      <trkpt lat="50.03537" lon="1.95931">
        <ele>6.8</ele>
        <time>2022-04-17T11:56:30Z</time>
      </trkpt>
      <trkpt lat="50.03536" lon="1.95929">
        <ele>6.8</ele>
        <time>2022-04-17T11:56:31Z</time>
      </trkpt>
      <trkpt lat="50.03536" lon="1.95928">
        <ele>6.8</ele>
        <time>2022-04-17T11:56:32Z</time>
      </trkpt>
      <trkpt lat="50.03535" lon="1.95927">
        <ele>6.8</ele>
        <time>2022-04-17T11:56:33Z</time>
      </trkpt>
      <trkpt lat="50.03535" lon="1.95924">
        <ele>6.8</ele>
        <time>2022-04-17T11:56:34Z</time>
      </trkpt>
      <trkpt lat="50.03535" lon="1.95923">
        <ele>6.8</ele>
        <time>2022-04-17T11:56:35Z</time>
      </trkpt>
      <trkpt lat="50.03534" lon="1.9592">
        <ele>6.8</ele>
        <time>2022-04-17T11:56:37Z</time>
      </trkpt>
      <trkpt lat="50.03533" lon="1.95918">
        <ele>6.8</ele>
        <time>2022-04-17T11:56:38Z</time>
      </trkpt>
      <trkpt lat="50.03533" lon="1.95916">
        <ele>6.8</ele>
        <time>2022-04-17T11:56:39Z</time>
      </trkpt>
      <trkpt lat="50.03532" lon="1.95914">
        <ele>6.8</ele>
        <time>2022-04-17T11:56:40Z</time>
      </trkpt>
      <trkpt lat="50.03531" lon="1.95913">
        <ele>6.8</ele>
        <time>2022-04-17T11:56:41Z</time>
      </trkpt>
      <trkpt lat="50.03531" lon="1.95911">
        <ele>6.8</ele>
        <time>2022-04-17T11:56:42Z</time>
      </trkpt>
      <trkpt lat="50.03529" lon="1.95908">
        <ele>6.8</ele>
        <time>2022-04-17T11:56:44Z</time>
      </trkpt>
      <trkpt lat="50.03529" lon="1.95906">
        <ele>6.8</ele>
        <time>2022-04-17T11:56:45Z</time>
      </trkpt>
      <trkpt lat="50.03528" lon="1.95905">
        <ele>6.8</ele>
        <time>2022-04-17T11:56:46Z</time>
      </trkpt>
      <trkpt lat="50.03528" lon="1.95903">
        <ele>6.8</ele>
        <time>2022-04-17T11:56:47Z</time>
      </trkpt>
      <trkpt lat="50.03527" lon="1.95902">
        <ele>6.8</ele>
        <time>2022-04-17T11:56:48Z</time>
      </trkpt>
      <trkpt lat="50.03526" lon="1.959">
        <ele>6.8</ele>
        <time>2022-04-17T11:56:49Z</time>
      </trkpt>
      <trkpt lat="50.03526" lon="1.95898">
        <ele>6.8</ele>
        <time>2022-04-17T11:56:50Z</time>
      </trkpt>
      <trkpt lat="50.03525" lon="1.95897">
        <ele>6.8</ele>
        <time>2022-04-17T11:56:51Z</time>
      </trkpt>
      <trkpt lat="50.03525" lon="1.95895">
        <ele>6.8</ele>
        <time>2022-04-17T11:56:53Z</time>
      </trkpt>
      <trkpt lat="50.03524" lon="1.95893">
        <ele>6.8</ele>
        <time>2022-04-17T11:56:54Z</time>
      </trkpt>
      <trkpt lat="50.03523" lon="1.95891">
        <ele>6.8</ele>
        <time>2022-04-17T11:56:55Z</time>
      </trkpt>
      <trkpt lat="50.03522" lon="1.9589">
        <ele>6.8</ele>
        <time>2022-04-17T11:56:56Z</time>
      </trkpt>
      <trkpt lat="50.03521" lon="1.95887">
        <ele>6.8</ele>
        <time>2022-04-17T11:56:57Z</time>
      </trkpt>
      <trkpt lat="50.03521" lon="1.95886">
        <ele>6.8</ele>
        <time>2022-04-17T11:56:58Z</time>
      </trkpt>
      <trkpt lat="50.0352" lon="1.95885">
        <ele>6.8</ele>
        <time>2022-04-17T11:56:59Z</time>
      </trkpt>
      <trkpt lat="50.0352" lon="1.95883">
        <ele>6.8</ele>
        <time>2022-04-17T11:57:00Z</time>
      </trkpt>
      <trkpt lat="50.03519" lon="1.95881">
        <ele>6.8</ele>
        <time>2022-04-17T11:57:01Z</time>
      </trkpt>
      <trkpt lat="50.03518" lon="1.9588">
        <ele>6.8</ele>
        <time>2022-04-17T11:57:03Z</time>
      </trkpt>
      <trkpt lat="50.03518" lon="1.95878">
        <ele>6.8</ele>
        <time>2022-04-17T11:57:04Z</time>
      </trkpt>
      <trkpt lat="50.03517" lon="1.95876">
        <ele>6.8</ele>
        <time>2022-04-17T11:57:05Z</time>
      </trkpt>
      <trkpt lat="50.03516" lon="1.95874">
        <ele>6.8</ele>
        <time>2022-04-17T11:57:06Z</time>
      </trkpt>
      <trkpt lat="50.03516" lon="1.95873">
        <ele>6.8</ele>
        <time>2022-04-17T11:57:07Z</time>
      </trkpt>
      <trkpt lat="50.03515" lon="1.95871">
        <ele>6.8</ele>
        <time>2022-04-17T11:57:08Z</time>
      </trkpt>
      <trkpt lat="50.03515" lon="1.95869">
        <ele>6.8</ele>
        <time>2022-04-17T11:57:09Z</time>
      </trkpt>
      <trkpt lat="50.03514" lon="1.95867">
        <ele>6.8</ele>
        <time>2022-04-17T11:57:10Z</time>
      </trkpt>
      <trkpt lat="50.03514" lon="1.95866">
        <ele>6.8</ele>
        <time>2022-04-17T11:57:12Z</time>
      </trkpt>
      <trkpt lat="50.03514" lon="1.95864">
        <ele>6.8</ele>
        <time>2022-04-17T11:57:13Z</time>
      </trkpt>
      <trkpt lat="50.03513" lon="1.95863">
        <ele>6.8</ele>
        <time>2022-04-17T11:57:14Z</time>
      </trkpt>
      <trkpt lat="50.03512" lon="1.9586">
        <ele>6.8</ele>
        <time>2022-04-17T11:57:15Z</time>
      </trkpt>
      <trkpt lat="50.03511" lon="1.95859">
        <ele>6.8</ele>
        <time>2022-04-17T11:57:16Z</time>
      </trkpt>
      <trkpt lat="50.0351" lon="1.95856">
        <ele>6.8</ele>
        <time>2022-04-17T11:57:17Z</time>
      </trkpt>
      <trkpt lat="50.03509" lon="1.95855">
        <ele>6.8</ele>
        <time>2022-04-17T11:57:19Z</time>
      </trkpt>
      <trkpt lat="50.03509" lon="1.95853">
        <ele>6.8</ele>
        <time>2022-04-17T11:57:20Z</time>
      </trkpt>
      <trkpt lat="50.03508" lon="1.95852">
        <ele>6.8</ele>
        <time>2022-04-17T11:57:21Z</time>
      </trkpt>
      <trkpt lat="50.03508" lon="1.9585">
        <ele>6.8</ele>
        <time>2022-04-17T11:57:22Z</time>
      </trkpt>
      <trkpt lat="50.03506" lon="1.95847">
        <ele>6.8</ele>
        <time>2022-04-17T11:57:23Z</time>
      </trkpt>
      <trkpt lat="50.03506" lon="1.95846">
        <ele>6.8</ele>
        <time>2022-04-17T11:57:24Z</time>
      </trkpt>
      <trkpt lat="50.03506" lon="1.95845">
        <ele>6.9</ele>
        <time>2022-04-17T11:57:25Z</time>
      </trkpt>
      <trkpt lat="50.03505" lon="1.95844">
        <ele>6.9</ele>
        <time>2022-04-17T11:57:26Z</time>
      </trkpt>
      <trkpt lat="50.03504" lon="1.95842">
        <ele>6.9</ele>
        <time>2022-04-17T11:57:28Z</time>
      </trkpt>
      <trkpt lat="50.03504" lon="1.95841">
        <ele>6.9</ele>
        <time>2022-04-17T11:57:29Z</time>
      </trkpt>
      <trkpt lat="50.03503" lon="1.95839">
        <ele>6.9</ele>
        <time>2022-04-17T11:57:30Z</time>
      </trkpt>
      <trkpt lat="50.03502" lon="1.95838">
        <ele>6.9</ele>
        <time>2022-04-17T11:57:31Z</time>
      </trkpt>
      <trkpt lat="50.03502" lon="1.95836">
        <ele>6.9</ele>
        <time>2022-04-17T11:57:32Z</time>
      </trkpt>
      <trkpt lat="50.03501" lon="1.95835">
        <ele>6.9</ele>
        <time>2022-04-17T11:57:33Z</time>
      </trkpt>
      <trkpt lat="50.035" lon="1.95834">
        <ele>6.9</ele>
        <time>2022-04-17T11:57:34Z</time>
      </trkpt>
      <trkpt lat="50.03499" lon="1.95832">
        <ele>6.9</ele>
        <time>2022-04-17T11:57:35Z</time>
      </trkpt>
      <trkpt lat="50.03498" lon="1.95832">
        <ele>6.9</ele>
        <time>2022-04-17T11:57:37Z</time>
      </trkpt>
      <trkpt lat="50.03498" lon="1.9583">
        <ele>6.9</ele>
        <time>2022-04-17T11:57:38Z</time>
      </trkpt>
      <trkpt lat="50.03497" lon="1.95829">
        <ele>6.9</ele>
        <time>2022-04-17T11:57:39Z</time>
      </trkpt>
      <trkpt lat="50.03496" lon="1.95825">
        <ele>6.9</ele>
        <time>2022-04-17T11:57:40Z</time>
      </trkpt>
      <trkpt lat="50.03495" lon="1.95825">
        <ele>6.9</ele>
        <time>2022-04-17T11:57:41Z</time>
      </trkpt>
      <trkpt lat="50.03495" lon="1.95824">
        <ele>6.9</ele>
        <time>2022-04-17T11:57:42Z</time>
      </trkpt>
      <trkpt lat="50.03494" lon="1.95822">
        <ele>6.9</ele>
        <time>2022-04-17T11:57:43Z</time>
      </trkpt>
      <trkpt lat="50.03494" lon="1.95821">
        <ele>6.9</ele>
        <time>2022-04-17T11:57:45Z</time>
      </trkpt>
      <trkpt lat="50.03493" lon="1.95819">
        <ele>6.9</ele>
        <time>2022-04-17T11:57:46Z</time>
      </trkpt>
      <trkpt lat="50.03493" lon="1.95817">
        <ele>6.9</ele>
        <time>2022-04-17T11:57:47Z</time>
      </trkpt>
      <trkpt lat="50.03492" lon="1.95816">
        <ele>6.9</ele>
        <time>2022-04-17T11:57:48Z</time>
      </trkpt>
      <trkpt lat="50.03492" lon="1.95814">
        <ele>6.9</ele>
        <time>2022-04-17T11:57:49Z</time>
      </trkpt>
      <trkpt lat="50.03491" lon="1.95811">
        <ele>6.9</ele>
        <time>2022-04-17T11:57:50Z</time>
      </trkpt>
      <trkpt lat="50.03491" lon="1.9581">
        <ele>6.9</ele>
        <time>2022-04-17T11:57:51Z</time>
      </trkpt>
      <trkpt lat="50.0349" lon="1.95807">
        <ele>6.9</ele>
        <time>2022-04-17T11:57:52Z</time>
      </trkpt>
      <trkpt lat="50.03489" lon="1.95806">
        <ele>6.9</ele>
        <time>2022-04-17T11:57:54Z</time>
      </trkpt>
      <trkpt lat="50.03489" lon="1.95804">
        <ele>6.9</ele>
        <time>2022-04-17T11:57:55Z</time>
      </trkpt>
      <trkpt lat="50.03489" lon="1.95803">
        <ele>6.9</ele>
        <time>2022-04-17T11:57:56Z</time>
      </trkpt>
      <trkpt lat="50.03488" lon="1.95801">
        <ele>7</ele>
        <time>2022-04-17T11:57:57Z</time>
      </trkpt>
      <trkpt lat="50.03488" lon="1.95799">
        <ele>7</ele>
        <time>2022-04-17T11:57:59Z</time>
      </trkpt>
      <trkpt lat="50.03487" lon="1.95797">
        <ele>7</ele>
        <time>2022-04-17T11:58:00Z</time>
      </trkpt>
      <trkpt lat="50.03486" lon="1.95794">
        <ele>7</ele>
        <time>2022-04-17T11:58:01Z</time>
      </trkpt>
      <trkpt lat="50.03486" lon="1.95793">
        <ele>7</ele>
        <time>2022-04-17T11:58:02Z</time>
      </trkpt>
      <trkpt lat="50.03486" lon="1.95791">
        <ele>7</ele>
        <time>2022-04-17T11:58:04Z</time>
      </trkpt>
      <trkpt lat="50.03486" lon="1.95789">
        <ele>7</ele>
        <time>2022-04-17T11:58:05Z</time>
      </trkpt>
      <trkpt lat="50.03485" lon="1.95787">
        <ele>7</ele>
        <time>2022-04-17T11:58:06Z</time>
      </trkpt>
      <trkpt lat="50.03485" lon="1.95785">
        <ele>7</ele>
        <time>2022-04-17T11:58:07Z</time>
      </trkpt>
      <trkpt lat="50.03483" lon="1.95782">
        <ele>7</ele>
        <time>2022-04-17T11:58:08Z</time>
      </trkpt>
      <trkpt lat="50.03483" lon="1.95781">
        <ele>7</ele>
        <time>2022-04-17T11:58:09Z</time>
      </trkpt>
      <trkpt lat="50.03483" lon="1.9578">
        <ele>7</ele>
        <time>2022-04-17T11:58:10Z</time>
      </trkpt>
      <trkpt lat="50.03482" lon="1.95779">
        <ele>7</ele>
        <time>2022-04-17T11:58:11Z</time>
      </trkpt>
      <trkpt lat="50.03481" lon="1.95778">
        <ele>7</ele>
        <time>2022-04-17T11:58:13Z</time>
      </trkpt>
      <trkpt lat="50.03481" lon="1.95776">
        <ele>7</ele>
        <time>2022-04-17T11:58:14Z</time>
      </trkpt>
      <trkpt lat="50.0348" lon="1.95773">
        <ele>7</ele>
        <time>2022-04-17T11:58:15Z</time>
      </trkpt>
      <trkpt lat="50.03479" lon="1.95771">
        <ele>7</ele>
        <time>2022-04-17T11:58:17Z</time>
      </trkpt>
      <trkpt lat="50.03478" lon="1.95768">
        <ele>7</ele>
        <time>2022-04-17T11:58:18Z</time>
      </trkpt>
      <trkpt lat="50.03477" lon="1.95767">
        <ele>7</ele>
        <time>2022-04-17T11:58:19Z</time>
      </trkpt>
      <trkpt lat="50.03477" lon="1.95765">
        <ele>7</ele>
        <time>2022-04-17T11:58:20Z</time>
      </trkpt>
      <trkpt lat="50.03476" lon="1.95764">
        <ele>7</ele>
        <time>2022-04-17T11:58:21Z</time>
      </trkpt>
      <trkpt lat="50.03476" lon="1.95763">
        <ele>6.9</ele>
        <time>2022-04-17T11:58:23Z</time>
      </trkpt>
      <trkpt lat="50.03475" lon="1.95762">
        <ele>6.9</ele>
        <time>2022-04-17T11:58:24Z</time>
      </trkpt>
      <trkpt lat="50.03474" lon="1.9576">
        <ele>6.9</ele>
        <time>2022-04-17T11:58:25Z</time>
      </trkpt>
      <trkpt lat="50.03473" lon="1.95759">
        <ele>6.9</ele>
        <time>2022-04-17T11:58:26Z</time>
      </trkpt>
      <trkpt lat="50.03473" lon="1.95757">
        <ele>6.9</ele>
        <time>2022-04-17T11:58:27Z</time>
      </trkpt>
      <trkpt lat="50.03472" lon="1.95756">
        <ele>6.9</ele>
        <time>2022-04-17T11:58:28Z</time>
      </trkpt>
      <trkpt lat="50.03471" lon="1.95754">
        <ele>6.9</ele>
        <time>2022-04-17T11:58:29Z</time>
      </trkpt>
      <trkpt lat="50.0347" lon="1.95751">
        <ele>6.9</ele>
        <time>2022-04-17T11:58:30Z</time>
      </trkpt>
      <trkpt lat="50.0347" lon="1.9575">
        <ele>6.9</ele>
        <time>2022-04-17T11:58:31Z</time>
      </trkpt>
      <trkpt lat="50.03469" lon="1.95749">
        <ele>6.9</ele>
        <time>2022-04-17T11:58:32Z</time>
      </trkpt>
      <trkpt lat="50.03469" lon="1.95748">
        <ele>6.9</ele>
        <time>2022-04-17T11:58:33Z</time>
      </trkpt>
      <trkpt lat="50.03468" lon="1.95746">
        <ele>6.9</ele>
        <time>2022-04-17T11:58:35Z</time>
      </trkpt>
      <trkpt lat="50.03467" lon="1.95743">
        <ele>6.9</ele>
        <time>2022-04-17T11:58:36Z</time>
      </trkpt>
      <trkpt lat="50.03467" lon="1.95741">
        <ele>6.9</ele>
        <time>2022-04-17T11:58:37Z</time>
      </trkpt>
      <trkpt lat="50.03466" lon="1.95739">
        <ele>6.9</ele>
        <time>2022-04-17T11:58:38Z</time>
      </trkpt>
      <trkpt lat="50.03465" lon="1.95737">
        <ele>6.9</ele>
        <time>2022-04-17T11:58:39Z</time>
      </trkpt>
      <trkpt lat="50.03465" lon="1.95735">
        <ele>6.9</ele>
        <time>2022-04-17T11:58:40Z</time>
      </trkpt>
      <trkpt lat="50.03464" lon="1.95733">
        <ele>6.9</ele>
        <time>2022-04-17T11:58:41Z</time>
      </trkpt>
      <trkpt lat="50.03464" lon="1.95732">
        <ele>6.9</ele>
        <time>2022-04-17T11:58:42Z</time>
      </trkpt>
      <trkpt lat="50.03463" lon="1.9573">
        <ele>6.9</ele>
        <time>2022-04-17T11:58:43Z</time>
      </trkpt>
      <trkpt lat="50.03462" lon="1.95728">
        <ele>6.9</ele>
        <time>2022-04-17T11:58:45Z</time>
      </trkpt>
      <trkpt lat="50.03462" lon="1.95726">
        <ele>6.9</ele>
        <time>2022-04-17T11:58:46Z</time>
      </trkpt>
      <trkpt lat="50.03461" lon="1.95724">
        <ele>6.9</ele>
        <time>2022-04-17T11:58:47Z</time>
      </trkpt>
      <trkpt lat="50.0346" lon="1.95721">
        <ele>6.9</ele>
        <time>2022-04-17T11:58:48Z</time>
      </trkpt>
      <trkpt lat="50.0346" lon="1.95719">
        <ele>6.9</ele>
        <time>2022-04-17T11:58:49Z</time>
      </trkpt>
      <trkpt lat="50.03459" lon="1.95718">
        <ele>6.9</ele>
        <time>2022-04-17T11:58:50Z</time>
      </trkpt>
      <trkpt lat="50.03459" lon="1.95716">
        <ele>6.9</ele>
        <time>2022-04-17T11:58:51Z</time>
      </trkpt>
      <trkpt lat="50.03458" lon="1.95715">
        <ele>6.9</ele>
        <time>2022-04-17T11:58:52Z</time>
      </trkpt>
      <trkpt lat="50.03458" lon="1.95714">
        <ele>6.9</ele>
        <time>2022-04-17T11:58:53Z</time>
      </trkpt>
      <trkpt lat="50.03457" lon="1.95712">
        <ele>6.9</ele>
        <time>2022-04-17T11:58:55Z</time>
      </trkpt>
      <trkpt lat="50.03456" lon="1.9571">
        <ele>6.9</ele>
        <time>2022-04-17T11:58:56Z</time>
      </trkpt>
      <trkpt lat="50.03455" lon="1.95707">
        <ele>6.9</ele>
        <time>2022-04-17T11:58:57Z</time>
      </trkpt>
      <trkpt lat="50.03455" lon="1.95706">
        <ele>6.9</ele>
        <time>2022-04-17T11:58:58Z</time>
      </trkpt>
      <trkpt lat="50.03454" lon="1.95705">
        <ele>6.9</ele>
        <time>2022-04-17T11:58:59Z</time>
      </trkpt>
      <trkpt lat="50.03453" lon="1.95703">
        <ele>6.9</ele>
        <time>2022-04-17T11:59:00Z</time>
      </trkpt>
      <trkpt lat="50.03453" lon="1.95702">
        <ele>6.9</ele>
        <time>2022-04-17T11:59:01Z</time>
      </trkpt>
      <trkpt lat="50.03453" lon="1.957">
        <ele>6.9</ele>
        <time>2022-04-17T11:59:02Z</time>
      </trkpt>
      <trkpt lat="50.03451" lon="1.95698">
        <ele>6.9</ele>
        <time>2022-04-17T11:59:04Z</time>
      </trkpt>
      <trkpt lat="50.03451" lon="1.95696">
        <ele>6.9</ele>
        <time>2022-04-17T11:59:05Z</time>
      </trkpt>
      <trkpt lat="50.0345" lon="1.95695">
        <ele>6.9</ele>
        <time>2022-04-17T11:59:06Z</time>
      </trkpt>
      <trkpt lat="50.0345" lon="1.95694">
        <ele>6.9</ele>
        <time>2022-04-17T11:59:07Z</time>
      </trkpt>
      <trkpt lat="50.03449" lon="1.95692">
        <ele>6.9</ele>
        <time>2022-04-17T11:59:08Z</time>
      </trkpt>
      <trkpt lat="50.03449" lon="1.95691">
        <ele>6.9</ele>
        <time>2022-04-17T11:59:09Z</time>
      </trkpt>
      <trkpt lat="50.03448" lon="1.95688">
        <ele>6.9</ele>
        <time>2022-04-17T11:59:10Z</time>
      </trkpt>
      <trkpt lat="50.03448" lon="1.95687">
        <ele>6.9</ele>
        <time>2022-04-17T11:59:11Z</time>
      </trkpt>
      <trkpt lat="50.03447" lon="1.95686">
        <ele>6.9</ele>
        <time>2022-04-17T11:59:12Z</time>
      </trkpt>
      <trkpt lat="50.03446" lon="1.95683">
        <ele>6.9</ele>
        <time>2022-04-17T11:59:14Z</time>
      </trkpt>
      <trkpt lat="50.03446" lon="1.95682">
        <ele>6.9</ele>
        <time>2022-04-17T11:59:15Z</time>
      </trkpt>
      <trkpt lat="50.03445" lon="1.95681">
        <ele>6.9</ele>
        <time>2022-04-17T11:59:16Z</time>
      </trkpt>
      <trkpt lat="50.03444" lon="1.95678">
        <ele>6.9</ele>
        <time>2022-04-17T11:59:17Z</time>
      </trkpt>
      <trkpt lat="50.03444" lon="1.95677">
        <ele>6.9</ele>
        <time>2022-04-17T11:59:18Z</time>
      </trkpt>
      <trkpt lat="50.03443" lon="1.95676">
        <ele>6.9</ele>
        <time>2022-04-17T11:59:19Z</time>
      </trkpt>
      <trkpt lat="50.03442" lon="1.95672">
        <ele>6.9</ele>
        <time>2022-04-17T11:59:20Z</time>
      </trkpt>
      <trkpt lat="50.03442" lon="1.95671">
        <ele>6.9</ele>
        <time>2022-04-17T11:59:21Z</time>
      </trkpt>
      <trkpt lat="50.03442" lon="1.9567">
        <ele>6.9</ele>
        <time>2022-04-17T11:59:22Z</time>
      </trkpt>
      <trkpt lat="50.03441" lon="1.95668">
        <ele>6.9</ele>
        <time>2022-04-17T11:59:23Z</time>
      </trkpt>
      <trkpt lat="50.0344" lon="1.95666">
        <ele>6.9</ele>
        <time>2022-04-17T11:59:25Z</time>
      </trkpt>
      <trkpt lat="50.0344" lon="1.95665">
        <ele>6.9</ele>
        <time>2022-04-17T11:59:26Z</time>
      </trkpt>
      <trkpt lat="50.0344" lon="1.95664">
        <ele>6.9</ele>
        <time>2022-04-17T11:59:27Z</time>
      </trkpt>
      <trkpt lat="50.03439" lon="1.95662">
        <ele>6.9</ele>
        <time>2022-04-17T11:59:28Z</time>
      </trkpt>
      <trkpt lat="50.03439" lon="1.9566">
        <ele>6.9</ele>
        <time>2022-04-17T11:59:29Z</time>
      </trkpt>
      <trkpt lat="50.03438" lon="1.95657">
        <ele>6.9</ele>
        <time>2022-04-17T11:59:30Z</time>
      </trkpt>
      <trkpt lat="50.03437" lon="1.95655">
        <ele>6.9</ele>
        <time>2022-04-17T11:59:31Z</time>
      </trkpt>
      <trkpt lat="50.03437" lon="1.95654">
        <ele>6.9</ele>
        <time>2022-04-17T11:59:32Z</time>
      </trkpt>
      <trkpt lat="50.03437" lon="1.95653">
        <ele>6.9</ele>
        <time>2022-04-17T11:59:34Z</time>
      </trkpt>
      <trkpt lat="50.03436" lon="1.95652">
        <ele>6.9</ele>
        <time>2022-04-17T11:59:35Z</time>
      </trkpt>
      <trkpt lat="50.03436" lon="1.9565">
        <ele>6.9</ele>
        <time>2022-04-17T11:59:36Z</time>
      </trkpt>
      <trkpt lat="50.03435" lon="1.95647">
        <ele>6.9</ele>
        <time>2022-04-17T11:59:37Z</time>
      </trkpt>
      <trkpt lat="50.03435" lon="1.95646">
        <ele>6.9</ele>
        <time>2022-04-17T11:59:38Z</time>
      </trkpt>
      <trkpt lat="50.03434" lon="1.95645">
        <ele>7</ele>
        <time>2022-04-17T11:59:39Z</time>
      </trkpt>
      <trkpt lat="50.03434" lon="1.95643">
        <ele>7</ele>
        <time>2022-04-17T11:59:40Z</time>
      </trkpt>
      <trkpt lat="50.03433" lon="1.95642">
        <ele>7</ele>
        <time>2022-04-17T11:59:41Z</time>
      </trkpt>
      <trkpt lat="50.03433" lon="1.9564">
        <ele>7</ele>
        <time>2022-04-17T11:59:42Z</time>
      </trkpt>
      <trkpt lat="50.03432" lon="1.95639">
        <ele>7</ele>
        <time>2022-04-17T11:59:43Z</time>
      </trkpt>
      <trkpt lat="50.03432" lon="1.95637">
        <ele>7</ele>
        <time>2022-04-17T11:59:44Z</time>
      </trkpt>
      <trkpt lat="50.03431" lon="1.95635">
        <ele>7</ele>
        <time>2022-04-17T11:59:46Z</time>
      </trkpt>
      <trkpt lat="50.03431" lon="1.95632">
        <ele>7</ele>
        <time>2022-04-17T11:59:47Z</time>
      </trkpt>
      <trkpt lat="50.0343" lon="1.95629">
        <ele>7</ele>
        <time>2022-04-17T11:59:48Z</time>
      </trkpt>
      <trkpt lat="50.0343" lon="1.95628">
        <ele>7</ele>
        <time>2022-04-17T11:59:49Z</time>
      </trkpt>
      <trkpt lat="50.03429" lon="1.95626">
        <ele>7</ele>
        <time>2022-04-17T11:59:50Z</time>
      </trkpt>
      <trkpt lat="50.03429" lon="1.95625">
        <ele>7</ele>
        <time>2022-04-17T11:59:51Z</time>
      </trkpt>
      <trkpt lat="50.03428" lon="1.95623">
        <ele>7</ele>
        <time>2022-04-17T11:59:52Z</time>
      </trkpt>
      <trkpt lat="50.03428" lon="1.95621">
        <ele>7</ele>
        <time>2022-04-17T11:59:54Z</time>
      </trkpt>
      <trkpt lat="50.03427" lon="1.9562">
        <ele>7</ele>
        <time>2022-04-17T11:59:55Z</time>
      </trkpt>
      <trkpt lat="50.03427" lon="1.95618">
        <ele>7</ele>
        <time>2022-04-17T11:59:56Z</time>
      </trkpt>
      <trkpt lat="50.03426" lon="1.95615">
        <ele>7</ele>
        <time>2022-04-17T11:59:57Z</time>
      </trkpt>
      <trkpt lat="50.03425" lon="1.95614">
        <ele>7</ele>
        <time>2022-04-17T11:59:58Z</time>
      </trkpt>
      <trkpt lat="50.03424" lon="1.95611">
        <ele>7</ele>
        <time>2022-04-17T11:59:59Z</time>
      </trkpt>
      <trkpt lat="50.03423" lon="1.9561">
        <ele>7</ele>
        <time>2022-04-17T12:00:00Z</time>
      </trkpt>
      <trkpt lat="50.03423" lon="1.95609">
        <ele>7</ele>
        <time>2022-04-17T12:00:01Z</time>
      </trkpt>
      <trkpt lat="50.03422" lon="1.95608">
        <ele>7</ele>
        <time>2022-04-17T12:00:03Z</time>
      </trkpt>
      <trkpt lat="50.03422" lon="1.95607">
        <ele>7</ele>
        <time>2022-04-17T12:00:04Z</time>
      </trkpt>
      <trkpt lat="50.03421" lon="1.95605">
        <ele>7</ele>
        <time>2022-04-17T12:00:05Z</time>
      </trkpt>
      <trkpt lat="50.0342" lon="1.95603">
        <ele>7</ele>
        <time>2022-04-17T12:00:06Z</time>
      </trkpt>
      <trkpt lat="50.0342" lon="1.95602">
        <ele>7</ele>
        <time>2022-04-17T12:00:07Z</time>
      </trkpt>
      <trkpt lat="50.0342" lon="1.95602">
        <ele>7</ele>
        <time>2022-04-17T12:00:08Z</time>
      </trkpt>
      <trkpt lat="50.0342" lon="1.95602">
        <ele>7</ele>
        <time>2022-04-17T12:00:09Z</time>
      </trkpt>
      <trkpt lat="50.0342" lon="1.95601">
        <ele>7</ele>
        <time>2022-04-17T12:00:10Z</time>
      </trkpt>
      <trkpt lat="50.0342" lon="1.956">
        <ele>7</ele>
        <time>2022-04-17T12:00:11Z</time>
      </trkpt>
      <trkpt lat="50.0342" lon="1.95599">
        <ele>7.1</ele>
        <time>2022-04-17T12:00:13Z</time>
      </trkpt>
      <trkpt lat="50.03419" lon="1.95598">
        <ele>7.1</ele>
        <time>2022-04-17T12:00:14Z</time>
      </trkpt>
      <trkpt lat="50.03419" lon="1.95597">
        <ele>7.1</ele>
        <time>2022-04-17T12:00:15Z</time>
      </trkpt>
      <trkpt lat="50.03419" lon="1.95595">
        <ele>7.1</ele>
        <time>2022-04-17T12:00:16Z</time>
      </trkpt>
      <trkpt lat="50.03418" lon="1.95594">
        <ele>7.1</ele>
        <time>2022-04-17T12:00:17Z</time>
      </trkpt>
      <trkpt lat="50.03418" lon="1.95593">
        <ele>7.1</ele>
        <time>2022-04-17T12:00:19Z</time>
      </trkpt>
      <trkpt lat="50.03418" lon="1.95591">
        <ele>7.1</ele>
        <time>2022-04-17T12:00:20Z</time>
      </trkpt>
      <trkpt lat="50.03417" lon="1.9559">
        <ele>7.1</ele>
        <time>2022-04-17T12:00:21Z</time>
      </trkpt>
      <trkpt lat="50.03417" lon="1.95588">
        <ele>7.1</ele>
        <time>2022-04-17T12:00:22Z</time>
      </trkpt>
      <trkpt lat="50.03417" lon="1.95587">
        <ele>7.1</ele>
        <time>2022-04-17T12:00:23Z</time>
      </trkpt>
      <trkpt lat="50.03416" lon="1.95586">
        <ele>7.1</ele>
        <time>2022-04-17T12:00:24Z</time>
      </trkpt>
      <trkpt lat="50.03416" lon="1.95585">
        <ele>7.1</ele>
        <time>2022-04-17T12:00:25Z</time>
      </trkpt>
      <trkpt lat="50.03415" lon="1.95583">
        <ele>7.1</ele>
        <time>2022-04-17T12:00:26Z</time>
      </trkpt>
      <trkpt lat="50.03415" lon="1.95582">
        <ele>7.1</ele>
        <time>2022-04-17T12:00:27Z</time>
      </trkpt>
      <trkpt lat="50.03414" lon="1.95581">
        <ele>7.1</ele>
        <time>2022-04-17T12:00:28Z</time>
      </trkpt>
      <trkpt lat="50.03414" lon="1.9558">
        <ele>7.1</ele>
        <time>2022-04-17T12:00:29Z</time>
      </trkpt>
      <trkpt lat="50.03413" lon="1.95578">
        <ele>7.1</ele>
        <time>2022-04-17T12:00:31Z</time>
      </trkpt>
      <trkpt lat="50.03412" lon="1.95576">
        <ele>7.2</ele>
        <time>2022-04-17T12:00:32Z</time>
      </trkpt>
      <trkpt lat="50.03412" lon="1.95575">
        <ele>7.2</ele>
        <time>2022-04-17T12:00:33Z</time>
      </trkpt>
      <trkpt lat="50.03412" lon="1.95574">
        <ele>7.2</ele>
        <time>2022-04-17T12:00:34Z</time>
      </trkpt>
      <trkpt lat="50.03411" lon="1.95572">
        <ele>7.2</ele>
        <time>2022-04-17T12:00:35Z</time>
      </trkpt>
      <trkpt lat="50.03411" lon="1.95569">
        <ele>7.2</ele>
        <time>2022-04-17T12:00:37Z</time>
      </trkpt>
      <trkpt lat="50.0341" lon="1.95567">
        <ele>7.2</ele>
        <time>2022-04-17T12:00:38Z</time>
      </trkpt>
      <trkpt lat="50.03411" lon="1.95566">
        <ele>7.2</ele>
        <time>2022-04-17T12:00:39Z</time>
      </trkpt>
      <trkpt lat="50.03411" lon="1.95564">
        <ele>7.2</ele>
        <time>2022-04-17T12:00:40Z</time>
      </trkpt>
      <trkpt lat="50.03411" lon="1.95562">
        <ele>7.2</ele>
        <time>2022-04-17T12:00:41Z</time>
      </trkpt>
      <trkpt lat="50.0341" lon="1.9556">
        <ele>7.2</ele>
        <time>2022-04-17T12:00:42Z</time>
      </trkpt>
      <trkpt lat="50.0341" lon="1.95557">
        <ele>7.2</ele>
        <time>2022-04-17T12:00:44Z</time>
      </trkpt>
      <trkpt lat="50.0341" lon="1.95556">
        <ele>7.2</ele>
        <time>2022-04-17T12:00:45Z</time>
      </trkpt>
      <trkpt lat="50.0341" lon="1.95554">
        <ele>7.2</ele>
        <time>2022-04-17T12:00:46Z</time>
      </trkpt>
      <trkpt lat="50.0341" lon="1.95552">
        <ele>7.2</ele>
        <time>2022-04-17T12:00:48Z</time>
      </trkpt>
      <trkpt lat="50.0341" lon="1.95549">
        <ele>7.3</ele>
        <time>2022-04-17T12:00:49Z</time>
      </trkpt>
      <trkpt lat="50.0341" lon="1.95547">
        <ele>7.3</ele>
        <time>2022-04-17T12:00:50Z</time>
      </trkpt>
      <trkpt lat="50.0341" lon="1.95546">
        <ele>7.3</ele>
        <time>2022-04-17T12:00:51Z</time>
      </trkpt>
      <trkpt lat="50.0341" lon="1.95544">
        <ele>7.3</ele>
        <time>2022-04-17T12:00:52Z</time>
      </trkpt>
      <trkpt lat="50.03409" lon="1.95542">
        <ele>7.3</ele>
        <time>2022-04-17T12:00:53Z</time>
      </trkpt>
      <trkpt lat="50.03409" lon="1.95541">
        <ele>7.3</ele>
        <time>2022-04-17T12:00:54Z</time>
      </trkpt>
      <trkpt lat="50.03408" lon="1.95539">
        <ele>7.3</ele>
        <time>2022-04-17T12:00:56Z</time>
      </trkpt>
      <trkpt lat="50.03408" lon="1.95536">
        <ele>7.3</ele>
        <time>2022-04-17T12:00:57Z</time>
      </trkpt>
      <trkpt lat="50.03406" lon="1.95534">
        <ele>7.3</ele>
        <time>2022-04-17T12:00:59Z</time>
      </trkpt>
      <trkpt lat="50.03406" lon="1.95532">
        <ele>7.3</ele>
        <time>2022-04-17T12:01:00Z</time>
      </trkpt>
      <trkpt lat="50.03405" lon="1.95531">
        <ele>7.3</ele>
        <time>2022-04-17T12:01:01Z</time>
      </trkpt>
      <trkpt lat="50.03403" lon="1.95528">
        <ele>7.3</ele>
        <time>2022-04-17T12:01:02Z</time>
      </trkpt>
      <trkpt lat="50.03403" lon="1.95527">
        <ele>7.3</ele>
        <time>2022-04-17T12:01:04Z</time>
      </trkpt>
      <trkpt lat="50.03402" lon="1.95526">
        <ele>7.3</ele>
        <time>2022-04-17T12:01:05Z</time>
      </trkpt>
      <trkpt lat="50.03401" lon="1.95525">
        <ele>7.3</ele>
        <time>2022-04-17T12:01:06Z</time>
      </trkpt>
      <trkpt lat="50.034" lon="1.95524">
        <ele>7.2</ele>
        <time>2022-04-17T12:01:07Z</time>
      </trkpt>
      <trkpt lat="50.034" lon="1.95522">
        <ele>7.2</ele>
        <time>2022-04-17T12:01:08Z</time>
      </trkpt>
      <trkpt lat="50.03399" lon="1.95521">
        <ele>7.2</ele>
        <time>2022-04-17T12:01:09Z</time>
      </trkpt>
      <trkpt lat="50.03399" lon="1.9552">
        <ele>7.2</ele>
        <time>2022-04-17T12:01:10Z</time>
      </trkpt>
      <trkpt lat="50.03398" lon="1.95518">
        <ele>7.2</ele>
        <time>2022-04-17T12:01:12Z</time>
      </trkpt>
      <trkpt lat="50.03398" lon="1.95516">
        <ele>7.2</ele>
        <time>2022-04-17T12:01:13Z</time>
      </trkpt>
      <trkpt lat="50.03397" lon="1.95514">
        <ele>7.2</ele>
        <time>2022-04-17T12:01:14Z</time>
      </trkpt>
      <trkpt lat="50.03397" lon="1.95513">
        <ele>7.2</ele>
        <time>2022-04-17T12:01:15Z</time>
      </trkpt>
      <trkpt lat="50.03396" lon="1.95511">
        <ele>7.2</ele>
        <time>2022-04-17T12:01:16Z</time>
      </trkpt>
      <trkpt lat="50.03395" lon="1.95509">
        <ele>7.2</ele>
        <time>2022-04-17T12:01:17Z</time>
      </trkpt>
      <trkpt lat="50.03395" lon="1.95508">
        <ele>7.2</ele>
        <time>2022-04-17T12:01:18Z</time>
      </trkpt>
      <trkpt lat="50.03394" lon="1.95506">
        <ele>7.2</ele>
        <time>2022-04-17T12:01:20Z</time>
      </trkpt>
      <trkpt lat="50.03393" lon="1.95504">
        <ele>7.2</ele>
        <time>2022-04-17T12:01:21Z</time>
      </trkpt>
      <trkpt lat="50.03393" lon="1.95502">
        <ele>7.2</ele>
        <time>2022-04-17T12:01:22Z</time>
      </trkpt>
      <trkpt lat="50.03392" lon="1.95501">
        <ele>7.2</ele>
        <time>2022-04-17T12:01:23Z</time>
      </trkpt>
      <trkpt lat="50.03391" lon="1.955">
        <ele>7.2</ele>
        <time>2022-04-17T12:01:24Z</time>
      </trkpt>
      <trkpt lat="50.03391" lon="1.95498">
        <ele>7.2</ele>
        <time>2022-04-17T12:01:25Z</time>
      </trkpt>
      <trkpt lat="50.0339" lon="1.95497">
        <ele>7.2</ele>
        <time>2022-04-17T12:01:27Z</time>
      </trkpt>
      <trkpt lat="50.03389" lon="1.95495">
        <ele>7.2</ele>
        <time>2022-04-17T12:01:28Z</time>
      </trkpt>
      <trkpt lat="50.03389" lon="1.95491">
        <ele>7.2</ele>
        <time>2022-04-17T12:01:29Z</time>
      </trkpt>
      <trkpt lat="50.03388" lon="1.9549">
        <ele>7.2</ele>
        <time>2022-04-17T12:01:30Z</time>
      </trkpt>
      <trkpt lat="50.03388" lon="1.95489">
        <ele>7.2</ele>
        <time>2022-04-17T12:01:31Z</time>
      </trkpt>
      <trkpt lat="50.03388" lon="1.95486">
        <ele>7.2</ele>
        <time>2022-04-17T12:01:32Z</time>
      </trkpt>
      <trkpt lat="50.03387" lon="1.95484">
        <ele>7.2</ele>
        <time>2022-04-17T12:01:33Z</time>
      </trkpt>
      <trkpt lat="50.03386" lon="1.95481">
        <ele>7.2</ele>
        <time>2022-04-17T12:01:34Z</time>
      </trkpt>
      <trkpt lat="50.03386" lon="1.9548">
        <ele>7.2</ele>
        <time>2022-04-17T12:01:36Z</time>
      </trkpt>
      <trkpt lat="50.03386" lon="1.95479">
        <ele>7.2</ele>
        <time>2022-04-17T12:01:37Z</time>
      </trkpt>
      <trkpt lat="50.03385" lon="1.95476">
        <ele>7.2</ele>
        <time>2022-04-17T12:01:38Z</time>
      </trkpt>
      <trkpt lat="50.03385" lon="1.95475">
        <ele>7.2</ele>
        <time>2022-04-17T12:01:39Z</time>
      </trkpt>
      <trkpt lat="50.03384" lon="1.95473">
        <ele>7.2</ele>
        <time>2022-04-17T12:01:40Z</time>
      </trkpt>
      <trkpt lat="50.03384" lon="1.9547">
        <ele>7.2</ele>
        <time>2022-04-17T12:01:41Z</time>
      </trkpt>
      <trkpt lat="50.03384" lon="1.95467">
        <ele>7.3</ele>
        <time>2022-04-17T12:01:42Z</time>
      </trkpt>
      <trkpt lat="50.03384" lon="1.95466">
        <ele>7.3</ele>
        <time>2022-04-17T12:01:43Z</time>
      </trkpt>
      <trkpt lat="50.03384" lon="1.95463">
        <ele>7.3</ele>
        <time>2022-04-17T12:01:45Z</time>
      </trkpt>
      <trkpt lat="50.03384" lon="1.95461">
        <ele>7.3</ele>
        <time>2022-04-17T12:01:46Z</time>
      </trkpt>
      <trkpt lat="50.03384" lon="1.9546">
        <ele>7.3</ele>
        <time>2022-04-17T12:01:47Z</time>
      </trkpt>
      <trkpt lat="50.03384" lon="1.95458">
        <ele>7.3</ele>
        <time>2022-04-17T12:01:48Z</time>
      </trkpt>
      <trkpt lat="50.03384" lon="1.95456">
        <ele>7.3</ele>
        <time>2022-04-17T12:01:49Z</time>
      </trkpt>
      <trkpt lat="50.03384" lon="1.95453">
        <ele>7.3</ele>
        <time>2022-04-17T12:01:50Z</time>
      </trkpt>
      <trkpt lat="50.03384" lon="1.9545">
        <ele>7.3</ele>
        <time>2022-04-17T12:01:52Z</time>
      </trkpt>
      <trkpt lat="50.03384" lon="1.95446">
        <ele>7.3</ele>
        <time>2022-04-17T12:01:53Z</time>
      </trkpt>
      <trkpt lat="50.03385" lon="1.95445">
        <ele>7.3</ele>
        <time>2022-04-17T12:01:55Z</time>
      </trkpt>
      <trkpt lat="50.03385" lon="1.95444">
        <ele>7.3</ele>
        <time>2022-04-17T12:01:56Z</time>
      </trkpt>
      <trkpt lat="50.03384" lon="1.9544">
        <ele>7.3</ele>
        <time>2022-04-17T12:01:57Z</time>
      </trkpt>
      <trkpt lat="50.03384" lon="1.95439">
        <ele>7.3</ele>
        <time>2022-04-17T12:01:58Z</time>
      </trkpt>
      <trkpt lat="50.03384" lon="1.95438">
        <ele>7.3</ele>
        <time>2022-04-17T12:01:59Z</time>
      </trkpt>
      <trkpt lat="50.03383" lon="1.95437">
        <ele>7.3</ele>
        <time>2022-04-17T12:02:00Z</time>
      </trkpt>
      <trkpt lat="50.03383" lon="1.95434">
        <ele>7.3</ele>
        <time>2022-04-17T12:02:02Z</time>
      </trkpt>
      <trkpt lat="50.03383" lon="1.95433">
        <ele>7.3</ele>
        <time>2022-04-17T12:02:03Z</time>
      </trkpt>
      <trkpt lat="50.03382" lon="1.95432">
        <ele>7.3</ele>
        <time>2022-04-17T12:02:04Z</time>
      </trkpt>
      <trkpt lat="50.03382" lon="1.9543">
        <ele>7.3</ele>
        <time>2022-04-17T12:02:06Z</time>
      </trkpt>
      <trkpt lat="50.03382" lon="1.95427">
        <ele>7.3</ele>
        <time>2022-04-17T12:02:07Z</time>
      </trkpt>
      <trkpt lat="50.03382" lon="1.95426">
        <ele>7.3</ele>
        <time>2022-04-17T12:02:08Z</time>
      </trkpt>
      <trkpt lat="50.03382" lon="1.95425">
        <ele>7.3</ele>
        <time>2022-04-17T12:02:09Z</time>
      </trkpt>
      <trkpt lat="50.03383" lon="1.95423">
        <ele>7.3</ele>
        <time>2022-04-17T12:02:11Z</time>
      </trkpt>
      <trkpt lat="50.03383" lon="1.95423">
        <ele>7.3</ele>
        <time>2022-04-17T12:02:12Z</time>
      </trkpt>
      <trkpt lat="50.03384" lon="1.95422">
        <ele>7.3</ele>
        <time>2022-04-17T12:02:13Z</time>
      </trkpt>
      <trkpt lat="50.03384" lon="1.95423">
        <ele>7.3</ele>
        <time>2022-04-17T12:02:14Z</time>
      </trkpt>
      <trkpt lat="50.03384" lon="1.95423">
        <ele>7.3</ele>
        <time>2022-04-17T12:02:15Z</time>
      </trkpt>
      <trkpt lat="50.03385" lon="1.95423">
        <ele>7.3</ele>
        <time>2022-04-17T12:02:16Z</time>
      </trkpt>
      <trkpt lat="50.03385" lon="1.95424">
        <ele>7.3</ele>
        <time>2022-04-17T12:02:18Z</time>
      </trkpt>
      <trkpt lat="50.03386" lon="1.95424">
        <ele>7.3</ele>
        <time>2022-04-17T12:02:19Z</time>
      </trkpt>
      <trkpt lat="50.03386" lon="1.95425">
        <ele>7.3</ele>
        <time>2022-04-17T12:02:20Z</time>
      </trkpt>
      <trkpt lat="50.03386" lon="1.95425">
        <ele>7.3</ele>
        <time>2022-04-17T12:02:21Z</time>
      </trkpt>
      <trkpt lat="50.03386" lon="1.95425">
        <ele>7.3</ele>
        <time>2022-04-17T12:02:23Z</time>
      </trkpt>
      <trkpt lat="50.03386" lon="1.95426">
        <ele>7.3</ele>
        <time>2022-04-17T12:02:24Z</time>
      </trkpt>
      <trkpt lat="50.03386" lon="1.95426">
        <ele>7.3</ele>
        <time>2022-04-17T12:02:25Z</time>
      </trkpt>
      <trkpt lat="50.03386" lon="1.95426">
        <ele>7.3</ele>
        <time>2022-04-17T12:02:26Z</time>
      </trkpt>
      <trkpt lat="50.03386" lon="1.95426">
        <ele>7.3</ele>
        <time>2022-04-17T12:02:28Z</time>
      </trkpt>
      <trkpt lat="50.03386" lon="1.95426">
        <ele>7.3</ele>
        <time>2022-04-17T12:02:29Z</time>
      </trkpt>
      <trkpt lat="50.03386" lon="1.95427">
        <ele>7.3</ele>
        <time>2022-04-17T12:02:30Z</time>
      </trkpt>
      <trkpt lat="50.03386" lon="1.95427">
        <ele>7.3</ele>
        <time>2022-04-17T12:02:31Z</time>
      </trkpt>
      <trkpt lat="50.03387" lon="1.95427">
        <ele>7.3</ele>
        <time>2022-04-17T12:02:33Z</time>
      </trkpt>
      <trkpt lat="50.03387" lon="1.95427">
        <ele>7.3</ele>
        <time>2022-04-17T12:02:34Z</time>
      </trkpt>
      <trkpt lat="50.03387" lon="1.95427">
        <ele>7.3</ele>
        <time>2022-04-17T12:02:36Z</time>
      </trkpt>
      <trkpt lat="50.03388" lon="1.95427">
        <ele>7.3</ele>
        <time>2022-04-17T12:02:37Z</time>
      </trkpt>
      <trkpt lat="50.03388" lon="1.95427">
        <ele>7.3</ele>
        <time>2022-04-17T12:02:38Z</time>
      </trkpt>
      <trkpt lat="50.03388" lon="1.95427">
        <ele>7.3</ele>
        <time>2022-04-17T12:02:39Z</time>
      </trkpt>
      <trkpt lat="50.03388" lon="1.95427">
        <ele>7.3</ele>
        <time>2022-04-17T12:02:40Z</time>
      </trkpt>
      <trkpt lat="50.03387" lon="1.95427">
        <ele>7.3</ele>
        <time>2022-04-17T12:02:42Z</time>
      </trkpt>
      <trkpt lat="50.03386" lon="1.95427">
        <ele>7.2</ele>
        <time>2022-04-17T12:02:44Z</time>
      </trkpt>
      <trkpt lat="50.03386" lon="1.95428">
        <ele>7.2</ele>
        <time>2022-04-17T12:02:45Z</time>
      </trkpt>
      <trkpt lat="50.03385" lon="1.95428">
        <ele>7.2</ele>
        <time>2022-04-17T12:02:46Z</time>
      </trkpt>
      <trkpt lat="50.03385" lon="1.95428">
        <ele>7.2</ele>
        <time>2022-04-17T12:02:47Z</time>
      </trkpt>
      <trkpt lat="50.03385" lon="1.95429">
        <ele>7.2</ele>
        <time>2022-04-17T12:02:49Z</time>
      </trkpt>
      <trkpt lat="50.03383" lon="1.95429">
        <ele>7.2</ele>
        <time>2022-04-17T12:02:51Z</time>
      </trkpt>
      <trkpt lat="50.03382" lon="1.95429">
        <ele>7.2</ele>
        <time>2022-04-17T12:02:52Z</time>
      </trkpt>
      <trkpt lat="50.03382" lon="1.95429">
        <ele>7.2</ele>
        <time>2022-04-17T12:02:54Z</time>
      </trkpt>
      <trkpt lat="50.03382" lon="1.95429">
        <ele>7.2</ele>
        <time>2022-04-17T12:02:55Z</time>
      </trkpt>
      <trkpt lat="50.03382" lon="1.95429">
        <ele>7.2</ele>
        <time>2022-04-17T12:02:57Z</time>
      </trkpt>
      <trkpt lat="50.03382" lon="1.95429">
        <ele>7.2</ele>
        <time>2022-04-17T12:02:58Z</time>
      </trkpt>
      <trkpt lat="50.03382" lon="1.95429">
        <ele>7.2</ele>
        <time>2022-04-17T12:03:00Z</time>
      </trkpt>
      <trkpt lat="50.03382" lon="1.95429">
        <ele>7.2</ele>
        <time>2022-04-17T12:03:01Z</time>
      </trkpt>
      <trkpt lat="50.03382" lon="1.95429">
        <ele>7.2</ele>
        <time>2022-04-17T12:03:03Z</time>
      </trkpt>
      <trkpt lat="50.03382" lon="1.95429">
        <ele>7.2</ele>
        <time>2022-04-17T12:03:04Z</time>
      </trkpt>
      <trkpt lat="50.03382" lon="1.95429">
        <ele>7.2</ele>
        <time>2022-04-17T12:03:05Z</time>
      </trkpt>
      <trkpt lat="50.03382" lon="1.95429">
        <ele>7.2</ele>
        <time>2022-04-17T12:03:06Z</time>
      </trkpt>
      <trkpt lat="50.03382" lon="1.95429">
        <ele>7.2</ele>
        <time>2022-04-17T12:03:07Z</time>
      </trkpt>
      <trkpt lat="50.03382" lon="1.95429">
        <ele>7.2</ele>
        <time>2022-04-17T12:03:08Z</time>
      </trkpt>
      <trkpt lat="50.03382" lon="1.95429">
        <ele>7.2</ele>
        <time>2022-04-17T12:03:09Z</time>
      </trkpt>
      <trkpt lat="50.03382" lon="1.95429">
        <ele>7.2</ele>
        <time>2022-04-17T12:03:10Z</time>
      </trkpt>
      <trkpt lat="50.03382" lon="1.95429">
        <ele>7.2</ele>
        <time>2022-04-17T12:03:11Z</time>
      </trkpt>
      <trkpt lat="50.03382" lon="1.95429">
        <ele>7.2</ele>
        <time>2022-04-17T12:03:13Z</time>
      </trkpt>
      <trkpt lat="50.03382" lon="1.95429">
        <ele>7.2</ele>
        <time>2022-04-17T12:03:14Z</time>
      </trkpt>
      <trkpt lat="50.03382" lon="1.95429">
        <ele>7.2</ele>
        <time>2022-04-17T12:03:15Z</time>
      </trkpt>
      <trkpt lat="50.03382" lon="1.95429">
        <ele>7.2</ele>
        <time>2022-04-17T12:03:16Z</time>
      </trkpt>
      <trkpt lat="50.03382" lon="1.95429">
        <ele>7.2</ele>
        <time>2022-04-17T12:03:17Z</time>
      </trkpt>
      <trkpt lat="50.03382" lon="1.95429">
        <ele>7.2</ele>
        <time>2022-04-17T12:03:18Z</time>
      </trkpt>
      <trkpt lat="50.03382" lon="1.95429">
        <ele>7.2</ele>
        <time>2022-04-17T12:03:19Z</time>
      </trkpt>
      <trkpt lat="50.03382" lon="1.95429">
        <ele>7.2</ele>
        <time>2022-04-17T12:03:20Z</time>
      </trkpt>
      <trkpt lat="50.03382" lon="1.95429">
        <ele>7.2</ele>
        <time>2022-04-17T12:03:21Z</time>
      </trkpt>
      <trkpt lat="50.03382" lon="1.95429">
        <ele>7.2</ele>
        <time>2022-04-17T12:03:22Z</time>
      </trkpt>
      <trkpt lat="50.03382" lon="1.95429">
        <ele>7.2</ele>
        <time>2022-04-17T12:03:23Z</time>
      </trkpt>
      <trkpt lat="50.03382" lon="1.95429">
        <ele>7.2</ele>
        <time>2022-04-17T12:03:24Z</time>
      </trkpt>
      <trkpt lat="50.03382" lon="1.95429">
        <ele>7.2</ele>
        <time>2022-04-17T12:03:25Z</time>
      </trkpt>
      <trkpt lat="50.03382" lon="1.95429">
        <ele>7.2</ele>
        <time>2022-04-17T12:03:26Z</time>
      </trkpt>
      <trkpt lat="50.03382" lon="1.95429">
        <ele>7.2</ele>
        <time>2022-04-17T12:03:27Z</time>
      </trkpt>
      <trkpt lat="50.03382" lon="1.95429">
        <ele>7.2</ele>
        <time>2022-04-17T12:03:28Z</time>
      </trkpt>
      <trkpt lat="50.03382" lon="1.95429">
        <ele>7.2</ele>
        <time>2022-04-17T12:03:29Z</time>
      </trkpt>
      <trkpt lat="50.03382" lon="1.95429">
        <ele>7.2</ele>
        <time>2022-04-17T12:03:30Z</time>
      </trkpt>
      <trkpt lat="50.03382" lon="1.95429">
        <ele>7.2</ele>
        <time>2022-04-17T12:03:31Z</time>
      </trkpt>
      <trkpt lat="50.03382" lon="1.95429">
        <ele>7.2</ele>
        <time>2022-04-17T12:03:32Z</time>
      </trkpt>
      <trkpt lat="50.03382" lon="1.95429">
        <ele>7.2</ele>
        <time>2022-04-17T12:03:33Z</time>
      </trkpt>
      <trkpt lat="50.03382" lon="1.95429">
        <ele>7.2</ele>
        <time>2022-04-17T12:03:34Z</time>
      </trkpt>
      <trkpt lat="50.03382" lon="1.95429">
        <ele>7.2</ele>
        <time>2022-04-17T12:03:35Z</time>
      </trkpt>
      <trkpt lat="50.03382" lon="1.95429">
        <ele>7.2</ele>
        <time>2022-04-17T12:03:36Z</time>
      </trkpt>
      <trkpt lat="50.03381" lon="1.9543">
        <ele>7.2</ele>
        <time>2022-04-17T12:03:37Z</time>
      </trkpt>
      <trkpt lat="50.03381" lon="1.9543">
        <ele>7.2</ele>
        <time>2022-04-17T12:03:38Z</time>
      </trkpt>
      <trkpt lat="50.0338" lon="1.9543">
        <ele>7.2</ele>
        <time>2022-04-17T12:03:39Z</time>
      </trkpt>
      <trkpt lat="50.0338" lon="1.9543">
        <ele>7.2</ele>
        <time>2022-04-17T12:03:40Z</time>
      </trkpt>
      <trkpt lat="50.03379" lon="1.9543">
        <ele>7.2</ele>
        <time>2022-04-17T12:03:41Z</time>
      </trkpt>
      <trkpt lat="50.03379" lon="1.95429">
        <ele>7.2</ele>
        <time>2022-04-17T12:03:42Z</time>
      </trkpt>
      <trkpt lat="50.03378" lon="1.95429">
        <ele>7.2</ele>
        <time>2022-04-17T12:03:43Z</time>
      </trkpt>
      <trkpt lat="50.03377" lon="1.95429">
        <ele>7.2</ele>
        <time>2022-04-17T12:03:44Z</time>
      </trkpt>
      <trkpt lat="50.03375" lon="1.95429">
        <ele>7.2</ele>
        <time>2022-04-17T12:03:45Z</time>
      </trkpt>
      <trkpt lat="50.03374" lon="1.95429">
        <ele>7.2</ele>
        <time>2022-04-17T12:03:46Z</time>
      </trkpt>
      <trkpt lat="50.03372" lon="1.95428">
        <ele>7.2</ele>
        <time>2022-04-17T12:03:47Z</time>
      </trkpt>
      <trkpt lat="50.03372" lon="1.95427">
        <ele>7.2</ele>
        <time>2022-04-17T12:03:49Z</time>
      </trkpt>
      <trkpt lat="50.03371" lon="1.95427">
        <ele>7.2</ele>
        <time>2022-04-17T12:03:51Z</time>
      </trkpt>
      <trkpt lat="50.0337" lon="1.95426">
        <ele>7.2</ele>
        <time>2022-04-17T12:03:52Z</time>
      </trkpt>
      <trkpt lat="50.03369" lon="1.95425">
        <ele>7.2</ele>
        <time>2022-04-17T12:03:54Z</time>
      </trkpt>
      <trkpt lat="50.03368" lon="1.95424">
        <ele>7.2</ele>
        <time>2022-04-17T12:03:55Z</time>
      </trkpt>
      <trkpt lat="50.03367" lon="1.95423">
        <ele>7.2</ele>
        <time>2022-04-17T12:03:56Z</time>
      </trkpt>
      <trkpt lat="50.03366" lon="1.95421">
        <ele>7.2</ele>
        <time>2022-04-17T12:03:58Z</time>
      </trkpt>
      <trkpt lat="50.03365" lon="1.95419">
        <ele>7.2</ele>
        <time>2022-04-17T12:04:00Z</time>
      </trkpt>
      <trkpt lat="50.03365" lon="1.95418">
        <ele>7.2</ele>
        <time>2022-04-17T12:04:01Z</time>
      </trkpt>
      <trkpt lat="50.03364" lon="1.95416">
        <ele>7.2</ele>
        <time>2022-04-17T12:04:03Z</time>
      </trkpt>
      <trkpt lat="50.03364" lon="1.95415">
        <ele>7.2</ele>
        <time>2022-04-17T12:04:04Z</time>
      </trkpt>
      <trkpt lat="50.03364" lon="1.95414">
        <ele>7.2</ele>
        <time>2022-04-17T12:04:05Z</time>
      </trkpt>
      <trkpt lat="50.03364" lon="1.95412">
        <ele>7.2</ele>
        <time>2022-04-17T12:04:07Z</time>
      </trkpt>
      <trkpt lat="50.03364" lon="1.9541">
        <ele>7.2</ele>
        <time>2022-04-17T12:04:09Z</time>
      </trkpt>
      <trkpt lat="50.03364" lon="1.95409">
        <ele>7.2</ele>
        <time>2022-04-17T12:04:10Z</time>
      </trkpt>
      <trkpt lat="50.03363" lon="1.95407">
        <ele>7.2</ele>
        <time>2022-04-17T12:04:11Z</time>
      </trkpt>
      <trkpt lat="50.03363" lon="1.95406">
        <ele>7.2</ele>
        <time>2022-04-17T12:04:12Z</time>
      </trkpt>
      <trkpt lat="50.03363" lon="1.95405">
        <ele>7.2</ele>
        <time>2022-04-17T12:04:13Z</time>
      </trkpt>
      <trkpt lat="50.03362" lon="1.95403">
        <ele>7.1</ele>
        <time>2022-04-17T12:04:15Z</time>
      </trkpt>
      <trkpt lat="50.03361" lon="1.95402">
        <ele>7.1</ele>
        <time>2022-04-17T12:04:16Z</time>
      </trkpt>
      <trkpt lat="50.03361" lon="1.954">
        <ele>7.1</ele>
        <time>2022-04-17T12:04:17Z</time>
      </trkpt>
      <trkpt lat="50.0336" lon="1.95397">
        <ele>7.1</ele>
        <time>2022-04-17T12:04:19Z</time>
      </trkpt>
      <trkpt lat="50.0336" lon="1.95396">
        <ele>7.1</ele>
        <time>2022-04-17T12:04:20Z</time>
      </trkpt>
      <trkpt lat="50.03359" lon="1.95394">
        <ele>7.1</ele>
        <time>2022-04-17T12:04:21Z</time>
      </trkpt>
      <trkpt lat="50.03359" lon="1.95392">
        <ele>7.1</ele>
        <time>2022-04-17T12:04:23Z</time>
      </trkpt>
      <trkpt lat="50.03358" lon="1.95391">
        <ele>7.1</ele>
        <time>2022-04-17T12:04:24Z</time>
      </trkpt>
      <trkpt lat="50.03358" lon="1.9539">
        <ele>7.1</ele>
        <time>2022-04-17T12:04:25Z</time>
      </trkpt>
      <trkpt lat="50.03358" lon="1.95388">
        <ele>7.1</ele>
        <time>2022-04-17T12:04:27Z</time>
      </trkpt>
      <trkpt lat="50.03357" lon="1.95387">
        <ele>7.1</ele>
        <time>2022-04-17T12:04:28Z</time>
      </trkpt>
      <trkpt lat="50.03357" lon="1.95385">
        <ele>7.1</ele>
        <time>2022-04-17T12:04:29Z</time>
      </trkpt>
      <trkpt lat="50.03356" lon="1.95383">
        <ele>7.1</ele>
        <time>2022-04-17T12:04:30Z</time>
      </trkpt>
      <trkpt lat="50.03356" lon="1.95381">
        <ele>7.1</ele>
        <time>2022-04-17T12:04:32Z</time>
      </trkpt>
      <trkpt lat="50.03355" lon="1.95379">
        <ele>7.1</ele>
        <time>2022-04-17T12:04:34Z</time>
      </trkpt>
      <trkpt lat="50.03355" lon="1.95378">
        <ele>7.1</ele>
        <time>2022-04-17T12:04:35Z</time>
      </trkpt>
      <trkpt lat="50.03356" lon="1.95378">
        <ele>7.1</ele>
        <time>2022-04-17T12:04:37Z</time>
      </trkpt>
      <trkpt lat="50.03356" lon="1.95378">
        <ele>7.1</ele>
        <time>2022-04-17T12:04:38Z</time>
      </trkpt>
      <trkpt lat="50.03356" lon="1.95379">
        <ele>7.1</ele>
        <time>2022-04-17T12:04:39Z</time>
      </trkpt>
      <trkpt lat="50.03356" lon="1.95379">
        <ele>7.1</ele>
        <time>2022-04-17T12:04:40Z</time>
      </trkpt>
      <trkpt lat="50.03356" lon="1.9538">
        <ele>7.1</ele>
        <time>2022-04-17T12:04:42Z</time>
      </trkpt>
      <trkpt lat="50.03356" lon="1.9538">
        <ele>7.1</ele>
        <time>2022-04-17T12:04:44Z</time>
      </trkpt>
      <trkpt lat="50.03356" lon="1.9538">
        <ele>7.1</ele>
        <time>2022-04-17T12:04:45Z</time>
      </trkpt>
      <trkpt lat="50.03356" lon="1.95381">
        <ele>7.1</ele>
        <time>2022-04-17T12:04:46Z</time>
      </trkpt>
      <trkpt lat="50.03356" lon="1.95381">
        <ele>7.1</ele>
        <time>2022-04-17T12:04:47Z</time>
      </trkpt>
      <trkpt lat="50.03356" lon="1.95381">
        <ele>7.1</ele>
        <time>2022-04-17T12:04:49Z</time>
      </trkpt>
      <trkpt lat="50.03356" lon="1.95381">
        <ele>7.1</ele>
        <time>2022-04-17T12:04:50Z</time>
      </trkpt>
      <trkpt lat="50.03356" lon="1.95381">
        <ele>7.1</ele>
        <time>2022-04-17T12:04:51Z</time>
      </trkpt>
      <trkpt lat="50.03357" lon="1.95382">
        <ele>7.1</ele>
        <time>2022-04-17T12:04:52Z</time>
      </trkpt>
      <trkpt lat="50.03357" lon="1.95383">
        <ele>7.1</ele>
        <time>2022-04-17T12:04:53Z</time>
      </trkpt>
      <trkpt lat="50.03357" lon="1.95383">
        <ele>7.1</ele>
        <time>2022-04-17T12:04:54Z</time>
      </trkpt>
      <trkpt lat="50.03357" lon="1.95383">
        <ele>7.1</ele>
        <time>2022-04-17T12:04:55Z</time>
      </trkpt>
      <trkpt lat="50.03357" lon="1.95383">
        <ele>7.1</ele>
        <time>2022-04-17T12:04:56Z</time>
      </trkpt>
      <trkpt lat="50.03357" lon="1.95383">
        <ele>7.1</ele>
        <time>2022-04-17T12:04:57Z</time>
      </trkpt>
      <trkpt lat="50.03357" lon="1.95383">
        <ele>7.1</ele>
        <time>2022-04-17T12:04:58Z</time>
      </trkpt>
      <trkpt lat="50.03357" lon="1.95383">
        <ele>7.1</ele>
        <time>2022-04-17T12:04:59Z</time>
      </trkpt>
      <trkpt lat="50.03357" lon="1.95383">
        <ele>7.1</ele>
        <time>2022-04-17T12:05:00Z</time>
      </trkpt>
      <trkpt lat="50.03357" lon="1.95378">
        <ele>7.1</ele>
        <time>2022-04-17T12:05:02Z</time>
      </trkpt>
      <trkpt lat="50.03357" lon="1.95378">
        <ele>7.1</ele>
        <time>2022-04-17T12:05:03Z</time>
      </trkpt>
      <trkpt lat="50.03356" lon="1.95376">
        <ele>7.1</ele>
        <time>2022-04-17T12:05:04Z</time>
      </trkpt>
      <trkpt lat="50.03355" lon="1.95375">
        <ele>7.1</ele>
        <time>2022-04-17T12:05:06Z</time>
      </trkpt>
      <trkpt lat="50.03355" lon="1.95374">
        <ele>7.1</ele>
        <time>2022-04-17T12:05:07Z</time>
      </trkpt>
      <trkpt lat="50.03355" lon="1.95373">
        <ele>7.1</ele>
        <time>2022-04-17T12:05:08Z</time>
      </trkpt>
      <trkpt lat="50.03355" lon="1.95371">
        <ele>7.1</ele>
        <time>2022-04-17T12:05:09Z</time>
      </trkpt>
      <trkpt lat="50.03354" lon="1.95368">
        <ele>7.1</ele>
        <time>2022-04-17T12:05:10Z</time>
      </trkpt>
      <trkpt lat="50.03354" lon="1.95366">
        <ele>7.1</ele>
        <time>2022-04-17T12:05:11Z</time>
      </trkpt>
      <trkpt lat="50.03353" lon="1.95364">
        <ele>7.1</ele>
        <time>2022-04-17T12:05:13Z</time>
      </trkpt>
      <trkpt lat="50.03352" lon="1.9536">
        <ele>7.1</ele>
        <time>2022-04-17T12:05:14Z</time>
      </trkpt>
      <trkpt lat="50.03352" lon="1.95359">
        <ele>7.1</ele>
        <time>2022-04-17T12:05:15Z</time>
      </trkpt>
      <trkpt lat="50.03352" lon="1.95357">
        <ele>7.1</ele>
        <time>2022-04-17T12:05:16Z</time>
      </trkpt>
      <trkpt lat="50.03352" lon="1.95356">
        <ele>7.1</ele>
        <time>2022-04-17T12:05:18Z</time>
      </trkpt>
      <trkpt lat="50.03351" lon="1.95354">
        <ele>7.1</ele>
        <time>2022-04-17T12:05:19Z</time>
      </trkpt>
      <trkpt lat="50.03351" lon="1.95353">
        <ele>7.1</ele>
        <time>2022-04-17T12:05:20Z</time>
      </trkpt>
      <trkpt lat="50.0335" lon="1.95351">
        <ele>7.1</ele>
        <time>2022-04-17T12:05:21Z</time>
      </trkpt>
      <trkpt lat="50.0335" lon="1.9535">
        <ele>7.1</ele>
        <time>2022-04-17T12:05:22Z</time>
      </trkpt>
      <trkpt lat="50.0335" lon="1.95348">
        <ele>7.1</ele>
        <time>2022-04-17T12:05:23Z</time>
      </trkpt>
      <trkpt lat="50.03349" lon="1.95347">
        <ele>7.1</ele>
        <time>2022-04-17T12:05:24Z</time>
      </trkpt>
      <trkpt lat="50.03349" lon="1.95346">
        <ele>7.1</ele>
        <time>2022-04-17T12:05:25Z</time>
      </trkpt>
      <trkpt lat="50.03349" lon="1.95346">
        <ele>7.1</ele>
        <time>2022-04-17T12:05:26Z</time>
      </trkpt>
      <trkpt lat="50.03348" lon="1.95343">
        <ele>7.1</ele>
        <time>2022-04-17T12:05:28Z</time>
      </trkpt>
      <trkpt lat="50.03348" lon="1.95341">
        <ele>7.1</ele>
        <time>2022-04-17T12:05:29Z</time>
      </trkpt>
      <trkpt lat="50.03347" lon="1.95339">
        <ele>7.1</ele>
        <time>2022-04-17T12:05:30Z</time>
      </trkpt>
      <trkpt lat="50.03347" lon="1.95337">
        <ele>7.1</ele>
        <time>2022-04-17T12:05:31Z</time>
      </trkpt>
      <trkpt lat="50.03346" lon="1.95334">
        <ele>7.1</ele>
        <time>2022-04-17T12:05:32Z</time>
      </trkpt>
      <trkpt lat="50.03346" lon="1.95331">
        <ele>7.1</ele>
        <time>2022-04-17T12:05:34Z</time>
      </trkpt>
      <trkpt lat="50.03345" lon="1.95328">
        <ele>7.1</ele>
        <time>2022-04-17T12:05:35Z</time>
      </trkpt>
      <trkpt lat="50.03345" lon="1.95326">
        <ele>7.1</ele>
        <time>2022-04-17T12:05:37Z</time>
      </trkpt>
      <trkpt lat="50.03344" lon="1.95324">
        <ele>7.1</ele>
        <time>2022-04-17T12:05:38Z</time>
      </trkpt>
      <trkpt lat="50.03344" lon="1.95322">
        <ele>7.1</ele>
        <time>2022-04-17T12:05:39Z</time>
      </trkpt>
      <trkpt lat="50.03343" lon="1.9532">
        <ele>7.1</ele>
        <time>2022-04-17T12:05:40Z</time>
      </trkpt>
      <trkpt lat="50.03342" lon="1.95318">
        <ele>7.1</ele>
        <time>2022-04-17T12:05:41Z</time>
      </trkpt>
      <trkpt lat="50.03341" lon="1.95314">
        <ele>7.1</ele>
        <time>2022-04-17T12:05:42Z</time>
      </trkpt>
      <trkpt lat="50.03341" lon="1.95314">
        <ele>7.1</ele>
        <time>2022-04-17T12:05:43Z</time>
      </trkpt>
      <trkpt lat="50.03341" lon="1.95313">
        <ele>7.1</ele>
        <time>2022-04-17T12:05:44Z</time>
      </trkpt>
      <trkpt lat="50.0334" lon="1.95311">
        <ele>7.2</ele>
        <time>2022-04-17T12:05:45Z</time>
      </trkpt>
      <trkpt lat="50.0334" lon="1.9531">
        <ele>7.2</ele>
        <time>2022-04-17T12:05:46Z</time>
      </trkpt>
      <trkpt lat="50.03338" lon="1.95306">
        <ele>7.2</ele>
        <time>2022-04-17T12:05:48Z</time>
      </trkpt>
      <trkpt lat="50.03337" lon="1.95303">
        <ele>7.2</ele>
        <time>2022-04-17T12:05:50Z</time>
      </trkpt>
      <trkpt lat="50.03337" lon="1.95302">
        <ele>7.2</ele>
        <time>2022-04-17T12:05:51Z</time>
      </trkpt>
      <trkpt lat="50.03336" lon="1.953">
        <ele>7.2</ele>
        <time>2022-04-17T12:05:52Z</time>
      </trkpt>
      <trkpt lat="50.03335" lon="1.95298">
        <ele>7.2</ele>
        <time>2022-04-17T12:05:53Z</time>
      </trkpt>
      <trkpt lat="50.03334" lon="1.95297">
        <ele>7.2</ele>
        <time>2022-04-17T12:05:54Z</time>
      </trkpt>
      <trkpt lat="50.03334" lon="1.95295">
        <ele>7.2</ele>
        <time>2022-04-17T12:05:55Z</time>
      </trkpt>
      <trkpt lat="50.03333" lon="1.95294">
        <ele>7.2</ele>
        <time>2022-04-17T12:05:56Z</time>
      </trkpt>
      <trkpt lat="50.03332" lon="1.95291">
        <ele>7.2</ele>
        <time>2022-04-17T12:05:57Z</time>
      </trkpt>
      <trkpt lat="50.03332" lon="1.95291">
        <ele>7.2</ele>
        <time>2022-04-17T12:05:58Z</time>
      </trkpt>
      <trkpt lat="50.03331" lon="1.95289">
        <ele>7.2</ele>
        <time>2022-04-17T12:06:00Z</time>
      </trkpt>
      <trkpt lat="50.03331" lon="1.95287">
        <ele>7.2</ele>
        <time>2022-04-17T12:06:01Z</time>
      </trkpt>
      <trkpt lat="50.0333" lon="1.95284">
        <ele>7.2</ele>
        <time>2022-04-17T12:06:02Z</time>
      </trkpt>
      <trkpt lat="50.03329" lon="1.95283">
        <ele>7.2</ele>
        <time>2022-04-17T12:06:03Z</time>
      </trkpt>
      <trkpt lat="50.03329" lon="1.95281">
        <ele>7.2</ele>
        <time>2022-04-17T12:06:04Z</time>
      </trkpt>
      <trkpt lat="50.03329" lon="1.95279">
        <ele>7.2</ele>
        <time>2022-04-17T12:06:05Z</time>
      </trkpt>
      <trkpt lat="50.03328" lon="1.95277">
        <ele>7.2</ele>
        <time>2022-04-17T12:06:06Z</time>
      </trkpt>
      <trkpt lat="50.03327" lon="1.95275">
        <ele>7.2</ele>
        <time>2022-04-17T12:06:07Z</time>
      </trkpt>
      <trkpt lat="50.03327" lon="1.95272">
        <ele>7.2</ele>
        <time>2022-04-17T12:06:09Z</time>
      </trkpt>
      <trkpt lat="50.03326" lon="1.9527">
        <ele>7.2</ele>
        <time>2022-04-17T12:06:10Z</time>
      </trkpt>
      <trkpt lat="50.03326" lon="1.95268">
        <ele>7.2</ele>
        <time>2022-04-17T12:06:12Z</time>
      </trkpt>
      <trkpt lat="50.03326" lon="1.95266">
        <ele>7.2</ele>
        <time>2022-04-17T12:06:13Z</time>
      </trkpt>
      <trkpt lat="50.03325" lon="1.95264">
        <ele>7.2</ele>
        <time>2022-04-17T12:06:14Z</time>
      </trkpt>
      <trkpt lat="50.03325" lon="1.95262">
        <ele>7.2</ele>
        <time>2022-04-17T12:06:15Z</time>
      </trkpt>
      <trkpt lat="50.03325" lon="1.95261">
        <ele>7.2</ele>
        <time>2022-04-17T12:06:16Z</time>
      </trkpt>
      <trkpt lat="50.03324" lon="1.95258">
        <ele>7.2</ele>
        <time>2022-04-17T12:06:17Z</time>
      </trkpt>
      <trkpt lat="50.03323" lon="1.95255">
        <ele>7.2</ele>
        <time>2022-04-17T12:06:19Z</time>
      </trkpt>
      <trkpt lat="50.03323" lon="1.95254">
        <ele>7.2</ele>
        <time>2022-04-17T12:06:20Z</time>
      </trkpt>
      <trkpt lat="50.03322" lon="1.95252">
        <ele>7.2</ele>
        <time>2022-04-17T12:06:22Z</time>
      </trkpt>
      <trkpt lat="50.03322" lon="1.95249">
        <ele>7.2</ele>
        <time>2022-04-17T12:06:23Z</time>
      </trkpt>
      <trkpt lat="50.03321" lon="1.95248">
        <ele>7.2</ele>
        <time>2022-04-17T12:06:24Z</time>
      </trkpt>
      <trkpt lat="50.0332" lon="1.95245">
        <ele>7.2</ele>
        <time>2022-04-17T12:06:25Z</time>
      </trkpt>
      <trkpt lat="50.0332" lon="1.95244">
        <ele>7.2</ele>
        <time>2022-04-17T12:06:26Z</time>
      </trkpt>
      <trkpt lat="50.03319" lon="1.95242">
        <ele>7.2</ele>
        <time>2022-04-17T12:06:27Z</time>
      </trkpt>
      <trkpt lat="50.03319" lon="1.95241">
        <ele>7.2</ele>
        <time>2022-04-17T12:06:28Z</time>
      </trkpt>
      <trkpt lat="50.03319" lon="1.9524">
        <ele>7.2</ele>
        <time>2022-04-17T12:06:29Z</time>
      </trkpt>
      <trkpt lat="50.03318" lon="1.95238">
        <ele>7.2</ele>
        <time>2022-04-17T12:06:30Z</time>
      </trkpt>
      <trkpt lat="50.03318" lon="1.95236">
        <ele>7.2</ele>
        <time>2022-04-17T12:06:31Z</time>
      </trkpt>
      <trkpt lat="50.03317" lon="1.95233">
        <ele>7.2</ele>
        <time>2022-04-17T12:06:32Z</time>
      </trkpt>
      <trkpt lat="50.03317" lon="1.95233">
        <ele>7.2</ele>
        <time>2022-04-17T12:06:33Z</time>
      </trkpt>
      <trkpt lat="50.03317" lon="1.95231">
        <ele>7.2</ele>
        <time>2022-04-17T12:06:34Z</time>
      </trkpt>
      <trkpt lat="50.03317" lon="1.9523">
        <ele>7.2</ele>
        <time>2022-04-17T12:06:35Z</time>
      </trkpt>
      <trkpt lat="50.03316" lon="1.95228">
        <ele>7.2</ele>
        <time>2022-04-17T12:06:36Z</time>
      </trkpt>
      <trkpt lat="50.03316" lon="1.95226">
        <ele>7.2</ele>
        <time>2022-04-17T12:06:38Z</time>
      </trkpt>
      <trkpt lat="50.03316" lon="1.95224">
        <ele>7.2</ele>
        <time>2022-04-17T12:06:39Z</time>
      </trkpt>
      <trkpt lat="50.03315" lon="1.95222">
        <ele>7.2</ele>
        <time>2022-04-17T12:06:40Z</time>
      </trkpt>
      <trkpt lat="50.03314" lon="1.9522">
        <ele>7.2</ele>
        <time>2022-04-17T12:06:41Z</time>
      </trkpt>
      <trkpt lat="50.03314" lon="1.95217">
        <ele>7.2</ele>
        <time>2022-04-17T12:06:42Z</time>
      </trkpt>
      <trkpt lat="50.03313" lon="1.95216">
        <ele>7.2</ele>
        <time>2022-04-17T12:06:43Z</time>
      </trkpt>
      <trkpt lat="50.03313" lon="1.95214">
        <ele>7.2</ele>
        <time>2022-04-17T12:06:44Z</time>
      </trkpt>
      <trkpt lat="50.03312" lon="1.95213">
        <ele>7.2</ele>
        <time>2022-04-17T12:06:46Z</time>
      </trkpt>
      <trkpt lat="50.03312" lon="1.95211">
        <ele>7.2</ele>
        <time>2022-04-17T12:06:47Z</time>
      </trkpt>
      <trkpt lat="50.03311" lon="1.95208">
        <ele>7.2</ele>
        <time>2022-04-17T12:06:48Z</time>
      </trkpt>
      <trkpt lat="50.03311" lon="1.95207">
        <ele>7.2</ele>
        <time>2022-04-17T12:06:49Z</time>
      </trkpt>
      <trkpt lat="50.0331" lon="1.95205">
        <ele>7.2</ele>
        <time>2022-04-17T12:06:50Z</time>
      </trkpt>
      <trkpt lat="50.0331" lon="1.95203">
        <ele>7.2</ele>
        <time>2022-04-17T12:06:51Z</time>
      </trkpt>
      <trkpt lat="50.03309" lon="1.952">
        <ele>7.2</ele>
        <time>2022-04-17T12:06:52Z</time>
      </trkpt>
      <trkpt lat="50.03308" lon="1.95199">
        <ele>7.2</ele>
        <time>2022-04-17T12:06:53Z</time>
      </trkpt>
      <trkpt lat="50.03308" lon="1.95196">
        <ele>7.2</ele>
        <time>2022-04-17T12:06:54Z</time>
      </trkpt>
      <trkpt lat="50.03307" lon="1.95195">
        <ele>7.2</ele>
        <time>2022-04-17T12:06:56Z</time>
      </trkpt>
      <trkpt lat="50.03307" lon="1.95194">
        <ele>7.2</ele>
        <time>2022-04-17T12:06:57Z</time>
      </trkpt>
      <trkpt lat="50.03306" lon="1.95192">
        <ele>7.2</ele>
        <time>2022-04-17T12:06:58Z</time>
      </trkpt>
      <trkpt lat="50.03305" lon="1.9519">
        <ele>7.2</ele>
        <time>2022-04-17T12:06:59Z</time>
      </trkpt>
      <trkpt lat="50.03304" lon="1.95188">
        <ele>7.2</ele>
        <time>2022-04-17T12:07:00Z</time>
      </trkpt>
      <trkpt lat="50.03303" lon="1.95187">
        <ele>7.2</ele>
        <time>2022-04-17T12:07:01Z</time>
      </trkpt>
      <trkpt lat="50.03303" lon="1.95185">
        <ele>7.2</ele>
        <time>2022-04-17T12:07:02Z</time>
      </trkpt>
      <trkpt lat="50.03302" lon="1.95184">
        <ele>7.2</ele>
        <time>2022-04-17T12:07:03Z</time>
      </trkpt>
      <trkpt lat="50.03302" lon="1.95183">
        <ele>7.2</ele>
        <time>2022-04-17T12:07:04Z</time>
      </trkpt>
      <trkpt lat="50.03301" lon="1.95181">
        <ele>7.2</ele>
        <time>2022-04-17T12:07:06Z</time>
      </trkpt>
      <trkpt lat="50.033" lon="1.95178">
        <ele>7.2</ele>
        <time>2022-04-17T12:07:07Z</time>
      </trkpt>
      <trkpt lat="50.033" lon="1.95176">
        <ele>7.2</ele>
        <time>2022-04-17T12:07:08Z</time>
      </trkpt>
      <trkpt lat="50.03299" lon="1.95175">
        <ele>7.2</ele>
        <time>2022-04-17T12:07:09Z</time>
      </trkpt>
      <trkpt lat="50.03299" lon="1.95173">
        <ele>7.2</ele>
        <time>2022-04-17T12:07:11Z</time>
      </trkpt>
      <trkpt lat="50.03298" lon="1.95171">
        <ele>7.2</ele>
        <time>2022-04-17T12:07:12Z</time>
      </trkpt>
      <trkpt lat="50.03297" lon="1.95167">
        <ele>7.2</ele>
        <time>2022-04-17T12:07:13Z</time>
      </trkpt>
      <trkpt lat="50.03297" lon="1.95165">
        <ele>7.2</ele>
        <time>2022-04-17T12:07:15Z</time>
      </trkpt>
      <trkpt lat="50.03297" lon="1.95164">
        <ele>7.2</ele>
        <time>2022-04-17T12:07:16Z</time>
      </trkpt>
      <trkpt lat="50.03297" lon="1.95163">
        <ele>7.2</ele>
        <time>2022-04-17T12:07:17Z</time>
      </trkpt>
      <trkpt lat="50.03297" lon="1.95162">
        <ele>7.2</ele>
        <time>2022-04-17T12:07:18Z</time>
      </trkpt>
      <trkpt lat="50.03296" lon="1.9516">
        <ele>7.2</ele>
        <time>2022-04-17T12:07:19Z</time>
      </trkpt>
      <trkpt lat="50.03296" lon="1.95158">
        <ele>7.2</ele>
        <time>2022-04-17T12:07:20Z</time>
      </trkpt>
      <trkpt lat="50.03295" lon="1.95157">
        <ele>7.2</ele>
        <time>2022-04-17T12:07:21Z</time>
      </trkpt>
      <trkpt lat="50.03295" lon="1.95154">
        <ele>7.2</ele>
        <time>2022-04-17T12:07:22Z</time>
      </trkpt>
      <trkpt lat="50.03295" lon="1.95154">
        <ele>7.2</ele>
        <time>2022-04-17T12:07:24Z</time>
      </trkpt>
      <trkpt lat="50.03294" lon="1.95153">
        <ele>7.2</ele>
        <time>2022-04-17T12:07:25Z</time>
      </trkpt>
      <trkpt lat="50.03293" lon="1.95153">
        <ele>7.2</ele>
        <time>2022-04-17T12:07:26Z</time>
      </trkpt>
      <trkpt lat="50.03292" lon="1.95153">
        <ele>7.2</ele>
        <time>2022-04-17T12:07:27Z</time>
      </trkpt>
      <trkpt lat="50.03292" lon="1.95155">
        <ele>7.2</ele>
        <time>2022-04-17T12:07:28Z</time>
      </trkpt>
      <trkpt lat="50.03291" lon="1.95157">
        <ele>7.2</ele>
        <time>2022-04-17T12:07:30Z</time>
      </trkpt>
      <trkpt lat="50.03289" lon="1.95159">
        <ele>7.2</ele>
        <time>2022-04-17T12:07:31Z</time>
      </trkpt>
      <trkpt lat="50.03288" lon="1.9516">
        <ele>7.2</ele>
        <time>2022-04-17T12:07:33Z</time>
      </trkpt>
      <trkpt lat="50.03288" lon="1.95161">
        <ele>7.2</ele>
        <time>2022-04-17T12:07:34Z</time>
      </trkpt>
      <trkpt lat="50.03287" lon="1.95162">
        <ele>7.2</ele>
        <time>2022-04-17T12:07:35Z</time>
      </trkpt>
      <trkpt lat="50.03285" lon="1.95162">
        <ele>7.2</ele>
        <time>2022-04-17T12:07:36Z</time>
      </trkpt>
      <trkpt lat="50.03284" lon="1.95163">
        <ele>7.2</ele>
        <time>2022-04-17T12:07:37Z</time>
      </trkpt>
      <trkpt lat="50.03283" lon="1.95164">
        <ele>7.2</ele>
        <time>2022-04-17T12:07:39Z</time>
      </trkpt>
      <trkpt lat="50.03282" lon="1.95164">
        <ele>7.2</ele>
        <time>2022-04-17T12:07:40Z</time>
      </trkpt>
      <trkpt lat="50.03281" lon="1.95165">
        <ele>7.2</ele>
        <time>2022-04-17T12:07:41Z</time>
      </trkpt>
      <trkpt lat="50.0328" lon="1.95166">
        <ele>7.2</ele>
        <time>2022-04-17T12:07:42Z</time>
      </trkpt>
      <trkpt lat="50.03279" lon="1.95166">
        <ele>7.2</ele>
        <time>2022-04-17T12:07:44Z</time>
      </trkpt>
      <trkpt lat="50.03278" lon="1.95167">
        <ele>7.2</ele>
        <time>2022-04-17T12:07:45Z</time>
      </trkpt>
      <trkpt lat="50.03277" lon="1.9517">
        <ele>7.2</ele>
        <time>2022-04-17T12:07:46Z</time>
      </trkpt>
      <trkpt lat="50.03277" lon="1.95171">
        <ele>7.2</ele>
        <time>2022-04-17T12:07:47Z</time>
      </trkpt>
      <trkpt lat="50.03277" lon="1.95172">
        <ele>7.2</ele>
        <time>2022-04-17T12:07:48Z</time>
      </trkpt>
      <trkpt lat="50.03277" lon="1.95173">
        <ele>7.2</ele>
        <time>2022-04-17T12:07:49Z</time>
      </trkpt>
      <trkpt lat="50.03276" lon="1.95174">
        <ele>7.2</ele>
        <time>2022-04-17T12:07:51Z</time>
      </trkpt>
      <trkpt lat="50.03276" lon="1.95176">
        <ele>7.2</ele>
        <time>2022-04-17T12:07:52Z</time>
      </trkpt>
      <trkpt lat="50.03276" lon="1.95177">
        <ele>7.2</ele>
        <time>2022-04-17T12:07:53Z</time>
      </trkpt>
      <trkpt lat="50.03275" lon="1.95178">
        <ele>7.1</ele>
        <time>2022-04-17T12:07:55Z</time>
      </trkpt>
      <trkpt lat="50.03275" lon="1.95178">
        <ele>7.1</ele>
        <time>2022-04-17T12:07:56Z</time>
      </trkpt>
      <trkpt lat="50.03275" lon="1.95178">
        <ele>7.1</ele>
        <time>2022-04-17T12:07:57Z</time>
      </trkpt>
      <trkpt lat="50.03275" lon="1.95178">
        <ele>7.1</ele>
        <time>2022-04-17T12:07:58Z</time>
      </trkpt>
      <trkpt lat="50.03276" lon="1.95177">
        <ele>7.1</ele>
        <time>2022-04-17T12:07:59Z</time>
      </trkpt>
      <trkpt lat="50.03276" lon="1.95177">
        <ele>7.1</ele>
        <time>2022-04-17T12:08:00Z</time>
      </trkpt>
      <trkpt lat="50.03276" lon="1.95176">
        <ele>7.1</ele>
        <time>2022-04-17T12:08:01Z</time>
      </trkpt>
      <trkpt lat="50.03276" lon="1.95176">
        <ele>7.1</ele>
        <time>2022-04-17T12:08:02Z</time>
      </trkpt>
      <trkpt lat="50.03276" lon="1.95175">
        <ele>7.1</ele>
        <time>2022-04-17T12:08:04Z</time>
      </trkpt>
      <trkpt lat="50.03277" lon="1.95173">
        <ele>7.1</ele>
        <time>2022-04-17T12:08:05Z</time>
      </trkpt>
      <trkpt lat="50.03277" lon="1.95171">
        <ele>7.1</ele>
        <time>2022-04-17T12:08:06Z</time>
      </trkpt>
      <trkpt lat="50.03277" lon="1.9517">
        <ele>7.1</ele>
        <time>2022-04-17T12:08:07Z</time>
      </trkpt>
      <trkpt lat="50.03276" lon="1.95168">
        <ele>7.1</ele>
        <time>2022-04-17T12:08:09Z</time>
      </trkpt>
      <trkpt lat="50.03274" lon="1.95167">
        <ele>7.1</ele>
        <time>2022-04-17T12:08:10Z</time>
      </trkpt>
      <trkpt lat="50.03274" lon="1.95166">
        <ele>7.1</ele>
        <time>2022-04-17T12:08:11Z</time>
      </trkpt>
      <trkpt lat="50.03273" lon="1.95166">
        <ele>7.1</ele>
        <time>2022-04-17T12:08:12Z</time>
      </trkpt>
      <trkpt lat="50.03271" lon="1.95165">
        <ele>7.1</ele>
        <time>2022-04-17T12:08:14Z</time>
      </trkpt>
      <trkpt lat="50.03271" lon="1.95164">
        <ele>7.1</ele>
        <time>2022-04-17T12:08:15Z</time>
      </trkpt>
      <trkpt lat="50.03271" lon="1.95164">
        <ele>7.1</ele>
        <time>2022-04-17T12:08:16Z</time>
      </trkpt>
      <trkpt lat="50.03271" lon="1.95164">
        <ele>7.1</ele>
        <time>2022-04-17T12:08:17Z</time>
      </trkpt>
      <trkpt lat="50.03271" lon="1.95164">
        <ele>7.1</ele>
        <time>2022-04-17T12:08:19Z</time>
      </trkpt>
      <trkpt lat="50.0327" lon="1.95164">
        <ele>7.1</ele>
        <time>2022-04-17T12:08:20Z</time>
      </trkpt>
      <trkpt lat="50.0327" lon="1.95164">
        <ele>7.1</ele>
        <time>2022-04-17T12:08:21Z</time>
      </trkpt>
      <trkpt lat="50.03271" lon="1.95164">
        <ele>7.1</ele>
        <time>2022-04-17T12:08:22Z</time>
      </trkpt>
      <trkpt lat="50.0327" lon="1.95164">
        <ele>7.1</ele>
        <time>2022-04-17T12:08:23Z</time>
      </trkpt>
      <trkpt lat="50.0327" lon="1.95164">
        <ele>7.1</ele>
        <time>2022-04-17T12:08:24Z</time>
      </trkpt>
      <trkpt lat="50.0327" lon="1.95164">
        <ele>7.1</ele>
        <time>2022-04-17T12:08:25Z</time>
      </trkpt>
      <trkpt lat="50.0327" lon="1.95164">
        <ele>7.1</ele>
        <time>2022-04-17T12:08:26Z</time>
      </trkpt>
      <trkpt lat="50.0327" lon="1.95164">
        <ele>7.1</ele>
        <time>2022-04-17T12:08:27Z</time>
      </trkpt>
      <trkpt lat="50.0327" lon="1.95164">
        <ele>7.1</ele>
        <time>2022-04-17T12:08:29Z</time>
      </trkpt>
      <trkpt lat="50.0327" lon="1.95164">
        <ele>7.1</ele>
        <time>2022-04-17T12:08:32Z</time>
      </trkpt>
      <trkpt lat="50.03271" lon="1.95164">
        <ele>7.1</ele>
        <time>2022-04-17T12:08:33Z</time>
      </trkpt>
      <trkpt lat="50.03272" lon="1.95165">
        <ele>7.1</ele>
        <time>2022-04-17T12:08:34Z</time>
      </trkpt>
      <trkpt lat="50.03272" lon="1.95165">
        <ele>7.1</ele>
        <time>2022-04-17T12:08:35Z</time>
      </trkpt>
      <trkpt lat="50.03272" lon="1.95165">
        <ele>7.1</ele>
        <time>2022-04-17T12:08:37Z</time>
      </trkpt>
      <trkpt lat="50.03273" lon="1.95165">
        <ele>7.1</ele>
        <time>2022-04-17T12:08:38Z</time>
      </trkpt>
      <trkpt lat="50.03274" lon="1.95166">
        <ele>7.1</ele>
        <time>2022-04-17T12:08:39Z</time>
      </trkpt>
      <trkpt lat="50.03276" lon="1.95167">
        <ele>7.1</ele>
        <time>2022-04-17T12:08:41Z</time>
      </trkpt>
      <trkpt lat="50.03277" lon="1.95167">
        <ele>7.1</ele>
        <time>2022-04-17T12:08:42Z</time>
      </trkpt>
      <trkpt lat="50.03279" lon="1.95167">
        <ele>7.1</ele>
        <time>2022-04-17T12:08:43Z</time>
      </trkpt>
      <trkpt lat="50.03281" lon="1.95166">
        <ele>7.1</ele>
        <time>2022-04-17T12:08:44Z</time>
      </trkpt>
      <trkpt lat="50.03281" lon="1.95166">
        <ele>7.1</ele>
        <time>2022-04-17T12:08:46Z</time>
      </trkpt>
      <trkpt lat="50.03282" lon="1.95165">
        <ele>7.1</ele>
        <time>2022-04-17T12:08:47Z</time>
      </trkpt>
      <trkpt lat="50.03284" lon="1.95164">
        <ele>7.1</ele>
        <time>2022-04-17T12:08:48Z</time>
      </trkpt>
      <trkpt lat="50.03285" lon="1.95164">
        <ele>7.1</ele>
        <time>2022-04-17T12:08:49Z</time>
      </trkpt>
      <trkpt lat="50.03286" lon="1.95164">
        <ele>7.1</ele>
        <time>2022-04-17T12:08:50Z</time>
      </trkpt>
      <trkpt lat="50.03288" lon="1.95163">
        <ele>7.1</ele>
        <time>2022-04-17T12:08:52Z</time>
      </trkpt>
      <trkpt lat="50.03289" lon="1.95163">
        <ele>7.1</ele>
        <time>2022-04-17T12:08:53Z</time>
      </trkpt>
      <trkpt lat="50.0329" lon="1.95162">
        <ele>7.1</ele>
        <time>2022-04-17T12:08:54Z</time>
      </trkpt>
      <trkpt lat="50.03291" lon="1.95161">
        <ele>7.1</ele>
        <time>2022-04-17T12:08:55Z</time>
      </trkpt>
      <trkpt lat="50.03292" lon="1.95159">
        <ele>7.1</ele>
        <time>2022-04-17T12:08:57Z</time>
      </trkpt>
      <trkpt lat="50.03292" lon="1.95157">
        <ele>7.1</ele>
        <time>2022-04-17T12:08:58Z</time>
      </trkpt>
      <trkpt lat="50.03293" lon="1.95156">
        <ele>7.1</ele>
        <time>2022-04-17T12:09:00Z</time>
      </trkpt>
      <trkpt lat="50.03293" lon="1.95154">
        <ele>7.1</ele>
        <time>2022-04-17T12:09:01Z</time>
      </trkpt>
      <trkpt lat="50.03293" lon="1.95153">
        <ele>7.1</ele>
        <time>2022-04-17T12:09:02Z</time>
      </trkpt>
      <trkpt lat="50.03292" lon="1.9515">
        <ele>7.1</ele>
        <time>2022-04-17T12:09:04Z</time>
      </trkpt>
      <trkpt lat="50.03292" lon="1.95147">
        <ele>7.1</ele>
        <time>2022-04-17T12:09:05Z</time>
      </trkpt>
      <trkpt lat="50.0329" lon="1.95144">
        <ele>7.1</ele>
        <time>2022-04-17T12:09:07Z</time>
      </trkpt>
      <trkpt lat="50.0329" lon="1.95142">
        <ele>7.1</ele>
        <time>2022-04-17T12:09:08Z</time>
      </trkpt>
      <trkpt lat="50.03289" lon="1.9514">
        <ele>7.1</ele>
        <time>2022-04-17T12:09:09Z</time>
      </trkpt>
      <trkpt lat="50.03288" lon="1.95138">
        <ele>7.1</ele>
        <time>2022-04-17T12:09:10Z</time>
      </trkpt>
      <trkpt lat="50.03287" lon="1.95136">
        <ele>7.1</ele>
        <time>2022-04-17T12:09:11Z</time>
      </trkpt>
      <trkpt lat="50.03287" lon="1.95134">
        <ele>7.1</ele>
        <time>2022-04-17T12:09:12Z</time>
      </trkpt>
      <trkpt lat="50.03286" lon="1.95132">
        <ele>7.1</ele>
        <time>2022-04-17T12:09:13Z</time>
      </trkpt>
      <trkpt lat="50.03286" lon="1.9513">
        <ele>7</ele>
        <time>2022-04-17T12:09:15Z</time>
      </trkpt>
      <trkpt lat="50.03286" lon="1.95128">
        <ele>7</ele>
        <time>2022-04-17T12:09:16Z</time>
      </trkpt>
      <trkpt lat="50.03285" lon="1.95126">
        <ele>7</ele>
        <time>2022-04-17T12:09:17Z</time>
      </trkpt>
      <trkpt lat="50.03285" lon="1.95123">
        <ele>7</ele>
        <time>2022-04-17T12:09:18Z</time>
      </trkpt>
      <trkpt lat="50.03284" lon="1.95121">
        <ele>7</ele>
        <time>2022-04-17T12:09:19Z</time>
      </trkpt>
      <trkpt lat="50.03284" lon="1.9512">
        <ele>7</ele>
        <time>2022-04-17T12:09:20Z</time>
      </trkpt>
      <trkpt lat="50.03284" lon="1.95118">
        <ele>7</ele>
        <time>2022-04-17T12:09:21Z</time>
      </trkpt>
      <trkpt lat="50.03284" lon="1.95117">
        <ele>7</ele>
        <time>2022-04-17T12:09:23Z</time>
      </trkpt>
      <trkpt lat="50.03283" lon="1.95115">
        <ele>7</ele>
        <time>2022-04-17T12:09:24Z</time>
      </trkpt>
      <trkpt lat="50.03282" lon="1.95112">
        <ele>7</ele>
        <time>2022-04-17T12:09:25Z</time>
      </trkpt>
      <trkpt lat="50.03282" lon="1.95111">
        <ele>7</ele>
        <time>2022-04-17T12:09:26Z</time>
      </trkpt>
      <trkpt lat="50.03282" lon="1.9511">
        <ele>7</ele>
        <time>2022-04-17T12:09:27Z</time>
      </trkpt>
      <trkpt lat="50.03281" lon="1.95108">
        <ele>7</ele>
        <time>2022-04-17T12:09:28Z</time>
      </trkpt>
      <trkpt lat="50.03281" lon="1.95106">
        <ele>7</ele>
        <time>2022-04-17T12:09:29Z</time>
      </trkpt>
      <trkpt lat="50.0328" lon="1.95103">
        <ele>7</ele>
        <time>2022-04-17T12:09:30Z</time>
      </trkpt>
      <trkpt lat="50.0328" lon="1.95101">
        <ele>7</ele>
        <time>2022-04-17T12:09:32Z</time>
      </trkpt>
      <trkpt lat="50.03279" lon="1.95099">
        <ele>7</ele>
        <time>2022-04-17T12:09:33Z</time>
      </trkpt>
      <trkpt lat="50.03279" lon="1.95097">
        <ele>7</ele>
        <time>2022-04-17T12:09:35Z</time>
      </trkpt>
      <trkpt lat="50.03279" lon="1.95095">
        <ele>7</ele>
        <time>2022-04-17T12:09:36Z</time>
      </trkpt>
      <trkpt lat="50.03278" lon="1.95094">
        <ele>7</ele>
        <time>2022-04-17T12:09:37Z</time>
      </trkpt>
      <trkpt lat="50.03278" lon="1.95092">
        <ele>7</ele>
        <time>2022-04-17T12:09:38Z</time>
      </trkpt>
      <trkpt lat="50.03278" lon="1.95091">
        <ele>7</ele>
        <time>2022-04-17T12:09:39Z</time>
      </trkpt>
      <trkpt lat="50.03277" lon="1.95087">
        <ele>7</ele>
        <time>2022-04-17T12:09:41Z</time>
      </trkpt>
      <trkpt lat="50.03277" lon="1.95084">
        <ele>7</ele>
        <time>2022-04-17T12:09:43Z</time>
      </trkpt>
      <trkpt lat="50.03277" lon="1.95082">
        <ele>7</ele>
        <time>2022-04-17T12:09:44Z</time>
      </trkpt>
      <trkpt lat="50.03276" lon="1.9508">
        <ele>7</ele>
        <time>2022-04-17T12:09:45Z</time>
      </trkpt>
      <trkpt lat="50.03276" lon="1.95079">
        <ele>7</ele>
        <time>2022-04-17T12:09:46Z</time>
      </trkpt>
      <trkpt lat="50.03276" lon="1.95077">
        <ele>7</ele>
        <time>2022-04-17T12:09:47Z</time>
      </trkpt>
      <trkpt lat="50.03276" lon="1.95075">
        <ele>7</ele>
        <time>2022-04-17T12:09:48Z</time>
      </trkpt>
      <trkpt lat="50.03275" lon="1.95072">
        <ele>7</ele>
        <time>2022-04-17T12:09:50Z</time>
      </trkpt>
      <trkpt lat="50.03275" lon="1.95071">
        <ele>7</ele>
        <time>2022-04-17T12:09:51Z</time>
      </trkpt>
      <trkpt lat="50.03274" lon="1.95067">
        <ele>7</ele>
        <time>2022-04-17T12:09:53Z</time>
      </trkpt>
      <trkpt lat="50.03274" lon="1.95066">
        <ele>7</ele>
        <time>2022-04-17T12:09:54Z</time>
      </trkpt>
      <trkpt lat="50.03274" lon="1.95064">
        <ele>7</ele>
        <time>2022-04-17T12:09:55Z</time>
      </trkpt>
      <trkpt lat="50.03273" lon="1.95062">
        <ele>7</ele>
        <time>2022-04-17T12:09:56Z</time>
      </trkpt>
      <trkpt lat="50.03273" lon="1.95061">
        <ele>7</ele>
        <time>2022-04-17T12:09:58Z</time>
      </trkpt>
      <trkpt lat="50.03272" lon="1.95058">
        <ele>7</ele>
        <time>2022-04-17T12:09:59Z</time>
      </trkpt>
      <trkpt lat="50.03271" lon="1.95056">
        <ele>7</ele>
        <time>2022-04-17T12:10:00Z</time>
      </trkpt>
      <trkpt lat="50.03271" lon="1.95055">
        <ele>7</ele>
        <time>2022-04-17T12:10:01Z</time>
      </trkpt>
      <trkpt lat="50.0327" lon="1.95054">
        <ele>7</ele>
        <time>2022-04-17T12:10:02Z</time>
      </trkpt>
      <trkpt lat="50.03269" lon="1.95053">
        <ele>7</ele>
        <time>2022-04-17T12:10:03Z</time>
      </trkpt>
      <trkpt lat="50.03269" lon="1.95051">
        <ele>6.9</ele>
        <time>2022-04-17T12:10:04Z</time>
      </trkpt>
      <trkpt lat="50.03268" lon="1.95049">
        <ele>6.9</ele>
        <time>2022-04-17T12:10:05Z</time>
      </trkpt>
      <trkpt lat="50.03268" lon="1.95047">
        <ele>6.9</ele>
        <time>2022-04-17T12:10:06Z</time>
      </trkpt>
      <trkpt lat="50.03267" lon="1.95045">
        <ele>6.9</ele>
        <time>2022-04-17T12:10:08Z</time>
      </trkpt>
      <trkpt lat="50.03267" lon="1.95043">
        <ele>6.9</ele>
        <time>2022-04-17T12:10:09Z</time>
      </trkpt>
      <trkpt lat="50.03267" lon="1.95042">
        <ele>6.9</ele>
        <time>2022-04-17T12:10:10Z</time>
      </trkpt>
      <trkpt lat="50.03266" lon="1.9504">
        <ele>6.9</ele>
        <time>2022-04-17T12:10:11Z</time>
      </trkpt>
      <trkpt lat="50.03266" lon="1.95039">
        <ele>6.9</ele>
        <time>2022-04-17T12:10:12Z</time>
      </trkpt>
      <trkpt lat="50.03265" lon="1.95037">
        <ele>6.9</ele>
        <time>2022-04-17T12:10:13Z</time>
      </trkpt>
      <trkpt lat="50.03265" lon="1.95036">
        <ele>6.9</ele>
        <time>2022-04-17T12:10:14Z</time>
      </trkpt>
      <trkpt lat="50.03264" lon="1.95033">
        <ele>6.9</ele>
        <time>2022-04-17T12:10:15Z</time>
      </trkpt>
      <trkpt lat="50.03264" lon="1.95032">
        <ele>6.9</ele>
        <time>2022-04-17T12:10:16Z</time>
      </trkpt>
      <trkpt lat="50.03264" lon="1.9503">
        <ele>6.9</ele>
        <time>2022-04-17T12:10:17Z</time>
      </trkpt>
      <trkpt lat="50.03263" lon="1.95029">
        <ele>6.9</ele>
        <time>2022-04-17T12:10:18Z</time>
      </trkpt>
      <trkpt lat="50.03262" lon="1.95025">
        <ele>6.9</ele>
        <time>2022-04-17T12:10:19Z</time>
      </trkpt>
      <trkpt lat="50.03262" lon="1.95023">
        <ele>6.9</ele>
        <time>2022-04-17T12:10:21Z</time>
      </trkpt>
      <trkpt lat="50.03261" lon="1.95021">
        <ele>6.9</ele>
        <time>2022-04-17T12:10:22Z</time>
      </trkpt>
      <trkpt lat="50.03261" lon="1.9502">
        <ele>6.9</ele>
        <time>2022-04-17T12:10:23Z</time>
      </trkpt>
      <trkpt lat="50.03261" lon="1.95018">
        <ele>6.9</ele>
        <time>2022-04-17T12:10:24Z</time>
      </trkpt>
      <trkpt lat="50.0326" lon="1.95016">
        <ele>6.9</ele>
        <time>2022-04-17T12:10:26Z</time>
      </trkpt>
      <trkpt lat="50.03259" lon="1.95014">
        <ele>6.8</ele>
        <time>2022-04-17T12:10:27Z</time>
      </trkpt>
      <trkpt lat="50.03257" lon="1.95009">
        <ele>6.8</ele>
        <time>2022-04-17T12:10:29Z</time>
      </trkpt>
      <trkpt lat="50.03257" lon="1.95008">
        <ele>6.8</ele>
        <time>2022-04-17T12:10:30Z</time>
      </trkpt>
      <trkpt lat="50.03256" lon="1.95007">
        <ele>6.8</ele>
        <time>2022-04-17T12:10:31Z</time>
      </trkpt>
      <trkpt lat="50.03256" lon="1.95005">
        <ele>6.8</ele>
        <time>2022-04-17T12:10:33Z</time>
      </trkpt>
      <trkpt lat="50.03255" lon="1.95004">
        <ele>6.8</ele>
        <time>2022-04-17T12:10:34Z</time>
      </trkpt>
      <trkpt lat="50.03254" lon="1.95002">
        <ele>6.8</ele>
        <time>2022-04-17T12:10:36Z</time>
      </trkpt>
      <trkpt lat="50.03253" lon="1.95">
        <ele>6.8</ele>
        <time>2022-04-17T12:10:37Z</time>
      </trkpt>
      <trkpt lat="50.03252" lon="1.94997">
        <ele>6.8</ele>
        <time>2022-04-17T12:10:38Z</time>
      </trkpt>
      <trkpt lat="50.03252" lon="1.94996">
        <ele>6.8</ele>
        <time>2022-04-17T12:10:39Z</time>
      </trkpt>
      <trkpt lat="50.03251" lon="1.94995">
        <ele>6.8</ele>
        <time>2022-04-17T12:10:40Z</time>
      </trkpt>
      <trkpt lat="50.03251" lon="1.94993">
        <ele>6.8</ele>
        <time>2022-04-17T12:10:41Z</time>
      </trkpt>
      <trkpt lat="50.03251" lon="1.94991">
        <ele>6.8</ele>
        <time>2022-04-17T12:10:42Z</time>
      </trkpt>
      <trkpt lat="50.0325" lon="1.9499">
        <ele>6.8</ele>
        <time>2022-04-17T12:10:43Z</time>
      </trkpt>
      <trkpt lat="50.03249" lon="1.94987">
        <ele>6.7</ele>
        <time>2022-04-17T12:10:44Z</time>
      </trkpt>
      <trkpt lat="50.03249" lon="1.94985">
        <ele>6.7</ele>
        <time>2022-04-17T12:10:46Z</time>
      </trkpt>
      <trkpt lat="50.03248" lon="1.94983">
        <ele>6.7</ele>
        <time>2022-04-17T12:10:47Z</time>
      </trkpt>
      <trkpt lat="50.03248" lon="1.94982">
        <ele>6.7</ele>
        <time>2022-04-17T12:10:48Z</time>
      </trkpt>
      <trkpt lat="50.03247" lon="1.9498">
        <ele>6.7</ele>
        <time>2022-04-17T12:10:49Z</time>
      </trkpt>
      <trkpt lat="50.03247" lon="1.94977">
        <ele>6.7</ele>
        <time>2022-04-17T12:10:51Z</time>
      </trkpt>
      <trkpt lat="50.03246" lon="1.94975">
        <ele>6.7</ele>
        <time>2022-04-17T12:10:52Z</time>
      </trkpt>
      <trkpt lat="50.03247" lon="1.94973">
        <ele>6.7</ele>
        <time>2022-04-17T12:10:53Z</time>
      </trkpt>
      <trkpt lat="50.03247" lon="1.94971">
        <ele>6.7</ele>
        <time>2022-04-17T12:10:54Z</time>
      </trkpt>
      <trkpt lat="50.03247" lon="1.94968">
        <ele>6.7</ele>
        <time>2022-04-17T12:10:56Z</time>
      </trkpt>
      <trkpt lat="50.03248" lon="1.94965">
        <ele>6.7</ele>
        <time>2022-04-17T12:10:57Z</time>
      </trkpt>
      <trkpt lat="50.03248" lon="1.94964">
        <ele>6.7</ele>
        <time>2022-04-17T12:10:58Z</time>
      </trkpt>
      <trkpt lat="50.03249" lon="1.94963">
        <ele>6.7</ele>
        <time>2022-04-17T12:10:59Z</time>
      </trkpt>
      <trkpt lat="50.03249" lon="1.94961">
        <ele>6.7</ele>
        <time>2022-04-17T12:11:00Z</time>
      </trkpt>
      <trkpt lat="50.0325" lon="1.94959">
        <ele>6.7</ele>
        <time>2022-04-17T12:11:01Z</time>
      </trkpt>
      <trkpt lat="50.03252" lon="1.94959">
        <ele>6.7</ele>
        <time>2022-04-17T12:11:03Z</time>
      </trkpt>
      <trkpt lat="50.03253" lon="1.94958">
        <ele>6.7</ele>
        <time>2022-04-17T12:11:04Z</time>
      </trkpt>
      <trkpt lat="50.03254" lon="1.94957">
        <ele>6.7</ele>
        <time>2022-04-17T12:11:05Z</time>
      </trkpt>
      <trkpt lat="50.03255" lon="1.94957">
        <ele>6.7</ele>
        <time>2022-04-17T12:11:06Z</time>
      </trkpt>
      <trkpt lat="50.03257" lon="1.94956">
        <ele>6.7</ele>
        <time>2022-04-17T12:11:07Z</time>
      </trkpt>
      <trkpt lat="50.03258" lon="1.94956">
        <ele>6.7</ele>
        <time>2022-04-17T12:11:09Z</time>
      </trkpt>
      <trkpt lat="50.03259" lon="1.94957">
        <ele>6.7</ele>
        <time>2022-04-17T12:11:10Z</time>
      </trkpt>
      <trkpt lat="50.0326" lon="1.94957">
        <ele>6.7</ele>
        <time>2022-04-17T12:11:11Z</time>
      </trkpt>
      <trkpt lat="50.03261" lon="1.94957">
        <ele>6.7</ele>
        <time>2022-04-17T12:11:12Z</time>
      </trkpt>
      <trkpt lat="50.03262" lon="1.94957">
        <ele>6.7</ele>
        <time>2022-04-17T12:11:14Z</time>
      </trkpt>
      <trkpt lat="50.03263" lon="1.94958">
        <ele>6.7</ele>
        <time>2022-04-17T12:11:15Z</time>
      </trkpt>
      <trkpt lat="50.03265" lon="1.94958">
        <ele>6.7</ele>
        <time>2022-04-17T12:11:16Z</time>
      </trkpt>
      <trkpt lat="50.03266" lon="1.94958">
        <ele>6.7</ele>
        <time>2022-04-17T12:11:17Z</time>
      </trkpt>
      <trkpt lat="50.03267" lon="1.94958">
        <ele>6.7</ele>
        <time>2022-04-17T12:11:18Z</time>
      </trkpt>
      <trkpt lat="50.03268" lon="1.94958">
        <ele>6.7</ele>
        <time>2022-04-17T12:11:20Z</time>
      </trkpt>
      <trkpt lat="50.0327" lon="1.94958">
        <ele>6.7</ele>
        <time>2022-04-17T12:11:21Z</time>
      </trkpt>
      <trkpt lat="50.03271" lon="1.94958">
        <ele>6.7</ele>
        <time>2022-04-17T12:11:22Z</time>
      </trkpt>
      <trkpt lat="50.03273" lon="1.94959">
        <ele>6.6</ele>
        <time>2022-04-17T12:11:23Z</time>
      </trkpt>
      <trkpt lat="50.03274" lon="1.94959">
        <ele>6.6</ele>
        <time>2022-04-17T12:11:24Z</time>
      </trkpt>
      <trkpt lat="50.03275" lon="1.94959">
        <ele>6.6</ele>
        <time>2022-04-17T12:11:25Z</time>
      </trkpt>
      <trkpt lat="50.03277" lon="1.9496">
        <ele>6.6</ele>
        <time>2022-04-17T12:11:26Z</time>
      </trkpt>
      <trkpt lat="50.03278" lon="1.9496">
        <ele>6.6</ele>
        <time>2022-04-17T12:11:28Z</time>
      </trkpt>
      <trkpt lat="50.03279" lon="1.9496">
        <ele>6.6</ele>
        <time>2022-04-17T12:11:29Z</time>
      </trkpt>
      <trkpt lat="50.0328" lon="1.94961">
        <ele>6.6</ele>
        <time>2022-04-17T12:11:30Z</time>
      </trkpt>
      <trkpt lat="50.03282" lon="1.94961">
        <ele>6.6</ele>
        <time>2022-04-17T12:11:31Z</time>
      </trkpt>
      <trkpt lat="50.03283" lon="1.94961">
        <ele>6.6</ele>
        <time>2022-04-17T12:11:32Z</time>
      </trkpt>
      <trkpt lat="50.03284" lon="1.94961">
        <ele>6.6</ele>
        <time>2022-04-17T12:11:33Z</time>
      </trkpt>
      <trkpt lat="50.03285" lon="1.94962">
        <ele>6.6</ele>
        <time>2022-04-17T12:11:34Z</time>
      </trkpt>
      <trkpt lat="50.03287" lon="1.94962">
        <ele>6.6</ele>
        <time>2022-04-17T12:11:36Z</time>
      </trkpt>
      <trkpt lat="50.03288" lon="1.94962">
        <ele>6.6</ele>
        <time>2022-04-17T12:11:37Z</time>
      </trkpt>
      <trkpt lat="50.03289" lon="1.94962">
        <ele>6.6</ele>
        <time>2022-04-17T12:11:38Z</time>
      </trkpt>
      <trkpt lat="50.0329" lon="1.94962">
        <ele>6.5</ele>
        <time>2022-04-17T12:11:39Z</time>
      </trkpt>
      <trkpt lat="50.03292" lon="1.94963">
        <ele>6.5</ele>
        <time>2022-04-17T12:11:41Z</time>
      </trkpt>
      <trkpt lat="50.03293" lon="1.94963">
        <ele>6.5</ele>
        <time>2022-04-17T12:11:42Z</time>
      </trkpt>
      <trkpt lat="50.03294" lon="1.94963">
        <ele>6.5</ele>
        <time>2022-04-17T12:11:43Z</time>
      </trkpt>
      <trkpt lat="50.03296" lon="1.94963">
        <ele>6.5</ele>
        <time>2022-04-17T12:11:44Z</time>
      </trkpt>
      <trkpt lat="50.03298" lon="1.94964">
        <ele>6.5</ele>
        <time>2022-04-17T12:11:46Z</time>
      </trkpt>
      <trkpt lat="50.03299" lon="1.94964">
        <ele>6.5</ele>
        <time>2022-04-17T12:11:47Z</time>
      </trkpt>
      <trkpt lat="50.033" lon="1.94964">
        <ele>6.5</ele>
        <time>2022-04-17T12:11:48Z</time>
      </trkpt>
      <trkpt lat="50.03301" lon="1.94964">
        <ele>6.5</ele>
        <time>2022-04-17T12:11:50Z</time>
      </trkpt>
      <trkpt lat="50.03303" lon="1.94965">
        <ele>6.5</ele>
        <time>2022-04-17T12:11:51Z</time>
      </trkpt>
      <trkpt lat="50.03304" lon="1.94965">
        <ele>6.5</ele>
        <time>2022-04-17T12:11:52Z</time>
      </trkpt>
      <trkpt lat="50.03306" lon="1.94965">
        <ele>6.5</ele>
        <time>2022-04-17T12:11:53Z</time>
      </trkpt>
      <trkpt lat="50.03307" lon="1.94966">
        <ele>6.5</ele>
        <time>2022-04-17T12:11:54Z</time>
      </trkpt>
      <trkpt lat="50.03308" lon="1.94966">
        <ele>6.5</ele>
        <time>2022-04-17T12:11:55Z</time>
      </trkpt>
      <trkpt lat="50.0331" lon="1.94966">
        <ele>6.5</ele>
        <time>2022-04-17T12:11:57Z</time>
      </trkpt>
      <trkpt lat="50.03311" lon="1.94966">
        <ele>6.5</ele>
        <time>2022-04-17T12:11:58Z</time>
      </trkpt>
      <trkpt lat="50.03312" lon="1.94966">
        <ele>6.5</ele>
        <time>2022-04-17T12:11:59Z</time>
      </trkpt>
      <trkpt lat="50.03313" lon="1.94966">
        <ele>6.5</ele>
        <time>2022-04-17T12:12:00Z</time>
      </trkpt>
      <trkpt lat="50.03315" lon="1.94966">
        <ele>6.5</ele>
        <time>2022-04-17T12:12:01Z</time>
      </trkpt>
      <trkpt lat="50.03316" lon="1.94966">
        <ele>6.5</ele>
        <time>2022-04-17T12:12:02Z</time>
      </trkpt>
      <trkpt lat="50.03317" lon="1.94966">
        <ele>6.5</ele>
        <time>2022-04-17T12:12:04Z</time>
      </trkpt>
      <trkpt lat="50.03318" lon="1.94966">
        <ele>6.5</ele>
        <time>2022-04-17T12:12:05Z</time>
      </trkpt>
      <trkpt lat="50.0332" lon="1.94965">
        <ele>6.5</ele>
        <time>2022-04-17T12:12:06Z</time>
      </trkpt>
      <trkpt lat="50.03321" lon="1.94965">
        <ele>6.5</ele>
        <time>2022-04-17T12:12:07Z</time>
      </trkpt>
      <trkpt lat="50.03322" lon="1.94965">
        <ele>6.5</ele>
        <time>2022-04-17T12:12:09Z</time>
      </trkpt>
      <trkpt lat="50.03323" lon="1.94965">
        <ele>6.5</ele>
        <time>2022-04-17T12:12:10Z</time>
      </trkpt>
      <trkpt lat="50.03325" lon="1.94965">
        <ele>6.5</ele>
        <time>2022-04-17T12:12:11Z</time>
      </trkpt>
      <trkpt lat="50.03326" lon="1.94965">
        <ele>6.5</ele>
        <time>2022-04-17T12:12:12Z</time>
      </trkpt>
      <trkpt lat="50.03327" lon="1.94964">
        <ele>6.5</ele>
        <time>2022-04-17T12:12:13Z</time>
      </trkpt>
      <trkpt lat="50.03328" lon="1.94964">
        <ele>6.5</ele>
        <time>2022-04-17T12:12:14Z</time>
      </trkpt>
      <trkpt lat="50.0333" lon="1.94964">
        <ele>6.5</ele>
        <time>2022-04-17T12:12:15Z</time>
      </trkpt>
      <trkpt lat="50.03331" lon="1.94963">
        <ele>6.5</ele>
        <time>2022-04-17T12:12:16Z</time>
      </trkpt>
      <trkpt lat="50.03332" lon="1.94963">
        <ele>6.5</ele>
        <time>2022-04-17T12:12:17Z</time>
      </trkpt>
      <trkpt lat="50.03334" lon="1.94963">
        <ele>6.5</ele>
        <time>2022-04-17T12:12:19Z</time>
      </trkpt>
      <trkpt lat="50.03335" lon="1.94962">
        <ele>6.5</ele>
        <time>2022-04-17T12:12:20Z</time>
      </trkpt>
      <trkpt lat="50.03337" lon="1.94962">
        <ele>6.5</ele>
        <time>2022-04-17T12:12:21Z</time>
      </trkpt>
      <trkpt lat="50.03338" lon="1.94962">
        <ele>6.5</ele>
        <time>2022-04-17T12:12:22Z</time>
      </trkpt>
      <trkpt lat="50.03339" lon="1.94962">
        <ele>6.5</ele>
        <time>2022-04-17T12:12:23Z</time>
      </trkpt>
      <trkpt lat="50.0334" lon="1.94962">
        <ele>6.5</ele>
        <time>2022-04-17T12:12:24Z</time>
      </trkpt>
      <trkpt lat="50.03341" lon="1.94962">
        <ele>6.5</ele>
        <time>2022-04-17T12:12:25Z</time>
      </trkpt>
      <trkpt lat="50.03343" lon="1.94962">
        <ele>6.5</ele>
        <time>2022-04-17T12:12:26Z</time>
      </trkpt>
      <trkpt lat="50.03345" lon="1.94962">
        <ele>6.5</ele>
        <time>2022-04-17T12:12:27Z</time>
      </trkpt>
      <trkpt lat="50.03346" lon="1.94962">
        <ele>6.5</ele>
        <time>2022-04-17T12:12:29Z</time>
      </trkpt>
      <trkpt lat="50.03347" lon="1.94962">
        <ele>6.5</ele>
        <time>2022-04-17T12:12:30Z</time>
      </trkpt>
      <trkpt lat="50.03349" lon="1.94962">
        <ele>6.5</ele>
        <time>2022-04-17T12:12:31Z</time>
      </trkpt>
      <trkpt lat="50.0335" lon="1.94962">
        <ele>6.5</ele>
        <time>2022-04-17T12:12:32Z</time>
      </trkpt>
      <trkpt lat="50.03351" lon="1.94962">
        <ele>6.5</ele>
        <time>2022-04-17T12:12:33Z</time>
      </trkpt>
      <trkpt lat="50.03352" lon="1.94962">
        <ele>6.5</ele>
        <time>2022-04-17T12:12:34Z</time>
      </trkpt>
      <trkpt lat="50.03353" lon="1.94962">
        <ele>6.5</ele>
        <time>2022-04-17T12:12:35Z</time>
      </trkpt>
      <trkpt lat="50.03355" lon="1.94961">
        <ele>6.5</ele>
        <time>2022-04-17T12:12:37Z</time>
      </trkpt>
      <trkpt lat="50.03356" lon="1.94961">
        <ele>6.5</ele>
        <time>2022-04-17T12:12:38Z</time>
      </trkpt>
      <trkpt lat="50.03357" lon="1.94961">
        <ele>6.5</ele>
        <time>2022-04-17T12:12:39Z</time>
      </trkpt>
      <trkpt lat="50.03358" lon="1.94961">
        <ele>6.5</ele>
        <time>2022-04-17T12:12:40Z</time>
      </trkpt>
      <trkpt lat="50.0336" lon="1.94961">
        <ele>6.5</ele>
        <time>2022-04-17T12:12:41Z</time>
      </trkpt>
      <trkpt lat="50.03361" lon="1.94961">
        <ele>6.5</ele>
        <time>2022-04-17T12:12:42Z</time>
      </trkpt>
      <trkpt lat="50.03362" lon="1.94961">
        <ele>6.5</ele>
        <time>2022-04-17T12:12:43Z</time>
      </trkpt>
      <trkpt lat="50.03363" lon="1.94961">
        <ele>6.4</ele>
        <time>2022-04-17T12:12:44Z</time>
      </trkpt>
      <trkpt lat="50.03365" lon="1.94961">
        <ele>6.4</ele>
        <time>2022-04-17T12:12:46Z</time>
      </trkpt>
      <trkpt lat="50.03366" lon="1.94961">
        <ele>6.4</ele>
        <time>2022-04-17T12:12:47Z</time>
      </trkpt>
      <trkpt lat="50.03367" lon="1.94961">
        <ele>6.4</ele>
        <time>2022-04-17T12:12:48Z</time>
      </trkpt>
      <trkpt lat="50.03369" lon="1.94961">
        <ele>6.4</ele>
        <time>2022-04-17T12:12:50Z</time>
      </trkpt>
      <trkpt lat="50.0337" lon="1.94961">
        <ele>6.4</ele>
        <time>2022-04-17T12:12:51Z</time>
      </trkpt>
      <trkpt lat="50.03371" lon="1.9496">
        <ele>6.4</ele>
        <time>2022-04-17T12:12:52Z</time>
      </trkpt>
      <trkpt lat="50.03373" lon="1.9496">
        <ele>6.4</ele>
        <time>2022-04-17T12:12:53Z</time>
      </trkpt>
      <trkpt lat="50.03374" lon="1.9496">
        <ele>6.4</ele>
        <time>2022-04-17T12:12:54Z</time>
      </trkpt>
      <trkpt lat="50.03375" lon="1.9496">
        <ele>6.4</ele>
        <time>2022-04-17T12:12:55Z</time>
      </trkpt>
      <trkpt lat="50.03377" lon="1.9496">
        <ele>6.3</ele>
        <time>2022-04-17T12:12:56Z</time>
      </trkpt>
      <trkpt lat="50.03378" lon="1.9496">
        <ele>6.3</ele>
        <time>2022-04-17T12:12:57Z</time>
      </trkpt>
      <trkpt lat="50.03379" lon="1.9496">
        <ele>6.3</ele>
        <time>2022-04-17T12:12:58Z</time>
      </trkpt>
      <trkpt lat="50.0338" lon="1.9496">
        <ele>6.3</ele>
        <time>2022-04-17T12:13:00Z</time>
      </trkpt>
      <trkpt lat="50.03381" lon="1.9496">
        <ele>6.3</ele>
        <time>2022-04-17T12:13:01Z</time>
      </trkpt>
      <trkpt lat="50.03383" lon="1.9496">
        <ele>6.3</ele>
        <time>2022-04-17T12:13:02Z</time>
      </trkpt>
      <trkpt lat="50.03384" lon="1.9496">
        <ele>6.3</ele>
        <time>2022-04-17T12:13:03Z</time>
      </trkpt>
      <trkpt lat="50.03385" lon="1.9496">
        <ele>6.3</ele>
        <time>2022-04-17T12:13:04Z</time>
      </trkpt>
      <trkpt lat="50.03386" lon="1.9496">
        <ele>6.3</ele>
        <time>2022-04-17T12:13:05Z</time>
      </trkpt>
      <trkpt lat="50.03388" lon="1.9496">
        <ele>6.3</ele>
        <time>2022-04-17T12:13:06Z</time>
      </trkpt>
      <trkpt lat="50.03389" lon="1.9496">
        <ele>6.3</ele>
        <time>2022-04-17T12:13:07Z</time>
      </trkpt>
      <trkpt lat="50.0339" lon="1.9496">
        <ele>6.3</ele>
        <time>2022-04-17T12:13:08Z</time>
      </trkpt>
      <trkpt lat="50.03391" lon="1.9496">
        <ele>6.3</ele>
        <time>2022-04-17T12:13:09Z</time>
      </trkpt>
      <trkpt lat="50.03392" lon="1.9496">
        <ele>6.3</ele>
        <time>2022-04-17T12:13:10Z</time>
      </trkpt>
      <trkpt lat="50.03393" lon="1.9496">
        <ele>6.3</ele>
        <time>2022-04-17T12:13:11Z</time>
      </trkpt>
      <trkpt lat="50.03394" lon="1.9496">
        <ele>6.3</ele>
        <time>2022-04-17T12:13:12Z</time>
      </trkpt>
      <trkpt lat="50.03396" lon="1.9496">
        <ele>6.3</ele>
        <time>2022-04-17T12:13:14Z</time>
      </trkpt>
      <trkpt lat="50.03397" lon="1.9496">
        <ele>6.3</ele>
        <time>2022-04-17T12:13:15Z</time>
      </trkpt>
      <trkpt lat="50.03398" lon="1.9496">
        <ele>6.3</ele>
        <time>2022-04-17T12:13:16Z</time>
      </trkpt>
      <trkpt lat="50.03399" lon="1.9496">
        <ele>6.3</ele>
        <time>2022-04-17T12:13:17Z</time>
      </trkpt>
      <trkpt lat="50.034" lon="1.9496">
        <ele>6.3</ele>
        <time>2022-04-17T12:13:18Z</time>
      </trkpt>
      <trkpt lat="50.03401" lon="1.9496">
        <ele>6.3</ele>
        <time>2022-04-17T12:13:19Z</time>
      </trkpt>
      <trkpt lat="50.03403" lon="1.9496">
        <ele>6.3</ele>
        <time>2022-04-17T12:13:20Z</time>
      </trkpt>
      <trkpt lat="50.03404" lon="1.9496">
        <ele>6.3</ele>
        <time>2022-04-17T12:13:21Z</time>
      </trkpt>
      <trkpt lat="50.03406" lon="1.94959">
        <ele>6.3</ele>
        <time>2022-04-17T12:13:23Z</time>
      </trkpt>
      <trkpt lat="50.03407" lon="1.94959">
        <ele>6.3</ele>
        <time>2022-04-17T12:13:24Z</time>
      </trkpt>
      <trkpt lat="50.03408" lon="1.94958">
        <ele>6.3</ele>
        <time>2022-04-17T12:13:25Z</time>
      </trkpt>
      <trkpt lat="50.0341" lon="1.94958">
        <ele>6.3</ele>
        <time>2022-04-17T12:13:26Z</time>
      </trkpt>
      <trkpt lat="50.03411" lon="1.94958">
        <ele>6.3</ele>
        <time>2022-04-17T12:13:28Z</time>
      </trkpt>
      <trkpt lat="50.03412" lon="1.94958">
        <ele>6.3</ele>
        <time>2022-04-17T12:13:29Z</time>
      </trkpt>
      <trkpt lat="50.03414" lon="1.94958">
        <ele>6.3</ele>
        <time>2022-04-17T12:13:30Z</time>
      </trkpt>
      <trkpt lat="50.03416" lon="1.94958">
        <ele>6.3</ele>
        <time>2022-04-17T12:13:32Z</time>
      </trkpt>
      <trkpt lat="50.03417" lon="1.94958">
        <ele>6.3</ele>
        <time>2022-04-17T12:13:33Z</time>
      </trkpt>
      <trkpt lat="50.03418" lon="1.94957">
        <ele>6.3</ele>
        <time>2022-04-17T12:13:34Z</time>
      </trkpt>
      <trkpt lat="50.03419" lon="1.94957">
        <ele>6.3</ele>
        <time>2022-04-17T12:13:36Z</time>
      </trkpt>
      <trkpt lat="50.0342" lon="1.94957">
        <ele>6.3</ele>
        <time>2022-04-17T12:13:37Z</time>
      </trkpt>
      <trkpt lat="50.03422" lon="1.94957">
        <ele>6.3</ele>
        <time>2022-04-17T12:13:38Z</time>
      </trkpt>
      <trkpt lat="50.03423" lon="1.94957">
        <ele>6.3</ele>
        <time>2022-04-17T12:13:39Z</time>
      </trkpt>
      <trkpt lat="50.03426" lon="1.94957">
        <ele>6.3</ele>
        <time>2022-04-17T12:13:41Z</time>
      </trkpt>
      <trkpt lat="50.03427" lon="1.94957">
        <ele>6.3</ele>
        <time>2022-04-17T12:13:42Z</time>
      </trkpt>
      <trkpt lat="50.03428" lon="1.94957">
        <ele>6.3</ele>
        <time>2022-04-17T12:13:43Z</time>
      </trkpt>
      <trkpt lat="50.03429" lon="1.94957">
        <ele>6.3</ele>
        <time>2022-04-17T12:13:45Z</time>
      </trkpt>
      <trkpt lat="50.0343" lon="1.94957">
        <ele>6.3</ele>
        <time>2022-04-17T12:13:46Z</time>
      </trkpt>
      <trkpt lat="50.03432" lon="1.94957">
        <ele>6.3</ele>
        <time>2022-04-17T12:13:47Z</time>
      </trkpt>
      <trkpt lat="50.03433" lon="1.94957">
        <ele>6.3</ele>
        <time>2022-04-17T12:13:48Z</time>
      </trkpt>
      <trkpt lat="50.03434" lon="1.94957">
        <ele>6.4</ele>
        <time>2022-04-17T12:13:50Z</time>
      </trkpt>
      <trkpt lat="50.03436" lon="1.94957">
        <ele>6.4</ele>
        <time>2022-04-17T12:13:51Z</time>
      </trkpt>
      <trkpt lat="50.03437" lon="1.94957">
        <ele>6.4</ele>
        <time>2022-04-17T12:13:52Z</time>
      </trkpt>
      <trkpt lat="50.03439" lon="1.94957">
        <ele>6.4</ele>
        <time>2022-04-17T12:13:53Z</time>
      </trkpt>
      <trkpt lat="50.0344" lon="1.94957">
        <ele>6.4</ele>
        <time>2022-04-17T12:13:54Z</time>
      </trkpt>
      <trkpt lat="50.03441" lon="1.94957">
        <ele>6.4</ele>
        <time>2022-04-17T12:13:55Z</time>
      </trkpt>
      <trkpt lat="50.03444" lon="1.94958">
        <ele>6.4</ele>
        <time>2022-04-17T12:13:56Z</time>
      </trkpt>
      <trkpt lat="50.03444" lon="1.94958">
        <ele>6.4</ele>
        <time>2022-04-17T12:13:57Z</time>
      </trkpt>
      <trkpt lat="50.03445" lon="1.94958">
        <ele>6.4</ele>
        <time>2022-04-17T12:13:58Z</time>
      </trkpt>
      <trkpt lat="50.03446" lon="1.94958">
        <ele>6.4</ele>
        <time>2022-04-17T12:14:00Z</time>
      </trkpt>
      <trkpt lat="50.03448" lon="1.94959">
        <ele>6.4</ele>
        <time>2022-04-17T12:14:01Z</time>
      </trkpt>
      <trkpt lat="50.0345" lon="1.94959">
        <ele>6.4</ele>
        <time>2022-04-17T12:14:02Z</time>
      </trkpt>
      <trkpt lat="50.03451" lon="1.94959">
        <ele>6.4</ele>
        <time>2022-04-17T12:14:03Z</time>
      </trkpt>
      <trkpt lat="50.03453" lon="1.94959">
        <ele>6.3</ele>
        <time>2022-04-17T12:14:04Z</time>
      </trkpt>
      <trkpt lat="50.03454" lon="1.94959">
        <ele>6.3</ele>
        <time>2022-04-17T12:14:05Z</time>
      </trkpt>
      <trkpt lat="50.03455" lon="1.94959">
        <ele>6.3</ele>
        <time>2022-04-17T12:14:06Z</time>
      </trkpt>
      <trkpt lat="50.03456" lon="1.94959">
        <ele>6.3</ele>
        <time>2022-04-17T12:14:07Z</time>
      </trkpt>
      <trkpt lat="50.03457" lon="1.94959">
        <ele>6.3</ele>
        <time>2022-04-17T12:14:08Z</time>
      </trkpt>
      <trkpt lat="50.0346" lon="1.94959">
        <ele>6.3</ele>
        <time>2022-04-17T12:14:10Z</time>
      </trkpt>
      <trkpt lat="50.03462" lon="1.94959">
        <ele>6.3</ele>
        <time>2022-04-17T12:14:11Z</time>
      </trkpt>
      <trkpt lat="50.03463" lon="1.94959">
        <ele>6.3</ele>
        <time>2022-04-17T12:14:12Z</time>
      </trkpt>
      <trkpt lat="50.03463" lon="1.94959">
        <ele>6.3</ele>
        <time>2022-04-17T12:14:13Z</time>
      </trkpt>
      <trkpt lat="50.03465" lon="1.94959">
        <ele>6.2</ele>
        <time>2022-04-17T12:14:15Z</time>
      </trkpt>
      <trkpt lat="50.03466" lon="1.94959">
        <ele>6.2</ele>
        <time>2022-04-17T12:14:16Z</time>
      </trkpt>
      <trkpt lat="50.03467" lon="1.94959">
        <ele>6.2</ele>
        <time>2022-04-17T12:14:17Z</time>
      </trkpt>
      <trkpt lat="50.03469" lon="1.94959">
        <ele>6.2</ele>
        <time>2022-04-17T12:14:18Z</time>
      </trkpt>
      <trkpt lat="50.0347" lon="1.94959">
        <ele>6.2</ele>
        <time>2022-04-17T12:14:19Z</time>
      </trkpt>
      <trkpt lat="50.03471" lon="1.94959">
        <ele>6.2</ele>
        <time>2022-04-17T12:14:20Z</time>
      </trkpt>
      <trkpt lat="50.03472" lon="1.94958">
        <ele>6.2</ele>
        <time>2022-04-17T12:14:21Z</time>
      </trkpt>
      <trkpt lat="50.03473" lon="1.94958">
        <ele>6.2</ele>
        <time>2022-04-17T12:14:23Z</time>
      </trkpt>
      <trkpt lat="50.03474" lon="1.94957">
        <ele>6.2</ele>
        <time>2022-04-17T12:14:24Z</time>
      </trkpt>
      <trkpt lat="50.03475" lon="1.94956">
        <ele>6.2</ele>
        <time>2022-04-17T12:14:25Z</time>
      </trkpt>
      <trkpt lat="50.03476" lon="1.94955">
        <ele>6.2</ele>
        <time>2022-04-17T12:14:26Z</time>
      </trkpt>
      <trkpt lat="50.03476" lon="1.94955">
        <ele>6.2</ele>
        <time>2022-04-17T12:14:27Z</time>
      </trkpt>
      <trkpt lat="50.03476" lon="1.94954">
        <ele>6.2</ele>
        <time>2022-04-17T12:14:28Z</time>
      </trkpt>
      <trkpt lat="50.03476" lon="1.94954">
        <ele>6.2</ele>
        <time>2022-04-17T12:14:30Z</time>
      </trkpt>
      <trkpt lat="50.03476" lon="1.94954">
        <ele>6.2</ele>
        <time>2022-04-17T12:14:31Z</time>
      </trkpt>
      <trkpt lat="50.03476" lon="1.94954">
        <ele>6.2</ele>
        <time>2022-04-17T12:14:32Z</time>
      </trkpt>
      <trkpt lat="50.03477" lon="1.94954">
        <ele>6.2</ele>
        <time>2022-04-17T12:14:33Z</time>
      </trkpt>
      <trkpt lat="50.03477" lon="1.94954">
        <ele>6.2</ele>
        <time>2022-04-17T12:14:34Z</time>
      </trkpt>
      <trkpt lat="50.03477" lon="1.94954">
        <ele>6.2</ele>
        <time>2022-04-17T12:14:35Z</time>
      </trkpt>
      <trkpt lat="50.03477" lon="1.94954">
        <ele>6.2</ele>
        <time>2022-04-17T12:14:36Z</time>
      </trkpt>
      <trkpt lat="50.03477" lon="1.94955">
        <ele>6.2</ele>
        <time>2022-04-17T12:14:37Z</time>
      </trkpt>
      <trkpt lat="50.03477" lon="1.94955">
        <ele>6.2</ele>
        <time>2022-04-17T12:14:39Z</time>
      </trkpt>
      <trkpt lat="50.03477" lon="1.94955">
        <ele>6.2</ele>
        <time>2022-04-17T12:14:40Z</time>
      </trkpt>
      <trkpt lat="50.03477" lon="1.94955">
        <ele>6.2</ele>
        <time>2022-04-17T12:14:41Z</time>
      </trkpt>
      <trkpt lat="50.03477" lon="1.94955">
        <ele>6.2</ele>
        <time>2022-04-17T12:14:42Z</time>
      </trkpt>
      <trkpt lat="50.03477" lon="1.94955">
        <ele>6.2</ele>
        <time>2022-04-17T12:14:43Z</time>
      </trkpt>
      <trkpt lat="50.03477" lon="1.94955">
        <ele>6.2</ele>
        <time>2022-04-17T12:14:44Z</time>
      </trkpt>
      <trkpt lat="50.03477" lon="1.94955">
        <ele>6.2</ele>
        <time>2022-04-17T12:14:46Z</time>
      </trkpt>
      <trkpt lat="50.03477" lon="1.94955">
        <ele>6.2</ele>
        <time>2022-04-17T12:14:47Z</time>
      </trkpt>
      <trkpt lat="50.03477" lon="1.94955">
        <ele>6.2</ele>
        <time>2022-04-17T12:14:48Z</time>
      </trkpt>
      <trkpt lat="50.03478" lon="1.94955">
        <ele>6.2</ele>
        <time>2022-04-17T12:14:49Z</time>
      </trkpt>
      <trkpt lat="50.03479" lon="1.94955">
        <ele>6.2</ele>
        <time>2022-04-17T12:14:50Z</time>
      </trkpt>
      <trkpt lat="50.0348" lon="1.94955">
        <ele>6.2</ele>
        <time>2022-04-17T12:14:51Z</time>
      </trkpt>
      <trkpt lat="50.03481" lon="1.94955">
        <ele>6.2</ele>
        <time>2022-04-17T12:14:53Z</time>
      </trkpt>
      <trkpt lat="50.03482" lon="1.94954">
        <ele>6.2</ele>
        <time>2022-04-17T12:14:54Z</time>
      </trkpt>
      <trkpt lat="50.03483" lon="1.94954">
        <ele>6.2</ele>
        <time>2022-04-17T12:14:55Z</time>
      </trkpt>
      <trkpt lat="50.03483" lon="1.94953">
        <ele>6.2</ele>
        <time>2022-04-17T12:14:56Z</time>
      </trkpt>
      <trkpt lat="50.03484" lon="1.94953">
        <ele>6.2</ele>
        <time>2022-04-17T12:14:57Z</time>
      </trkpt>
      <trkpt lat="50.03485" lon="1.94953">
        <ele>6.2</ele>
        <time>2022-04-17T12:14:58Z</time>
      </trkpt>
      <trkpt lat="50.03486" lon="1.94953">
        <ele>6.2</ele>
        <time>2022-04-17T12:15:00Z</time>
      </trkpt>
      <trkpt lat="50.03487" lon="1.94953">
        <ele>6.2</ele>
        <time>2022-04-17T12:15:01Z</time>
      </trkpt>
      <trkpt lat="50.03488" lon="1.94952">
        <ele>6.2</ele>
        <time>2022-04-17T12:15:02Z</time>
      </trkpt>
      <trkpt lat="50.03489" lon="1.94952">
        <ele>6.2</ele>
        <time>2022-04-17T12:15:03Z</time>
      </trkpt>
      <trkpt lat="50.0349" lon="1.94952">
        <ele>6.2</ele>
        <time>2022-04-17T12:15:04Z</time>
      </trkpt>
      <trkpt lat="50.03491" lon="1.94953">
        <ele>6.2</ele>
        <time>2022-04-17T12:15:05Z</time>
      </trkpt>
      <trkpt lat="50.03493" lon="1.94953">
        <ele>6.2</ele>
        <time>2022-04-17T12:15:06Z</time>
      </trkpt>
      <trkpt lat="50.03494" lon="1.94953">
        <ele>6.2</ele>
        <time>2022-04-17T12:15:07Z</time>
      </trkpt>
      <trkpt lat="50.03495" lon="1.94954">
        <ele>6.2</ele>
        <time>2022-04-17T12:15:09Z</time>
      </trkpt>
      <trkpt lat="50.03496" lon="1.94954">
        <ele>6.2</ele>
        <time>2022-04-17T12:15:10Z</time>
      </trkpt>
      <trkpt lat="50.03497" lon="1.94954">
        <ele>6.2</ele>
        <time>2022-04-17T12:15:11Z</time>
      </trkpt>
      <trkpt lat="50.03498" lon="1.94954">
        <ele>6.2</ele>
        <time>2022-04-17T12:15:12Z</time>
      </trkpt>
      <trkpt lat="50.03499" lon="1.94954">
        <ele>6.2</ele>
        <time>2022-04-17T12:15:13Z</time>
      </trkpt>
      <trkpt lat="50.035" lon="1.94954">
        <ele>6.2</ele>
        <time>2022-04-17T12:15:14Z</time>
      </trkpt>
      <trkpt lat="50.03502" lon="1.94954">
        <ele>6.2</ele>
        <time>2022-04-17T12:15:15Z</time>
      </trkpt>
      <trkpt lat="50.03503" lon="1.94954">
        <ele>6.3</ele>
        <time>2022-04-17T12:15:16Z</time>
      </trkpt>
      <trkpt lat="50.03504" lon="1.94954">
        <ele>6.3</ele>
        <time>2022-04-17T12:15:17Z</time>
      </trkpt>
      <trkpt lat="50.03507" lon="1.94953">
        <ele>6.3</ele>
        <time>2022-04-17T12:15:19Z</time>
      </trkpt>
      <trkpt lat="50.03508" lon="1.94953">
        <ele>6.3</ele>
        <time>2022-04-17T12:15:20Z</time>
      </trkpt>
      <trkpt lat="50.0351" lon="1.94953">
        <ele>6.3</ele>
        <time>2022-04-17T12:15:21Z</time>
      </trkpt>
      <trkpt lat="50.03511" lon="1.94953">
        <ele>6.3</ele>
        <time>2022-04-17T12:15:22Z</time>
      </trkpt>
      <trkpt lat="50.03514" lon="1.94953">
        <ele>6.3</ele>
        <time>2022-04-17T12:15:24Z</time>
      </trkpt>
      <trkpt lat="50.03515" lon="1.94953">
        <ele>6.3</ele>
        <time>2022-04-17T12:15:25Z</time>
      </trkpt>
      <trkpt lat="50.03517" lon="1.94953">
        <ele>6.3</ele>
        <time>2022-04-17T12:15:26Z</time>
      </trkpt>
      <trkpt lat="50.03519" lon="1.94953">
        <ele>6.3</ele>
        <time>2022-04-17T12:15:27Z</time>
      </trkpt>
      <trkpt lat="50.03521" lon="1.94952">
        <ele>6.3</ele>
        <time>2022-04-17T12:15:28Z</time>
      </trkpt>
      <trkpt lat="50.03522" lon="1.94952">
        <ele>6.3</ele>
        <time>2022-04-17T12:15:29Z</time>
      </trkpt>
      <trkpt lat="50.03525" lon="1.94952">
        <ele>6.3</ele>
        <time>2022-04-17T12:15:31Z</time>
      </trkpt>
      <trkpt lat="50.03525" lon="1.94952">
        <ele>6.3</ele>
        <time>2022-04-17T12:15:32Z</time>
      </trkpt>
      <trkpt lat="50.03527" lon="1.94952">
        <ele>6.4</ele>
        <time>2022-04-17T12:15:34Z</time>
      </trkpt>
      <trkpt lat="50.03528" lon="1.94953">
        <ele>6.4</ele>
        <time>2022-04-17T12:15:35Z</time>
      </trkpt>
      <trkpt lat="50.0353" lon="1.94953">
        <ele>6.4</ele>
        <time>2022-04-17T12:15:36Z</time>
      </trkpt>
      <trkpt lat="50.03531" lon="1.94952">
        <ele>6.4</ele>
        <time>2022-04-17T12:15:37Z</time>
      </trkpt>
      <trkpt lat="50.03534" lon="1.94952">
        <ele>6.4</ele>
        <time>2022-04-17T12:15:38Z</time>
      </trkpt>
      <trkpt lat="50.03534" lon="1.94952">
        <ele>6.4</ele>
        <time>2022-04-17T12:15:39Z</time>
      </trkpt>
      <trkpt lat="50.03535" lon="1.94952">
        <ele>6.4</ele>
        <time>2022-04-17T12:15:40Z</time>
      </trkpt>
      <trkpt lat="50.03536" lon="1.94952">
        <ele>6.4</ele>
        <time>2022-04-17T12:15:41Z</time>
      </trkpt>
      <trkpt lat="50.03538" lon="1.94952">
        <ele>6.4</ele>
        <time>2022-04-17T12:15:43Z</time>
      </trkpt>
      <trkpt lat="50.03538" lon="1.94952">
        <ele>6.4</ele>
        <time>2022-04-17T12:15:44Z</time>
      </trkpt>
      <trkpt lat="50.0354" lon="1.94952">
        <ele>6.4</ele>
        <time>2022-04-17T12:15:45Z</time>
      </trkpt>
      <trkpt lat="50.03541" lon="1.94952">
        <ele>6.4</ele>
        <time>2022-04-17T12:15:46Z</time>
      </trkpt>
      <trkpt lat="50.03542" lon="1.94952">
        <ele>6.4</ele>
        <time>2022-04-17T12:15:47Z</time>
      </trkpt>
      <trkpt lat="50.03543" lon="1.94952">
        <ele>6.4</ele>
        <time>2022-04-17T12:15:48Z</time>
      </trkpt>
      <trkpt lat="50.03544" lon="1.94953">
        <ele>6.4</ele>
        <time>2022-04-17T12:15:49Z</time>
      </trkpt>
      <trkpt lat="50.03546" lon="1.94952">
        <ele>6.4</ele>
        <time>2022-04-17T12:15:50Z</time>
      </trkpt>
      <trkpt lat="50.03547" lon="1.94952">
        <ele>6.4</ele>
        <time>2022-04-17T12:15:51Z</time>
      </trkpt>
      <trkpt lat="50.03548" lon="1.94952">
        <ele>6.4</ele>
        <time>2022-04-17T12:15:52Z</time>
      </trkpt>
      <trkpt lat="50.03548" lon="1.94952">
        <ele>6.4</ele>
        <time>2022-04-17T12:15:53Z</time>
      </trkpt>
      <trkpt lat="50.0355" lon="1.94952">
        <ele>6.5</ele>
        <time>2022-04-17T12:15:55Z</time>
      </trkpt>
      <trkpt lat="50.03551" lon="1.94952">
        <ele>6.5</ele>
        <time>2022-04-17T12:15:56Z</time>
      </trkpt>
      <trkpt lat="50.03552" lon="1.94952">
        <ele>6.5</ele>
        <time>2022-04-17T12:15:57Z</time>
      </trkpt>
      <trkpt lat="50.03553" lon="1.94952">
        <ele>6.5</ele>
        <time>2022-04-17T12:15:59Z</time>
      </trkpt>
      <trkpt lat="50.03555" lon="1.94951">
        <ele>6.5</ele>
        <time>2022-04-17T12:16:00Z</time>
      </trkpt>
      <trkpt lat="50.03557" lon="1.94951">
        <ele>6.5</ele>
        <time>2022-04-17T12:16:01Z</time>
      </trkpt>
      <trkpt lat="50.03558" lon="1.9495">
        <ele>6.5</ele>
        <time>2022-04-17T12:16:02Z</time>
      </trkpt>
      <trkpt lat="50.03559" lon="1.9495">
        <ele>6.5</ele>
        <time>2022-04-17T12:16:03Z</time>
      </trkpt>
      <trkpt lat="50.03559" lon="1.9495">
        <ele>6.5</ele>
        <time>2022-04-17T12:16:04Z</time>
      </trkpt>
      <trkpt lat="50.0356" lon="1.9495">
        <ele>6.5</ele>
        <time>2022-04-17T12:16:06Z</time>
      </trkpt>
      <trkpt lat="50.03562" lon="1.9495">
        <ele>6.5</ele>
        <time>2022-04-17T12:16:07Z</time>
      </trkpt>
      <trkpt lat="50.03563" lon="1.9495">
        <ele>6.5</ele>
        <time>2022-04-17T12:16:08Z</time>
      </trkpt>
      <trkpt lat="50.03564" lon="1.9495">
        <ele>6.5</ele>
        <time>2022-04-17T12:16:09Z</time>
      </trkpt>
      <trkpt lat="50.03565" lon="1.94949">
        <ele>6.5</ele>
        <time>2022-04-17T12:16:10Z</time>
      </trkpt>
      <trkpt lat="50.03566" lon="1.94949">
        <ele>6.5</ele>
        <time>2022-04-17T12:16:11Z</time>
      </trkpt>
      <trkpt lat="50.03567" lon="1.94949">
        <ele>6.5</ele>
        <time>2022-04-17T12:16:12Z</time>
      </trkpt>
      <trkpt lat="50.03568" lon="1.94949">
        <ele>6.5</ele>
        <time>2022-04-17T12:16:13Z</time>
      </trkpt>
      <trkpt lat="50.03569" lon="1.94949">
        <ele>6.5</ele>
        <time>2022-04-17T12:16:15Z</time>
      </trkpt>
      <trkpt lat="50.03571" lon="1.94949">
        <ele>6.5</ele>
        <time>2022-04-17T12:16:16Z</time>
      </trkpt>
      <trkpt lat="50.03571" lon="1.94949">
        <ele>6.5</ele>
        <time>2022-04-17T12:16:17Z</time>
      </trkpt>
      <trkpt lat="50.03572" lon="1.9495">
        <ele>6.5</ele>
        <time>2022-04-17T12:16:18Z</time>
      </trkpt>
      <trkpt lat="50.03572" lon="1.94951">
        <ele>6.6</ele>
        <time>2022-04-17T12:16:19Z</time>
      </trkpt>
      <trkpt lat="50.03572" lon="1.94952">
        <ele>6.6</ele>
        <time>2022-04-17T12:16:20Z</time>
      </trkpt>
      <trkpt lat="50.03572" lon="1.94954">
        <ele>6.6</ele>
        <time>2022-04-17T12:16:22Z</time>
      </trkpt>
      <trkpt lat="50.03572" lon="1.94955">
        <ele>6.6</ele>
        <time>2022-04-17T12:16:23Z</time>
      </trkpt>
      <trkpt lat="50.03571" lon="1.94955">
        <ele>6.6</ele>
        <time>2022-04-17T12:16:24Z</time>
      </trkpt>
      <trkpt lat="50.03571" lon="1.94955">
        <ele>6.6</ele>
        <time>2022-04-17T12:16:25Z</time>
      </trkpt>
      <trkpt lat="50.03571" lon="1.94955">
        <ele>6.6</ele>
        <time>2022-04-17T12:16:27Z</time>
      </trkpt>
      <trkpt lat="50.03571" lon="1.94955">
        <ele>6.6</ele>
        <time>2022-04-17T12:16:28Z</time>
      </trkpt>
      <trkpt lat="50.03571" lon="1.94955">
        <ele>6.6</ele>
        <time>2022-04-17T12:16:29Z</time>
      </trkpt>
      <trkpt lat="50.03571" lon="1.94955">
        <ele>6.6</ele>
        <time>2022-04-17T12:16:30Z</time>
      </trkpt>
      <trkpt lat="50.03571" lon="1.94956">
        <ele>6.6</ele>
        <time>2022-04-17T12:16:32Z</time>
      </trkpt>
      <trkpt lat="50.03571" lon="1.94956">
        <ele>6.6</ele>
        <time>2022-04-17T12:16:33Z</time>
      </trkpt>
      <trkpt lat="50.03571" lon="1.94956">
        <ele>6.6</ele>
        <time>2022-04-17T12:16:34Z</time>
      </trkpt>
      <trkpt lat="50.03571" lon="1.94956">
        <ele>6.6</ele>
        <time>2022-04-17T12:16:35Z</time>
      </trkpt>
      <trkpt lat="50.03571" lon="1.94956">
        <ele>6.6</ele>
        <time>2022-04-17T12:16:37Z</time>
      </trkpt>
      <trkpt lat="50.03571" lon="1.94956">
        <ele>6.6</ele>
        <time>2022-04-17T12:16:38Z</time>
      </trkpt>
      <trkpt lat="50.03572" lon="1.94955">
        <ele>6.6</ele>
        <time>2022-04-17T12:16:40Z</time>
      </trkpt>
      <trkpt lat="50.03572" lon="1.94955">
        <ele>6.6</ele>
        <time>2022-04-17T12:16:41Z</time>
      </trkpt>
      <trkpt lat="50.03572" lon="1.94955">
        <ele>6.6</ele>
        <time>2022-04-17T12:16:42Z</time>
      </trkpt>
      <trkpt lat="50.03572" lon="1.94955">
        <ele>6.6</ele>
        <time>2022-04-17T12:16:43Z</time>
      </trkpt>
      <trkpt lat="50.03572" lon="1.94955">
        <ele>6.6</ele>
        <time>2022-04-17T12:16:44Z</time>
      </trkpt>
      <trkpt lat="50.03572" lon="1.94955">
        <ele>6.6</ele>
        <time>2022-04-17T12:16:45Z</time>
      </trkpt>
      <trkpt lat="50.03572" lon="1.94955">
        <ele>6.6</ele>
        <time>2022-04-17T12:16:46Z</time>
      </trkpt>
      <trkpt lat="50.03572" lon="1.94955">
        <ele>6.6</ele>
        <time>2022-04-17T12:16:47Z</time>
      </trkpt>
      <trkpt lat="50.03572" lon="1.94955">
        <ele>6.6</ele>
        <time>2022-04-17T12:16:48Z</time>
      </trkpt>
      <trkpt lat="50.03572" lon="1.94955">
        <ele>6.6</ele>
        <time>2022-04-17T12:16:49Z</time>
      </trkpt>
      <trkpt lat="50.03572" lon="1.94955">
        <ele>6.6</ele>
        <time>2022-04-17T12:16:50Z</time>
      </trkpt>
      <trkpt lat="50.03572" lon="1.94956">
        <ele>6.6</ele>
        <time>2022-04-17T12:16:52Z</time>
      </trkpt>
      <trkpt lat="50.03572" lon="1.94956">
        <ele>6.6</ele>
        <time>2022-04-17T12:16:53Z</time>
      </trkpt>
      <trkpt lat="50.03572" lon="1.94955">
        <ele>6.6</ele>
        <time>2022-04-17T12:16:54Z</time>
      </trkpt>
      <trkpt lat="50.03572" lon="1.94955">
        <ele>6.6</ele>
        <time>2022-04-17T12:16:55Z</time>
      </trkpt>
      <trkpt lat="50.03571" lon="1.94955">
        <ele>6.6</ele>
        <time>2022-04-17T12:16:57Z</time>
      </trkpt>
      <trkpt lat="50.03571" lon="1.94955">
        <ele>6.6</ele>
        <time>2022-04-17T12:16:58Z</time>
      </trkpt>
      <trkpt lat="50.03571" lon="1.94955">
        <ele>6.6</ele>
        <time>2022-04-17T12:16:59Z</time>
      </trkpt>
      <trkpt lat="50.03571" lon="1.94955">
        <ele>6.6</ele>
        <time>2022-04-17T12:17:00Z</time>
      </trkpt>
      <trkpt lat="50.03572" lon="1.94955">
        <ele>6.6</ele>
        <time>2022-04-17T12:17:02Z</time>
      </trkpt>
      <trkpt lat="50.03572" lon="1.94955">
        <ele>6.6</ele>
        <time>2022-04-17T12:17:03Z</time>
      </trkpt>
      <trkpt lat="50.03572" lon="1.94955">
        <ele>6.6</ele>
        <time>2022-04-17T12:17:04Z</time>
      </trkpt>
      <trkpt lat="50.03573" lon="1.94954">
        <ele>6.6</ele>
        <time>2022-04-17T12:17:06Z</time>
      </trkpt>
      <trkpt lat="50.03573" lon="1.94953">
        <ele>6.6</ele>
        <time>2022-04-17T12:17:07Z</time>
      </trkpt>
      <trkpt lat="50.03574" lon="1.94953">
        <ele>6.6</ele>
        <time>2022-04-17T12:17:08Z</time>
      </trkpt>
      <trkpt lat="50.03574" lon="1.94952">
        <ele>6.6</ele>
        <time>2022-04-17T12:17:09Z</time>
      </trkpt>
      <trkpt lat="50.03575" lon="1.94951">
        <ele>6.6</ele>
        <time>2022-04-17T12:17:10Z</time>
      </trkpt>
      <trkpt lat="50.03575" lon="1.9495">
        <ele>6.6</ele>
        <time>2022-04-17T12:17:11Z</time>
      </trkpt>
      <trkpt lat="50.03576" lon="1.94949">
        <ele>6.6</ele>
        <time>2022-04-17T12:17:12Z</time>
      </trkpt>
      <trkpt lat="50.03576" lon="1.94948">
        <ele>6.6</ele>
        <time>2022-04-17T12:17:13Z</time>
      </trkpt>
      <trkpt lat="50.03576" lon="1.94947">
        <ele>6.6</ele>
        <time>2022-04-17T12:17:14Z</time>
      </trkpt>
      <trkpt lat="50.03577" lon="1.94945">
        <ele>6.6</ele>
        <time>2022-04-17T12:17:15Z</time>
      </trkpt>
      <trkpt lat="50.03577" lon="1.94944">
        <ele>6.6</ele>
        <time>2022-04-17T12:17:16Z</time>
      </trkpt>
      <trkpt lat="50.03578" lon="1.94945">
        <ele>6.6</ele>
        <time>2022-04-17T12:17:18Z</time>
      </trkpt>
      <trkpt lat="50.03579" lon="1.94945">
        <ele>6.6</ele>
        <time>2022-04-17T12:17:19Z</time>
      </trkpt>
      <trkpt lat="50.0358" lon="1.94944">
        <ele>6.6</ele>
        <time>2022-04-17T12:17:21Z</time>
      </trkpt>
      <trkpt lat="50.03581" lon="1.94945">
        <ele>6.5</ele>
        <time>2022-04-17T12:17:22Z</time>
      </trkpt>
      <trkpt lat="50.03581" lon="1.94945">
        <ele>6.5</ele>
        <time>2022-04-17T12:17:24Z</time>
      </trkpt>
      <trkpt lat="50.03582" lon="1.94946">
        <ele>6.5</ele>
        <time>2022-04-17T12:17:25Z</time>
      </trkpt>
      <trkpt lat="50.03583" lon="1.94947">
        <ele>6.5</ele>
        <time>2022-04-17T12:17:26Z</time>
      </trkpt>
      <trkpt lat="50.03583" lon="1.94947">
        <ele>6.5</ele>
        <time>2022-04-17T12:17:27Z</time>
      </trkpt>
      <trkpt lat="50.03584" lon="1.94947">
        <ele>6.5</ele>
        <time>2022-04-17T12:17:28Z</time>
      </trkpt>
      <trkpt lat="50.03584" lon="1.94947">
        <ele>6.5</ele>
        <time>2022-04-17T12:17:29Z</time>
      </trkpt>
      <trkpt lat="50.03584" lon="1.94947">
        <ele>6.5</ele>
        <time>2022-04-17T12:17:30Z</time>
      </trkpt>
      <trkpt lat="50.03583" lon="1.94947">
        <ele>6.5</ele>
        <time>2022-04-17T12:17:31Z</time>
      </trkpt>
      <trkpt lat="50.03583" lon="1.94947">
        <ele>6.5</ele>
        <time>2022-04-17T12:17:32Z</time>
      </trkpt>
      <trkpt lat="50.03583" lon="1.94947">
        <ele>6.5</ele>
        <time>2022-04-17T12:17:33Z</time>
      </trkpt>
      <trkpt lat="50.03583" lon="1.94947">
        <ele>6.5</ele>
        <time>2022-04-17T12:17:34Z</time>
      </trkpt>
      <trkpt lat="50.03583" lon="1.94947">
        <ele>6.5</ele>
        <time>2022-04-17T12:17:36Z</time>
      </trkpt>
      <trkpt lat="50.03583" lon="1.94947">
        <ele>6.5</ele>
        <time>2022-04-17T12:17:37Z</time>
      </trkpt>
      <trkpt lat="50.03583" lon="1.94947">
        <ele>6.5</ele>
        <time>2022-04-17T12:17:38Z</time>
      </trkpt>
      <trkpt lat="50.03583" lon="1.94947">
        <ele>6.5</ele>
        <time>2022-04-17T12:17:40Z</time>
      </trkpt>
      <trkpt lat="50.03583" lon="1.94947">
        <ele>6.5</ele>
        <time>2022-04-17T12:17:42Z</time>
      </trkpt>
      <trkpt lat="50.03584" lon="1.94947">
        <ele>6.5</ele>
        <time>2022-04-17T12:17:43Z</time>
      </trkpt>
      <trkpt lat="50.03584" lon="1.94948">
        <ele>6.5</ele>
        <time>2022-04-17T12:17:44Z</time>
      </trkpt>
      <trkpt lat="50.03584" lon="1.94948">
        <ele>6.5</ele>
        <time>2022-04-17T12:17:45Z</time>
      </trkpt>
      <trkpt lat="50.03585" lon="1.94948">
        <ele>6.5</ele>
        <time>2022-04-17T12:17:46Z</time>
      </trkpt>
      <trkpt lat="50.03586" lon="1.94949">
        <ele>6.5</ele>
        <time>2022-04-17T12:17:47Z</time>
      </trkpt>
      <trkpt lat="50.03587" lon="1.94949">
        <ele>6.5</ele>
        <time>2022-04-17T12:17:48Z</time>
      </trkpt>
      <trkpt lat="50.03588" lon="1.94949">
        <ele>6.4</ele>
        <time>2022-04-17T12:17:49Z</time>
      </trkpt>
      <trkpt lat="50.03589" lon="1.94949">
        <ele>6.4</ele>
        <time>2022-04-17T12:17:50Z</time>
      </trkpt>
      <trkpt lat="50.0359" lon="1.9495">
        <ele>6.4</ele>
        <time>2022-04-17T12:17:52Z</time>
      </trkpt>
      <trkpt lat="50.03592" lon="1.9495">
        <ele>6.4</ele>
        <time>2022-04-17T12:17:53Z</time>
      </trkpt>
      <trkpt lat="50.03593" lon="1.9495">
        <ele>6.4</ele>
        <time>2022-04-17T12:17:55Z</time>
      </trkpt>
      <trkpt lat="50.03594" lon="1.9495">
        <ele>6.4</ele>
        <time>2022-04-17T12:17:56Z</time>
      </trkpt>
      <trkpt lat="50.03596" lon="1.9495">
        <ele>6.4</ele>
        <time>2022-04-17T12:17:57Z</time>
      </trkpt>
      <trkpt lat="50.03597" lon="1.9495">
        <ele>6.4</ele>
        <time>2022-04-17T12:17:58Z</time>
      </trkpt>
      <trkpt lat="50.03599" lon="1.9495">
        <ele>6.4</ele>
        <time>2022-04-17T12:17:59Z</time>
      </trkpt>
      <trkpt lat="50.03599" lon="1.9495">
        <ele>6.4</ele>
        <time>2022-04-17T12:18:00Z</time>
      </trkpt>
      <trkpt lat="50.036" lon="1.9495">
        <ele>6.4</ele>
        <time>2022-04-17T12:18:01Z</time>
      </trkpt>
      <trkpt lat="50.03601" lon="1.9495">
        <ele>6.4</ele>
        <time>2022-04-17T12:18:03Z</time>
      </trkpt>
      <trkpt lat="50.03602" lon="1.94949">
        <ele>6.4</ele>
        <time>2022-04-17T12:18:04Z</time>
      </trkpt>
      <trkpt lat="50.03603" lon="1.94949">
        <ele>6.4</ele>
        <time>2022-04-17T12:18:05Z</time>
      </trkpt>
      <trkpt lat="50.03604" lon="1.94949">
        <ele>6.4</ele>
        <time>2022-04-17T12:18:06Z</time>
      </trkpt>
      <trkpt lat="50.03605" lon="1.94948">
        <ele>6.3</ele>
        <time>2022-04-17T12:18:07Z</time>
      </trkpt>
      <trkpt lat="50.03607" lon="1.94948">
        <ele>6.3</ele>
        <time>2022-04-17T12:18:09Z</time>
      </trkpt>
      <trkpt lat="50.03608" lon="1.94948">
        <ele>6.3</ele>
        <time>2022-04-17T12:18:10Z</time>
      </trkpt>
      <trkpt lat="50.0361" lon="1.94948">
        <ele>6.3</ele>
        <time>2022-04-17T12:18:11Z</time>
      </trkpt>
      <trkpt lat="50.03612" lon="1.94947">
        <ele>6.3</ele>
        <time>2022-04-17T12:18:12Z</time>
      </trkpt>
      <trkpt lat="50.03613" lon="1.94947">
        <ele>6.4</ele>
        <time>2022-04-17T12:18:13Z</time>
      </trkpt>
      <trkpt lat="50.03615" lon="1.94947">
        <ele>6.4</ele>
        <time>2022-04-17T12:18:14Z</time>
      </trkpt>
      <trkpt lat="50.03617" lon="1.94947">
        <ele>6.4</ele>
        <time>2022-04-17T12:18:15Z</time>
      </trkpt>
      <trkpt lat="50.03618" lon="1.94946">
        <ele>6.4</ele>
        <time>2022-04-17T12:18:16Z</time>
      </trkpt>
      <trkpt lat="50.0362" lon="1.94946">
        <ele>6.4</ele>
        <time>2022-04-17T12:18:18Z</time>
      </trkpt>
      <trkpt lat="50.03622" lon="1.94946">
        <ele>6.4</ele>
        <time>2022-04-17T12:18:19Z</time>
      </trkpt>
      <trkpt lat="50.03623" lon="1.94946">
        <ele>6.4</ele>
        <time>2022-04-17T12:18:20Z</time>
      </trkpt>
      <trkpt lat="50.03625" lon="1.94946">
        <ele>6.4</ele>
        <time>2022-04-17T12:18:21Z</time>
      </trkpt>
      <trkpt lat="50.03626" lon="1.94946">
        <ele>6.4</ele>
        <time>2022-04-17T12:18:22Z</time>
      </trkpt>
      <trkpt lat="50.03628" lon="1.94946">
        <ele>6.4</ele>
        <time>2022-04-17T12:18:24Z</time>
      </trkpt>
      <trkpt lat="50.03629" lon="1.94947">
        <ele>6.4</ele>
        <time>2022-04-17T12:18:25Z</time>
      </trkpt>
      <trkpt lat="50.03632" lon="1.94947">
        <ele>6.4</ele>
        <time>2022-04-17T12:18:26Z</time>
      </trkpt>
      <trkpt lat="50.03632" lon="1.94947">
        <ele>6.4</ele>
        <time>2022-04-17T12:18:27Z</time>
      </trkpt>
      <trkpt lat="50.03633" lon="1.94947">
        <ele>6.4</ele>
        <time>2022-04-17T12:18:28Z</time>
      </trkpt>
      <trkpt lat="50.03636" lon="1.94948">
        <ele>6.4</ele>
        <time>2022-04-17T12:18:29Z</time>
      </trkpt>
      <trkpt lat="50.03636" lon="1.94948">
        <ele>6.4</ele>
        <time>2022-04-17T12:18:30Z</time>
      </trkpt>
      <trkpt lat="50.03637" lon="1.94948">
        <ele>6.4</ele>
        <time>2022-04-17T12:18:31Z</time>
      </trkpt>
      <trkpt lat="50.0364" lon="1.94948">
        <ele>6.4</ele>
        <time>2022-04-17T12:18:33Z</time>
      </trkpt>
      <trkpt lat="50.03641" lon="1.94948">
        <ele>6.3</ele>
        <time>2022-04-17T12:18:34Z</time>
      </trkpt>
      <trkpt lat="50.03642" lon="1.94948">
        <ele>6.3</ele>
        <time>2022-04-17T12:18:35Z</time>
      </trkpt>
      <trkpt lat="50.03643" lon="1.94948">
        <ele>6.3</ele>
        <time>2022-04-17T12:18:36Z</time>
      </trkpt>
      <trkpt lat="50.03645" lon="1.94948">
        <ele>6.3</ele>
        <time>2022-04-17T12:18:37Z</time>
      </trkpt>
      <trkpt lat="50.03647" lon="1.94948">
        <ele>6.3</ele>
        <time>2022-04-17T12:18:39Z</time>
      </trkpt>
      <trkpt lat="50.03648" lon="1.94948">
        <ele>6.3</ele>
        <time>2022-04-17T12:18:40Z</time>
      </trkpt>
      <trkpt lat="50.03649" lon="1.94948">
        <ele>6.3</ele>
        <time>2022-04-17T12:18:41Z</time>
      </trkpt>
      <trkpt lat="50.0365" lon="1.94948">
        <ele>6.3</ele>
        <time>2022-04-17T12:18:42Z</time>
      </trkpt>
      <trkpt lat="50.03652" lon="1.94948">
        <ele>6.3</ele>
        <time>2022-04-17T12:18:43Z</time>
      </trkpt>
      <trkpt lat="50.03654" lon="1.94948">
        <ele>6.3</ele>
        <time>2022-04-17T12:18:44Z</time>
      </trkpt>
      <trkpt lat="50.03654" lon="1.94949">
        <ele>6.3</ele>
        <time>2022-04-17T12:18:45Z</time>
      </trkpt>
      <trkpt lat="50.03655" lon="1.94949">
        <ele>6.3</ele>
        <time>2022-04-17T12:18:46Z</time>
      </trkpt>
      <trkpt lat="50.03656" lon="1.94949">
        <ele>6.3</ele>
        <time>2022-04-17T12:18:47Z</time>
      </trkpt>
      <trkpt lat="50.03657" lon="1.94949">
        <ele>6.2</ele>
        <time>2022-04-17T12:18:48Z</time>
      </trkpt>
      <trkpt lat="50.03658" lon="1.94949">
        <ele>6.2</ele>
        <time>2022-04-17T12:18:49Z</time>
      </trkpt>
      <trkpt lat="50.0366" lon="1.94949">
        <ele>6.2</ele>
        <time>2022-04-17T12:18:51Z</time>
      </trkpt>
      <trkpt lat="50.03661" lon="1.94949">
        <ele>6.2</ele>
        <time>2022-04-17T12:18:52Z</time>
      </trkpt>
      <trkpt lat="50.03662" lon="1.94948">
        <ele>6.2</ele>
        <time>2022-04-17T12:18:53Z</time>
      </trkpt>
      <trkpt lat="50.03664" lon="1.94948">
        <ele>6.2</ele>
        <time>2022-04-17T12:18:54Z</time>
      </trkpt>
      <trkpt lat="50.03665" lon="1.94948">
        <ele>6.2</ele>
        <time>2022-04-17T12:18:55Z</time>
      </trkpt>
      <trkpt lat="50.03667" lon="1.94947">
        <ele>6.2</ele>
        <time>2022-04-17T12:18:56Z</time>
      </trkpt>
      <trkpt lat="50.03668" lon="1.94946">
        <ele>6.2</ele>
        <time>2022-04-17T12:18:58Z</time>
      </trkpt>
      <trkpt lat="50.03669" lon="1.94946">
        <ele>6.2</ele>
        <time>2022-04-17T12:18:59Z</time>
      </trkpt>
      <trkpt lat="50.0367" lon="1.94946">
        <ele>6.2</ele>
        <time>2022-04-17T12:19:00Z</time>
      </trkpt>
      <trkpt lat="50.03671" lon="1.94945">
        <ele>6.2</ele>
        <time>2022-04-17T12:19:01Z</time>
      </trkpt>
      <trkpt lat="50.03673" lon="1.94945">
        <ele>6.2</ele>
        <time>2022-04-17T12:19:02Z</time>
      </trkpt>
      <trkpt lat="50.03674" lon="1.94945">
        <ele>6.1</ele>
        <time>2022-04-17T12:19:03Z</time>
      </trkpt>
      <trkpt lat="50.03676" lon="1.94945">
        <ele>6.1</ele>
        <time>2022-04-17T12:19:04Z</time>
      </trkpt>
      <trkpt lat="50.03677" lon="1.94945">
        <ele>6.1</ele>
        <time>2022-04-17T12:19:05Z</time>
      </trkpt>
      <trkpt lat="50.03679" lon="1.94945">
        <ele>6.1</ele>
        <time>2022-04-17T12:19:06Z</time>
      </trkpt>
      <trkpt lat="50.0368" lon="1.94945">
        <ele>6.1</ele>
        <time>2022-04-17T12:19:08Z</time>
      </trkpt>
      <trkpt lat="50.03681" lon="1.94945">
        <ele>6.1</ele>
        <time>2022-04-17T12:19:09Z</time>
      </trkpt>
      <trkpt lat="50.03682" lon="1.94945">
        <ele>6.1</ele>
        <time>2022-04-17T12:19:10Z</time>
      </trkpt>
      <trkpt lat="50.03683" lon="1.94945">
        <ele>6.1</ele>
        <time>2022-04-17T12:19:12Z</time>
      </trkpt>
      <trkpt lat="50.03684" lon="1.94945">
        <ele>6.1</ele>
        <time>2022-04-17T12:19:13Z</time>
      </trkpt>
      <trkpt lat="50.03686" lon="1.94946">
        <ele>6.1</ele>
        <time>2022-04-17T12:19:14Z</time>
      </trkpt>
      <trkpt lat="50.03687" lon="1.94946">
        <ele>6.2</ele>
        <time>2022-04-17T12:19:15Z</time>
      </trkpt>
      <trkpt lat="50.03688" lon="1.94946">
        <ele>6.2</ele>
        <time>2022-04-17T12:19:16Z</time>
      </trkpt>
      <trkpt lat="50.03689" lon="1.94946">
        <ele>6.2</ele>
        <time>2022-04-17T12:19:17Z</time>
      </trkpt>
      <trkpt lat="50.0369" lon="1.94946">
        <ele>6.2</ele>
        <time>2022-04-17T12:19:18Z</time>
      </trkpt>
      <trkpt lat="50.03691" lon="1.94946">
        <ele>6.2</ele>
        <time>2022-04-17T12:19:19Z</time>
      </trkpt>
      <trkpt lat="50.03692" lon="1.94947">
        <ele>6.2</ele>
        <time>2022-04-17T12:19:20Z</time>
      </trkpt>
      <trkpt lat="50.03693" lon="1.94947">
        <ele>6.2</ele>
        <time>2022-04-17T12:19:21Z</time>
      </trkpt>
      <trkpt lat="50.03695" lon="1.94947">
        <ele>6.2</ele>
        <time>2022-04-17T12:19:22Z</time>
      </trkpt>
      <trkpt lat="50.03696" lon="1.94947">
        <ele>6.2</ele>
        <time>2022-04-17T12:19:24Z</time>
      </trkpt>
      <trkpt lat="50.03697" lon="1.94947">
        <ele>6.2</ele>
        <time>2022-04-17T12:19:25Z</time>
      </trkpt>
      <trkpt lat="50.03698" lon="1.94947">
        <ele>6.1</ele>
        <time>2022-04-17T12:19:26Z</time>
      </trkpt>
      <trkpt lat="50.03699" lon="1.94947">
        <ele>6.1</ele>
        <time>2022-04-17T12:19:27Z</time>
      </trkpt>
      <trkpt lat="50.03701" lon="1.94947">
        <ele>6.1</ele>
        <time>2022-04-17T12:19:28Z</time>
      </trkpt>
      <trkpt lat="50.03702" lon="1.94947">
        <ele>6.1</ele>
        <time>2022-04-17T12:19:29Z</time>
      </trkpt>
      <trkpt lat="50.03703" lon="1.94947">
        <ele>6.1</ele>
        <time>2022-04-17T12:19:30Z</time>
      </trkpt>
      <trkpt lat="50.03704" lon="1.94947">
        <ele>6.1</ele>
        <time>2022-04-17T12:19:31Z</time>
      </trkpt>
      <trkpt lat="50.03705" lon="1.94947">
        <ele>6.1</ele>
        <time>2022-04-17T12:19:32Z</time>
      </trkpt>
      <trkpt lat="50.03708" lon="1.94947">
        <ele>6.1</ele>
        <time>2022-04-17T12:19:34Z</time>
      </trkpt>
      <trkpt lat="50.0371" lon="1.94947">
        <ele>6.1</ele>
        <time>2022-04-17T12:19:35Z</time>
      </trkpt>
      <trkpt lat="50.03711" lon="1.94947">
        <ele>6.1</ele>
        <time>2022-04-17T12:19:37Z</time>
      </trkpt>
      <trkpt lat="50.03712" lon="1.94947">
        <ele>6.1</ele>
        <time>2022-04-17T12:19:38Z</time>
      </trkpt>
      <trkpt lat="50.03714" lon="1.94947">
        <ele>6.1</ele>
        <time>2022-04-17T12:19:39Z</time>
      </trkpt>
      <trkpt lat="50.03714" lon="1.94946">
        <ele>6.1</ele>
        <time>2022-04-17T12:19:40Z</time>
      </trkpt>
      <trkpt lat="50.03716" lon="1.94946">
        <ele>6.1</ele>
        <time>2022-04-17T12:19:42Z</time>
      </trkpt>
      <trkpt lat="50.03717" lon="1.94946">
        <ele>6.1</ele>
        <time>2022-04-17T12:19:43Z</time>
      </trkpt>
      <trkpt lat="50.03718" lon="1.94946">
        <ele>6.1</ele>
        <time>2022-04-17T12:19:44Z</time>
      </trkpt>
      <trkpt lat="50.03721" lon="1.94946">
        <ele>6</ele>
        <time>2022-04-17T12:19:45Z</time>
      </trkpt>
      <trkpt lat="50.03721" lon="1.94946">
        <ele>6</ele>
        <time>2022-04-17T12:19:46Z</time>
      </trkpt>
      <trkpt lat="50.03722" lon="1.94946">
        <ele>6</ele>
        <time>2022-04-17T12:19:47Z</time>
      </trkpt>
      <trkpt lat="50.03723" lon="1.94945">
        <ele>6</ele>
        <time>2022-04-17T12:19:48Z</time>
      </trkpt>
      <trkpt lat="50.03724" lon="1.94945">
        <ele>6</ele>
        <time>2022-04-17T12:19:49Z</time>
      </trkpt>
      <trkpt lat="50.03725" lon="1.94945">
        <ele>6</ele>
        <time>2022-04-17T12:19:50Z</time>
      </trkpt>
      <trkpt lat="50.03727" lon="1.94945">
        <ele>6</ele>
        <time>2022-04-17T12:19:51Z</time>
      </trkpt>
      <trkpt lat="50.03728" lon="1.94945">
        <ele>6</ele>
        <time>2022-04-17T12:19:53Z</time>
      </trkpt>
      <trkpt lat="50.03729" lon="1.94944">
        <ele>6</ele>
        <time>2022-04-17T12:19:54Z</time>
      </trkpt>
      <trkpt lat="50.03731" lon="1.94944">
        <ele>6</ele>
        <time>2022-04-17T12:19:55Z</time>
      </trkpt>
      <trkpt lat="50.03732" lon="1.94944">
        <ele>6</ele>
        <time>2022-04-17T12:19:56Z</time>
      </trkpt>
      <trkpt lat="50.03733" lon="1.94944">
        <ele>6</ele>
        <time>2022-04-17T12:19:57Z</time>
      </trkpt>
      <trkpt lat="50.03734" lon="1.94944">
        <ele>6</ele>
        <time>2022-04-17T12:19:58Z</time>
      </trkpt>
      <trkpt lat="50.03736" lon="1.94944">
        <ele>6</ele>
        <time>2022-04-17T12:20:00Z</time>
      </trkpt>
      <trkpt lat="50.03739" lon="1.94943">
        <ele>6</ele>
        <time>2022-04-17T12:20:01Z</time>
      </trkpt>
      <trkpt lat="50.03739" lon="1.94943">
        <ele>6</ele>
        <time>2022-04-17T12:20:03Z</time>
      </trkpt>
      <trkpt lat="50.0374" lon="1.94943">
        <ele>6</ele>
        <time>2022-04-17T12:20:04Z</time>
      </trkpt>
      <trkpt lat="50.03743" lon="1.94943">
        <ele>6.1</ele>
        <time>2022-04-17T12:20:05Z</time>
      </trkpt>
      <trkpt lat="50.03743" lon="1.94943">
        <ele>6.1</ele>
        <time>2022-04-17T12:20:06Z</time>
      </trkpt>
      <trkpt lat="50.03744" lon="1.94943">
        <ele>6.1</ele>
        <time>2022-04-17T12:20:07Z</time>
      </trkpt>
      <trkpt lat="50.03746" lon="1.94943">
        <ele>6.1</ele>
        <time>2022-04-17T12:20:08Z</time>
      </trkpt>
      <trkpt lat="50.03748" lon="1.94943">
        <ele>6.1</ele>
        <time>2022-04-17T12:20:09Z</time>
      </trkpt>
      <trkpt lat="50.03749" lon="1.94943">
        <ele>6.1</ele>
        <time>2022-04-17T12:20:11Z</time>
      </trkpt>
      <trkpt lat="50.0375" lon="1.94943">
        <ele>6.1</ele>
        <time>2022-04-17T12:20:12Z</time>
      </trkpt>
      <trkpt lat="50.03751" lon="1.94943">
        <ele>6.1</ele>
        <time>2022-04-17T12:20:13Z</time>
      </trkpt>
      <trkpt lat="50.03753" lon="1.94943">
        <ele>6.1</ele>
        <time>2022-04-17T12:20:14Z</time>
      </trkpt>
      <trkpt lat="50.03754" lon="1.94943">
        <ele>6.1</ele>
        <time>2022-04-17T12:20:15Z</time>
      </trkpt>
      <trkpt lat="50.03755" lon="1.94943">
        <ele>6.1</ele>
        <time>2022-04-17T12:20:17Z</time>
      </trkpt>
      <trkpt lat="50.03757" lon="1.94943">
        <ele>6.1</ele>
        <time>2022-04-17T12:20:18Z</time>
      </trkpt>
      <trkpt lat="50.03759" lon="1.94943">
        <ele>6.2</ele>
        <time>2022-04-17T12:20:20Z</time>
      </trkpt>
      <trkpt lat="50.03761" lon="1.94944">
        <ele>6.2</ele>
        <time>2022-04-17T12:20:21Z</time>
      </trkpt>
      <trkpt lat="50.03762" lon="1.94944">
        <ele>6.2</ele>
        <time>2022-04-17T12:20:23Z</time>
      </trkpt>
      <trkpt lat="50.03763" lon="1.94945">
        <ele>6.2</ele>
        <time>2022-04-17T12:20:24Z</time>
      </trkpt>
      <trkpt lat="50.03765" lon="1.94945">
        <ele>6.2</ele>
        <time>2022-04-17T12:20:25Z</time>
      </trkpt>
      <trkpt lat="50.03766" lon="1.94945">
        <ele>6.2</ele>
        <time>2022-04-17T12:20:26Z</time>
      </trkpt>
      <trkpt lat="50.03767" lon="1.94945">
        <ele>6.2</ele>
        <time>2022-04-17T12:20:27Z</time>
      </trkpt>
      <trkpt lat="50.03768" lon="1.94945">
        <ele>6.2</ele>
        <time>2022-04-17T12:20:28Z</time>
      </trkpt>
      <trkpt lat="50.0377" lon="1.94945">
        <ele>6.2</ele>
        <time>2022-04-17T12:20:29Z</time>
      </trkpt>
      <trkpt lat="50.03771" lon="1.94945">
        <ele>6.2</ele>
        <time>2022-04-17T12:20:31Z</time>
      </trkpt>
      <trkpt lat="50.03772" lon="1.94945">
        <ele>6.2</ele>
        <time>2022-04-17T12:20:32Z</time>
      </trkpt>
      <trkpt lat="50.03773" lon="1.94945">
        <ele>6.2</ele>
        <time>2022-04-17T12:20:33Z</time>
      </trkpt>
      <trkpt lat="50.03775" lon="1.94945">
        <ele>6.2</ele>
        <time>2022-04-17T12:20:34Z</time>
      </trkpt>
      <trkpt lat="50.03776" lon="1.94945">
        <ele>6.2</ele>
        <time>2022-04-17T12:20:35Z</time>
      </trkpt>
      <trkpt lat="50.03778" lon="1.94945">
        <ele>6.2</ele>
        <time>2022-04-17T12:20:36Z</time>
      </trkpt>
      <trkpt lat="50.03779" lon="1.94945">
        <ele>6.2</ele>
        <time>2022-04-17T12:20:37Z</time>
      </trkpt>
      <trkpt lat="50.0378" lon="1.94945">
        <ele>6.2</ele>
        <time>2022-04-17T12:20:38Z</time>
      </trkpt>
      <trkpt lat="50.03783" lon="1.94945">
        <ele>6.2</ele>
        <time>2022-04-17T12:20:40Z</time>
      </trkpt>
      <trkpt lat="50.03783" lon="1.94945">
        <ele>6.2</ele>
        <time>2022-04-17T12:20:41Z</time>
      </trkpt>
      <trkpt lat="50.03784" lon="1.94945">
        <ele>6.2</ele>
        <time>2022-04-17T12:20:42Z</time>
      </trkpt>
      <trkpt lat="50.03786" lon="1.94945">
        <ele>6.2</ele>
        <time>2022-04-17T12:20:43Z</time>
      </trkpt>
      <trkpt lat="50.03787" lon="1.94945">
        <ele>6.3</ele>
        <time>2022-04-17T12:20:44Z</time>
      </trkpt>
      <trkpt lat="50.03788" lon="1.94945">
        <ele>6.3</ele>
        <time>2022-04-17T12:20:45Z</time>
      </trkpt>
      <trkpt lat="50.0379" lon="1.94944">
        <ele>6.3</ele>
        <time>2022-04-17T12:20:46Z</time>
      </trkpt>
      <trkpt lat="50.03791" lon="1.94944">
        <ele>6.3</ele>
        <time>2022-04-17T12:20:47Z</time>
      </trkpt>
      <trkpt lat="50.03792" lon="1.94944">
        <ele>6.3</ele>
        <time>2022-04-17T12:20:48Z</time>
      </trkpt>
      <trkpt lat="50.03794" lon="1.94944">
        <ele>6.3</ele>
        <time>2022-04-17T12:20:50Z</time>
      </trkpt>
      <trkpt lat="50.03795" lon="1.94943">
        <ele>6.3</ele>
        <time>2022-04-17T12:20:51Z</time>
      </trkpt>
      <trkpt lat="50.03795" lon="1.94943">
        <ele>6.3</ele>
        <time>2022-04-17T12:20:52Z</time>
      </trkpt>
      <trkpt lat="50.03796" lon="1.94943">
        <ele>6.3</ele>
        <time>2022-04-17T12:20:53Z</time>
      </trkpt>
      <trkpt lat="50.03797" lon="1.94943">
        <ele>6.3</ele>
        <time>2022-04-17T12:20:54Z</time>
      </trkpt>
      <trkpt lat="50.03799" lon="1.94943">
        <ele>6.3</ele>
        <time>2022-04-17T12:20:55Z</time>
      </trkpt>
      <trkpt lat="50.038" lon="1.94943">
        <ele>6.3</ele>
        <time>2022-04-17T12:20:56Z</time>
      </trkpt>
      <trkpt lat="50.03801" lon="1.94943">
        <ele>6.3</ele>
        <time>2022-04-17T12:20:57Z</time>
      </trkpt>
      <trkpt lat="50.03802" lon="1.94943">
        <ele>6.3</ele>
        <time>2022-04-17T12:20:58Z</time>
      </trkpt>
      <trkpt lat="50.03803" lon="1.94943">
        <ele>6.3</ele>
        <time>2022-04-17T12:21:00Z</time>
      </trkpt>
      <trkpt lat="50.03804" lon="1.94943">
        <ele>6.3</ele>
        <time>2022-04-17T12:21:01Z</time>
      </trkpt>
      <trkpt lat="50.03805" lon="1.94943">
        <ele>6.3</ele>
        <time>2022-04-17T12:21:02Z</time>
      </trkpt>
      <trkpt lat="50.03807" lon="1.94943">
        <ele>6.3</ele>
        <time>2022-04-17T12:21:03Z</time>
      </trkpt>
      <trkpt lat="50.03808" lon="1.94943">
        <ele>6.4</ele>
        <time>2022-04-17T12:21:04Z</time>
      </trkpt>
      <trkpt lat="50.03809" lon="1.94943">
        <ele>6.4</ele>
        <time>2022-04-17T12:21:05Z</time>
      </trkpt>
      <trkpt lat="50.0381" lon="1.94943">
        <ele>6.4</ele>
        <time>2022-04-17T12:21:06Z</time>
      </trkpt>
      <trkpt lat="50.03812" lon="1.94943">
        <ele>6.4</ele>
        <time>2022-04-17T12:21:08Z</time>
      </trkpt>
      <trkpt lat="50.03814" lon="1.94943">
        <ele>6.4</ele>
        <time>2022-04-17T12:21:10Z</time>
      </trkpt>
      <trkpt lat="50.03815" lon="1.94942">
        <ele>6.4</ele>
        <time>2022-04-17T12:21:11Z</time>
      </trkpt>
      <trkpt lat="50.03817" lon="1.94942">
        <ele>6.4</ele>
        <time>2022-04-17T12:21:12Z</time>
      </trkpt>
      <trkpt lat="50.03818" lon="1.94943">
        <ele>6.4</ele>
        <time>2022-04-17T12:21:13Z</time>
      </trkpt>
      <trkpt lat="50.03818" lon="1.94943">
        <ele>6.4</ele>
        <time>2022-04-17T12:21:14Z</time>
      </trkpt>
      <trkpt lat="50.0382" lon="1.94943">
        <ele>6.4</ele>
        <time>2022-04-17T12:21:15Z</time>
      </trkpt>
      <trkpt lat="50.03821" lon="1.94943">
        <ele>6.4</ele>
        <time>2022-04-17T12:21:16Z</time>
      </trkpt>
      <trkpt lat="50.03822" lon="1.94943">
        <ele>6.4</ele>
        <time>2022-04-17T12:21:18Z</time>
      </trkpt>
      <trkpt lat="50.03824" lon="1.94943">
        <ele>6.4</ele>
        <time>2022-04-17T12:21:19Z</time>
      </trkpt>
      <trkpt lat="50.03825" lon="1.94942">
        <ele>6.4</ele>
        <time>2022-04-17T12:21:20Z</time>
      </trkpt>
      <trkpt lat="50.03826" lon="1.94942">
        <ele>6.4</ele>
        <time>2022-04-17T12:21:21Z</time>
      </trkpt>
      <trkpt lat="50.03827" lon="1.94942">
        <ele>6.4</ele>
        <time>2022-04-17T12:21:22Z</time>
      </trkpt>
      <trkpt lat="50.03829" lon="1.94942">
        <ele>6.4</ele>
        <time>2022-04-17T12:21:23Z</time>
      </trkpt>
      <trkpt lat="50.03831" lon="1.94942">
        <ele>6.5</ele>
        <time>2022-04-17T12:21:24Z</time>
      </trkpt>
      <trkpt lat="50.03832" lon="1.94941">
        <ele>6.5</ele>
        <time>2022-04-17T12:21:26Z</time>
      </trkpt>
      <trkpt lat="50.03833" lon="1.94941">
        <ele>6.5</ele>
        <time>2022-04-17T12:21:27Z</time>
      </trkpt>
      <trkpt lat="50.03834" lon="1.94941">
        <ele>6.5</ele>
        <time>2022-04-17T12:21:28Z</time>
      </trkpt>
      <trkpt lat="50.03835" lon="1.9494">
        <ele>6.5</ele>
        <time>2022-04-17T12:21:29Z</time>
      </trkpt>
      <trkpt lat="50.03837" lon="1.9494">
        <ele>6.5</ele>
        <time>2022-04-17T12:21:31Z</time>
      </trkpt>
      <trkpt lat="50.03838" lon="1.9494">
        <ele>6.5</ele>
        <time>2022-04-17T12:21:32Z</time>
      </trkpt>
      <trkpt lat="50.03839" lon="1.9494">
        <ele>6.5</ele>
        <time>2022-04-17T12:21:33Z</time>
      </trkpt>
      <trkpt lat="50.0384" lon="1.9494">
        <ele>6.5</ele>
        <time>2022-04-17T12:21:34Z</time>
      </trkpt>
      <trkpt lat="50.03842" lon="1.94941">
        <ele>6.5</ele>
        <time>2022-04-17T12:21:36Z</time>
      </trkpt>
      <trkpt lat="50.03843" lon="1.94941">
        <ele>6.5</ele>
        <time>2022-04-17T12:21:37Z</time>
      </trkpt>
      <trkpt lat="50.03844" lon="1.94941">
        <ele>6.5</ele>
        <time>2022-04-17T12:21:38Z</time>
      </trkpt>
      <trkpt lat="50.03845" lon="1.94941">
        <ele>6.5</ele>
        <time>2022-04-17T12:21:39Z</time>
      </trkpt>
      <trkpt lat="50.03846" lon="1.94941">
        <ele>6.5</ele>
        <time>2022-04-17T12:21:40Z</time>
      </trkpt>
      <trkpt lat="50.03847" lon="1.94942">
        <ele>6.5</ele>
        <time>2022-04-17T12:21:41Z</time>
      </trkpt>
      <trkpt lat="50.03849" lon="1.94942">
        <ele>6.5</ele>
        <time>2022-04-17T12:21:43Z</time>
      </trkpt>
      <trkpt lat="50.0385" lon="1.94942">
        <ele>6.5</ele>
        <time>2022-04-17T12:21:44Z</time>
      </trkpt>
      <trkpt lat="50.03852" lon="1.94942">
        <ele>6.5</ele>
        <time>2022-04-17T12:21:45Z</time>
      </trkpt>
      <trkpt lat="50.03853" lon="1.94942">
        <ele>6.5</ele>
        <time>2022-04-17T12:21:46Z</time>
      </trkpt>
      <trkpt lat="50.03854" lon="1.94942">
        <ele>6.5</ele>
        <time>2022-04-17T12:21:47Z</time>
      </trkpt>
      <trkpt lat="50.03855" lon="1.94942">
        <ele>6.5</ele>
        <time>2022-04-17T12:21:48Z</time>
      </trkpt>
      <trkpt lat="50.03857" lon="1.94941">
        <ele>6.5</ele>
        <time>2022-04-17T12:21:49Z</time>
      </trkpt>
      <trkpt lat="50.03858" lon="1.94941">
        <ele>6.5</ele>
        <time>2022-04-17T12:21:51Z</time>
      </trkpt>
      <trkpt lat="50.0386" lon="1.94941">
        <ele>6.5</ele>
        <time>2022-04-17T12:21:52Z</time>
      </trkpt>
      <trkpt lat="50.03861" lon="1.94941">
        <ele>6.5</ele>
        <time>2022-04-17T12:21:53Z</time>
      </trkpt>
      <trkpt lat="50.03862" lon="1.94941">
        <ele>6.6</ele>
        <time>2022-04-17T12:21:54Z</time>
      </trkpt>
      <trkpt lat="50.03863" lon="1.94941">
        <ele>6.6</ele>
        <time>2022-04-17T12:21:55Z</time>
      </trkpt>
      <trkpt lat="50.03864" lon="1.94941">
        <ele>6.6</ele>
        <time>2022-04-17T12:21:56Z</time>
      </trkpt>
      <trkpt lat="50.03865" lon="1.94941">
        <ele>6.6</ele>
        <time>2022-04-17T12:21:58Z</time>
      </trkpt>
      <trkpt lat="50.03868" lon="1.94941">
        <ele>6.6</ele>
        <time>2022-04-17T12:21:59Z</time>
      </trkpt>
      <trkpt lat="50.03869" lon="1.94941">
        <ele>6.6</ele>
        <time>2022-04-17T12:22:00Z</time>
      </trkpt>
      <trkpt lat="50.0387" lon="1.94941">
        <ele>6.7</ele>
        <time>2022-04-17T12:22:02Z</time>
      </trkpt>
      <trkpt lat="50.03872" lon="1.94941">
        <ele>6.7</ele>
        <time>2022-04-17T12:22:03Z</time>
      </trkpt>
      <trkpt lat="50.03873" lon="1.94941">
        <ele>6.7</ele>
        <time>2022-04-17T12:22:04Z</time>
      </trkpt>
      <trkpt lat="50.03874" lon="1.9494">
        <ele>6.7</ele>
        <time>2022-04-17T12:22:06Z</time>
      </trkpt>
      <trkpt lat="50.03875" lon="1.9494">
        <ele>6.6</ele>
        <time>2022-04-17T12:22:07Z</time>
      </trkpt>
      <trkpt lat="50.03877" lon="1.94937">
        <ele>6.6</ele>
        <time>2022-04-17T12:22:08Z</time>
      </trkpt>
      <trkpt lat="50.03877" lon="1.94936">
        <ele>6.6</ele>
        <time>2022-04-17T12:22:09Z</time>
      </trkpt>
      <trkpt lat="50.03878" lon="1.94935">
        <ele>6.6</ele>
        <time>2022-04-17T12:22:10Z</time>
      </trkpt>
      <trkpt lat="50.03878" lon="1.94933">
        <ele>6.6</ele>
        <time>2022-04-17T12:22:11Z</time>
      </trkpt>
      <trkpt lat="50.03879" lon="1.94932">
        <ele>6.6</ele>
        <time>2022-04-17T12:22:12Z</time>
      </trkpt>
      <trkpt lat="50.03879" lon="1.94931">
        <ele>6.6</ele>
        <time>2022-04-17T12:22:13Z</time>
      </trkpt>
      <trkpt lat="50.03879" lon="1.9493">
        <ele>6.6</ele>
        <time>2022-04-17T12:22:14Z</time>
      </trkpt>
      <trkpt lat="50.03881" lon="1.94927">
        <ele>6.6</ele>
        <time>2022-04-17T12:22:15Z</time>
      </trkpt>
      <trkpt lat="50.03881" lon="1.94925">
        <ele>6.5</ele>
        <time>2022-04-17T12:22:17Z</time>
      </trkpt>
      <trkpt lat="50.03882" lon="1.94924">
        <ele>6.5</ele>
        <time>2022-04-17T12:22:18Z</time>
      </trkpt>
      <trkpt lat="50.03882" lon="1.94922">
        <ele>6.5</ele>
        <time>2022-04-17T12:22:19Z</time>
      </trkpt>
      <trkpt lat="50.03883" lon="1.9492">
        <ele>6.5</ele>
        <time>2022-04-17T12:22:20Z</time>
      </trkpt>
      <trkpt lat="50.03883" lon="1.94919">
        <ele>6.5</ele>
        <time>2022-04-17T12:22:21Z</time>
      </trkpt>
      <trkpt lat="50.03883" lon="1.94917">
        <ele>6.5</ele>
        <time>2022-04-17T12:22:22Z</time>
      </trkpt>
      <trkpt lat="50.03884" lon="1.94914">
        <ele>6.5</ele>
        <time>2022-04-17T12:22:24Z</time>
      </trkpt>
      <trkpt lat="50.03885" lon="1.94911">
        <ele>6.5</ele>
        <time>2022-04-17T12:22:25Z</time>
      </trkpt>
      <trkpt lat="50.03885" lon="1.9491">
        <ele>6.4</ele>
        <time>2022-04-17T12:22:26Z</time>
      </trkpt>
      <trkpt lat="50.03886" lon="1.94906">
        <ele>6.4</ele>
        <time>2022-04-17T12:22:27Z</time>
      </trkpt>
      <trkpt lat="50.03887" lon="1.94905">
        <ele>6.4</ele>
        <time>2022-04-17T12:22:29Z</time>
      </trkpt>
      <trkpt lat="50.03887" lon="1.94903">
        <ele>6.4</ele>
        <time>2022-04-17T12:22:30Z</time>
      </trkpt>
      <trkpt lat="50.03887" lon="1.94902">
        <ele>6.4</ele>
        <time>2022-04-17T12:22:32Z</time>
      </trkpt>
      <trkpt lat="50.03888" lon="1.949">
        <ele>6.4</ele>
        <time>2022-04-17T12:22:33Z</time>
      </trkpt>
      <trkpt lat="50.03888" lon="1.94899">
        <ele>6.4</ele>
        <time>2022-04-17T12:22:34Z</time>
      </trkpt>
      <trkpt lat="50.03889" lon="1.94896">
        <ele>6.4</ele>
        <time>2022-04-17T12:22:35Z</time>
      </trkpt>
      <trkpt lat="50.03889" lon="1.94895">
        <ele>6.4</ele>
        <time>2022-04-17T12:22:36Z</time>
      </trkpt>
      <trkpt lat="50.03889" lon="1.94894">
        <ele>6.4</ele>
        <time>2022-04-17T12:22:37Z</time>
      </trkpt>
      <trkpt lat="50.0389" lon="1.94891">
        <ele>6.4</ele>
        <time>2022-04-17T12:22:39Z</time>
      </trkpt>
      <trkpt lat="50.03891" lon="1.94889">
        <ele>6.4</ele>
        <time>2022-04-17T12:22:40Z</time>
      </trkpt>
      <trkpt lat="50.03891" lon="1.94887">
        <ele>6.4</ele>
        <time>2022-04-17T12:22:42Z</time>
      </trkpt>
      <trkpt lat="50.03892" lon="1.94885">
        <ele>6.4</ele>
        <time>2022-04-17T12:22:43Z</time>
      </trkpt>
      <trkpt lat="50.03892" lon="1.94884">
        <ele>6.4</ele>
        <time>2022-04-17T12:22:44Z</time>
      </trkpt>
      <trkpt lat="50.03893" lon="1.94881">
        <ele>6.4</ele>
        <time>2022-04-17T12:22:45Z</time>
      </trkpt>
      <trkpt lat="50.03894" lon="1.9488">
        <ele>6.4</ele>
        <time>2022-04-17T12:22:46Z</time>
      </trkpt>
      <trkpt lat="50.03894" lon="1.94879">
        <ele>6.4</ele>
        <time>2022-04-17T12:22:47Z</time>
      </trkpt>
      <trkpt lat="50.03895" lon="1.94878">
        <ele>6.4</ele>
        <time>2022-04-17T12:22:48Z</time>
      </trkpt>
      <trkpt lat="50.03896" lon="1.94877">
        <ele>6.4</ele>
        <time>2022-04-17T12:22:49Z</time>
      </trkpt>
      <trkpt lat="50.03897" lon="1.94874">
        <ele>6.4</ele>
        <time>2022-04-17T12:22:51Z</time>
      </trkpt>
      <trkpt lat="50.03897" lon="1.94873">
        <ele>6.4</ele>
        <time>2022-04-17T12:22:52Z</time>
      </trkpt>
      <trkpt lat="50.03898" lon="1.94871">
        <ele>6.4</ele>
        <time>2022-04-17T12:22:53Z</time>
      </trkpt>
      <trkpt lat="50.03898" lon="1.94869">
        <ele>6.4</ele>
        <time>2022-04-17T12:22:54Z</time>
      </trkpt>
      <trkpt lat="50.03899" lon="1.94867">
        <ele>6.4</ele>
        <time>2022-04-17T12:22:55Z</time>
      </trkpt>
      <trkpt lat="50.03899" lon="1.94865">
        <ele>6.4</ele>
        <time>2022-04-17T12:22:56Z</time>
      </trkpt>
      <trkpt lat="50.03899" lon="1.94864">
        <ele>6.4</ele>
        <time>2022-04-17T12:22:57Z</time>
      </trkpt>
      <trkpt lat="50.039" lon="1.94862">
        <ele>6.4</ele>
        <time>2022-04-17T12:22:58Z</time>
      </trkpt>
      <trkpt lat="50.039" lon="1.94861">
        <ele>6.4</ele>
        <time>2022-04-17T12:22:59Z</time>
      </trkpt>
      <trkpt lat="50.03901" lon="1.94857">
        <ele>6.4</ele>
        <time>2022-04-17T12:23:00Z</time>
      </trkpt>
      <trkpt lat="50.03901" lon="1.94856">
        <ele>6.4</ele>
        <time>2022-04-17T12:23:02Z</time>
      </trkpt>
      <trkpt lat="50.03901" lon="1.94855">
        <ele>6.4</ele>
        <time>2022-04-17T12:23:03Z</time>
      </trkpt>
      <trkpt lat="50.03902" lon="1.94852">
        <ele>6.4</ele>
        <time>2022-04-17T12:23:04Z</time>
      </trkpt>
      <trkpt lat="50.03902" lon="1.9485">
        <ele>6.4</ele>
        <time>2022-04-17T12:23:05Z</time>
      </trkpt>
      <trkpt lat="50.03903" lon="1.94849">
        <ele>6.4</ele>
        <time>2022-04-17T12:23:06Z</time>
      </trkpt>
      <trkpt lat="50.03903" lon="1.94848">
        <ele>6.4</ele>
        <time>2022-04-17T12:23:07Z</time>
      </trkpt>
      <trkpt lat="50.03904" lon="1.94846">
        <ele>6.4</ele>
        <time>2022-04-17T12:23:08Z</time>
      </trkpt>
      <trkpt lat="50.03904" lon="1.94844">
        <ele>6.4</ele>
        <time>2022-04-17T12:23:09Z</time>
      </trkpt>
      <trkpt lat="50.03905" lon="1.94841">
        <ele>6.4</ele>
        <time>2022-04-17T12:23:11Z</time>
      </trkpt>
      <trkpt lat="50.03906" lon="1.9484">
        <ele>6.4</ele>
        <time>2022-04-17T12:23:12Z</time>
      </trkpt>
      <trkpt lat="50.03906" lon="1.94839">
        <ele>6.4</ele>
        <time>2022-04-17T12:23:13Z</time>
      </trkpt>
      <trkpt lat="50.03907" lon="1.94836">
        <ele>6.4</ele>
        <time>2022-04-17T12:23:14Z</time>
      </trkpt>
      <trkpt lat="50.03908" lon="1.94835">
        <ele>6.4</ele>
        <time>2022-04-17T12:23:15Z</time>
      </trkpt>
      <trkpt lat="50.03908" lon="1.94834">
        <ele>6.4</ele>
        <time>2022-04-17T12:23:16Z</time>
      </trkpt>
      <trkpt lat="50.03908" lon="1.94832">
        <ele>6.4</ele>
        <time>2022-04-17T12:23:17Z</time>
      </trkpt>
      <trkpt lat="50.03909" lon="1.94831">
        <ele>6.3</ele>
        <time>2022-04-17T12:23:19Z</time>
      </trkpt>
      <trkpt lat="50.03909" lon="1.94829">
        <ele>6.3</ele>
        <time>2022-04-17T12:23:20Z</time>
      </trkpt>
      <trkpt lat="50.0391" lon="1.94826">
        <ele>6.3</ele>
        <time>2022-04-17T12:23:21Z</time>
      </trkpt>
      <trkpt lat="50.03911" lon="1.94825">
        <ele>6.3</ele>
        <time>2022-04-17T12:23:22Z</time>
      </trkpt>
      <trkpt lat="50.03911" lon="1.94822">
        <ele>6.3</ele>
        <time>2022-04-17T12:23:23Z</time>
      </trkpt>
      <trkpt lat="50.03912" lon="1.9482">
        <ele>6.3</ele>
        <time>2022-04-17T12:23:25Z</time>
      </trkpt>
      <trkpt lat="50.03912" lon="1.94819">
        <ele>6.3</ele>
        <time>2022-04-17T12:23:26Z</time>
      </trkpt>
      <trkpt lat="50.03912" lon="1.94817">
        <ele>6.3</ele>
        <time>2022-04-17T12:23:27Z</time>
      </trkpt>
      <trkpt lat="50.03912" lon="1.94816">
        <ele>6.3</ele>
        <time>2022-04-17T12:23:28Z</time>
      </trkpt>
      <trkpt lat="50.03913" lon="1.94814">
        <ele>6.3</ele>
        <time>2022-04-17T12:23:29Z</time>
      </trkpt>
      <trkpt lat="50.03913" lon="1.94811">
        <ele>6.3</ele>
        <time>2022-04-17T12:23:30Z</time>
      </trkpt>
      <trkpt lat="50.03914" lon="1.9481">
        <ele>6.3</ele>
        <time>2022-04-17T12:23:32Z</time>
      </trkpt>
      <trkpt lat="50.03914" lon="1.94809">
        <ele>6.3</ele>
        <time>2022-04-17T12:23:33Z</time>
      </trkpt>
      <trkpt lat="50.03915" lon="1.94806">
        <ele>6.3</ele>
        <time>2022-04-17T12:23:34Z</time>
      </trkpt>
      <trkpt lat="50.03915" lon="1.94805">
        <ele>6.3</ele>
        <time>2022-04-17T12:23:35Z</time>
      </trkpt>
      <trkpt lat="50.03916" lon="1.94804">
        <ele>6.3</ele>
        <time>2022-04-17T12:23:36Z</time>
      </trkpt>
      <trkpt lat="50.03916" lon="1.94801">
        <ele>6.3</ele>
        <time>2022-04-17T12:23:38Z</time>
      </trkpt>
      <trkpt lat="50.03917" lon="1.94799">
        <ele>6.3</ele>
        <time>2022-04-17T12:23:39Z</time>
      </trkpt>
      <trkpt lat="50.03917" lon="1.94798">
        <ele>6.3</ele>
        <time>2022-04-17T12:23:40Z</time>
      </trkpt>
      <trkpt lat="50.03918" lon="1.94796">
        <ele>6.3</ele>
        <time>2022-04-17T12:23:41Z</time>
      </trkpt>
      <trkpt lat="50.03918" lon="1.94794">
        <ele>6.3</ele>
        <time>2022-04-17T12:23:42Z</time>
      </trkpt>
      <trkpt lat="50.03919" lon="1.94791">
        <ele>6.3</ele>
        <time>2022-04-17T12:23:43Z</time>
      </trkpt>
      <trkpt lat="50.03919" lon="1.9479">
        <ele>6.3</ele>
        <time>2022-04-17T12:23:45Z</time>
      </trkpt>
      <trkpt lat="50.03919" lon="1.94789">
        <ele>6.3</ele>
        <time>2022-04-17T12:23:46Z</time>
      </trkpt>
      <trkpt lat="50.0392" lon="1.94786">
        <ele>6.3</ele>
        <time>2022-04-17T12:23:47Z</time>
      </trkpt>
      <trkpt lat="50.0392" lon="1.94785">
        <ele>6.4</ele>
        <time>2022-04-17T12:23:48Z</time>
      </trkpt>
      <trkpt lat="50.0392" lon="1.94783">
        <ele>6.4</ele>
        <time>2022-04-17T12:23:49Z</time>
      </trkpt>
      <trkpt lat="50.0392" lon="1.9478">
        <ele>6.4</ele>
        <time>2022-04-17T12:23:51Z</time>
      </trkpt>
      <trkpt lat="50.0392" lon="1.94779">
        <ele>6.4</ele>
        <time>2022-04-17T12:23:52Z</time>
      </trkpt>
      <trkpt lat="50.0392" lon="1.94777">
        <ele>6.4</ele>
        <time>2022-04-17T12:23:53Z</time>
      </trkpt>
      <trkpt lat="50.03921" lon="1.94775">
        <ele>6.4</ele>
        <time>2022-04-17T12:23:54Z</time>
      </trkpt>
      <trkpt lat="50.03921" lon="1.94774">
        <ele>6.4</ele>
        <time>2022-04-17T12:23:55Z</time>
      </trkpt>
      <trkpt lat="50.03922" lon="1.94771">
        <ele>6.4</ele>
        <time>2022-04-17T12:23:56Z</time>
      </trkpt>
      <trkpt lat="50.03922" lon="1.9477">
        <ele>6.4</ele>
        <time>2022-04-17T12:23:57Z</time>
      </trkpt>
      <trkpt lat="50.03923" lon="1.94766">
        <ele>6.4</ele>
        <time>2022-04-17T12:23:59Z</time>
      </trkpt>
      <trkpt lat="50.03923" lon="1.94765">
        <ele>6.4</ele>
        <time>2022-04-17T12:24:00Z</time>
      </trkpt>
      <trkpt lat="50.03924" lon="1.94763">
        <ele>6.4</ele>
        <time>2022-04-17T12:24:01Z</time>
      </trkpt>
      <trkpt lat="50.03924" lon="1.94762">
        <ele>6.4</ele>
        <time>2022-04-17T12:24:02Z</time>
      </trkpt>
      <trkpt lat="50.03925" lon="1.9476">
        <ele>6.4</ele>
        <time>2022-04-17T12:24:03Z</time>
      </trkpt>
      <trkpt lat="50.03925" lon="1.94758">
        <ele>6.4</ele>
        <time>2022-04-17T12:24:04Z</time>
      </trkpt>
      <trkpt lat="50.03925" lon="1.94757">
        <ele>6.4</ele>
        <time>2022-04-17T12:24:05Z</time>
      </trkpt>
      <trkpt lat="50.03926" lon="1.94754">
        <ele>6.4</ele>
        <time>2022-04-17T12:24:06Z</time>
      </trkpt>
      <trkpt lat="50.03926" lon="1.94753">
        <ele>6.4</ele>
        <time>2022-04-17T12:24:08Z</time>
      </trkpt>
      <trkpt lat="50.03927" lon="1.94751">
        <ele>6.4</ele>
        <time>2022-04-17T12:24:09Z</time>
      </trkpt>
      <trkpt lat="50.03928" lon="1.94749">
        <ele>6.4</ele>
        <time>2022-04-17T12:24:10Z</time>
      </trkpt>
      <trkpt lat="50.03929" lon="1.94746">
        <ele>6.4</ele>
        <time>2022-04-17T12:24:11Z</time>
      </trkpt>
      <trkpt lat="50.03929" lon="1.94745">
        <ele>6.4</ele>
        <time>2022-04-17T12:24:13Z</time>
      </trkpt>
      <trkpt lat="50.03929" lon="1.94743">
        <ele>6.4</ele>
        <time>2022-04-17T12:24:14Z</time>
      </trkpt>
      <trkpt lat="50.0393" lon="1.9474">
        <ele>6.4</ele>
        <time>2022-04-17T12:24:15Z</time>
      </trkpt>
      <trkpt lat="50.0393" lon="1.94738">
        <ele>6.4</ele>
        <time>2022-04-17T12:24:16Z</time>
      </trkpt>
      <trkpt lat="50.0393" lon="1.94737">
        <ele>6.4</ele>
        <time>2022-04-17T12:24:18Z</time>
      </trkpt>
      <trkpt lat="50.03931" lon="1.94735">
        <ele>6.4</ele>
        <time>2022-04-17T12:24:19Z</time>
      </trkpt>
      <trkpt lat="50.03931" lon="1.94734">
        <ele>6.4</ele>
        <time>2022-04-17T12:24:20Z</time>
      </trkpt>
      <trkpt lat="50.03931" lon="1.94732">
        <ele>6.4</ele>
        <time>2022-04-17T12:24:21Z</time>
      </trkpt>
      <trkpt lat="50.03932" lon="1.94731">
        <ele>6.5</ele>
        <time>2022-04-17T12:24:22Z</time>
      </trkpt>
      <trkpt lat="50.03932" lon="1.94729">
        <ele>6.5</ele>
        <time>2022-04-17T12:24:23Z</time>
      </trkpt>
      <trkpt lat="50.03932" lon="1.94727">
        <ele>6.5</ele>
        <time>2022-04-17T12:24:24Z</time>
      </trkpt>
      <trkpt lat="50.03933" lon="1.94725">
        <ele>6.5</ele>
        <time>2022-04-17T12:24:26Z</time>
      </trkpt>
      <trkpt lat="50.03933" lon="1.94723">
        <ele>6.5</ele>
        <time>2022-04-17T12:24:27Z</time>
      </trkpt>
      <trkpt lat="50.03933" lon="1.94721">
        <ele>6.5</ele>
        <time>2022-04-17T12:24:28Z</time>
      </trkpt>
      <trkpt lat="50.03934" lon="1.9472">
        <ele>6.5</ele>
        <time>2022-04-17T12:24:29Z</time>
      </trkpt>
      <trkpt lat="50.03934" lon="1.94718">
        <ele>6.5</ele>
        <time>2022-04-17T12:24:30Z</time>
      </trkpt>
      <trkpt lat="50.03935" lon="1.94715">
        <ele>6.5</ele>
        <time>2022-04-17T12:24:31Z</time>
      </trkpt>
      <trkpt lat="50.03936" lon="1.94714">
        <ele>6.5</ele>
        <time>2022-04-17T12:24:32Z</time>
      </trkpt>
      <trkpt lat="50.03936" lon="1.94713">
        <ele>6.5</ele>
        <time>2022-04-17T12:24:33Z</time>
      </trkpt>
      <trkpt lat="50.03937" lon="1.9471">
        <ele>6.5</ele>
        <time>2022-04-17T12:24:35Z</time>
      </trkpt>
      <trkpt lat="50.03938" lon="1.94709">
        <ele>6.5</ele>
        <time>2022-04-17T12:24:36Z</time>
      </trkpt>
      <trkpt lat="50.03938" lon="1.94707">
        <ele>6.5</ele>
        <time>2022-04-17T12:24:37Z</time>
      </trkpt>
      <trkpt lat="50.03939" lon="1.94706">
        <ele>6.5</ele>
        <time>2022-04-17T12:24:38Z</time>
      </trkpt>
      <trkpt lat="50.03939" lon="1.94704">
        <ele>6.5</ele>
        <time>2022-04-17T12:24:39Z</time>
      </trkpt>
      <trkpt lat="50.0394" lon="1.94703">
        <ele>6.5</ele>
        <time>2022-04-17T12:24:40Z</time>
      </trkpt>
      <trkpt lat="50.0394" lon="1.94701">
        <ele>6.5</ele>
        <time>2022-04-17T12:24:41Z</time>
      </trkpt>
      <trkpt lat="50.03941" lon="1.94699">
        <ele>6.5</ele>
        <time>2022-04-17T12:24:42Z</time>
      </trkpt>
      <trkpt lat="50.03942" lon="1.94697">
        <ele>6.5</ele>
        <time>2022-04-17T12:24:43Z</time>
      </trkpt>
      <trkpt lat="50.03942" lon="1.94695">
        <ele>6.5</ele>
        <time>2022-04-17T12:24:44Z</time>
      </trkpt>
      <trkpt lat="50.03943" lon="1.94693">
        <ele>6.5</ele>
        <time>2022-04-17T12:24:46Z</time>
      </trkpt>
      <trkpt lat="50.03944" lon="1.9469">
        <ele>6.5</ele>
        <time>2022-04-17T12:24:47Z</time>
      </trkpt>
      <trkpt lat="50.03944" lon="1.94689">
        <ele>6.5</ele>
        <time>2022-04-17T12:24:48Z</time>
      </trkpt>
      <trkpt lat="50.03944" lon="1.94687">
        <ele>6.5</ele>
        <time>2022-04-17T12:24:49Z</time>
      </trkpt>
      <trkpt lat="50.03945" lon="1.94686">
        <ele>6.5</ele>
        <time>2022-04-17T12:24:50Z</time>
      </trkpt>
      <trkpt lat="50.03945" lon="1.94684">
        <ele>6.5</ele>
        <time>2022-04-17T12:24:51Z</time>
      </trkpt>
      <trkpt lat="50.03946" lon="1.94683">
        <ele>6.5</ele>
        <time>2022-04-17T12:24:52Z</time>
      </trkpt>
      <trkpt lat="50.03946" lon="1.94681">
        <ele>6.5</ele>
        <time>2022-04-17T12:24:53Z</time>
      </trkpt>
      <trkpt lat="50.03947" lon="1.94679">
        <ele>6.5</ele>
        <time>2022-04-17T12:24:54Z</time>
      </trkpt>
      <trkpt lat="50.03947" lon="1.94677">
        <ele>6.5</ele>
        <time>2022-04-17T12:24:56Z</time>
      </trkpt>
      <trkpt lat="50.03948" lon="1.94674">
        <ele>6.4</ele>
        <time>2022-04-17T12:24:57Z</time>
      </trkpt>
      <trkpt lat="50.03948" lon="1.94673">
        <ele>6.4</ele>
        <time>2022-04-17T12:24:58Z</time>
      </trkpt>
      <trkpt lat="50.03948" lon="1.94671">
        <ele>6.4</ele>
        <time>2022-04-17T12:24:59Z</time>
      </trkpt>
      <trkpt lat="50.03949" lon="1.94668">
        <ele>6.4</ele>
        <time>2022-04-17T12:25:00Z</time>
      </trkpt>
      <trkpt lat="50.03949" lon="1.94667">
        <ele>6.4</ele>
        <time>2022-04-17T12:25:01Z</time>
      </trkpt>
      <trkpt lat="50.0395" lon="1.94666">
        <ele>6.4</ele>
        <time>2022-04-17T12:25:02Z</time>
      </trkpt>
      <trkpt lat="50.0395" lon="1.94664">
        <ele>6.4</ele>
        <time>2022-04-17T12:25:03Z</time>
      </trkpt>
      <trkpt lat="50.03951" lon="1.94662">
        <ele>6.4</ele>
        <time>2022-04-17T12:25:05Z</time>
      </trkpt>
      <trkpt lat="50.03951" lon="1.9466">
        <ele>6.4</ele>
        <time>2022-04-17T12:25:06Z</time>
      </trkpt>
      <trkpt lat="50.03952" lon="1.94659">
        <ele>6.4</ele>
        <time>2022-04-17T12:25:07Z</time>
      </trkpt>
      <trkpt lat="50.03953" lon="1.94657">
        <ele>6.4</ele>
        <time>2022-04-17T12:25:08Z</time>
      </trkpt>
      <trkpt lat="50.03953" lon="1.94656">
        <ele>6.4</ele>
        <time>2022-04-17T12:25:09Z</time>
      </trkpt>
      <trkpt lat="50.03954" lon="1.94654">
        <ele>6.4</ele>
        <time>2022-04-17T12:25:10Z</time>
      </trkpt>
      <trkpt lat="50.03955" lon="1.94651">
        <ele>6.4</ele>
        <time>2022-04-17T12:25:12Z</time>
      </trkpt>
      <trkpt lat="50.03955" lon="1.94649">
        <ele>6.4</ele>
        <time>2022-04-17T12:25:13Z</time>
      </trkpt>
      <trkpt lat="50.03956" lon="1.94647">
        <ele>6.4</ele>
        <time>2022-04-17T12:25:14Z</time>
      </trkpt>
      <trkpt lat="50.03956" lon="1.94645">
        <ele>6.4</ele>
        <time>2022-04-17T12:25:15Z</time>
      </trkpt>
      <trkpt lat="50.03957" lon="1.94644">
        <ele>6.4</ele>
        <time>2022-04-17T12:25:16Z</time>
      </trkpt>
      <trkpt lat="50.03957" lon="1.94642">
        <ele>6.4</ele>
        <time>2022-04-17T12:25:18Z</time>
      </trkpt>
      <trkpt lat="50.03958" lon="1.94641">
        <ele>6.4</ele>
        <time>2022-04-17T12:25:19Z</time>
      </trkpt>
      <trkpt lat="50.03958" lon="1.94639">
        <ele>6.4</ele>
        <time>2022-04-17T12:25:20Z</time>
      </trkpt>
      <trkpt lat="50.03958" lon="1.94638">
        <ele>6.4</ele>
        <time>2022-04-17T12:25:21Z</time>
      </trkpt>
      <trkpt lat="50.03959" lon="1.94636">
        <ele>6.4</ele>
        <time>2022-04-17T12:25:22Z</time>
      </trkpt>
      <trkpt lat="50.0396" lon="1.94634">
        <ele>6.4</ele>
        <time>2022-04-17T12:25:24Z</time>
      </trkpt>
      <trkpt lat="50.0396" lon="1.94632">
        <ele>6.4</ele>
        <time>2022-04-17T12:25:25Z</time>
      </trkpt>
      <trkpt lat="50.03961" lon="1.9463">
        <ele>6.4</ele>
        <time>2022-04-17T12:25:26Z</time>
      </trkpt>
      <trkpt lat="50.03961" lon="1.94629">
        <ele>6.4</ele>
        <time>2022-04-17T12:25:28Z</time>
      </trkpt>
      <trkpt lat="50.03962" lon="1.94627">
        <ele>6.4</ele>
        <time>2022-04-17T12:25:29Z</time>
      </trkpt>
      <trkpt lat="50.03962" lon="1.94625">
        <ele>6.5</ele>
        <time>2022-04-17T12:25:30Z</time>
      </trkpt>
      <trkpt lat="50.03962" lon="1.94624">
        <ele>6.5</ele>
        <time>2022-04-17T12:25:31Z</time>
      </trkpt>
      <trkpt lat="50.03963" lon="1.94623">
        <ele>6.5</ele>
        <time>2022-04-17T12:25:32Z</time>
      </trkpt>
      <trkpt lat="50.03963" lon="1.94622">
        <ele>6.5</ele>
        <time>2022-04-17T12:25:33Z</time>
      </trkpt>
      <trkpt lat="50.03963" lon="1.94622">
        <ele>6.5</ele>
        <time>2022-04-17T12:25:34Z</time>
      </trkpt>
      <trkpt lat="50.03964" lon="1.94622">
        <ele>6.5</ele>
        <time>2022-04-17T12:25:35Z</time>
      </trkpt>
      <trkpt lat="50.03964" lon="1.94623">
        <ele>6.5</ele>
        <time>2022-04-17T12:25:36Z</time>
      </trkpt>
      <trkpt lat="50.03964" lon="1.94624">
        <ele>6.5</ele>
        <time>2022-04-17T12:25:37Z</time>
      </trkpt>
      <trkpt lat="50.03963" lon="1.94624">
        <ele>6.5</ele>
        <time>2022-04-17T12:25:38Z</time>
      </trkpt>
      <trkpt lat="50.03963" lon="1.94624">
        <ele>6.5</ele>
        <time>2022-04-17T12:25:39Z</time>
      </trkpt>
      <trkpt lat="50.03963" lon="1.94623">
        <ele>6.5</ele>
        <time>2022-04-17T12:25:41Z</time>
      </trkpt>
      <trkpt lat="50.03963" lon="1.94623">
        <ele>6.5</ele>
        <time>2022-04-17T12:25:42Z</time>
      </trkpt>
      <trkpt lat="50.03964" lon="1.94622">
        <ele>6.5</ele>
        <time>2022-04-17T12:25:43Z</time>
      </trkpt>
      <trkpt lat="50.03964" lon="1.94621">
        <ele>6.5</ele>
        <time>2022-04-17T12:25:44Z</time>
      </trkpt>
      <trkpt lat="50.03964" lon="1.9462">
        <ele>6.5</ele>
        <time>2022-04-17T12:25:45Z</time>
      </trkpt>
      <trkpt lat="50.03964" lon="1.94618">
        <ele>6.5</ele>
        <time>2022-04-17T12:25:47Z</time>
      </trkpt>
      <trkpt lat="50.03965" lon="1.94616">
        <ele>6.5</ele>
        <time>2022-04-17T12:25:48Z</time>
      </trkpt>
      <trkpt lat="50.03965" lon="1.94615">
        <ele>6.5</ele>
        <time>2022-04-17T12:25:49Z</time>
      </trkpt>
      <trkpt lat="50.03965" lon="1.94613">
        <ele>6.5</ele>
        <time>2022-04-17T12:25:51Z</time>
      </trkpt>
      <trkpt lat="50.03966" lon="1.94612">
        <ele>6.5</ele>
        <time>2022-04-17T12:25:52Z</time>
      </trkpt>
      <trkpt lat="50.03967" lon="1.94608">
        <ele>6.5</ele>
        <time>2022-04-17T12:25:53Z</time>
      </trkpt>
      <trkpt lat="50.03968" lon="1.94607">
        <ele>6.5</ele>
        <time>2022-04-17T12:25:54Z</time>
      </trkpt>
      <trkpt lat="50.03968" lon="1.94606">
        <ele>6.5</ele>
        <time>2022-04-17T12:25:55Z</time>
      </trkpt>
      <trkpt lat="50.03969" lon="1.94604">
        <ele>6.5</ele>
        <time>2022-04-17T12:25:56Z</time>
      </trkpt>
      <trkpt lat="50.03969" lon="1.94603">
        <ele>6.5</ele>
        <time>2022-04-17T12:25:57Z</time>
      </trkpt>
      <trkpt lat="50.0397" lon="1.946">
        <ele>6.5</ele>
        <time>2022-04-17T12:25:59Z</time>
      </trkpt>
      <trkpt lat="50.03971" lon="1.94599">
        <ele>6.5</ele>
        <time>2022-04-17T12:26:00Z</time>
      </trkpt>
      <trkpt lat="50.03971" lon="1.94598">
        <ele>6.5</ele>
        <time>2022-04-17T12:26:01Z</time>
      </trkpt>
      <trkpt lat="50.03972" lon="1.94595">
        <ele>6.5</ele>
        <time>2022-04-17T12:26:02Z</time>
      </trkpt>
      <trkpt lat="50.03972" lon="1.94593">
        <ele>6.5</ele>
        <time>2022-04-17T12:26:03Z</time>
      </trkpt>
      <trkpt lat="50.03973" lon="1.94592">
        <ele>6.5</ele>
        <time>2022-04-17T12:26:04Z</time>
      </trkpt>
      <trkpt lat="50.03973" lon="1.9459">
        <ele>6.5</ele>
        <time>2022-04-17T12:26:06Z</time>
      </trkpt>
      <trkpt lat="50.03973" lon="1.94588">
        <ele>6.5</ele>
        <time>2022-04-17T12:26:07Z</time>
      </trkpt>
      <trkpt lat="50.03974" lon="1.94586">
        <ele>6.5</ele>
        <time>2022-04-17T12:26:09Z</time>
      </trkpt>
      <trkpt lat="50.03974" lon="1.94584">
        <ele>6.5</ele>
        <time>2022-04-17T12:26:10Z</time>
      </trkpt>
      <trkpt lat="50.03975" lon="1.94583">
        <ele>6.5</ele>
        <time>2022-04-17T12:26:11Z</time>
      </trkpt>
      <trkpt lat="50.03975" lon="1.94581">
        <ele>6.5</ele>
        <time>2022-04-17T12:26:12Z</time>
      </trkpt>
      <trkpt lat="50.03976" lon="1.94579">
        <ele>6.5</ele>
        <time>2022-04-17T12:26:14Z</time>
      </trkpt>
      <trkpt lat="50.03976" lon="1.94577">
        <ele>6.5</ele>
        <time>2022-04-17T12:26:15Z</time>
      </trkpt>
      <trkpt lat="50.03977" lon="1.94575">
        <ele>6.5</ele>
        <time>2022-04-17T12:26:16Z</time>
      </trkpt>
      <trkpt lat="50.03977" lon="1.94572">
        <ele>6.5</ele>
        <time>2022-04-17T12:26:17Z</time>
      </trkpt>
      <trkpt lat="50.03978" lon="1.94568">
        <ele>6.5</ele>
        <time>2022-04-17T12:26:19Z</time>
      </trkpt>
      <trkpt lat="50.03979" lon="1.94565">
        <ele>6.5</ele>
        <time>2022-04-17T12:26:20Z</time>
      </trkpt>
      <trkpt lat="50.0398" lon="1.94563">
        <ele>6.5</ele>
        <time>2022-04-17T12:26:21Z</time>
      </trkpt>
      <trkpt lat="50.0398" lon="1.9456">
        <ele>6.5</ele>
        <time>2022-04-17T12:26:22Z</time>
      </trkpt>
      <trkpt lat="50.03981" lon="1.94558">
        <ele>6.5</ele>
        <time>2022-04-17T12:26:23Z</time>
      </trkpt>
      <trkpt lat="50.03981" lon="1.94556">
        <ele>6.5</ele>
        <time>2022-04-17T12:26:24Z</time>
      </trkpt>
      <trkpt lat="50.03982" lon="1.94554">
        <ele>6.5</ele>
        <time>2022-04-17T12:26:25Z</time>
      </trkpt>
      <trkpt lat="50.03982" lon="1.9455">
        <ele>6.6</ele>
        <time>2022-04-17T12:26:27Z</time>
      </trkpt>
      <trkpt lat="50.03983" lon="1.94549">
        <ele>6.6</ele>
        <time>2022-04-17T12:26:28Z</time>
      </trkpt>
      <trkpt lat="50.03983" lon="1.94548">
        <ele>6.6</ele>
        <time>2022-04-17T12:26:29Z</time>
      </trkpt>
      <trkpt lat="50.03984" lon="1.94546">
        <ele>6.6</ele>
        <time>2022-04-17T12:26:30Z</time>
      </trkpt>
      <trkpt lat="50.03984" lon="1.94544">
        <ele>6.6</ele>
        <time>2022-04-17T12:26:31Z</time>
      </trkpt>
      <trkpt lat="50.03985" lon="1.94542">
        <ele>6.6</ele>
        <time>2022-04-17T12:26:32Z</time>
      </trkpt>
      <trkpt lat="50.03986" lon="1.94541">
        <ele>6.6</ele>
        <time>2022-04-17T12:26:33Z</time>
      </trkpt>
      <trkpt lat="50.03987" lon="1.94539">
        <ele>6.6</ele>
        <time>2022-04-17T12:26:35Z</time>
      </trkpt>
      <trkpt lat="50.03988" lon="1.94536">
        <ele>6.6</ele>
        <time>2022-04-17T12:26:36Z</time>
      </trkpt>
      <trkpt lat="50.03988" lon="1.94535">
        <ele>6.6</ele>
        <time>2022-04-17T12:26:37Z</time>
      </trkpt>
      <trkpt lat="50.03988" lon="1.94534">
        <ele>6.6</ele>
        <time>2022-04-17T12:26:38Z</time>
      </trkpt>
      <trkpt lat="50.03989" lon="1.94532">
        <ele>6.6</ele>
        <time>2022-04-17T12:26:39Z</time>
      </trkpt>
      <trkpt lat="50.03989" lon="1.94529">
        <ele>6.6</ele>
        <time>2022-04-17T12:26:41Z</time>
      </trkpt>
      <trkpt lat="50.0399" lon="1.94527">
        <ele>6.6</ele>
        <time>2022-04-17T12:26:42Z</time>
      </trkpt>
      <trkpt lat="50.0399" lon="1.94525">
        <ele>6.7</ele>
        <time>2022-04-17T12:26:43Z</time>
      </trkpt>
      <trkpt lat="50.03989" lon="1.94524">
        <ele>6.7</ele>
        <time>2022-04-17T12:26:44Z</time>
      </trkpt>
      <trkpt lat="50.0399" lon="1.94521">
        <ele>6.7</ele>
        <time>2022-04-17T12:26:45Z</time>
      </trkpt>
      <trkpt lat="50.0399" lon="1.94519">
        <ele>6.7</ele>
        <time>2022-04-17T12:26:46Z</time>
      </trkpt>
      <trkpt lat="50.0399" lon="1.94518">
        <ele>6.7</ele>
        <time>2022-04-17T12:26:48Z</time>
      </trkpt>
      <trkpt lat="50.03991" lon="1.94516">
        <ele>6.7</ele>
        <time>2022-04-17T12:26:49Z</time>
      </trkpt>
      <trkpt lat="50.03991" lon="1.94515">
        <ele>6.7</ele>
        <time>2022-04-17T12:26:50Z</time>
      </trkpt>
      <trkpt lat="50.03991" lon="1.94513">
        <ele>6.7</ele>
        <time>2022-04-17T12:26:51Z</time>
      </trkpt>
      <trkpt lat="50.03992" lon="1.94512">
        <ele>6.7</ele>
        <time>2022-04-17T12:26:52Z</time>
      </trkpt>
      <trkpt lat="50.03993" lon="1.9451">
        <ele>6.8</ele>
        <time>2022-04-17T12:26:53Z</time>
      </trkpt>
      <trkpt lat="50.03993" lon="1.94509">
        <ele>6.8</ele>
        <time>2022-04-17T12:26:54Z</time>
      </trkpt>
      <trkpt lat="50.03994" lon="1.94508">
        <ele>6.8</ele>
        <time>2022-04-17T12:26:55Z</time>
      </trkpt>
      <trkpt lat="50.03994" lon="1.94507">
        <ele>6.8</ele>
        <time>2022-04-17T12:26:56Z</time>
      </trkpt>
      <trkpt lat="50.03995" lon="1.94506">
        <ele>6.8</ele>
        <time>2022-04-17T12:26:57Z</time>
      </trkpt>
      <trkpt lat="50.03995" lon="1.94504">
        <ele>6.8</ele>
        <time>2022-04-17T12:26:58Z</time>
      </trkpt>
      <trkpt lat="50.03996" lon="1.94502">
        <ele>6.9</ele>
        <time>2022-04-17T12:27:00Z</time>
      </trkpt>
      <trkpt lat="50.03996" lon="1.94501">
        <ele>6.9</ele>
        <time>2022-04-17T12:27:02Z</time>
      </trkpt>
      <trkpt lat="50.03997" lon="1.94499">
        <ele>6.9</ele>
        <time>2022-04-17T12:27:03Z</time>
      </trkpt>
      <trkpt lat="50.03998" lon="1.94498">
        <ele>6.9</ele>
        <time>2022-04-17T12:27:04Z</time>
      </trkpt>
      <trkpt lat="50.03998" lon="1.94497">
        <ele>6.9</ele>
        <time>2022-04-17T12:27:05Z</time>
      </trkpt>
      <trkpt lat="50.03999" lon="1.94497">
        <ele>6.9</ele>
        <time>2022-04-17T12:27:06Z</time>
      </trkpt>
      <trkpt lat="50.04" lon="1.94496">
        <ele>7</ele>
        <time>2022-04-17T12:27:08Z</time>
      </trkpt>
      <trkpt lat="50.04001" lon="1.94496">
        <ele>7</ele>
        <time>2022-04-17T12:27:09Z</time>
      </trkpt>
      <trkpt lat="50.04002" lon="1.94496">
        <ele>7</ele>
        <time>2022-04-17T12:27:10Z</time>
      </trkpt>
      <trkpt lat="50.04003" lon="1.94495">
        <ele>7</ele>
        <time>2022-04-17T12:27:12Z</time>
      </trkpt>
      <trkpt lat="50.04004" lon="1.94494">
        <ele>7</ele>
        <time>2022-04-17T12:27:13Z</time>
      </trkpt>
      <trkpt lat="50.04005" lon="1.94494">
        <ele>7</ele>
        <time>2022-04-17T12:27:14Z</time>
      </trkpt>
      <trkpt lat="50.04006" lon="1.94495">
        <ele>7</ele>
        <time>2022-04-17T12:27:15Z</time>
      </trkpt>
      <trkpt lat="50.04007" lon="1.94495">
        <ele>7</ele>
        <time>2022-04-17T12:27:16Z</time>
      </trkpt>
      <trkpt lat="50.04008" lon="1.94496">
        <ele>7.1</ele>
        <time>2022-04-17T12:27:18Z</time>
      </trkpt>
      <trkpt lat="50.0401" lon="1.94498">
        <ele>7.1</ele>
        <time>2022-04-17T12:27:19Z</time>
      </trkpt>
      <trkpt lat="50.04011" lon="1.94499">
        <ele>7.1</ele>
        <time>2022-04-17T12:27:20Z</time>
      </trkpt>
      <trkpt lat="50.04013" lon="1.945">
        <ele>7.1</ele>
        <time>2022-04-17T12:27:22Z</time>
      </trkpt>
      <trkpt lat="50.04014" lon="1.94501">
        <ele>7.1</ele>
        <time>2022-04-17T12:27:23Z</time>
      </trkpt>
      <trkpt lat="50.04015" lon="1.94501">
        <ele>7.1</ele>
        <time>2022-04-17T12:27:24Z</time>
      </trkpt>
      <trkpt lat="50.04017" lon="1.94503">
        <ele>7.1</ele>
        <time>2022-04-17T12:27:25Z</time>
      </trkpt>
      <trkpt lat="50.04017" lon="1.94503">
        <ele>7.1</ele>
        <time>2022-04-17T12:27:26Z</time>
      </trkpt>
      <trkpt lat="50.04018" lon="1.94504">
        <ele>7.1</ele>
        <time>2022-04-17T12:27:27Z</time>
      </trkpt>
      <trkpt lat="50.0402" lon="1.94506">
        <ele>7.1</ele>
        <time>2022-04-17T12:27:28Z</time>
      </trkpt>
      <trkpt lat="50.0402" lon="1.94506">
        <ele>7.1</ele>
        <time>2022-04-17T12:27:30Z</time>
      </trkpt>
      <trkpt lat="50.04021" lon="1.94507">
        <ele>7.1</ele>
        <time>2022-04-17T12:27:31Z</time>
      </trkpt>
      <trkpt lat="50.04022" lon="1.94508">
        <ele>7.1</ele>
        <time>2022-04-17T12:27:32Z</time>
      </trkpt>
      <trkpt lat="50.04023" lon="1.94509">
        <ele>7.1</ele>
        <time>2022-04-17T12:27:33Z</time>
      </trkpt>
      <trkpt lat="50.04024" lon="1.9451">
        <ele>7.1</ele>
        <time>2022-04-17T12:27:34Z</time>
      </trkpt>
      <trkpt lat="50.04026" lon="1.94511">
        <ele>7.1</ele>
        <time>2022-04-17T12:27:35Z</time>
      </trkpt>
      <trkpt lat="50.04027" lon="1.94511">
        <ele>7.1</ele>
        <time>2022-04-17T12:27:36Z</time>
      </trkpt>
      <trkpt lat="50.04028" lon="1.94511">
        <ele>7.1</ele>
        <time>2022-04-17T12:27:38Z</time>
      </trkpt>
      <trkpt lat="50.04029" lon="1.94512">
        <ele>7.1</ele>
        <time>2022-04-17T12:27:39Z</time>
      </trkpt>
      <trkpt lat="50.0403" lon="1.94512">
        <ele>7.1</ele>
        <time>2022-04-17T12:27:40Z</time>
      </trkpt>
      <trkpt lat="50.04031" lon="1.94513">
        <ele>7.1</ele>
        <time>2022-04-17T12:27:41Z</time>
      </trkpt>
      <trkpt lat="50.04034" lon="1.94514">
        <ele>7.1</ele>
        <time>2022-04-17T12:27:42Z</time>
      </trkpt>
      <trkpt lat="50.04035" lon="1.94514">
        <ele>7.1</ele>
        <time>2022-04-17T12:27:43Z</time>
      </trkpt>
      <trkpt lat="50.04036" lon="1.94515">
        <ele>7.1</ele>
        <time>2022-04-17T12:27:44Z</time>
      </trkpt>
      <trkpt lat="50.04037" lon="1.94516">
        <ele>7.2</ele>
        <time>2022-04-17T12:27:45Z</time>
      </trkpt>
      <trkpt lat="50.04038" lon="1.94517">
        <ele>7.2</ele>
        <time>2022-04-17T12:27:47Z</time>
      </trkpt>
      <trkpt lat="50.04039" lon="1.94517">
        <ele>7.2</ele>
        <time>2022-04-17T12:27:48Z</time>
      </trkpt>
      <trkpt lat="50.0404" lon="1.94518">
        <ele>7.2</ele>
        <time>2022-04-17T12:27:49Z</time>
      </trkpt>
      <trkpt lat="50.04041" lon="1.94519">
        <ele>7.2</ele>
        <time>2022-04-17T12:27:51Z</time>
      </trkpt>
      <trkpt lat="50.04042" lon="1.9452">
        <ele>7.2</ele>
        <time>2022-04-17T12:27:52Z</time>
      </trkpt>
      <trkpt lat="50.04043" lon="1.9452">
        <ele>7.2</ele>
        <time>2022-04-17T12:27:53Z</time>
      </trkpt>
      <trkpt lat="50.04044" lon="1.9452">
        <ele>7.2</ele>
        <time>2022-04-17T12:27:54Z</time>
      </trkpt>
      <trkpt lat="50.04045" lon="1.94521">
        <ele>7.2</ele>
        <time>2022-04-17T12:27:55Z</time>
      </trkpt>
      <trkpt lat="50.04047" lon="1.94522">
        <ele>7.2</ele>
        <time>2022-04-17T12:27:56Z</time>
      </trkpt>
      <trkpt lat="50.04048" lon="1.94522">
        <ele>7.2</ele>
        <time>2022-04-17T12:27:57Z</time>
      </trkpt>
      <trkpt lat="50.04049" lon="1.94523">
        <ele>7.2</ele>
        <time>2022-04-17T12:27:58Z</time>
      </trkpt>
      <trkpt lat="50.0405" lon="1.94524">
        <ele>7.2</ele>
        <time>2022-04-17T12:28:00Z</time>
      </trkpt>
      <trkpt lat="50.04051" lon="1.94525">
        <ele>7.2</ele>
        <time>2022-04-17T12:28:01Z</time>
      </trkpt>
      <trkpt lat="50.04052" lon="1.94526">
        <ele>7.2</ele>
        <time>2022-04-17T12:28:02Z</time>
      </trkpt>
      <trkpt lat="50.04053" lon="1.94527">
        <ele>7.2</ele>
        <time>2022-04-17T12:28:03Z</time>
      </trkpt>
      <trkpt lat="50.04053" lon="1.94528">
        <ele>7.2</ele>
        <time>2022-04-17T12:28:04Z</time>
      </trkpt>
      <trkpt lat="50.04055" lon="1.94528">
        <ele>7.2</ele>
        <time>2022-04-17T12:28:05Z</time>
      </trkpt>
      <trkpt lat="50.04056" lon="1.94529">
        <ele>7.2</ele>
        <time>2022-04-17T12:28:06Z</time>
      </trkpt>
      <trkpt lat="50.04057" lon="1.9453">
        <ele>7.2</ele>
        <time>2022-04-17T12:28:08Z</time>
      </trkpt>
      <trkpt lat="50.04058" lon="1.94531">
        <ele>7.2</ele>
        <time>2022-04-17T12:28:09Z</time>
      </trkpt>
      <trkpt lat="50.04059" lon="1.94532">
        <ele>7.2</ele>
        <time>2022-04-17T12:28:10Z</time>
      </trkpt>
      <trkpt lat="50.0406" lon="1.94533">
        <ele>7.2</ele>
        <time>2022-04-17T12:28:11Z</time>
      </trkpt>
      <trkpt lat="50.04061" lon="1.94534">
        <ele>7.2</ele>
        <time>2022-04-17T12:28:12Z</time>
      </trkpt>
      <trkpt lat="50.04061" lon="1.94534">
        <ele>7.2</ele>
        <time>2022-04-17T12:28:13Z</time>
      </trkpt>
      <trkpt lat="50.04063" lon="1.94536">
        <ele>7.2</ele>
        <time>2022-04-17T12:28:14Z</time>
      </trkpt>
      <trkpt lat="50.04063" lon="1.94536">
        <ele>7.2</ele>
        <time>2022-04-17T12:28:15Z</time>
      </trkpt>
      <trkpt lat="50.04064" lon="1.94537">
        <ele>7.2</ele>
        <time>2022-04-17T12:28:16Z</time>
      </trkpt>
      <trkpt lat="50.04065" lon="1.94538">
        <ele>7.2</ele>
        <time>2022-04-17T12:28:18Z</time>
      </trkpt>
      <trkpt lat="50.04066" lon="1.94539">
        <ele>7.3</ele>
        <time>2022-04-17T12:28:19Z</time>
      </trkpt>
      <trkpt lat="50.04067" lon="1.9454">
        <ele>7.3</ele>
        <time>2022-04-17T12:28:20Z</time>
      </trkpt>
      <trkpt lat="50.04068" lon="1.94541">
        <ele>7.3</ele>
        <time>2022-04-17T12:28:21Z</time>
      </trkpt>
      <trkpt lat="50.04069" lon="1.94542">
        <ele>7.3</ele>
        <time>2022-04-17T12:28:22Z</time>
      </trkpt>
      <trkpt lat="50.0407" lon="1.94542">
        <ele>7.3</ele>
        <time>2022-04-17T12:28:23Z</time>
      </trkpt>
      <trkpt lat="50.04072" lon="1.94545">
        <ele>7.3</ele>
        <time>2022-04-17T12:28:24Z</time>
      </trkpt>
      <trkpt lat="50.04073" lon="1.94546">
        <ele>7.3</ele>
        <time>2022-04-17T12:28:25Z</time>
      </trkpt>
      <trkpt lat="50.04073" lon="1.94546">
        <ele>7.3</ele>
        <time>2022-04-17T12:28:27Z</time>
      </trkpt>
      <trkpt lat="50.04074" lon="1.94547">
        <ele>7.3</ele>
        <time>2022-04-17T12:28:28Z</time>
      </trkpt>
      <trkpt lat="50.04074" lon="1.94548">
        <ele>7.3</ele>
        <time>2022-04-17T12:28:29Z</time>
      </trkpt>
      <trkpt lat="50.04075" lon="1.94549">
        <ele>7.3</ele>
        <time>2022-04-17T12:28:30Z</time>
      </trkpt>
      <trkpt lat="50.04076" lon="1.9455">
        <ele>7.3</ele>
        <time>2022-04-17T12:28:31Z</time>
      </trkpt>
      <trkpt lat="50.04077" lon="1.94551">
        <ele>7.3</ele>
        <time>2022-04-17T12:28:32Z</time>
      </trkpt>
      <trkpt lat="50.04078" lon="1.94552">
        <ele>7.3</ele>
        <time>2022-04-17T12:28:33Z</time>
      </trkpt>
      <trkpt lat="50.0408" lon="1.94553">
        <ele>7.3</ele>
        <time>2022-04-17T12:28:34Z</time>
      </trkpt>
      <trkpt lat="50.04081" lon="1.94553">
        <ele>7.3</ele>
        <time>2022-04-17T12:28:36Z</time>
      </trkpt>
      <trkpt lat="50.04082" lon="1.94554">
        <ele>7.3</ele>
        <time>2022-04-17T12:28:37Z</time>
      </trkpt>
      <trkpt lat="50.04084" lon="1.94555">
        <ele>7.4</ele>
        <time>2022-04-17T12:28:38Z</time>
      </trkpt>
      <trkpt lat="50.04084" lon="1.94555">
        <ele>7.4</ele>
        <time>2022-04-17T12:28:39Z</time>
      </trkpt>
      <trkpt lat="50.04085" lon="1.94556">
        <ele>7.4</ele>
        <time>2022-04-17T12:28:40Z</time>
      </trkpt>
      <trkpt lat="50.04087" lon="1.94557">
        <ele>7.4</ele>
        <time>2022-04-17T12:28:42Z</time>
      </trkpt>
      <trkpt lat="50.04088" lon="1.94558">
        <ele>7.4</ele>
        <time>2022-04-17T12:28:43Z</time>
      </trkpt>
      <trkpt lat="50.0409" lon="1.94558">
        <ele>7.4</ele>
        <time>2022-04-17T12:28:45Z</time>
      </trkpt>
      <trkpt lat="50.04091" lon="1.94559">
        <ele>7.4</ele>
        <time>2022-04-17T12:28:46Z</time>
      </trkpt>
      <trkpt lat="50.04092" lon="1.9456">
        <ele>7.5</ele>
        <time>2022-04-17T12:28:47Z</time>
      </trkpt>
      <trkpt lat="50.04093" lon="1.9456">
        <ele>7.5</ele>
        <time>2022-04-17T12:28:48Z</time>
      </trkpt>
      <trkpt lat="50.04094" lon="1.94561">
        <ele>7.5</ele>
        <time>2022-04-17T12:28:49Z</time>
      </trkpt>
      <trkpt lat="50.04096" lon="1.94563">
        <ele>7.5</ele>
        <time>2022-04-17T12:28:50Z</time>
      </trkpt>
      <trkpt lat="50.04097" lon="1.94563">
        <ele>7.5</ele>
        <time>2022-04-17T12:28:51Z</time>
      </trkpt>
      <trkpt lat="50.04097" lon="1.94564">
        <ele>7.5</ele>
        <time>2022-04-17T12:28:52Z</time>
      </trkpt>
      <trkpt lat="50.04099" lon="1.94564">
        <ele>7.6</ele>
        <time>2022-04-17T12:28:54Z</time>
      </trkpt>
      <trkpt lat="50.041" lon="1.94565">
        <ele>7.6</ele>
        <time>2022-04-17T12:28:55Z</time>
      </trkpt>
      <trkpt lat="50.04101" lon="1.94566">
        <ele>7.6</ele>
        <time>2022-04-17T12:28:56Z</time>
      </trkpt>
      <trkpt lat="50.04102" lon="1.94567">
        <ele>7.6</ele>
        <time>2022-04-17T12:28:57Z</time>
      </trkpt>
      <trkpt lat="50.04103" lon="1.94568">
        <ele>7.6</ele>
        <time>2022-04-17T12:28:58Z</time>
      </trkpt>
      <trkpt lat="50.04104" lon="1.94568">
        <ele>7.6</ele>
        <time>2022-04-17T12:28:59Z</time>
      </trkpt>
      <trkpt lat="50.04106" lon="1.94569">
        <ele>7.7</ele>
        <time>2022-04-17T12:29:01Z</time>
      </trkpt>
      <trkpt lat="50.04107" lon="1.9457">
        <ele>7.7</ele>
        <time>2022-04-17T12:29:02Z</time>
      </trkpt>
      <trkpt lat="50.04107" lon="1.9457">
        <ele>7.7</ele>
        <time>2022-04-17T12:29:03Z</time>
      </trkpt>
      <trkpt lat="50.04108" lon="1.94571">
        <ele>7.7</ele>
        <time>2022-04-17T12:29:04Z</time>
      </trkpt>
      <trkpt lat="50.0411" lon="1.94571">
        <ele>7.7</ele>
        <time>2022-04-17T12:29:05Z</time>
      </trkpt>
      <trkpt lat="50.04111" lon="1.94571">
        <ele>7.7</ele>
        <time>2022-04-17T12:29:06Z</time>
      </trkpt>
      <trkpt lat="50.04113" lon="1.94571">
        <ele>7.8</ele>
        <time>2022-04-17T12:29:07Z</time>
      </trkpt>
      <trkpt lat="50.04114" lon="1.94571">
        <ele>7.8</ele>
        <time>2022-04-17T12:29:09Z</time>
      </trkpt>
      <trkpt lat="50.04115" lon="1.94571">
        <ele>7.8</ele>
        <time>2022-04-17T12:29:10Z</time>
      </trkpt>
      <trkpt lat="50.04117" lon="1.94572">
        <ele>7.8</ele>
        <time>2022-04-17T12:29:11Z</time>
      </trkpt>
      <trkpt lat="50.04117" lon="1.94572">
        <ele>7.8</ele>
        <time>2022-04-17T12:29:12Z</time>
      </trkpt>
      <trkpt lat="50.04118" lon="1.94572">
        <ele>7.8</ele>
        <time>2022-04-17T12:29:13Z</time>
      </trkpt>
      <trkpt lat="50.0412" lon="1.94573">
        <ele>7.8</ele>
        <time>2022-04-17T12:29:14Z</time>
      </trkpt>
      <trkpt lat="50.04121" lon="1.94574">
        <ele>7.8</ele>
        <time>2022-04-17T12:29:16Z</time>
      </trkpt>
      <trkpt lat="50.04122" lon="1.94574">
        <ele>7.8</ele>
        <time>2022-04-17T12:29:17Z</time>
      </trkpt>
      <trkpt lat="50.04123" lon="1.94575">
        <ele>7.8</ele>
        <time>2022-04-17T12:29:18Z</time>
      </trkpt>
      <trkpt lat="50.04124" lon="1.94575">
        <ele>7.8</ele>
        <time>2022-04-17T12:29:19Z</time>
      </trkpt>
      <trkpt lat="50.04125" lon="1.94575">
        <ele>7.8</ele>
        <time>2022-04-17T12:29:20Z</time>
      </trkpt>
      <trkpt lat="50.04127" lon="1.94576">
        <ele>7.8</ele>
        <time>2022-04-17T12:29:21Z</time>
      </trkpt>
      <trkpt lat="50.04128" lon="1.94577">
        <ele>7.8</ele>
        <time>2022-04-17T12:29:22Z</time>
      </trkpt>
      <trkpt lat="50.04129" lon="1.94577">
        <ele>7.8</ele>
        <time>2022-04-17T12:29:24Z</time>
      </trkpt>
      <trkpt lat="50.0413" lon="1.94578">
        <ele>7.8</ele>
        <time>2022-04-17T12:29:25Z</time>
      </trkpt>
      <trkpt lat="50.04131" lon="1.94578">
        <ele>7.9</ele>
        <time>2022-04-17T12:29:26Z</time>
      </trkpt>
      <trkpt lat="50.04132" lon="1.94579">
        <ele>7.9</ele>
        <time>2022-04-17T12:29:27Z</time>
      </trkpt>
      <trkpt lat="50.04133" lon="1.94579">
        <ele>7.9</ele>
        <time>2022-04-17T12:29:28Z</time>
      </trkpt>
      <trkpt lat="50.04133" lon="1.9458">
        <ele>7.9</ele>
        <time>2022-04-17T12:29:29Z</time>
      </trkpt>
      <trkpt lat="50.04135" lon="1.9458">
        <ele>7.9</ele>
        <time>2022-04-17T12:29:30Z</time>
      </trkpt>
      <trkpt lat="50.04137" lon="1.94581">
        <ele>7.9</ele>
        <time>2022-04-17T12:29:32Z</time>
      </trkpt>
      <trkpt lat="50.04138" lon="1.94581">
        <ele>7.9</ele>
        <time>2022-04-17T12:29:33Z</time>
      </trkpt>
      <trkpt lat="50.04139" lon="1.94582">
        <ele>7.9</ele>
        <time>2022-04-17T12:29:35Z</time>
      </trkpt>
      <trkpt lat="50.0414" lon="1.94583">
        <ele>7.9</ele>
        <time>2022-04-17T12:29:36Z</time>
      </trkpt>
      <trkpt lat="50.04142" lon="1.94584">
        <ele>7.9</ele>
        <time>2022-04-17T12:29:37Z</time>
      </trkpt>
      <trkpt lat="50.04143" lon="1.94585">
        <ele>7.9</ele>
        <time>2022-04-17T12:29:38Z</time>
      </trkpt>
      <trkpt lat="50.04144" lon="1.94585">
        <ele>7.9</ele>
        <time>2022-04-17T12:29:39Z</time>
      </trkpt>
      <trkpt lat="50.04145" lon="1.94587">
        <ele>7.9</ele>
        <time>2022-04-17T12:29:40Z</time>
      </trkpt>
      <trkpt lat="50.04146" lon="1.94588">
        <ele>7.9</ele>
        <time>2022-04-17T12:29:42Z</time>
      </trkpt>
      <trkpt lat="50.04147" lon="1.94588">
        <ele>7.9</ele>
        <time>2022-04-17T12:29:43Z</time>
      </trkpt>
      <trkpt lat="50.04149" lon="1.9459">
        <ele>7.9</ele>
        <time>2022-04-17T12:29:44Z</time>
      </trkpt>
      <trkpt lat="50.0415" lon="1.9459">
        <ele>7.9</ele>
        <time>2022-04-17T12:29:45Z</time>
      </trkpt>
      <trkpt lat="50.0415" lon="1.94591">
        <ele>7.9</ele>
        <time>2022-04-17T12:29:46Z</time>
      </trkpt>
      <trkpt lat="50.04151" lon="1.94592">
        <ele>7.9</ele>
        <time>2022-04-17T12:29:47Z</time>
      </trkpt>
      <trkpt lat="50.04153" lon="1.94593">
        <ele>8</ele>
        <time>2022-04-17T12:29:48Z</time>
      </trkpt>
      <trkpt lat="50.04154" lon="1.94593">
        <ele>8</ele>
        <time>2022-04-17T12:29:50Z</time>
      </trkpt>
      <trkpt lat="50.04155" lon="1.94594">
        <ele>8</ele>
        <time>2022-04-17T12:29:51Z</time>
      </trkpt>
      <trkpt lat="50.04156" lon="1.94595">
        <ele>8</ele>
        <time>2022-04-17T12:29:52Z</time>
      </trkpt>
      <trkpt lat="50.04159" lon="1.94596">
        <ele>8</ele>
        <time>2022-04-17T12:29:53Z</time>
      </trkpt>
      <trkpt lat="50.04159" lon="1.94597">
        <ele>8</ele>
        <time>2022-04-17T12:29:54Z</time>
      </trkpt>
      <trkpt lat="50.0416" lon="1.94597">
        <ele>8</ele>
        <time>2022-04-17T12:29:55Z</time>
      </trkpt>
      <trkpt lat="50.04161" lon="1.94598">
        <ele>8.1</ele>
        <time>2022-04-17T12:29:57Z</time>
      </trkpt>
      <trkpt lat="50.04163" lon="1.94598">
        <ele>8.1</ele>
        <time>2022-04-17T12:29:58Z</time>
      </trkpt>
      <trkpt lat="50.04164" lon="1.94598">
        <ele>8.1</ele>
        <time>2022-04-17T12:29:59Z</time>
      </trkpt>
      <trkpt lat="50.04166" lon="1.94597">
        <ele>8.1</ele>
        <time>2022-04-17T12:30:01Z</time>
      </trkpt>
      <trkpt lat="50.04167" lon="1.94596">
        <ele>8.1</ele>
        <time>2022-04-17T12:30:02Z</time>
      </trkpt>
      <trkpt lat="50.04168" lon="1.94595">
        <ele>8.1</ele>
        <time>2022-04-17T12:30:03Z</time>
      </trkpt>
      <trkpt lat="50.04168" lon="1.94594">
        <ele>8.1</ele>
        <time>2022-04-17T12:30:04Z</time>
      </trkpt>
      <trkpt lat="50.0417" lon="1.94591">
        <ele>8.1</ele>
        <time>2022-04-17T12:30:05Z</time>
      </trkpt>
      <trkpt lat="50.0417" lon="1.9459">
        <ele>8.1</ele>
        <time>2022-04-17T12:30:06Z</time>
      </trkpt>
      <trkpt lat="50.0417" lon="1.94589">
        <ele>8.2</ele>
        <time>2022-04-17T12:30:07Z</time>
      </trkpt>
      <trkpt lat="50.04171" lon="1.94586">
        <ele>8.2</ele>
        <time>2022-04-17T12:30:09Z</time>
      </trkpt>
      <trkpt lat="50.04171" lon="1.94583">
        <ele>8.2</ele>
        <time>2022-04-17T12:30:10Z</time>
      </trkpt>
      <trkpt lat="50.04171" lon="1.94578">
        <ele>8.2</ele>
        <time>2022-04-17T12:30:12Z</time>
      </trkpt>
      <trkpt lat="50.0417" lon="1.94576">
        <ele>8.2</ele>
        <time>2022-04-17T12:30:13Z</time>
      </trkpt>
      <trkpt lat="50.0417" lon="1.94573">
        <ele>8.2</ele>
        <time>2022-04-17T12:30:14Z</time>
      </trkpt>
      <trkpt lat="50.0417" lon="1.94571">
        <ele>8.2</ele>
        <time>2022-04-17T12:30:15Z</time>
      </trkpt>
      <trkpt lat="50.0417" lon="1.94568">
        <ele>8.2</ele>
        <time>2022-04-17T12:30:17Z</time>
      </trkpt>
      <trkpt lat="50.0417" lon="1.94565">
        <ele>8.2</ele>
        <time>2022-04-17T12:30:18Z</time>
      </trkpt>
      <trkpt lat="50.0417" lon="1.94563">
        <ele>8.2</ele>
        <time>2022-04-17T12:30:19Z</time>
      </trkpt>
      <trkpt lat="50.0417" lon="1.94561">
        <ele>8.2</ele>
        <time>2022-04-17T12:30:20Z</time>
      </trkpt>
      <trkpt lat="50.0417" lon="1.94558">
        <ele>8.2</ele>
        <time>2022-04-17T12:30:21Z</time>
      </trkpt>
      <trkpt lat="50.0417" lon="1.94556">
        <ele>8.2</ele>
        <time>2022-04-17T12:30:22Z</time>
      </trkpt>
      <trkpt lat="50.0417" lon="1.94554">
        <ele>8.2</ele>
        <time>2022-04-17T12:30:23Z</time>
      </trkpt>
      <trkpt lat="50.0417" lon="1.94551">
        <ele>8.2</ele>
        <time>2022-04-17T12:30:25Z</time>
      </trkpt>
      <trkpt lat="50.0417" lon="1.94549">
        <ele>8.2</ele>
        <time>2022-04-17T12:30:26Z</time>
      </trkpt>
      <trkpt lat="50.04171" lon="1.94547">
        <ele>8.2</ele>
        <time>2022-04-17T12:30:27Z</time>
      </trkpt>
      <trkpt lat="50.04171" lon="1.94545">
        <ele>8.2</ele>
        <time>2022-04-17T12:30:28Z</time>
      </trkpt>
      <trkpt lat="50.04171" lon="1.94541">
        <ele>8.2</ele>
        <time>2022-04-17T12:30:29Z</time>
      </trkpt>
      <trkpt lat="50.04171" lon="1.9454">
        <ele>8.2</ele>
        <time>2022-04-17T12:30:30Z</time>
      </trkpt>
      <trkpt lat="50.04172" lon="1.94538">
        <ele>8.2</ele>
        <time>2022-04-17T12:30:31Z</time>
      </trkpt>
      <trkpt lat="50.04172" lon="1.94536">
        <ele>8.2</ele>
        <time>2022-04-17T12:30:32Z</time>
      </trkpt>
      <trkpt lat="50.04172" lon="1.94534">
        <ele>8.2</ele>
        <time>2022-04-17T12:30:33Z</time>
      </trkpt>
      <trkpt lat="50.04172" lon="1.94532">
        <ele>8.2</ele>
        <time>2022-04-17T12:30:35Z</time>
      </trkpt>
      <trkpt lat="50.04172" lon="1.94529">
        <ele>8.2</ele>
        <time>2022-04-17T12:30:36Z</time>
      </trkpt>
      <trkpt lat="50.04172" lon="1.94528">
        <ele>8.2</ele>
        <time>2022-04-17T12:30:37Z</time>
      </trkpt>
      <trkpt lat="50.04173" lon="1.94526">
        <ele>8.2</ele>
        <time>2022-04-17T12:30:38Z</time>
      </trkpt>
      <trkpt lat="50.04173" lon="1.94523">
        <ele>8.2</ele>
        <time>2022-04-17T12:30:39Z</time>
      </trkpt>
      <trkpt lat="50.04173" lon="1.94522">
        <ele>8.2</ele>
        <time>2022-04-17T12:30:40Z</time>
      </trkpt>
      <trkpt lat="50.04173" lon="1.9452">
        <ele>8.2</ele>
        <time>2022-04-17T12:30:41Z</time>
      </trkpt>
      <trkpt lat="50.04174" lon="1.94518">
        <ele>8.2</ele>
        <time>2022-04-17T12:30:43Z</time>
      </trkpt>
      <trkpt lat="50.04174" lon="1.94515">
        <ele>8.2</ele>
        <time>2022-04-17T12:30:44Z</time>
      </trkpt>
      <trkpt lat="50.04174" lon="1.94512">
        <ele>8.2</ele>
        <time>2022-04-17T12:30:45Z</time>
      </trkpt>
      <trkpt lat="50.04174" lon="1.94511">
        <ele>8.2</ele>
        <time>2022-04-17T12:30:47Z</time>
      </trkpt>
      <trkpt lat="50.04174" lon="1.94509">
        <ele>8.2</ele>
        <time>2022-04-17T12:30:48Z</time>
      </trkpt>
      <trkpt lat="50.04174" lon="1.94507">
        <ele>8.2</ele>
        <time>2022-04-17T12:30:49Z</time>
      </trkpt>
      <trkpt lat="50.04174" lon="1.94505">
        <ele>8.2</ele>
        <time>2022-04-17T12:30:50Z</time>
      </trkpt>
      <trkpt lat="50.04174" lon="1.94502">
        <ele>8.2</ele>
        <time>2022-04-17T12:30:51Z</time>
      </trkpt>
      <trkpt lat="50.04174" lon="1.945">
        <ele>8.2</ele>
        <time>2022-04-17T12:30:52Z</time>
      </trkpt>
      <trkpt lat="50.04174" lon="1.94497">
        <ele>8.2</ele>
        <time>2022-04-17T12:30:53Z</time>
      </trkpt>
      <trkpt lat="50.04173" lon="1.94496">
        <ele>8.2</ele>
        <time>2022-04-17T12:30:54Z</time>
      </trkpt>
      <trkpt lat="50.04173" lon="1.94494">
        <ele>8.2</ele>
        <time>2022-04-17T12:30:55Z</time>
      </trkpt>
      <trkpt lat="50.04173" lon="1.94492">
        <ele>8.2</ele>
        <time>2022-04-17T12:30:57Z</time>
      </trkpt>
      <trkpt lat="50.04173" lon="1.9449">
        <ele>8.2</ele>
        <time>2022-04-17T12:30:58Z</time>
      </trkpt>
      <trkpt lat="50.04172" lon="1.94488">
        <ele>8.2</ele>
        <time>2022-04-17T12:30:59Z</time>
      </trkpt>
      <trkpt lat="50.04172" lon="1.94486">
        <ele>8.2</ele>
        <time>2022-04-17T12:31:00Z</time>
      </trkpt>
      <trkpt lat="50.04172" lon="1.94484">
        <ele>8.2</ele>
        <time>2022-04-17T12:31:02Z</time>
      </trkpt>
      <trkpt lat="50.04172" lon="1.94481">
        <ele>8.1</ele>
        <time>2022-04-17T12:31:03Z</time>
      </trkpt>
      <trkpt lat="50.04171" lon="1.94479">
        <ele>8.1</ele>
        <time>2022-04-17T12:31:04Z</time>
      </trkpt>
      <trkpt lat="50.04171" lon="1.94478">
        <ele>8.1</ele>
        <time>2022-04-17T12:31:05Z</time>
      </trkpt>
      <trkpt lat="50.04171" lon="1.94475">
        <ele>8.1</ele>
        <time>2022-04-17T12:31:06Z</time>
      </trkpt>
      <trkpt lat="50.04171" lon="1.94473">
        <ele>8.1</ele>
        <time>2022-04-17T12:31:07Z</time>
      </trkpt>
      <trkpt lat="50.04171" lon="1.94472">
        <ele>8.1</ele>
        <time>2022-04-17T12:31:08Z</time>
      </trkpt>
      <trkpt lat="50.04171" lon="1.94471">
        <ele>8.1</ele>
        <time>2022-04-17T12:31:09Z</time>
      </trkpt>
      <trkpt lat="50.0417" lon="1.94469">
        <ele>8.1</ele>
        <time>2022-04-17T12:31:10Z</time>
      </trkpt>
      <trkpt lat="50.04171" lon="1.94466">
        <ele>8.1</ele>
        <time>2022-04-17T12:31:12Z</time>
      </trkpt>
      <trkpt lat="50.04171" lon="1.94464">
        <ele>8.1</ele>
        <time>2022-04-17T12:31:13Z</time>
      </trkpt>
      <trkpt lat="50.04171" lon="1.94462">
        <ele>8.1</ele>
        <time>2022-04-17T12:31:14Z</time>
      </trkpt>
      <trkpt lat="50.04172" lon="1.9446">
        <ele>8.1</ele>
        <time>2022-04-17T12:31:15Z</time>
      </trkpt>
      <trkpt lat="50.04172" lon="1.94458">
        <ele>8.1</ele>
        <time>2022-04-17T12:31:16Z</time>
      </trkpt>
      <trkpt lat="50.04173" lon="1.94457">
        <ele>8.1</ele>
        <time>2022-04-17T12:31:17Z</time>
      </trkpt>
      <trkpt lat="50.04173" lon="1.94453">
        <ele>8.1</ele>
        <time>2022-04-17T12:31:18Z</time>
      </trkpt>
      <trkpt lat="50.04173" lon="1.94452">
        <ele>8.1</ele>
        <time>2022-04-17T12:31:19Z</time>
      </trkpt>
      <trkpt lat="50.04173" lon="1.9445">
        <ele>8.1</ele>
        <time>2022-04-17T12:31:20Z</time>
      </trkpt>
      <trkpt lat="50.04174" lon="1.94448">
        <ele>8.1</ele>
        <time>2022-04-17T12:31:21Z</time>
      </trkpt>
      <trkpt lat="50.04174" lon="1.94446">
        <ele>8.1</ele>
        <time>2022-04-17T12:31:22Z</time>
      </trkpt>
      <trkpt lat="50.04174" lon="1.94443">
        <ele>8.1</ele>
        <time>2022-04-17T12:31:24Z</time>
      </trkpt>
      <trkpt lat="50.04174" lon="1.94441">
        <ele>8.1</ele>
        <time>2022-04-17T12:31:25Z</time>
      </trkpt>
      <trkpt lat="50.04175" lon="1.94439">
        <ele>8.1</ele>
        <time>2022-04-17T12:31:26Z</time>
      </trkpt>
      <trkpt lat="50.04176" lon="1.94438">
        <ele>8.1</ele>
        <time>2022-04-17T12:31:28Z</time>
      </trkpt>
      <trkpt lat="50.04177" lon="1.94436">
        <ele>8.1</ele>
        <time>2022-04-17T12:31:29Z</time>
      </trkpt>
      <trkpt lat="50.04177" lon="1.94434">
        <ele>8.1</ele>
        <time>2022-04-17T12:31:30Z</time>
      </trkpt>
      <trkpt lat="50.04177" lon="1.94433">
        <ele>8.1</ele>
        <time>2022-04-17T12:31:31Z</time>
      </trkpt>
      <trkpt lat="50.04177" lon="1.94431">
        <ele>8.1</ele>
        <time>2022-04-17T12:31:32Z</time>
      </trkpt>
      <trkpt lat="50.04177" lon="1.94429">
        <ele>8.1</ele>
        <time>2022-04-17T12:31:33Z</time>
      </trkpt>
      <trkpt lat="50.04178" lon="1.94428">
        <ele>8.1</ele>
        <time>2022-04-17T12:31:35Z</time>
      </trkpt>
      <trkpt lat="50.04178" lon="1.94426">
        <ele>8.1</ele>
        <time>2022-04-17T12:31:36Z</time>
      </trkpt>
      <trkpt lat="50.04179" lon="1.94425">
        <ele>8.1</ele>
        <time>2022-04-17T12:31:37Z</time>
      </trkpt>
      <trkpt lat="50.04179" lon="1.94423">
        <ele>8.1</ele>
        <time>2022-04-17T12:31:38Z</time>
      </trkpt>
      <trkpt lat="50.04179" lon="1.94422">
        <ele>8.1</ele>
        <time>2022-04-17T12:31:39Z</time>
      </trkpt>
      <trkpt lat="50.0418" lon="1.9442">
        <ele>8.1</ele>
        <time>2022-04-17T12:31:40Z</time>
      </trkpt>
      <trkpt lat="50.0418" lon="1.94418">
        <ele>8.1</ele>
        <time>2022-04-17T12:31:41Z</time>
      </trkpt>
      <trkpt lat="50.0418" lon="1.94415">
        <ele>8.1</ele>
        <time>2022-04-17T12:31:42Z</time>
      </trkpt>
      <trkpt lat="50.0418" lon="1.94414">
        <ele>8.1</ele>
        <time>2022-04-17T12:31:43Z</time>
      </trkpt>
      <trkpt lat="50.0418" lon="1.94412">
        <ele>8.1</ele>
        <time>2022-04-17T12:31:44Z</time>
      </trkpt>
      <trkpt lat="50.04181" lon="1.94409">
        <ele>8.1</ele>
        <time>2022-04-17T12:31:46Z</time>
      </trkpt>
      <trkpt lat="50.04181" lon="1.94408">
        <ele>8.1</ele>
        <time>2022-04-17T12:31:47Z</time>
      </trkpt>
      <trkpt lat="50.04181" lon="1.94407">
        <ele>8.1</ele>
        <time>2022-04-17T12:31:48Z</time>
      </trkpt>
      <trkpt lat="50.04182" lon="1.94405">
        <ele>8.1</ele>
        <time>2022-04-17T12:31:49Z</time>
      </trkpt>
      <trkpt lat="50.04182" lon="1.94403">
        <ele>8.1</ele>
        <time>2022-04-17T12:31:50Z</time>
      </trkpt>
      <trkpt lat="50.04182" lon="1.94402">
        <ele>8.1</ele>
        <time>2022-04-17T12:31:51Z</time>
      </trkpt>
      <trkpt lat="50.04183" lon="1.94398">
        <ele>8.1</ele>
        <time>2022-04-17T12:31:52Z</time>
      </trkpt>
      <trkpt lat="50.04183" lon="1.94397">
        <ele>8.1</ele>
        <time>2022-04-17T12:31:53Z</time>
      </trkpt>
      <trkpt lat="50.04183" lon="1.94396">
        <ele>8.1</ele>
        <time>2022-04-17T12:31:54Z</time>
      </trkpt>
      <trkpt lat="50.04183" lon="1.94394">
        <ele>8.1</ele>
        <time>2022-04-17T12:31:56Z</time>
      </trkpt>
      <trkpt lat="50.04184" lon="1.9439">
        <ele>8.1</ele>
        <time>2022-04-17T12:31:57Z</time>
      </trkpt>
      <trkpt lat="50.04184" lon="1.94389">
        <ele>8.1</ele>
        <time>2022-04-17T12:31:58Z</time>
      </trkpt>
      <trkpt lat="50.04184" lon="1.94387">
        <ele>8.1</ele>
        <time>2022-04-17T12:31:59Z</time>
      </trkpt>
      <trkpt lat="50.04184" lon="1.94386">
        <ele>8.1</ele>
        <time>2022-04-17T12:32:00Z</time>
      </trkpt>
      <trkpt lat="50.04185" lon="1.94384">
        <ele>8.1</ele>
        <time>2022-04-17T12:32:01Z</time>
      </trkpt>
      <trkpt lat="50.04185" lon="1.94382">
        <ele>8.1</ele>
        <time>2022-04-17T12:32:03Z</time>
      </trkpt>
      <trkpt lat="50.04185" lon="1.94381">
        <ele>8.1</ele>
        <time>2022-04-17T12:32:04Z</time>
      </trkpt>
      <trkpt lat="50.04185" lon="1.94377">
        <ele>8.1</ele>
        <time>2022-04-17T12:32:05Z</time>
      </trkpt>
      <trkpt lat="50.04185" lon="1.94376">
        <ele>8.1</ele>
        <time>2022-04-17T12:32:06Z</time>
      </trkpt>
      <trkpt lat="50.04185" lon="1.94375">
        <ele>8.1</ele>
        <time>2022-04-17T12:32:07Z</time>
      </trkpt>
      <trkpt lat="50.04185" lon="1.94373">
        <ele>8.1</ele>
        <time>2022-04-17T12:32:08Z</time>
      </trkpt>
      <trkpt lat="50.04185" lon="1.94371">
        <ele>8.1</ele>
        <time>2022-04-17T12:32:09Z</time>
      </trkpt>
      <trkpt lat="50.04185" lon="1.94368">
        <ele>8.1</ele>
        <time>2022-04-17T12:32:11Z</time>
      </trkpt>
      <trkpt lat="50.04185" lon="1.94365">
        <ele>8.1</ele>
        <time>2022-04-17T12:32:12Z</time>
      </trkpt>
      <trkpt lat="50.04185" lon="1.94364">
        <ele>8.1</ele>
        <time>2022-04-17T12:32:13Z</time>
      </trkpt>
      <trkpt lat="50.04185" lon="1.94363">
        <ele>8.1</ele>
        <time>2022-04-17T12:32:14Z</time>
      </trkpt>
      <trkpt lat="50.04185" lon="1.9436">
        <ele>8.1</ele>
        <time>2022-04-17T12:32:15Z</time>
      </trkpt>
      <trkpt lat="50.04185" lon="1.94358">
        <ele>8.1</ele>
        <time>2022-04-17T12:32:17Z</time>
      </trkpt>
      <trkpt lat="50.04185" lon="1.94356">
        <ele>8.1</ele>
        <time>2022-04-17T12:32:18Z</time>
      </trkpt>
      <trkpt lat="50.04186" lon="1.94354">
        <ele>8.1</ele>
        <time>2022-04-17T12:32:19Z</time>
      </trkpt>
      <trkpt lat="50.04186" lon="1.94352">
        <ele>8.1</ele>
        <time>2022-04-17T12:32:20Z</time>
      </trkpt>
      <trkpt lat="50.04186" lon="1.9435">
        <ele>8.1</ele>
        <time>2022-04-17T12:32:21Z</time>
      </trkpt>
      <trkpt lat="50.04186" lon="1.94348">
        <ele>8.1</ele>
        <time>2022-04-17T12:32:22Z</time>
      </trkpt>
      <trkpt lat="50.04187" lon="1.94346">
        <ele>8.1</ele>
        <time>2022-04-17T12:32:23Z</time>
      </trkpt>
      <trkpt lat="50.04187" lon="1.94344">
        <ele>8.1</ele>
        <time>2022-04-17T12:32:24Z</time>
      </trkpt>
      <trkpt lat="50.04187" lon="1.94341">
        <ele>8.1</ele>
        <time>2022-04-17T12:32:25Z</time>
      </trkpt>
      <trkpt lat="50.04187" lon="1.94339">
        <ele>8.1</ele>
        <time>2022-04-17T12:32:26Z</time>
      </trkpt>
      <trkpt lat="50.04187" lon="1.94337">
        <ele>8.1</ele>
        <time>2022-04-17T12:32:28Z</time>
      </trkpt>
      <trkpt lat="50.04187" lon="1.94335">
        <ele>8.1</ele>
        <time>2022-04-17T12:32:29Z</time>
      </trkpt>
      <trkpt lat="50.04187" lon="1.94334">
        <ele>8.1</ele>
        <time>2022-04-17T12:32:30Z</time>
      </trkpt>
      <trkpt lat="50.04187" lon="1.94332">
        <ele>8.2</ele>
        <time>2022-04-17T12:32:31Z</time>
      </trkpt>
      <trkpt lat="50.04187" lon="1.9433">
        <ele>8.2</ele>
        <time>2022-04-17T12:32:33Z</time>
      </trkpt>
      <trkpt lat="50.04187" lon="1.94327">
        <ele>8.2</ele>
        <time>2022-04-17T12:32:34Z</time>
      </trkpt>
      <trkpt lat="50.04187" lon="1.94325">
        <ele>8.2</ele>
        <time>2022-04-17T12:32:35Z</time>
      </trkpt>
      <trkpt lat="50.04188" lon="1.94323">
        <ele>8.2</ele>
        <time>2022-04-17T12:32:36Z</time>
      </trkpt>
      <trkpt lat="50.04188" lon="1.9432">
        <ele>8.2</ele>
        <time>2022-04-17T12:32:37Z</time>
      </trkpt>
      <trkpt lat="50.04188" lon="1.94318">
        <ele>8.2</ele>
        <time>2022-04-17T12:32:38Z</time>
      </trkpt>
      <trkpt lat="50.04188" lon="1.94316">
        <ele>8.2</ele>
        <time>2022-04-17T12:32:39Z</time>
      </trkpt>
      <trkpt lat="50.04188" lon="1.94314">
        <ele>8.2</ele>
        <time>2022-04-17T12:32:41Z</time>
      </trkpt>
      <trkpt lat="50.04188" lon="1.94311">
        <ele>8.2</ele>
        <time>2022-04-17T12:32:42Z</time>
      </trkpt>
      <trkpt lat="50.04188" lon="1.94309">
        <ele>8.2</ele>
        <time>2022-04-17T12:32:43Z</time>
      </trkpt>
      <trkpt lat="50.04188" lon="1.94306">
        <ele>8.2</ele>
        <time>2022-04-17T12:32:45Z</time>
      </trkpt>
      <trkpt lat="50.04188" lon="1.94304">
        <ele>8.2</ele>
        <time>2022-04-17T12:32:46Z</time>
      </trkpt>
      <trkpt lat="50.04187" lon="1.94302">
        <ele>8.2</ele>
        <time>2022-04-17T12:32:47Z</time>
      </trkpt>
      <trkpt lat="50.04187" lon="1.943">
        <ele>8.2</ele>
        <time>2022-04-17T12:32:48Z</time>
      </trkpt>
      <trkpt lat="50.04187" lon="1.94297">
        <ele>8.2</ele>
        <time>2022-04-17T12:32:49Z</time>
      </trkpt>
      <trkpt lat="50.04187" lon="1.94295">
        <ele>8.2</ele>
        <time>2022-04-17T12:32:50Z</time>
      </trkpt>
      <trkpt lat="50.04187" lon="1.94294">
        <ele>8.2</ele>
        <time>2022-04-17T12:32:51Z</time>
      </trkpt>
      <trkpt lat="50.04187" lon="1.94291">
        <ele>8.2</ele>
        <time>2022-04-17T12:32:52Z</time>
      </trkpt>
      <trkpt lat="50.04187" lon="1.9429">
        <ele>8.2</ele>
        <time>2022-04-17T12:32:54Z</time>
      </trkpt>
      <trkpt lat="50.04187" lon="1.94288">
        <ele>8.2</ele>
        <time>2022-04-17T12:32:55Z</time>
      </trkpt>
      <trkpt lat="50.04186" lon="1.94287">
        <ele>8.2</ele>
        <time>2022-04-17T12:32:56Z</time>
      </trkpt>
      <trkpt lat="50.04186" lon="1.94285">
        <ele>8.2</ele>
        <time>2022-04-17T12:32:57Z</time>
      </trkpt>
      <trkpt lat="50.04185" lon="1.94283">
        <ele>8.2</ele>
        <time>2022-04-17T12:32:59Z</time>
      </trkpt>
      <trkpt lat="50.04185" lon="1.94281">
        <ele>8.2</ele>
        <time>2022-04-17T12:33:00Z</time>
      </trkpt>
      <trkpt lat="50.04184" lon="1.94279">
        <ele>8.2</ele>
        <time>2022-04-17T12:33:01Z</time>
      </trkpt>
      <trkpt lat="50.04183" lon="1.94277">
        <ele>8.2</ele>
        <time>2022-04-17T12:33:02Z</time>
      </trkpt>
      <trkpt lat="50.04183" lon="1.94275">
        <ele>8.2</ele>
        <time>2022-04-17T12:33:03Z</time>
      </trkpt>
      <trkpt lat="50.04183" lon="1.94274">
        <ele>8.2</ele>
        <time>2022-04-17T12:33:04Z</time>
      </trkpt>
      <trkpt lat="50.04182" lon="1.94271">
        <ele>8.2</ele>
        <time>2022-04-17T12:33:05Z</time>
      </trkpt>
      <trkpt lat="50.04181" lon="1.9427">
        <ele>8.2</ele>
        <time>2022-04-17T12:33:06Z</time>
      </trkpt>
      <trkpt lat="50.04181" lon="1.94269">
        <ele>8.2</ele>
        <time>2022-04-17T12:33:07Z</time>
      </trkpt>
      <trkpt lat="50.0418" lon="1.94266">
        <ele>8.2</ele>
        <time>2022-04-17T12:33:08Z</time>
      </trkpt>
      <trkpt lat="50.04179" lon="1.94265">
        <ele>8.2</ele>
        <time>2022-04-17T12:33:10Z</time>
      </trkpt>
      <trkpt lat="50.04179" lon="1.94264">
        <ele>8.2</ele>
        <time>2022-04-17T12:33:11Z</time>
      </trkpt>
      <trkpt lat="50.04178" lon="1.94261">
        <ele>8.2</ele>
        <time>2022-04-17T12:33:12Z</time>
      </trkpt>
      <trkpt lat="50.04177" lon="1.9426">
        <ele>8.2</ele>
        <time>2022-04-17T12:33:13Z</time>
      </trkpt>
      <trkpt lat="50.04177" lon="1.94259">
        <ele>8.1</ele>
        <time>2022-04-17T12:33:14Z</time>
      </trkpt>
      <trkpt lat="50.04176" lon="1.94256">
        <ele>8.1</ele>
        <time>2022-04-17T12:33:15Z</time>
      </trkpt>
      <trkpt lat="50.04176" lon="1.94255">
        <ele>8.1</ele>
        <time>2022-04-17T12:33:16Z</time>
      </trkpt>
      <trkpt lat="50.04175" lon="1.94254">
        <ele>8.1</ele>
        <time>2022-04-17T12:33:17Z</time>
      </trkpt>
      <trkpt lat="50.04174" lon="1.94251">
        <ele>8.1</ele>
        <time>2022-04-17T12:33:18Z</time>
      </trkpt>
      <trkpt lat="50.04174" lon="1.94249">
        <ele>8.1</ele>
        <time>2022-04-17T12:33:20Z</time>
      </trkpt>
      <trkpt lat="50.04174" lon="1.94248">
        <ele>8.1</ele>
        <time>2022-04-17T12:33:21Z</time>
      </trkpt>
      <trkpt lat="50.04174" lon="1.94246">
        <ele>8.1</ele>
        <time>2022-04-17T12:33:22Z</time>
      </trkpt>
      <trkpt lat="50.04174" lon="1.94244">
        <ele>8.1</ele>
        <time>2022-04-17T12:33:23Z</time>
      </trkpt>
      <trkpt lat="50.04174" lon="1.94243">
        <ele>8.1</ele>
        <time>2022-04-17T12:33:24Z</time>
      </trkpt>
      <trkpt lat="50.04173" lon="1.94239">
        <ele>8.1</ele>
        <time>2022-04-17T12:33:25Z</time>
      </trkpt>
      <trkpt lat="50.04173" lon="1.94238">
        <ele>8.1</ele>
        <time>2022-04-17T12:33:27Z</time>
      </trkpt>
      <trkpt lat="50.04173" lon="1.94236">
        <ele>8.1</ele>
        <time>2022-04-17T12:33:28Z</time>
      </trkpt>
      <trkpt lat="50.04173" lon="1.94234">
        <ele>8.1</ele>
        <time>2022-04-17T12:33:30Z</time>
      </trkpt>
      <trkpt lat="50.04173" lon="1.94232">
        <ele>8.1</ele>
        <time>2022-04-17T12:33:31Z</time>
      </trkpt>
      <trkpt lat="50.04173" lon="1.9423">
        <ele>8.1</ele>
        <time>2022-04-17T12:33:32Z</time>
      </trkpt>
      <trkpt lat="50.04173" lon="1.94228">
        <ele>8.1</ele>
        <time>2022-04-17T12:33:33Z</time>
      </trkpt>
      <trkpt lat="50.04173" lon="1.94225">
        <ele>8.1</ele>
        <time>2022-04-17T12:33:34Z</time>
      </trkpt>
      <trkpt lat="50.04173" lon="1.94223">
        <ele>8.2</ele>
        <time>2022-04-17T12:33:35Z</time>
      </trkpt>
      <trkpt lat="50.04173" lon="1.94221">
        <ele>8.2</ele>
        <time>2022-04-17T12:33:36Z</time>
      </trkpt>
      <trkpt lat="50.04173" lon="1.94218">
        <ele>8.2</ele>
        <time>2022-04-17T12:33:37Z</time>
      </trkpt>
      <trkpt lat="50.04174" lon="1.94217">
        <ele>8.2</ele>
        <time>2022-04-17T12:33:38Z</time>
      </trkpt>
      <trkpt lat="50.04174" lon="1.94216">
        <ele>8.2</ele>
        <time>2022-04-17T12:33:39Z</time>
      </trkpt>
      <trkpt lat="50.04174" lon="1.94214">
        <ele>8.2</ele>
        <time>2022-04-17T12:33:41Z</time>
      </trkpt>
      <trkpt lat="50.04175" lon="1.94212">
        <ele>8.2</ele>
        <time>2022-04-17T12:33:42Z</time>
      </trkpt>
      <trkpt lat="50.04175" lon="1.9421">
        <ele>8.2</ele>
        <time>2022-04-17T12:33:43Z</time>
      </trkpt>
      <trkpt lat="50.04175" lon="1.94209">
        <ele>8.2</ele>
        <time>2022-04-17T12:33:44Z</time>
      </trkpt>
      <trkpt lat="50.04176" lon="1.94207">
        <ele>8.2</ele>
        <time>2022-04-17T12:33:45Z</time>
      </trkpt>
      <trkpt lat="50.04176" lon="1.94205">
        <ele>8.2</ele>
        <time>2022-04-17T12:33:46Z</time>
      </trkpt>
      <trkpt lat="50.04176" lon="1.94204">
        <ele>8.2</ele>
        <time>2022-04-17T12:33:48Z</time>
      </trkpt>
      <trkpt lat="50.04176" lon="1.94202">
        <ele>8.2</ele>
        <time>2022-04-17T12:33:49Z</time>
      </trkpt>
      <trkpt lat="50.04176" lon="1.942">
        <ele>8.2</ele>
        <time>2022-04-17T12:33:50Z</time>
      </trkpt>
      <trkpt lat="50.04176" lon="1.94199">
        <ele>8.2</ele>
        <time>2022-04-17T12:33:51Z</time>
      </trkpt>
      <trkpt lat="50.04176" lon="1.94197">
        <ele>8.2</ele>
        <time>2022-04-17T12:33:52Z</time>
      </trkpt>
      <trkpt lat="50.04177" lon="1.94195">
        <ele>8.2</ele>
        <time>2022-04-17T12:33:53Z</time>
      </trkpt>
      <trkpt lat="50.04177" lon="1.94194">
        <ele>8.2</ele>
        <time>2022-04-17T12:33:54Z</time>
      </trkpt>
      <trkpt lat="50.04177" lon="1.94192">
        <ele>8.2</ele>
        <time>2022-04-17T12:33:55Z</time>
      </trkpt>
      <trkpt lat="50.04178" lon="1.9419">
        <ele>8.2</ele>
        <time>2022-04-17T12:33:57Z</time>
      </trkpt>
      <trkpt lat="50.04178" lon="1.94189">
        <ele>8.2</ele>
        <time>2022-04-17T12:33:58Z</time>
      </trkpt>
      <trkpt lat="50.04178" lon="1.94187">
        <ele>8.2</ele>
        <time>2022-04-17T12:33:59Z</time>
      </trkpt>
      <trkpt lat="50.04179" lon="1.94186">
        <ele>8.2</ele>
        <time>2022-04-17T12:34:00Z</time>
      </trkpt>
      <trkpt lat="50.04179" lon="1.94184">
        <ele>8.2</ele>
        <time>2022-04-17T12:34:01Z</time>
      </trkpt>
      <trkpt lat="50.04179" lon="1.94181">
        <ele>8.2</ele>
        <time>2022-04-17T12:34:02Z</time>
      </trkpt>
      <trkpt lat="50.0418" lon="1.94179">
        <ele>8.1</ele>
        <time>2022-04-17T12:34:03Z</time>
      </trkpt>
      <trkpt lat="50.0418" lon="1.94178">
        <ele>8.1</ele>
        <time>2022-04-17T12:34:05Z</time>
      </trkpt>
      <trkpt lat="50.0418" lon="1.94177">
        <ele>8.1</ele>
        <time>2022-04-17T12:34:06Z</time>
      </trkpt>
      <trkpt lat="50.0418" lon="1.94175">
        <ele>8.1</ele>
        <time>2022-04-17T12:34:07Z</time>
      </trkpt>
      <trkpt lat="50.0418" lon="1.94174">
        <ele>8.1</ele>
        <time>2022-04-17T12:34:08Z</time>
      </trkpt>
      <trkpt lat="50.0418" lon="1.94172">
        <ele>8.1</ele>
        <time>2022-04-17T12:34:09Z</time>
      </trkpt>
      <trkpt lat="50.0418" lon="1.94171">
        <ele>8.1</ele>
        <time>2022-04-17T12:34:10Z</time>
      </trkpt>
      <trkpt lat="50.04181" lon="1.94169">
        <ele>8.1</ele>
        <time>2022-04-17T12:34:11Z</time>
      </trkpt>
      <trkpt lat="50.04181" lon="1.94168">
        <ele>8.1</ele>
        <time>2022-04-17T12:34:12Z</time>
      </trkpt>
      <trkpt lat="50.04181" lon="1.94166">
        <ele>8.1</ele>
        <time>2022-04-17T12:34:13Z</time>
      </trkpt>
      <trkpt lat="50.04181" lon="1.94165">
        <ele>8.1</ele>
        <time>2022-04-17T12:34:14Z</time>
      </trkpt>
      <trkpt lat="50.04182" lon="1.94163">
        <ele>8.1</ele>
        <time>2022-04-17T12:34:15Z</time>
      </trkpt>
      <trkpt lat="50.04182" lon="1.94161">
        <ele>8.1</ele>
        <time>2022-04-17T12:34:17Z</time>
      </trkpt>
      <trkpt lat="50.04183" lon="1.9416">
        <ele>8.1</ele>
        <time>2022-04-17T12:34:18Z</time>
      </trkpt>
      <trkpt lat="50.04184" lon="1.94157">
        <ele>8.1</ele>
        <time>2022-04-17T12:34:19Z</time>
      </trkpt>
      <trkpt lat="50.04185" lon="1.94156">
        <ele>8.1</ele>
        <time>2022-04-17T12:34:20Z</time>
      </trkpt>
      <trkpt lat="50.04185" lon="1.94155">
        <ele>8.1</ele>
        <time>2022-04-17T12:34:21Z</time>
      </trkpt>
      <trkpt lat="50.04186" lon="1.94154">
        <ele>8.1</ele>
        <time>2022-04-17T12:34:22Z</time>
      </trkpt>
      <trkpt lat="50.04187" lon="1.94152">
        <ele>8.1</ele>
        <time>2022-04-17T12:34:23Z</time>
      </trkpt>
      <trkpt lat="50.04187" lon="1.94151">
        <ele>8.1</ele>
        <time>2022-04-17T12:34:24Z</time>
      </trkpt>
      <trkpt lat="50.04188" lon="1.9415">
        <ele>8.1</ele>
        <time>2022-04-17T12:34:25Z</time>
      </trkpt>
      <trkpt lat="50.04188" lon="1.94149">
        <ele>8.1</ele>
        <time>2022-04-17T12:34:26Z</time>
      </trkpt>
      <trkpt lat="50.04189" lon="1.94147">
        <ele>8.1</ele>
        <time>2022-04-17T12:34:27Z</time>
      </trkpt>
      <trkpt lat="50.04189" lon="1.94146">
        <ele>8.1</ele>
        <time>2022-04-17T12:34:28Z</time>
      </trkpt>
      <trkpt lat="50.0419" lon="1.94143">
        <ele>8.1</ele>
        <time>2022-04-17T12:34:30Z</time>
      </trkpt>
      <trkpt lat="50.04191" lon="1.94141">
        <ele>8.1</ele>
        <time>2022-04-17T12:34:32Z</time>
      </trkpt>
      <trkpt lat="50.04192" lon="1.94139">
        <ele>8.1</ele>
        <time>2022-04-17T12:34:33Z</time>
      </trkpt>
      <trkpt lat="50.04192" lon="1.94138">
        <ele>8.1</ele>
        <time>2022-04-17T12:34:34Z</time>
      </trkpt>
      <trkpt lat="50.04193" lon="1.94136">
        <ele>8.1</ele>
        <time>2022-04-17T12:34:35Z</time>
      </trkpt>
      <trkpt lat="50.04193" lon="1.94135">
        <ele>8.1</ele>
        <time>2022-04-17T12:34:36Z</time>
      </trkpt>
      <trkpt lat="50.04194" lon="1.94134">
        <ele>8.1</ele>
        <time>2022-04-17T12:34:37Z</time>
      </trkpt>
      <trkpt lat="50.04195" lon="1.94132">
        <ele>8.1</ele>
        <time>2022-04-17T12:34:38Z</time>
      </trkpt>
      <trkpt lat="50.04195" lon="1.94131">
        <ele>8.1</ele>
        <time>2022-04-17T12:34:39Z</time>
      </trkpt>
      <trkpt lat="50.04197" lon="1.94129">
        <ele>8.1</ele>
        <time>2022-04-17T12:34:41Z</time>
      </trkpt>
      <trkpt lat="50.04197" lon="1.94128">
        <ele>8.1</ele>
        <time>2022-04-17T12:34:42Z</time>
      </trkpt>
      <trkpt lat="50.04198" lon="1.94127">
        <ele>8.1</ele>
        <time>2022-04-17T12:34:43Z</time>
      </trkpt>
      <trkpt lat="50.04198" lon="1.94126">
        <ele>8.1</ele>
        <time>2022-04-17T12:34:44Z</time>
      </trkpt>
      <trkpt lat="50.04199" lon="1.94124">
        <ele>8.1</ele>
        <time>2022-04-17T12:34:45Z</time>
      </trkpt>
      <trkpt lat="50.042" lon="1.94123">
        <ele>8.1</ele>
        <time>2022-04-17T12:34:46Z</time>
      </trkpt>
      <trkpt lat="50.04201" lon="1.94121">
        <ele>8.1</ele>
        <time>2022-04-17T12:34:47Z</time>
      </trkpt>
      <trkpt lat="50.04202" lon="1.9412">
        <ele>8.1</ele>
        <time>2022-04-17T12:34:48Z</time>
      </trkpt>
      <trkpt lat="50.04202" lon="1.94119">
        <ele>8.1</ele>
        <time>2022-04-17T12:34:50Z</time>
      </trkpt>
      <trkpt lat="50.04203" lon="1.94118">
        <ele>8.1</ele>
        <time>2022-04-17T12:34:51Z</time>
      </trkpt>
      <trkpt lat="50.04204" lon="1.94117">
        <ele>8.1</ele>
        <time>2022-04-17T12:34:52Z</time>
      </trkpt>
      <trkpt lat="50.04205" lon="1.94116">
        <ele>8.1</ele>
        <time>2022-04-17T12:34:53Z</time>
      </trkpt>
      <trkpt lat="50.04207" lon="1.94114">
        <ele>8.1</ele>
        <time>2022-04-17T12:34:54Z</time>
      </trkpt>
      <trkpt lat="50.04207" lon="1.94113">
        <ele>8.1</ele>
        <time>2022-04-17T12:34:55Z</time>
      </trkpt>
      <trkpt lat="50.04208" lon="1.94112">
        <ele>8.1</ele>
        <time>2022-04-17T12:34:56Z</time>
      </trkpt>
      <trkpt lat="50.04209" lon="1.94112">
        <ele>8.1</ele>
        <time>2022-04-17T12:34:57Z</time>
      </trkpt>
      <trkpt lat="50.0421" lon="1.94111">
        <ele>8.1</ele>
        <time>2022-04-17T12:34:58Z</time>
      </trkpt>
      <trkpt lat="50.04211" lon="1.9411">
        <ele>8.1</ele>
        <time>2022-04-17T12:35:00Z</time>
      </trkpt>
      <trkpt lat="50.04212" lon="1.9411">
        <ele>8.1</ele>
        <time>2022-04-17T12:35:01Z</time>
      </trkpt>
      <trkpt lat="50.04213" lon="1.94109">
        <ele>8.1</ele>
        <time>2022-04-17T12:35:02Z</time>
      </trkpt>
      <trkpt lat="50.04214" lon="1.94108">
        <ele>8.1</ele>
        <time>2022-04-17T12:35:03Z</time>
      </trkpt>
      <trkpt lat="50.04217" lon="1.94107">
        <ele>8.1</ele>
        <time>2022-04-17T12:35:04Z</time>
      </trkpt>
      <trkpt lat="50.04217" lon="1.94107">
        <ele>8.1</ele>
        <time>2022-04-17T12:35:05Z</time>
      </trkpt>
      <trkpt lat="50.04218" lon="1.94107">
        <ele>8.1</ele>
        <time>2022-04-17T12:35:06Z</time>
      </trkpt>
      <trkpt lat="50.04219" lon="1.94107">
        <ele>8.1</ele>
        <time>2022-04-17T12:35:07Z</time>
      </trkpt>
      <trkpt lat="50.0422" lon="1.94106">
        <ele>8.1</ele>
        <time>2022-04-17T12:35:08Z</time>
      </trkpt>
      <trkpt lat="50.04221" lon="1.94106">
        <ele>8.1</ele>
        <time>2022-04-17T12:35:09Z</time>
      </trkpt>
      <trkpt lat="50.04222" lon="1.94105">
        <ele>8.1</ele>
        <time>2022-04-17T12:35:10Z</time>
      </trkpt>
      <trkpt lat="50.04223" lon="1.94105">
        <ele>8.1</ele>
        <time>2022-04-17T12:35:12Z</time>
      </trkpt>
      <trkpt lat="50.04224" lon="1.94104">
        <ele>8.1</ele>
        <time>2022-04-17T12:35:13Z</time>
      </trkpt>
      <trkpt lat="50.04226" lon="1.94104">
        <ele>8.1</ele>
        <time>2022-04-17T12:35:14Z</time>
      </trkpt>
      <trkpt lat="50.04227" lon="1.94104">
        <ele>8.1</ele>
        <time>2022-04-17T12:35:15Z</time>
      </trkpt>
      <trkpt lat="50.04229" lon="1.94104">
        <ele>8.1</ele>
        <time>2022-04-17T12:35:17Z</time>
      </trkpt>
      <trkpt lat="50.0423" lon="1.94104">
        <ele>8.1</ele>
        <time>2022-04-17T12:35:18Z</time>
      </trkpt>
      <trkpt lat="50.04231" lon="1.94104">
        <ele>8.1</ele>
        <time>2022-04-17T12:35:19Z</time>
      </trkpt>
      <trkpt lat="50.04232" lon="1.94103">
        <ele>8.1</ele>
        <time>2022-04-17T12:35:20Z</time>
      </trkpt>
      <trkpt lat="50.04233" lon="1.94103">
        <ele>8.1</ele>
        <time>2022-04-17T12:35:21Z</time>
      </trkpt>
      <trkpt lat="50.04235" lon="1.94102">
        <ele>8.1</ele>
        <time>2022-04-17T12:35:22Z</time>
      </trkpt>
      <trkpt lat="50.04236" lon="1.94102">
        <ele>8.1</ele>
        <time>2022-04-17T12:35:24Z</time>
      </trkpt>
      <trkpt lat="50.04237" lon="1.94102">
        <ele>8.1</ele>
        <time>2022-04-17T12:35:25Z</time>
      </trkpt>
      <trkpt lat="50.04238" lon="1.94102">
        <ele>8.1</ele>
        <time>2022-04-17T12:35:26Z</time>
      </trkpt>
      <trkpt lat="50.04239" lon="1.94101">
        <ele>8.1</ele>
        <time>2022-04-17T12:35:27Z</time>
      </trkpt>
      <trkpt lat="50.0424" lon="1.94101">
        <ele>8.1</ele>
        <time>2022-04-17T12:35:28Z</time>
      </trkpt>
      <trkpt lat="50.04242" lon="1.94101">
        <ele>8.1</ele>
        <time>2022-04-17T12:35:29Z</time>
      </trkpt>
      <trkpt lat="50.04243" lon="1.94101">
        <ele>8.1</ele>
        <time>2022-04-17T12:35:30Z</time>
      </trkpt>
      <trkpt lat="50.04244" lon="1.941">
        <ele>8.1</ele>
        <time>2022-04-17T12:35:31Z</time>
      </trkpt>
      <trkpt lat="50.04245" lon="1.941">
        <ele>8.1</ele>
        <time>2022-04-17T12:35:33Z</time>
      </trkpt>
      <trkpt lat="50.04247" lon="1.941">
        <ele>8.1</ele>
        <time>2022-04-17T12:35:34Z</time>
      </trkpt>
      <trkpt lat="50.04249" lon="1.941">
        <ele>8.1</ele>
        <time>2022-04-17T12:35:35Z</time>
      </trkpt>
      <trkpt lat="50.0425" lon="1.941">
        <ele>8.1</ele>
        <time>2022-04-17T12:35:36Z</time>
      </trkpt>
      <trkpt lat="50.04251" lon="1.941">
        <ele>8.1</ele>
        <time>2022-04-17T12:35:38Z</time>
      </trkpt>
      <trkpt lat="50.04252" lon="1.941">
        <ele>8.1</ele>
        <time>2022-04-17T12:35:39Z</time>
      </trkpt>
      <trkpt lat="50.04252" lon="1.941">
        <ele>8.1</ele>
        <time>2022-04-17T12:35:40Z</time>
      </trkpt>
      <trkpt lat="50.04253" lon="1.94099">
        <ele>8.1</ele>
        <time>2022-04-17T12:35:41Z</time>
      </trkpt>
      <trkpt lat="50.04255" lon="1.94099">
        <ele>8.1</ele>
        <time>2022-04-17T12:35:42Z</time>
      </trkpt>
      <trkpt lat="50.04256" lon="1.94099">
        <ele>8.1</ele>
        <time>2022-04-17T12:35:43Z</time>
      </trkpt>
      <trkpt lat="50.04257" lon="1.94099">
        <ele>8.1</ele>
        <time>2022-04-17T12:35:44Z</time>
      </trkpt>
      <trkpt lat="50.04258" lon="1.94098">
        <ele>8.1</ele>
        <time>2022-04-17T12:35:45Z</time>
      </trkpt>
      <trkpt lat="50.04259" lon="1.94098">
        <ele>8.1</ele>
        <time>2022-04-17T12:35:47Z</time>
      </trkpt>
      <trkpt lat="50.0426" lon="1.94098">
        <ele>8.1</ele>
        <time>2022-04-17T12:35:48Z</time>
      </trkpt>
      <trkpt lat="50.04262" lon="1.94097">
        <ele>8.1</ele>
        <time>2022-04-17T12:35:49Z</time>
      </trkpt>
      <trkpt lat="50.04263" lon="1.94097">
        <ele>8.1</ele>
        <time>2022-04-17T12:35:50Z</time>
      </trkpt>
      <trkpt lat="50.04264" lon="1.94096">
        <ele>8.1</ele>
        <time>2022-04-17T12:35:51Z</time>
      </trkpt>
      <trkpt lat="50.04265" lon="1.94096">
        <ele>8.1</ele>
        <time>2022-04-17T12:35:52Z</time>
      </trkpt>
      <trkpt lat="50.04266" lon="1.94095">
        <ele>8.1</ele>
        <time>2022-04-17T12:35:53Z</time>
      </trkpt>
      <trkpt lat="50.04267" lon="1.94095">
        <ele>8.1</ele>
        <time>2022-04-17T12:35:54Z</time>
      </trkpt>
      <trkpt lat="50.04269" lon="1.94094">
        <ele>8.1</ele>
        <time>2022-04-17T12:35:56Z</time>
      </trkpt>
      <trkpt lat="50.0427" lon="1.94094">
        <ele>8.1</ele>
        <time>2022-04-17T12:35:57Z</time>
      </trkpt>
      <trkpt lat="50.04271" lon="1.94094">
        <ele>8.1</ele>
        <time>2022-04-17T12:35:58Z</time>
      </trkpt>
      <trkpt lat="50.04273" lon="1.94093">
        <ele>8.1</ele>
        <time>2022-04-17T12:35:59Z</time>
      </trkpt>
      <trkpt lat="50.04274" lon="1.94093">
        <ele>8.1</ele>
        <time>2022-04-17T12:36:00Z</time>
      </trkpt>
      <trkpt lat="50.04275" lon="1.94092">
        <ele>8.1</ele>
        <time>2022-04-17T12:36:01Z</time>
      </trkpt>
      <trkpt lat="50.04277" lon="1.94091">
        <ele>8.1</ele>
        <time>2022-04-17T12:36:03Z</time>
      </trkpt>
      <trkpt lat="50.04278" lon="1.94091">
        <ele>8.1</ele>
        <time>2022-04-17T12:36:04Z</time>
      </trkpt>
      <trkpt lat="50.0428" lon="1.9409">
        <ele>8.1</ele>
        <time>2022-04-17T12:36:06Z</time>
      </trkpt>
      <trkpt lat="50.04281" lon="1.9409">
        <ele>8.1</ele>
        <time>2022-04-17T12:36:07Z</time>
      </trkpt>
      <trkpt lat="50.04282" lon="1.94089">
        <ele>8.1</ele>
        <time>2022-04-17T12:36:08Z</time>
      </trkpt>
      <trkpt lat="50.04284" lon="1.94088">
        <ele>8.1</ele>
        <time>2022-04-17T12:36:09Z</time>
      </trkpt>
      <trkpt lat="50.04285" lon="1.94088">
        <ele>8.1</ele>
        <time>2022-04-17T12:36:10Z</time>
      </trkpt>
      <trkpt lat="50.04285" lon="1.94087">
        <ele>8.1</ele>
        <time>2022-04-17T12:36:11Z</time>
      </trkpt>
      <trkpt lat="50.04287" lon="1.94087">
        <ele>8.1</ele>
        <time>2022-04-17T12:36:12Z</time>
      </trkpt>
      <trkpt lat="50.04288" lon="1.94086">
        <ele>8.1</ele>
        <time>2022-04-17T12:36:13Z</time>
      </trkpt>
      <trkpt lat="50.04289" lon="1.94085">
        <ele>8.1</ele>
        <time>2022-04-17T12:36:14Z</time>
      </trkpt>
      <trkpt lat="50.0429" lon="1.94085">
        <ele>8.1</ele>
        <time>2022-04-17T12:36:15Z</time>
      </trkpt>
      <trkpt lat="50.04291" lon="1.94084">
        <ele>8.1</ele>
        <time>2022-04-17T12:36:16Z</time>
      </trkpt>
      <trkpt lat="50.04292" lon="1.94084">
        <ele>8.1</ele>
        <time>2022-04-17T12:36:17Z</time>
      </trkpt>
      <trkpt lat="50.04293" lon="1.94083">
        <ele>8.1</ele>
        <time>2022-04-17T12:36:19Z</time>
      </trkpt>
      <trkpt lat="50.04294" lon="1.94083">
        <ele>8.1</ele>
        <time>2022-04-17T12:36:20Z</time>
      </trkpt>
      <trkpt lat="50.04296" lon="1.94082">
        <ele>8.1</ele>
        <time>2022-04-17T12:36:21Z</time>
      </trkpt>
      <trkpt lat="50.04297" lon="1.94081">
        <ele>8.1</ele>
        <time>2022-04-17T12:36:22Z</time>
      </trkpt>
      <trkpt lat="50.04299" lon="1.9408">
        <ele>8.1</ele>
        <time>2022-04-17T12:36:24Z</time>
      </trkpt>
      <trkpt lat="50.043" lon="1.94079">
        <ele>8.1</ele>
        <time>2022-04-17T12:36:25Z</time>
      </trkpt>
      <trkpt lat="50.04301" lon="1.94079">
        <ele>8.1</ele>
        <time>2022-04-17T12:36:26Z</time>
      </trkpt>
      <trkpt lat="50.04302" lon="1.94078">
        <ele>8.1</ele>
        <time>2022-04-17T12:36:27Z</time>
      </trkpt>
      <trkpt lat="50.04303" lon="1.94078">
        <ele>8.1</ele>
        <time>2022-04-17T12:36:28Z</time>
      </trkpt>
      <trkpt lat="50.04304" lon="1.94077">
        <ele>8.1</ele>
        <time>2022-04-17T12:36:29Z</time>
      </trkpt>
      <trkpt lat="50.04305" lon="1.94077">
        <ele>8.1</ele>
        <time>2022-04-17T12:36:30Z</time>
      </trkpt>
      <trkpt lat="50.04306" lon="1.94076">
        <ele>8.1</ele>
        <time>2022-04-17T12:36:31Z</time>
      </trkpt>
      <trkpt lat="50.04307" lon="1.94075">
        <ele>8.1</ele>
        <time>2022-04-17T12:36:32Z</time>
      </trkpt>
      <trkpt lat="50.04308" lon="1.94075">
        <ele>8.1</ele>
        <time>2022-04-17T12:36:33Z</time>
      </trkpt>
      <trkpt lat="50.04309" lon="1.94074">
        <ele>8.1</ele>
        <time>2022-04-17T12:36:35Z</time>
      </trkpt>
      <trkpt lat="50.0431" lon="1.94073">
        <ele>8.1</ele>
        <time>2022-04-17T12:36:36Z</time>
      </trkpt>
      <trkpt lat="50.04312" lon="1.94072">
        <ele>8.1</ele>
        <time>2022-04-17T12:36:37Z</time>
      </trkpt>
      <trkpt lat="50.04313" lon="1.94072">
        <ele>8.1</ele>
        <time>2022-04-17T12:36:38Z</time>
      </trkpt>
      <trkpt lat="50.04314" lon="1.94071">
        <ele>8.1</ele>
        <time>2022-04-17T12:36:39Z</time>
      </trkpt>
      <trkpt lat="50.04315" lon="1.94071">
        <ele>8.1</ele>
        <time>2022-04-17T12:36:40Z</time>
      </trkpt>
      <trkpt lat="50.04316" lon="1.9407">
        <ele>8.1</ele>
        <time>2022-04-17T12:36:42Z</time>
      </trkpt>
      <trkpt lat="50.04317" lon="1.9407">
        <ele>8.1</ele>
        <time>2022-04-17T12:36:43Z</time>
      </trkpt>
      <trkpt lat="50.04318" lon="1.94069">
        <ele>8.1</ele>
        <time>2022-04-17T12:36:44Z</time>
      </trkpt>
      <trkpt lat="50.0432" lon="1.94069">
        <ele>8.1</ele>
        <time>2022-04-17T12:36:45Z</time>
      </trkpt>
      <trkpt lat="50.04321" lon="1.94068">
        <ele>8.1</ele>
        <time>2022-04-17T12:36:47Z</time>
      </trkpt>
      <trkpt lat="50.04322" lon="1.94068">
        <ele>8.1</ele>
        <time>2022-04-17T12:36:48Z</time>
      </trkpt>
      <trkpt lat="50.04323" lon="1.94067">
        <ele>8.1</ele>
        <time>2022-04-17T12:36:49Z</time>
      </trkpt>
      <trkpt lat="50.04324" lon="1.94067">
        <ele>8.1</ele>
        <time>2022-04-17T12:36:50Z</time>
      </trkpt>
      <trkpt lat="50.04325" lon="1.94067">
        <ele>8.1</ele>
        <time>2022-04-17T12:36:51Z</time>
      </trkpt>
      <trkpt lat="50.04326" lon="1.94066">
        <ele>8.1</ele>
        <time>2022-04-17T12:36:52Z</time>
      </trkpt>
      <trkpt lat="50.04327" lon="1.94066">
        <ele>8.1</ele>
        <time>2022-04-17T12:36:53Z</time>
      </trkpt>
      <trkpt lat="50.04328" lon="1.94066">
        <ele>8.1</ele>
        <time>2022-04-17T12:36:55Z</time>
      </trkpt>
      <trkpt lat="50.04329" lon="1.94066">
        <ele>8.1</ele>
        <time>2022-04-17T12:36:56Z</time>
      </trkpt>
      <trkpt lat="50.04331" lon="1.94066">
        <ele>8.1</ele>
        <time>2022-04-17T12:36:57Z</time>
      </trkpt>
      <trkpt lat="50.04332" lon="1.94065">
        <ele>8.1</ele>
        <time>2022-04-17T12:36:58Z</time>
      </trkpt>
      <trkpt lat="50.04333" lon="1.94065">
        <ele>8.1</ele>
        <time>2022-04-17T12:36:59Z</time>
      </trkpt>
      <trkpt lat="50.04334" lon="1.94065">
        <ele>8.1</ele>
        <time>2022-04-17T12:37:00Z</time>
      </trkpt>
      <trkpt lat="50.04335" lon="1.94065">
        <ele>8.1</ele>
        <time>2022-04-17T12:37:01Z</time>
      </trkpt>
      <trkpt lat="50.04337" lon="1.94064">
        <ele>8.1</ele>
        <time>2022-04-17T12:37:02Z</time>
      </trkpt>
      <trkpt lat="50.04338" lon="1.94064">
        <ele>8.1</ele>
        <time>2022-04-17T12:37:04Z</time>
      </trkpt>
      <trkpt lat="50.04339" lon="1.94064">
        <ele>8.1</ele>
        <time>2022-04-17T12:37:05Z</time>
      </trkpt>
      <trkpt lat="50.04341" lon="1.94064">
        <ele>8.1</ele>
        <time>2022-04-17T12:37:06Z</time>
      </trkpt>
      <trkpt lat="50.04343" lon="1.94064">
        <ele>8.1</ele>
        <time>2022-04-17T12:37:08Z</time>
      </trkpt>
      <trkpt lat="50.04344" lon="1.94064">
        <ele>8.1</ele>
        <time>2022-04-17T12:37:09Z</time>
      </trkpt>
      <trkpt lat="50.04346" lon="1.94063">
        <ele>8.1</ele>
        <time>2022-04-17T12:37:10Z</time>
      </trkpt>
      <trkpt lat="50.04347" lon="1.94063">
        <ele>8.1</ele>
        <time>2022-04-17T12:37:12Z</time>
      </trkpt>
      <trkpt lat="50.04349" lon="1.94062">
        <ele>8.1</ele>
        <time>2022-04-17T12:37:13Z</time>
      </trkpt>
      <trkpt lat="50.04351" lon="1.94062">
        <ele>8.1</ele>
        <time>2022-04-17T12:37:14Z</time>
      </trkpt>
      <trkpt lat="50.04353" lon="1.94062">
        <ele>8.1</ele>
        <time>2022-04-17T12:37:15Z</time>
      </trkpt>
      <trkpt lat="50.04354" lon="1.94062">
        <ele>8.1</ele>
        <time>2022-04-17T12:37:17Z</time>
      </trkpt>
      <trkpt lat="50.04355" lon="1.94061">
        <ele>8.1</ele>
        <time>2022-04-17T12:37:18Z</time>
      </trkpt>
      <trkpt lat="50.04356" lon="1.94061">
        <ele>8.1</ele>
        <time>2022-04-17T12:37:19Z</time>
      </trkpt>
      <trkpt lat="50.04357" lon="1.9406">
        <ele>8.1</ele>
        <time>2022-04-17T12:37:20Z</time>
      </trkpt>
      <trkpt lat="50.04358" lon="1.9406">
        <ele>8.1</ele>
        <time>2022-04-17T12:37:21Z</time>
      </trkpt>
      <trkpt lat="50.0436" lon="1.94059">
        <ele>8.1</ele>
        <time>2022-04-17T12:37:22Z</time>
      </trkpt>
      <trkpt lat="50.04361" lon="1.94059">
        <ele>8.1</ele>
        <time>2022-04-17T12:37:23Z</time>
      </trkpt>
      <trkpt lat="50.04363" lon="1.94058">
        <ele>8.1</ele>
        <time>2022-04-17T12:37:24Z</time>
      </trkpt>
      <trkpt lat="50.04364" lon="1.94057">
        <ele>8.1</ele>
        <time>2022-04-17T12:37:26Z</time>
      </trkpt>
      <trkpt lat="50.04365" lon="1.94057">
        <ele>8.1</ele>
        <time>2022-04-17T12:37:27Z</time>
      </trkpt>
      <trkpt lat="50.04366" lon="1.94056">
        <ele>8.1</ele>
        <time>2022-04-17T12:37:28Z</time>
      </trkpt>
      <trkpt lat="50.04367" lon="1.94055">
        <ele>8.1</ele>
        <time>2022-04-17T12:37:29Z</time>
      </trkpt>
      <trkpt lat="50.04368" lon="1.94055">
        <ele>8.1</ele>
        <time>2022-04-17T12:37:30Z</time>
      </trkpt>
      <trkpt lat="50.04369" lon="1.94054">
        <ele>8.1</ele>
        <time>2022-04-17T12:37:31Z</time>
      </trkpt>
      <trkpt lat="50.0437" lon="1.94053">
        <ele>8.1</ele>
        <time>2022-04-17T12:37:32Z</time>
      </trkpt>
      <trkpt lat="50.0437" lon="1.94053">
        <ele>8.1</ele>
        <time>2022-04-17T12:37:33Z</time>
      </trkpt>
      <trkpt lat="50.0437" lon="1.94056">
        <ele>8.1</ele>
        <time>2022-04-17T12:37:35Z</time>
      </trkpt>
      <trkpt lat="50.0437" lon="1.94057">
        <ele>8.1</ele>
        <time>2022-04-17T12:37:36Z</time>
      </trkpt>
      <trkpt lat="50.04369" lon="1.94057">
        <ele>8.1</ele>
        <time>2022-04-17T12:37:37Z</time>
      </trkpt>
      <trkpt lat="50.04369" lon="1.94057">
        <ele>8.1</ele>
        <time>2022-04-17T12:37:38Z</time>
      </trkpt>
      <trkpt lat="50.04369" lon="1.94057">
        <ele>8.1</ele>
        <time>2022-04-17T12:37:39Z</time>
      </trkpt>
      <trkpt lat="50.04369" lon="1.94057">
        <ele>8.1</ele>
        <time>2022-04-17T12:37:40Z</time>
      </trkpt>
      <trkpt lat="50.04369" lon="1.94057">
        <ele>8.1</ele>
        <time>2022-04-17T12:37:42Z</time>
      </trkpt>
      <trkpt lat="50.0437" lon="1.94057">
        <ele>8.1</ele>
        <time>2022-04-17T12:37:43Z</time>
      </trkpt>
      <trkpt lat="50.0437" lon="1.94056">
        <ele>8.1</ele>
        <time>2022-04-17T12:37:44Z</time>
      </trkpt>
      <trkpt lat="50.04371" lon="1.94056">
        <ele>8.1</ele>
        <time>2022-04-17T12:37:45Z</time>
      </trkpt>
      <trkpt lat="50.04372" lon="1.94055">
        <ele>8.1</ele>
        <time>2022-04-17T12:37:46Z</time>
      </trkpt>
      <trkpt lat="50.04374" lon="1.94054">
        <ele>8.1</ele>
        <time>2022-04-17T12:37:48Z</time>
      </trkpt>
      <trkpt lat="50.04375" lon="1.94052">
        <ele>8.1</ele>
        <time>2022-04-17T12:37:49Z</time>
      </trkpt>
      <trkpt lat="50.04377" lon="1.9405">
        <ele>8.1</ele>
        <time>2022-04-17T12:37:50Z</time>
      </trkpt>
      <trkpt lat="50.04378" lon="1.94049">
        <ele>8.1</ele>
        <time>2022-04-17T12:37:51Z</time>
      </trkpt>
      <trkpt lat="50.04379" lon="1.94048">
        <ele>8.1</ele>
        <time>2022-04-17T12:37:52Z</time>
      </trkpt>
      <trkpt lat="50.0438" lon="1.94046">
        <ele>8.1</ele>
        <time>2022-04-17T12:37:53Z</time>
      </trkpt>
      <trkpt lat="50.04381" lon="1.94045">
        <ele>8.1</ele>
        <time>2022-04-17T12:37:55Z</time>
      </trkpt>
      <trkpt lat="50.04382" lon="1.94044">
        <ele>8.1</ele>
        <time>2022-04-17T12:37:56Z</time>
      </trkpt>
      <trkpt lat="50.04384" lon="1.94042">
        <ele>8.1</ele>
        <time>2022-04-17T12:37:57Z</time>
      </trkpt>
      <trkpt lat="50.04385" lon="1.94041">
        <ele>8.1</ele>
        <time>2022-04-17T12:37:58Z</time>
      </trkpt>
      <trkpt lat="50.04387" lon="1.9404">
        <ele>8.1</ele>
        <time>2022-04-17T12:38:00Z</time>
      </trkpt>
      <trkpt lat="50.04388" lon="1.94039">
        <ele>8.1</ele>
        <time>2022-04-17T12:38:01Z</time>
      </trkpt>
      <trkpt lat="50.04389" lon="1.94038">
        <ele>8.1</ele>
        <time>2022-04-17T12:38:02Z</time>
      </trkpt>
      <trkpt lat="50.0439" lon="1.94037">
        <ele>8.1</ele>
        <time>2022-04-17T12:38:03Z</time>
      </trkpt>
      <trkpt lat="50.04391" lon="1.94036">
        <ele>8.1</ele>
        <time>2022-04-17T12:38:04Z</time>
      </trkpt>
      <trkpt lat="50.04393" lon="1.94035">
        <ele>8.1</ele>
        <time>2022-04-17T12:38:05Z</time>
      </trkpt>
      <trkpt lat="50.04394" lon="1.94035">
        <ele>8.1</ele>
        <time>2022-04-17T12:38:06Z</time>
      </trkpt>
      <trkpt lat="50.04395" lon="1.94034">
        <ele>8.1</ele>
        <time>2022-04-17T12:38:07Z</time>
      </trkpt>
      <trkpt lat="50.04396" lon="1.94034">
        <ele>8.1</ele>
        <time>2022-04-17T12:38:09Z</time>
      </trkpt>
      <trkpt lat="50.04398" lon="1.94033">
        <ele>8.1</ele>
        <time>2022-04-17T12:38:10Z</time>
      </trkpt>
      <trkpt lat="50.04399" lon="1.94032">
        <ele>8.1</ele>
        <time>2022-04-17T12:38:11Z</time>
      </trkpt>
      <trkpt lat="50.04402" lon="1.94032">
        <ele>8.1</ele>
        <time>2022-04-17T12:38:12Z</time>
      </trkpt>
      <trkpt lat="50.04402" lon="1.94031">
        <ele>8.1</ele>
        <time>2022-04-17T12:38:13Z</time>
      </trkpt>
      <trkpt lat="50.04403" lon="1.94031">
        <ele>8.1</ele>
        <time>2022-04-17T12:38:14Z</time>
      </trkpt>
      <trkpt lat="50.04405" lon="1.94031">
        <ele>8.1</ele>
        <time>2022-04-17T12:38:15Z</time>
      </trkpt>
      <trkpt lat="50.04406" lon="1.9403">
        <ele>8.1</ele>
        <time>2022-04-17T12:38:16Z</time>
      </trkpt>
      <trkpt lat="50.04408" lon="1.9403">
        <ele>8.1</ele>
        <time>2022-04-17T12:38:18Z</time>
      </trkpt>
      <trkpt lat="50.04409" lon="1.94029">
        <ele>8.1</ele>
        <time>2022-04-17T12:38:19Z</time>
      </trkpt>
      <trkpt lat="50.0441" lon="1.94029">
        <ele>8.1</ele>
        <time>2022-04-17T12:38:20Z</time>
      </trkpt>
      <trkpt lat="50.04411" lon="1.94029">
        <ele>8.1</ele>
        <time>2022-04-17T12:38:21Z</time>
      </trkpt>
      <trkpt lat="50.04412" lon="1.94028">
        <ele>8.1</ele>
        <time>2022-04-17T12:38:22Z</time>
      </trkpt>
      <trkpt lat="50.04413" lon="1.94028">
        <ele>8.1</ele>
        <time>2022-04-17T12:38:23Z</time>
      </trkpt>
      <trkpt lat="50.04415" lon="1.94028">
        <ele>8.1</ele>
        <time>2022-04-17T12:38:24Z</time>
      </trkpt>
      <trkpt lat="50.04416" lon="1.94027">
        <ele>8.1</ele>
        <time>2022-04-17T12:38:25Z</time>
      </trkpt>
      <trkpt lat="50.04417" lon="1.94026">
        <ele>8.1</ele>
        <time>2022-04-17T12:38:26Z</time>
      </trkpt>
      <trkpt lat="50.04419" lon="1.94025">
        <ele>8.1</ele>
        <time>2022-04-17T12:38:27Z</time>
      </trkpt>
      <trkpt lat="50.0442" lon="1.94024">
        <ele>8.1</ele>
        <time>2022-04-17T12:38:29Z</time>
      </trkpt>
      <trkpt lat="50.04421" lon="1.94023">
        <ele>8.1</ele>
        <time>2022-04-17T12:38:30Z</time>
      </trkpt>
      <trkpt lat="50.04421" lon="1.94022">
        <ele>8.1</ele>
        <time>2022-04-17T12:38:31Z</time>
      </trkpt>
      <trkpt lat="50.04422" lon="1.9402">
        <ele>8.1</ele>
        <time>2022-04-17T12:38:32Z</time>
      </trkpt>
      <trkpt lat="50.04423" lon="1.94019">
        <ele>8.1</ele>
        <time>2022-04-17T12:38:33Z</time>
      </trkpt>
      <trkpt lat="50.04424" lon="1.94017">
        <ele>8.1</ele>
        <time>2022-04-17T12:38:34Z</time>
      </trkpt>
      <trkpt lat="50.04425" lon="1.94015">
        <ele>8.1</ele>
        <time>2022-04-17T12:38:35Z</time>
      </trkpt>
      <trkpt lat="50.04426" lon="1.94012">
        <ele>8.1</ele>
        <time>2022-04-17T12:38:37Z</time>
      </trkpt>
      <trkpt lat="50.04426" lon="1.94011">
        <ele>8.1</ele>
        <time>2022-04-17T12:38:38Z</time>
      </trkpt>
      <trkpt lat="50.04427" lon="1.9401">
        <ele>8.1</ele>
        <time>2022-04-17T12:38:39Z</time>
      </trkpt>
      <trkpt lat="50.04428" lon="1.94007">
        <ele>8.1</ele>
        <time>2022-04-17T12:38:40Z</time>
      </trkpt>
      <trkpt lat="50.04428" lon="1.94005">
        <ele>8.1</ele>
        <time>2022-04-17T12:38:41Z</time>
      </trkpt>
      <trkpt lat="50.04429" lon="1.94003">
        <ele>8.1</ele>
        <time>2022-04-17T12:38:42Z</time>
      </trkpt>
      <trkpt lat="50.04429" lon="1.94">
        <ele>8.1</ele>
        <time>2022-04-17T12:38:43Z</time>
      </trkpt>
      <trkpt lat="50.0443" lon="1.93996">
        <ele>8.1</ele>
        <time>2022-04-17T12:38:44Z</time>
      </trkpt>
      <trkpt lat="50.0443" lon="1.93995">
        <ele>8.1</ele>
        <time>2022-04-17T12:38:45Z</time>
      </trkpt>
      <trkpt lat="50.0443" lon="1.93991">
        <ele>8.1</ele>
        <time>2022-04-17T12:38:46Z</time>
      </trkpt>
      <trkpt lat="50.04431" lon="1.9399">
        <ele>8.1</ele>
        <time>2022-04-17T12:38:48Z</time>
      </trkpt>
      <trkpt lat="50.04431" lon="1.93988">
        <ele>8.1</ele>
        <time>2022-04-17T12:38:49Z</time>
      </trkpt>
      <trkpt lat="50.04431" lon="1.93985">
        <ele>8.1</ele>
        <time>2022-04-17T12:38:50Z</time>
      </trkpt>
      <trkpt lat="50.04432" lon="1.93983">
        <ele>8.1</ele>
        <time>2022-04-17T12:38:51Z</time>
      </trkpt>
      <trkpt lat="50.04432" lon="1.93981">
        <ele>8.1</ele>
        <time>2022-04-17T12:38:52Z</time>
      </trkpt>
      <trkpt lat="50.04432" lon="1.93978">
        <ele>8.1</ele>
        <time>2022-04-17T12:38:53Z</time>
      </trkpt>
      <trkpt lat="50.04433" lon="1.93976">
        <ele>8.1</ele>
        <time>2022-04-17T12:38:54Z</time>
      </trkpt>
      <trkpt lat="50.04433" lon="1.93973">
        <ele>8.1</ele>
        <time>2022-04-17T12:38:55Z</time>
      </trkpt>
      <trkpt lat="50.04433" lon="1.9397">
        <ele>8.1</ele>
        <time>2022-04-17T12:38:56Z</time>
      </trkpt>
      <trkpt lat="50.04433" lon="1.93969">
        <ele>8.1</ele>
        <time>2022-04-17T12:38:58Z</time>
      </trkpt>
      <trkpt lat="50.04434" lon="1.93967">
        <ele>8</ele>
        <time>2022-04-17T12:38:59Z</time>
      </trkpt>
      <trkpt lat="50.04434" lon="1.93964">
        <ele>8</ele>
        <time>2022-04-17T12:39:00Z</time>
      </trkpt>
      <trkpt lat="50.04434" lon="1.93962">
        <ele>8</ele>
        <time>2022-04-17T12:39:01Z</time>
      </trkpt>
      <trkpt lat="50.04434" lon="1.93959">
        <ele>8</ele>
        <time>2022-04-17T12:39:02Z</time>
      </trkpt>
      <trkpt lat="50.04434" lon="1.93957">
        <ele>8</ele>
        <time>2022-04-17T12:39:03Z</time>
      </trkpt>
      <trkpt lat="50.04434" lon="1.93955">
        <ele>8</ele>
        <time>2022-04-17T12:39:04Z</time>
      </trkpt>
      <trkpt lat="50.04435" lon="1.93952">
        <ele>8</ele>
        <time>2022-04-17T12:39:05Z</time>
      </trkpt>
      <trkpt lat="50.04435" lon="1.93949">
        <ele>8</ele>
        <time>2022-04-17T12:39:06Z</time>
      </trkpt>
      <trkpt lat="50.04435" lon="1.93947">
        <ele>8</ele>
        <time>2022-04-17T12:39:08Z</time>
      </trkpt>
      <trkpt lat="50.04435" lon="1.93946">
        <ele>8</ele>
        <time>2022-04-17T12:39:09Z</time>
      </trkpt>
      <trkpt lat="50.04436" lon="1.93943">
        <ele>8</ele>
        <time>2022-04-17T12:39:10Z</time>
      </trkpt>
      <trkpt lat="50.04436" lon="1.93942">
        <ele>8</ele>
        <time>2022-04-17T12:39:11Z</time>
      </trkpt>
      <trkpt lat="50.04436" lon="1.93941">
        <ele>8</ele>
        <time>2022-04-17T12:39:12Z</time>
      </trkpt>
      <trkpt lat="50.04436" lon="1.93938">
        <ele>8</ele>
        <time>2022-04-17T12:39:13Z</time>
      </trkpt>
      <trkpt lat="50.04436" lon="1.93936">
        <ele>8</ele>
        <time>2022-04-17T12:39:14Z</time>
      </trkpt>
      <trkpt lat="50.04437" lon="1.93935">
        <ele>8</ele>
        <time>2022-04-17T12:39:15Z</time>
      </trkpt>
      <trkpt lat="50.04437" lon="1.93934">
        <ele>8</ele>
        <time>2022-04-17T12:39:17Z</time>
      </trkpt>
      <trkpt lat="50.04437" lon="1.93932">
        <ele>8</ele>
        <time>2022-04-17T12:39:18Z</time>
      </trkpt>
      <trkpt lat="50.04437" lon="1.93931">
        <ele>8</ele>
        <time>2022-04-17T12:39:19Z</time>
      </trkpt>
      <trkpt lat="50.04438" lon="1.93929">
        <ele>8</ele>
        <time>2022-04-17T12:39:20Z</time>
      </trkpt>
      <trkpt lat="50.04438" lon="1.93928">
        <ele>8</ele>
        <time>2022-04-17T12:39:21Z</time>
      </trkpt>
      <trkpt lat="50.04438" lon="1.93926">
        <ele>8</ele>
        <time>2022-04-17T12:39:22Z</time>
      </trkpt>
      <trkpt lat="50.04439" lon="1.93925">
        <ele>8</ele>
        <time>2022-04-17T12:39:23Z</time>
      </trkpt>
      <trkpt lat="50.04439" lon="1.93921">
        <ele>8</ele>
        <time>2022-04-17T12:39:25Z</time>
      </trkpt>
      <trkpt lat="50.04439" lon="1.93919">
        <ele>8</ele>
        <time>2022-04-17T12:39:26Z</time>
      </trkpt>
      <trkpt lat="50.04439" lon="1.93918">
        <ele>8</ele>
        <time>2022-04-17T12:39:27Z</time>
      </trkpt>
      <trkpt lat="50.04439" lon="1.93915">
        <ele>8</ele>
        <time>2022-04-17T12:39:28Z</time>
      </trkpt>
      <trkpt lat="50.04439" lon="1.93914">
        <ele>8</ele>
        <time>2022-04-17T12:39:30Z</time>
      </trkpt>
      <trkpt lat="50.04439" lon="1.93912">
        <ele>8</ele>
        <time>2022-04-17T12:39:31Z</time>
      </trkpt>
      <trkpt lat="50.04439" lon="1.93911">
        <ele>8</ele>
        <time>2022-04-17T12:39:32Z</time>
      </trkpt>
      <trkpt lat="50.04439" lon="1.93909">
        <ele>8</ele>
        <time>2022-04-17T12:39:34Z</time>
      </trkpt>
      <trkpt lat="50.04439" lon="1.93907">
        <ele>8</ele>
        <time>2022-04-17T12:39:35Z</time>
      </trkpt>
      <trkpt lat="50.04439" lon="1.93905">
        <ele>8</ele>
        <time>2022-04-17T12:39:36Z</time>
      </trkpt>
      <trkpt lat="50.04439" lon="1.93903">
        <ele>8</ele>
        <time>2022-04-17T12:39:37Z</time>
      </trkpt>
      <trkpt lat="50.04439" lon="1.93902">
        <ele>8</ele>
        <time>2022-04-17T12:39:38Z</time>
      </trkpt>
      <trkpt lat="50.0444" lon="1.939">
        <ele>8</ele>
        <time>2022-04-17T12:39:39Z</time>
      </trkpt>
      <trkpt lat="50.0444" lon="1.93898">
        <ele>8</ele>
        <time>2022-04-17T12:39:40Z</time>
      </trkpt>
      <trkpt lat="50.04441" lon="1.93897">
        <ele>8</ele>
        <time>2022-04-17T12:39:41Z</time>
      </trkpt>
      <trkpt lat="50.04441" lon="1.93896">
        <ele>8</ele>
        <time>2022-04-17T12:39:42Z</time>
      </trkpt>
      <trkpt lat="50.04441" lon="1.93895">
        <ele>8</ele>
        <time>2022-04-17T12:39:44Z</time>
      </trkpt>
      <trkpt lat="50.04442" lon="1.93893">
        <ele>8</ele>
        <time>2022-04-17T12:39:45Z</time>
      </trkpt>
      <trkpt lat="50.04442" lon="1.9389">
        <ele>8</ele>
        <time>2022-04-17T12:39:46Z</time>
      </trkpt>
      <trkpt lat="50.04443" lon="1.93889">
        <ele>8</ele>
        <time>2022-04-17T12:39:47Z</time>
      </trkpt>
      <trkpt lat="50.04443" lon="1.93885">
        <ele>8</ele>
        <time>2022-04-17T12:39:48Z</time>
      </trkpt>
      <trkpt lat="50.04443" lon="1.93884">
        <ele>8</ele>
        <time>2022-04-17T12:39:49Z</time>
      </trkpt>
      <trkpt lat="50.04443" lon="1.93882">
        <ele>8</ele>
        <time>2022-04-17T12:39:50Z</time>
      </trkpt>
      <trkpt lat="50.04444" lon="1.93881">
        <ele>8</ele>
        <time>2022-04-17T12:39:51Z</time>
      </trkpt>
      <trkpt lat="50.04444" lon="1.93879">
        <ele>8</ele>
        <time>2022-04-17T12:39:52Z</time>
      </trkpt>
      <trkpt lat="50.04444" lon="1.93877">
        <ele>8</ele>
        <time>2022-04-17T12:39:54Z</time>
      </trkpt>
      <trkpt lat="50.04445" lon="1.93875">
        <ele>8</ele>
        <time>2022-04-17T12:39:55Z</time>
      </trkpt>
      <trkpt lat="50.04445" lon="1.93872">
        <ele>8</ele>
        <time>2022-04-17T12:39:56Z</time>
      </trkpt>
      <trkpt lat="50.04446" lon="1.9387">
        <ele>8</ele>
        <time>2022-04-17T12:39:57Z</time>
      </trkpt>
      <trkpt lat="50.04446" lon="1.93868">
        <ele>8</ele>
        <time>2022-04-17T12:39:58Z</time>
      </trkpt>
      <trkpt lat="50.04446" lon="1.93867">
        <ele>8</ele>
        <time>2022-04-17T12:39:59Z</time>
      </trkpt>
      <trkpt lat="50.04447" lon="1.93865">
        <ele>8</ele>
        <time>2022-04-17T12:40:01Z</time>
      </trkpt>
      <trkpt lat="50.04447" lon="1.93864">
        <ele>8</ele>
        <time>2022-04-17T12:40:02Z</time>
      </trkpt>
      <trkpt lat="50.04447" lon="1.93862">
        <ele>8</ele>
        <time>2022-04-17T12:40:03Z</time>
      </trkpt>
      <trkpt lat="50.04448" lon="1.9386">
        <ele>8</ele>
        <time>2022-04-17T12:40:04Z</time>
      </trkpt>
      <trkpt lat="50.04448" lon="1.93859">
        <ele>8</ele>
        <time>2022-04-17T12:40:05Z</time>
      </trkpt>
      <trkpt lat="50.04449" lon="1.93856">
        <ele>8</ele>
        <time>2022-04-17T12:40:07Z</time>
      </trkpt>
      <trkpt lat="50.0445" lon="1.93855">
        <ele>8</ele>
        <time>2022-04-17T12:40:08Z</time>
      </trkpt>
      <trkpt lat="50.0445" lon="1.93854">
        <ele>8</ele>
        <time>2022-04-17T12:40:09Z</time>
      </trkpt>
      <trkpt lat="50.0445" lon="1.93852">
        <ele>8</ele>
        <time>2022-04-17T12:40:10Z</time>
      </trkpt>
      <trkpt lat="50.04451" lon="1.93849">
        <ele>8</ele>
        <time>2022-04-17T12:40:12Z</time>
      </trkpt>
      <trkpt lat="50.04452" lon="1.93846">
        <ele>8</ele>
        <time>2022-04-17T12:40:13Z</time>
      </trkpt>
      <trkpt lat="50.04453" lon="1.93845">
        <ele>8</ele>
        <time>2022-04-17T12:40:14Z</time>
      </trkpt>
      <trkpt lat="50.04453" lon="1.93844">
        <ele>8</ele>
        <time>2022-04-17T12:40:15Z</time>
      </trkpt>
      <trkpt lat="50.04454" lon="1.93842">
        <ele>8</ele>
        <time>2022-04-17T12:40:16Z</time>
      </trkpt>
      <trkpt lat="50.04454" lon="1.93839">
        <ele>8</ele>
        <time>2022-04-17T12:40:17Z</time>
      </trkpt>
      <trkpt lat="50.04454" lon="1.93838">
        <ele>8</ele>
        <time>2022-04-17T12:40:18Z</time>
      </trkpt>
      <trkpt lat="50.04454" lon="1.93836">
        <ele>8</ele>
        <time>2022-04-17T12:40:20Z</time>
      </trkpt>
      <trkpt lat="50.04454" lon="1.93834">
        <ele>8</ele>
        <time>2022-04-17T12:40:21Z</time>
      </trkpt>
      <trkpt lat="50.04454" lon="1.9383">
        <ele>8</ele>
        <time>2022-04-17T12:40:22Z</time>
      </trkpt>
      <trkpt lat="50.04454" lon="1.93829">
        <ele>8</ele>
        <time>2022-04-17T12:40:23Z</time>
      </trkpt>
      <trkpt lat="50.04455" lon="1.93828">
        <ele>8</ele>
        <time>2022-04-17T12:40:24Z</time>
      </trkpt>
      <trkpt lat="50.04455" lon="1.93825">
        <ele>8</ele>
        <time>2022-04-17T12:40:25Z</time>
      </trkpt>
      <trkpt lat="50.04456" lon="1.93823">
        <ele>8</ele>
        <time>2022-04-17T12:40:26Z</time>
      </trkpt>
      <trkpt lat="50.04456" lon="1.93822">
        <ele>8</ele>
        <time>2022-04-17T12:40:27Z</time>
      </trkpt>
      <trkpt lat="50.04456" lon="1.9382">
        <ele>8</ele>
        <time>2022-04-17T12:40:28Z</time>
      </trkpt>
      <trkpt lat="50.04456" lon="1.93819">
        <ele>8</ele>
        <time>2022-04-17T12:40:30Z</time>
      </trkpt>
      <trkpt lat="50.04457" lon="1.93817">
        <ele>8</ele>
        <time>2022-04-17T12:40:31Z</time>
      </trkpt>
      <trkpt lat="50.04458" lon="1.93814">
        <ele>8</ele>
        <time>2022-04-17T12:40:32Z</time>
      </trkpt>
      <trkpt lat="50.04458" lon="1.93813">
        <ele>8</ele>
        <time>2022-04-17T12:40:33Z</time>
      </trkpt>
      <trkpt lat="50.04458" lon="1.93811">
        <ele>8</ele>
        <time>2022-04-17T12:40:34Z</time>
      </trkpt>
      <trkpt lat="50.04459" lon="1.9381">
        <ele>8</ele>
        <time>2022-04-17T12:40:35Z</time>
      </trkpt>
      <trkpt lat="50.04459" lon="1.93808">
        <ele>8</ele>
        <time>2022-04-17T12:40:36Z</time>
      </trkpt>
      <trkpt lat="50.0446" lon="1.93805">
        <ele>8</ele>
        <time>2022-04-17T12:40:37Z</time>
      </trkpt>
      <trkpt lat="50.04461" lon="1.93804">
        <ele>8</ele>
        <time>2022-04-17T12:40:38Z</time>
      </trkpt>
      <trkpt lat="50.04462" lon="1.93801">
        <ele>8</ele>
        <time>2022-04-17T12:40:40Z</time>
      </trkpt>
      <trkpt lat="50.04462" lon="1.93799">
        <ele>8</ele>
        <time>2022-04-17T12:40:41Z</time>
      </trkpt>
      <trkpt lat="50.04463" lon="1.93798">
        <ele>8</ele>
        <time>2022-04-17T12:40:42Z</time>
      </trkpt>
      <trkpt lat="50.04463" lon="1.93796">
        <ele>8</ele>
        <time>2022-04-17T12:40:43Z</time>
      </trkpt>
      <trkpt lat="50.04464" lon="1.93795">
        <ele>8</ele>
        <time>2022-04-17T12:40:44Z</time>
      </trkpt>
      <trkpt lat="50.04464" lon="1.93793">
        <ele>8</ele>
        <time>2022-04-17T12:40:45Z</time>
      </trkpt>
      <trkpt lat="50.04465" lon="1.93792">
        <ele>8</ele>
        <time>2022-04-17T12:40:46Z</time>
      </trkpt>
      <trkpt lat="50.04466" lon="1.93789">
        <ele>8</ele>
        <time>2022-04-17T12:40:48Z</time>
      </trkpt>
      <trkpt lat="50.04466" lon="1.93788">
        <ele>8</ele>
        <time>2022-04-17T12:40:49Z</time>
      </trkpt>
      <trkpt lat="50.04467" lon="1.93785">
        <ele>8</ele>
        <time>2022-04-17T12:40:50Z</time>
      </trkpt>
      <trkpt lat="50.04467" lon="1.93783">
        <ele>8</ele>
        <time>2022-04-17T12:40:51Z</time>
      </trkpt>
      <trkpt lat="50.04467" lon="1.93782">
        <ele>8</ele>
        <time>2022-04-17T12:40:52Z</time>
      </trkpt>
      <trkpt lat="50.04467" lon="1.93781">
        <ele>8</ele>
        <time>2022-04-17T12:40:53Z</time>
      </trkpt>
      <trkpt lat="50.04468" lon="1.93779">
        <ele>8</ele>
        <time>2022-04-17T12:40:54Z</time>
      </trkpt>
      <trkpt lat="50.04468" lon="1.93777">
        <ele>8</ele>
        <time>2022-04-17T12:40:55Z</time>
      </trkpt>
      <trkpt lat="50.04468" lon="1.93774">
        <ele>8</ele>
        <time>2022-04-17T12:40:56Z</time>
      </trkpt>
      <trkpt lat="50.04468" lon="1.93773">
        <ele>8</ele>
        <time>2022-04-17T12:40:58Z</time>
      </trkpt>
      <trkpt lat="50.04468" lon="1.93772">
        <ele>8</ele>
        <time>2022-04-17T12:40:59Z</time>
      </trkpt>
      <trkpt lat="50.04468" lon="1.93768">
        <ele>8</ele>
        <time>2022-04-17T12:41:00Z</time>
      </trkpt>
      <trkpt lat="50.04468" lon="1.93767">
        <ele>8</ele>
        <time>2022-04-17T12:41:01Z</time>
      </trkpt>
      <trkpt lat="50.04468" lon="1.93765">
        <ele>8</ele>
        <time>2022-04-17T12:41:02Z</time>
      </trkpt>
      <trkpt lat="50.04468" lon="1.93764">
        <ele>8</ele>
        <time>2022-04-17T12:41:03Z</time>
      </trkpt>
      <trkpt lat="50.04468" lon="1.93762">
        <ele>8</ele>
        <time>2022-04-17T12:41:04Z</time>
      </trkpt>
      <trkpt lat="50.04468" lon="1.9376">
        <ele>8</ele>
        <time>2022-04-17T12:41:05Z</time>
      </trkpt>
      <trkpt lat="50.04468" lon="1.93759">
        <ele>8</ele>
        <time>2022-04-17T12:41:06Z</time>
      </trkpt>
      <trkpt lat="50.04468" lon="1.93756">
        <ele>8</ele>
        <time>2022-04-17T12:41:07Z</time>
      </trkpt>
      <trkpt lat="50.04468" lon="1.93755">
        <ele>8</ele>
        <time>2022-04-17T12:41:08Z</time>
      </trkpt>
      <trkpt lat="50.04468" lon="1.93753">
        <ele>8</ele>
        <time>2022-04-17T12:41:09Z</time>
      </trkpt>
      <trkpt lat="50.04468" lon="1.93752">
        <ele>8</ele>
        <time>2022-04-17T12:41:10Z</time>
      </trkpt>
      <trkpt lat="50.04467" lon="1.93747">
        <ele>8</ele>
        <time>2022-04-17T12:41:12Z</time>
      </trkpt>
      <trkpt lat="50.04467" lon="1.93746">
        <ele>8</ele>
        <time>2022-04-17T12:41:13Z</time>
      </trkpt>
      <trkpt lat="50.04467" lon="1.93745">
        <ele>8</ele>
        <time>2022-04-17T12:41:14Z</time>
      </trkpt>
      <trkpt lat="50.04466" lon="1.93744">
        <ele>8</ele>
        <time>2022-04-17T12:41:15Z</time>
      </trkpt>
      <trkpt lat="50.04465" lon="1.93744">
        <ele>8</ele>
        <time>2022-04-17T12:41:16Z</time>
      </trkpt>
      <trkpt lat="50.04463" lon="1.93745">
        <ele>8</ele>
        <time>2022-04-17T12:41:17Z</time>
      </trkpt>
      <trkpt lat="50.04462" lon="1.93745">
        <ele>8</ele>
        <time>2022-04-17T12:41:18Z</time>
      </trkpt>
      <trkpt lat="50.04462" lon="1.93745">
        <ele>8</ele>
        <time>2022-04-17T12:41:19Z</time>
      </trkpt>
      <trkpt lat="50.04462" lon="1.93746">
        <ele>8</ele>
        <time>2022-04-17T12:41:20Z</time>
      </trkpt>
      <trkpt lat="50.04461" lon="1.93746">
        <ele>8</ele>
        <time>2022-04-17T12:41:21Z</time>
      </trkpt>
      <trkpt lat="50.04461" lon="1.93746">
        <ele>8</ele>
        <time>2022-04-17T12:41:22Z</time>
      </trkpt>
      <trkpt lat="50.04461" lon="1.93746">
        <ele>8</ele>
        <time>2022-04-17T12:41:23Z</time>
      </trkpt>
      <trkpt lat="50.04461" lon="1.93746">
        <ele>8</ele>
        <time>2022-04-17T12:41:25Z</time>
      </trkpt>
      <trkpt lat="50.04461" lon="1.93746">
        <ele>8</ele>
        <time>2022-04-17T12:41:26Z</time>
      </trkpt>
      <trkpt lat="50.04461" lon="1.93745">
        <ele>8</ele>
        <time>2022-04-17T12:41:28Z</time>
      </trkpt>
      <trkpt lat="50.04462" lon="1.93744">
        <ele>8</ele>
        <time>2022-04-17T12:41:29Z</time>
      </trkpt>
      <trkpt lat="50.04462" lon="1.93743">
        <ele>8</ele>
        <time>2022-04-17T12:41:30Z</time>
      </trkpt>
      <trkpt lat="50.04462" lon="1.93742">
        <ele>8</ele>
        <time>2022-04-17T12:41:31Z</time>
      </trkpt>
      <trkpt lat="50.04462" lon="1.93739">
        <ele>8</ele>
        <time>2022-04-17T12:41:33Z</time>
      </trkpt>
      <trkpt lat="50.04461" lon="1.93738">
        <ele>8</ele>
        <time>2022-04-17T12:41:34Z</time>
      </trkpt>
      <trkpt lat="50.04461" lon="1.93736">
        <ele>8</ele>
        <time>2022-04-17T12:41:35Z</time>
      </trkpt>
      <trkpt lat="50.04461" lon="1.93736">
        <ele>8</ele>
        <time>2022-04-17T12:41:36Z</time>
      </trkpt>
      <trkpt lat="50.0446" lon="1.93735">
        <ele>8</ele>
        <time>2022-04-17T12:41:37Z</time>
      </trkpt>
      <trkpt lat="50.0446" lon="1.93734">
        <ele>8</ele>
        <time>2022-04-17T12:41:38Z</time>
      </trkpt>
      <trkpt lat="50.0446" lon="1.93733">
        <ele>8</ele>
        <time>2022-04-17T12:41:39Z</time>
      </trkpt>
      <trkpt lat="50.0446" lon="1.93733">
        <ele>8</ele>
        <time>2022-04-17T12:41:40Z</time>
      </trkpt>
      <trkpt lat="50.0446" lon="1.93732">
        <ele>8</ele>
        <time>2022-04-17T12:41:41Z</time>
      </trkpt>
      <trkpt lat="50.0446" lon="1.93731">
        <ele>8</ele>
        <time>2022-04-17T12:41:42Z</time>
      </trkpt>
      <trkpt lat="50.0446" lon="1.9373">
        <ele>8</ele>
        <time>2022-04-17T12:41:44Z</time>
      </trkpt>
      <trkpt lat="50.0446" lon="1.9373">
        <ele>8</ele>
        <time>2022-04-17T12:41:45Z</time>
      </trkpt>
      <trkpt lat="50.0446" lon="1.93729">
        <ele>8</ele>
        <time>2022-04-17T12:41:46Z</time>
      </trkpt>
      <trkpt lat="50.0446" lon="1.93728">
        <ele>8</ele>
        <time>2022-04-17T12:41:47Z</time>
      </trkpt>
      <trkpt lat="50.0446" lon="1.93728">
        <ele>8</ele>
        <time>2022-04-17T12:41:48Z</time>
      </trkpt>
      <trkpt lat="50.0446" lon="1.93727">
        <ele>8</ele>
        <time>2022-04-17T12:41:49Z</time>
      </trkpt>
      <trkpt lat="50.0446" lon="1.93726">
        <ele>8</ele>
        <time>2022-04-17T12:41:51Z</time>
      </trkpt>
      <trkpt lat="50.04461" lon="1.93725">
        <ele>8</ele>
        <time>2022-04-17T12:41:52Z</time>
      </trkpt>
      <trkpt lat="50.04461" lon="1.93725">
        <ele>8</ele>
        <time>2022-04-17T12:41:53Z</time>
      </trkpt>
      <trkpt lat="50.04461" lon="1.93724">
        <ele>8</ele>
        <time>2022-04-17T12:41:54Z</time>
      </trkpt>
      <trkpt lat="50.04461" lon="1.93721">
        <ele>7.9</ele>
        <time>2022-04-17T12:41:55Z</time>
      </trkpt>
      <trkpt lat="50.04461" lon="1.93719">
        <ele>7.9</ele>
        <time>2022-04-17T12:41:56Z</time>
      </trkpt>
      <trkpt lat="50.04461" lon="1.93718">
        <ele>7.9</ele>
        <time>2022-04-17T12:41:57Z</time>
      </trkpt>
      <trkpt lat="50.04461" lon="1.93716">
        <ele>7.9</ele>
        <time>2022-04-17T12:41:58Z</time>
      </trkpt>
      <trkpt lat="50.0446" lon="1.93715">
        <ele>7.9</ele>
        <time>2022-04-17T12:41:59Z</time>
      </trkpt>
      <trkpt lat="50.0446" lon="1.93712">
        <ele>7.9</ele>
        <time>2022-04-17T12:42:01Z</time>
      </trkpt>
      <trkpt lat="50.0446" lon="1.93709">
        <ele>7.9</ele>
        <time>2022-04-17T12:42:02Z</time>
      </trkpt>
      <trkpt lat="50.0446" lon="1.93707">
        <ele>7.9</ele>
        <time>2022-04-17T12:42:04Z</time>
      </trkpt>
      <trkpt lat="50.0446" lon="1.93705">
        <ele>7.9</ele>
        <time>2022-04-17T12:42:05Z</time>
      </trkpt>
      <trkpt lat="50.0446" lon="1.93703">
        <ele>7.9</ele>
        <time>2022-04-17T12:42:06Z</time>
      </trkpt>
      <trkpt lat="50.0446" lon="1.937">
        <ele>7.9</ele>
        <time>2022-04-17T12:42:07Z</time>
      </trkpt>
      <trkpt lat="50.0446" lon="1.93699">
        <ele>7.9</ele>
        <time>2022-04-17T12:42:08Z</time>
      </trkpt>
      <trkpt lat="50.0446" lon="1.93698">
        <ele>7.9</ele>
        <time>2022-04-17T12:42:09Z</time>
      </trkpt>
      <trkpt lat="50.0446" lon="1.93696">
        <ele>7.9</ele>
        <time>2022-04-17T12:42:10Z</time>
      </trkpt>
      <trkpt lat="50.0446" lon="1.93695">
        <ele>7.9</ele>
        <time>2022-04-17T12:42:11Z</time>
      </trkpt>
      <trkpt lat="50.0446" lon="1.93693">
        <ele>7.9</ele>
        <time>2022-04-17T12:42:12Z</time>
      </trkpt>
      <trkpt lat="50.0446" lon="1.9369">
        <ele>7.9</ele>
        <time>2022-04-17T12:42:14Z</time>
      </trkpt>
      <trkpt lat="50.0446" lon="1.93688">
        <ele>7.9</ele>
        <time>2022-04-17T12:42:15Z</time>
      </trkpt>
      <trkpt lat="50.0446" lon="1.93687">
        <ele>7.9</ele>
        <time>2022-04-17T12:42:16Z</time>
      </trkpt>
      <trkpt lat="50.0446" lon="1.93684">
        <ele>7.9</ele>
        <time>2022-04-17T12:42:17Z</time>
      </trkpt>
      <trkpt lat="50.0446" lon="1.93683">
        <ele>7.9</ele>
        <time>2022-04-17T12:42:18Z</time>
      </trkpt>
      <trkpt lat="50.04461" lon="1.93681">
        <ele>7.9</ele>
        <time>2022-04-17T12:42:19Z</time>
      </trkpt>
      <trkpt lat="50.04461" lon="1.9368">
        <ele>7.9</ele>
        <time>2022-04-17T12:42:21Z</time>
      </trkpt>
      <trkpt lat="50.04461" lon="1.93678">
        <ele>7.9</ele>
        <time>2022-04-17T12:42:22Z</time>
      </trkpt>
      <trkpt lat="50.04461" lon="1.93676">
        <ele>7.9</ele>
        <time>2022-04-17T12:42:23Z</time>
      </trkpt>
      <trkpt lat="50.04461" lon="1.93675">
        <ele>7.9</ele>
        <time>2022-04-17T12:42:24Z</time>
      </trkpt>
      <trkpt lat="50.0446" lon="1.93673">
        <ele>7.9</ele>
        <time>2022-04-17T12:42:25Z</time>
      </trkpt>
      <trkpt lat="50.0446" lon="1.93671">
        <ele>7.9</ele>
        <time>2022-04-17T12:42:26Z</time>
      </trkpt>
      <trkpt lat="50.04461" lon="1.93667">
        <ele>7.9</ele>
        <time>2022-04-17T12:42:27Z</time>
      </trkpt>
      <trkpt lat="50.04461" lon="1.93666">
        <ele>7.9</ele>
        <time>2022-04-17T12:42:28Z</time>
      </trkpt>
      <trkpt lat="50.04461" lon="1.93665">
        <ele>7.9</ele>
        <time>2022-04-17T12:42:30Z</time>
      </trkpt>
      <trkpt lat="50.04461" lon="1.93663">
        <ele>7.9</ele>
        <time>2022-04-17T12:42:31Z</time>
      </trkpt>
      <trkpt lat="50.04462" lon="1.93662">
        <ele>8</ele>
        <time>2022-04-17T12:42:32Z</time>
      </trkpt>
      <trkpt lat="50.04462" lon="1.9366">
        <ele>8</ele>
        <time>2022-04-17T12:42:33Z</time>
      </trkpt>
      <trkpt lat="50.04462" lon="1.93659">
        <ele>8</ele>
        <time>2022-04-17T12:42:34Z</time>
      </trkpt>
      <trkpt lat="50.04463" lon="1.93657">
        <ele>8</ele>
        <time>2022-04-17T12:42:35Z</time>
      </trkpt>
      <trkpt lat="50.04463" lon="1.93656">
        <ele>8</ele>
        <time>2022-04-17T12:42:36Z</time>
      </trkpt>
      <trkpt lat="50.04464" lon="1.93652">
        <ele>8</ele>
        <time>2022-04-17T12:42:38Z</time>
      </trkpt>
      <trkpt lat="50.04464" lon="1.93651">
        <ele>8</ele>
        <time>2022-04-17T12:42:39Z</time>
      </trkpt>
      <trkpt lat="50.04465" lon="1.9365">
        <ele>8</ele>
        <time>2022-04-17T12:42:40Z</time>
      </trkpt>
      <trkpt lat="50.04465" lon="1.93648">
        <ele>8</ele>
        <time>2022-04-17T12:42:41Z</time>
      </trkpt>
      <trkpt lat="50.04465" lon="1.93646">
        <ele>8</ele>
        <time>2022-04-17T12:42:43Z</time>
      </trkpt>
      <trkpt lat="50.04466" lon="1.93645">
        <ele>8</ele>
        <time>2022-04-17T12:42:44Z</time>
      </trkpt>
      <trkpt lat="50.04466" lon="1.93641">
        <ele>8</ele>
        <time>2022-04-17T12:42:45Z</time>
      </trkpt>
      <trkpt lat="50.04466" lon="1.9364">
        <ele>8</ele>
        <time>2022-04-17T12:42:46Z</time>
      </trkpt>
      <trkpt lat="50.04466" lon="1.93638">
        <ele>8</ele>
        <time>2022-04-17T12:42:47Z</time>
      </trkpt>
      <trkpt lat="50.04467" lon="1.93636">
        <ele>8</ele>
        <time>2022-04-17T12:42:48Z</time>
      </trkpt>
      <trkpt lat="50.04467" lon="1.93634">
        <ele>8</ele>
        <time>2022-04-17T12:42:49Z</time>
      </trkpt>
      <trkpt lat="50.04467" lon="1.93632">
        <ele>8</ele>
        <time>2022-04-17T12:42:51Z</time>
      </trkpt>
      <trkpt lat="50.04467" lon="1.9363">
        <ele>8</ele>
        <time>2022-04-17T12:42:52Z</time>
      </trkpt>
      <trkpt lat="50.04466" lon="1.93627">
        <ele>8</ele>
        <time>2022-04-17T12:42:53Z</time>
      </trkpt>
      <trkpt lat="50.04465" lon="1.93627">
        <ele>8</ele>
        <time>2022-04-17T12:42:54Z</time>
      </trkpt>
      <trkpt lat="50.04465" lon="1.93626">
        <ele>8</ele>
        <time>2022-04-17T12:42:55Z</time>
      </trkpt>
      <trkpt lat="50.04464" lon="1.93626">
        <ele>8</ele>
        <time>2022-04-17T12:42:56Z</time>
      </trkpt>
      <trkpt lat="50.04463" lon="1.93627">
        <ele>8</ele>
        <time>2022-04-17T12:42:57Z</time>
      </trkpt>
      <trkpt lat="50.04463" lon="1.93628">
        <ele>8</ele>
        <time>2022-04-17T12:42:58Z</time>
      </trkpt>
      <trkpt lat="50.04463" lon="1.93628">
        <ele>8</ele>
        <time>2022-04-17T12:42:59Z</time>
      </trkpt>
      <trkpt lat="50.04463" lon="1.93628">
        <ele>8</ele>
        <time>2022-04-17T12:43:01Z</time>
      </trkpt>
      <trkpt lat="50.04463" lon="1.93626">
        <ele>8</ele>
        <time>2022-04-17T12:43:02Z</time>
      </trkpt>
      <trkpt lat="50.04463" lon="1.93625">
        <ele>8</ele>
        <time>2022-04-17T12:43:03Z</time>
      </trkpt>
      <trkpt lat="50.04464" lon="1.93623">
        <ele>8</ele>
        <time>2022-04-17T12:43:05Z</time>
      </trkpt>
      <trkpt lat="50.04464" lon="1.93621">
        <ele>8</ele>
        <time>2022-04-17T12:43:06Z</time>
      </trkpt>
      <trkpt lat="50.04465" lon="1.93618">
        <ele>8</ele>
        <time>2022-04-17T12:43:08Z</time>
      </trkpt>
      <trkpt lat="50.04465" lon="1.93616">
        <ele>8</ele>
        <time>2022-04-17T12:43:09Z</time>
      </trkpt>
      <trkpt lat="50.04465" lon="1.93614">
        <ele>8.1</ele>
        <time>2022-04-17T12:43:10Z</time>
      </trkpt>
      <trkpt lat="50.04466" lon="1.93613">
        <ele>8.1</ele>
        <time>2022-04-17T12:43:11Z</time>
      </trkpt>
      <trkpt lat="50.04467" lon="1.9361">
        <ele>8.1</ele>
        <time>2022-04-17T12:43:13Z</time>
      </trkpt>
      <trkpt lat="50.04467" lon="1.93608">
        <ele>8.1</ele>
        <time>2022-04-17T12:43:14Z</time>
      </trkpt>
      <trkpt lat="50.04468" lon="1.93607">
        <ele>8.1</ele>
        <time>2022-04-17T12:43:15Z</time>
      </trkpt>
      <trkpt lat="50.04468" lon="1.93606">
        <ele>8.1</ele>
        <time>2022-04-17T12:43:16Z</time>
      </trkpt>
      <trkpt lat="50.04468" lon="1.93604">
        <ele>8.1</ele>
        <time>2022-04-17T12:43:17Z</time>
      </trkpt>
      <trkpt lat="50.04469" lon="1.93603">
        <ele>8.1</ele>
        <time>2022-04-17T12:43:19Z</time>
      </trkpt>
      <trkpt lat="50.04469" lon="1.93601">
        <ele>8.1</ele>
        <time>2022-04-17T12:43:20Z</time>
      </trkpt>
      <trkpt lat="50.04469" lon="1.936">
        <ele>8.1</ele>
        <time>2022-04-17T12:43:21Z</time>
      </trkpt>
      <trkpt lat="50.04469" lon="1.93598">
        <ele>8.1</ele>
        <time>2022-04-17T12:43:23Z</time>
      </trkpt>
      <trkpt lat="50.04469" lon="1.93596">
        <ele>8.1</ele>
        <time>2022-04-17T12:43:24Z</time>
      </trkpt>
      <trkpt lat="50.04469" lon="1.93595">
        <ele>8.1</ele>
        <time>2022-04-17T12:43:25Z</time>
      </trkpt>
      <trkpt lat="50.04469" lon="1.93593">
        <ele>8.1</ele>
        <time>2022-04-17T12:43:26Z</time>
      </trkpt>
      <trkpt lat="50.0447" lon="1.93589">
        <ele>8.1</ele>
        <time>2022-04-17T12:43:27Z</time>
      </trkpt>
      <trkpt lat="50.0447" lon="1.93588">
        <ele>8.1</ele>
        <time>2022-04-17T12:43:28Z</time>
      </trkpt>
      <trkpt lat="50.0447" lon="1.93587">
        <ele>8.1</ele>
        <time>2022-04-17T12:43:30Z</time>
      </trkpt>
      <trkpt lat="50.0447" lon="1.93585">
        <ele>8.1</ele>
        <time>2022-04-17T12:43:31Z</time>
      </trkpt>
      <trkpt lat="50.0447" lon="1.93584">
        <ele>8.1</ele>
        <time>2022-04-17T12:43:32Z</time>
      </trkpt>
      <trkpt lat="50.0447" lon="1.93582">
        <ele>8.1</ele>
        <time>2022-04-17T12:43:33Z</time>
      </trkpt>
      <trkpt lat="50.0447" lon="1.93579">
        <ele>8.1</ele>
        <time>2022-04-17T12:43:34Z</time>
      </trkpt>
      <trkpt lat="50.0447" lon="1.93578">
        <ele>8.1</ele>
        <time>2022-04-17T12:43:35Z</time>
      </trkpt>
      <trkpt lat="50.04471" lon="1.93576">
        <ele>8.1</ele>
        <time>2022-04-17T12:43:36Z</time>
      </trkpt>
      <trkpt lat="50.04471" lon="1.93574">
        <ele>8.1</ele>
        <time>2022-04-17T12:43:37Z</time>
      </trkpt>
      <trkpt lat="50.04471" lon="1.93571">
        <ele>8.1</ele>
        <time>2022-04-17T12:43:38Z</time>
      </trkpt>
      <trkpt lat="50.04472" lon="1.9357">
        <ele>8.1</ele>
        <time>2022-04-17T12:43:39Z</time>
      </trkpt>
      <trkpt lat="50.04472" lon="1.93568">
        <ele>8.1</ele>
        <time>2022-04-17T12:43:41Z</time>
      </trkpt>
      <trkpt lat="50.04473" lon="1.93566">
        <ele>8.1</ele>
        <time>2022-04-17T12:43:42Z</time>
      </trkpt>
      <trkpt lat="50.04473" lon="1.93563">
        <ele>8.1</ele>
        <time>2022-04-17T12:43:43Z</time>
      </trkpt>
      <trkpt lat="50.04474" lon="1.93561">
        <ele>8.1</ele>
        <time>2022-04-17T12:43:45Z</time>
      </trkpt>
      <trkpt lat="50.04474" lon="1.93558">
        <ele>8.1</ele>
        <time>2022-04-17T12:43:46Z</time>
      </trkpt>
      <trkpt lat="50.04474" lon="1.93557">
        <ele>8.1</ele>
        <time>2022-04-17T12:43:47Z</time>
      </trkpt>
      <trkpt lat="50.04475" lon="1.93555">
        <ele>8.1</ele>
        <time>2022-04-17T12:43:48Z</time>
      </trkpt>
      <trkpt lat="50.04475" lon="1.93554">
        <ele>8.1</ele>
        <time>2022-04-17T12:43:50Z</time>
      </trkpt>
      <trkpt lat="50.04476" lon="1.93551">
        <ele>8</ele>
        <time>2022-04-17T12:43:51Z</time>
      </trkpt>
      <trkpt lat="50.04476" lon="1.93551">
        <ele>8</ele>
        <time>2022-04-17T12:43:52Z</time>
      </trkpt>
      <trkpt lat="50.04476" lon="1.9355">
        <ele>8</ele>
        <time>2022-04-17T12:43:53Z</time>
      </trkpt>
      <trkpt lat="50.04476" lon="1.9355">
        <ele>8</ele>
        <time>2022-04-17T12:43:54Z</time>
      </trkpt>
      <trkpt lat="50.04476" lon="1.9355">
        <ele>8</ele>
        <time>2022-04-17T12:43:55Z</time>
      </trkpt>
      <trkpt lat="50.04476" lon="1.9355">
        <ele>8</ele>
        <time>2022-04-17T12:43:56Z</time>
      </trkpt>
      <trkpt lat="50.04476" lon="1.9355">
        <ele>8</ele>
        <time>2022-04-17T12:43:57Z</time>
      </trkpt>
      <trkpt lat="50.04476" lon="1.9355">
        <ele>8</ele>
        <time>2022-04-17T12:43:59Z</time>
      </trkpt>
      <trkpt lat="50.04476" lon="1.9355">
        <ele>8</ele>
        <time>2022-04-17T12:44:00Z</time>
      </trkpt>
      <trkpt lat="50.04476" lon="1.9355">
        <ele>8</ele>
        <time>2022-04-17T12:44:01Z</time>
      </trkpt>
      <trkpt lat="50.04476" lon="1.93549">
        <ele>8</ele>
        <time>2022-04-17T12:44:03Z</time>
      </trkpt>
      <trkpt lat="50.04477" lon="1.93548">
        <ele>8</ele>
        <time>2022-04-17T12:44:04Z</time>
      </trkpt>
      <trkpt lat="50.04477" lon="1.93547">
        <ele>8</ele>
        <time>2022-04-17T12:44:05Z</time>
      </trkpt>
      <trkpt lat="50.04477" lon="1.93546">
        <ele>8</ele>
        <time>2022-04-17T12:44:06Z</time>
      </trkpt>
      <trkpt lat="50.04478" lon="1.93544">
        <ele>8</ele>
        <time>2022-04-17T12:44:07Z</time>
      </trkpt>
      <trkpt lat="50.04479" lon="1.93543">
        <ele>8</ele>
        <time>2022-04-17T12:44:08Z</time>
      </trkpt>
      <trkpt lat="50.04479" lon="1.93542">
        <ele>8</ele>
        <time>2022-04-17T12:44:09Z</time>
      </trkpt>
      <trkpt lat="50.0448" lon="1.9354">
        <ele>8</ele>
        <time>2022-04-17T12:44:11Z</time>
      </trkpt>
      <trkpt lat="50.0448" lon="1.93539">
        <ele>8</ele>
        <time>2022-04-17T12:44:12Z</time>
      </trkpt>
      <trkpt lat="50.04481" lon="1.93537">
        <ele>8</ele>
        <time>2022-04-17T12:44:13Z</time>
      </trkpt>
      <trkpt lat="50.04482" lon="1.93536">
        <ele>8</ele>
        <time>2022-04-17T12:44:14Z</time>
      </trkpt>
      <trkpt lat="50.04482" lon="1.93534">
        <ele>8</ele>
        <time>2022-04-17T12:44:15Z</time>
      </trkpt>
      <trkpt lat="50.04483" lon="1.93533">
        <ele>8</ele>
        <time>2022-04-17T12:44:16Z</time>
      </trkpt>
      <trkpt lat="50.04483" lon="1.93531">
        <ele>8</ele>
        <time>2022-04-17T12:44:17Z</time>
      </trkpt>
      <trkpt lat="50.04483" lon="1.9353">
        <ele>8</ele>
        <time>2022-04-17T12:44:18Z</time>
      </trkpt>
      <trkpt lat="50.04484" lon="1.93528">
        <ele>8</ele>
        <time>2022-04-17T12:44:19Z</time>
      </trkpt>
      <trkpt lat="50.04484" lon="1.93527">
        <ele>8</ele>
        <time>2022-04-17T12:44:21Z</time>
      </trkpt>
      <trkpt lat="50.04485" lon="1.93525">
        <ele>7.9</ele>
        <time>2022-04-17T12:44:22Z</time>
      </trkpt>
      <trkpt lat="50.04485" lon="1.93523">
        <ele>7.9</ele>
        <time>2022-04-17T12:44:23Z</time>
      </trkpt>
      <trkpt lat="50.04485" lon="1.93522">
        <ele>7.9</ele>
        <time>2022-04-17T12:44:24Z</time>
      </trkpt>
      <trkpt lat="50.04486" lon="1.9352">
        <ele>7.9</ele>
        <time>2022-04-17T12:44:25Z</time>
      </trkpt>
      <trkpt lat="50.04486" lon="1.93519">
        <ele>7.9</ele>
        <time>2022-04-17T12:44:26Z</time>
      </trkpt>
      <trkpt lat="50.04487" lon="1.93518">
        <ele>7.9</ele>
        <time>2022-04-17T12:44:27Z</time>
      </trkpt>
      <trkpt lat="50.04487" lon="1.93516">
        <ele>7.9</ele>
        <time>2022-04-17T12:44:28Z</time>
      </trkpt>
      <trkpt lat="50.04487" lon="1.93515">
        <ele>7.9</ele>
        <time>2022-04-17T12:44:30Z</time>
      </trkpt>
      <trkpt lat="50.04488" lon="1.93514">
        <ele>7.9</ele>
        <time>2022-04-17T12:44:31Z</time>
      </trkpt>
      <trkpt lat="50.04489" lon="1.93512">
        <ele>7.9</ele>
        <time>2022-04-17T12:44:32Z</time>
      </trkpt>
      <trkpt lat="50.0449" lon="1.93511">
        <ele>7.9</ele>
        <time>2022-04-17T12:44:33Z</time>
      </trkpt>
      <trkpt lat="50.0449" lon="1.9351">
        <ele>7.9</ele>
        <time>2022-04-17T12:44:35Z</time>
      </trkpt>
      <trkpt lat="50.04491" lon="1.93509">
        <ele>7.9</ele>
        <time>2022-04-17T12:44:36Z</time>
      </trkpt>
      <trkpt lat="50.04492" lon="1.93509">
        <ele>7.9</ele>
        <time>2022-04-17T12:44:37Z</time>
      </trkpt>
      <trkpt lat="50.04493" lon="1.93508">
        <ele>7.9</ele>
        <time>2022-04-17T12:44:38Z</time>
      </trkpt>
      <trkpt lat="50.04494" lon="1.93508">
        <ele>7.9</ele>
        <time>2022-04-17T12:44:39Z</time>
      </trkpt>
      <trkpt lat="50.04494" lon="1.93507">
        <ele>7.9</ele>
        <time>2022-04-17T12:44:40Z</time>
      </trkpt>
      <trkpt lat="50.04495" lon="1.93506">
        <ele>7.9</ele>
        <time>2022-04-17T12:44:41Z</time>
      </trkpt>
      <trkpt lat="50.04496" lon="1.93505">
        <ele>7.9</ele>
        <time>2022-04-17T12:44:42Z</time>
      </trkpt>
      <trkpt lat="50.04497" lon="1.93505">
        <ele>7.9</ele>
        <time>2022-04-17T12:44:43Z</time>
      </trkpt>
      <trkpt lat="50.04498" lon="1.93504">
        <ele>7.9</ele>
        <time>2022-04-17T12:44:44Z</time>
      </trkpt>
      <trkpt lat="50.04498" lon="1.93503">
        <ele>7.9</ele>
        <time>2022-04-17T12:44:46Z</time>
      </trkpt>
      <trkpt lat="50.04499" lon="1.93502">
        <ele>7.9</ele>
        <time>2022-04-17T12:44:47Z</time>
      </trkpt>
      <trkpt lat="50.045" lon="1.93502">
        <ele>7.9</ele>
        <time>2022-04-17T12:44:48Z</time>
      </trkpt>
      <trkpt lat="50.045" lon="1.93501">
        <ele>7.9</ele>
        <time>2022-04-17T12:44:49Z</time>
      </trkpt>
      <trkpt lat="50.04501" lon="1.935">
        <ele>7.9</ele>
        <time>2022-04-17T12:44:50Z</time>
      </trkpt>
      <trkpt lat="50.04501" lon="1.93499">
        <ele>7.9</ele>
        <time>2022-04-17T12:44:51Z</time>
      </trkpt>
      <trkpt lat="50.04502" lon="1.93499">
        <ele>7.9</ele>
        <time>2022-04-17T12:44:52Z</time>
      </trkpt>
      <trkpt lat="50.04502" lon="1.93498">
        <ele>7.9</ele>
        <time>2022-04-17T12:44:53Z</time>
      </trkpt>
      <trkpt lat="50.04502" lon="1.93498">
        <ele>7.9</ele>
        <time>2022-04-17T12:44:54Z</time>
      </trkpt>
      <trkpt lat="50.04503" lon="1.93497">
        <ele>7.9</ele>
        <time>2022-04-17T12:44:56Z</time>
      </trkpt>
      <trkpt lat="50.04504" lon="1.93496">
        <ele>7.9</ele>
        <time>2022-04-17T12:44:57Z</time>
      </trkpt>
      <trkpt lat="50.04504" lon="1.93495">
        <ele>7.9</ele>
        <time>2022-04-17T12:44:58Z</time>
      </trkpt>
      <trkpt lat="50.04505" lon="1.93494">
        <ele>7.9</ele>
        <time>2022-04-17T12:44:59Z</time>
      </trkpt>
      <trkpt lat="50.04506" lon="1.93493">
        <ele>7.9</ele>
        <time>2022-04-17T12:45:00Z</time>
      </trkpt>
      <trkpt lat="50.04506" lon="1.93493">
        <ele>7.9</ele>
        <time>2022-04-17T12:45:01Z</time>
      </trkpt>
      <trkpt lat="50.04507" lon="1.93492">
        <ele>7.9</ele>
        <time>2022-04-17T12:45:02Z</time>
      </trkpt>
      <trkpt lat="50.04508" lon="1.93491">
        <ele>7.9</ele>
        <time>2022-04-17T12:45:03Z</time>
      </trkpt>
      <trkpt lat="50.04508" lon="1.93491">
        <ele>7.9</ele>
        <time>2022-04-17T12:45:04Z</time>
      </trkpt>
      <trkpt lat="50.04508" lon="1.93491">
        <ele>7.9</ele>
        <time>2022-04-17T12:45:05Z</time>
      </trkpt>
      <trkpt lat="50.04509" lon="1.9349">
        <ele>7.9</ele>
        <time>2022-04-17T12:45:07Z</time>
      </trkpt>
      <trkpt lat="50.04511" lon="1.93489">
        <ele>7.9</ele>
        <time>2022-04-17T12:45:08Z</time>
      </trkpt>
      <trkpt lat="50.04512" lon="1.93489">
        <ele>7.9</ele>
        <time>2022-04-17T12:45:09Z</time>
      </trkpt>
      <trkpt lat="50.04512" lon="1.93489">
        <ele>7.9</ele>
        <time>2022-04-17T12:45:10Z</time>
      </trkpt>
      <trkpt lat="50.04513" lon="1.93488">
        <ele>7.9</ele>
        <time>2022-04-17T12:45:11Z</time>
      </trkpt>
      <trkpt lat="50.04514" lon="1.93488">
        <ele>7.9</ele>
        <time>2022-04-17T12:45:12Z</time>
      </trkpt>
      <trkpt lat="50.04515" lon="1.93487">
        <ele>7.9</ele>
        <time>2022-04-17T12:45:13Z</time>
      </trkpt>
      <trkpt lat="50.04516" lon="1.93486">
        <ele>7.9</ele>
        <time>2022-04-17T12:45:14Z</time>
      </trkpt>
      <trkpt lat="50.04516" lon="1.93485">
        <ele>7.9</ele>
        <time>2022-04-17T12:45:15Z</time>
      </trkpt>
      <trkpt lat="50.04517" lon="1.93484">
        <ele>7.9</ele>
        <time>2022-04-17T12:45:16Z</time>
      </trkpt>
      <trkpt lat="50.04518" lon="1.93484">
        <ele>7.9</ele>
        <time>2022-04-17T12:45:17Z</time>
      </trkpt>
      <trkpt lat="50.0452" lon="1.93482">
        <ele>7.9</ele>
        <time>2022-04-17T12:45:19Z</time>
      </trkpt>
      <trkpt lat="50.0452" lon="1.93482">
        <ele>7.9</ele>
        <time>2022-04-17T12:45:20Z</time>
      </trkpt>
      <trkpt lat="50.04521" lon="1.93481">
        <ele>7.9</ele>
        <time>2022-04-17T12:45:21Z</time>
      </trkpt>
      <trkpt lat="50.04522" lon="1.9348">
        <ele>7.9</ele>
        <time>2022-04-17T12:45:22Z</time>
      </trkpt>
      <trkpt lat="50.04523" lon="1.9348">
        <ele>7.9</ele>
        <time>2022-04-17T12:45:23Z</time>
      </trkpt>
      <trkpt lat="50.04524" lon="1.93479">
        <ele>7.9</ele>
        <time>2022-04-17T12:45:24Z</time>
      </trkpt>
      <trkpt lat="50.04525" lon="1.93478">
        <ele>7.9</ele>
        <time>2022-04-17T12:45:25Z</time>
      </trkpt>
      <trkpt lat="50.04525" lon="1.93477">
        <ele>7.9</ele>
        <time>2022-04-17T12:45:26Z</time>
      </trkpt>
      <trkpt lat="50.04526" lon="1.93476">
        <ele>7.9</ele>
        <time>2022-04-17T12:45:28Z</time>
      </trkpt>
      <trkpt lat="50.04527" lon="1.93475">
        <ele>7.9</ele>
        <time>2022-04-17T12:45:29Z</time>
      </trkpt>
      <trkpt lat="50.04528" lon="1.93474">
        <ele>7.9</ele>
        <time>2022-04-17T12:45:30Z</time>
      </trkpt>
      <trkpt lat="50.04529" lon="1.93474">
        <ele>7.9</ele>
        <time>2022-04-17T12:45:31Z</time>
      </trkpt>
      <trkpt lat="50.0453" lon="1.93473">
        <ele>7.9</ele>
        <time>2022-04-17T12:45:32Z</time>
      </trkpt>
      <trkpt lat="50.04531" lon="1.93472">
        <ele>7.9</ele>
        <time>2022-04-17T12:45:33Z</time>
      </trkpt>
      <trkpt lat="50.04532" lon="1.93471">
        <ele>7.9</ele>
        <time>2022-04-17T12:45:34Z</time>
      </trkpt>
      <trkpt lat="50.04533" lon="1.9347">
        <ele>7.9</ele>
        <time>2022-04-17T12:45:35Z</time>
      </trkpt>
      <trkpt lat="50.04534" lon="1.93468">
        <ele>7.9</ele>
        <time>2022-04-17T12:45:36Z</time>
      </trkpt>
      <trkpt lat="50.04535" lon="1.93467">
        <ele>7.9</ele>
        <time>2022-04-17T12:45:37Z</time>
      </trkpt>
      <trkpt lat="50.04536" lon="1.93466">
        <ele>7.9</ele>
        <time>2022-04-17T12:45:39Z</time>
      </trkpt>
      <trkpt lat="50.04536" lon="1.93465">
        <ele>7.9</ele>
        <time>2022-04-17T12:45:40Z</time>
      </trkpt>
      <trkpt lat="50.04537" lon="1.93464">
        <ele>7.9</ele>
        <time>2022-04-17T12:45:41Z</time>
      </trkpt>
      <trkpt lat="50.04539" lon="1.93461">
        <ele>7.9</ele>
        <time>2022-04-17T12:45:42Z</time>
      </trkpt>
      <trkpt lat="50.0454" lon="1.93461">
        <ele>7.9</ele>
        <time>2022-04-17T12:45:43Z</time>
      </trkpt>
      <trkpt lat="50.0454" lon="1.9346">
        <ele>7.9</ele>
        <time>2022-04-17T12:45:44Z</time>
      </trkpt>
      <trkpt lat="50.04542" lon="1.93458">
        <ele>7.9</ele>
        <time>2022-04-17T12:45:45Z</time>
      </trkpt>
      <trkpt lat="50.04543" lon="1.93457">
        <ele>7.9</ele>
        <time>2022-04-17T12:45:46Z</time>
      </trkpt>
      <trkpt lat="50.04544" lon="1.93456">
        <ele>7.9</ele>
        <time>2022-04-17T12:45:47Z</time>
      </trkpt>
      <trkpt lat="50.04545" lon="1.93454">
        <ele>7.9</ele>
        <time>2022-04-17T12:45:48Z</time>
      </trkpt>
      <trkpt lat="50.04545" lon="1.93453">
        <ele>7.9</ele>
        <time>2022-04-17T12:45:49Z</time>
      </trkpt>
      <trkpt lat="50.04547" lon="1.93451">
        <ele>7.9</ele>
        <time>2022-04-17T12:45:51Z</time>
      </trkpt>
      <trkpt lat="50.04548" lon="1.93448">
        <ele>7.9</ele>
        <time>2022-04-17T12:45:52Z</time>
      </trkpt>
      <trkpt lat="50.04549" lon="1.93447">
        <ele>7.9</ele>
        <time>2022-04-17T12:45:53Z</time>
      </trkpt>
      <trkpt lat="50.0455" lon="1.93446">
        <ele>7.9</ele>
        <time>2022-04-17T12:45:54Z</time>
      </trkpt>
      <trkpt lat="50.04551" lon="1.93444">
        <ele>7.9</ele>
        <time>2022-04-17T12:45:55Z</time>
      </trkpt>
      <trkpt lat="50.04552" lon="1.93442">
        <ele>7.9</ele>
        <time>2022-04-17T12:45:56Z</time>
      </trkpt>
      <trkpt lat="50.04553" lon="1.93439">
        <ele>7.9</ele>
        <time>2022-04-17T12:45:57Z</time>
      </trkpt>
      <trkpt lat="50.04553" lon="1.93437">
        <ele>7.9</ele>
        <time>2022-04-17T12:45:58Z</time>
      </trkpt>
      <trkpt lat="50.04554" lon="1.93435">
        <ele>7.9</ele>
        <time>2022-04-17T12:45:59Z</time>
      </trkpt>
      <trkpt lat="50.04555" lon="1.93431">
        <ele>7.9</ele>
        <time>2022-04-17T12:46:01Z</time>
      </trkpt>
      <trkpt lat="50.04555" lon="1.9343">
        <ele>7.9</ele>
        <time>2022-04-17T12:46:02Z</time>
      </trkpt>
      <trkpt lat="50.04556" lon="1.93427">
        <ele>7.9</ele>
        <time>2022-04-17T12:46:03Z</time>
      </trkpt>
      <trkpt lat="50.04556" lon="1.93425">
        <ele>7.9</ele>
        <time>2022-04-17T12:46:04Z</time>
      </trkpt>
      <trkpt lat="50.04557" lon="1.93424">
        <ele>7.9</ele>
        <time>2022-04-17T12:46:05Z</time>
      </trkpt>
      <trkpt lat="50.04558" lon="1.93422">
        <ele>7.9</ele>
        <time>2022-04-17T12:46:06Z</time>
      </trkpt>
      <trkpt lat="50.04559" lon="1.93419">
        <ele>8</ele>
        <time>2022-04-17T12:46:07Z</time>
      </trkpt>
      <trkpt lat="50.04559" lon="1.93418">
        <ele>8</ele>
        <time>2022-04-17T12:46:08Z</time>
      </trkpt>
      <trkpt lat="50.0456" lon="1.93416">
        <ele>8</ele>
        <time>2022-04-17T12:46:09Z</time>
      </trkpt>
      <trkpt lat="50.0456" lon="1.93414">
        <ele>8</ele>
        <time>2022-04-17T12:46:11Z</time>
      </trkpt>
      <trkpt lat="50.04561" lon="1.93411">
        <ele>8</ele>
        <time>2022-04-17T12:46:12Z</time>
      </trkpt>
      <trkpt lat="50.04562" lon="1.9341">
        <ele>8</ele>
        <time>2022-04-17T12:46:13Z</time>
      </trkpt>
      <trkpt lat="50.04563" lon="1.93408">
        <ele>8</ele>
        <time>2022-04-17T12:46:14Z</time>
      </trkpt>
      <trkpt lat="50.04563" lon="1.93406">
        <ele>8</ele>
        <time>2022-04-17T12:46:15Z</time>
      </trkpt>
      <trkpt lat="50.04565" lon="1.93404">
        <ele>8</ele>
        <time>2022-04-17T12:46:17Z</time>
      </trkpt>
      <trkpt lat="50.04565" lon="1.93402">
        <ele>8</ele>
        <time>2022-04-17T12:46:18Z</time>
      </trkpt>
      <trkpt lat="50.04567" lon="1.934">
        <ele>8</ele>
        <time>2022-04-17T12:46:19Z</time>
      </trkpt>
      <trkpt lat="50.04567" lon="1.93399">
        <ele>8</ele>
        <time>2022-04-17T12:46:20Z</time>
      </trkpt>
      <trkpt lat="50.04568" lon="1.93398">
        <ele>8</ele>
        <time>2022-04-17T12:46:21Z</time>
      </trkpt>
      <trkpt lat="50.0457" lon="1.93396">
        <ele>8</ele>
        <time>2022-04-17T12:46:22Z</time>
      </trkpt>
      <trkpt lat="50.0457" lon="1.93395">
        <ele>8</ele>
        <time>2022-04-17T12:46:24Z</time>
      </trkpt>
      <trkpt lat="50.04571" lon="1.93394">
        <ele>8</ele>
        <time>2022-04-17T12:46:25Z</time>
      </trkpt>
      <trkpt lat="50.04572" lon="1.93392">
        <ele>8</ele>
        <time>2022-04-17T12:46:26Z</time>
      </trkpt>
      <trkpt lat="50.04573" lon="1.93391">
        <ele>8</ele>
        <time>2022-04-17T12:46:27Z</time>
      </trkpt>
      <trkpt lat="50.04574" lon="1.9339">
        <ele>8</ele>
        <time>2022-04-17T12:46:28Z</time>
      </trkpt>
      <trkpt lat="50.04576" lon="1.93388">
        <ele>8</ele>
        <time>2022-04-17T12:46:29Z</time>
      </trkpt>
      <trkpt lat="50.04576" lon="1.93387">
        <ele>8</ele>
        <time>2022-04-17T12:46:30Z</time>
      </trkpt>
      <trkpt lat="50.04577" lon="1.93386">
        <ele>7.9</ele>
        <time>2022-04-17T12:46:31Z</time>
      </trkpt>
      <trkpt lat="50.04577" lon="1.93385">
        <ele>7.9</ele>
        <time>2022-04-17T12:46:32Z</time>
      </trkpt>
      <trkpt lat="50.04578" lon="1.93384">
        <ele>7.9</ele>
        <time>2022-04-17T12:46:34Z</time>
      </trkpt>
      <trkpt lat="50.04579" lon="1.93382">
        <ele>7.9</ele>
        <time>2022-04-17T12:46:35Z</time>
      </trkpt>
      <trkpt lat="50.0458" lon="1.93381">
        <ele>7.9</ele>
        <time>2022-04-17T12:46:36Z</time>
      </trkpt>
      <trkpt lat="50.04581" lon="1.93379">
        <ele>7.9</ele>
        <time>2022-04-17T12:46:37Z</time>
      </trkpt>
      <trkpt lat="50.04582" lon="1.93378">
        <ele>7.9</ele>
        <time>2022-04-17T12:46:38Z</time>
      </trkpt>
      <trkpt lat="50.04583" lon="1.93377">
        <ele>7.9</ele>
        <time>2022-04-17T12:46:39Z</time>
      </trkpt>
      <trkpt lat="50.04583" lon="1.93376">
        <ele>7.9</ele>
        <time>2022-04-17T12:46:40Z</time>
      </trkpt>
      <trkpt lat="50.04584" lon="1.93375">
        <ele>7.9</ele>
        <time>2022-04-17T12:46:41Z</time>
      </trkpt>
      <trkpt lat="50.04585" lon="1.93374">
        <ele>7.9</ele>
        <time>2022-04-17T12:46:43Z</time>
      </trkpt>
      <trkpt lat="50.04585" lon="1.93373">
        <ele>7.9</ele>
        <time>2022-04-17T12:46:44Z</time>
      </trkpt>
      <trkpt lat="50.04586" lon="1.93371">
        <ele>7.9</ele>
        <time>2022-04-17T12:46:45Z</time>
      </trkpt>
      <trkpt lat="50.04587" lon="1.9337">
        <ele>7.9</ele>
        <time>2022-04-17T12:46:46Z</time>
      </trkpt>
      <trkpt lat="50.04589" lon="1.93369">
        <ele>7.9</ele>
        <time>2022-04-17T12:46:47Z</time>
      </trkpt>
      <trkpt lat="50.04589" lon="1.93368">
        <ele>7.9</ele>
        <time>2022-04-17T12:46:48Z</time>
      </trkpt>
      <trkpt lat="50.0459" lon="1.93367">
        <ele>7.9</ele>
        <time>2022-04-17T12:46:49Z</time>
      </trkpt>
      <trkpt lat="50.04591" lon="1.93366">
        <ele>7.9</ele>
        <time>2022-04-17T12:46:50Z</time>
      </trkpt>
      <trkpt lat="50.04592" lon="1.93365">
        <ele>7.9</ele>
        <time>2022-04-17T12:46:52Z</time>
      </trkpt>
      <trkpt lat="50.04593" lon="1.93364">
        <ele>7.9</ele>
        <time>2022-04-17T12:46:53Z</time>
      </trkpt>
      <trkpt lat="50.04594" lon="1.93363">
        <ele>7.9</ele>
        <time>2022-04-17T12:46:54Z</time>
      </trkpt>
      <trkpt lat="50.04595" lon="1.93361">
        <ele>7.9</ele>
        <time>2022-04-17T12:46:55Z</time>
      </trkpt>
      <trkpt lat="50.04596" lon="1.93361">
        <ele>7.9</ele>
        <time>2022-04-17T12:46:56Z</time>
      </trkpt>
      <trkpt lat="50.04596" lon="1.9336">
        <ele>7.9</ele>
        <time>2022-04-17T12:46:57Z</time>
      </trkpt>
      <trkpt lat="50.04597" lon="1.9336">
        <ele>7.9</ele>
        <time>2022-04-17T12:46:58Z</time>
      </trkpt>
      <trkpt lat="50.04599" lon="1.93358">
        <ele>7.9</ele>
        <time>2022-04-17T12:47:00Z</time>
      </trkpt>
      <trkpt lat="50.046" lon="1.93357">
        <ele>7.8</ele>
        <time>2022-04-17T12:47:01Z</time>
      </trkpt>
      <trkpt lat="50.046" lon="1.93357">
        <ele>7.8</ele>
        <time>2022-04-17T12:47:02Z</time>
      </trkpt>
      <trkpt lat="50.04601" lon="1.93356">
        <ele>7.8</ele>
        <time>2022-04-17T12:47:03Z</time>
      </trkpt>
      <trkpt lat="50.04602" lon="1.93355">
        <ele>7.8</ele>
        <time>2022-04-17T12:47:04Z</time>
      </trkpt>
      <trkpt lat="50.04603" lon="1.93354">
        <ele>7.8</ele>
        <time>2022-04-17T12:47:05Z</time>
      </trkpt>
      <trkpt lat="50.04604" lon="1.93354">
        <ele>7.8</ele>
        <time>2022-04-17T12:47:06Z</time>
      </trkpt>
      <trkpt lat="50.04605" lon="1.93353">
        <ele>7.8</ele>
        <time>2022-04-17T12:47:07Z</time>
      </trkpt>
      <trkpt lat="50.04606" lon="1.93353">
        <ele>7.8</ele>
        <time>2022-04-17T12:47:09Z</time>
      </trkpt>
      <trkpt lat="50.04607" lon="1.93352">
        <ele>7.8</ele>
        <time>2022-04-17T12:47:10Z</time>
      </trkpt>
      <trkpt lat="50.04608" lon="1.93352">
        <ele>7.8</ele>
        <time>2022-04-17T12:47:11Z</time>
      </trkpt>
      <trkpt lat="50.04608" lon="1.93352">
        <ele>7.8</ele>
        <time>2022-04-17T12:47:12Z</time>
      </trkpt>
      <trkpt lat="50.04609" lon="1.93352">
        <ele>7.8</ele>
        <time>2022-04-17T12:47:13Z</time>
      </trkpt>
      <trkpt lat="50.0461" lon="1.93351">
        <ele>7.8</ele>
        <time>2022-04-17T12:47:14Z</time>
      </trkpt>
      <trkpt lat="50.04611" lon="1.93351">
        <ele>7.8</ele>
        <time>2022-04-17T12:47:15Z</time>
      </trkpt>
      <trkpt lat="50.04612" lon="1.93351">
        <ele>7.8</ele>
        <time>2022-04-17T12:47:16Z</time>
      </trkpt>
      <trkpt lat="50.04613" lon="1.9335">
        <ele>7.8</ele>
        <time>2022-04-17T12:47:17Z</time>
      </trkpt>
      <trkpt lat="50.04614" lon="1.9335">
        <ele>7.8</ele>
        <time>2022-04-17T12:47:18Z</time>
      </trkpt>
      <trkpt lat="50.04615" lon="1.93349">
        <ele>7.8</ele>
        <time>2022-04-17T12:47:19Z</time>
      </trkpt>
      <trkpt lat="50.04616" lon="1.93348">
        <ele>7.8</ele>
        <time>2022-04-17T12:47:21Z</time>
      </trkpt>
      <trkpt lat="50.04617" lon="1.93347">
        <ele>7.8</ele>
        <time>2022-04-17T12:47:22Z</time>
      </trkpt>
      <trkpt lat="50.04618" lon="1.93347">
        <ele>7.8</ele>
        <time>2022-04-17T12:47:23Z</time>
      </trkpt>
      <trkpt lat="50.04618" lon="1.93346">
        <ele>7.8</ele>
        <time>2022-04-17T12:47:24Z</time>
      </trkpt>
      <trkpt lat="50.04619" lon="1.93346">
        <ele>7.8</ele>
        <time>2022-04-17T12:47:25Z</time>
      </trkpt>
      <trkpt lat="50.0462" lon="1.93345">
        <ele>7.8</ele>
        <time>2022-04-17T12:47:26Z</time>
      </trkpt>
      <trkpt lat="50.04621" lon="1.93344">
        <ele>7.8</ele>
        <time>2022-04-17T12:47:27Z</time>
      </trkpt>
      <trkpt lat="50.04622" lon="1.93343">
        <ele>7.8</ele>
        <time>2022-04-17T12:47:29Z</time>
      </trkpt>
      <trkpt lat="50.04624" lon="1.93342">
        <ele>7.8</ele>
        <time>2022-04-17T12:47:30Z</time>
      </trkpt>
      <trkpt lat="50.04625" lon="1.9334">
        <ele>7.8</ele>
        <time>2022-04-17T12:47:31Z</time>
      </trkpt>
      <trkpt lat="50.04626" lon="1.93339">
        <ele>7.8</ele>
        <time>2022-04-17T12:47:32Z</time>
      </trkpt>
      <trkpt lat="50.04627" lon="1.93338">
        <ele>7.8</ele>
        <time>2022-04-17T12:47:33Z</time>
      </trkpt>
      <trkpt lat="50.04627" lon="1.93337">
        <ele>7.8</ele>
        <time>2022-04-17T12:47:34Z</time>
      </trkpt>
      <trkpt lat="50.04629" lon="1.93336">
        <ele>7.8</ele>
        <time>2022-04-17T12:47:35Z</time>
      </trkpt>
      <trkpt lat="50.04629" lon="1.93335">
        <ele>7.8</ele>
        <time>2022-04-17T12:47:36Z</time>
      </trkpt>
      <trkpt lat="50.0463" lon="1.93333">
        <ele>7.8</ele>
        <time>2022-04-17T12:47:37Z</time>
      </trkpt>
      <trkpt lat="50.04631" lon="1.93332">
        <ele>7.8</ele>
        <time>2022-04-17T12:47:38Z</time>
      </trkpt>
      <trkpt lat="50.04632" lon="1.9333">
        <ele>7.8</ele>
        <time>2022-04-17T12:47:40Z</time>
      </trkpt>
      <trkpt lat="50.04633" lon="1.93328">
        <ele>7.8</ele>
        <time>2022-04-17T12:47:41Z</time>
      </trkpt>
      <trkpt lat="50.04634" lon="1.93326">
        <ele>7.7</ele>
        <time>2022-04-17T12:47:42Z</time>
      </trkpt>
      <trkpt lat="50.04635" lon="1.93324">
        <ele>7.7</ele>
        <time>2022-04-17T12:47:43Z</time>
      </trkpt>
      <trkpt lat="50.04635" lon="1.93323">
        <ele>7.7</ele>
        <time>2022-04-17T12:47:44Z</time>
      </trkpt>
      <trkpt lat="50.04637" lon="1.9332">
        <ele>7.7</ele>
        <time>2022-04-17T12:47:45Z</time>
      </trkpt>
      <trkpt lat="50.04637" lon="1.93318">
        <ele>7.7</ele>
        <time>2022-04-17T12:47:47Z</time>
      </trkpt>
      <trkpt lat="50.04638" lon="1.93317">
        <ele>7.7</ele>
        <time>2022-04-17T12:47:48Z</time>
      </trkpt>
      <trkpt lat="50.04639" lon="1.93315">
        <ele>7.7</ele>
        <time>2022-04-17T12:47:49Z</time>
      </trkpt>
      <trkpt lat="50.0464" lon="1.93313">
        <ele>7.7</ele>
        <time>2022-04-17T12:47:50Z</time>
      </trkpt>
      <trkpt lat="50.04641" lon="1.93311">
        <ele>7.7</ele>
        <time>2022-04-17T12:47:51Z</time>
      </trkpt>
      <trkpt lat="50.04642" lon="1.93308">
        <ele>7.7</ele>
        <time>2022-04-17T12:47:52Z</time>
      </trkpt>
      <trkpt lat="50.04642" lon="1.93307">
        <ele>7.7</ele>
        <time>2022-04-17T12:47:53Z</time>
      </trkpt>
      <trkpt lat="50.04643" lon="1.93306">
        <ele>7.7</ele>
        <time>2022-04-17T12:47:54Z</time>
      </trkpt>
      <trkpt lat="50.04644" lon="1.93303">
        <ele>7.7</ele>
        <time>2022-04-17T12:47:56Z</time>
      </trkpt>
      <trkpt lat="50.04644" lon="1.93301">
        <ele>7.8</ele>
        <time>2022-04-17T12:47:57Z</time>
      </trkpt>
      <trkpt lat="50.04645" lon="1.93299">
        <ele>7.8</ele>
        <time>2022-04-17T12:47:58Z</time>
      </trkpt>
      <trkpt lat="50.04646" lon="1.93297">
        <ele>7.8</ele>
        <time>2022-04-17T12:47:59Z</time>
      </trkpt>
      <trkpt lat="50.04646" lon="1.93295">
        <ele>7.8</ele>
        <time>2022-04-17T12:48:00Z</time>
      </trkpt>
      <trkpt lat="50.04647" lon="1.93292">
        <ele>7.8</ele>
        <time>2022-04-17T12:48:01Z</time>
      </trkpt>
      <trkpt lat="50.04647" lon="1.93291">
        <ele>7.8</ele>
        <time>2022-04-17T12:48:02Z</time>
      </trkpt>
      <trkpt lat="50.04648" lon="1.93288">
        <ele>7.8</ele>
        <time>2022-04-17T12:48:03Z</time>
      </trkpt>
      <trkpt lat="50.04649" lon="1.93286">
        <ele>7.8</ele>
        <time>2022-04-17T12:48:04Z</time>
      </trkpt>
      <trkpt lat="50.0465" lon="1.93283">
        <ele>7.8</ele>
        <time>2022-04-17T12:48:06Z</time>
      </trkpt>
      <trkpt lat="50.0465" lon="1.93281">
        <ele>7.8</ele>
        <time>2022-04-17T12:48:07Z</time>
      </trkpt>
      <trkpt lat="50.04651" lon="1.93279">
        <ele>7.8</ele>
        <time>2022-04-17T12:48:08Z</time>
      </trkpt>
      <trkpt lat="50.04652" lon="1.93274">
        <ele>7.8</ele>
        <time>2022-04-17T12:48:10Z</time>
      </trkpt>
      <trkpt lat="50.04652" lon="1.93273">
        <ele>7.8</ele>
        <time>2022-04-17T12:48:11Z</time>
      </trkpt>
      <trkpt lat="50.04652" lon="1.93271">
        <ele>7.8</ele>
        <time>2022-04-17T12:48:12Z</time>
      </trkpt>
      <trkpt lat="50.04653" lon="1.93269">
        <ele>7.8</ele>
        <time>2022-04-17T12:48:13Z</time>
      </trkpt>
      <trkpt lat="50.04653" lon="1.93267">
        <ele>7.8</ele>
        <time>2022-04-17T12:48:15Z</time>
      </trkpt>
      <trkpt lat="50.04653" lon="1.93263">
        <ele>7.8</ele>
        <time>2022-04-17T12:48:16Z</time>
      </trkpt>
      <trkpt lat="50.04653" lon="1.93261">
        <ele>7.8</ele>
        <time>2022-04-17T12:48:17Z</time>
      </trkpt>
      <trkpt lat="50.04653" lon="1.93258">
        <ele>7.8</ele>
        <time>2022-04-17T12:48:18Z</time>
      </trkpt>
      <trkpt lat="50.04654" lon="1.93256">
        <ele>7.8</ele>
        <time>2022-04-17T12:48:19Z</time>
      </trkpt>
      <trkpt lat="50.04654" lon="1.93255">
        <ele>7.8</ele>
        <time>2022-04-17T12:48:20Z</time>
      </trkpt>
      <trkpt lat="50.04654" lon="1.9325">
        <ele>7.8</ele>
        <time>2022-04-17T12:48:21Z</time>
      </trkpt>
      <trkpt lat="50.04654" lon="1.93248">
        <ele>7.8</ele>
        <time>2022-04-17T12:48:23Z</time>
      </trkpt>
      <trkpt lat="50.04654" lon="1.93245">
        <ele>7.8</ele>
        <time>2022-04-17T12:48:25Z</time>
      </trkpt>
      <trkpt lat="50.04654" lon="1.93242">
        <ele>7.8</ele>
        <time>2022-04-17T12:48:26Z</time>
      </trkpt>
      <trkpt lat="50.04654" lon="1.9324">
        <ele>7.8</ele>
        <time>2022-04-17T12:48:27Z</time>
      </trkpt>
      <trkpt lat="50.04654" lon="1.93238">
        <ele>7.8</ele>
        <time>2022-04-17T12:48:28Z</time>
      </trkpt>
      <trkpt lat="50.04655" lon="1.93236">
        <ele>7.8</ele>
        <time>2022-04-17T12:48:29Z</time>
      </trkpt>
      <trkpt lat="50.04655" lon="1.93235">
        <ele>7.8</ele>
        <time>2022-04-17T12:48:30Z</time>
      </trkpt>
      <trkpt lat="50.04655" lon="1.93233">
        <ele>7.8</ele>
        <time>2022-04-17T12:48:31Z</time>
      </trkpt>
      <trkpt lat="50.04655" lon="1.93232">
        <ele>7.8</ele>
        <time>2022-04-17T12:48:33Z</time>
      </trkpt>
      <trkpt lat="50.04656" lon="1.9323">
        <ele>7.8</ele>
        <time>2022-04-17T12:48:34Z</time>
      </trkpt>
      <trkpt lat="50.04656" lon="1.93226">
        <ele>7.8</ele>
        <time>2022-04-17T12:48:35Z</time>
      </trkpt>
      <trkpt lat="50.04656" lon="1.93225">
        <ele>7.8</ele>
        <time>2022-04-17T12:48:36Z</time>
      </trkpt>
      <trkpt lat="50.04657" lon="1.93223">
        <ele>7.8</ele>
        <time>2022-04-17T12:48:37Z</time>
      </trkpt>
      <trkpt lat="50.04657" lon="1.93222">
        <ele>7.8</ele>
        <time>2022-04-17T12:48:38Z</time>
      </trkpt>
      <trkpt lat="50.04658" lon="1.9322">
        <ele>7.8</ele>
        <time>2022-04-17T12:48:39Z</time>
      </trkpt>
      <trkpt lat="50.04659" lon="1.93218">
        <ele>7.8</ele>
        <time>2022-04-17T12:48:41Z</time>
      </trkpt>
      <trkpt lat="50.0466" lon="1.93215">
        <ele>7.8</ele>
        <time>2022-04-17T12:48:42Z</time>
      </trkpt>
      <trkpt lat="50.0466" lon="1.93214">
        <ele>7.8</ele>
        <time>2022-04-17T12:48:43Z</time>
      </trkpt>
      <trkpt lat="50.04661" lon="1.93212">
        <ele>7.8</ele>
        <time>2022-04-17T12:48:44Z</time>
      </trkpt>
      <trkpt lat="50.04661" lon="1.9321">
        <ele>7.8</ele>
        <time>2022-04-17T12:48:45Z</time>
      </trkpt>
      <trkpt lat="50.04662" lon="1.93206">
        <ele>7.8</ele>
        <time>2022-04-17T12:48:47Z</time>
      </trkpt>
      <trkpt lat="50.04662" lon="1.93205">
        <ele>7.8</ele>
        <time>2022-04-17T12:48:48Z</time>
      </trkpt>
      <trkpt lat="50.04662" lon="1.93203">
        <ele>7.8</ele>
        <time>2022-04-17T12:48:50Z</time>
      </trkpt>
      <trkpt lat="50.04662" lon="1.93202">
        <ele>7.8</ele>
        <time>2022-04-17T12:48:51Z</time>
      </trkpt>
      <trkpt lat="50.04662" lon="1.93199">
        <ele>7.8</ele>
        <time>2022-04-17T12:48:52Z</time>
      </trkpt>
      <trkpt lat="50.04663" lon="1.93198">
        <ele>7.8</ele>
        <time>2022-04-17T12:48:53Z</time>
      </trkpt>
      <trkpt lat="50.04663" lon="1.93196">
        <ele>7.8</ele>
        <time>2022-04-17T12:48:54Z</time>
      </trkpt>
      <trkpt lat="50.04664" lon="1.93195">
        <ele>7.8</ele>
        <time>2022-04-17T12:48:55Z</time>
      </trkpt>
      <trkpt lat="50.04664" lon="1.93193">
        <ele>7.8</ele>
        <time>2022-04-17T12:48:56Z</time>
      </trkpt>
      <trkpt lat="50.04665" lon="1.93191">
        <ele>7.8</ele>
        <time>2022-04-17T12:48:57Z</time>
      </trkpt>
      <trkpt lat="50.04665" lon="1.93189">
        <ele>7.8</ele>
        <time>2022-04-17T12:48:58Z</time>
      </trkpt>
      <trkpt lat="50.04665" lon="1.93188">
        <ele>7.8</ele>
        <time>2022-04-17T12:49:00Z</time>
      </trkpt>
      <trkpt lat="50.04665" lon="1.93187">
        <ele>7.8</ele>
        <time>2022-04-17T12:49:01Z</time>
      </trkpt>
      <trkpt lat="50.04665" lon="1.93185">
        <ele>7.8</ele>
        <time>2022-04-17T12:49:02Z</time>
      </trkpt>
      <trkpt lat="50.04664" lon="1.93182">
        <ele>7.8</ele>
        <time>2022-04-17T12:49:03Z</time>
      </trkpt>
      <trkpt lat="50.04664" lon="1.93181">
        <ele>7.8</ele>
        <time>2022-04-17T12:49:04Z</time>
      </trkpt>
      <trkpt lat="50.04664" lon="1.93179">
        <ele>7.8</ele>
        <time>2022-04-17T12:49:05Z</time>
      </trkpt>
      <trkpt lat="50.04665" lon="1.93177">
        <ele>7.8</ele>
        <time>2022-04-17T12:49:06Z</time>
      </trkpt>
      <trkpt lat="50.04665" lon="1.93175">
        <ele>7.8</ele>
        <time>2022-04-17T12:49:07Z</time>
      </trkpt>
      <trkpt lat="50.04665" lon="1.93173">
        <ele>7.8</ele>
        <time>2022-04-17T12:49:08Z</time>
      </trkpt>
      <trkpt lat="50.04665" lon="1.93171">
        <ele>7.8</ele>
        <time>2022-04-17T12:49:10Z</time>
      </trkpt>
      <trkpt lat="50.04664" lon="1.93169">
        <ele>7.8</ele>
        <time>2022-04-17T12:49:11Z</time>
      </trkpt>
      <trkpt lat="50.04664" lon="1.93166">
        <ele>7.8</ele>
        <time>2022-04-17T12:49:12Z</time>
      </trkpt>
      <trkpt lat="50.04664" lon="1.93164">
        <ele>7.8</ele>
        <time>2022-04-17T12:49:13Z</time>
      </trkpt>
      <trkpt lat="50.04662" lon="1.93161">
        <ele>7.8</ele>
        <time>2022-04-17T12:49:14Z</time>
      </trkpt>
      <trkpt lat="50.04662" lon="1.9316">
        <ele>7.8</ele>
        <time>2022-04-17T12:49:15Z</time>
      </trkpt>
      <trkpt lat="50.04661" lon="1.93159">
        <ele>7.8</ele>
        <time>2022-04-17T12:49:16Z</time>
      </trkpt>
      <trkpt lat="50.0466" lon="1.93157">
        <ele>7.8</ele>
        <time>2022-04-17T12:49:17Z</time>
      </trkpt>
      <trkpt lat="50.04659" lon="1.93157">
        <ele>7.8</ele>
        <time>2022-04-17T12:49:18Z</time>
      </trkpt>
      <trkpt lat="50.04658" lon="1.93157">
        <ele>7.8</ele>
        <time>2022-04-17T12:49:19Z</time>
      </trkpt>
      <trkpt lat="50.04658" lon="1.93157">
        <ele>7.8</ele>
        <time>2022-04-17T12:49:20Z</time>
      </trkpt>
      <trkpt lat="50.04657" lon="1.93157">
        <ele>7.8</ele>
        <time>2022-04-17T12:49:21Z</time>
      </trkpt>
      <trkpt lat="50.04657" lon="1.93157">
        <ele>7.8</ele>
        <time>2022-04-17T12:49:22Z</time>
      </trkpt>
      <trkpt lat="50.04657" lon="1.93157">
        <ele>7.8</ele>
        <time>2022-04-17T12:49:24Z</time>
      </trkpt>
      <trkpt lat="50.04657" lon="1.93156">
        <ele>7.8</ele>
        <time>2022-04-17T12:49:25Z</time>
      </trkpt>
      <trkpt lat="50.04657" lon="1.93154">
        <ele>7.8</ele>
        <time>2022-04-17T12:49:26Z</time>
      </trkpt>
      <trkpt lat="50.04657" lon="1.93152">
        <ele>7.8</ele>
        <time>2022-04-17T12:49:27Z</time>
      </trkpt>
      <trkpt lat="50.04658" lon="1.9315">
        <ele>7.8</ele>
        <time>2022-04-17T12:49:29Z</time>
      </trkpt>
      <trkpt lat="50.04658" lon="1.93148">
        <ele>7.8</ele>
        <time>2022-04-17T12:49:30Z</time>
      </trkpt>
      <trkpt lat="50.04659" lon="1.93146">
        <ele>7.8</ele>
        <time>2022-04-17T12:49:31Z</time>
      </trkpt>
      <trkpt lat="50.04659" lon="1.93144">
        <ele>7.8</ele>
        <time>2022-04-17T12:49:32Z</time>
      </trkpt>
      <trkpt lat="50.04659" lon="1.93142">
        <ele>7.8</ele>
        <time>2022-04-17T12:49:33Z</time>
      </trkpt>
      <trkpt lat="50.0466" lon="1.9314">
        <ele>7.8</ele>
        <time>2022-04-17T12:49:34Z</time>
      </trkpt>
      <trkpt lat="50.0466" lon="1.93137">
        <ele>7.8</ele>
        <time>2022-04-17T12:49:36Z</time>
      </trkpt>
      <trkpt lat="50.04661" lon="1.93136">
        <ele>7.8</ele>
        <time>2022-04-17T12:49:37Z</time>
      </trkpt>
      <trkpt lat="50.04661" lon="1.93132">
        <ele>7.8</ele>
        <time>2022-04-17T12:49:38Z</time>
      </trkpt>
      <trkpt lat="50.04662" lon="1.93131">
        <ele>7.8</ele>
        <time>2022-04-17T12:49:39Z</time>
      </trkpt>
      <trkpt lat="50.04662" lon="1.93129">
        <ele>7.8</ele>
        <time>2022-04-17T12:49:40Z</time>
      </trkpt>
      <trkpt lat="50.04662" lon="1.93128">
        <ele>7.8</ele>
        <time>2022-04-17T12:49:41Z</time>
      </trkpt>
      <trkpt lat="50.04662" lon="1.93127">
        <ele>7.8</ele>
        <time>2022-04-17T12:49:42Z</time>
      </trkpt>
      <trkpt lat="50.04662" lon="1.93126">
        <ele>7.8</ele>
        <time>2022-04-17T12:49:44Z</time>
      </trkpt>
      <trkpt lat="50.04663" lon="1.93124">
        <ele>7.8</ele>
        <time>2022-04-17T12:49:45Z</time>
      </trkpt>
      <trkpt lat="50.04663" lon="1.93122">
        <ele>7.8</ele>
        <time>2022-04-17T12:49:46Z</time>
      </trkpt>
      <trkpt lat="50.04664" lon="1.93121">
        <ele>7.8</ele>
        <time>2022-04-17T12:49:47Z</time>
      </trkpt>
      <trkpt lat="50.04665" lon="1.93119">
        <ele>7.8</ele>
        <time>2022-04-17T12:49:48Z</time>
      </trkpt>
      <trkpt lat="50.04665" lon="1.93118">
        <ele>7.8</ele>
        <time>2022-04-17T12:49:49Z</time>
      </trkpt>
      <trkpt lat="50.04666" lon="1.93116">
        <ele>7.8</ele>
        <time>2022-04-17T12:49:50Z</time>
      </trkpt>
      <trkpt lat="50.04666" lon="1.93115">
        <ele>7.8</ele>
        <time>2022-04-17T12:49:52Z</time>
      </trkpt>
      <trkpt lat="50.04667" lon="1.93113">
        <ele>7.8</ele>
        <time>2022-04-17T12:49:53Z</time>
      </trkpt>
      <trkpt lat="50.04668" lon="1.93112">
        <ele>7.8</ele>
        <time>2022-04-17T12:49:54Z</time>
      </trkpt>
      <trkpt lat="50.04668" lon="1.9311">
        <ele>7.8</ele>
        <time>2022-04-17T12:49:56Z</time>
      </trkpt>
      <trkpt lat="50.04669" lon="1.93108">
        <ele>7.8</ele>
        <time>2022-04-17T12:49:57Z</time>
      </trkpt>
      <trkpt lat="50.04669" lon="1.93107">
        <ele>7.8</ele>
        <time>2022-04-17T12:49:58Z</time>
      </trkpt>
      <trkpt lat="50.0467" lon="1.93105">
        <ele>7.8</ele>
        <time>2022-04-17T12:49:59Z</time>
      </trkpt>
      <trkpt lat="50.04671" lon="1.93103">
        <ele>7.8</ele>
        <time>2022-04-17T12:50:00Z</time>
      </trkpt>
      <trkpt lat="50.04671" lon="1.93102">
        <ele>7.8</ele>
        <time>2022-04-17T12:50:01Z</time>
      </trkpt>
      <trkpt lat="50.04672" lon="1.93102">
        <ele>7.8</ele>
        <time>2022-04-17T12:50:02Z</time>
      </trkpt>
      <trkpt lat="50.04672" lon="1.93102">
        <ele>7.8</ele>
        <time>2022-04-17T12:50:03Z</time>
      </trkpt>
      <trkpt lat="50.04673" lon="1.93102">
        <ele>7.8</ele>
        <time>2022-04-17T12:50:04Z</time>
      </trkpt>
      <trkpt lat="50.04673" lon="1.93103">
        <ele>7.8</ele>
        <time>2022-04-17T12:50:05Z</time>
      </trkpt>
      <trkpt lat="50.04673" lon="1.93103">
        <ele>7.8</ele>
        <time>2022-04-17T12:50:06Z</time>
      </trkpt>
      <trkpt lat="50.04673" lon="1.93103">
        <ele>7.8</ele>
        <time>2022-04-17T12:50:07Z</time>
      </trkpt>
      <trkpt lat="50.04673" lon="1.93103">
        <ele>7.8</ele>
        <time>2022-04-17T12:50:08Z</time>
      </trkpt>
      <trkpt lat="50.04673" lon="1.93103">
        <ele>7.8</ele>
        <time>2022-04-17T12:50:09Z</time>
      </trkpt>
      <trkpt lat="50.04673" lon="1.93103">
        <ele>7.8</ele>
        <time>2022-04-17T12:50:10Z</time>
      </trkpt>
      <trkpt lat="50.04673" lon="1.93103">
        <ele>7.8</ele>
        <time>2022-04-17T12:50:11Z</time>
      </trkpt>
      <trkpt lat="50.04673" lon="1.93103">
        <ele>7.8</ele>
        <time>2022-04-17T12:50:12Z</time>
      </trkpt>
      <trkpt lat="50.04673" lon="1.93103">
        <ele>7.8</ele>
        <time>2022-04-17T12:50:13Z</time>
      </trkpt>
      <trkpt lat="50.04674" lon="1.93102">
        <ele>7.8</ele>
        <time>2022-04-17T12:50:14Z</time>
      </trkpt>
      <trkpt lat="50.04674" lon="1.93101">
        <ele>7.8</ele>
        <time>2022-04-17T12:50:16Z</time>
      </trkpt>
      <trkpt lat="50.04674" lon="1.931">
        <ele>7.8</ele>
        <time>2022-04-17T12:50:17Z</time>
      </trkpt>
      <trkpt lat="50.04675" lon="1.93099">
        <ele>7.8</ele>
        <time>2022-04-17T12:50:18Z</time>
      </trkpt>
      <trkpt lat="50.04675" lon="1.93098">
        <ele>7.8</ele>
        <time>2022-04-17T12:50:19Z</time>
      </trkpt>
      <trkpt lat="50.04675" lon="1.93096">
        <ele>7.8</ele>
        <time>2022-04-17T12:50:20Z</time>
      </trkpt>
      <trkpt lat="50.04676" lon="1.93096">
        <ele>7.8</ele>
        <time>2022-04-17T12:50:21Z</time>
      </trkpt>
      <trkpt lat="50.04676" lon="1.93094">
        <ele>7.8</ele>
        <time>2022-04-17T12:50:22Z</time>
      </trkpt>
      <trkpt lat="50.04676" lon="1.93091">
        <ele>7.8</ele>
        <time>2022-04-17T12:50:23Z</time>
      </trkpt>
      <trkpt lat="50.04677" lon="1.9309">
        <ele>7.8</ele>
        <time>2022-04-17T12:50:25Z</time>
      </trkpt>
      <trkpt lat="50.04677" lon="1.93088">
        <ele>7.8</ele>
        <time>2022-04-17T12:50:26Z</time>
      </trkpt>
      <trkpt lat="50.04677" lon="1.93086">
        <ele>7.8</ele>
        <time>2022-04-17T12:50:27Z</time>
      </trkpt>
      <trkpt lat="50.04678" lon="1.93085">
        <ele>7.8</ele>
        <time>2022-04-17T12:50:28Z</time>
      </trkpt>
      <trkpt lat="50.04678" lon="1.93083">
        <ele>7.8</ele>
        <time>2022-04-17T12:50:29Z</time>
      </trkpt>
      <trkpt lat="50.04679" lon="1.93078">
        <ele>7.8</ele>
        <time>2022-04-17T12:50:30Z</time>
      </trkpt>
      <trkpt lat="50.0468" lon="1.93077">
        <ele>7.8</ele>
        <time>2022-04-17T12:50:32Z</time>
      </trkpt>
      <trkpt lat="50.0468" lon="1.93075">
        <ele>7.8</ele>
        <time>2022-04-17T12:50:33Z</time>
      </trkpt>
      <trkpt lat="50.04681" lon="1.93074">
        <ele>7.8</ele>
        <time>2022-04-17T12:50:34Z</time>
      </trkpt>
      <trkpt lat="50.04681" lon="1.93073">
        <ele>7.8</ele>
        <time>2022-04-17T12:50:35Z</time>
      </trkpt>
      <trkpt lat="50.04682" lon="1.93071">
        <ele>7.8</ele>
        <time>2022-04-17T12:50:36Z</time>
      </trkpt>
      <trkpt lat="50.04683" lon="1.93069">
        <ele>7.8</ele>
        <time>2022-04-17T12:50:37Z</time>
      </trkpt>
      <trkpt lat="50.04683" lon="1.93067">
        <ele>7.8</ele>
        <time>2022-04-17T12:50:39Z</time>
      </trkpt>
      <trkpt lat="50.04684" lon="1.93065">
        <ele>7.8</ele>
        <time>2022-04-17T12:50:40Z</time>
      </trkpt>
      <trkpt lat="50.04685" lon="1.93063">
        <ele>7.8</ele>
        <time>2022-04-17T12:50:41Z</time>
      </trkpt>
      <trkpt lat="50.04686" lon="1.9306">
        <ele>7.8</ele>
        <time>2022-04-17T12:50:42Z</time>
      </trkpt>
      <trkpt lat="50.04686" lon="1.93059">
        <ele>7.8</ele>
        <time>2022-04-17T12:50:43Z</time>
      </trkpt>
      <trkpt lat="50.04686" lon="1.93058">
        <ele>7.8</ele>
        <time>2022-04-17T12:50:44Z</time>
      </trkpt>
      <trkpt lat="50.04688" lon="1.93053">
        <ele>7.8</ele>
        <time>2022-04-17T12:50:45Z</time>
      </trkpt>
      <trkpt lat="50.04688" lon="1.93051">
        <ele>7.8</ele>
        <time>2022-04-17T12:50:47Z</time>
      </trkpt>
      <trkpt lat="50.04688" lon="1.9305">
        <ele>7.8</ele>
        <time>2022-04-17T12:50:48Z</time>
      </trkpt>
      <trkpt lat="50.04689" lon="1.93048">
        <ele>7.8</ele>
        <time>2022-04-17T12:50:49Z</time>
      </trkpt>
      <trkpt lat="50.04689" lon="1.93046">
        <ele>7.8</ele>
        <time>2022-04-17T12:50:50Z</time>
      </trkpt>
      <trkpt lat="50.0469" lon="1.93044">
        <ele>7.8</ele>
        <time>2022-04-17T12:50:51Z</time>
      </trkpt>
      <trkpt lat="50.0469" lon="1.93043">
        <ele>7.8</ele>
        <time>2022-04-17T12:50:53Z</time>
      </trkpt>
      <trkpt lat="50.04691" lon="1.93041">
        <ele>7.8</ele>
        <time>2022-04-17T12:50:54Z</time>
      </trkpt>
      <trkpt lat="50.04691" lon="1.93039">
        <ele>7.8</ele>
        <time>2022-04-17T12:50:55Z</time>
      </trkpt>
      <trkpt lat="50.04692" lon="1.93037">
        <ele>7.8</ele>
        <time>2022-04-17T12:50:56Z</time>
      </trkpt>
      <trkpt lat="50.04692" lon="1.93036">
        <ele>7.8</ele>
        <time>2022-04-17T12:50:57Z</time>
      </trkpt>
      <trkpt lat="50.04693" lon="1.93034">
        <ele>7.8</ele>
        <time>2022-04-17T12:50:58Z</time>
      </trkpt>
      <trkpt lat="50.04693" lon="1.93032">
        <ele>7.8</ele>
        <time>2022-04-17T12:51:00Z</time>
      </trkpt>
      <trkpt lat="50.04694" lon="1.9303">
        <ele>7.8</ele>
        <time>2022-04-17T12:51:01Z</time>
      </trkpt>
      <trkpt lat="50.04694" lon="1.93029">
        <ele>7.8</ele>
        <time>2022-04-17T12:51:02Z</time>
      </trkpt>
      <trkpt lat="50.04694" lon="1.93027">
        <ele>7.8</ele>
        <time>2022-04-17T12:51:03Z</time>
      </trkpt>
      <trkpt lat="50.04695" lon="1.93025">
        <ele>7.8</ele>
        <time>2022-04-17T12:51:04Z</time>
      </trkpt>
      <trkpt lat="50.04696" lon="1.93023">
        <ele>7.8</ele>
        <time>2022-04-17T12:51:05Z</time>
      </trkpt>
      <trkpt lat="50.04696" lon="1.93022">
        <ele>7.8</ele>
        <time>2022-04-17T12:51:07Z</time>
      </trkpt>
      <trkpt lat="50.04696" lon="1.9302">
        <ele>7.8</ele>
        <time>2022-04-17T12:51:08Z</time>
      </trkpt>
      <trkpt lat="50.04696" lon="1.93018">
        <ele>7.8</ele>
        <time>2022-04-17T12:51:09Z</time>
      </trkpt>
      <trkpt lat="50.04697" lon="1.93016">
        <ele>7.8</ele>
        <time>2022-04-17T12:51:10Z</time>
      </trkpt>
      <trkpt lat="50.04698" lon="1.93014">
        <ele>7.8</ele>
        <time>2022-04-17T12:51:11Z</time>
      </trkpt>
      <trkpt lat="50.04698" lon="1.93011">
        <ele>7.8</ele>
        <time>2022-04-17T12:51:12Z</time>
      </trkpt>
      <trkpt lat="50.04699" lon="1.9301">
        <ele>7.8</ele>
        <time>2022-04-17T12:51:13Z</time>
      </trkpt>
      <trkpt lat="50.04699" lon="1.93008">
        <ele>7.8</ele>
        <time>2022-04-17T12:51:15Z</time>
      </trkpt>
      <trkpt lat="50.04699" lon="1.93006">
        <ele>7.8</ele>
        <time>2022-04-17T12:51:16Z</time>
      </trkpt>
      <trkpt lat="50.047" lon="1.93005">
        <ele>7.8</ele>
        <time>2022-04-17T12:51:17Z</time>
      </trkpt>
      <trkpt lat="50.047" lon="1.93003">
        <ele>7.8</ele>
        <time>2022-04-17T12:51:18Z</time>
      </trkpt>
      <trkpt lat="50.04701" lon="1.93001">
        <ele>7.8</ele>
        <time>2022-04-17T12:51:20Z</time>
      </trkpt>
      <trkpt lat="50.04701" lon="1.92999">
        <ele>7.8</ele>
        <time>2022-04-17T12:51:21Z</time>
      </trkpt>
      <trkpt lat="50.04702" lon="1.92995">
        <ele>7.8</ele>
        <time>2022-04-17T12:51:22Z</time>
      </trkpt>
      <trkpt lat="50.04702" lon="1.92994">
        <ele>7.8</ele>
        <time>2022-04-17T12:51:23Z</time>
      </trkpt>
      <trkpt lat="50.04702" lon="1.92993">
        <ele>7.8</ele>
        <time>2022-04-17T12:51:24Z</time>
      </trkpt>
      <trkpt lat="50.04703" lon="1.9299">
        <ele>7.8</ele>
        <time>2022-04-17T12:51:25Z</time>
      </trkpt>
      <trkpt lat="50.04704" lon="1.92988">
        <ele>7.8</ele>
        <time>2022-04-17T12:51:26Z</time>
      </trkpt>
      <trkpt lat="50.04704" lon="1.92987">
        <ele>7.8</ele>
        <time>2022-04-17T12:51:28Z</time>
      </trkpt>
      <trkpt lat="50.04704" lon="1.92985">
        <ele>7.8</ele>
        <time>2022-04-17T12:51:29Z</time>
      </trkpt>
      <trkpt lat="50.04705" lon="1.92984">
        <ele>7.8</ele>
        <time>2022-04-17T12:51:30Z</time>
      </trkpt>
      <trkpt lat="50.04705" lon="1.92983">
        <ele>7.8</ele>
        <time>2022-04-17T12:51:31Z</time>
      </trkpt>
      <trkpt lat="50.04705" lon="1.92981">
        <ele>7.8</ele>
        <time>2022-04-17T12:51:32Z</time>
      </trkpt>
      <trkpt lat="50.04705" lon="1.9298">
        <ele>7.8</ele>
        <time>2022-04-17T12:51:33Z</time>
      </trkpt>
      <trkpt lat="50.04705" lon="1.92978">
        <ele>7.8</ele>
        <time>2022-04-17T12:51:34Z</time>
      </trkpt>
      <trkpt lat="50.04705" lon="1.92974">
        <ele>7.8</ele>
        <time>2022-04-17T12:51:36Z</time>
      </trkpt>
      <trkpt lat="50.04706" lon="1.92973">
        <ele>7.8</ele>
        <time>2022-04-17T12:51:37Z</time>
      </trkpt>
      <trkpt lat="50.04706" lon="1.92972">
        <ele>7.8</ele>
        <time>2022-04-17T12:51:38Z</time>
      </trkpt>
      <trkpt lat="50.04706" lon="1.9297">
        <ele>7.7</ele>
        <time>2022-04-17T12:51:39Z</time>
      </trkpt>
      <trkpt lat="50.04706" lon="1.92969">
        <ele>7.7</ele>
        <time>2022-04-17T12:51:40Z</time>
      </trkpt>
      <trkpt lat="50.04706" lon="1.92967">
        <ele>7.7</ele>
        <time>2022-04-17T12:51:41Z</time>
      </trkpt>
      <trkpt lat="50.04706" lon="1.92966">
        <ele>7.7</ele>
        <time>2022-04-17T12:51:42Z</time>
      </trkpt>
      <trkpt lat="50.04706" lon="1.92964">
        <ele>7.7</ele>
        <time>2022-04-17T12:51:43Z</time>
      </trkpt>
      <trkpt lat="50.04706" lon="1.92962">
        <ele>7.7</ele>
        <time>2022-04-17T12:51:44Z</time>
      </trkpt>
      <trkpt lat="50.04706" lon="1.9296">
        <ele>7.7</ele>
        <time>2022-04-17T12:51:46Z</time>
      </trkpt>
      <trkpt lat="50.04706" lon="1.92958">
        <ele>7.7</ele>
        <time>2022-04-17T12:51:47Z</time>
      </trkpt>
      <trkpt lat="50.04706" lon="1.92956">
        <ele>7.7</ele>
        <time>2022-04-17T12:51:48Z</time>
      </trkpt>
      <trkpt lat="50.04706" lon="1.92955">
        <ele>7.7</ele>
        <time>2022-04-17T12:51:49Z</time>
      </trkpt>
      <trkpt lat="50.04706" lon="1.92953">
        <ele>7.7</ele>
        <time>2022-04-17T12:51:50Z</time>
      </trkpt>
      <trkpt lat="50.04707" lon="1.92951">
        <ele>7.8</ele>
        <time>2022-04-17T12:51:51Z</time>
      </trkpt>
      <trkpt lat="50.04707" lon="1.92949">
        <ele>7.8</ele>
        <time>2022-04-17T12:51:52Z</time>
      </trkpt>
      <trkpt lat="50.04707" lon="1.92948">
        <ele>7.8</ele>
        <time>2022-04-17T12:51:53Z</time>
      </trkpt>
      <trkpt lat="50.04708" lon="1.92946">
        <ele>7.8</ele>
        <time>2022-04-17T12:51:54Z</time>
      </trkpt>
      <trkpt lat="50.04708" lon="1.92943">
        <ele>7.8</ele>
        <time>2022-04-17T12:51:56Z</time>
      </trkpt>
      <trkpt lat="50.04709" lon="1.92941">
        <ele>7.8</ele>
        <time>2022-04-17T12:51:57Z</time>
      </trkpt>
      <trkpt lat="50.04709" lon="1.9294">
        <ele>7.8</ele>
        <time>2022-04-17T12:51:58Z</time>
      </trkpt>
      <trkpt lat="50.0471" lon="1.92938">
        <ele>7.8</ele>
        <time>2022-04-17T12:52:00Z</time>
      </trkpt>
      <trkpt lat="50.0471" lon="1.92936">
        <ele>7.8</ele>
        <time>2022-04-17T12:52:01Z</time>
      </trkpt>
      <trkpt lat="50.04711" lon="1.92934">
        <ele>7.8</ele>
        <time>2022-04-17T12:52:02Z</time>
      </trkpt>
      <trkpt lat="50.04711" lon="1.92933">
        <ele>7.8</ele>
        <time>2022-04-17T12:52:03Z</time>
      </trkpt>
      <trkpt lat="50.04712" lon="1.92932">
        <ele>7.8</ele>
        <time>2022-04-17T12:52:05Z</time>
      </trkpt>
      <trkpt lat="50.04713" lon="1.92929">
        <ele>7.8</ele>
        <time>2022-04-17T12:52:06Z</time>
      </trkpt>
      <trkpt lat="50.04713" lon="1.92928">
        <ele>7.8</ele>
        <time>2022-04-17T12:52:07Z</time>
      </trkpt>
      <trkpt lat="50.04714" lon="1.92926">
        <ele>7.8</ele>
        <time>2022-04-17T12:52:08Z</time>
      </trkpt>
      <trkpt lat="50.04714" lon="1.92925">
        <ele>7.8</ele>
        <time>2022-04-17T12:52:09Z</time>
      </trkpt>
      <trkpt lat="50.04715" lon="1.92924">
        <ele>7.8</ele>
        <time>2022-04-17T12:52:10Z</time>
      </trkpt>
      <trkpt lat="50.04716" lon="1.92921">
        <ele>7.8</ele>
        <time>2022-04-17T12:52:11Z</time>
      </trkpt>
      <trkpt lat="50.04716" lon="1.9292">
        <ele>7.8</ele>
        <time>2022-04-17T12:52:12Z</time>
      </trkpt>
      <trkpt lat="50.04717" lon="1.92919">
        <ele>7.8</ele>
        <time>2022-04-17T12:52:14Z</time>
      </trkpt>
      <trkpt lat="50.04718" lon="1.92917">
        <ele>7.8</ele>
        <time>2022-04-17T12:52:15Z</time>
      </trkpt>
      <trkpt lat="50.04719" lon="1.92915">
        <ele>7.8</ele>
        <time>2022-04-17T12:52:16Z</time>
      </trkpt>
      <trkpt lat="50.0472" lon="1.92913">
        <ele>7.8</ele>
        <time>2022-04-17T12:52:17Z</time>
      </trkpt>
      <trkpt lat="50.04721" lon="1.92913">
        <ele>7.8</ele>
        <time>2022-04-17T12:52:18Z</time>
      </trkpt>
      <trkpt lat="50.04721" lon="1.92912">
        <ele>7.8</ele>
        <time>2022-04-17T12:52:19Z</time>
      </trkpt>
      <trkpt lat="50.04722" lon="1.92911">
        <ele>7.8</ele>
        <time>2022-04-17T12:52:20Z</time>
      </trkpt>
      <trkpt lat="50.04723" lon="1.92908">
        <ele>7.8</ele>
        <time>2022-04-17T12:52:21Z</time>
      </trkpt>
      <trkpt lat="50.04724" lon="1.92908">
        <ele>7.8</ele>
        <time>2022-04-17T12:52:23Z</time>
      </trkpt>
      <trkpt lat="50.04724" lon="1.92907">
        <ele>7.8</ele>
        <time>2022-04-17T12:52:24Z</time>
      </trkpt>
      <trkpt lat="50.04725" lon="1.92905">
        <ele>7.8</ele>
        <time>2022-04-17T12:52:25Z</time>
      </trkpt>
      <trkpt lat="50.04725" lon="1.92903">
        <ele>7.8</ele>
        <time>2022-04-17T12:52:26Z</time>
      </trkpt>
      <trkpt lat="50.04726" lon="1.92902">
        <ele>7.8</ele>
        <time>2022-04-17T12:52:28Z</time>
      </trkpt>
      <trkpt lat="50.04727" lon="1.929">
        <ele>7.8</ele>
        <time>2022-04-17T12:52:29Z</time>
      </trkpt>
      <trkpt lat="50.04728" lon="1.92897">
        <ele>7.8</ele>
        <time>2022-04-17T12:52:31Z</time>
      </trkpt>
      <trkpt lat="50.04729" lon="1.92896">
        <ele>7.8</ele>
        <time>2022-04-17T12:52:32Z</time>
      </trkpt>
      <trkpt lat="50.0473" lon="1.92894">
        <ele>7.8</ele>
        <time>2022-04-17T12:52:33Z</time>
      </trkpt>
      <trkpt lat="50.0473" lon="1.92893">
        <ele>7.8</ele>
        <time>2022-04-17T12:52:34Z</time>
      </trkpt>
      <trkpt lat="50.04732" lon="1.9289">
        <ele>7.8</ele>
        <time>2022-04-17T12:52:36Z</time>
      </trkpt>
      <trkpt lat="50.04732" lon="1.92889">
        <ele>7.8</ele>
        <time>2022-04-17T12:52:37Z</time>
      </trkpt>
      <trkpt lat="50.04732" lon="1.92888">
        <ele>7.9</ele>
        <time>2022-04-17T12:52:38Z</time>
      </trkpt>
      <trkpt lat="50.04734" lon="1.92885">
        <ele>7.9</ele>
        <time>2022-04-17T12:52:39Z</time>
      </trkpt>
      <trkpt lat="50.04734" lon="1.92884">
        <ele>7.9</ele>
        <time>2022-04-17T12:52:40Z</time>
      </trkpt>
      <trkpt lat="50.04735" lon="1.92883">
        <ele>7.9</ele>
        <time>2022-04-17T12:52:41Z</time>
      </trkpt>
      <trkpt lat="50.04735" lon="1.92882">
        <ele>7.9</ele>
        <time>2022-04-17T12:52:42Z</time>
      </trkpt>
      <trkpt lat="50.04735" lon="1.9288">
        <ele>7.9</ele>
        <time>2022-04-17T12:52:44Z</time>
      </trkpt>
      <trkpt lat="50.04736" lon="1.92879">
        <ele>7.9</ele>
        <time>2022-04-17T12:52:45Z</time>
      </trkpt>
      <trkpt lat="50.04736" lon="1.92876">
        <ele>7.9</ele>
        <time>2022-04-17T12:52:46Z</time>
      </trkpt>
      <trkpt lat="50.04737" lon="1.92875">
        <ele>7.9</ele>
        <time>2022-04-17T12:52:47Z</time>
      </trkpt>
      <trkpt lat="50.04737" lon="1.92874">
        <ele>7.9</ele>
        <time>2022-04-17T12:52:48Z</time>
      </trkpt>
      <trkpt lat="50.04738" lon="1.92872">
        <ele>7.9</ele>
        <time>2022-04-17T12:52:49Z</time>
      </trkpt>
      <trkpt lat="50.04739" lon="1.92871">
        <ele>7.9</ele>
        <time>2022-04-17T12:52:50Z</time>
      </trkpt>
      <trkpt lat="50.04739" lon="1.92869">
        <ele>7.9</ele>
        <time>2022-04-17T12:52:51Z</time>
      </trkpt>
      <trkpt lat="50.0474" lon="1.92867">
        <ele>7.9</ele>
        <time>2022-04-17T12:52:52Z</time>
      </trkpt>
      <trkpt lat="50.04741" lon="1.92865">
        <ele>7.9</ele>
        <time>2022-04-17T12:52:54Z</time>
      </trkpt>
      <trkpt lat="50.04741" lon="1.92864">
        <ele>7.9</ele>
        <time>2022-04-17T12:52:55Z</time>
      </trkpt>
      <trkpt lat="50.04742" lon="1.92863">
        <ele>7.9</ele>
        <time>2022-04-17T12:52:56Z</time>
      </trkpt>
      <trkpt lat="50.04742" lon="1.92862">
        <ele>7.9</ele>
        <time>2022-04-17T12:52:57Z</time>
      </trkpt>
      <trkpt lat="50.04743" lon="1.9286">
        <ele>7.9</ele>
        <time>2022-04-17T12:52:58Z</time>
      </trkpt>
      <trkpt lat="50.04744" lon="1.92858">
        <ele>7.9</ele>
        <time>2022-04-17T12:52:59Z</time>
      </trkpt>
      <trkpt lat="50.04744" lon="1.92857">
        <ele>7.9</ele>
        <time>2022-04-17T12:53:00Z</time>
      </trkpt>
      <trkpt lat="50.04744" lon="1.92856">
        <ele>7.9</ele>
        <time>2022-04-17T12:53:01Z</time>
      </trkpt>
      <trkpt lat="50.04745" lon="1.92855">
        <ele>7.9</ele>
        <time>2022-04-17T12:53:02Z</time>
      </trkpt>
      <trkpt lat="50.04745" lon="1.92854">
        <ele>7.9</ele>
        <time>2022-04-17T12:53:03Z</time>
      </trkpt>
      <trkpt lat="50.04745" lon="1.92852">
        <ele>7.9</ele>
        <time>2022-04-17T12:53:04Z</time>
      </trkpt>
      <trkpt lat="50.04745" lon="1.92851">
        <ele>7.9</ele>
        <time>2022-04-17T12:53:06Z</time>
      </trkpt>
      <trkpt lat="50.04746" lon="1.92849">
        <ele>7.9</ele>
        <time>2022-04-17T12:53:07Z</time>
      </trkpt>
      <trkpt lat="50.04746" lon="1.92847">
        <ele>7.9</ele>
        <time>2022-04-17T12:53:08Z</time>
      </trkpt>
      <trkpt lat="50.04746" lon="1.92846">
        <ele>7.9</ele>
        <time>2022-04-17T12:53:09Z</time>
      </trkpt>
      <trkpt lat="50.04746" lon="1.92843">
        <ele>7.9</ele>
        <time>2022-04-17T12:53:10Z</time>
      </trkpt>
      <trkpt lat="50.04746" lon="1.92842">
        <ele>7.9</ele>
        <time>2022-04-17T12:53:11Z</time>
      </trkpt>
      <trkpt lat="50.04746" lon="1.92838">
        <ele>7.9</ele>
        <time>2022-04-17T12:53:12Z</time>
      </trkpt>
      <trkpt lat="50.04746" lon="1.92837">
        <ele>7.9</ele>
        <time>2022-04-17T12:53:13Z</time>
      </trkpt>
      <trkpt lat="50.04746" lon="1.92835">
        <ele>7.9</ele>
        <time>2022-04-17T12:53:14Z</time>
      </trkpt>
      <trkpt lat="50.04746" lon="1.92833">
        <ele>7.9</ele>
        <time>2022-04-17T12:53:16Z</time>
      </trkpt>
      <trkpt lat="50.04746" lon="1.92831">
        <ele>7.9</ele>
        <time>2022-04-17T12:53:17Z</time>
      </trkpt>
      <trkpt lat="50.04746" lon="1.92829">
        <ele>7.9</ele>
        <time>2022-04-17T12:53:19Z</time>
      </trkpt>
      <trkpt lat="50.04746" lon="1.92826">
        <ele>7.9</ele>
        <time>2022-04-17T12:53:20Z</time>
      </trkpt>
      <trkpt lat="50.04747" lon="1.92824">
        <ele>7.9</ele>
        <time>2022-04-17T12:53:21Z</time>
      </trkpt>
      <trkpt lat="50.04746" lon="1.92821">
        <ele>7.9</ele>
        <time>2022-04-17T12:53:22Z</time>
      </trkpt>
      <trkpt lat="50.04746" lon="1.92819">
        <ele>7.9</ele>
        <time>2022-04-17T12:53:23Z</time>
      </trkpt>
      <trkpt lat="50.04746" lon="1.92818">
        <ele>7.9</ele>
        <time>2022-04-17T12:53:24Z</time>
      </trkpt>
      <trkpt lat="50.04746" lon="1.92816">
        <ele>7.9</ele>
        <time>2022-04-17T12:53:25Z</time>
      </trkpt>
      <trkpt lat="50.04746" lon="1.92814">
        <ele>7.9</ele>
        <time>2022-04-17T12:53:27Z</time>
      </trkpt>
      <trkpt lat="50.04746" lon="1.92812">
        <ele>7.9</ele>
        <time>2022-04-17T12:53:28Z</time>
      </trkpt>
      <trkpt lat="50.04746" lon="1.9281">
        <ele>7.9</ele>
        <time>2022-04-17T12:53:29Z</time>
      </trkpt>
      <trkpt lat="50.04746" lon="1.92808">
        <ele>7.9</ele>
        <time>2022-04-17T12:53:30Z</time>
      </trkpt>
      <trkpt lat="50.04746" lon="1.92806">
        <ele>7.9</ele>
        <time>2022-04-17T12:53:31Z</time>
      </trkpt>
      <trkpt lat="50.04746" lon="1.92804">
        <ele>7.9</ele>
        <time>2022-04-17T12:53:32Z</time>
      </trkpt>
      <trkpt lat="50.04746" lon="1.92802">
        <ele>7.9</ele>
        <time>2022-04-17T12:53:33Z</time>
      </trkpt>
      <trkpt lat="50.04746" lon="1.928">
        <ele>7.9</ele>
        <time>2022-04-17T12:53:34Z</time>
      </trkpt>
      <trkpt lat="50.04746" lon="1.92797">
        <ele>7.9</ele>
        <time>2022-04-17T12:53:36Z</time>
      </trkpt>
      <trkpt lat="50.04746" lon="1.92795">
        <ele>7.9</ele>
        <time>2022-04-17T12:53:37Z</time>
      </trkpt>
      <trkpt lat="50.04745" lon="1.92793">
        <ele>7.9</ele>
        <time>2022-04-17T12:53:38Z</time>
      </trkpt>
      <trkpt lat="50.04745" lon="1.92789">
        <ele>7.9</ele>
        <time>2022-04-17T12:53:39Z</time>
      </trkpt>
      <trkpt lat="50.04745" lon="1.92787">
        <ele>7.9</ele>
        <time>2022-04-17T12:53:41Z</time>
      </trkpt>
      <trkpt lat="50.04744" lon="1.92786">
        <ele>7.9</ele>
        <time>2022-04-17T12:53:42Z</time>
      </trkpt>
      <trkpt lat="50.04744" lon="1.92784">
        <ele>7.9</ele>
        <time>2022-04-17T12:53:43Z</time>
      </trkpt>
      <trkpt lat="50.04744" lon="1.92783">
        <ele>7.9</ele>
        <time>2022-04-17T12:53:44Z</time>
      </trkpt>
      <trkpt lat="50.04743" lon="1.92781">
        <ele>7.9</ele>
        <time>2022-04-17T12:53:45Z</time>
      </trkpt>
      <trkpt lat="50.04743" lon="1.92779">
        <ele>7.9</ele>
        <time>2022-04-17T12:53:46Z</time>
      </trkpt>
      <trkpt lat="50.04743" lon="1.92777">
        <ele>7.9</ele>
        <time>2022-04-17T12:53:47Z</time>
      </trkpt>
      <trkpt lat="50.04742" lon="1.92775">
        <ele>7.9</ele>
        <time>2022-04-17T12:53:48Z</time>
      </trkpt>
      <trkpt lat="50.04742" lon="1.92772">
        <ele>7.9</ele>
        <time>2022-04-17T12:53:50Z</time>
      </trkpt>
      <trkpt lat="50.04742" lon="1.9277">
        <ele>7.8</ele>
        <time>2022-04-17T12:53:51Z</time>
      </trkpt>
      <trkpt lat="50.04742" lon="1.92768">
        <ele>7.8</ele>
        <time>2022-04-17T12:53:52Z</time>
      </trkpt>
      <trkpt lat="50.04741" lon="1.92766">
        <ele>7.8</ele>
        <time>2022-04-17T12:53:53Z</time>
      </trkpt>
      <trkpt lat="50.04741" lon="1.92763">
        <ele>7.8</ele>
        <time>2022-04-17T12:53:55Z</time>
      </trkpt>
      <trkpt lat="50.04741" lon="1.92761">
        <ele>7.8</ele>
        <time>2022-04-17T12:53:56Z</time>
      </trkpt>
      <trkpt lat="50.04742" lon="1.92759">
        <ele>7.8</ele>
        <time>2022-04-17T12:53:57Z</time>
      </trkpt>
      <trkpt lat="50.04742" lon="1.92757">
        <ele>7.8</ele>
        <time>2022-04-17T12:53:58Z</time>
      </trkpt>
      <trkpt lat="50.04742" lon="1.92755">
        <ele>7.8</ele>
        <time>2022-04-17T12:53:59Z</time>
      </trkpt>
      <trkpt lat="50.04743" lon="1.92752">
        <ele>7.8</ele>
        <time>2022-04-17T12:54:00Z</time>
      </trkpt>
      <trkpt lat="50.04743" lon="1.92751">
        <ele>7.8</ele>
        <time>2022-04-17T12:54:01Z</time>
      </trkpt>
      <trkpt lat="50.04744" lon="1.92749">
        <ele>7.8</ele>
        <time>2022-04-17T12:54:02Z</time>
      </trkpt>
      <trkpt lat="50.04744" lon="1.92747">
        <ele>7.8</ele>
        <time>2022-04-17T12:54:04Z</time>
      </trkpt>
      <trkpt lat="50.04745" lon="1.92745">
        <ele>7.8</ele>
        <time>2022-04-17T12:54:05Z</time>
      </trkpt>
      <trkpt lat="50.04745" lon="1.92743">
        <ele>7.8</ele>
        <time>2022-04-17T12:54:06Z</time>
      </trkpt>
      <trkpt lat="50.04745" lon="1.92742">
        <ele>7.8</ele>
        <time>2022-04-17T12:54:07Z</time>
      </trkpt>
      <trkpt lat="50.04746" lon="1.92739">
        <ele>7.8</ele>
        <time>2022-04-17T12:54:08Z</time>
      </trkpt>
      <trkpt lat="50.04747" lon="1.92738">
        <ele>7.8</ele>
        <time>2022-04-17T12:54:09Z</time>
      </trkpt>
      <trkpt lat="50.04747" lon="1.92737">
        <ele>7.8</ele>
        <time>2022-04-17T12:54:10Z</time>
      </trkpt>
      <trkpt lat="50.04748" lon="1.92736">
        <ele>7.8</ele>
        <time>2022-04-17T12:54:11Z</time>
      </trkpt>
      <trkpt lat="50.04748" lon="1.92734">
        <ele>7.8</ele>
        <time>2022-04-17T12:54:13Z</time>
      </trkpt>
      <trkpt lat="50.04749" lon="1.92733">
        <ele>7.8</ele>
        <time>2022-04-17T12:54:14Z</time>
      </trkpt>
      <trkpt lat="50.04749" lon="1.92731">
        <ele>7.8</ele>
        <time>2022-04-17T12:54:15Z</time>
      </trkpt>
      <trkpt lat="50.0475" lon="1.92729">
        <ele>7.8</ele>
        <time>2022-04-17T12:54:16Z</time>
      </trkpt>
      <trkpt lat="50.0475" lon="1.92728">
        <ele>7.8</ele>
        <time>2022-04-17T12:54:17Z</time>
      </trkpt>
      <trkpt lat="50.04751" lon="1.92727">
        <ele>7.8</ele>
        <time>2022-04-17T12:54:18Z</time>
      </trkpt>
      <trkpt lat="50.04751" lon="1.92725">
        <ele>7.8</ele>
        <time>2022-04-17T12:54:19Z</time>
      </trkpt>
      <trkpt lat="50.04752" lon="1.92724">
        <ele>7.8</ele>
        <time>2022-04-17T12:54:20Z</time>
      </trkpt>
      <trkpt lat="50.04752" lon="1.92723">
        <ele>7.8</ele>
        <time>2022-04-17T12:54:22Z</time>
      </trkpt>
      <trkpt lat="50.04753" lon="1.92721">
        <ele>7.8</ele>
        <time>2022-04-17T12:54:23Z</time>
      </trkpt>
      <trkpt lat="50.04754" lon="1.9272">
        <ele>7.9</ele>
        <time>2022-04-17T12:54:24Z</time>
      </trkpt>
      <trkpt lat="50.04755" lon="1.92717">
        <ele>7.9</ele>
        <time>2022-04-17T12:54:25Z</time>
      </trkpt>
      <trkpt lat="50.04756" lon="1.92716">
        <ele>7.9</ele>
        <time>2022-04-17T12:54:26Z</time>
      </trkpt>
      <trkpt lat="50.04757" lon="1.92715">
        <ele>7.9</ele>
        <time>2022-04-17T12:54:27Z</time>
      </trkpt>
      <trkpt lat="50.04758" lon="1.92713">
        <ele>7.9</ele>
        <time>2022-04-17T12:54:29Z</time>
      </trkpt>
      <trkpt lat="50.04758" lon="1.92711">
        <ele>7.9</ele>
        <time>2022-04-17T12:54:30Z</time>
      </trkpt>
      <trkpt lat="50.04759" lon="1.9271">
        <ele>7.9</ele>
        <time>2022-04-17T12:54:31Z</time>
      </trkpt>
      <trkpt lat="50.0476" lon="1.92708">
        <ele>7.9</ele>
        <time>2022-04-17T12:54:32Z</time>
      </trkpt>
      <trkpt lat="50.04761" lon="1.92707">
        <ele>7.9</ele>
        <time>2022-04-17T12:54:33Z</time>
      </trkpt>
      <trkpt lat="50.04762" lon="1.92706">
        <ele>7.9</ele>
        <time>2022-04-17T12:54:34Z</time>
      </trkpt>
      <trkpt lat="50.04763" lon="1.92705">
        <ele>7.9</ele>
        <time>2022-04-17T12:54:35Z</time>
      </trkpt>
      <trkpt lat="50.04763" lon="1.92704">
        <ele>7.9</ele>
        <time>2022-04-17T12:54:36Z</time>
      </trkpt>
      <trkpt lat="50.04765" lon="1.92702">
        <ele>7.9</ele>
        <time>2022-04-17T12:54:37Z</time>
      </trkpt>
      <trkpt lat="50.04766" lon="1.927">
        <ele>7.9</ele>
        <time>2022-04-17T12:54:38Z</time>
      </trkpt>
      <trkpt lat="50.04767" lon="1.92698">
        <ele>7.9</ele>
        <time>2022-04-17T12:54:40Z</time>
      </trkpt>
      <trkpt lat="50.04768" lon="1.92697">
        <ele>7.9</ele>
        <time>2022-04-17T12:54:41Z</time>
      </trkpt>
      <trkpt lat="50.04769" lon="1.92696">
        <ele>7.9</ele>
        <time>2022-04-17T12:54:42Z</time>
      </trkpt>
      <trkpt lat="50.0477" lon="1.92696">
        <ele>7.9</ele>
        <time>2022-04-17T12:54:43Z</time>
      </trkpt>
      <trkpt lat="50.04771" lon="1.92695">
        <ele>7.9</ele>
        <time>2022-04-17T12:54:45Z</time>
      </trkpt>
      <trkpt lat="50.04772" lon="1.92693">
        <ele>7.9</ele>
        <time>2022-04-17T12:54:46Z</time>
      </trkpt>
      <trkpt lat="50.04773" lon="1.9269">
        <ele>7.9</ele>
        <time>2022-04-17T12:54:48Z</time>
      </trkpt>
      <trkpt lat="50.04775" lon="1.92688">
        <ele>7.9</ele>
        <time>2022-04-17T12:54:49Z</time>
      </trkpt>
      <trkpt lat="50.04775" lon="1.92687">
        <ele>7.9</ele>
        <time>2022-04-17T12:54:50Z</time>
      </trkpt>
      <trkpt lat="50.04776" lon="1.92686">
        <ele>7.9</ele>
        <time>2022-04-17T12:54:51Z</time>
      </trkpt>
      <trkpt lat="50.04777" lon="1.92683">
        <ele>7.9</ele>
        <time>2022-04-17T12:54:52Z</time>
      </trkpt>
      <trkpt lat="50.04778" lon="1.92682">
        <ele>7.9</ele>
        <time>2022-04-17T12:54:53Z</time>
      </trkpt>
      <trkpt lat="50.04779" lon="1.9268">
        <ele>7.9</ele>
        <time>2022-04-17T12:54:55Z</time>
      </trkpt>
      <trkpt lat="50.0478" lon="1.92678">
        <ele>7.9</ele>
        <time>2022-04-17T12:54:56Z</time>
      </trkpt>
      <trkpt lat="50.04781" lon="1.92676">
        <ele>7.9</ele>
        <time>2022-04-17T12:54:57Z</time>
      </trkpt>
      <trkpt lat="50.04782" lon="1.92674">
        <ele>7.9</ele>
        <time>2022-04-17T12:54:58Z</time>
      </trkpt>
      <trkpt lat="50.04783" lon="1.92673">
        <ele>7.9</ele>
        <time>2022-04-17T12:54:59Z</time>
      </trkpt>
      <trkpt lat="50.04784" lon="1.92671">
        <ele>7.9</ele>
        <time>2022-04-17T12:55:01Z</time>
      </trkpt>
      <trkpt lat="50.04786" lon="1.92668">
        <ele>7.9</ele>
        <time>2022-04-17T12:55:02Z</time>
      </trkpt>
      <trkpt lat="50.04786" lon="1.92667">
        <ele>7.9</ele>
        <time>2022-04-17T12:55:03Z</time>
      </trkpt>
      <trkpt lat="50.04787" lon="1.92666">
        <ele>7.9</ele>
        <time>2022-04-17T12:55:04Z</time>
      </trkpt>
      <trkpt lat="50.04788" lon="1.92665">
        <ele>7.9</ele>
        <time>2022-04-17T12:55:05Z</time>
      </trkpt>
      <trkpt lat="50.04788" lon="1.92664">
        <ele>7.9</ele>
        <time>2022-04-17T12:55:06Z</time>
      </trkpt>
      <trkpt lat="50.0479" lon="1.92661">
        <ele>7.9</ele>
        <time>2022-04-17T12:55:08Z</time>
      </trkpt>
      <trkpt lat="50.04791" lon="1.9266">
        <ele>7.9</ele>
        <time>2022-04-17T12:55:09Z</time>
      </trkpt>
      <trkpt lat="50.04791" lon="1.92659">
        <ele>7.9</ele>
        <time>2022-04-17T12:55:10Z</time>
      </trkpt>
      <trkpt lat="50.04792" lon="1.92658">
        <ele>7.9</ele>
        <time>2022-04-17T12:55:11Z</time>
      </trkpt>
      <trkpt lat="50.04793" lon="1.92656">
        <ele>7.9</ele>
        <time>2022-04-17T12:55:12Z</time>
      </trkpt>
      <trkpt lat="50.04794" lon="1.92654">
        <ele>7.9</ele>
        <time>2022-04-17T12:55:13Z</time>
      </trkpt>
      <trkpt lat="50.04795" lon="1.92653">
        <ele>7.9</ele>
        <time>2022-04-17T12:55:14Z</time>
      </trkpt>
      <trkpt lat="50.04795" lon="1.92652">
        <ele>7.9</ele>
        <time>2022-04-17T12:55:16Z</time>
      </trkpt>
      <trkpt lat="50.04795" lon="1.92651">
        <ele>7.9</ele>
        <time>2022-04-17T12:55:17Z</time>
      </trkpt>
      <trkpt lat="50.04797" lon="1.92649">
        <ele>7.9</ele>
        <time>2022-04-17T12:55:18Z</time>
      </trkpt>
      <trkpt lat="50.04797" lon="1.92648">
        <ele>7.9</ele>
        <time>2022-04-17T12:55:19Z</time>
      </trkpt>
      <trkpt lat="50.04799" lon="1.92646">
        <ele>7.9</ele>
        <time>2022-04-17T12:55:20Z</time>
      </trkpt>
      <trkpt lat="50.048" lon="1.92645">
        <ele>7.9</ele>
        <time>2022-04-17T12:55:21Z</time>
      </trkpt>
      <trkpt lat="50.048" lon="1.92644">
        <ele>7.9</ele>
        <time>2022-04-17T12:55:22Z</time>
      </trkpt>
      <trkpt lat="50.04801" lon="1.92643">
        <ele>7.9</ele>
        <time>2022-04-17T12:55:23Z</time>
      </trkpt>
      <trkpt lat="50.04802" lon="1.92642">
        <ele>7.9</ele>
        <time>2022-04-17T12:55:25Z</time>
      </trkpt>
      <trkpt lat="50.04802" lon="1.92641">
        <ele>7.9</ele>
        <time>2022-04-17T12:55:26Z</time>
      </trkpt>
      <trkpt lat="50.04803" lon="1.92639">
        <ele>7.9</ele>
        <time>2022-04-17T12:55:27Z</time>
      </trkpt>
      <trkpt lat="50.04804" lon="1.92638">
        <ele>7.8</ele>
        <time>2022-04-17T12:55:28Z</time>
      </trkpt>
      <trkpt lat="50.04805" lon="1.92637">
        <ele>7.8</ele>
        <time>2022-04-17T12:55:30Z</time>
      </trkpt>
      <trkpt lat="50.04805" lon="1.92635">
        <ele>7.8</ele>
        <time>2022-04-17T12:55:31Z</time>
      </trkpt>
      <trkpt lat="50.04806" lon="1.92634">
        <ele>7.8</ele>
        <time>2022-04-17T12:55:32Z</time>
      </trkpt>
      <trkpt lat="50.04807" lon="1.92632">
        <ele>7.8</ele>
        <time>2022-04-17T12:55:33Z</time>
      </trkpt>
      <trkpt lat="50.04807" lon="1.9263">
        <ele>7.8</ele>
        <time>2022-04-17T12:55:35Z</time>
      </trkpt>
      <trkpt lat="50.04808" lon="1.92629">
        <ele>7.8</ele>
        <time>2022-04-17T12:55:36Z</time>
      </trkpt>
      <trkpt lat="50.04808" lon="1.92627">
        <ele>7.8</ele>
        <time>2022-04-17T12:55:37Z</time>
      </trkpt>
      <trkpt lat="50.04809" lon="1.92625">
        <ele>7.8</ele>
        <time>2022-04-17T12:55:38Z</time>
      </trkpt>
      <trkpt lat="50.04809" lon="1.92623">
        <ele>7.9</ele>
        <time>2022-04-17T12:55:40Z</time>
      </trkpt>
      <trkpt lat="50.04809" lon="1.92621">
        <ele>7.9</ele>
        <time>2022-04-17T12:55:41Z</time>
      </trkpt>
      <trkpt lat="50.0481" lon="1.9262">
        <ele>7.9</ele>
        <time>2022-04-17T12:55:42Z</time>
      </trkpt>
      <trkpt lat="50.0481" lon="1.92619">
        <ele>7.9</ele>
        <time>2022-04-17T12:55:43Z</time>
      </trkpt>
      <trkpt lat="50.04811" lon="1.92617">
        <ele>7.9</ele>
        <time>2022-04-17T12:55:44Z</time>
      </trkpt>
      <trkpt lat="50.04811" lon="1.92616">
        <ele>7.9</ele>
        <time>2022-04-17T12:55:45Z</time>
      </trkpt>
      <trkpt lat="50.04812" lon="1.92615">
        <ele>7.9</ele>
        <time>2022-04-17T12:55:46Z</time>
      </trkpt>
      <trkpt lat="50.04812" lon="1.92613">
        <ele>7.9</ele>
        <time>2022-04-17T12:55:48Z</time>
      </trkpt>
      <trkpt lat="50.04813" lon="1.92612">
        <ele>7.9</ele>
        <time>2022-04-17T12:55:49Z</time>
      </trkpt>
      <trkpt lat="50.04814" lon="1.9261">
        <ele>7.9</ele>
        <time>2022-04-17T12:55:50Z</time>
      </trkpt>
      <trkpt lat="50.04814" lon="1.92609">
        <ele>7.9</ele>
        <time>2022-04-17T12:55:51Z</time>
      </trkpt>
      <trkpt lat="50.04814" lon="1.92607">
        <ele>7.9</ele>
        <time>2022-04-17T12:55:52Z</time>
      </trkpt>
      <trkpt lat="50.04815" lon="1.92606">
        <ele>7.9</ele>
        <time>2022-04-17T12:55:53Z</time>
      </trkpt>
      <trkpt lat="50.04815" lon="1.92604">
        <ele>7.9</ele>
        <time>2022-04-17T12:55:54Z</time>
      </trkpt>
      <trkpt lat="50.04815" lon="1.92603">
        <ele>7.9</ele>
        <time>2022-04-17T12:55:56Z</time>
      </trkpt>
      <trkpt lat="50.04815" lon="1.92602">
        <ele>7.9</ele>
        <time>2022-04-17T12:55:57Z</time>
      </trkpt>
      <trkpt lat="50.04815" lon="1.92601">
        <ele>7.9</ele>
        <time>2022-04-17T12:55:58Z</time>
      </trkpt>
      <trkpt lat="50.04815" lon="1.92599">
        <ele>7.9</ele>
        <time>2022-04-17T12:55:59Z</time>
      </trkpt>
      <trkpt lat="50.04816" lon="1.92597">
        <ele>7.9</ele>
        <time>2022-04-17T12:56:00Z</time>
      </trkpt>
      <trkpt lat="50.04816" lon="1.92596">
        <ele>7.9</ele>
        <time>2022-04-17T12:56:01Z</time>
      </trkpt>
      <trkpt lat="50.04816" lon="1.92595">
        <ele>7.9</ele>
        <time>2022-04-17T12:56:02Z</time>
      </trkpt>
      <trkpt lat="50.04817" lon="1.92593">
        <ele>7.9</ele>
        <time>2022-04-17T12:56:03Z</time>
      </trkpt>
      <trkpt lat="50.04817" lon="1.92592">
        <ele>7.9</ele>
        <time>2022-04-17T12:56:05Z</time>
      </trkpt>
      <trkpt lat="50.04817" lon="1.92591">
        <ele>7.9</ele>
        <time>2022-04-17T12:56:06Z</time>
      </trkpt>
      <trkpt lat="50.04817" lon="1.9259">
        <ele>7.9</ele>
        <time>2022-04-17T12:56:07Z</time>
      </trkpt>
      <trkpt lat="50.04817" lon="1.92588">
        <ele>7.9</ele>
        <time>2022-04-17T12:56:08Z</time>
      </trkpt>
      <trkpt lat="50.04818" lon="1.92587">
        <ele>7.9</ele>
        <time>2022-04-17T12:56:09Z</time>
      </trkpt>
      <trkpt lat="50.04818" lon="1.92585">
        <ele>7.9</ele>
        <time>2022-04-17T12:56:10Z</time>
      </trkpt>
      <trkpt lat="50.04819" lon="1.92584">
        <ele>7.9</ele>
        <time>2022-04-17T12:56:11Z</time>
      </trkpt>
      <trkpt lat="50.04819" lon="1.92583">
        <ele>7.9</ele>
        <time>2022-04-17T12:56:12Z</time>
      </trkpt>
      <trkpt lat="50.0482" lon="1.92582">
        <ele>7.9</ele>
        <time>2022-04-17T12:56:13Z</time>
      </trkpt>
      <trkpt lat="50.04821" lon="1.92579">
        <ele>7.9</ele>
        <time>2022-04-17T12:56:15Z</time>
      </trkpt>
      <trkpt lat="50.04822" lon="1.92578">
        <ele>7.9</ele>
        <time>2022-04-17T12:56:16Z</time>
      </trkpt>
      <trkpt lat="50.04822" lon="1.92577">
        <ele>7.9</ele>
        <time>2022-04-17T12:56:17Z</time>
      </trkpt>
      <trkpt lat="50.04823" lon="1.92575">
        <ele>7.9</ele>
        <time>2022-04-17T12:56:18Z</time>
      </trkpt>
      <trkpt lat="50.04824" lon="1.92573">
        <ele>7.9</ele>
        <time>2022-04-17T12:56:19Z</time>
      </trkpt>
      <trkpt lat="50.04825" lon="1.92572">
        <ele>7.9</ele>
        <time>2022-04-17T12:56:20Z</time>
      </trkpt>
      <trkpt lat="50.04825" lon="1.92571">
        <ele>7.9</ele>
        <time>2022-04-17T12:56:21Z</time>
      </trkpt>
      <trkpt lat="50.04826" lon="1.9257">
        <ele>7.8</ele>
        <time>2022-04-17T12:56:23Z</time>
      </trkpt>
      <trkpt lat="50.04826" lon="1.92568">
        <ele>7.8</ele>
        <time>2022-04-17T12:56:24Z</time>
      </trkpt>
      <trkpt lat="50.04827" lon="1.92566">
        <ele>7.8</ele>
        <time>2022-04-17T12:56:25Z</time>
      </trkpt>
      <trkpt lat="50.04828" lon="1.92564">
        <ele>7.8</ele>
        <time>2022-04-17T12:56:26Z</time>
      </trkpt>
      <trkpt lat="50.04829" lon="1.92562">
        <ele>7.8</ele>
        <time>2022-04-17T12:56:27Z</time>
      </trkpt>
      <trkpt lat="50.04829" lon="1.92561">
        <ele>7.8</ele>
        <time>2022-04-17T12:56:28Z</time>
      </trkpt>
      <trkpt lat="50.0483" lon="1.9256">
        <ele>7.8</ele>
        <time>2022-04-17T12:56:29Z</time>
      </trkpt>
      <trkpt lat="50.04832" lon="1.92557">
        <ele>7.8</ele>
        <time>2022-04-17T12:56:30Z</time>
      </trkpt>
      <trkpt lat="50.04833" lon="1.92556">
        <ele>7.8</ele>
        <time>2022-04-17T12:56:32Z</time>
      </trkpt>
      <trkpt lat="50.04834" lon="1.92554">
        <ele>7.8</ele>
        <time>2022-04-17T12:56:33Z</time>
      </trkpt>
      <trkpt lat="50.04835" lon="1.92553">
        <ele>7.8</ele>
        <time>2022-04-17T12:56:34Z</time>
      </trkpt>
      <trkpt lat="50.04835" lon="1.92552">
        <ele>7.8</ele>
        <time>2022-04-17T12:56:35Z</time>
      </trkpt>
      <trkpt lat="50.04836" lon="1.92551">
        <ele>7.8</ele>
        <time>2022-04-17T12:56:36Z</time>
      </trkpt>
      <trkpt lat="50.04837" lon="1.9255">
        <ele>7.8</ele>
        <time>2022-04-17T12:56:37Z</time>
      </trkpt>
      <trkpt lat="50.04838" lon="1.92549">
        <ele>7.8</ele>
        <time>2022-04-17T12:56:38Z</time>
      </trkpt>
      <trkpt lat="50.04839" lon="1.92547">
        <ele>7.8</ele>
        <time>2022-04-17T12:56:39Z</time>
      </trkpt>
      <trkpt lat="50.0484" lon="1.92546">
        <ele>7.8</ele>
        <time>2022-04-17T12:56:41Z</time>
      </trkpt>
      <trkpt lat="50.0484" lon="1.92545">
        <ele>7.8</ele>
        <time>2022-04-17T12:56:42Z</time>
      </trkpt>
      <trkpt lat="50.04842" lon="1.92542">
        <ele>7.8</ele>
        <time>2022-04-17T12:56:43Z</time>
      </trkpt>
      <trkpt lat="50.04842" lon="1.92541">
        <ele>7.8</ele>
        <time>2022-04-17T12:56:44Z</time>
      </trkpt>
      <trkpt lat="50.04843" lon="1.9254">
        <ele>7.8</ele>
        <time>2022-04-17T12:56:45Z</time>
      </trkpt>
      <trkpt lat="50.04844" lon="1.92537">
        <ele>7.8</ele>
        <time>2022-04-17T12:56:46Z</time>
      </trkpt>
      <trkpt lat="50.04844" lon="1.92536">
        <ele>7.8</ele>
        <time>2022-04-17T12:56:47Z</time>
      </trkpt>
      <trkpt lat="50.04845" lon="1.92535">
        <ele>7.8</ele>
        <time>2022-04-17T12:56:49Z</time>
      </trkpt>
      <trkpt lat="50.04845" lon="1.92533">
        <ele>7.8</ele>
        <time>2022-04-17T12:56:50Z</time>
      </trkpt>
      <trkpt lat="50.04846" lon="1.92532">
        <ele>7.8</ele>
        <time>2022-04-17T12:56:51Z</time>
      </trkpt>
      <trkpt lat="50.04847" lon="1.92531">
        <ele>7.8</ele>
        <time>2022-04-17T12:56:52Z</time>
      </trkpt>
      <trkpt lat="50.04848" lon="1.92528">
        <ele>7.8</ele>
        <time>2022-04-17T12:56:53Z</time>
      </trkpt>
      <trkpt lat="50.04848" lon="1.92527">
        <ele>7.8</ele>
        <time>2022-04-17T12:56:54Z</time>
      </trkpt>
      <trkpt lat="50.04849" lon="1.92526">
        <ele>7.8</ele>
        <time>2022-04-17T12:56:55Z</time>
      </trkpt>
      <trkpt lat="50.0485" lon="1.92524">
        <ele>7.7</ele>
        <time>2022-04-17T12:56:56Z</time>
      </trkpt>
      <trkpt lat="50.0485" lon="1.92523">
        <ele>7.7</ele>
        <time>2022-04-17T12:56:57Z</time>
      </trkpt>
      <trkpt lat="50.04851" lon="1.92522">
        <ele>7.7</ele>
        <time>2022-04-17T12:56:59Z</time>
      </trkpt>
      <trkpt lat="50.04851" lon="1.92521">
        <ele>7.7</ele>
        <time>2022-04-17T12:57:00Z</time>
      </trkpt>
      <trkpt lat="50.04852" lon="1.9252">
        <ele>7.7</ele>
        <time>2022-04-17T12:57:01Z</time>
      </trkpt>
      <trkpt lat="50.04852" lon="1.92518">
        <ele>7.7</ele>
        <time>2022-04-17T12:57:02Z</time>
      </trkpt>
      <trkpt lat="50.04853" lon="1.92516">
        <ele>7.7</ele>
        <time>2022-04-17T12:57:03Z</time>
      </trkpt>
      <trkpt lat="50.04853" lon="1.92515">
        <ele>7.7</ele>
        <time>2022-04-17T12:57:04Z</time>
      </trkpt>
      <trkpt lat="50.04854" lon="1.92513">
        <ele>7.7</ele>
        <time>2022-04-17T12:57:05Z</time>
      </trkpt>
      <trkpt lat="50.04854" lon="1.92512">
        <ele>7.7</ele>
        <time>2022-04-17T12:57:06Z</time>
      </trkpt>
      <trkpt lat="50.04856" lon="1.92509">
        <ele>7.7</ele>
        <time>2022-04-17T12:57:07Z</time>
      </trkpt>
      <trkpt lat="50.04856" lon="1.92507">
        <ele>7.7</ele>
        <time>2022-04-17T12:57:09Z</time>
      </trkpt>
      <trkpt lat="50.04857" lon="1.92506">
        <ele>7.7</ele>
        <time>2022-04-17T12:57:10Z</time>
      </trkpt>
      <trkpt lat="50.04857" lon="1.92505">
        <ele>7.7</ele>
        <time>2022-04-17T12:57:11Z</time>
      </trkpt>
      <trkpt lat="50.04858" lon="1.92503">
        <ele>7.7</ele>
        <time>2022-04-17T12:57:12Z</time>
      </trkpt>
      <trkpt lat="50.04859" lon="1.92502">
        <ele>7.6</ele>
        <time>2022-04-17T12:57:13Z</time>
      </trkpt>
      <trkpt lat="50.0486" lon="1.92499">
        <ele>7.6</ele>
        <time>2022-04-17T12:57:14Z</time>
      </trkpt>
      <trkpt lat="50.0486" lon="1.92497">
        <ele>7.6</ele>
        <time>2022-04-17T12:57:15Z</time>
      </trkpt>
      <trkpt lat="50.04861" lon="1.92496">
        <ele>7.6</ele>
        <time>2022-04-17T12:57:17Z</time>
      </trkpt>
      <trkpt lat="50.04862" lon="1.92494">
        <ele>7.6</ele>
        <time>2022-04-17T12:57:18Z</time>
      </trkpt>
      <trkpt lat="50.04862" lon="1.92493">
        <ele>7.6</ele>
        <time>2022-04-17T12:57:19Z</time>
      </trkpt>
      <trkpt lat="50.04863" lon="1.92491">
        <ele>7.6</ele>
        <time>2022-04-17T12:57:20Z</time>
      </trkpt>
      <trkpt lat="50.04864" lon="1.9249">
        <ele>7.6</ele>
        <time>2022-04-17T12:57:21Z</time>
      </trkpt>
      <trkpt lat="50.04864" lon="1.92488">
        <ele>7.6</ele>
        <time>2022-04-17T12:57:22Z</time>
      </trkpt>
      <trkpt lat="50.04865" lon="1.92487">
        <ele>7.6</ele>
        <time>2022-04-17T12:57:23Z</time>
      </trkpt>
      <trkpt lat="50.04866" lon="1.92485">
        <ele>7.6</ele>
        <time>2022-04-17T12:57:24Z</time>
      </trkpt>
      <trkpt lat="50.04866" lon="1.92483">
        <ele>7.6</ele>
        <time>2022-04-17T12:57:25Z</time>
      </trkpt>
      <trkpt lat="50.04867" lon="1.92481">
        <ele>7.6</ele>
        <time>2022-04-17T12:57:27Z</time>
      </trkpt>
      <trkpt lat="50.04868" lon="1.9248">
        <ele>7.6</ele>
        <time>2022-04-17T12:57:28Z</time>
      </trkpt>
      <trkpt lat="50.04868" lon="1.92478">
        <ele>7.6</ele>
        <time>2022-04-17T12:57:29Z</time>
      </trkpt>
      <trkpt lat="50.0487" lon="1.92475">
        <ele>7.5</ele>
        <time>2022-04-17T12:57:30Z</time>
      </trkpt>
      <trkpt lat="50.0487" lon="1.92474">
        <ele>7.5</ele>
        <time>2022-04-17T12:57:31Z</time>
      </trkpt>
      <trkpt lat="50.0487" lon="1.92473">
        <ele>7.5</ele>
        <time>2022-04-17T12:57:32Z</time>
      </trkpt>
      <trkpt lat="50.04872" lon="1.9247">
        <ele>7.5</ele>
        <time>2022-04-17T12:57:33Z</time>
      </trkpt>
      <trkpt lat="50.04872" lon="1.92469">
        <ele>7.5</ele>
        <time>2022-04-17T12:57:34Z</time>
      </trkpt>
      <trkpt lat="50.04873" lon="1.92468">
        <ele>7.5</ele>
        <time>2022-04-17T12:57:35Z</time>
      </trkpt>
      <trkpt lat="50.04874" lon="1.92465">
        <ele>7.5</ele>
        <time>2022-04-17T12:57:37Z</time>
      </trkpt>
      <trkpt lat="50.04875" lon="1.92464">
        <ele>7.5</ele>
        <time>2022-04-17T12:57:38Z</time>
      </trkpt>
      <trkpt lat="50.04875" lon="1.92463">
        <ele>7.5</ele>
        <time>2022-04-17T12:57:39Z</time>
      </trkpt>
      <trkpt lat="50.04876" lon="1.9246">
        <ele>7.5</ele>
        <time>2022-04-17T12:57:40Z</time>
      </trkpt>
      <trkpt lat="50.04877" lon="1.92459">
        <ele>7.5</ele>
        <time>2022-04-17T12:57:41Z</time>
      </trkpt>
      <trkpt lat="50.04878" lon="1.92458">
        <ele>7.5</ele>
        <time>2022-04-17T12:57:42Z</time>
      </trkpt>
      <trkpt lat="50.04878" lon="1.92457">
        <ele>7.5</ele>
        <time>2022-04-17T12:57:43Z</time>
      </trkpt>
      <trkpt lat="50.04879" lon="1.92455">
        <ele>7.5</ele>
        <time>2022-04-17T12:57:44Z</time>
      </trkpt>
      <trkpt lat="50.04881" lon="1.92452">
        <ele>7.5</ele>
        <time>2022-04-17T12:57:45Z</time>
      </trkpt>
      <trkpt lat="50.04881" lon="1.9245">
        <ele>7.5</ele>
        <time>2022-04-17T12:57:47Z</time>
      </trkpt>
      <trkpt lat="50.04882" lon="1.92449">
        <ele>7.5</ele>
        <time>2022-04-17T12:57:48Z</time>
      </trkpt>
      <trkpt lat="50.04883" lon="1.92447">
        <ele>7.5</ele>
        <time>2022-04-17T12:57:49Z</time>
      </trkpt>
      <trkpt lat="50.04883" lon="1.92446">
        <ele>7.5</ele>
        <time>2022-04-17T12:57:50Z</time>
      </trkpt>
      <trkpt lat="50.04884" lon="1.92444">
        <ele>7.5</ele>
        <time>2022-04-17T12:57:51Z</time>
      </trkpt>
      <trkpt lat="50.04884" lon="1.92442">
        <ele>7.5</ele>
        <time>2022-04-17T12:57:52Z</time>
      </trkpt>
      <trkpt lat="50.04885" lon="1.92441">
        <ele>7.5</ele>
        <time>2022-04-17T12:57:53Z</time>
      </trkpt>
      <trkpt lat="50.04885" lon="1.92439">
        <ele>7.6</ele>
        <time>2022-04-17T12:57:54Z</time>
      </trkpt>
      <trkpt lat="50.04886" lon="1.92437">
        <ele>7.6</ele>
        <time>2022-04-17T12:57:55Z</time>
      </trkpt>
      <trkpt lat="50.04886" lon="1.92435">
        <ele>7.6</ele>
        <time>2022-04-17T12:57:57Z</time>
      </trkpt>
      <trkpt lat="50.04887" lon="1.92434">
        <ele>7.6</ele>
        <time>2022-04-17T12:57:58Z</time>
      </trkpt>
      <trkpt lat="50.04888" lon="1.92432">
        <ele>7.6</ele>
        <time>2022-04-17T12:57:59Z</time>
      </trkpt>
      <trkpt lat="50.04888" lon="1.92429">
        <ele>7.6</ele>
        <time>2022-04-17T12:58:00Z</time>
      </trkpt>
      <trkpt lat="50.04889" lon="1.92428">
        <ele>7.6</ele>
        <time>2022-04-17T12:58:01Z</time>
      </trkpt>
      <trkpt lat="50.04889" lon="1.92425">
        <ele>7.6</ele>
        <time>2022-04-17T12:58:02Z</time>
      </trkpt>
      <trkpt lat="50.0489" lon="1.92424">
        <ele>7.6</ele>
        <time>2022-04-17T12:58:03Z</time>
      </trkpt>
      <trkpt lat="50.0489" lon="1.92423">
        <ele>7.6</ele>
        <time>2022-04-17T12:58:04Z</time>
      </trkpt>
      <trkpt lat="50.04891" lon="1.9242">
        <ele>7.6</ele>
        <time>2022-04-17T12:58:05Z</time>
      </trkpt>
      <trkpt lat="50.04891" lon="1.92419">
        <ele>7.6</ele>
        <time>2022-04-17T12:58:06Z</time>
      </trkpt>
      <trkpt lat="50.04892" lon="1.92418">
        <ele>7.6</ele>
        <time>2022-04-17T12:58:08Z</time>
      </trkpt>
      <trkpt lat="50.04892" lon="1.92416">
        <ele>7.6</ele>
        <time>2022-04-17T12:58:09Z</time>
      </trkpt>
      <trkpt lat="50.04892" lon="1.92413">
        <ele>7.6</ele>
        <time>2022-04-17T12:58:10Z</time>
      </trkpt>
      <trkpt lat="50.04893" lon="1.92412">
        <ele>7.6</ele>
        <time>2022-04-17T12:58:11Z</time>
      </trkpt>
      <trkpt lat="50.04893" lon="1.9241">
        <ele>7.6</ele>
        <time>2022-04-17T12:58:12Z</time>
      </trkpt>
      <trkpt lat="50.04894" lon="1.92409">
        <ele>7.6</ele>
        <time>2022-04-17T12:58:13Z</time>
      </trkpt>
      <trkpt lat="50.04894" lon="1.92407">
        <ele>7.6</ele>
        <time>2022-04-17T12:58:14Z</time>
      </trkpt>
      <trkpt lat="50.04895" lon="1.92404">
        <ele>7.6</ele>
        <time>2022-04-17T12:58:15Z</time>
      </trkpt>
      <trkpt lat="50.04896" lon="1.92403">
        <ele>7.6</ele>
        <time>2022-04-17T12:58:17Z</time>
      </trkpt>
      <trkpt lat="50.04897" lon="1.92401">
        <ele>7.6</ele>
        <time>2022-04-17T12:58:18Z</time>
      </trkpt>
      <trkpt lat="50.04897" lon="1.924">
        <ele>7.6</ele>
        <time>2022-04-17T12:58:19Z</time>
      </trkpt>
      <trkpt lat="50.04899" lon="1.92397">
        <ele>7.6</ele>
        <time>2022-04-17T12:58:20Z</time>
      </trkpt>
      <trkpt lat="50.04899" lon="1.92396">
        <ele>7.6</ele>
        <time>2022-04-17T12:58:21Z</time>
      </trkpt>
      <trkpt lat="50.049" lon="1.92395">
        <ele>7.6</ele>
        <time>2022-04-17T12:58:23Z</time>
      </trkpt>
      <trkpt lat="50.04901" lon="1.92393">
        <ele>7.6</ele>
        <time>2022-04-17T12:58:24Z</time>
      </trkpt>
      <trkpt lat="50.04902" lon="1.92391">
        <ele>7.6</ele>
        <time>2022-04-17T12:58:25Z</time>
      </trkpt>
      <trkpt lat="50.04903" lon="1.92389">
        <ele>7.6</ele>
        <time>2022-04-17T12:58:26Z</time>
      </trkpt>
      <trkpt lat="50.04904" lon="1.92388">
        <ele>7.6</ele>
        <time>2022-04-17T12:58:27Z</time>
      </trkpt>
      <trkpt lat="50.04905" lon="1.92387">
        <ele>7.6</ele>
        <time>2022-04-17T12:58:28Z</time>
      </trkpt>
      <trkpt lat="50.04905" lon="1.92385">
        <ele>7.6</ele>
        <time>2022-04-17T12:58:29Z</time>
      </trkpt>
      <trkpt lat="50.04906" lon="1.92383">
        <ele>7.6</ele>
        <time>2022-04-17T12:58:30Z</time>
      </trkpt>
      <trkpt lat="50.04907" lon="1.92382">
        <ele>7.6</ele>
        <time>2022-04-17T12:58:31Z</time>
      </trkpt>
      <trkpt lat="50.04908" lon="1.9238">
        <ele>7.6</ele>
        <time>2022-04-17T12:58:33Z</time>
      </trkpt>
      <trkpt lat="50.04908" lon="1.92379">
        <ele>7.6</ele>
        <time>2022-04-17T12:58:34Z</time>
      </trkpt>
      <trkpt lat="50.04909" lon="1.92377">
        <ele>7.6</ele>
        <time>2022-04-17T12:58:35Z</time>
      </trkpt>
      <trkpt lat="50.0491" lon="1.92375">
        <ele>7.6</ele>
        <time>2022-04-17T12:58:36Z</time>
      </trkpt>
      <trkpt lat="50.04911" lon="1.92374">
        <ele>7.6</ele>
        <time>2022-04-17T12:58:37Z</time>
      </trkpt>
      <trkpt lat="50.04912" lon="1.92371">
        <ele>7.6</ele>
        <time>2022-04-17T12:58:38Z</time>
      </trkpt>
      <trkpt lat="50.04913" lon="1.9237">
        <ele>7.6</ele>
        <time>2022-04-17T12:58:39Z</time>
      </trkpt>
      <trkpt lat="50.04913" lon="1.92369">
        <ele>7.6</ele>
        <time>2022-04-17T12:58:40Z</time>
      </trkpt>
      <trkpt lat="50.04914" lon="1.92368">
        <ele>7.6</ele>
        <time>2022-04-17T12:58:41Z</time>
      </trkpt>
      <trkpt lat="50.04914" lon="1.92367">
        <ele>7.6</ele>
        <time>2022-04-17T12:58:42Z</time>
      </trkpt>
      <trkpt lat="50.04915" lon="1.92366">
        <ele>7.6</ele>
        <time>2022-04-17T12:58:43Z</time>
      </trkpt>
      <trkpt lat="50.04916" lon="1.92364">
        <ele>7.6</ele>
        <time>2022-04-17T12:58:45Z</time>
      </trkpt>
      <trkpt lat="50.04917" lon="1.92362">
        <ele>7.6</ele>
        <time>2022-04-17T12:58:46Z</time>
      </trkpt>
      <trkpt lat="50.04917" lon="1.92361">
        <ele>7.6</ele>
        <time>2022-04-17T12:58:47Z</time>
      </trkpt>
      <trkpt lat="50.04918" lon="1.9236">
        <ele>7.6</ele>
        <time>2022-04-17T12:58:48Z</time>
      </trkpt>
      <trkpt lat="50.04919" lon="1.92359">
        <ele>7.6</ele>
        <time>2022-04-17T12:58:49Z</time>
      </trkpt>
      <trkpt lat="50.0492" lon="1.92357">
        <ele>7.6</ele>
        <time>2022-04-17T12:58:50Z</time>
      </trkpt>
      <trkpt lat="50.0492" lon="1.92356">
        <ele>7.6</ele>
        <time>2022-04-17T12:58:51Z</time>
      </trkpt>
      <trkpt lat="50.04921" lon="1.92355">
        <ele>7.6</ele>
        <time>2022-04-17T12:58:52Z</time>
      </trkpt>
      <trkpt lat="50.04922" lon="1.92353">
        <ele>7.6</ele>
        <time>2022-04-17T12:58:53Z</time>
      </trkpt>
      <trkpt lat="50.04923" lon="1.92352">
        <ele>7.6</ele>
        <time>2022-04-17T12:58:54Z</time>
      </trkpt>
      <trkpt lat="50.04924" lon="1.92351">
        <ele>7.6</ele>
        <time>2022-04-17T12:58:56Z</time>
      </trkpt>
      <trkpt lat="50.04924" lon="1.9235">
        <ele>7.6</ele>
        <time>2022-04-17T12:58:57Z</time>
      </trkpt>
      <trkpt lat="50.04925" lon="1.92349">
        <ele>7.6</ele>
        <time>2022-04-17T12:58:58Z</time>
      </trkpt>
      <trkpt lat="50.04926" lon="1.92349">
        <ele>7.6</ele>
        <time>2022-04-17T12:58:59Z</time>
      </trkpt>
      <trkpt lat="50.04927" lon="1.92348">
        <ele>7.6</ele>
        <time>2022-04-17T12:59:00Z</time>
      </trkpt>
      <trkpt lat="50.04928" lon="1.92347">
        <ele>7.6</ele>
        <time>2022-04-17T12:59:01Z</time>
      </trkpt>
      <trkpt lat="50.04928" lon="1.92347">
        <ele>7.6</ele>
        <time>2022-04-17T12:59:02Z</time>
      </trkpt>
      <trkpt lat="50.04929" lon="1.92346">
        <ele>7.6</ele>
        <time>2022-04-17T12:59:03Z</time>
      </trkpt>
      <trkpt lat="50.0493" lon="1.92345">
        <ele>7.6</ele>
        <time>2022-04-17T12:59:04Z</time>
      </trkpt>
      <trkpt lat="50.04931" lon="1.92344">
        <ele>7.6</ele>
        <time>2022-04-17T12:59:06Z</time>
      </trkpt>
      <trkpt lat="50.04931" lon="1.92343">
        <ele>7.7</ele>
        <time>2022-04-17T12:59:07Z</time>
      </trkpt>
      <trkpt lat="50.04932" lon="1.92342">
        <ele>7.7</ele>
        <time>2022-04-17T12:59:08Z</time>
      </trkpt>
      <trkpt lat="50.04933" lon="1.92341">
        <ele>7.7</ele>
        <time>2022-04-17T12:59:09Z</time>
      </trkpt>
      <trkpt lat="50.04934" lon="1.9234">
        <ele>7.7</ele>
        <time>2022-04-17T12:59:10Z</time>
      </trkpt>
      <trkpt lat="50.04935" lon="1.92339">
        <ele>7.7</ele>
        <time>2022-04-17T12:59:11Z</time>
      </trkpt>
      <trkpt lat="50.04935" lon="1.92339">
        <ele>7.7</ele>
        <time>2022-04-17T12:59:12Z</time>
      </trkpt>
      <trkpt lat="50.04936" lon="1.92338">
        <ele>7.7</ele>
        <time>2022-04-17T12:59:13Z</time>
      </trkpt>
      <trkpt lat="50.04937" lon="1.92337">
        <ele>7.7</ele>
        <time>2022-04-17T12:59:14Z</time>
      </trkpt>
      <trkpt lat="50.04939" lon="1.92336">
        <ele>7.7</ele>
        <time>2022-04-17T12:59:16Z</time>
      </trkpt>
      <trkpt lat="50.0494" lon="1.92334">
        <ele>7.7</ele>
        <time>2022-04-17T12:59:17Z</time>
      </trkpt>
      <trkpt lat="50.0494" lon="1.92333">
        <ele>7.7</ele>
        <time>2022-04-17T12:59:18Z</time>
      </trkpt>
      <trkpt lat="50.04941" lon="1.92332">
        <ele>7.7</ele>
        <time>2022-04-17T12:59:19Z</time>
      </trkpt>
      <trkpt lat="50.04942" lon="1.92331">
        <ele>7.7</ele>
        <time>2022-04-17T12:59:20Z</time>
      </trkpt>
      <trkpt lat="50.04942" lon="1.92331">
        <ele>7.7</ele>
        <time>2022-04-17T12:59:21Z</time>
      </trkpt>
      <trkpt lat="50.04943" lon="1.9233">
        <ele>7.7</ele>
        <time>2022-04-17T12:59:22Z</time>
      </trkpt>
      <trkpt lat="50.04943" lon="1.92329">
        <ele>7.7</ele>
        <time>2022-04-17T12:59:23Z</time>
      </trkpt>
      <trkpt lat="50.04944" lon="1.92328">
        <ele>7.7</ele>
        <time>2022-04-17T12:59:24Z</time>
      </trkpt>
      <trkpt lat="50.04945" lon="1.92327">
        <ele>7.7</ele>
        <time>2022-04-17T12:59:26Z</time>
      </trkpt>
      <trkpt lat="50.04946" lon="1.92327">
        <ele>7.7</ele>
        <time>2022-04-17T12:59:27Z</time>
      </trkpt>
      <trkpt lat="50.04947" lon="1.92326">
        <ele>7.7</ele>
        <time>2022-04-17T12:59:28Z</time>
      </trkpt>
      <trkpt lat="50.04948" lon="1.92325">
        <ele>7.7</ele>
        <time>2022-04-17T12:59:29Z</time>
      </trkpt>
      <trkpt lat="50.04949" lon="1.92325">
        <ele>7.7</ele>
        <time>2022-04-17T12:59:30Z</time>
      </trkpt>
      <trkpt lat="50.0495" lon="1.92324">
        <ele>7.7</ele>
        <time>2022-04-17T12:59:31Z</time>
      </trkpt>
      <trkpt lat="50.04951" lon="1.92324">
        <ele>7.7</ele>
        <time>2022-04-17T12:59:32Z</time>
      </trkpt>
      <trkpt lat="50.04952" lon="1.92323">
        <ele>7.7</ele>
        <time>2022-04-17T12:59:34Z</time>
      </trkpt>
      <trkpt lat="50.04953" lon="1.92322">
        <ele>7.7</ele>
        <time>2022-04-17T12:59:35Z</time>
      </trkpt>
      <trkpt lat="50.04954" lon="1.92321">
        <ele>7.7</ele>
        <time>2022-04-17T12:59:36Z</time>
      </trkpt>
      <trkpt lat="50.04955" lon="1.9232">
        <ele>7.7</ele>
        <time>2022-04-17T12:59:37Z</time>
      </trkpt>
      <trkpt lat="50.04955" lon="1.92318">
        <ele>7.7</ele>
        <time>2022-04-17T12:59:38Z</time>
      </trkpt>
      <trkpt lat="50.04956" lon="1.92316">
        <ele>7.7</ele>
        <time>2022-04-17T12:59:39Z</time>
      </trkpt>
      <trkpt lat="50.04957" lon="1.92315">
        <ele>7.7</ele>
        <time>2022-04-17T12:59:40Z</time>
      </trkpt>
      <trkpt lat="50.04958" lon="1.92314">
        <ele>7.7</ele>
        <time>2022-04-17T12:59:41Z</time>
      </trkpt>
      <trkpt lat="50.04959" lon="1.92312">
        <ele>7.7</ele>
        <time>2022-04-17T12:59:42Z</time>
      </trkpt>
      <trkpt lat="50.04959" lon="1.92311">
        <ele>7.7</ele>
        <time>2022-04-17T12:59:43Z</time>
      </trkpt>
      <trkpt lat="50.04959" lon="1.9231">
        <ele>7.7</ele>
        <time>2022-04-17T12:59:45Z</time>
      </trkpt>
      <trkpt lat="50.0496" lon="1.92309">
        <ele>7.7</ele>
        <time>2022-04-17T12:59:46Z</time>
      </trkpt>
      <trkpt lat="50.0496" lon="1.92308">
        <ele>7.7</ele>
        <time>2022-04-17T12:59:47Z</time>
      </trkpt>
      <trkpt lat="50.0496" lon="1.92307">
        <ele>7.7</ele>
        <time>2022-04-17T12:59:48Z</time>
      </trkpt>
      <trkpt lat="50.04961" lon="1.92305">
        <ele>7.7</ele>
        <time>2022-04-17T12:59:49Z</time>
      </trkpt>
      <trkpt lat="50.04961" lon="1.92302">
        <ele>7.7</ele>
        <time>2022-04-17T12:59:51Z</time>
      </trkpt>
      <trkpt lat="50.04962" lon="1.923">
        <ele>7.7</ele>
        <time>2022-04-17T12:59:52Z</time>
      </trkpt>
      <trkpt lat="50.04962" lon="1.92297">
        <ele>7.7</ele>
        <time>2022-04-17T12:59:53Z</time>
      </trkpt>
      <trkpt lat="50.04962" lon="1.92296">
        <ele>7.7</ele>
        <time>2022-04-17T12:59:54Z</time>
      </trkpt>
      <trkpt lat="50.04963" lon="1.92294">
        <ele>7.7</ele>
        <time>2022-04-17T12:59:55Z</time>
      </trkpt>
      <trkpt lat="50.04963" lon="1.92292">
        <ele>7.7</ele>
        <time>2022-04-17T12:59:56Z</time>
      </trkpt>
      <trkpt lat="50.04963" lon="1.9229">
        <ele>7.7</ele>
        <time>2022-04-17T12:59:57Z</time>
      </trkpt>
      <trkpt lat="50.04964" lon="1.92288">
        <ele>7.7</ele>
        <time>2022-04-17T12:59:58Z</time>
      </trkpt>
      <trkpt lat="50.04964" lon="1.92286">
        <ele>7.7</ele>
        <time>2022-04-17T12:59:59Z</time>
      </trkpt>
      <trkpt lat="50.04965" lon="1.92283">
        <ele>7.7</ele>
        <time>2022-04-17T13:00:01Z</time>
      </trkpt>
      <trkpt lat="50.04965" lon="1.92281">
        <ele>7.7</ele>
        <time>2022-04-17T13:00:02Z</time>
      </trkpt>
      <trkpt lat="50.04966" lon="1.92279">
        <ele>7.7</ele>
        <time>2022-04-17T13:00:03Z</time>
      </trkpt>
      <trkpt lat="50.04967" lon="1.92277">
        <ele>7.7</ele>
        <time>2022-04-17T13:00:04Z</time>
      </trkpt>
      <trkpt lat="50.04968" lon="1.92275">
        <ele>7.7</ele>
        <time>2022-04-17T13:00:05Z</time>
      </trkpt>
      <trkpt lat="50.04969" lon="1.92273">
        <ele>7.7</ele>
        <time>2022-04-17T13:00:06Z</time>
      </trkpt>
      <trkpt lat="50.0497" lon="1.9227">
        <ele>7.8</ele>
        <time>2022-04-17T13:00:07Z</time>
      </trkpt>
      <trkpt lat="50.0497" lon="1.92269">
        <ele>7.8</ele>
        <time>2022-04-17T13:00:08Z</time>
      </trkpt>
      <trkpt lat="50.04971" lon="1.92268">
        <ele>7.8</ele>
        <time>2022-04-17T13:00:09Z</time>
      </trkpt>
      <trkpt lat="50.04972" lon="1.92265">
        <ele>7.8</ele>
        <time>2022-04-17T13:00:11Z</time>
      </trkpt>
      <trkpt lat="50.04972" lon="1.92264">
        <ele>7.8</ele>
        <time>2022-04-17T13:00:12Z</time>
      </trkpt>
      <trkpt lat="50.04973" lon="1.92262">
        <ele>7.8</ele>
        <time>2022-04-17T13:00:13Z</time>
      </trkpt>
      <trkpt lat="50.04974" lon="1.9226">
        <ele>7.8</ele>
        <time>2022-04-17T13:00:14Z</time>
      </trkpt>
      <trkpt lat="50.04975" lon="1.92258">
        <ele>7.8</ele>
        <time>2022-04-17T13:00:15Z</time>
      </trkpt>
      <trkpt lat="50.04976" lon="1.92256">
        <ele>7.8</ele>
        <time>2022-04-17T13:00:16Z</time>
      </trkpt>
      <trkpt lat="50.04977" lon="1.92253">
        <ele>7.8</ele>
        <time>2022-04-17T13:00:17Z</time>
      </trkpt>
      <trkpt lat="50.04978" lon="1.92252">
        <ele>7.8</ele>
        <time>2022-04-17T13:00:18Z</time>
      </trkpt>
      <trkpt lat="50.04978" lon="1.92251">
        <ele>7.8</ele>
        <time>2022-04-17T13:00:19Z</time>
      </trkpt>
      <trkpt lat="50.04979" lon="1.92249">
        <ele>7.8</ele>
        <time>2022-04-17T13:00:21Z</time>
      </trkpt>
      <trkpt lat="50.0498" lon="1.92247">
        <ele>7.8</ele>
        <time>2022-04-17T13:00:22Z</time>
      </trkpt>
      <trkpt lat="50.04981" lon="1.92245">
        <ele>7.8</ele>
        <time>2022-04-17T13:00:23Z</time>
      </trkpt>
      <trkpt lat="50.04981" lon="1.92243">
        <ele>7.8</ele>
        <time>2022-04-17T13:00:24Z</time>
      </trkpt>
      <trkpt lat="50.04982" lon="1.92239">
        <ele>7.8</ele>
        <time>2022-04-17T13:00:25Z</time>
      </trkpt>
      <trkpt lat="50.04982" lon="1.92238">
        <ele>7.8</ele>
        <time>2022-04-17T13:00:27Z</time>
      </trkpt>
      <trkpt lat="50.04983" lon="1.92237">
        <ele>7.8</ele>
        <time>2022-04-17T13:00:28Z</time>
      </trkpt>
      <trkpt lat="50.04984" lon="1.92234">
        <ele>7.8</ele>
        <time>2022-04-17T13:00:29Z</time>
      </trkpt>
      <trkpt lat="50.04984" lon="1.92232">
        <ele>7.8</ele>
        <time>2022-04-17T13:00:30Z</time>
      </trkpt>
      <trkpt lat="50.04985" lon="1.92231">
        <ele>7.8</ele>
        <time>2022-04-17T13:00:31Z</time>
      </trkpt>
      <trkpt lat="50.04985" lon="1.9223">
        <ele>7.8</ele>
        <time>2022-04-17T13:00:32Z</time>
      </trkpt>
      <trkpt lat="50.04986" lon="1.92228">
        <ele>7.8</ele>
        <time>2022-04-17T13:00:33Z</time>
      </trkpt>
      <trkpt lat="50.04986" lon="1.92227">
        <ele>7.8</ele>
        <time>2022-04-17T13:00:34Z</time>
      </trkpt>
      <trkpt lat="50.04987" lon="1.92226">
        <ele>7.8</ele>
        <time>2022-04-17T13:00:35Z</time>
      </trkpt>
      <trkpt lat="50.04987" lon="1.92224">
        <ele>7.8</ele>
        <time>2022-04-17T13:00:37Z</time>
      </trkpt>
      <trkpt lat="50.04988" lon="1.92222">
        <ele>7.8</ele>
        <time>2022-04-17T13:00:38Z</time>
      </trkpt>
      <trkpt lat="50.04989" lon="1.92219">
        <ele>7.8</ele>
        <time>2022-04-17T13:00:39Z</time>
      </trkpt>
      <trkpt lat="50.04989" lon="1.92218">
        <ele>7.8</ele>
        <time>2022-04-17T13:00:40Z</time>
      </trkpt>
      <trkpt lat="50.04989" lon="1.92217">
        <ele>7.8</ele>
        <time>2022-04-17T13:00:41Z</time>
      </trkpt>
      <trkpt lat="50.0499" lon="1.92214">
        <ele>7.8</ele>
        <time>2022-04-17T13:00:42Z</time>
      </trkpt>
      <trkpt lat="50.04991" lon="1.92213">
        <ele>7.8</ele>
        <time>2022-04-17T13:00:43Z</time>
      </trkpt>
      <trkpt lat="50.04991" lon="1.92212">
        <ele>7.8</ele>
        <time>2022-04-17T13:00:44Z</time>
      </trkpt>
      <trkpt lat="50.04992" lon="1.9221">
        <ele>7.8</ele>
        <time>2022-04-17T13:00:45Z</time>
      </trkpt>
      <trkpt lat="50.04992" lon="1.92209">
        <ele>7.8</ele>
        <time>2022-04-17T13:00:46Z</time>
      </trkpt>
      <trkpt lat="50.04993" lon="1.92208">
        <ele>7.8</ele>
        <time>2022-04-17T13:00:47Z</time>
      </trkpt>
      <trkpt lat="50.04994" lon="1.92205">
        <ele>7.9</ele>
        <time>2022-04-17T13:00:49Z</time>
      </trkpt>
      <trkpt lat="50.04994" lon="1.92204">
        <ele>7.9</ele>
        <time>2022-04-17T13:00:50Z</time>
      </trkpt>
      <trkpt lat="50.04995" lon="1.92201">
        <ele>7.9</ele>
        <time>2022-04-17T13:00:51Z</time>
      </trkpt>
      <trkpt lat="50.04996" lon="1.92199">
        <ele>7.9</ele>
        <time>2022-04-17T13:00:52Z</time>
      </trkpt>
      <trkpt lat="50.04996" lon="1.92198">
        <ele>7.9</ele>
        <time>2022-04-17T13:00:53Z</time>
      </trkpt>
      <trkpt lat="50.04997" lon="1.92196">
        <ele>7.9</ele>
        <time>2022-04-17T13:00:54Z</time>
      </trkpt>
      <trkpt lat="50.04998" lon="1.92195">
        <ele>7.9</ele>
        <time>2022-04-17T13:00:55Z</time>
      </trkpt>
      <trkpt lat="50.04998" lon="1.92193">
        <ele>7.9</ele>
        <time>2022-04-17T13:00:57Z</time>
      </trkpt>
      <trkpt lat="50.05" lon="1.9219">
        <ele>7.9</ele>
        <time>2022-04-17T13:00:58Z</time>
      </trkpt>
      <trkpt lat="50.05" lon="1.92189">
        <ele>7.9</ele>
        <time>2022-04-17T13:00:59Z</time>
      </trkpt>
      <trkpt lat="50.05001" lon="1.92187">
        <ele>7.9</ele>
        <time>2022-04-17T13:01:00Z</time>
      </trkpt>
      <trkpt lat="50.05002" lon="1.92184">
        <ele>7.9</ele>
        <time>2022-04-17T13:01:01Z</time>
      </trkpt>
      <trkpt lat="50.05002" lon="1.92183">
        <ele>7.9</ele>
        <time>2022-04-17T13:01:02Z</time>
      </trkpt>
      <trkpt lat="50.05002" lon="1.92182">
        <ele>7.9</ele>
        <time>2022-04-17T13:01:03Z</time>
      </trkpt>
      <trkpt lat="50.05003" lon="1.92179">
        <ele>7.9</ele>
        <time>2022-04-17T13:01:04Z</time>
      </trkpt>
      <trkpt lat="50.05004" lon="1.92178">
        <ele>7.9</ele>
        <time>2022-04-17T13:01:06Z</time>
      </trkpt>
      <trkpt lat="50.05004" lon="1.92176">
        <ele>7.9</ele>
        <time>2022-04-17T13:01:07Z</time>
      </trkpt>
      <trkpt lat="50.05005" lon="1.92174">
        <ele>7.9</ele>
        <time>2022-04-17T13:01:08Z</time>
      </trkpt>
      <trkpt lat="50.05006" lon="1.92172">
        <ele>7.9</ele>
        <time>2022-04-17T13:01:10Z</time>
      </trkpt>
      <trkpt lat="50.05006" lon="1.9217">
        <ele>7.9</ele>
        <time>2022-04-17T13:01:11Z</time>
      </trkpt>
      <trkpt lat="50.05007" lon="1.92168">
        <ele>7.9</ele>
        <time>2022-04-17T13:01:12Z</time>
      </trkpt>
      <trkpt lat="50.05007" lon="1.92165">
        <ele>7.9</ele>
        <time>2022-04-17T13:01:13Z</time>
      </trkpt>
      <trkpt lat="50.05007" lon="1.92163">
        <ele>7.9</ele>
        <time>2022-04-17T13:01:14Z</time>
      </trkpt>
      <trkpt lat="50.05008" lon="1.92162">
        <ele>7.9</ele>
        <time>2022-04-17T13:01:15Z</time>
      </trkpt>
      <trkpt lat="50.05008" lon="1.9216">
        <ele>7.9</ele>
        <time>2022-04-17T13:01:16Z</time>
      </trkpt>
      <trkpt lat="50.05009" lon="1.92159">
        <ele>7.9</ele>
        <time>2022-04-17T13:01:17Z</time>
      </trkpt>
      <trkpt lat="50.05009" lon="1.92157">
        <ele>7.9</ele>
        <time>2022-04-17T13:01:18Z</time>
      </trkpt>
      <trkpt lat="50.0501" lon="1.92154">
        <ele>7.9</ele>
        <time>2022-04-17T13:01:20Z</time>
      </trkpt>
      <trkpt lat="50.0501" lon="1.92153">
        <ele>7.9</ele>
        <time>2022-04-17T13:01:21Z</time>
      </trkpt>
      <trkpt lat="50.0501" lon="1.92151">
        <ele>7.9</ele>
        <time>2022-04-17T13:01:22Z</time>
      </trkpt>
      <trkpt lat="50.05011" lon="1.92148">
        <ele>7.9</ele>
        <time>2022-04-17T13:01:23Z</time>
      </trkpt>
      <trkpt lat="50.05011" lon="1.92147">
        <ele>7.9</ele>
        <time>2022-04-17T13:01:24Z</time>
      </trkpt>
      <trkpt lat="50.05011" lon="1.92146">
        <ele>7.9</ele>
        <time>2022-04-17T13:01:25Z</time>
      </trkpt>
      <trkpt lat="50.05011" lon="1.92142">
        <ele>7.9</ele>
        <time>2022-04-17T13:01:26Z</time>
      </trkpt>
      <trkpt lat="50.05011" lon="1.92141">
        <ele>7.9</ele>
        <time>2022-04-17T13:01:27Z</time>
      </trkpt>
      <trkpt lat="50.05011" lon="1.9214">
        <ele>7.9</ele>
        <time>2022-04-17T13:01:28Z</time>
      </trkpt>
      <trkpt lat="50.05012" lon="1.92136">
        <ele>7.9</ele>
        <time>2022-04-17T13:01:30Z</time>
      </trkpt>
      <trkpt lat="50.05012" lon="1.92135">
        <ele>7.9</ele>
        <time>2022-04-17T13:01:31Z</time>
      </trkpt>
      <trkpt lat="50.05012" lon="1.92134">
        <ele>7.9</ele>
        <time>2022-04-17T13:01:32Z</time>
      </trkpt>
      <trkpt lat="50.05012" lon="1.92132">
        <ele>7.9</ele>
        <time>2022-04-17T13:01:33Z</time>
      </trkpt>
      <trkpt lat="50.05012" lon="1.92129">
        <ele>7.9</ele>
        <time>2022-04-17T13:01:34Z</time>
      </trkpt>
      <trkpt lat="50.05013" lon="1.92126">
        <ele>7.9</ele>
        <time>2022-04-17T13:01:35Z</time>
      </trkpt>
      <trkpt lat="50.05013" lon="1.92124">
        <ele>7.9</ele>
        <time>2022-04-17T13:01:36Z</time>
      </trkpt>
      <trkpt lat="50.05013" lon="1.92123">
        <ele>7.9</ele>
        <time>2022-04-17T13:01:37Z</time>
      </trkpt>
      <trkpt lat="50.05013" lon="1.92121">
        <ele>7.9</ele>
        <time>2022-04-17T13:01:38Z</time>
      </trkpt>
      <trkpt lat="50.05013" lon="1.92119">
        <ele>7.9</ele>
        <time>2022-04-17T13:01:39Z</time>
      </trkpt>
      <trkpt lat="50.05013" lon="1.92116">
        <ele>7.9</ele>
        <time>2022-04-17T13:01:40Z</time>
      </trkpt>
      <trkpt lat="50.05013" lon="1.92114">
        <ele>7.9</ele>
        <time>2022-04-17T13:01:42Z</time>
      </trkpt>
      <trkpt lat="50.05013" lon="1.92113">
        <ele>7.9</ele>
        <time>2022-04-17T13:01:43Z</time>
      </trkpt>
      <trkpt lat="50.05013" lon="1.92109">
        <ele>7.9</ele>
        <time>2022-04-17T13:01:44Z</time>
      </trkpt>
      <trkpt lat="50.05013" lon="1.92108">
        <ele>7.9</ele>
        <time>2022-04-17T13:01:45Z</time>
      </trkpt>
      <trkpt lat="50.05013" lon="1.92107">
        <ele>7.9</ele>
        <time>2022-04-17T13:01:46Z</time>
      </trkpt>
      <trkpt lat="50.05013" lon="1.92104">
        <ele>7.9</ele>
        <time>2022-04-17T13:01:47Z</time>
      </trkpt>
      <trkpt lat="50.05013" lon="1.92102">
        <ele>7.9</ele>
        <time>2022-04-17T13:01:48Z</time>
      </trkpt>
      <trkpt lat="50.05012" lon="1.92101">
        <ele>7.9</ele>
        <time>2022-04-17T13:01:49Z</time>
      </trkpt>
      <trkpt lat="50.05012" lon="1.92099">
        <ele>7.9</ele>
        <time>2022-04-17T13:01:50Z</time>
      </trkpt>
      <trkpt lat="50.05012" lon="1.92097">
        <ele>7.9</ele>
        <time>2022-04-17T13:01:51Z</time>
      </trkpt>
      <trkpt lat="50.05012" lon="1.92095">
        <ele>7.9</ele>
        <time>2022-04-17T13:01:53Z</time>
      </trkpt>
      <trkpt lat="50.05012" lon="1.92093">
        <ele>7.9</ele>
        <time>2022-04-17T13:01:54Z</time>
      </trkpt>
      <trkpt lat="50.05012" lon="1.92091">
        <ele>7.9</ele>
        <time>2022-04-17T13:01:55Z</time>
      </trkpt>
      <trkpt lat="50.05012" lon="1.92088">
        <ele>7.9</ele>
        <time>2022-04-17T13:01:56Z</time>
      </trkpt>
      <trkpt lat="50.05012" lon="1.92085">
        <ele>7.9</ele>
        <time>2022-04-17T13:01:57Z</time>
      </trkpt>
      <trkpt lat="50.05012" lon="1.92084">
        <ele>7.9</ele>
        <time>2022-04-17T13:01:58Z</time>
      </trkpt>
      <trkpt lat="50.05012" lon="1.92082">
        <ele>7.9</ele>
        <time>2022-04-17T13:01:59Z</time>
      </trkpt>
      <trkpt lat="50.05012" lon="1.9208">
        <ele>7.9</ele>
        <time>2022-04-17T13:02:00Z</time>
      </trkpt>
      <trkpt lat="50.05012" lon="1.92078">
        <ele>7.9</ele>
        <time>2022-04-17T13:02:01Z</time>
      </trkpt>
      <trkpt lat="50.05012" lon="1.92076">
        <ele>7.9</ele>
        <time>2022-04-17T13:02:02Z</time>
      </trkpt>
      <trkpt lat="50.05012" lon="1.92074">
        <ele>7.9</ele>
        <time>2022-04-17T13:02:03Z</time>
      </trkpt>
      <trkpt lat="50.05012" lon="1.92072">
        <ele>7.9</ele>
        <time>2022-04-17T13:02:05Z</time>
      </trkpt>
      <trkpt lat="50.05012" lon="1.92069">
        <ele>7.9</ele>
        <time>2022-04-17T13:02:06Z</time>
      </trkpt>
      <trkpt lat="50.05012" lon="1.92068">
        <ele>7.9</ele>
        <time>2022-04-17T13:02:07Z</time>
      </trkpt>
      <trkpt lat="50.05013" lon="1.92066">
        <ele>7.9</ele>
        <time>2022-04-17T13:02:08Z</time>
      </trkpt>
      <trkpt lat="50.05013" lon="1.92064">
        <ele>7.9</ele>
        <time>2022-04-17T13:02:09Z</time>
      </trkpt>
      <trkpt lat="50.05013" lon="1.92062">
        <ele>7.9</ele>
        <time>2022-04-17T13:02:11Z</time>
      </trkpt>
      <trkpt lat="50.05013" lon="1.9206">
        <ele>7.9</ele>
        <time>2022-04-17T13:02:12Z</time>
      </trkpt>
      <trkpt lat="50.05014" lon="1.92058">
        <ele>7.9</ele>
        <time>2022-04-17T13:02:13Z</time>
      </trkpt>
      <trkpt lat="50.05014" lon="1.92057">
        <ele>7.9</ele>
        <time>2022-04-17T13:02:14Z</time>
      </trkpt>
      <trkpt lat="50.05014" lon="1.92055">
        <ele>7.9</ele>
        <time>2022-04-17T13:02:15Z</time>
      </trkpt>
      <trkpt lat="50.05014" lon="1.92054">
        <ele>7.9</ele>
        <time>2022-04-17T13:02:16Z</time>
      </trkpt>
      <trkpt lat="50.05014" lon="1.92052">
        <ele>7.9</ele>
        <time>2022-04-17T13:02:17Z</time>
      </trkpt>
      <trkpt lat="50.05014" lon="1.9205">
        <ele>7.9</ele>
        <time>2022-04-17T13:02:18Z</time>
      </trkpt>
      <trkpt lat="50.05014" lon="1.92048">
        <ele>7.9</ele>
        <time>2022-04-17T13:02:19Z</time>
      </trkpt>
      <trkpt lat="50.05015" lon="1.92046">
        <ele>7.9</ele>
        <time>2022-04-17T13:02:21Z</time>
      </trkpt>
      <trkpt lat="50.05015" lon="1.92044">
        <ele>7.9</ele>
        <time>2022-04-17T13:02:22Z</time>
      </trkpt>
      <trkpt lat="50.05015" lon="1.92042">
        <ele>7.9</ele>
        <time>2022-04-17T13:02:23Z</time>
      </trkpt>
      <trkpt lat="50.05015" lon="1.92041">
        <ele>7.9</ele>
        <time>2022-04-17T13:02:24Z</time>
      </trkpt>
      <trkpt lat="50.05015" lon="1.92039">
        <ele>7.9</ele>
        <time>2022-04-17T13:02:25Z</time>
      </trkpt>
      <trkpt lat="50.05015" lon="1.92037">
        <ele>7.9</ele>
        <time>2022-04-17T13:02:26Z</time>
      </trkpt>
      <trkpt lat="50.05015" lon="1.92035">
        <ele>7.9</ele>
        <time>2022-04-17T13:02:27Z</time>
      </trkpt>
      <trkpt lat="50.05014" lon="1.92032">
        <ele>7.9</ele>
        <time>2022-04-17T13:02:28Z</time>
      </trkpt>
      <trkpt lat="50.05014" lon="1.92031">
        <ele>7.9</ele>
        <time>2022-04-17T13:02:29Z</time>
      </trkpt>
      <trkpt lat="50.05014" lon="1.92029">
        <ele>7.9</ele>
        <time>2022-04-17T13:02:31Z</time>
      </trkpt>
      <trkpt lat="50.05013" lon="1.92028">
        <ele>7.9</ele>
        <time>2022-04-17T13:02:32Z</time>
      </trkpt>
      <trkpt lat="50.05013" lon="1.92026">
        <ele>7.9</ele>
        <time>2022-04-17T13:02:33Z</time>
      </trkpt>
      <trkpt lat="50.05013" lon="1.92025">
        <ele>7.9</ele>
        <time>2022-04-17T13:02:34Z</time>
      </trkpt>
      <trkpt lat="50.05012" lon="1.92023">
        <ele>7.9</ele>
        <time>2022-04-17T13:02:35Z</time>
      </trkpt>
      <trkpt lat="50.05012" lon="1.9202">
        <ele>7.9</ele>
        <time>2022-04-17T13:02:36Z</time>
      </trkpt>
      <trkpt lat="50.05011" lon="1.92018">
        <ele>7.9</ele>
        <time>2022-04-17T13:02:37Z</time>
      </trkpt>
      <trkpt lat="50.05011" lon="1.92016">
        <ele>7.9</ele>
        <time>2022-04-17T13:02:38Z</time>
      </trkpt>
      <trkpt lat="50.0501" lon="1.92015">
        <ele>7.9</ele>
        <time>2022-04-17T13:02:39Z</time>
      </trkpt>
      <trkpt lat="50.0501" lon="1.92013">
        <ele>7.9</ele>
        <time>2022-04-17T13:02:41Z</time>
      </trkpt>
      <trkpt lat="50.0501" lon="1.92011">
        <ele>7.8</ele>
        <time>2022-04-17T13:02:42Z</time>
      </trkpt>
      <trkpt lat="50.0501" lon="1.9201">
        <ele>7.8</ele>
        <time>2022-04-17T13:02:43Z</time>
      </trkpt>
      <trkpt lat="50.05009" lon="1.92007">
        <ele>7.8</ele>
        <time>2022-04-17T13:02:44Z</time>
      </trkpt>
      <trkpt lat="50.05009" lon="1.92005">
        <ele>7.8</ele>
        <time>2022-04-17T13:02:45Z</time>
      </trkpt>
      <trkpt lat="50.05009" lon="1.92004">
        <ele>7.8</ele>
        <time>2022-04-17T13:02:46Z</time>
      </trkpt>
      <trkpt lat="50.05009" lon="1.92003">
        <ele>7.8</ele>
        <time>2022-04-17T13:02:47Z</time>
      </trkpt>
      <trkpt lat="50.05009" lon="1.92001">
        <ele>7.8</ele>
        <time>2022-04-17T13:02:48Z</time>
      </trkpt>
      <trkpt lat="50.05009" lon="1.91999">
        <ele>7.8</ele>
        <time>2022-04-17T13:02:49Z</time>
      </trkpt>
      <trkpt lat="50.05008" lon="1.91997">
        <ele>7.8</ele>
        <time>2022-04-17T13:02:51Z</time>
      </trkpt>
      <trkpt lat="50.05008" lon="1.91995">
        <ele>7.8</ele>
        <time>2022-04-17T13:02:52Z</time>
      </trkpt>
      <trkpt lat="50.05008" lon="1.91994">
        <ele>7.8</ele>
        <time>2022-04-17T13:02:53Z</time>
      </trkpt>
      <trkpt lat="50.05007" lon="1.9199">
        <ele>7.8</ele>
        <time>2022-04-17T13:02:54Z</time>
      </trkpt>
      <trkpt lat="50.05007" lon="1.91989">
        <ele>7.8</ele>
        <time>2022-04-17T13:02:55Z</time>
      </trkpt>
      <trkpt lat="50.05007" lon="1.91987">
        <ele>7.8</ele>
        <time>2022-04-17T13:02:56Z</time>
      </trkpt>
      <trkpt lat="50.05006" lon="1.91986">
        <ele>7.8</ele>
        <time>2022-04-17T13:02:57Z</time>
      </trkpt>
      <trkpt lat="50.05006" lon="1.91984">
        <ele>7.8</ele>
        <time>2022-04-17T13:02:59Z</time>
      </trkpt>
      <trkpt lat="50.05005" lon="1.91983">
        <ele>7.8</ele>
        <time>2022-04-17T13:03:00Z</time>
      </trkpt>
      <trkpt lat="50.05005" lon="1.91981">
        <ele>7.8</ele>
        <time>2022-04-17T13:03:01Z</time>
      </trkpt>
      <trkpt lat="50.05004" lon="1.91978">
        <ele>7.9</ele>
        <time>2022-04-17T13:03:02Z</time>
      </trkpt>
      <trkpt lat="50.05004" lon="1.91975">
        <ele>7.9</ele>
        <time>2022-04-17T13:03:03Z</time>
      </trkpt>
      <trkpt lat="50.05003" lon="1.91974">
        <ele>7.9</ele>
        <time>2022-04-17T13:03:04Z</time>
      </trkpt>
      <trkpt lat="50.05003" lon="1.91972">
        <ele>7.9</ele>
        <time>2022-04-17T13:03:05Z</time>
      </trkpt>
      <trkpt lat="50.05003" lon="1.9197">
        <ele>7.9</ele>
        <time>2022-04-17T13:03:06Z</time>
      </trkpt>
      <trkpt lat="50.05004" lon="1.9197">
        <ele>7.9</ele>
        <time>2022-04-17T13:03:07Z</time>
      </trkpt>
      <trkpt lat="50.05005" lon="1.9197">
        <ele>7.9</ele>
        <time>2022-04-17T13:03:08Z</time>
      </trkpt>
      <trkpt lat="50.05006" lon="1.9197">
        <ele>7.9</ele>
        <time>2022-04-17T13:03:10Z</time>
      </trkpt>
      <trkpt lat="50.05006" lon="1.9197">
        <ele>7.9</ele>
        <time>2022-04-17T13:03:11Z</time>
      </trkpt>
      <trkpt lat="50.05007" lon="1.9197">
        <ele>7.9</ele>
        <time>2022-04-17T13:03:12Z</time>
      </trkpt>
      <trkpt lat="50.05007" lon="1.91969">
        <ele>7.9</ele>
        <time>2022-04-17T13:03:13Z</time>
      </trkpt>
      <trkpt lat="50.05008" lon="1.9197">
        <ele>7.9</ele>
        <time>2022-04-17T13:03:14Z</time>
      </trkpt>
      <trkpt lat="50.05008" lon="1.9197">
        <ele>7.9</ele>
        <time>2022-04-17T13:03:15Z</time>
      </trkpt>
      <trkpt lat="50.05009" lon="1.91971">
        <ele>7.9</ele>
        <time>2022-04-17T13:03:16Z</time>
      </trkpt>
      <trkpt lat="50.05009" lon="1.91971">
        <ele>7.9</ele>
        <time>2022-04-17T13:03:17Z</time>
      </trkpt>
      <trkpt lat="50.05009" lon="1.91972">
        <ele>7.9</ele>
        <time>2022-04-17T13:03:18Z</time>
      </trkpt>
      <trkpt lat="50.05009" lon="1.91972">
        <ele>7.9</ele>
        <time>2022-04-17T13:03:19Z</time>
      </trkpt>
      <trkpt lat="50.05009" lon="1.91972">
        <ele>7.9</ele>
        <time>2022-04-17T13:03:20Z</time>
      </trkpt>
      <trkpt lat="50.05009" lon="1.91973">
        <ele>7.9</ele>
        <time>2022-04-17T13:03:21Z</time>
      </trkpt>
      <trkpt lat="50.05009" lon="1.91973">
        <ele>7.9</ele>
        <time>2022-04-17T13:03:23Z</time>
      </trkpt>
      <trkpt lat="50.05009" lon="1.91973">
        <ele>7.9</ele>
        <time>2022-04-17T13:03:24Z</time>
      </trkpt>
      <trkpt lat="50.05009" lon="1.91973">
        <ele>7.9</ele>
        <time>2022-04-17T13:03:25Z</time>
      </trkpt>
      <trkpt lat="50.05008" lon="1.91973">
        <ele>7.9</ele>
        <time>2022-04-17T13:03:27Z</time>
      </trkpt>
      <trkpt lat="50.05007" lon="1.91973">
        <ele>7.9</ele>
        <time>2022-04-17T13:03:28Z</time>
      </trkpt>
      <trkpt lat="50.05007" lon="1.91973">
        <ele>7.9</ele>
        <time>2022-04-17T13:03:29Z</time>
      </trkpt>
      <trkpt lat="50.05006" lon="1.91973">
        <ele>7.9</ele>
        <time>2022-04-17T13:03:30Z</time>
      </trkpt>
      <trkpt lat="50.05005" lon="1.91973">
        <ele>7.9</ele>
        <time>2022-04-17T13:03:31Z</time>
      </trkpt>
      <trkpt lat="50.05005" lon="1.91974">
        <ele>7.9</ele>
        <time>2022-04-17T13:03:32Z</time>
      </trkpt>
      <trkpt lat="50.05004" lon="1.91974">
        <ele>7.9</ele>
        <time>2022-04-17T13:03:33Z</time>
      </trkpt>
      <trkpt lat="50.05003" lon="1.91974">
        <ele>7.9</ele>
        <time>2022-04-17T13:03:34Z</time>
      </trkpt>
      <trkpt lat="50.05003" lon="1.91974">
        <ele>7.9</ele>
        <time>2022-04-17T13:03:35Z</time>
      </trkpt>
      <trkpt lat="50.05002" lon="1.91974">
        <ele>7.9</ele>
        <time>2022-04-17T13:03:36Z</time>
      </trkpt>
      <trkpt lat="50.05002" lon="1.91974">
        <ele>7.9</ele>
        <time>2022-04-17T13:03:37Z</time>
      </trkpt>
      <trkpt lat="50.05002" lon="1.91974">
        <ele>7.9</ele>
        <time>2022-04-17T13:03:38Z</time>
      </trkpt>
      <trkpt lat="50.05002" lon="1.91974">
        <ele>7.9</ele>
        <time>2022-04-17T13:03:39Z</time>
      </trkpt>
      <trkpt lat="50.05002" lon="1.91974">
        <ele>7.9</ele>
        <time>2022-04-17T13:03:40Z</time>
      </trkpt>
      <trkpt lat="50.05002" lon="1.91974">
        <ele>7.9</ele>
        <time>2022-04-17T13:03:41Z</time>
      </trkpt>
      <trkpt lat="50.05002" lon="1.91974">
        <ele>7.9</ele>
        <time>2022-04-17T13:03:42Z</time>
      </trkpt>
      <trkpt lat="50.05002" lon="1.91974">
        <ele>7.9</ele>
        <time>2022-04-17T13:03:43Z</time>
      </trkpt>
      <trkpt lat="50.05002" lon="1.91974">
        <ele>7.9</ele>
        <time>2022-04-17T13:03:44Z</time>
      </trkpt>
      <trkpt lat="50.05002" lon="1.91975">
        <ele>7.9</ele>
        <time>2022-04-17T13:03:45Z</time>
      </trkpt>
      <trkpt lat="50.05002" lon="1.91975">
        <ele>7.9</ele>
        <time>2022-04-17T13:03:46Z</time>
      </trkpt>
      <trkpt lat="50.05002" lon="1.91975">
        <ele>7.9</ele>
        <time>2022-04-17T13:03:47Z</time>
      </trkpt>
      <trkpt lat="50.05002" lon="1.91975">
        <ele>7.9</ele>
        <time>2022-04-17T13:03:48Z</time>
      </trkpt>
      <trkpt lat="50.05002" lon="1.91975">
        <ele>7.9</ele>
        <time>2022-04-17T13:03:49Z</time>
      </trkpt>
      <trkpt lat="50.05002" lon="1.91975">
        <ele>7.9</ele>
        <time>2022-04-17T13:03:50Z</time>
      </trkpt>
      <trkpt lat="50.05002" lon="1.91975">
        <ele>7.9</ele>
        <time>2022-04-17T13:03:51Z</time>
      </trkpt>
      <trkpt lat="50.05002" lon="1.91975">
        <ele>7.9</ele>
        <time>2022-04-17T13:03:52Z</time>
      </trkpt>
      <trkpt lat="50.05002" lon="1.91975">
        <ele>7.9</ele>
        <time>2022-04-17T13:03:53Z</time>
      </trkpt>
      <trkpt lat="50.05002" lon="1.91975">
        <ele>7.9</ele>
        <time>2022-04-17T13:03:54Z</time>
      </trkpt>
      <trkpt lat="50.05002" lon="1.91975">
        <ele>7.9</ele>
        <time>2022-04-17T13:03:55Z</time>
      </trkpt>
      <trkpt lat="50.05002" lon="1.91975">
        <ele>7.9</ele>
        <time>2022-04-17T13:03:56Z</time>
      </trkpt>
      <trkpt lat="50.05002" lon="1.91975">
        <ele>7.9</ele>
        <time>2022-04-17T13:03:57Z</time>
      </trkpt>
      <trkpt lat="50.05002" lon="1.91975">
        <ele>7.9</ele>
        <time>2022-04-17T13:03:58Z</time>
      </trkpt>
      <trkpt lat="50.05002" lon="1.91975">
        <ele>7.9</ele>
        <time>2022-04-17T13:03:59Z</time>
      </trkpt>
      <trkpt lat="50.05002" lon="1.91975">
        <ele>7.9</ele>
        <time>2022-04-17T13:04:00Z</time>
      </trkpt>
      <trkpt lat="50.05002" lon="1.91975">
        <ele>7.9</ele>
        <time>2022-04-17T13:04:01Z</time>
      </trkpt>
      <trkpt lat="50.05002" lon="1.91975">
        <ele>7.9</ele>
        <time>2022-04-17T13:04:02Z</time>
      </trkpt>
      <trkpt lat="50.05002" lon="1.91975">
        <ele>7.9</ele>
        <time>2022-04-17T13:04:03Z</time>
      </trkpt>
      <trkpt lat="50.05002" lon="1.91975">
        <ele>7.9</ele>
        <time>2022-04-17T13:04:04Z</time>
      </trkpt>
      <trkpt lat="50.05002" lon="1.91975">
        <ele>7.9</ele>
        <time>2022-04-17T13:04:05Z</time>
      </trkpt>
      <trkpt lat="50.05002" lon="1.91975">
        <ele>7.9</ele>
        <time>2022-04-17T13:04:06Z</time>
      </trkpt>
      <trkpt lat="50.05002" lon="1.91975">
        <ele>7.9</ele>
        <time>2022-04-17T13:04:07Z</time>
      </trkpt>
      <trkpt lat="50.05002" lon="1.91975">
        <ele>7.9</ele>
        <time>2022-04-17T13:04:08Z</time>
      </trkpt>
      <trkpt lat="50.05002" lon="1.91975">
        <ele>7.9</ele>
        <time>2022-04-17T13:04:09Z</time>
      </trkpt>
      <trkpt lat="50.05002" lon="1.91975">
        <ele>7.9</ele>
        <time>2022-04-17T13:04:10Z</time>
      </trkpt>
      <trkpt lat="50.05002" lon="1.91975">
        <ele>7.9</ele>
        <time>2022-04-17T13:04:11Z</time>
      </trkpt>
      <trkpt lat="50.05002" lon="1.91975">
        <ele>7.9</ele>
        <time>2022-04-17T13:04:12Z</time>
      </trkpt>
      <trkpt lat="50.05002" lon="1.91975">
        <ele>7.9</ele>
        <time>2022-04-17T13:04:13Z</time>
      </trkpt>
      <trkpt lat="50.05002" lon="1.91975">
        <ele>7.9</ele>
        <time>2022-04-17T13:04:14Z</time>
      </trkpt>
      <trkpt lat="50.05002" lon="1.91975">
        <ele>7.9</ele>
        <time>2022-04-17T13:04:15Z</time>
      </trkpt>
      <trkpt lat="50.05002" lon="1.91975">
        <ele>7.9</ele>
        <time>2022-04-17T13:04:16Z</time>
      </trkpt>
      <trkpt lat="50.05002" lon="1.91975">
        <ele>7.9</ele>
        <time>2022-04-17T13:04:17Z</time>
      </trkpt>
      <trkpt lat="50.05002" lon="1.91975">
        <ele>7.9</ele>
        <time>2022-04-17T13:04:18Z</time>
      </trkpt>
      <trkpt lat="50.05002" lon="1.91975">
        <ele>7.9</ele>
        <time>2022-04-17T13:04:19Z</time>
      </trkpt>
      <trkpt lat="50.05002" lon="1.91975">
        <ele>7.9</ele>
        <time>2022-04-17T13:04:20Z</time>
      </trkpt>
      <trkpt lat="50.05002" lon="1.91975">
        <ele>7.9</ele>
        <time>2022-04-17T13:04:21Z</time>
      </trkpt>
      <trkpt lat="50.05002" lon="1.91975">
        <ele>7.9</ele>
        <time>2022-04-17T13:04:22Z</time>
      </trkpt>
      <trkpt lat="50.05002" lon="1.91975">
        <ele>7.9</ele>
        <time>2022-04-17T13:04:23Z</time>
      </trkpt>
      <trkpt lat="50.05002" lon="1.91975">
        <ele>7.9</ele>
        <time>2022-04-17T13:04:24Z</time>
      </trkpt>
      <trkpt lat="50.05002" lon="1.91975">
        <ele>7.9</ele>
        <time>2022-04-17T13:04:25Z</time>
      </trkpt>
      <trkpt lat="50.05002" lon="1.91975">
        <ele>7.9</ele>
        <time>2022-04-17T13:04:26Z</time>
      </trkpt>
      <trkpt lat="50.05002" lon="1.91975">
        <ele>7.9</ele>
        <time>2022-04-17T13:04:27Z</time>
      </trkpt>
      <trkpt lat="50.05002" lon="1.91975">
        <ele>7.9</ele>
        <time>2022-04-17T13:04:28Z</time>
      </trkpt>
      <trkpt lat="50.05002" lon="1.91975">
        <ele>7.9</ele>
        <time>2022-04-17T13:04:29Z</time>
      </trkpt>
      <trkpt lat="50.05002" lon="1.91975">
        <ele>7.9</ele>
        <time>2022-04-17T13:04:30Z</time>
      </trkpt>
      <trkpt lat="50.05002" lon="1.91975">
        <ele>7.9</ele>
        <time>2022-04-17T13:04:31Z</time>
      </trkpt>
      <trkpt lat="50.05002" lon="1.91975">
        <ele>7.9</ele>
        <time>2022-04-17T13:04:32Z</time>
      </trkpt>
      <trkpt lat="50.05002" lon="1.91975">
        <ele>7.9</ele>
        <time>2022-04-17T13:04:33Z</time>
      </trkpt>
      <trkpt lat="50.05002" lon="1.91975">
        <ele>7.9</ele>
        <time>2022-04-17T13:04:34Z</time>
      </trkpt>
      <trkpt lat="50.05002" lon="1.91975">
        <ele>7.9</ele>
        <time>2022-04-17T13:04:35Z</time>
      </trkpt>
      <trkpt lat="50.05002" lon="1.91975">
        <ele>7.9</ele>
        <time>2022-04-17T13:04:36Z</time>
      </trkpt>
      <trkpt lat="50.05002" lon="1.91975">
        <ele>7.9</ele>
        <time>2022-04-17T13:04:37Z</time>
      </trkpt>
      <trkpt lat="50.05002" lon="1.91975">
        <ele>7.9</ele>
        <time>2022-04-17T13:04:38Z</time>
      </trkpt>
      <trkpt lat="50.05002" lon="1.91975">
        <ele>7.9</ele>
        <time>2022-04-17T13:04:39Z</time>
      </trkpt>
      <trkpt lat="50.05002" lon="1.91975">
        <ele>7.9</ele>
        <time>2022-04-17T13:04:40Z</time>
      </trkpt>
      <trkpt lat="50.05002" lon="1.91975">
        <ele>7.9</ele>
        <time>2022-04-17T13:04:41Z</time>
      </trkpt>
      <trkpt lat="50.05002" lon="1.91975">
        <ele>7.9</ele>
        <time>2022-04-17T13:04:42Z</time>
      </trkpt>
      <trkpt lat="50.05002" lon="1.91975">
        <ele>7.9</ele>
        <time>2022-04-17T13:04:43Z</time>
      </trkpt>
      <trkpt lat="50.05002" lon="1.91975">
        <ele>7.9</ele>
        <time>2022-04-17T13:04:44Z</time>
      </trkpt>
      <trkpt lat="50.05002" lon="1.91975">
        <ele>7.9</ele>
        <time>2022-04-17T13:04:45Z</time>
      </trkpt>
      <trkpt lat="50.05002" lon="1.91975">
        <ele>7.9</ele>
        <time>2022-04-17T13:04:46Z</time>
      </trkpt>
      <trkpt lat="50.05002" lon="1.91975">
        <ele>7.9</ele>
        <time>2022-04-17T13:04:47Z</time>
      </trkpt>
      <trkpt lat="50.05002" lon="1.91975">
        <ele>7.9</ele>
        <time>2022-04-17T13:04:48Z</time>
      </trkpt>
      <trkpt lat="50.05002" lon="1.91975">
        <ele>7.9</ele>
        <time>2022-04-17T13:04:49Z</time>
      </trkpt>
      <trkpt lat="50.05002" lon="1.91975">
        <ele>7.9</ele>
        <time>2022-04-17T13:04:50Z</time>
      </trkpt>
      <trkpt lat="50.05002" lon="1.91975">
        <ele>7.9</ele>
        <time>2022-04-17T13:04:51Z</time>
      </trkpt>
      <trkpt lat="50.05002" lon="1.91975">
        <ele>7.9</ele>
        <time>2022-04-17T13:04:52Z</time>
      </trkpt>
      <trkpt lat="50.05002" lon="1.91975">
        <ele>7.9</ele>
        <time>2022-04-17T13:04:53Z</time>
      </trkpt>
      <trkpt lat="50.05002" lon="1.91975">
        <ele>7.9</ele>
        <time>2022-04-17T13:04:54Z</time>
      </trkpt>
      <trkpt lat="50.05002" lon="1.91975">
        <ele>7.9</ele>
        <time>2022-04-17T13:04:55Z</time>
      </trkpt>
      <trkpt lat="50.05002" lon="1.91975">
        <ele>7.9</ele>
        <time>2022-04-17T13:04:56Z</time>
      </trkpt>
      <trkpt lat="50.05002" lon="1.91975">
        <ele>7.9</ele>
        <time>2022-04-17T13:04:57Z</time>
      </trkpt>
      <trkpt lat="50.05002" lon="1.91975">
        <ele>7.9</ele>
        <time>2022-04-17T13:04:58Z</time>
      </trkpt>
      <trkpt lat="50.05002" lon="1.91975">
        <ele>7.9</ele>
        <time>2022-04-17T13:04:59Z</time>
      </trkpt>
      <trkpt lat="50.05002" lon="1.91975">
        <ele>7.9</ele>
        <time>2022-04-17T13:05:00Z</time>
      </trkpt>
      <trkpt lat="50.05002" lon="1.91975">
        <ele>7.9</ele>
        <time>2022-04-17T13:05:01Z</time>
      </trkpt>
      <trkpt lat="50.05002" lon="1.91975">
        <ele>7.9</ele>
        <time>2022-04-17T13:05:02Z</time>
      </trkpt>
      <trkpt lat="50.05002" lon="1.91975">
        <ele>7.9</ele>
        <time>2022-04-17T13:05:03Z</time>
      </trkpt>
      <trkpt lat="50.05002" lon="1.91975">
        <ele>7.9</ele>
        <time>2022-04-17T13:05:04Z</time>
      </trkpt>
      <trkpt lat="50.05002" lon="1.91975">
        <ele>7.9</ele>
        <time>2022-04-17T13:05:05Z</time>
      </trkpt>
      <trkpt lat="50.05002" lon="1.91975">
        <ele>7.9</ele>
        <time>2022-04-17T13:05:06Z</time>
      </trkpt>
      <trkpt lat="50.05002" lon="1.91975">
        <ele>7.9</ele>
        <time>2022-04-17T13:05:07Z</time>
      </trkpt>
      <trkpt lat="50.05002" lon="1.91975">
        <ele>7.9</ele>
        <time>2022-04-17T13:05:08Z</time>
      </trkpt>
      <trkpt lat="50.05002" lon="1.91975">
        <ele>7.9</ele>
        <time>2022-04-17T13:05:09Z</time>
      </trkpt>
      <trkpt lat="50.05002" lon="1.91975">
        <ele>7.9</ele>
        <time>2022-04-17T13:05:10Z</time>
      </trkpt>
      <trkpt lat="50.05002" lon="1.91975">
        <ele>7.9</ele>
        <time>2022-04-17T13:05:11Z</time>
      </trkpt>
      <trkpt lat="50.05002" lon="1.91975">
        <ele>7.9</ele>
        <time>2022-04-17T13:05:12Z</time>
      </trkpt>
      <trkpt lat="50.05002" lon="1.91975">
        <ele>7.9</ele>
        <time>2022-04-17T13:05:13Z</time>
      </trkpt>
      <trkpt lat="50.05002" lon="1.91975">
        <ele>7.9</ele>
        <time>2022-04-17T13:05:14Z</time>
      </trkpt>
      <trkpt lat="50.05002" lon="1.91975">
        <ele>7.9</ele>
        <time>2022-04-17T13:05:15Z</time>
      </trkpt>
      <trkpt lat="50.05002" lon="1.91975">
        <ele>7.9</ele>
        <time>2022-04-17T13:05:16Z</time>
      </trkpt>
      <trkpt lat="50.05002" lon="1.91975">
        <ele>7.9</ele>
        <time>2022-04-17T13:05:17Z</time>
      </trkpt>
      <trkpt lat="50.05002" lon="1.91975">
        <ele>7.9</ele>
        <time>2022-04-17T13:05:18Z</time>
      </trkpt>
      <trkpt lat="50.05002" lon="1.91975">
        <ele>7.9</ele>
        <time>2022-04-17T13:05:19Z</time>
      </trkpt>
      <trkpt lat="50.05002" lon="1.91975">
        <ele>7.9</ele>
        <time>2022-04-17T13:05:20Z</time>
      </trkpt>
      <trkpt lat="50.05002" lon="1.91975">
        <ele>7.9</ele>
        <time>2022-04-17T13:05:21Z</time>
      </trkpt>
      <trkpt lat="50.05002" lon="1.91975">
        <ele>7.9</ele>
        <time>2022-04-17T13:05:22Z</time>
      </trkpt>
      <trkpt lat="50.05002" lon="1.91975">
        <ele>7.9</ele>
        <time>2022-04-17T13:05:23Z</time>
      </trkpt>
      <trkpt lat="50.05002" lon="1.91975">
        <ele>7.9</ele>
        <time>2022-04-17T13:05:24Z</time>
      </trkpt>
      <trkpt lat="50.05002" lon="1.91975">
        <ele>7.9</ele>
        <time>2022-04-17T13:05:25Z</time>
      </trkpt>
      <trkpt lat="50.05002" lon="1.91975">
        <ele>7.9</ele>
        <time>2022-04-17T13:05:26Z</time>
      </trkpt>
      <trkpt lat="50.05002" lon="1.91975">
        <ele>7.9</ele>
        <time>2022-04-17T13:05:27Z</time>
      </trkpt>
      <trkpt lat="50.05002" lon="1.91975">
        <ele>7.9</ele>
        <time>2022-04-17T13:05:28Z</time>
      </trkpt>
      <trkpt lat="50.05002" lon="1.91975">
        <ele>7.9</ele>
        <time>2022-04-17T13:05:29Z</time>
      </trkpt>
      <trkpt lat="50.05002" lon="1.91975">
        <ele>7.9</ele>
        <time>2022-04-17T13:05:30Z</time>
      </trkpt>
      <trkpt lat="50.05002" lon="1.91975">
        <ele>7.9</ele>
        <time>2022-04-17T13:05:31Z</time>
      </trkpt>
      <trkpt lat="50.05002" lon="1.91975">
        <ele>7.9</ele>
        <time>2022-04-17T13:05:32Z</time>
      </trkpt>
      <trkpt lat="50.05002" lon="1.91975">
        <ele>7.9</ele>
        <time>2022-04-17T13:05:33Z</time>
      </trkpt>
      <trkpt lat="50.05002" lon="1.91975">
        <ele>7.9</ele>
        <time>2022-04-17T13:05:34Z</time>
      </trkpt>
      <trkpt lat="50.05002" lon="1.91975">
        <ele>7.9</ele>
        <time>2022-04-17T13:05:35Z</time>
      </trkpt>
      <trkpt lat="50.05002" lon="1.91975">
        <ele>7.9</ele>
        <time>2022-04-17T13:05:36Z</time>
      </trkpt>
      <trkpt lat="50.05002" lon="1.91975">
        <ele>7.9</ele>
        <time>2022-04-17T13:05:37Z</time>
      </trkpt>
      <trkpt lat="50.05002" lon="1.91975">
        <ele>7.9</ele>
        <time>2022-04-17T13:05:38Z</time>
      </trkpt>
      <trkpt lat="50.05002" lon="1.91975">
        <ele>7.9</ele>
        <time>2022-04-17T13:05:39Z</time>
      </trkpt>
      <trkpt lat="50.05002" lon="1.91975">
        <ele>7.9</ele>
        <time>2022-04-17T13:05:40Z</time>
      </trkpt>
      <trkpt lat="50.05002" lon="1.91975">
        <ele>7.9</ele>
        <time>2022-04-17T13:05:41Z</time>
      </trkpt>
      <trkpt lat="50.05002" lon="1.91975">
        <ele>7.9</ele>
        <time>2022-04-17T13:05:42Z</time>
      </trkpt>
      <trkpt lat="50.05002" lon="1.91975">
        <ele>7.9</ele>
        <time>2022-04-17T13:05:43Z</time>
      </trkpt>
      <trkpt lat="50.05002" lon="1.91975">
        <ele>7.9</ele>
        <time>2022-04-17T13:05:44Z</time>
      </trkpt>
      <trkpt lat="50.05002" lon="1.91975">
        <ele>7.9</ele>
        <time>2022-04-17T13:05:45Z</time>
      </trkpt>
      <trkpt lat="50.05002" lon="1.91975">
        <ele>7.9</ele>
        <time>2022-04-17T13:05:46Z</time>
      </trkpt>
      <trkpt lat="50.05002" lon="1.91975">
        <ele>7.9</ele>
        <time>2022-04-17T13:05:47Z</time>
      </trkpt>
      <trkpt lat="50.05002" lon="1.91975">
        <ele>7.9</ele>
        <time>2022-04-17T13:05:48Z</time>
      </trkpt>
      <trkpt lat="50.05002" lon="1.91975">
        <ele>7.9</ele>
        <time>2022-04-17T13:05:49Z</time>
      </trkpt>
      <trkpt lat="50.05002" lon="1.91975">
        <ele>7.9</ele>
        <time>2022-04-17T13:05:50Z</time>
      </trkpt>
      <trkpt lat="50.05002" lon="1.91975">
        <ele>7.9</ele>
        <time>2022-04-17T13:05:51Z</time>
      </trkpt>
      <trkpt lat="50.05002" lon="1.91975">
        <ele>7.9</ele>
        <time>2022-04-17T13:05:52Z</time>
      </trkpt>
      <trkpt lat="50.05002" lon="1.91975">
        <ele>7.9</ele>
        <time>2022-04-17T13:05:53Z</time>
      </trkpt>
      <trkpt lat="50.05002" lon="1.91975">
        <ele>7.9</ele>
        <time>2022-04-17T13:05:54Z</time>
      </trkpt>
      <trkpt lat="50.05002" lon="1.91975">
        <ele>7.9</ele>
        <time>2022-04-17T13:05:55Z</time>
      </trkpt>
      <trkpt lat="50.05002" lon="1.91975">
        <ele>7.9</ele>
        <time>2022-04-17T13:05:56Z</time>
      </trkpt>
      <trkpt lat="50.05002" lon="1.91975">
        <ele>7.9</ele>
        <time>2022-04-17T13:05:57Z</time>
      </trkpt>
      <trkpt lat="50.05" lon="1.91975">
        <ele>7.9</ele>
        <time>2022-04-17T13:05:58Z</time>
      </trkpt>
      <trkpt lat="50.04997" lon="1.91976">
        <ele>7.9</ele>
        <time>2022-04-17T13:05:59Z</time>
      </trkpt>
      <trkpt lat="50.04996" lon="1.91975">
        <ele>7.9</ele>
        <time>2022-04-17T13:06:00Z</time>
      </trkpt>
      <trkpt lat="50.04995" lon="1.91975">
        <ele>7.9</ele>
        <time>2022-04-17T13:06:01Z</time>
      </trkpt>
      <trkpt lat="50.04995" lon="1.91973">
        <ele>7.9</ele>
        <time>2022-04-17T13:06:03Z</time>
      </trkpt>
      <trkpt lat="50.04995" lon="1.91974">
        <ele>7.9</ele>
        <time>2022-04-17T13:06:04Z</time>
      </trkpt>
      <trkpt lat="50.04995" lon="1.91973">
        <ele>7.9</ele>
        <time>2022-04-17T13:06:05Z</time>
      </trkpt>
      <trkpt lat="50.04995" lon="1.91971">
        <ele>7.9</ele>
        <time>2022-04-17T13:06:06Z</time>
      </trkpt>
      <trkpt lat="50.04995" lon="1.91969">
        <ele>7.9</ele>
        <time>2022-04-17T13:06:07Z</time>
      </trkpt>
      <trkpt lat="50.04995" lon="1.91964">
        <ele>7.9</ele>
        <time>2022-04-17T13:06:09Z</time>
      </trkpt>
      <trkpt lat="50.04994" lon="1.91961">
        <ele>7.9</ele>
        <time>2022-04-17T13:06:10Z</time>
      </trkpt>
      <trkpt lat="50.04995" lon="1.9196">
        <ele>7.9</ele>
        <time>2022-04-17T13:06:11Z</time>
      </trkpt>
      <trkpt lat="50.04995" lon="1.91958">
        <ele>7.9</ele>
        <time>2022-04-17T13:06:12Z</time>
      </trkpt>
      <trkpt lat="50.04996" lon="1.91953">
        <ele>7.9</ele>
        <time>2022-04-17T13:06:14Z</time>
      </trkpt>
      <trkpt lat="50.04996" lon="1.9195">
        <ele>7.9</ele>
        <time>2022-04-17T13:06:15Z</time>
      </trkpt>
      <trkpt lat="50.04996" lon="1.91948">
        <ele>7.8</ele>
        <time>2022-04-17T13:06:16Z</time>
      </trkpt>
      <trkpt lat="50.04996" lon="1.91946">
        <ele>7.8</ele>
        <time>2022-04-17T13:06:17Z</time>
      </trkpt>
      <trkpt lat="50.04996" lon="1.91946">
        <ele>7.8</ele>
        <time>2022-04-17T13:06:18Z</time>
      </trkpt>
      <trkpt lat="50.04996" lon="1.91945">
        <ele>7.8</ele>
        <time>2022-04-17T13:06:19Z</time>
      </trkpt>
      <trkpt lat="50.04996" lon="1.91944">
        <ele>7.8</ele>
        <time>2022-04-17T13:06:21Z</time>
      </trkpt>
      <trkpt lat="50.04996" lon="1.91943">
        <ele>7.8</ele>
        <time>2022-04-17T13:06:22Z</time>
      </trkpt>
      <trkpt lat="50.04996" lon="1.91942">
        <ele>7.8</ele>
        <time>2022-04-17T13:06:23Z</time>
      </trkpt>
      <trkpt lat="50.04996" lon="1.9194">
        <ele>7.8</ele>
        <time>2022-04-17T13:06:24Z</time>
      </trkpt>
      <trkpt lat="50.04996" lon="1.91937">
        <ele>7.8</ele>
        <time>2022-04-17T13:06:25Z</time>
      </trkpt>
      <trkpt lat="50.04996" lon="1.91935">
        <ele>7.8</ele>
        <time>2022-04-17T13:06:26Z</time>
      </trkpt>
      <trkpt lat="50.04996" lon="1.91934">
        <ele>7.8</ele>
        <time>2022-04-17T13:06:27Z</time>
      </trkpt>
      <trkpt lat="50.04996" lon="1.91933">
        <ele>7.8</ele>
        <time>2022-04-17T13:06:29Z</time>
      </trkpt>
      <trkpt lat="50.04996" lon="1.91932">
        <ele>7.8</ele>
        <time>2022-04-17T13:06:30Z</time>
      </trkpt>
      <trkpt lat="50.04997" lon="1.91928">
        <ele>7.8</ele>
        <time>2022-04-17T13:06:31Z</time>
      </trkpt>
      <trkpt lat="50.04997" lon="1.91926">
        <ele>7.8</ele>
        <time>2022-04-17T13:06:32Z</time>
      </trkpt>
      <trkpt lat="50.04997" lon="1.91921">
        <ele>7.8</ele>
        <time>2022-04-17T13:06:34Z</time>
      </trkpt>
      <trkpt lat="50.04997" lon="1.9192">
        <ele>7.8</ele>
        <time>2022-04-17T13:06:35Z</time>
      </trkpt>
      <trkpt lat="50.04997" lon="1.91918">
        <ele>7.7</ele>
        <time>2022-04-17T13:06:36Z</time>
      </trkpt>
      <trkpt lat="50.04997" lon="1.91916">
        <ele>7.7</ele>
        <time>2022-04-17T13:06:37Z</time>
      </trkpt>
      <trkpt lat="50.04998" lon="1.91913">
        <ele>7.7</ele>
        <time>2022-04-17T13:06:38Z</time>
      </trkpt>
      <trkpt lat="50.04998" lon="1.9191">
        <ele>7.7</ele>
        <time>2022-04-17T13:06:39Z</time>
      </trkpt>
      <trkpt lat="50.04999" lon="1.91908">
        <ele>7.7</ele>
        <time>2022-04-17T13:06:40Z</time>
      </trkpt>
      <trkpt lat="50.04999" lon="1.91905">
        <ele>7.7</ele>
        <time>2022-04-17T13:06:41Z</time>
      </trkpt>
      <trkpt lat="50.05" lon="1.91901">
        <ele>7.7</ele>
        <time>2022-04-17T13:06:43Z</time>
      </trkpt>
      <trkpt lat="50.05" lon="1.91899">
        <ele>7.7</ele>
        <time>2022-04-17T13:06:44Z</time>
      </trkpt>
      <trkpt lat="50.05" lon="1.91897">
        <ele>7.7</ele>
        <time>2022-04-17T13:06:45Z</time>
      </trkpt>
      <trkpt lat="50.05001" lon="1.91895">
        <ele>7.7</ele>
        <time>2022-04-17T13:06:46Z</time>
      </trkpt>
      <trkpt lat="50.05001" lon="1.91893">
        <ele>7.7</ele>
        <time>2022-04-17T13:06:47Z</time>
      </trkpt>
      <trkpt lat="50.05001" lon="1.9189">
        <ele>7.7</ele>
        <time>2022-04-17T13:06:48Z</time>
      </trkpt>
      <trkpt lat="50.05001" lon="1.91889">
        <ele>7.7</ele>
        <time>2022-04-17T13:06:49Z</time>
      </trkpt>
      <trkpt lat="50.05001" lon="1.91887">
        <ele>7.7</ele>
        <time>2022-04-17T13:06:50Z</time>
      </trkpt>
      <trkpt lat="50.05002" lon="1.91886">
        <ele>7.7</ele>
        <time>2022-04-17T13:06:51Z</time>
      </trkpt>
      <trkpt lat="50.05002" lon="1.91884">
        <ele>7.7</ele>
        <time>2022-04-17T13:06:52Z</time>
      </trkpt>
      <trkpt lat="50.05002" lon="1.91881">
        <ele>7.7</ele>
        <time>2022-04-17T13:06:53Z</time>
      </trkpt>
      <trkpt lat="50.05002" lon="1.91879">
        <ele>7.7</ele>
        <time>2022-04-17T13:06:54Z</time>
      </trkpt>
      <trkpt lat="50.05002" lon="1.91877">
        <ele>7.7</ele>
        <time>2022-04-17T13:06:56Z</time>
      </trkpt>
      <trkpt lat="50.05002" lon="1.91876">
        <ele>7.7</ele>
        <time>2022-04-17T13:06:57Z</time>
      </trkpt>
      <trkpt lat="50.05002" lon="1.91873">
        <ele>7.7</ele>
        <time>2022-04-17T13:06:58Z</time>
      </trkpt>
      <trkpt lat="50.05002" lon="1.91872">
        <ele>7.7</ele>
        <time>2022-04-17T13:06:59Z</time>
      </trkpt>
      <trkpt lat="50.05001" lon="1.91871">
        <ele>7.7</ele>
        <time>2022-04-17T13:07:00Z</time>
      </trkpt>
      <trkpt lat="50.05001" lon="1.91867">
        <ele>7.7</ele>
        <time>2022-04-17T13:07:01Z</time>
      </trkpt>
      <trkpt lat="50.05001" lon="1.91866">
        <ele>7.7</ele>
        <time>2022-04-17T13:07:02Z</time>
      </trkpt>
      <trkpt lat="50.05" lon="1.91864">
        <ele>7.7</ele>
        <time>2022-04-17T13:07:03Z</time>
      </trkpt>
      <trkpt lat="50.05" lon="1.91861">
        <ele>7.7</ele>
        <time>2022-04-17T13:07:04Z</time>
      </trkpt>
      <trkpt lat="50.04999" lon="1.9186">
        <ele>7.7</ele>
        <time>2022-04-17T13:07:05Z</time>
      </trkpt>
      <trkpt lat="50.04999" lon="1.91859">
        <ele>7.7</ele>
        <time>2022-04-17T13:07:06Z</time>
      </trkpt>
      <trkpt lat="50.04998" lon="1.91855">
        <ele>7.7</ele>
        <time>2022-04-17T13:07:07Z</time>
      </trkpt>
      <trkpt lat="50.04997" lon="1.91853">
        <ele>7.7</ele>
        <time>2022-04-17T13:07:09Z</time>
      </trkpt>
      <trkpt lat="50.04997" lon="1.91852">
        <ele>7.7</ele>
        <time>2022-04-17T13:07:10Z</time>
      </trkpt>
      <trkpt lat="50.04997" lon="1.9185">
        <ele>7.7</ele>
        <time>2022-04-17T13:07:11Z</time>
      </trkpt>
      <trkpt lat="50.04996" lon="1.91848">
        <ele>7.7</ele>
        <time>2022-04-17T13:07:12Z</time>
      </trkpt>
      <trkpt lat="50.04996" lon="1.91845">
        <ele>7.7</ele>
        <time>2022-04-17T13:07:13Z</time>
      </trkpt>
      <trkpt lat="50.04995" lon="1.91843">
        <ele>7.7</ele>
        <time>2022-04-17T13:07:14Z</time>
      </trkpt>
      <trkpt lat="50.04995" lon="1.91842">
        <ele>7.7</ele>
        <time>2022-04-17T13:07:15Z</time>
      </trkpt>
      <trkpt lat="50.04995" lon="1.9184">
        <ele>7.7</ele>
        <time>2022-04-17T13:07:17Z</time>
      </trkpt>
      <trkpt lat="50.04995" lon="1.91838">
        <ele>7.7</ele>
        <time>2022-04-17T13:07:18Z</time>
      </trkpt>
      <trkpt lat="50.04995" lon="1.91835">
        <ele>7.7</ele>
        <time>2022-04-17T13:07:19Z</time>
      </trkpt>
      <trkpt lat="50.04995" lon="1.91834">
        <ele>7.7</ele>
        <time>2022-04-17T13:07:20Z</time>
      </trkpt>
      <trkpt lat="50.04995" lon="1.91831">
        <ele>7.7</ele>
        <time>2022-04-17T13:07:21Z</time>
      </trkpt>
      <trkpt lat="50.04995" lon="1.91829">
        <ele>7.7</ele>
        <time>2022-04-17T13:07:23Z</time>
      </trkpt>
      <trkpt lat="50.04995" lon="1.91826">
        <ele>7.7</ele>
        <time>2022-04-17T13:07:24Z</time>
      </trkpt>
      <trkpt lat="50.04995" lon="1.91825">
        <ele>7.7</ele>
        <time>2022-04-17T13:07:25Z</time>
      </trkpt>
      <trkpt lat="50.04995" lon="1.91821">
        <ele>7.7</ele>
        <time>2022-04-17T13:07:26Z</time>
      </trkpt>
      <trkpt lat="50.04995" lon="1.9182">
        <ele>7.7</ele>
        <time>2022-04-17T13:07:27Z</time>
      </trkpt>
      <trkpt lat="50.04995" lon="1.91818">
        <ele>7.7</ele>
        <time>2022-04-17T13:07:28Z</time>
      </trkpt>
      <trkpt lat="50.04995" lon="1.91817">
        <ele>7.7</ele>
        <time>2022-04-17T13:07:29Z</time>
      </trkpt>
      <trkpt lat="50.04995" lon="1.91815">
        <ele>7.7</ele>
        <time>2022-04-17T13:07:30Z</time>
      </trkpt>
      <trkpt lat="50.04995" lon="1.91813">
        <ele>7.7</ele>
        <time>2022-04-17T13:07:31Z</time>
      </trkpt>
      <trkpt lat="50.04996" lon="1.9181">
        <ele>7.7</ele>
        <time>2022-04-17T13:07:32Z</time>
      </trkpt>
      <trkpt lat="50.04996" lon="1.91808">
        <ele>7.7</ele>
        <time>2022-04-17T13:07:34Z</time>
      </trkpt>
      <trkpt lat="50.04996" lon="1.91806">
        <ele>7.7</ele>
        <time>2022-04-17T13:07:35Z</time>
      </trkpt>
      <trkpt lat="50.04996" lon="1.91804">
        <ele>7.7</ele>
        <time>2022-04-17T13:07:36Z</time>
      </trkpt>
      <trkpt lat="50.04996" lon="1.91803">
        <ele>7.7</ele>
        <time>2022-04-17T13:07:37Z</time>
      </trkpt>
      <trkpt lat="50.04997" lon="1.918">
        <ele>7.7</ele>
        <time>2022-04-17T13:07:38Z</time>
      </trkpt>
      <trkpt lat="50.04997" lon="1.91799">
        <ele>7.7</ele>
        <time>2022-04-17T13:07:40Z</time>
      </trkpt>
      <trkpt lat="50.04997" lon="1.91796">
        <ele>7.7</ele>
        <time>2022-04-17T13:07:41Z</time>
      </trkpt>
      <trkpt lat="50.04998" lon="1.91794">
        <ele>7.7</ele>
        <time>2022-04-17T13:07:42Z</time>
      </trkpt>
      <trkpt lat="50.04998" lon="1.91791">
        <ele>7.7</ele>
        <time>2022-04-17T13:07:43Z</time>
      </trkpt>
      <trkpt lat="50.04998" lon="1.9179">
        <ele>7.7</ele>
        <time>2022-04-17T13:07:44Z</time>
      </trkpt>
      <trkpt lat="50.04998" lon="1.91788">
        <ele>7.7</ele>
        <time>2022-04-17T13:07:45Z</time>
      </trkpt>
      <trkpt lat="50.04998" lon="1.91786">
        <ele>7.7</ele>
        <time>2022-04-17T13:07:47Z</time>
      </trkpt>
      <trkpt lat="50.04998" lon="1.91785">
        <ele>7.7</ele>
        <time>2022-04-17T13:07:48Z</time>
      </trkpt>
      <trkpt lat="50.04999" lon="1.91781">
        <ele>7.7</ele>
        <time>2022-04-17T13:07:49Z</time>
      </trkpt>
      <trkpt lat="50.04999" lon="1.9178">
        <ele>7.7</ele>
        <time>2022-04-17T13:07:50Z</time>
      </trkpt>
      <trkpt lat="50.04999" lon="1.91779">
        <ele>7.7</ele>
        <time>2022-04-17T13:07:51Z</time>
      </trkpt>
      <trkpt lat="50.05" lon="1.91777">
        <ele>7.7</ele>
        <time>2022-04-17T13:07:52Z</time>
      </trkpt>
      <trkpt lat="50.05" lon="1.91775">
        <ele>7.7</ele>
        <time>2022-04-17T13:07:53Z</time>
      </trkpt>
      <trkpt lat="50.05001" lon="1.91773">
        <ele>7.7</ele>
        <time>2022-04-17T13:07:55Z</time>
      </trkpt>
      <trkpt lat="50.05001" lon="1.9177">
        <ele>7.7</ele>
        <time>2022-04-17T13:07:56Z</time>
      </trkpt>
      <trkpt lat="50.05001" lon="1.91768">
        <ele>7.7</ele>
        <time>2022-04-17T13:07:57Z</time>
      </trkpt>
      <trkpt lat="50.05001" lon="1.91767">
        <ele>7.7</ele>
        <time>2022-04-17T13:07:58Z</time>
      </trkpt>
      <trkpt lat="50.05001" lon="1.91766">
        <ele>7.7</ele>
        <time>2022-04-17T13:07:59Z</time>
      </trkpt>
      <trkpt lat="50.05002" lon="1.91764">
        <ele>7.7</ele>
        <time>2022-04-17T13:08:00Z</time>
      </trkpt>
      <trkpt lat="50.05002" lon="1.91762">
        <ele>7.7</ele>
        <time>2022-04-17T13:08:02Z</time>
      </trkpt>
      <trkpt lat="50.05002" lon="1.9176">
        <ele>7.7</ele>
        <time>2022-04-17T13:08:03Z</time>
      </trkpt>
      <trkpt lat="50.05002" lon="1.91757">
        <ele>7.7</ele>
        <time>2022-04-17T13:08:04Z</time>
      </trkpt>
      <trkpt lat="50.05002" lon="1.91755">
        <ele>7.7</ele>
        <time>2022-04-17T13:08:05Z</time>
      </trkpt>
      <trkpt lat="50.05002" lon="1.91754">
        <ele>7.7</ele>
        <time>2022-04-17T13:08:06Z</time>
      </trkpt>
      <trkpt lat="50.05002" lon="1.91751">
        <ele>7.7</ele>
        <time>2022-04-17T13:08:07Z</time>
      </trkpt>
      <trkpt lat="50.05003" lon="1.91748">
        <ele>7.7</ele>
        <time>2022-04-17T13:08:08Z</time>
      </trkpt>
      <trkpt lat="50.05003" lon="1.91747">
        <ele>7.7</ele>
        <time>2022-04-17T13:08:09Z</time>
      </trkpt>
      <trkpt lat="50.05003" lon="1.91746">
        <ele>7.7</ele>
        <time>2022-04-17T13:08:10Z</time>
      </trkpt>
      <trkpt lat="50.05003" lon="1.91742">
        <ele>7.7</ele>
        <time>2022-04-17T13:08:12Z</time>
      </trkpt>
      <trkpt lat="50.05003" lon="1.91741">
        <ele>7.7</ele>
        <time>2022-04-17T13:08:13Z</time>
      </trkpt>
      <trkpt lat="50.05004" lon="1.9174">
        <ele>7.7</ele>
        <time>2022-04-17T13:08:14Z</time>
      </trkpt>
      <trkpt lat="50.05004" lon="1.91738">
        <ele>7.7</ele>
        <time>2022-04-17T13:08:15Z</time>
      </trkpt>
      <trkpt lat="50.05004" lon="1.91736">
        <ele>7.7</ele>
        <time>2022-04-17T13:08:16Z</time>
      </trkpt>
      <trkpt lat="50.05004" lon="1.91735">
        <ele>7.7</ele>
        <time>2022-04-17T13:08:17Z</time>
      </trkpt>
      <trkpt lat="50.05004" lon="1.91733">
        <ele>7.7</ele>
        <time>2022-04-17T13:08:18Z</time>
      </trkpt>
      <trkpt lat="50.05005" lon="1.9173">
        <ele>7.7</ele>
        <time>2022-04-17T13:08:19Z</time>
      </trkpt>
      <trkpt lat="50.05005" lon="1.91727">
        <ele>7.8</ele>
        <time>2022-04-17T13:08:20Z</time>
      </trkpt>
      <trkpt lat="50.05006" lon="1.91726">
        <ele>7.8</ele>
        <time>2022-04-17T13:08:21Z</time>
      </trkpt>
      <trkpt lat="50.05006" lon="1.91724">
        <ele>7.8</ele>
        <time>2022-04-17T13:08:23Z</time>
      </trkpt>
      <trkpt lat="50.05006" lon="1.91723">
        <ele>7.8</ele>
        <time>2022-04-17T13:08:24Z</time>
      </trkpt>
      <trkpt lat="50.05006" lon="1.91721">
        <ele>7.8</ele>
        <time>2022-04-17T13:08:25Z</time>
      </trkpt>
      <trkpt lat="50.05006" lon="1.9172">
        <ele>7.8</ele>
        <time>2022-04-17T13:08:26Z</time>
      </trkpt>
      <trkpt lat="50.05007" lon="1.91716">
        <ele>7.8</ele>
        <time>2022-04-17T13:08:27Z</time>
      </trkpt>
      <trkpt lat="50.05007" lon="1.91715">
        <ele>7.8</ele>
        <time>2022-04-17T13:08:28Z</time>
      </trkpt>
      <trkpt lat="50.05007" lon="1.91713">
        <ele>7.8</ele>
        <time>2022-04-17T13:08:29Z</time>
      </trkpt>
      <trkpt lat="50.05008" lon="1.9171">
        <ele>7.8</ele>
        <time>2022-04-17T13:08:30Z</time>
      </trkpt>
      <trkpt lat="50.05008" lon="1.91708">
        <ele>7.8</ele>
        <time>2022-04-17T13:08:31Z</time>
      </trkpt>
      <trkpt lat="50.05008" lon="1.91707">
        <ele>7.8</ele>
        <time>2022-04-17T13:08:32Z</time>
      </trkpt>
      <trkpt lat="50.05008" lon="1.91704">
        <ele>7.8</ele>
        <time>2022-04-17T13:08:34Z</time>
      </trkpt>
      <trkpt lat="50.05008" lon="1.91702">
        <ele>7.8</ele>
        <time>2022-04-17T13:08:35Z</time>
      </trkpt>
      <trkpt lat="50.05009" lon="1.917">
        <ele>7.8</ele>
        <time>2022-04-17T13:08:36Z</time>
      </trkpt>
      <trkpt lat="50.05009" lon="1.91699">
        <ele>7.8</ele>
        <time>2022-04-17T13:08:37Z</time>
      </trkpt>
      <trkpt lat="50.05009" lon="1.91695">
        <ele>7.9</ele>
        <time>2022-04-17T13:08:39Z</time>
      </trkpt>
      <trkpt lat="50.05009" lon="1.91692">
        <ele>7.9</ele>
        <time>2022-04-17T13:08:40Z</time>
      </trkpt>
      <trkpt lat="50.05009" lon="1.91691">
        <ele>7.9</ele>
        <time>2022-04-17T13:08:41Z</time>
      </trkpt>
      <trkpt lat="50.05009" lon="1.91689">
        <ele>7.9</ele>
        <time>2022-04-17T13:08:42Z</time>
      </trkpt>
      <trkpt lat="50.05009" lon="1.91687">
        <ele>7.9</ele>
        <time>2022-04-17T13:08:43Z</time>
      </trkpt>
      <trkpt lat="50.05009" lon="1.91684">
        <ele>7.9</ele>
        <time>2022-04-17T13:08:44Z</time>
      </trkpt>
      <trkpt lat="50.05009" lon="1.91682">
        <ele>7.9</ele>
        <time>2022-04-17T13:08:46Z</time>
      </trkpt>
      <trkpt lat="50.05009" lon="1.91681">
        <ele>7.9</ele>
        <time>2022-04-17T13:08:47Z</time>
      </trkpt>
      <trkpt lat="50.05009" lon="1.91679">
        <ele>7.9</ele>
        <time>2022-04-17T13:08:48Z</time>
      </trkpt>
      <trkpt lat="50.05009" lon="1.91678">
        <ele>7.9</ele>
        <time>2022-04-17T13:08:49Z</time>
      </trkpt>
      <trkpt lat="50.05009" lon="1.91677">
        <ele>7.9</ele>
        <time>2022-04-17T13:08:50Z</time>
      </trkpt>
      <trkpt lat="50.05009" lon="1.91675">
        <ele>7.9</ele>
        <time>2022-04-17T13:08:51Z</time>
      </trkpt>
      <trkpt lat="50.05009" lon="1.91673">
        <ele>7.9</ele>
        <time>2022-04-17T13:08:52Z</time>
      </trkpt>
      <trkpt lat="50.05009" lon="1.91671">
        <ele>7.9</ele>
        <time>2022-04-17T13:08:53Z</time>
      </trkpt>
      <trkpt lat="50.05009" lon="1.91667">
        <ele>8</ele>
        <time>2022-04-17T13:08:54Z</time>
      </trkpt>
      <trkpt lat="50.05009" lon="1.91665">
        <ele>8</ele>
        <time>2022-04-17T13:08:55Z</time>
      </trkpt>
      <trkpt lat="50.05009" lon="1.91663">
        <ele>8</ele>
        <time>2022-04-17T13:08:56Z</time>
      </trkpt>
      <trkpt lat="50.05009" lon="1.91662">
        <ele>8</ele>
        <time>2022-04-17T13:08:58Z</time>
      </trkpt>
      <trkpt lat="50.05008" lon="1.9166">
        <ele>8</ele>
        <time>2022-04-17T13:08:59Z</time>
      </trkpt>
      <trkpt lat="50.05008" lon="1.91657">
        <ele>8</ele>
        <time>2022-04-17T13:09:00Z</time>
      </trkpt>
      <trkpt lat="50.05007" lon="1.91655">
        <ele>8</ele>
        <time>2022-04-17T13:09:01Z</time>
      </trkpt>
      <trkpt lat="50.05006" lon="1.91653">
        <ele>8</ele>
        <time>2022-04-17T13:09:02Z</time>
      </trkpt>
      <trkpt lat="50.05006" lon="1.91651">
        <ele>8</ele>
        <time>2022-04-17T13:09:03Z</time>
      </trkpt>
      <trkpt lat="50.05005" lon="1.91648">
        <ele>8</ele>
        <time>2022-04-17T13:09:04Z</time>
      </trkpt>
      <trkpt lat="50.05005" lon="1.91646">
        <ele>8</ele>
        <time>2022-04-17T13:09:06Z</time>
      </trkpt>
      <trkpt lat="50.05004" lon="1.91644">
        <ele>8.1</ele>
        <time>2022-04-17T13:09:07Z</time>
      </trkpt>
      <trkpt lat="50.05002" lon="1.9164">
        <ele>8.1</ele>
        <time>2022-04-17T13:09:08Z</time>
      </trkpt>
      <trkpt lat="50.05002" lon="1.91638">
        <ele>8.1</ele>
        <time>2022-04-17T13:09:09Z</time>
      </trkpt>
      <trkpt lat="50.05" lon="1.91636">
        <ele>8.1</ele>
        <time>2022-04-17T13:09:10Z</time>
      </trkpt>
      <trkpt lat="50.04999" lon="1.91635">
        <ele>8.1</ele>
        <time>2022-04-17T13:09:11Z</time>
      </trkpt>
      <trkpt lat="50.04999" lon="1.91634">
        <ele>8.1</ele>
        <time>2022-04-17T13:09:12Z</time>
      </trkpt>
      <trkpt lat="50.04998" lon="1.91632">
        <ele>8.1</ele>
        <time>2022-04-17T13:09:13Z</time>
      </trkpt>
      <trkpt lat="50.04997" lon="1.9163">
        <ele>8.1</ele>
        <time>2022-04-17T13:09:14Z</time>
      </trkpt>
      <trkpt lat="50.04995" lon="1.91628">
        <ele>8.1</ele>
        <time>2022-04-17T13:09:16Z</time>
      </trkpt>
      <trkpt lat="50.04995" lon="1.91627">
        <ele>8.1</ele>
        <time>2022-04-17T13:09:17Z</time>
      </trkpt>
      <trkpt lat="50.04994" lon="1.91625">
        <ele>8.1</ele>
        <time>2022-04-17T13:09:18Z</time>
      </trkpt>
      <trkpt lat="50.04993" lon="1.91623">
        <ele>8.1</ele>
        <time>2022-04-17T13:09:19Z</time>
      </trkpt>
      <trkpt lat="50.04993" lon="1.91622">
        <ele>8.1</ele>
        <time>2022-04-17T13:09:20Z</time>
      </trkpt>
      <trkpt lat="50.04991" lon="1.9162">
        <ele>8.1</ele>
        <time>2022-04-17T13:09:21Z</time>
      </trkpt>
      <trkpt lat="50.04991" lon="1.91618">
        <ele>8.1</ele>
        <time>2022-04-17T13:09:22Z</time>
      </trkpt>
      <trkpt lat="50.0499" lon="1.91617">
        <ele>8.1</ele>
        <time>2022-04-17T13:09:23Z</time>
      </trkpt>
      <trkpt lat="50.04989" lon="1.91615">
        <ele>8.1</ele>
        <time>2022-04-17T13:09:24Z</time>
      </trkpt>
      <trkpt lat="50.04989" lon="1.91613">
        <ele>8.1</ele>
        <time>2022-04-17T13:09:25Z</time>
      </trkpt>
      <trkpt lat="50.04988" lon="1.91611">
        <ele>8.1</ele>
        <time>2022-04-17T13:09:27Z</time>
      </trkpt>
      <trkpt lat="50.04988" lon="1.91608">
        <ele>8.1</ele>
        <time>2022-04-17T13:09:28Z</time>
      </trkpt>
      <trkpt lat="50.04987" lon="1.91605">
        <ele>8.1</ele>
        <time>2022-04-17T13:09:29Z</time>
      </trkpt>
      <trkpt lat="50.04987" lon="1.91603">
        <ele>8.1</ele>
        <time>2022-04-17T13:09:30Z</time>
      </trkpt>
      <trkpt lat="50.04987" lon="1.91602">
        <ele>8.1</ele>
        <time>2022-04-17T13:09:31Z</time>
      </trkpt>
      <trkpt lat="50.04987" lon="1.916">
        <ele>8.1</ele>
        <time>2022-04-17T13:09:32Z</time>
      </trkpt>
      <trkpt lat="50.04987" lon="1.91598">
        <ele>8.1</ele>
        <time>2022-04-17T13:09:33Z</time>
      </trkpt>
      <trkpt lat="50.04987" lon="1.91596">
        <ele>8.1</ele>
        <time>2022-04-17T13:09:34Z</time>
      </trkpt>
      <trkpt lat="50.04986" lon="1.91595">
        <ele>8.1</ele>
        <time>2022-04-17T13:09:35Z</time>
      </trkpt>
      <trkpt lat="50.04986" lon="1.91594">
        <ele>8.1</ele>
        <time>2022-04-17T13:09:36Z</time>
      </trkpt>
      <trkpt lat="50.04986" lon="1.91593">
        <ele>8</ele>
        <time>2022-04-17T13:09:38Z</time>
      </trkpt>
      <trkpt lat="50.04986" lon="1.91591">
        <ele>8</ele>
        <time>2022-04-17T13:09:39Z</time>
      </trkpt>
      <trkpt lat="50.04985" lon="1.91588">
        <ele>8</ele>
        <time>2022-04-17T13:09:40Z</time>
      </trkpt>
      <trkpt lat="50.04984" lon="1.91587">
        <ele>8</ele>
        <time>2022-04-17T13:09:41Z</time>
      </trkpt>
      <trkpt lat="50.04984" lon="1.91586">
        <ele>8</ele>
        <time>2022-04-17T13:09:42Z</time>
      </trkpt>
      <trkpt lat="50.04983" lon="1.91584">
        <ele>8</ele>
        <time>2022-04-17T13:09:43Z</time>
      </trkpt>
      <trkpt lat="50.04983" lon="1.91582">
        <ele>8</ele>
        <time>2022-04-17T13:09:44Z</time>
      </trkpt>
      <trkpt lat="50.04982" lon="1.91581">
        <ele>8</ele>
        <time>2022-04-17T13:09:45Z</time>
      </trkpt>
      <trkpt lat="50.04982" lon="1.91579">
        <ele>8</ele>
        <time>2022-04-17T13:09:46Z</time>
      </trkpt>
      <trkpt lat="50.04981" lon="1.91576">
        <ele>7.9</ele>
        <time>2022-04-17T13:09:47Z</time>
      </trkpt>
      <trkpt lat="50.04981" lon="1.91574">
        <ele>7.9</ele>
        <time>2022-04-17T13:09:49Z</time>
      </trkpt>
      <trkpt lat="50.04981" lon="1.91572">
        <ele>7.9</ele>
        <time>2022-04-17T13:09:50Z</time>
      </trkpt>
      <trkpt lat="50.04981" lon="1.91569">
        <ele>7.9</ele>
        <time>2022-04-17T13:09:51Z</time>
      </trkpt>
      <trkpt lat="50.04981" lon="1.91568">
        <ele>7.9</ele>
        <time>2022-04-17T13:09:52Z</time>
      </trkpt>
      <trkpt lat="50.04981" lon="1.91566">
        <ele>7.9</ele>
        <time>2022-04-17T13:09:53Z</time>
      </trkpt>
      <trkpt lat="50.04981" lon="1.91563">
        <ele>7.9</ele>
        <time>2022-04-17T13:09:54Z</time>
      </trkpt>
      <trkpt lat="50.04981" lon="1.91562">
        <ele>7.9</ele>
        <time>2022-04-17T13:09:55Z</time>
      </trkpt>
      <trkpt lat="50.04981" lon="1.91559">
        <ele>7.9</ele>
        <time>2022-04-17T13:09:56Z</time>
      </trkpt>
      <trkpt lat="50.04981" lon="1.91558">
        <ele>7.9</ele>
        <time>2022-04-17T13:09:58Z</time>
      </trkpt>
      <trkpt lat="50.04981" lon="1.91556">
        <ele>7.9</ele>
        <time>2022-04-17T13:09:59Z</time>
      </trkpt>
      <trkpt lat="50.04981" lon="1.91551">
        <ele>7.8</ele>
        <time>2022-04-17T13:10:00Z</time>
      </trkpt>
      <trkpt lat="50.04981" lon="1.9155">
        <ele>7.8</ele>
        <time>2022-04-17T13:10:01Z</time>
      </trkpt>
      <trkpt lat="50.04982" lon="1.91548">
        <ele>7.8</ele>
        <time>2022-04-17T13:10:02Z</time>
      </trkpt>
      <trkpt lat="50.04983" lon="1.91546">
        <ele>7.8</ele>
        <time>2022-04-17T13:10:04Z</time>
      </trkpt>
      <trkpt lat="50.04983" lon="1.91545">
        <ele>7.8</ele>
        <time>2022-04-17T13:10:05Z</time>
      </trkpt>
      <trkpt lat="50.04984" lon="1.91544">
        <ele>7.8</ele>
        <time>2022-04-17T13:10:06Z</time>
      </trkpt>
      <trkpt lat="50.04985" lon="1.91542">
        <ele>7.8</ele>
        <time>2022-04-17T13:10:07Z</time>
      </trkpt>
      <trkpt lat="50.04985" lon="1.91542">
        <ele>7.8</ele>
        <time>2022-04-17T13:10:08Z</time>
      </trkpt>
      <trkpt lat="50.04986" lon="1.9154">
        <ele>7.8</ele>
        <time>2022-04-17T13:10:09Z</time>
      </trkpt>
      <trkpt lat="50.04987" lon="1.91538">
        <ele>7.7</ele>
        <time>2022-04-17T13:10:10Z</time>
      </trkpt>
      <trkpt lat="50.04987" lon="1.91537">
        <ele>7.7</ele>
        <time>2022-04-17T13:10:11Z</time>
      </trkpt>
      <trkpt lat="50.04987" lon="1.91536">
        <ele>7.7</ele>
        <time>2022-04-17T13:10:12Z</time>
      </trkpt>
      <trkpt lat="50.04988" lon="1.91534">
        <ele>7.7</ele>
        <time>2022-04-17T13:10:14Z</time>
      </trkpt>
      <trkpt lat="50.04989" lon="1.91532">
        <ele>7.7</ele>
        <time>2022-04-17T13:10:15Z</time>
      </trkpt>
      <trkpt lat="50.04989" lon="1.91531">
        <ele>7.7</ele>
        <time>2022-04-17T13:10:16Z</time>
      </trkpt>
      <trkpt lat="50.0499" lon="1.91529">
        <ele>7.7</ele>
        <time>2022-04-17T13:10:17Z</time>
      </trkpt>
      <trkpt lat="50.0499" lon="1.91528">
        <ele>7.7</ele>
        <time>2022-04-17T13:10:18Z</time>
      </trkpt>
      <trkpt lat="50.04991" lon="1.91526">
        <ele>7.7</ele>
        <time>2022-04-17T13:10:19Z</time>
      </trkpt>
      <trkpt lat="50.04992" lon="1.91524">
        <ele>7.7</ele>
        <time>2022-04-17T13:10:20Z</time>
      </trkpt>
      <trkpt lat="50.04992" lon="1.91523">
        <ele>7.7</ele>
        <time>2022-04-17T13:10:21Z</time>
      </trkpt>
      <trkpt lat="50.04994" lon="1.91521">
        <ele>7.7</ele>
        <time>2022-04-17T13:10:23Z</time>
      </trkpt>
      <trkpt lat="50.04994" lon="1.9152">
        <ele>7.7</ele>
        <time>2022-04-17T13:10:24Z</time>
      </trkpt>
      <trkpt lat="50.04995" lon="1.91519">
        <ele>7.7</ele>
        <time>2022-04-17T13:10:25Z</time>
      </trkpt>
      <trkpt lat="50.04996" lon="1.91516">
        <ele>7.6</ele>
        <time>2022-04-17T13:10:26Z</time>
      </trkpt>
      <trkpt lat="50.04997" lon="1.91515">
        <ele>7.6</ele>
        <time>2022-04-17T13:10:27Z</time>
      </trkpt>
      <trkpt lat="50.04997" lon="1.91514">
        <ele>7.6</ele>
        <time>2022-04-17T13:10:28Z</time>
      </trkpt>
      <trkpt lat="50.04999" lon="1.91512">
        <ele>7.6</ele>
        <time>2022-04-17T13:10:29Z</time>
      </trkpt>
      <trkpt lat="50.04999" lon="1.91511">
        <ele>7.6</ele>
        <time>2022-04-17T13:10:30Z</time>
      </trkpt>
      <trkpt lat="50.05" lon="1.9151">
        <ele>7.6</ele>
        <time>2022-04-17T13:10:32Z</time>
      </trkpt>
      <trkpt lat="50.05002" lon="1.91508">
        <ele>7.6</ele>
        <time>2022-04-17T13:10:33Z</time>
      </trkpt>
      <trkpt lat="50.05003" lon="1.91506">
        <ele>7.6</ele>
        <time>2022-04-17T13:10:34Z</time>
      </trkpt>
      <trkpt lat="50.05004" lon="1.91505">
        <ele>7.6</ele>
        <time>2022-04-17T13:10:35Z</time>
      </trkpt>
      <trkpt lat="50.05005" lon="1.91503">
        <ele>7.6</ele>
        <time>2022-04-17T13:10:37Z</time>
      </trkpt>
      <trkpt lat="50.05006" lon="1.91501">
        <ele>7.6</ele>
        <time>2022-04-17T13:10:38Z</time>
      </trkpt>
      <trkpt lat="50.05007" lon="1.91499">
        <ele>7.6</ele>
        <time>2022-04-17T13:10:40Z</time>
      </trkpt>
      <trkpt lat="50.05008" lon="1.91497">
        <ele>7.6</ele>
        <time>2022-04-17T13:10:41Z</time>
      </trkpt>
      <trkpt lat="50.05008" lon="1.91496">
        <ele>7.6</ele>
        <time>2022-04-17T13:10:42Z</time>
      </trkpt>
      <trkpt lat="50.05009" lon="1.91494">
        <ele>7.5</ele>
        <time>2022-04-17T13:10:43Z</time>
      </trkpt>
      <trkpt lat="50.0501" lon="1.91492">
        <ele>7.5</ele>
        <time>2022-04-17T13:10:45Z</time>
      </trkpt>
      <trkpt lat="50.05011" lon="1.9149">
        <ele>7.5</ele>
        <time>2022-04-17T13:10:46Z</time>
      </trkpt>
      <trkpt lat="50.05011" lon="1.91488">
        <ele>7.5</ele>
        <time>2022-04-17T13:10:47Z</time>
      </trkpt>
      <trkpt lat="50.05012" lon="1.91487">
        <ele>7.5</ele>
        <time>2022-04-17T13:10:48Z</time>
      </trkpt>
      <trkpt lat="50.05013" lon="1.91484">
        <ele>7.5</ele>
        <time>2022-04-17T13:10:50Z</time>
      </trkpt>
      <trkpt lat="50.05013" lon="1.91483">
        <ele>7.5</ele>
        <time>2022-04-17T13:10:51Z</time>
      </trkpt>
      <trkpt lat="50.05013" lon="1.91482">
        <ele>7.5</ele>
        <time>2022-04-17T13:10:52Z</time>
      </trkpt>
      <trkpt lat="50.05014" lon="1.9148">
        <ele>7.5</ele>
        <time>2022-04-17T13:10:53Z</time>
      </trkpt>
      <trkpt lat="50.05014" lon="1.91478">
        <ele>7.5</ele>
        <time>2022-04-17T13:10:54Z</time>
      </trkpt>
      <trkpt lat="50.05015" lon="1.91474">
        <ele>7.5</ele>
        <time>2022-04-17T13:10:55Z</time>
      </trkpt>
      <trkpt lat="50.05016" lon="1.91473">
        <ele>7.5</ele>
        <time>2022-04-17T13:10:56Z</time>
      </trkpt>
      <trkpt lat="50.05016" lon="1.91472">
        <ele>7.5</ele>
        <time>2022-04-17T13:10:57Z</time>
      </trkpt>
      <trkpt lat="50.05017" lon="1.9147">
        <ele>7.5</ele>
        <time>2022-04-17T13:10:59Z</time>
      </trkpt>
      <trkpt lat="50.05017" lon="1.91468">
        <ele>7.5</ele>
        <time>2022-04-17T13:11:00Z</time>
      </trkpt>
      <trkpt lat="50.05018" lon="1.91467">
        <ele>7.5</ele>
        <time>2022-04-17T13:11:01Z</time>
      </trkpt>
      <trkpt lat="50.05019" lon="1.91464">
        <ele>7.5</ele>
        <time>2022-04-17T13:11:02Z</time>
      </trkpt>
      <trkpt lat="50.05019" lon="1.91463">
        <ele>7.5</ele>
        <time>2022-04-17T13:11:03Z</time>
      </trkpt>
      <trkpt lat="50.05019" lon="1.91461">
        <ele>7.5</ele>
        <time>2022-04-17T13:11:04Z</time>
      </trkpt>
      <trkpt lat="50.0502" lon="1.9146">
        <ele>7.4</ele>
        <time>2022-04-17T13:11:05Z</time>
      </trkpt>
      <trkpt lat="50.0502" lon="1.91458">
        <ele>7.4</ele>
        <time>2022-04-17T13:11:07Z</time>
      </trkpt>
      <trkpt lat="50.05021" lon="1.91457">
        <ele>7.4</ele>
        <time>2022-04-17T13:11:08Z</time>
      </trkpt>
      <trkpt lat="50.05022" lon="1.91455">
        <ele>7.4</ele>
        <time>2022-04-17T13:11:09Z</time>
      </trkpt>
      <trkpt lat="50.05023" lon="1.91453">
        <ele>7.4</ele>
        <time>2022-04-17T13:11:10Z</time>
      </trkpt>
      <trkpt lat="50.05023" lon="1.91451">
        <ele>7.4</ele>
        <time>2022-04-17T13:11:11Z</time>
      </trkpt>
      <trkpt lat="50.05024" lon="1.9145">
        <ele>7.4</ele>
        <time>2022-04-17T13:11:12Z</time>
      </trkpt>
      <trkpt lat="50.05024" lon="1.91448">
        <ele>7.4</ele>
        <time>2022-04-17T13:11:13Z</time>
      </trkpt>
      <trkpt lat="50.05025" lon="1.91446">
        <ele>7.4</ele>
        <time>2022-04-17T13:11:14Z</time>
      </trkpt>
      <trkpt lat="50.05025" lon="1.91445">
        <ele>7.4</ele>
        <time>2022-04-17T13:11:16Z</time>
      </trkpt>
      <trkpt lat="50.05026" lon="1.91444">
        <ele>7.4</ele>
        <time>2022-04-17T13:11:17Z</time>
      </trkpt>
      <trkpt lat="50.05026" lon="1.91442">
        <ele>7.4</ele>
        <time>2022-04-17T13:11:18Z</time>
      </trkpt>
      <trkpt lat="50.05027" lon="1.91441">
        <ele>7.4</ele>
        <time>2022-04-17T13:11:19Z</time>
      </trkpt>
      <trkpt lat="50.05027" lon="1.91439">
        <ele>7.4</ele>
        <time>2022-04-17T13:11:20Z</time>
      </trkpt>
      <trkpt lat="50.05028" lon="1.91438">
        <ele>7.4</ele>
        <time>2022-04-17T13:11:21Z</time>
      </trkpt>
      <trkpt lat="50.05029" lon="1.91437">
        <ele>7.4</ele>
        <time>2022-04-17T13:11:22Z</time>
      </trkpt>
      <trkpt lat="50.0503" lon="1.91435">
        <ele>7.4</ele>
        <time>2022-04-17T13:11:23Z</time>
      </trkpt>
      <trkpt lat="50.0503" lon="1.91435">
        <ele>7.4</ele>
        <time>2022-04-17T13:11:24Z</time>
      </trkpt>
      <trkpt lat="50.05031" lon="1.91434">
        <ele>7.4</ele>
        <time>2022-04-17T13:11:26Z</time>
      </trkpt>
      <trkpt lat="50.05032" lon="1.91433">
        <ele>7.4</ele>
        <time>2022-04-17T13:11:27Z</time>
      </trkpt>
      <trkpt lat="50.05032" lon="1.91431">
        <ele>7.4</ele>
        <time>2022-04-17T13:11:28Z</time>
      </trkpt>
      <trkpt lat="50.05033" lon="1.9143">
        <ele>7.4</ele>
        <time>2022-04-17T13:11:29Z</time>
      </trkpt>
      <trkpt lat="50.05034" lon="1.91429">
        <ele>7.4</ele>
        <time>2022-04-17T13:11:30Z</time>
      </trkpt>
      <trkpt lat="50.05035" lon="1.91428">
        <ele>7.4</ele>
        <time>2022-04-17T13:11:31Z</time>
      </trkpt>
      <trkpt lat="50.05035" lon="1.91426">
        <ele>7.4</ele>
        <time>2022-04-17T13:11:32Z</time>
      </trkpt>
      <trkpt lat="50.05036" lon="1.91425">
        <ele>7.4</ele>
        <time>2022-04-17T13:11:33Z</time>
      </trkpt>
      <trkpt lat="50.05037" lon="1.91423">
        <ele>7.4</ele>
        <time>2022-04-17T13:11:34Z</time>
      </trkpt>
      <trkpt lat="50.05037" lon="1.91422">
        <ele>7.4</ele>
        <time>2022-04-17T13:11:36Z</time>
      </trkpt>
      <trkpt lat="50.05038" lon="1.91421">
        <ele>7.3</ele>
        <time>2022-04-17T13:11:37Z</time>
      </trkpt>
      <trkpt lat="50.05039" lon="1.9142">
        <ele>7.3</ele>
        <time>2022-04-17T13:11:38Z</time>
      </trkpt>
      <trkpt lat="50.0504" lon="1.91418">
        <ele>7.3</ele>
        <time>2022-04-17T13:11:39Z</time>
      </trkpt>
      <trkpt lat="50.05041" lon="1.91417">
        <ele>7.3</ele>
        <time>2022-04-17T13:11:40Z</time>
      </trkpt>
      <trkpt lat="50.05041" lon="1.91416">
        <ele>7.3</ele>
        <time>2022-04-17T13:11:41Z</time>
      </trkpt>
      <trkpt lat="50.05042" lon="1.91415">
        <ele>7.3</ele>
        <time>2022-04-17T13:11:42Z</time>
      </trkpt>
      <trkpt lat="50.05043" lon="1.91413">
        <ele>7.3</ele>
        <time>2022-04-17T13:11:43Z</time>
      </trkpt>
      <trkpt lat="50.05044" lon="1.91412">
        <ele>7.3</ele>
        <time>2022-04-17T13:11:44Z</time>
      </trkpt>
      <trkpt lat="50.05046" lon="1.91411">
        <ele>7.3</ele>
        <time>2022-04-17T13:11:45Z</time>
      </trkpt>
      <trkpt lat="50.05046" lon="1.9141">
        <ele>7.3</ele>
        <time>2022-04-17T13:11:47Z</time>
      </trkpt>
      <trkpt lat="50.05047" lon="1.9141">
        <ele>7.3</ele>
        <time>2022-04-17T13:11:48Z</time>
      </trkpt>
      <trkpt lat="50.05048" lon="1.91409">
        <ele>7.3</ele>
        <time>2022-04-17T13:11:49Z</time>
      </trkpt>
      <trkpt lat="50.05049" lon="1.91407">
        <ele>7.3</ele>
        <time>2022-04-17T13:11:50Z</time>
      </trkpt>
      <trkpt lat="50.0505" lon="1.91406">
        <ele>7.3</ele>
        <time>2022-04-17T13:11:51Z</time>
      </trkpt>
      <trkpt lat="50.05051" lon="1.91405">
        <ele>7.3</ele>
        <time>2022-04-17T13:11:52Z</time>
      </trkpt>
      <trkpt lat="50.05052" lon="1.91404">
        <ele>7.3</ele>
        <time>2022-04-17T13:11:53Z</time>
      </trkpt>
      <trkpt lat="50.05053" lon="1.91402">
        <ele>7.3</ele>
        <time>2022-04-17T13:11:54Z</time>
      </trkpt>
      <trkpt lat="50.05054" lon="1.914">
        <ele>7.3</ele>
        <time>2022-04-17T13:11:55Z</time>
      </trkpt>
      <trkpt lat="50.05055" lon="1.91399">
        <ele>7.2</ele>
        <time>2022-04-17T13:11:56Z</time>
      </trkpt>
      <trkpt lat="50.05056" lon="1.91398">
        <ele>7.2</ele>
        <time>2022-04-17T13:11:58Z</time>
      </trkpt>
      <trkpt lat="50.05058" lon="1.91394">
        <ele>7.2</ele>
        <time>2022-04-17T13:12:00Z</time>
      </trkpt>
      <trkpt lat="50.05059" lon="1.91393">
        <ele>7.2</ele>
        <time>2022-04-17T13:12:01Z</time>
      </trkpt>
      <trkpt lat="50.0506" lon="1.91392">
        <ele>7.2</ele>
        <time>2022-04-17T13:12:02Z</time>
      </trkpt>
      <trkpt lat="50.05061" lon="1.9139">
        <ele>7.2</ele>
        <time>2022-04-17T13:12:04Z</time>
      </trkpt>
      <trkpt lat="50.05063" lon="1.91388">
        <ele>7.2</ele>
        <time>2022-04-17T13:12:05Z</time>
      </trkpt>
      <trkpt lat="50.05064" lon="1.91387">
        <ele>7.2</ele>
        <time>2022-04-17T13:12:06Z</time>
      </trkpt>
      <trkpt lat="50.05064" lon="1.91385">
        <ele>7.1</ele>
        <time>2022-04-17T13:12:07Z</time>
      </trkpt>
      <trkpt lat="50.05065" lon="1.91384">
        <ele>7.1</ele>
        <time>2022-04-17T13:12:08Z</time>
      </trkpt>
      <trkpt lat="50.05066" lon="1.91383">
        <ele>7.1</ele>
        <time>2022-04-17T13:12:09Z</time>
      </trkpt>
      <trkpt lat="50.05067" lon="1.91381">
        <ele>7.1</ele>
        <time>2022-04-17T13:12:10Z</time>
      </trkpt>
      <trkpt lat="50.05068" lon="1.91379">
        <ele>7.1</ele>
        <time>2022-04-17T13:12:11Z</time>
      </trkpt>
      <trkpt lat="50.05069" lon="1.91377">
        <ele>7.1</ele>
        <time>2022-04-17T13:12:13Z</time>
      </trkpt>
      <trkpt lat="50.0507" lon="1.91375">
        <ele>7.1</ele>
        <time>2022-04-17T13:12:14Z</time>
      </trkpt>
      <trkpt lat="50.0507" lon="1.91374">
        <ele>7.1</ele>
        <time>2022-04-17T13:12:15Z</time>
      </trkpt>
      <trkpt lat="50.05071" lon="1.91373">
        <ele>7.1</ele>
        <time>2022-04-17T13:12:16Z</time>
      </trkpt>
      <trkpt lat="50.05071" lon="1.91372">
        <ele>7.1</ele>
        <time>2022-04-17T13:12:17Z</time>
      </trkpt>
      <trkpt lat="50.05072" lon="1.91371">
        <ele>7</ele>
        <time>2022-04-17T13:12:18Z</time>
      </trkpt>
      <trkpt lat="50.05073" lon="1.91369">
        <ele>7</ele>
        <time>2022-04-17T13:12:20Z</time>
      </trkpt>
      <trkpt lat="50.05074" lon="1.91368">
        <ele>7</ele>
        <time>2022-04-17T13:12:21Z</time>
      </trkpt>
      <trkpt lat="50.05075" lon="1.91367">
        <ele>7</ele>
        <time>2022-04-17T13:12:22Z</time>
      </trkpt>
      <trkpt lat="50.05076" lon="1.91366">
        <ele>7</ele>
        <time>2022-04-17T13:12:23Z</time>
      </trkpt>
      <trkpt lat="50.05077" lon="1.91365">
        <ele>7</ele>
        <time>2022-04-17T13:12:24Z</time>
      </trkpt>
      <trkpt lat="50.05078" lon="1.91363">
        <ele>7</ele>
        <time>2022-04-17T13:12:25Z</time>
      </trkpt>
      <trkpt lat="50.05079" lon="1.91362">
        <ele>7</ele>
        <time>2022-04-17T13:12:26Z</time>
      </trkpt>
      <trkpt lat="50.0508" lon="1.91361">
        <ele>7</ele>
        <time>2022-04-17T13:12:27Z</time>
      </trkpt>
      <trkpt lat="50.0508" lon="1.9136">
        <ele>7</ele>
        <time>2022-04-17T13:12:28Z</time>
      </trkpt>
      <trkpt lat="50.05081" lon="1.91359">
        <ele>7</ele>
        <time>2022-04-17T13:12:29Z</time>
      </trkpt>
      <trkpt lat="50.05082" lon="1.91357">
        <ele>7</ele>
        <time>2022-04-17T13:12:31Z</time>
      </trkpt>
      <trkpt lat="50.05084" lon="1.91355">
        <ele>7</ele>
        <time>2022-04-17T13:12:32Z</time>
      </trkpt>
      <trkpt lat="50.05085" lon="1.91354">
        <ele>7</ele>
        <time>2022-04-17T13:12:33Z</time>
      </trkpt>
      <trkpt lat="50.05085" lon="1.91353">
        <ele>7</ele>
        <time>2022-04-17T13:12:34Z</time>
      </trkpt>
      <trkpt lat="50.05087" lon="1.91351">
        <ele>7</ele>
        <time>2022-04-17T13:12:35Z</time>
      </trkpt>
      <trkpt lat="50.05087" lon="1.9135">
        <ele>7</ele>
        <time>2022-04-17T13:12:36Z</time>
      </trkpt>
      <trkpt lat="50.05088" lon="1.91349">
        <ele>7</ele>
        <time>2022-04-17T13:12:37Z</time>
      </trkpt>
      <trkpt lat="50.05089" lon="1.91348">
        <ele>7</ele>
        <time>2022-04-17T13:12:38Z</time>
      </trkpt>
      <trkpt lat="50.0509" lon="1.91347">
        <ele>7</ele>
        <time>2022-04-17T13:12:39Z</time>
      </trkpt>
      <trkpt lat="50.05092" lon="1.91345">
        <ele>7</ele>
        <time>2022-04-17T13:12:41Z</time>
      </trkpt>
      <trkpt lat="50.05093" lon="1.91344">
        <ele>7</ele>
        <time>2022-04-17T13:12:42Z</time>
      </trkpt>
      <trkpt lat="50.05094" lon="1.91344">
        <ele>7</ele>
        <time>2022-04-17T13:12:43Z</time>
      </trkpt>
      <trkpt lat="50.05095" lon="1.91343">
        <ele>7</ele>
        <time>2022-04-17T13:12:44Z</time>
      </trkpt>
      <trkpt lat="50.05096" lon="1.91342">
        <ele>7</ele>
        <time>2022-04-17T13:12:45Z</time>
      </trkpt>
      <trkpt lat="50.05097" lon="1.91341">
        <ele>7</ele>
        <time>2022-04-17T13:12:46Z</time>
      </trkpt>
      <trkpt lat="50.05097" lon="1.9134">
        <ele>7</ele>
        <time>2022-04-17T13:12:47Z</time>
      </trkpt>
      <trkpt lat="50.05098" lon="1.91339">
        <ele>7</ele>
        <time>2022-04-17T13:12:48Z</time>
      </trkpt>
      <trkpt lat="50.051" lon="1.91336">
        <ele>7</ele>
        <time>2022-04-17T13:12:49Z</time>
      </trkpt>
      <trkpt lat="50.05101" lon="1.91335">
        <ele>7</ele>
        <time>2022-04-17T13:12:50Z</time>
      </trkpt>
      <trkpt lat="50.05101" lon="1.91334">
        <ele>7</ele>
        <time>2022-04-17T13:12:52Z</time>
      </trkpt>
      <trkpt lat="50.05102" lon="1.91333">
        <ele>7</ele>
        <time>2022-04-17T13:12:53Z</time>
      </trkpt>
      <trkpt lat="50.05103" lon="1.91332">
        <ele>7</ele>
        <time>2022-04-17T13:12:54Z</time>
      </trkpt>
      <trkpt lat="50.05104" lon="1.91331">
        <ele>7</ele>
        <time>2022-04-17T13:12:55Z</time>
      </trkpt>
      <trkpt lat="50.05105" lon="1.9133">
        <ele>7</ele>
        <time>2022-04-17T13:12:57Z</time>
      </trkpt>
      <trkpt lat="50.05105" lon="1.91329">
        <ele>7</ele>
        <time>2022-04-17T13:12:58Z</time>
      </trkpt>
      <trkpt lat="50.05106" lon="1.91328">
        <ele>7</ele>
        <time>2022-04-17T13:12:59Z</time>
      </trkpt>
      <trkpt lat="50.05108" lon="1.91326">
        <ele>7</ele>
        <time>2022-04-17T13:13:00Z</time>
      </trkpt>
      <trkpt lat="50.05109" lon="1.91325">
        <ele>7</ele>
        <time>2022-04-17T13:13:01Z</time>
      </trkpt>
      <trkpt lat="50.0511" lon="1.91324">
        <ele>7</ele>
        <time>2022-04-17T13:13:02Z</time>
      </trkpt>
      <trkpt lat="50.05111" lon="1.91323">
        <ele>7</ele>
        <time>2022-04-17T13:13:03Z</time>
      </trkpt>
      <trkpt lat="50.05111" lon="1.91323">
        <ele>7</ele>
        <time>2022-04-17T13:13:04Z</time>
      </trkpt>
      <trkpt lat="50.05112" lon="1.91321">
        <ele>6.9</ele>
        <time>2022-04-17T13:13:05Z</time>
      </trkpt>
      <trkpt lat="50.05113" lon="1.91321">
        <ele>6.9</ele>
        <time>2022-04-17T13:13:06Z</time>
      </trkpt>
      <trkpt lat="50.05114" lon="1.9132">
        <ele>6.9</ele>
        <time>2022-04-17T13:13:07Z</time>
      </trkpt>
      <trkpt lat="50.05116" lon="1.91318">
        <ele>6.9</ele>
        <time>2022-04-17T13:13:09Z</time>
      </trkpt>
      <trkpt lat="50.05117" lon="1.91317">
        <ele>6.9</ele>
        <time>2022-04-17T13:13:10Z</time>
      </trkpt>
      <trkpt lat="50.05118" lon="1.91316">
        <ele>6.9</ele>
        <time>2022-04-17T13:13:11Z</time>
      </trkpt>
      <trkpt lat="50.05118" lon="1.91315">
        <ele>6.9</ele>
        <time>2022-04-17T13:13:13Z</time>
      </trkpt>
      <trkpt lat="50.05119" lon="1.91314">
        <ele>6.9</ele>
        <time>2022-04-17T13:13:14Z</time>
      </trkpt>
      <trkpt lat="50.0512" lon="1.91313">
        <ele>6.9</ele>
        <time>2022-04-17T13:13:15Z</time>
      </trkpt>
      <trkpt lat="50.05122" lon="1.91311">
        <ele>6.9</ele>
        <time>2022-04-17T13:13:16Z</time>
      </trkpt>
      <trkpt lat="50.05122" lon="1.9131">
        <ele>6.9</ele>
        <time>2022-04-17T13:13:17Z</time>
      </trkpt>
      <trkpt lat="50.05123" lon="1.9131">
        <ele>6.9</ele>
        <time>2022-04-17T13:13:18Z</time>
      </trkpt>
      <trkpt lat="50.05124" lon="1.91308">
        <ele>6.9</ele>
        <time>2022-04-17T13:13:19Z</time>
      </trkpt>
      <trkpt lat="50.05125" lon="1.91306">
        <ele>6.9</ele>
        <time>2022-04-17T13:13:20Z</time>
      </trkpt>
      <trkpt lat="50.05126" lon="1.91305">
        <ele>6.9</ele>
        <time>2022-04-17T13:13:21Z</time>
      </trkpt>
      <trkpt lat="50.05126" lon="1.91304">
        <ele>6.9</ele>
        <time>2022-04-17T13:13:22Z</time>
      </trkpt>
      <trkpt lat="50.05128" lon="1.91301">
        <ele>6.9</ele>
        <time>2022-04-17T13:13:24Z</time>
      </trkpt>
      <trkpt lat="50.05129" lon="1.913">
        <ele>6.9</ele>
        <time>2022-04-17T13:13:25Z</time>
      </trkpt>
      <trkpt lat="50.05129" lon="1.91299">
        <ele>7</ele>
        <time>2022-04-17T13:13:26Z</time>
      </trkpt>
      <trkpt lat="50.0513" lon="1.91298">
        <ele>7</ele>
        <time>2022-04-17T13:13:27Z</time>
      </trkpt>
      <trkpt lat="50.05131" lon="1.91297">
        <ele>7</ele>
        <time>2022-04-17T13:13:28Z</time>
      </trkpt>
      <trkpt lat="50.05132" lon="1.91295">
        <ele>7</ele>
        <time>2022-04-17T13:13:29Z</time>
      </trkpt>
      <trkpt lat="50.05132" lon="1.91294">
        <ele>7</ele>
        <time>2022-04-17T13:13:30Z</time>
      </trkpt>
      <trkpt lat="50.05133" lon="1.91293">
        <ele>7</ele>
        <time>2022-04-17T13:13:31Z</time>
      </trkpt>
      <trkpt lat="50.05134" lon="1.91291">
        <ele>7</ele>
        <time>2022-04-17T13:13:32Z</time>
      </trkpt>
      <trkpt lat="50.05134" lon="1.91288">
        <ele>7</ele>
        <time>2022-04-17T13:13:34Z</time>
      </trkpt>
      <trkpt lat="50.05135" lon="1.91287">
        <ele>7</ele>
        <time>2022-04-17T13:13:35Z</time>
      </trkpt>
      <trkpt lat="50.05135" lon="1.91286">
        <ele>7</ele>
        <time>2022-04-17T13:13:36Z</time>
      </trkpt>
      <trkpt lat="50.05136" lon="1.91284">
        <ele>7.1</ele>
        <time>2022-04-17T13:13:37Z</time>
      </trkpt>
      <trkpt lat="50.05136" lon="1.91283">
        <ele>7.1</ele>
        <time>2022-04-17T13:13:38Z</time>
      </trkpt>
      <trkpt lat="50.05137" lon="1.91281">
        <ele>7.1</ele>
        <time>2022-04-17T13:13:39Z</time>
      </trkpt>
      <trkpt lat="50.05138" lon="1.91279">
        <ele>7.2</ele>
        <time>2022-04-17T13:13:40Z</time>
      </trkpt>
      <trkpt lat="50.05139" lon="1.91278">
        <ele>7.2</ele>
        <time>2022-04-17T13:13:41Z</time>
      </trkpt>
      <trkpt lat="50.0514" lon="1.91277">
        <ele>7.2</ele>
        <time>2022-04-17T13:13:42Z</time>
      </trkpt>
      <trkpt lat="50.0514" lon="1.91276">
        <ele>7.2</ele>
        <time>2022-04-17T13:13:44Z</time>
      </trkpt>
      <trkpt lat="50.05141" lon="1.91275">
        <ele>7.3</ele>
        <time>2022-04-17T13:13:45Z</time>
      </trkpt>
      <trkpt lat="50.05142" lon="1.91273">
        <ele>7.3</ele>
        <time>2022-04-17T13:13:46Z</time>
      </trkpt>
      <trkpt lat="50.05142" lon="1.91272">
        <ele>7.4</ele>
        <time>2022-04-17T13:13:47Z</time>
      </trkpt>
      <trkpt lat="50.05143" lon="1.9127">
        <ele>7.4</ele>
        <time>2022-04-17T13:13:48Z</time>
      </trkpt>
      <trkpt lat="50.05143" lon="1.91268">
        <ele>7.4</ele>
        <time>2022-04-17T13:13:50Z</time>
      </trkpt>
      <trkpt lat="50.05144" lon="1.91266">
        <ele>7.5</ele>
        <time>2022-04-17T13:13:51Z</time>
      </trkpt>
      <trkpt lat="50.05144" lon="1.91265">
        <ele>7.6</ele>
        <time>2022-04-17T13:13:52Z</time>
      </trkpt>
      <trkpt lat="50.05145" lon="1.91262">
        <ele>7.7</ele>
        <time>2022-04-17T13:13:53Z</time>
      </trkpt>
      <trkpt lat="50.05145" lon="1.9126">
        <ele>7.7</ele>
        <time>2022-04-17T13:13:54Z</time>
      </trkpt>
      <trkpt lat="50.05146" lon="1.91259">
        <ele>7.8</ele>
        <time>2022-04-17T13:13:55Z</time>
      </trkpt>
      <trkpt lat="50.05146" lon="1.91258">
        <ele>7.8</ele>
        <time>2022-04-17T13:13:56Z</time>
      </trkpt>
      <trkpt lat="50.05147" lon="1.91256">
        <ele>7.9</ele>
        <time>2022-04-17T13:13:57Z</time>
      </trkpt>
      <trkpt lat="50.05148" lon="1.91255">
        <ele>8</ele>
        <time>2022-04-17T13:13:59Z</time>
      </trkpt>
      <trkpt lat="50.05148" lon="1.91253">
        <ele>8</ele>
        <time>2022-04-17T13:14:00Z</time>
      </trkpt>
      <trkpt lat="50.05149" lon="1.91251">
        <ele>8.2</ele>
        <time>2022-04-17T13:14:01Z</time>
      </trkpt>
      <trkpt lat="50.0515" lon="1.91248">
        <ele>8.3</ele>
        <time>2022-04-17T13:14:02Z</time>
      </trkpt>
      <trkpt lat="50.0515" lon="1.91246">
        <ele>8.4</ele>
        <time>2022-04-17T13:14:03Z</time>
      </trkpt>
      <trkpt lat="50.0515" lon="1.91245">
        <ele>8.5</ele>
        <time>2022-04-17T13:14:05Z</time>
      </trkpt>
      <trkpt lat="50.05151" lon="1.91243">
        <ele>8.6</ele>
        <time>2022-04-17T13:14:06Z</time>
      </trkpt>
      <trkpt lat="50.05151" lon="1.91242">
        <ele>8.6</ele>
        <time>2022-04-17T13:14:07Z</time>
      </trkpt>
      <trkpt lat="50.05151" lon="1.9124">
        <ele>8.7</ele>
        <time>2022-04-17T13:14:08Z</time>
      </trkpt>
      <trkpt lat="50.05152" lon="1.91236">
        <ele>8.9</ele>
        <time>2022-04-17T13:14:09Z</time>
      </trkpt>
      <trkpt lat="50.05153" lon="1.91235">
        <ele>9</ele>
        <time>2022-04-17T13:14:10Z</time>
      </trkpt>
      <trkpt lat="50.05153" lon="1.91233">
        <ele>9.1</ele>
        <time>2022-04-17T13:14:11Z</time>
      </trkpt>
      <trkpt lat="50.05153" lon="1.9123">
        <ele>9.3</ele>
        <time>2022-04-17T13:14:13Z</time>
      </trkpt>
      <trkpt lat="50.05153" lon="1.91228">
        <ele>9.5</ele>
        <time>2022-04-17T13:14:14Z</time>
      </trkpt>
      <trkpt lat="50.05154" lon="1.91226">
        <ele>9.6</ele>
        <time>2022-04-17T13:14:15Z</time>
      </trkpt>
      <trkpt lat="50.05154" lon="1.91224">
        <ele>9.7</ele>
        <time>2022-04-17T13:14:16Z</time>
      </trkpt>
      <trkpt lat="50.05155" lon="1.91221">
        <ele>9.9</ele>
        <time>2022-04-17T13:14:18Z</time>
      </trkpt>
      <trkpt lat="50.05156" lon="1.9122">
        <ele>9.9</ele>
        <time>2022-04-17T13:14:19Z</time>
      </trkpt>
      <trkpt lat="50.05156" lon="1.91219">
        <ele>10</ele>
        <time>2022-04-17T13:14:20Z</time>
      </trkpt>
      <trkpt lat="50.05157" lon="1.91218">
        <ele>10.1</ele>
        <time>2022-04-17T13:14:21Z</time>
      </trkpt>
      <trkpt lat="50.05158" lon="1.91216">
        <ele>10.1</ele>
        <time>2022-04-17T13:14:22Z</time>
      </trkpt>
      <trkpt lat="50.05158" lon="1.91216">
        <ele>10.1</ele>
        <time>2022-04-17T13:14:24Z</time>
      </trkpt>
      <trkpt lat="50.05159" lon="1.91215">
        <ele>10.1</ele>
        <time>2022-04-17T13:14:25Z</time>
      </trkpt>
      <trkpt lat="50.0516" lon="1.91215">
        <ele>10.1</ele>
        <time>2022-04-17T13:14:26Z</time>
      </trkpt>
      <trkpt lat="50.05161" lon="1.91216">
        <ele>10.2</ele>
        <time>2022-04-17T13:14:27Z</time>
      </trkpt>
      <trkpt lat="50.05162" lon="1.91216">
        <ele>10.2</ele>
        <time>2022-04-17T13:14:28Z</time>
      </trkpt>
      <trkpt lat="50.05162" lon="1.91216">
        <ele>10.2</ele>
        <time>2022-04-17T13:14:29Z</time>
      </trkpt>
      <trkpt lat="50.05163" lon="1.91216">
        <ele>10.2</ele>
        <time>2022-04-17T13:14:30Z</time>
      </trkpt>
      <trkpt lat="50.05164" lon="1.91216">
        <ele>10.2</ele>
        <time>2022-04-17T13:14:32Z</time>
      </trkpt>
      <trkpt lat="50.05165" lon="1.91217">
        <ele>10.2</ele>
        <time>2022-04-17T13:14:33Z</time>
      </trkpt>
      <trkpt lat="50.05166" lon="1.91217">
        <ele>10.2</ele>
        <time>2022-04-17T13:14:34Z</time>
      </trkpt>
      <trkpt lat="50.05166" lon="1.91217">
        <ele>10.2</ele>
        <time>2022-04-17T13:14:35Z</time>
      </trkpt>
      <trkpt lat="50.05167" lon="1.91218">
        <ele>10.2</ele>
        <time>2022-04-17T13:14:36Z</time>
      </trkpt>
      <trkpt lat="50.05167" lon="1.91218">
        <ele>10.2</ele>
        <time>2022-04-17T13:14:37Z</time>
      </trkpt>
      <trkpt lat="50.05167" lon="1.91219">
        <ele>10.2</ele>
        <time>2022-04-17T13:14:39Z</time>
      </trkpt>
      <trkpt lat="50.05167" lon="1.9122">
        <ele>10.2</ele>
        <time>2022-04-17T13:14:40Z</time>
      </trkpt>
      <trkpt lat="50.05167" lon="1.9122">
        <ele>10.2</ele>
        <time>2022-04-17T13:14:42Z</time>
      </trkpt>
      <trkpt lat="50.05168" lon="1.9122">
        <ele>10.2</ele>
        <time>2022-04-17T13:14:43Z</time>
      </trkpt>
      <trkpt lat="50.05169" lon="1.91221">
        <ele>10.2</ele>
        <time>2022-04-17T13:14:44Z</time>
      </trkpt>
      <trkpt lat="50.0517" lon="1.91222">
        <ele>10.2</ele>
        <time>2022-04-17T13:14:45Z</time>
      </trkpt>
      <trkpt lat="50.0517" lon="1.91222">
        <ele>10.2</ele>
        <time>2022-04-17T13:14:47Z</time>
      </trkpt>
      <trkpt lat="50.05171" lon="1.91222">
        <ele>10.2</ele>
        <time>2022-04-17T13:14:48Z</time>
      </trkpt>
      <trkpt lat="50.05171" lon="1.91223">
        <ele>10.2</ele>
        <time>2022-04-17T13:14:49Z</time>
      </trkpt>
      <trkpt lat="50.05172" lon="1.91223">
        <ele>10.2</ele>
        <time>2022-04-17T13:14:51Z</time>
      </trkpt>
      <trkpt lat="50.05174" lon="1.91224">
        <ele>10.2</ele>
        <time>2022-04-17T13:14:52Z</time>
      </trkpt>
      <trkpt lat="50.05175" lon="1.91224">
        <ele>10.2</ele>
        <time>2022-04-17T13:14:53Z</time>
      </trkpt>
      <trkpt lat="50.05176" lon="1.91225">
        <ele>10.2</ele>
        <time>2022-04-17T13:14:54Z</time>
      </trkpt>
      <trkpt lat="50.05177" lon="1.91226">
        <ele>10.2</ele>
        <time>2022-04-17T13:14:55Z</time>
      </trkpt>
      <trkpt lat="50.05178" lon="1.91226">
        <ele>10.2</ele>
        <time>2022-04-17T13:14:56Z</time>
      </trkpt>
      <trkpt lat="50.05179" lon="1.91226">
        <ele>10.2</ele>
        <time>2022-04-17T13:14:57Z</time>
      </trkpt>
      <trkpt lat="50.05179" lon="1.91227">
        <ele>10.2</ele>
        <time>2022-04-17T13:14:58Z</time>
      </trkpt>
      <trkpt lat="50.0518" lon="1.91227">
        <ele>10.2</ele>
        <time>2022-04-17T13:14:59Z</time>
      </trkpt>
      <trkpt lat="50.05181" lon="1.91227">
        <ele>10.2</ele>
        <time>2022-04-17T13:15:00Z</time>
      </trkpt>
      <trkpt lat="50.05182" lon="1.91228">
        <ele>10.2</ele>
        <time>2022-04-17T13:15:02Z</time>
      </trkpt>
      <trkpt lat="50.05183" lon="1.91228">
        <ele>10.1</ele>
        <time>2022-04-17T13:15:03Z</time>
      </trkpt>
      <trkpt lat="50.05184" lon="1.91228">
        <ele>10</ele>
        <time>2022-04-17T13:15:04Z</time>
      </trkpt>
      <trkpt lat="50.05185" lon="1.91227">
        <ele>10</ele>
        <time>2022-04-17T13:15:05Z</time>
      </trkpt>
      <trkpt lat="50.05186" lon="1.91226">
        <ele>9.9</ele>
        <time>2022-04-17T13:15:06Z</time>
      </trkpt>
      <trkpt lat="50.05187" lon="1.91225">
        <ele>9.8</ele>
        <time>2022-04-17T13:15:07Z</time>
      </trkpt>
      <trkpt lat="50.05188" lon="1.91222">
        <ele>9.7</ele>
        <time>2022-04-17T13:15:09Z</time>
      </trkpt>
      <trkpt lat="50.05188" lon="1.9122">
        <ele>9.6</ele>
        <time>2022-04-17T13:15:10Z</time>
      </trkpt>
      <trkpt lat="50.05188" lon="1.91216">
        <ele>9.5</ele>
        <time>2022-04-17T13:15:11Z</time>
      </trkpt>
      <trkpt lat="50.05188" lon="1.91215">
        <ele>9.4</ele>
        <time>2022-04-17T13:15:12Z</time>
      </trkpt>
      <trkpt lat="50.05188" lon="1.91214">
        <ele>9.4</ele>
        <time>2022-04-17T13:15:13Z</time>
      </trkpt>
      <trkpt lat="50.05189" lon="1.91212">
        <ele>9.3</ele>
        <time>2022-04-17T13:15:14Z</time>
      </trkpt>
      <trkpt lat="50.05189" lon="1.9121">
        <ele>9.2</ele>
        <time>2022-04-17T13:15:15Z</time>
      </trkpt>
      <trkpt lat="50.05189" lon="1.91207">
        <ele>9.1</ele>
        <time>2022-04-17T13:15:17Z</time>
      </trkpt>
      <trkpt lat="50.05189" lon="1.91204">
        <ele>9</ele>
        <time>2022-04-17T13:15:18Z</time>
      </trkpt>
      <trkpt lat="50.0519" lon="1.91202">
        <ele>8.9</ele>
        <time>2022-04-17T13:15:19Z</time>
      </trkpt>
      <trkpt lat="50.0519" lon="1.912">
        <ele>8.9</ele>
        <time>2022-04-17T13:15:20Z</time>
      </trkpt>
      <trkpt lat="50.0519" lon="1.91198">
        <ele>8.8</ele>
        <time>2022-04-17T13:15:21Z</time>
      </trkpt>
      <trkpt lat="50.05191" lon="1.91197">
        <ele>8.8</ele>
        <time>2022-04-17T13:15:22Z</time>
      </trkpt>
      <trkpt lat="50.05191" lon="1.91193">
        <ele>8.7</ele>
        <time>2022-04-17T13:15:23Z</time>
      </trkpt>
      <trkpt lat="50.05191" lon="1.91192">
        <ele>8.6</ele>
        <time>2022-04-17T13:15:24Z</time>
      </trkpt>
      <trkpt lat="50.05191" lon="1.91191">
        <ele>8.6</ele>
        <time>2022-04-17T13:15:25Z</time>
      </trkpt>
      <trkpt lat="50.05192" lon="1.91189">
        <ele>8.5</ele>
        <time>2022-04-17T13:15:26Z</time>
      </trkpt>
      <trkpt lat="50.05192" lon="1.91187">
        <ele>8.5</ele>
        <time>2022-04-17T13:15:27Z</time>
      </trkpt>
      <trkpt lat="50.05193" lon="1.91182">
        <ele>8.4</ele>
        <time>2022-04-17T13:15:28Z</time>
      </trkpt>
      <trkpt lat="50.05193" lon="1.9118">
        <ele>8.3</ele>
        <time>2022-04-17T13:15:30Z</time>
      </trkpt>
      <trkpt lat="50.05194" lon="1.91179">
        <ele>8.3</ele>
        <time>2022-04-17T13:15:31Z</time>
      </trkpt>
      <trkpt lat="50.05194" lon="1.91177">
        <ele>8.2</ele>
        <time>2022-04-17T13:15:32Z</time>
      </trkpt>
      <trkpt lat="50.05195" lon="1.91175">
        <ele>8.2</ele>
        <time>2022-04-17T13:15:33Z</time>
      </trkpt>
      <trkpt lat="50.05195" lon="1.91174">
        <ele>8.2</ele>
        <time>2022-04-17T13:15:34Z</time>
      </trkpt>
      <trkpt lat="50.05195" lon="1.91172">
        <ele>8.1</ele>
        <time>2022-04-17T13:15:36Z</time>
      </trkpt>
      <trkpt lat="50.05196" lon="1.9117">
        <ele>8.1</ele>
        <time>2022-04-17T13:15:37Z</time>
      </trkpt>
      <trkpt lat="50.05197" lon="1.91167">
        <ele>8</ele>
        <time>2022-04-17T13:15:38Z</time>
      </trkpt>
      <trkpt lat="50.05197" lon="1.91166">
        <ele>8</ele>
        <time>2022-04-17T13:15:39Z</time>
      </trkpt>
      <trkpt lat="50.05197" lon="1.91164">
        <ele>8</ele>
        <time>2022-04-17T13:15:40Z</time>
      </trkpt>
      <trkpt lat="50.05198" lon="1.91162">
        <ele>8</ele>
        <time>2022-04-17T13:15:41Z</time>
      </trkpt>
      <trkpt lat="50.05198" lon="1.9116">
        <ele>7.9</ele>
        <time>2022-04-17T13:15:42Z</time>
      </trkpt>
      <trkpt lat="50.05199" lon="1.91159">
        <ele>7.9</ele>
        <time>2022-04-17T13:15:43Z</time>
      </trkpt>
      <trkpt lat="50.05199" lon="1.91157">
        <ele>7.9</ele>
        <time>2022-04-17T13:15:45Z</time>
      </trkpt>
      <trkpt lat="50.05199" lon="1.91155">
        <ele>7.9</ele>
        <time>2022-04-17T13:15:46Z</time>
      </trkpt>
      <trkpt lat="50.052" lon="1.91151">
        <ele>7.8</ele>
        <time>2022-04-17T13:15:47Z</time>
      </trkpt>
      <trkpt lat="50.052" lon="1.9115">
        <ele>7.8</ele>
        <time>2022-04-17T13:15:48Z</time>
      </trkpt>
      <trkpt lat="50.052" lon="1.91149">
        <ele>7.8</ele>
        <time>2022-04-17T13:15:49Z</time>
      </trkpt>
      <trkpt lat="50.05201" lon="1.91148">
        <ele>7.8</ele>
        <time>2022-04-17T13:15:50Z</time>
      </trkpt>
      <trkpt lat="50.05201" lon="1.91146">
        <ele>7.8</ele>
        <time>2022-04-17T13:15:51Z</time>
      </trkpt>
      <trkpt lat="50.05201" lon="1.91144">
        <ele>7.8</ele>
        <time>2022-04-17T13:15:53Z</time>
      </trkpt>
      <trkpt lat="50.05202" lon="1.91142">
        <ele>7.8</ele>
        <time>2022-04-17T13:15:54Z</time>
      </trkpt>
      <trkpt lat="50.05202" lon="1.9114">
        <ele>7.8</ele>
        <time>2022-04-17T13:15:55Z</time>
      </trkpt>
      <trkpt lat="50.05202" lon="1.91138">
        <ele>7.7</ele>
        <time>2022-04-17T13:15:56Z</time>
      </trkpt>
      <trkpt lat="50.05203" lon="1.91136">
        <ele>7.7</ele>
        <time>2022-04-17T13:15:57Z</time>
      </trkpt>
      <trkpt lat="50.05203" lon="1.91134">
        <ele>7.7</ele>
        <time>2022-04-17T13:15:58Z</time>
      </trkpt>
      <trkpt lat="50.05203" lon="1.91133">
        <ele>7.7</ele>
        <time>2022-04-17T13:15:59Z</time>
      </trkpt>
      <trkpt lat="50.05203" lon="1.91132">
        <ele>7.7</ele>
        <time>2022-04-17T13:16:00Z</time>
      </trkpt>
      <trkpt lat="50.05203" lon="1.9113">
        <ele>7.7</ele>
        <time>2022-04-17T13:16:01Z</time>
      </trkpt>
      <trkpt lat="50.05204" lon="1.91127">
        <ele>7.7</ele>
        <time>2022-04-17T13:16:03Z</time>
      </trkpt>
      <trkpt lat="50.05204" lon="1.91125">
        <ele>7.7</ele>
        <time>2022-04-17T13:16:04Z</time>
      </trkpt>
      <trkpt lat="50.05205" lon="1.91123">
        <ele>7.7</ele>
        <time>2022-04-17T13:16:05Z</time>
      </trkpt>
      <trkpt lat="50.05205" lon="1.91122">
        <ele>7.7</ele>
        <time>2022-04-17T13:16:06Z</time>
      </trkpt>
      <trkpt lat="50.05206" lon="1.9112">
        <ele>7.7</ele>
        <time>2022-04-17T13:16:07Z</time>
      </trkpt>
      <trkpt lat="50.05206" lon="1.91119">
        <ele>7.7</ele>
        <time>2022-04-17T13:16:08Z</time>
      </trkpt>
      <trkpt lat="50.05207" lon="1.91118">
        <ele>7.7</ele>
        <time>2022-04-17T13:16:09Z</time>
      </trkpt>
      <trkpt lat="50.05207" lon="1.91116">
        <ele>7.7</ele>
        <time>2022-04-17T13:16:11Z</time>
      </trkpt>
      <trkpt lat="50.05208" lon="1.91113">
        <ele>7.7</ele>
        <time>2022-04-17T13:16:12Z</time>
      </trkpt>
      <trkpt lat="50.05208" lon="1.91113">
        <ele>7.7</ele>
        <time>2022-04-17T13:16:13Z</time>
      </trkpt>
      <trkpt lat="50.05209" lon="1.91112">
        <ele>7.7</ele>
        <time>2022-04-17T13:16:14Z</time>
      </trkpt>
      <trkpt lat="50.05209" lon="1.91111">
        <ele>7.7</ele>
        <time>2022-04-17T13:16:15Z</time>
      </trkpt>
      <trkpt lat="50.05209" lon="1.91109">
        <ele>7.7</ele>
        <time>2022-04-17T13:16:16Z</time>
      </trkpt>
      <trkpt lat="50.0521" lon="1.91106">
        <ele>7.8</ele>
        <time>2022-04-17T13:16:18Z</time>
      </trkpt>
      <trkpt lat="50.0521" lon="1.91105">
        <ele>7.8</ele>
        <time>2022-04-17T13:16:19Z</time>
      </trkpt>
      <trkpt lat="50.0521" lon="1.91104">
        <ele>7.8</ele>
        <time>2022-04-17T13:16:20Z</time>
      </trkpt>
      <trkpt lat="50.0521" lon="1.91101">
        <ele>7.8</ele>
        <time>2022-04-17T13:16:22Z</time>
      </trkpt>
      <trkpt lat="50.0521" lon="1.91099">
        <ele>7.8</ele>
        <time>2022-04-17T13:16:23Z</time>
      </trkpt>
      <trkpt lat="50.0521" lon="1.91096">
        <ele>7.8</ele>
        <time>2022-04-17T13:16:24Z</time>
      </trkpt>
      <trkpt lat="50.0521" lon="1.91094">
        <ele>7.8</ele>
        <time>2022-04-17T13:16:25Z</time>
      </trkpt>
      <trkpt lat="50.05211" lon="1.91093">
        <ele>7.8</ele>
        <time>2022-04-17T13:16:26Z</time>
      </trkpt>
      <trkpt lat="50.05211" lon="1.91092">
        <ele>7.8</ele>
        <time>2022-04-17T13:16:27Z</time>
      </trkpt>
      <trkpt lat="50.05211" lon="1.9109">
        <ele>7.8</ele>
        <time>2022-04-17T13:16:29Z</time>
      </trkpt>
      <trkpt lat="50.05211" lon="1.91088">
        <ele>7.8</ele>
        <time>2022-04-17T13:16:30Z</time>
      </trkpt>
      <trkpt lat="50.05212" lon="1.91086">
        <ele>7.8</ele>
        <time>2022-04-17T13:16:31Z</time>
      </trkpt>
      <trkpt lat="50.05212" lon="1.91083">
        <ele>7.8</ele>
        <time>2022-04-17T13:16:32Z</time>
      </trkpt>
      <trkpt lat="50.05212" lon="1.91082">
        <ele>7.8</ele>
        <time>2022-04-17T13:16:33Z</time>
      </trkpt>
      <trkpt lat="50.05212" lon="1.9108">
        <ele>7.8</ele>
        <time>2022-04-17T13:16:34Z</time>
      </trkpt>
      <trkpt lat="50.05213" lon="1.91079">
        <ele>7.8</ele>
        <time>2022-04-17T13:16:35Z</time>
      </trkpt>
      <trkpt lat="50.05213" lon="1.91076">
        <ele>7.8</ele>
        <time>2022-04-17T13:16:37Z</time>
      </trkpt>
      <trkpt lat="50.05213" lon="1.91075">
        <ele>7.8</ele>
        <time>2022-04-17T13:16:38Z</time>
      </trkpt>
      <trkpt lat="50.05214" lon="1.91072">
        <ele>7.9</ele>
        <time>2022-04-17T13:16:39Z</time>
      </trkpt>
      <trkpt lat="50.05214" lon="1.9107">
        <ele>7.9</ele>
        <time>2022-04-17T13:16:41Z</time>
      </trkpt>
      <trkpt lat="50.05214" lon="1.91069">
        <ele>7.9</ele>
        <time>2022-04-17T13:16:42Z</time>
      </trkpt>
      <trkpt lat="50.05214" lon="1.91067">
        <ele>7.9</ele>
        <time>2022-04-17T13:16:43Z</time>
      </trkpt>
      <trkpt lat="50.05214" lon="1.91065">
        <ele>7.9</ele>
        <time>2022-04-17T13:16:44Z</time>
      </trkpt>
      <trkpt lat="50.05214" lon="1.91064">
        <ele>7.9</ele>
        <time>2022-04-17T13:16:45Z</time>
      </trkpt>
      <trkpt lat="50.05213" lon="1.91063">
        <ele>7.9</ele>
        <time>2022-04-17T13:16:46Z</time>
      </trkpt>
      <trkpt lat="50.05213" lon="1.91063">
        <ele>7.9</ele>
        <time>2022-04-17T13:16:47Z</time>
      </trkpt>
      <trkpt lat="50.05213" lon="1.91062">
        <ele>7.9</ele>
        <time>2022-04-17T13:16:48Z</time>
      </trkpt>
      <trkpt lat="50.05213" lon="1.91062">
        <ele>7.9</ele>
        <time>2022-04-17T13:16:49Z</time>
      </trkpt>
      <trkpt lat="50.05213" lon="1.91061">
        <ele>7.9</ele>
        <time>2022-04-17T13:16:50Z</time>
      </trkpt>
      <trkpt lat="50.05213" lon="1.91061">
        <ele>7.9</ele>
        <time>2022-04-17T13:16:51Z</time>
      </trkpt>
      <trkpt lat="50.05213" lon="1.9106">
        <ele>7.9</ele>
        <time>2022-04-17T13:16:52Z</time>
      </trkpt>
      <trkpt lat="50.05213" lon="1.9106">
        <ele>7.9</ele>
        <time>2022-04-17T13:16:54Z</time>
      </trkpt>
      <trkpt lat="50.05213" lon="1.9106">
        <ele>7.9</ele>
        <time>2022-04-17T13:16:55Z</time>
      </trkpt>
      <trkpt lat="50.05213" lon="1.91059">
        <ele>7.9</ele>
        <time>2022-04-17T13:16:56Z</time>
      </trkpt>
      <trkpt lat="50.05213" lon="1.91059">
        <ele>7.9</ele>
        <time>2022-04-17T13:16:57Z</time>
      </trkpt>
      <trkpt lat="50.05213" lon="1.91058">
        <ele>7.9</ele>
        <time>2022-04-17T13:16:58Z</time>
      </trkpt>
      <trkpt lat="50.05212" lon="1.91056">
        <ele>7.9</ele>
        <time>2022-04-17T13:16:59Z</time>
      </trkpt>
      <trkpt lat="50.05212" lon="1.91055">
        <ele>7.9</ele>
        <time>2022-04-17T13:17:00Z</time>
      </trkpt>
      <trkpt lat="50.05212" lon="1.91052">
        <ele>7.8</ele>
        <time>2022-04-17T13:17:02Z</time>
      </trkpt>
      <trkpt lat="50.05212" lon="1.91051">
        <ele>7.8</ele>
        <time>2022-04-17T13:17:03Z</time>
      </trkpt>
      <trkpt lat="50.05212" lon="1.91051">
        <ele>7.8</ele>
        <time>2022-04-17T13:17:04Z</time>
      </trkpt>
      <trkpt lat="50.05213" lon="1.91052">
        <ele>7.8</ele>
        <time>2022-04-17T13:17:05Z</time>
      </trkpt>
      <trkpt lat="50.05213" lon="1.91054">
        <ele>7.8</ele>
        <time>2022-04-17T13:17:07Z</time>
      </trkpt>
      <trkpt lat="50.05212" lon="1.91056">
        <ele>7.8</ele>
        <time>2022-04-17T13:17:09Z</time>
      </trkpt>
      <trkpt lat="50.05212" lon="1.91056">
        <ele>7.8</ele>
        <time>2022-04-17T13:17:10Z</time>
      </trkpt>
      <trkpt lat="50.05211" lon="1.91056">
        <ele>7.8</ele>
        <time>2022-04-17T13:17:11Z</time>
      </trkpt>
      <trkpt lat="50.05211" lon="1.91056">
        <ele>7.8</ele>
        <time>2022-04-17T13:17:12Z</time>
      </trkpt>
      <trkpt lat="50.05211" lon="1.91056">
        <ele>7.8</ele>
        <time>2022-04-17T13:17:13Z</time>
      </trkpt>
      <trkpt lat="50.05211" lon="1.91056">
        <ele>7.8</ele>
        <time>2022-04-17T13:17:14Z</time>
      </trkpt>
      <trkpt lat="50.05211" lon="1.91056">
        <ele>7.8</ele>
        <time>2022-04-17T13:17:15Z</time>
      </trkpt>
      <trkpt lat="50.05211" lon="1.91056">
        <ele>7.8</ele>
        <time>2022-04-17T13:17:16Z</time>
      </trkpt>
      <trkpt lat="50.05211" lon="1.91056">
        <ele>7.8</ele>
        <time>2022-04-17T13:17:17Z</time>
      </trkpt>
      <trkpt lat="50.05211" lon="1.91056">
        <ele>7.8</ele>
        <time>2022-04-17T13:17:19Z</time>
      </trkpt>
      <trkpt lat="50.05211" lon="1.91056">
        <ele>7.8</ele>
        <time>2022-04-17T13:17:20Z</time>
      </trkpt>
      <trkpt lat="50.05211" lon="1.91056">
        <ele>7.8</ele>
        <time>2022-04-17T13:17:21Z</time>
      </trkpt>
      <trkpt lat="50.05211" lon="1.91055">
        <ele>7.8</ele>
        <time>2022-04-17T13:17:22Z</time>
      </trkpt>
      <trkpt lat="50.05211" lon="1.91055">
        <ele>7.8</ele>
        <time>2022-04-17T13:17:23Z</time>
      </trkpt>
      <trkpt lat="50.05211" lon="1.91055">
        <ele>7.8</ele>
        <time>2022-04-17T13:17:24Z</time>
      </trkpt>
      <trkpt lat="50.05211" lon="1.91055">
        <ele>7.8</ele>
        <time>2022-04-17T13:17:25Z</time>
      </trkpt>
      <trkpt lat="50.05211" lon="1.91055">
        <ele>7.8</ele>
        <time>2022-04-17T13:17:26Z</time>
      </trkpt>
      <trkpt lat="50.05211" lon="1.91055">
        <ele>7.8</ele>
        <time>2022-04-17T13:17:27Z</time>
      </trkpt>
      <trkpt lat="50.05211" lon="1.91055">
        <ele>7.8</ele>
        <time>2022-04-17T13:17:28Z</time>
      </trkpt>
      <trkpt lat="50.05211" lon="1.91055">
        <ele>7.8</ele>
        <time>2022-04-17T13:17:29Z</time>
      </trkpt>
      <trkpt lat="50.05211" lon="1.91055">
        <ele>7.8</ele>
        <time>2022-04-17T13:17:30Z</time>
      </trkpt>
      <trkpt lat="50.05211" lon="1.91055">
        <ele>7.8</ele>
        <time>2022-04-17T13:17:31Z</time>
      </trkpt>
      <trkpt lat="50.05211" lon="1.91055">
        <ele>7.8</ele>
        <time>2022-04-17T13:17:32Z</time>
      </trkpt>
      <trkpt lat="50.05211" lon="1.91055">
        <ele>7.8</ele>
        <time>2022-04-17T13:17:33Z</time>
      </trkpt>
      <trkpt lat="50.05211" lon="1.91055">
        <ele>7.8</ele>
        <time>2022-04-17T13:17:34Z</time>
      </trkpt>
      <trkpt lat="50.05211" lon="1.91055">
        <ele>7.8</ele>
        <time>2022-04-17T13:17:35Z</time>
      </trkpt>
      <trkpt lat="50.05211" lon="1.91055">
        <ele>7.8</ele>
        <time>2022-04-17T13:17:36Z</time>
      </trkpt>
      <trkpt lat="50.05211" lon="1.91055">
        <ele>7.8</ele>
        <time>2022-04-17T13:17:37Z</time>
      </trkpt>
      <trkpt lat="50.05211" lon="1.91055">
        <ele>7.8</ele>
        <time>2022-04-17T13:17:38Z</time>
      </trkpt>
      <trkpt lat="50.05211" lon="1.91055">
        <ele>7.8</ele>
        <time>2022-04-17T13:17:39Z</time>
      </trkpt>
      <trkpt lat="50.05211" lon="1.91055">
        <ele>7.8</ele>
        <time>2022-04-17T13:17:40Z</time>
      </trkpt>
      <trkpt lat="50.05211" lon="1.91055">
        <ele>7.8</ele>
        <time>2022-04-17T13:17:41Z</time>
      </trkpt>
      <trkpt lat="50.05211" lon="1.91055">
        <ele>7.8</ele>
        <time>2022-04-17T13:17:42Z</time>
      </trkpt>
      <trkpt lat="50.05211" lon="1.91055">
        <ele>7.8</ele>
        <time>2022-04-17T13:17:43Z</time>
      </trkpt>
      <trkpt lat="50.05211" lon="1.91055">
        <ele>7.8</ele>
        <time>2022-04-17T13:17:44Z</time>
      </trkpt>
      <trkpt lat="50.05211" lon="1.91055">
        <ele>7.8</ele>
        <time>2022-04-17T13:17:45Z</time>
      </trkpt>
      <trkpt lat="50.05211" lon="1.91055">
        <ele>7.8</ele>
        <time>2022-04-17T13:17:46Z</time>
      </trkpt>
      <trkpt lat="50.05211" lon="1.91055">
        <ele>7.8</ele>
        <time>2022-04-17T13:17:47Z</time>
      </trkpt>
      <trkpt lat="50.05211" lon="1.91055">
        <ele>7.8</ele>
        <time>2022-04-17T13:17:48Z</time>
      </trkpt>
      <trkpt lat="50.05211" lon="1.91055">
        <ele>7.8</ele>
        <time>2022-04-17T13:17:49Z</time>
      </trkpt>
      <trkpt lat="50.05211" lon="1.91055">
        <ele>7.8</ele>
        <time>2022-04-17T13:17:50Z</time>
      </trkpt>
      <trkpt lat="50.05211" lon="1.91055">
        <ele>7.8</ele>
        <time>2022-04-17T13:17:51Z</time>
      </trkpt>
      <trkpt lat="50.05211" lon="1.91055">
        <ele>7.8</ele>
        <time>2022-04-17T13:17:53Z</time>
      </trkpt>
      <trkpt lat="50.05211" lon="1.91055">
        <ele>7.8</ele>
        <time>2022-04-17T13:17:54Z</time>
      </trkpt>
      <trkpt lat="50.05211" lon="1.91055">
        <ele>7.8</ele>
        <time>2022-04-17T13:17:55Z</time>
      </trkpt>
      <trkpt lat="50.05211" lon="1.91055">
        <ele>7.8</ele>
        <time>2022-04-17T13:17:56Z</time>
      </trkpt>
      <trkpt lat="50.05211" lon="1.91055">
        <ele>7.8</ele>
        <time>2022-04-17T13:17:57Z</time>
      </trkpt>
      <trkpt lat="50.05211" lon="1.91055">
        <ele>7.8</ele>
        <time>2022-04-17T13:17:58Z</time>
      </trkpt>
      <trkpt lat="50.05211" lon="1.91055">
        <ele>7.8</ele>
        <time>2022-04-17T13:17:59Z</time>
      </trkpt>
      <trkpt lat="50.05211" lon="1.91055">
        <ele>7.8</ele>
        <time>2022-04-17T13:18:00Z</time>
      </trkpt>
      <trkpt lat="50.05211" lon="1.91055">
        <ele>7.8</ele>
        <time>2022-04-17T13:18:01Z</time>
      </trkpt>
      <trkpt lat="50.05211" lon="1.91055">
        <ele>7.8</ele>
        <time>2022-04-17T13:18:02Z</time>
      </trkpt>
      <trkpt lat="50.05211" lon="1.91055">
        <ele>7.8</ele>
        <time>2022-04-17T13:18:03Z</time>
      </trkpt>
      <trkpt lat="50.05211" lon="1.91055">
        <ele>7.8</ele>
        <time>2022-04-17T13:18:04Z</time>
      </trkpt>
      <trkpt lat="50.05211" lon="1.91055">
        <ele>7.8</ele>
        <time>2022-04-17T13:18:05Z</time>
      </trkpt>
      <trkpt lat="50.05211" lon="1.91055">
        <ele>7.8</ele>
        <time>2022-04-17T13:18:07Z</time>
      </trkpt>
      <trkpt lat="50.05211" lon="1.91055">
        <ele>7.8</ele>
        <time>2022-04-17T13:18:08Z</time>
      </trkpt>
      <trkpt lat="50.05211" lon="1.91055">
        <ele>7.8</ele>
        <time>2022-04-17T13:18:09Z</time>
      </trkpt>
      <trkpt lat="50.05211" lon="1.91055">
        <ele>7.8</ele>
        <time>2022-04-17T13:18:10Z</time>
      </trkpt>
      <trkpt lat="50.05211" lon="1.91055">
        <ele>7.8</ele>
        <time>2022-04-17T13:18:11Z</time>
      </trkpt>
      <trkpt lat="50.05211" lon="1.91055">
        <ele>7.8</ele>
        <time>2022-04-17T13:18:12Z</time>
      </trkpt>
      <trkpt lat="50.05211" lon="1.91055">
        <ele>7.8</ele>
        <time>2022-04-17T13:18:13Z</time>
      </trkpt>
      <trkpt lat="50.05211" lon="1.91055">
        <ele>7.8</ele>
        <time>2022-04-17T13:18:14Z</time>
      </trkpt>
      <trkpt lat="50.05211" lon="1.91055">
        <ele>7.8</ele>
        <time>2022-04-17T13:18:15Z</time>
      </trkpt>
      <trkpt lat="50.05211" lon="1.91055">
        <ele>7.8</ele>
        <time>2022-04-17T13:18:16Z</time>
      </trkpt>
      <trkpt lat="50.05211" lon="1.91055">
        <ele>7.8</ele>
        <time>2022-04-17T13:18:17Z</time>
      </trkpt>
      <trkpt lat="50.05211" lon="1.91055">
        <ele>7.8</ele>
        <time>2022-04-17T13:18:18Z</time>
      </trkpt>
      <trkpt lat="50.05211" lon="1.91055">
        <ele>7.8</ele>
        <time>2022-04-17T13:18:20Z</time>
      </trkpt>
      <trkpt lat="50.05211" lon="1.91055">
        <ele>7.8</ele>
        <time>2022-04-17T13:18:21Z</time>
      </trkpt>
      <trkpt lat="50.05211" lon="1.91055">
        <ele>7.8</ele>
        <time>2022-04-17T13:18:23Z</time>
      </trkpt>
      <trkpt lat="50.05211" lon="1.91055">
        <ele>7.8</ele>
        <time>2022-04-17T13:18:24Z</time>
      </trkpt>
      <trkpt lat="50.05211" lon="1.91055">
        <ele>7.8</ele>
        <time>2022-04-17T13:18:26Z</time>
      </trkpt>
      <trkpt lat="50.05211" lon="1.91055">
        <ele>7.8</ele>
        <time>2022-04-17T13:18:27Z</time>
      </trkpt>
      <trkpt lat="50.05211" lon="1.91055">
        <ele>7.8</ele>
        <time>2022-04-17T13:18:28Z</time>
      </trkpt>
      <trkpt lat="50.05211" lon="1.91055">
        <ele>7.8</ele>
        <time>2022-04-17T13:18:29Z</time>
      </trkpt>
      <trkpt lat="50.05211" lon="1.91055">
        <ele>7.8</ele>
        <time>2022-04-17T13:18:30Z</time>
      </trkpt>
      <trkpt lat="50.05211" lon="1.91055">
        <ele>7.8</ele>
        <time>2022-04-17T13:18:32Z</time>
      </trkpt>
      <trkpt lat="50.05211" lon="1.91055">
        <ele>7.8</ele>
        <time>2022-04-17T13:18:33Z</time>
      </trkpt>
      <trkpt lat="50.05211" lon="1.91055">
        <ele>7.8</ele>
        <time>2022-04-17T13:18:34Z</time>
      </trkpt>
      <trkpt lat="50.05211" lon="1.91055">
        <ele>7.8</ele>
        <time>2022-04-17T13:18:35Z</time>
      </trkpt>
      <trkpt lat="50.05211" lon="1.91055">
        <ele>7.8</ele>
        <time>2022-04-17T13:18:36Z</time>
      </trkpt>
      <trkpt lat="50.05211" lon="1.91055">
        <ele>7.8</ele>
        <time>2022-04-17T13:18:38Z</time>
      </trkpt>
      <trkpt lat="50.05211" lon="1.91055">
        <ele>7.8</ele>
        <time>2022-04-17T13:18:39Z</time>
      </trkpt>
      <trkpt lat="50.05211" lon="1.91055">
        <ele>7.8</ele>
        <time>2022-04-17T13:18:40Z</time>
      </trkpt>
      <trkpt lat="50.05211" lon="1.91055">
        <ele>7.8</ele>
        <time>2022-04-17T13:18:42Z</time>
      </trkpt>
      <trkpt lat="50.05211" lon="1.91055">
        <ele>7.8</ele>
        <time>2022-04-17T13:18:44Z</time>
      </trkpt>
      <trkpt lat="50.05211" lon="1.91055">
        <ele>7.8</ele>
        <time>2022-04-17T13:18:45Z</time>
      </trkpt>
      <trkpt lat="50.05211" lon="1.91055">
        <ele>7.8</ele>
        <time>2022-04-17T13:18:46Z</time>
      </trkpt>
      <trkpt lat="50.05211" lon="1.91055">
        <ele>7.8</ele>
        <time>2022-04-17T13:18:47Z</time>
      </trkpt>
      <trkpt lat="50.05211" lon="1.91055">
        <ele>7.8</ele>
        <time>2022-04-17T13:18:48Z</time>
      </trkpt>
      <trkpt lat="50.05211" lon="1.91055">
        <ele>7.8</ele>
        <time>2022-04-17T13:18:49Z</time>
      </trkpt>
      <trkpt lat="50.05211" lon="1.91055">
        <ele>7.8</ele>
        <time>2022-04-17T13:18:50Z</time>
      </trkpt>
      <trkpt lat="50.05211" lon="1.91055">
        <ele>7.8</ele>
        <time>2022-04-17T13:18:52Z</time>
      </trkpt>
      <trkpt lat="50.05211" lon="1.91055">
        <ele>7.8</ele>
        <time>2022-04-17T13:18:53Z</time>
      </trkpt>
      <trkpt lat="50.05211" lon="1.91055">
        <ele>7.8</ele>
        <time>2022-04-17T13:18:54Z</time>
      </trkpt>
      <trkpt lat="50.05211" lon="1.91055">
        <ele>7.8</ele>
        <time>2022-04-17T13:18:55Z</time>
      </trkpt>
      <trkpt lat="50.05211" lon="1.91055">
        <ele>7.8</ele>
        <time>2022-04-17T13:18:56Z</time>
      </trkpt>
      <trkpt lat="50.05211" lon="1.91055">
        <ele>7.8</ele>
        <time>2022-04-17T13:18:57Z</time>
      </trkpt>
      <trkpt lat="50.05211" lon="1.91055">
        <ele>7.8</ele>
        <time>2022-04-17T13:18:58Z</time>
      </trkpt>
      <trkpt lat="50.05211" lon="1.91055">
        <ele>7.8</ele>
        <time>2022-04-17T13:18:59Z</time>
      </trkpt>
      <trkpt lat="50.05211" lon="1.91055">
        <ele>7.8</ele>
        <time>2022-04-17T13:19:00Z</time>
      </trkpt>
      <trkpt lat="50.05211" lon="1.91055">
        <ele>7.8</ele>
        <time>2022-04-17T13:19:01Z</time>
      </trkpt>
      <trkpt lat="50.05211" lon="1.91055">
        <ele>7.8</ele>
        <time>2022-04-17T13:19:02Z</time>
      </trkpt>
      <trkpt lat="50.05211" lon="1.91055">
        <ele>7.8</ele>
        <time>2022-04-17T13:19:04Z</time>
      </trkpt>
      <trkpt lat="50.05211" lon="1.91055">
        <ele>7.8</ele>
        <time>2022-04-17T13:19:05Z</time>
      </trkpt>
      <trkpt lat="50.05211" lon="1.91055">
        <ele>7.8</ele>
        <time>2022-04-17T13:19:06Z</time>
      </trkpt>
      <trkpt lat="50.05211" lon="1.91055">
        <ele>7.8</ele>
        <time>2022-04-17T13:19:07Z</time>
      </trkpt>
      <trkpt lat="50.05211" lon="1.91055">
        <ele>7.8</ele>
        <time>2022-04-17T13:19:08Z</time>
      </trkpt>
      <trkpt lat="50.05211" lon="1.91055">
        <ele>7.8</ele>
        <time>2022-04-17T13:19:09Z</time>
      </trkpt>
      <trkpt lat="50.05211" lon="1.91055">
        <ele>7.8</ele>
        <time>2022-04-17T13:19:10Z</time>
      </trkpt>
      <trkpt lat="50.05211" lon="1.91055">
        <ele>7.8</ele>
        <time>2022-04-17T13:19:11Z</time>
      </trkpt>
      <trkpt lat="50.05211" lon="1.91055">
        <ele>7.8</ele>
        <time>2022-04-17T13:19:12Z</time>
      </trkpt>
      <trkpt lat="50.05211" lon="1.91055">
        <ele>7.8</ele>
        <time>2022-04-17T13:19:13Z</time>
      </trkpt>
      <trkpt lat="50.05211" lon="1.91055">
        <ele>7.8</ele>
        <time>2022-04-17T13:19:14Z</time>
      </trkpt>
      <trkpt lat="50.05211" lon="1.91055">
        <ele>7.8</ele>
        <time>2022-04-17T13:19:15Z</time>
      </trkpt>
      <trkpt lat="50.05211" lon="1.91055">
        <ele>7.8</ele>
        <time>2022-04-17T13:19:16Z</time>
      </trkpt>
      <trkpt lat="50.05211" lon="1.91055">
        <ele>7.8</ele>
        <time>2022-04-17T13:19:17Z</time>
      </trkpt>
      <trkpt lat="50.05211" lon="1.91055">
        <ele>7.8</ele>
        <time>2022-04-17T13:19:18Z</time>
      </trkpt>
      <trkpt lat="50.05211" lon="1.91055">
        <ele>7.8</ele>
        <time>2022-04-17T13:19:19Z</time>
      </trkpt>
      <trkpt lat="50.05211" lon="1.91055">
        <ele>7.8</ele>
        <time>2022-04-17T13:19:20Z</time>
      </trkpt>
      <trkpt lat="50.05211" lon="1.91055">
        <ele>7.8</ele>
        <time>2022-04-17T13:19:21Z</time>
      </trkpt>
      <trkpt lat="50.05211" lon="1.91055">
        <ele>7.8</ele>
        <time>2022-04-17T13:19:22Z</time>
      </trkpt>
      <trkpt lat="50.05211" lon="1.91055">
        <ele>7.8</ele>
        <time>2022-04-17T13:19:23Z</time>
      </trkpt>
      <trkpt lat="50.05211" lon="1.91055">
        <ele>7.8</ele>
        <time>2022-04-17T13:19:24Z</time>
      </trkpt>
      <trkpt lat="50.05211" lon="1.91055">
        <ele>7.8</ele>
        <time>2022-04-17T13:19:25Z</time>
      </trkpt>
      <trkpt lat="50.05211" lon="1.91055">
        <ele>7.8</ele>
        <time>2022-04-17T13:19:26Z</time>
      </trkpt>
      <trkpt lat="50.05211" lon="1.91055">
        <ele>7.8</ele>
        <time>2022-04-17T13:19:27Z</time>
      </trkpt>
      <trkpt lat="50.05211" lon="1.91055">
        <ele>7.8</ele>
        <time>2022-04-17T13:19:28Z</time>
      </trkpt>
      <trkpt lat="50.05211" lon="1.91055">
        <ele>7.8</ele>
        <time>2022-04-17T13:19:29Z</time>
      </trkpt>
      <trkpt lat="50.05211" lon="1.91055">
        <ele>7.8</ele>
        <time>2022-04-17T13:19:30Z</time>
      </trkpt>
      <trkpt lat="50.05211" lon="1.91055">
        <ele>7.8</ele>
        <time>2022-04-17T13:19:31Z</time>
      </trkpt>
      <trkpt lat="50.05211" lon="1.91055">
        <ele>7.8</ele>
        <time>2022-04-17T13:19:32Z</time>
      </trkpt>
      <trkpt lat="50.05211" lon="1.91055">
        <ele>7.8</ele>
        <time>2022-04-17T13:19:33Z</time>
      </trkpt>
      <trkpt lat="50.05211" lon="1.91055">
        <ele>7.8</ele>
        <time>2022-04-17T13:19:34Z</time>
      </trkpt>
      <trkpt lat="50.05211" lon="1.91055">
        <ele>7.8</ele>
        <time>2022-04-17T13:19:35Z</time>
      </trkpt>
      <trkpt lat="50.05211" lon="1.91055">
        <ele>7.8</ele>
        <time>2022-04-17T13:19:36Z</time>
      </trkpt>
      <trkpt lat="50.05211" lon="1.91055">
        <ele>7.8</ele>
        <time>2022-04-17T13:19:37Z</time>
      </trkpt>
      <trkpt lat="50.05211" lon="1.91055">
        <ele>7.8</ele>
        <time>2022-04-17T13:19:38Z</time>
      </trkpt>
      <trkpt lat="50.05211" lon="1.91055">
        <ele>7.8</ele>
        <time>2022-04-17T13:19:39Z</time>
      </trkpt>
      <trkpt lat="50.05211" lon="1.91055">
        <ele>7.8</ele>
        <time>2022-04-17T13:19:40Z</time>
      </trkpt>
      <trkpt lat="50.05211" lon="1.91055">
        <ele>7.8</ele>
        <time>2022-04-17T13:19:41Z</time>
      </trkpt>
      <trkpt lat="50.05211" lon="1.91055">
        <ele>7.8</ele>
        <time>2022-04-17T13:19:42Z</time>
      </trkpt>
      <trkpt lat="50.05211" lon="1.91055">
        <ele>7.8</ele>
        <time>2022-04-17T13:19:43Z</time>
      </trkpt>
      <trkpt lat="50.05211" lon="1.91055">
        <ele>7.8</ele>
        <time>2022-04-17T13:19:44Z</time>
      </trkpt>
      <trkpt lat="50.05211" lon="1.91055">
        <ele>7.8</ele>
        <time>2022-04-17T13:19:45Z</time>
      </trkpt>
      <trkpt lat="50.05211" lon="1.91055">
        <ele>7.8</ele>
        <time>2022-04-17T13:19:46Z</time>
      </trkpt>
      <trkpt lat="50.05211" lon="1.91055">
        <ele>7.8</ele>
        <time>2022-04-17T13:19:47Z</time>
      </trkpt>
      <trkpt lat="50.05211" lon="1.91055">
        <ele>7.8</ele>
        <time>2022-04-17T13:19:48Z</time>
      </trkpt>
      <trkpt lat="50.05211" lon="1.91055">
        <ele>7.8</ele>
        <time>2022-04-17T13:19:49Z</time>
      </trkpt>
      <trkpt lat="50.05211" lon="1.91055">
        <ele>7.8</ele>
        <time>2022-04-17T13:19:50Z</time>
      </trkpt>
      <trkpt lat="50.05211" lon="1.91055">
        <ele>7.8</ele>
        <time>2022-04-17T13:19:51Z</time>
      </trkpt>
      <trkpt lat="50.05211" lon="1.91055">
        <ele>7.8</ele>
        <time>2022-04-17T13:19:53Z</time>
      </trkpt>
      <trkpt lat="50.0521" lon="1.91053">
        <ele>7.8</ele>
        <time>2022-04-17T13:19:54Z</time>
      </trkpt>
      <trkpt lat="50.05209" lon="1.91052">
        <ele>7.8</ele>
        <time>2022-04-17T13:19:55Z</time>
      </trkpt>
      <trkpt lat="50.05209" lon="1.91052">
        <ele>7.8</ele>
        <time>2022-04-17T13:19:56Z</time>
      </trkpt>
      <trkpt lat="50.05209" lon="1.91052">
        <ele>7.8</ele>
        <time>2022-04-17T13:19:57Z</time>
      </trkpt>
      <trkpt lat="50.0521" lon="1.91052">
        <ele>7.8</ele>
        <time>2022-04-17T13:19:58Z</time>
      </trkpt>
      <trkpt lat="50.0521" lon="1.91051">
        <ele>7.8</ele>
        <time>2022-04-17T13:19:59Z</time>
      </trkpt>
      <trkpt lat="50.0521" lon="1.91051">
        <ele>7.8</ele>
        <time>2022-04-17T13:20:00Z</time>
      </trkpt>
      <trkpt lat="50.05211" lon="1.91052">
        <ele>7.8</ele>
        <time>2022-04-17T13:20:01Z</time>
      </trkpt>
      <trkpt lat="50.0521" lon="1.9105">
        <ele>7.8</ele>
        <time>2022-04-17T13:20:02Z</time>
      </trkpt>
      <trkpt lat="50.0521" lon="1.91048">
        <ele>7.8</ele>
        <time>2022-04-17T13:20:03Z</time>
      </trkpt>
      <trkpt lat="50.0521" lon="1.91048">
        <ele>7.8</ele>
        <time>2022-04-17T13:20:05Z</time>
      </trkpt>
      <trkpt lat="50.05211" lon="1.91048">
        <ele>7.8</ele>
        <time>2022-04-17T13:20:06Z</time>
      </trkpt>
      <trkpt lat="50.05212" lon="1.91048">
        <ele>7.8</ele>
        <time>2022-04-17T13:20:07Z</time>
      </trkpt>
      <trkpt lat="50.05212" lon="1.91047">
        <ele>7.8</ele>
        <time>2022-04-17T13:20:08Z</time>
      </trkpt>
      <trkpt lat="50.05213" lon="1.91044">
        <ele>7.8</ele>
        <time>2022-04-17T13:20:09Z</time>
      </trkpt>
      <trkpt lat="50.05212" lon="1.91039">
        <ele>7.8</ele>
        <time>2022-04-17T13:20:11Z</time>
      </trkpt>
      <trkpt lat="50.05212" lon="1.91038">
        <ele>7.8</ele>
        <time>2022-04-17T13:20:12Z</time>
      </trkpt>
      <trkpt lat="50.05211" lon="1.91032">
        <ele>7.8</ele>
        <time>2022-04-17T13:20:13Z</time>
      </trkpt>
      <trkpt lat="50.0521" lon="1.9103">
        <ele>7.8</ele>
        <time>2022-04-17T13:20:14Z</time>
      </trkpt>
      <trkpt lat="50.0521" lon="1.91025">
        <ele>7.8</ele>
        <time>2022-04-17T13:20:16Z</time>
      </trkpt>
      <trkpt lat="50.0521" lon="1.91023">
        <ele>7.8</ele>
        <time>2022-04-17T13:20:17Z</time>
      </trkpt>
      <trkpt lat="50.0521" lon="1.91021">
        <ele>7.8</ele>
        <time>2022-04-17T13:20:18Z</time>
      </trkpt>
      <trkpt lat="50.0521" lon="1.91019">
        <ele>7.8</ele>
        <time>2022-04-17T13:20:19Z</time>
      </trkpt>
      <trkpt lat="50.0521" lon="1.91017">
        <ele>7.8</ele>
        <time>2022-04-17T13:20:20Z</time>
      </trkpt>
      <trkpt lat="50.05211" lon="1.91017">
        <ele>7.8</ele>
        <time>2022-04-17T13:20:21Z</time>
      </trkpt>
      <trkpt lat="50.05212" lon="1.91018">
        <ele>7.8</ele>
        <time>2022-04-17T13:20:23Z</time>
      </trkpt>
      <trkpt lat="50.05212" lon="1.91016">
        <ele>7.8</ele>
        <time>2022-04-17T13:20:24Z</time>
      </trkpt>
      <trkpt lat="50.05212" lon="1.91014">
        <ele>7.8</ele>
        <time>2022-04-17T13:20:25Z</time>
      </trkpt>
      <trkpt lat="50.05212" lon="1.91012">
        <ele>7.8</ele>
        <time>2022-04-17T13:20:26Z</time>
      </trkpt>
      <trkpt lat="50.05212" lon="1.9101">
        <ele>7.8</ele>
        <time>2022-04-17T13:20:28Z</time>
      </trkpt>
      <trkpt lat="50.05212" lon="1.91008">
        <ele>7.8</ele>
        <time>2022-04-17T13:20:29Z</time>
      </trkpt>
      <trkpt lat="50.05212" lon="1.91006">
        <ele>7.8</ele>
        <time>2022-04-17T13:20:30Z</time>
      </trkpt>
      <trkpt lat="50.05211" lon="1.91006">
        <ele>7.8</ele>
        <time>2022-04-17T13:20:31Z</time>
      </trkpt>
      <trkpt lat="50.0521" lon="1.91005">
        <ele>7.8</ele>
        <time>2022-04-17T13:20:32Z</time>
      </trkpt>
      <trkpt lat="50.0521" lon="1.91003">
        <ele>7.7</ele>
        <time>2022-04-17T13:20:33Z</time>
      </trkpt>
      <trkpt lat="50.05209" lon="1.91001">
        <ele>7.7</ele>
        <time>2022-04-17T13:20:34Z</time>
      </trkpt>
      <trkpt lat="50.05209" lon="1.90999">
        <ele>7.7</ele>
        <time>2022-04-17T13:20:36Z</time>
      </trkpt>
      <trkpt lat="50.05209" lon="1.90997">
        <ele>7.7</ele>
        <time>2022-04-17T13:20:37Z</time>
      </trkpt>
      <trkpt lat="50.05209" lon="1.90994">
        <ele>7.7</ele>
        <time>2022-04-17T13:20:38Z</time>
      </trkpt>
      <trkpt lat="50.05209" lon="1.90992">
        <ele>7.7</ele>
        <time>2022-04-17T13:20:39Z</time>
      </trkpt>
      <trkpt lat="50.05209" lon="1.9099">
        <ele>7.7</ele>
        <time>2022-04-17T13:20:40Z</time>
      </trkpt>
      <trkpt lat="50.05208" lon="1.90988">
        <ele>7.7</ele>
        <time>2022-04-17T13:20:41Z</time>
      </trkpt>
      <trkpt lat="50.05208" lon="1.90985">
        <ele>7.7</ele>
        <time>2022-04-17T13:20:42Z</time>
      </trkpt>
      <trkpt lat="50.05207" lon="1.90983">
        <ele>7.7</ele>
        <time>2022-04-17T13:20:43Z</time>
      </trkpt>
      <trkpt lat="50.05207" lon="1.90981">
        <ele>7.7</ele>
        <time>2022-04-17T13:20:44Z</time>
      </trkpt>
      <trkpt lat="50.05206" lon="1.90977">
        <ele>7.7</ele>
        <time>2022-04-17T13:20:46Z</time>
      </trkpt>
      <trkpt lat="50.05206" lon="1.90975">
        <ele>7.7</ele>
        <time>2022-04-17T13:20:47Z</time>
      </trkpt>
      <trkpt lat="50.05206" lon="1.90972">
        <ele>7.7</ele>
        <time>2022-04-17T13:20:48Z</time>
      </trkpt>
      <trkpt lat="50.05205" lon="1.90971">
        <ele>7.7</ele>
        <time>2022-04-17T13:20:49Z</time>
      </trkpt>
      <trkpt lat="50.05205" lon="1.90968">
        <ele>7.7</ele>
        <time>2022-04-17T13:20:51Z</time>
      </trkpt>
      <trkpt lat="50.05205" lon="1.90966">
        <ele>7.7</ele>
        <time>2022-04-17T13:20:52Z</time>
      </trkpt>
      <trkpt lat="50.05204" lon="1.90964">
        <ele>7.7</ele>
        <time>2022-04-17T13:20:53Z</time>
      </trkpt>
      <trkpt lat="50.05204" lon="1.90961">
        <ele>7.7</ele>
        <time>2022-04-17T13:20:54Z</time>
      </trkpt>
      <trkpt lat="50.05204" lon="1.9096">
        <ele>7.7</ele>
        <time>2022-04-17T13:20:55Z</time>
      </trkpt>
      <trkpt lat="50.05203" lon="1.90958">
        <ele>7.7</ele>
        <time>2022-04-17T13:20:56Z</time>
      </trkpt>
      <trkpt lat="50.05203" lon="1.90956">
        <ele>7.7</ele>
        <time>2022-04-17T13:20:57Z</time>
      </trkpt>
      <trkpt lat="50.05203" lon="1.90955">
        <ele>7.7</ele>
        <time>2022-04-17T13:20:59Z</time>
      </trkpt>
      <trkpt lat="50.05203" lon="1.90953">
        <ele>7.7</ele>
        <time>2022-04-17T13:21:00Z</time>
      </trkpt>
      <trkpt lat="50.05203" lon="1.9095">
        <ele>7.7</ele>
        <time>2022-04-17T13:21:01Z</time>
      </trkpt>
      <trkpt lat="50.05203" lon="1.90949">
        <ele>7.7</ele>
        <time>2022-04-17T13:21:02Z</time>
      </trkpt>
      <trkpt lat="50.05202" lon="1.90947">
        <ele>7.7</ele>
        <time>2022-04-17T13:21:03Z</time>
      </trkpt>
      <trkpt lat="50.05202" lon="1.90946">
        <ele>7.7</ele>
        <time>2022-04-17T13:21:04Z</time>
      </trkpt>
      <trkpt lat="50.05203" lon="1.90942">
        <ele>7.7</ele>
        <time>2022-04-17T13:21:05Z</time>
      </trkpt>
      <trkpt lat="50.05203" lon="1.90941">
        <ele>7.7</ele>
        <time>2022-04-17T13:21:06Z</time>
      </trkpt>
      <trkpt lat="50.05202" lon="1.90939">
        <ele>7.7</ele>
        <time>2022-04-17T13:21:07Z</time>
      </trkpt>
      <trkpt lat="50.05202" lon="1.90937">
        <ele>7.7</ele>
        <time>2022-04-17T13:21:08Z</time>
      </trkpt>
      <trkpt lat="50.05202" lon="1.90934">
        <ele>7.7</ele>
        <time>2022-04-17T13:21:09Z</time>
      </trkpt>
      <trkpt lat="50.05202" lon="1.90932">
        <ele>7.7</ele>
        <time>2022-04-17T13:21:11Z</time>
      </trkpt>
      <trkpt lat="50.05202" lon="1.90931">
        <ele>7.7</ele>
        <time>2022-04-17T13:21:12Z</time>
      </trkpt>
      <trkpt lat="50.05202" lon="1.90927">
        <ele>7.7</ele>
        <time>2022-04-17T13:21:13Z</time>
      </trkpt>
      <trkpt lat="50.05203" lon="1.90925">
        <ele>7.7</ele>
        <time>2022-04-17T13:21:14Z</time>
      </trkpt>
      <trkpt lat="50.05203" lon="1.90924">
        <ele>7.7</ele>
        <time>2022-04-17T13:21:15Z</time>
      </trkpt>
      <trkpt lat="50.05204" lon="1.9092">
        <ele>7.7</ele>
        <time>2022-04-17T13:21:16Z</time>
      </trkpt>
      <trkpt lat="50.05204" lon="1.90919">
        <ele>7.7</ele>
        <time>2022-04-17T13:21:17Z</time>
      </trkpt>
      <trkpt lat="50.05205" lon="1.90917">
        <ele>7.7</ele>
        <time>2022-04-17T13:21:19Z</time>
      </trkpt>
      <trkpt lat="50.05206" lon="1.90916">
        <ele>7.8</ele>
        <time>2022-04-17T13:21:20Z</time>
      </trkpt>
      <trkpt lat="50.05206" lon="1.90914">
        <ele>7.8</ele>
        <time>2022-04-17T13:21:21Z</time>
      </trkpt>
      <trkpt lat="50.05208" lon="1.90911">
        <ele>7.8</ele>
        <time>2022-04-17T13:21:23Z</time>
      </trkpt>
      <trkpt lat="50.05208" lon="1.90909">
        <ele>7.8</ele>
        <time>2022-04-17T13:21:24Z</time>
      </trkpt>
      <trkpt lat="50.05209" lon="1.90908">
        <ele>7.8</ele>
        <time>2022-04-17T13:21:25Z</time>
      </trkpt>
      <trkpt lat="50.05209" lon="1.90906">
        <ele>7.8</ele>
        <time>2022-04-17T13:21:27Z</time>
      </trkpt>
      <trkpt lat="50.05209" lon="1.90904">
        <ele>7.8</ele>
        <time>2022-04-17T13:21:28Z</time>
      </trkpt>
      <trkpt lat="50.0521" lon="1.90902">
        <ele>7.8</ele>
        <time>2022-04-17T13:21:29Z</time>
      </trkpt>
      <trkpt lat="50.05211" lon="1.90899">
        <ele>7.8</ele>
        <time>2022-04-17T13:21:30Z</time>
      </trkpt>
      <trkpt lat="50.05211" lon="1.90898">
        <ele>7.8</ele>
        <time>2022-04-17T13:21:31Z</time>
      </trkpt>
      <trkpt lat="50.05211" lon="1.90897">
        <ele>7.8</ele>
        <time>2022-04-17T13:21:32Z</time>
      </trkpt>
      <trkpt lat="50.05212" lon="1.90895">
        <ele>7.8</ele>
        <time>2022-04-17T13:21:33Z</time>
      </trkpt>
      <trkpt lat="50.05212" lon="1.90894">
        <ele>7.8</ele>
        <time>2022-04-17T13:21:35Z</time>
      </trkpt>
      <trkpt lat="50.05212" lon="1.90892">
        <ele>7.8</ele>
        <time>2022-04-17T13:21:36Z</time>
      </trkpt>
      <trkpt lat="50.05212" lon="1.90891">
        <ele>7.8</ele>
        <time>2022-04-17T13:21:37Z</time>
      </trkpt>
      <trkpt lat="50.05213" lon="1.90889">
        <ele>7.8</ele>
        <time>2022-04-17T13:21:38Z</time>
      </trkpt>
      <trkpt lat="50.05212" lon="1.90888">
        <ele>7.8</ele>
        <time>2022-04-17T13:21:39Z</time>
      </trkpt>
      <trkpt lat="50.05212" lon="1.90887">
        <ele>7.8</ele>
        <time>2022-04-17T13:21:40Z</time>
      </trkpt>
      <trkpt lat="50.05212" lon="1.90885">
        <ele>7.8</ele>
        <time>2022-04-17T13:21:41Z</time>
      </trkpt>
      <trkpt lat="50.05212" lon="1.90884">
        <ele>7.8</ele>
        <time>2022-04-17T13:21:42Z</time>
      </trkpt>
      <trkpt lat="50.05212" lon="1.90882">
        <ele>7.8</ele>
        <time>2022-04-17T13:21:43Z</time>
      </trkpt>
      <trkpt lat="50.05212" lon="1.90881">
        <ele>7.8</ele>
        <time>2022-04-17T13:21:44Z</time>
      </trkpt>
      <trkpt lat="50.05212" lon="1.90879">
        <ele>7.8</ele>
        <time>2022-04-17T13:21:45Z</time>
      </trkpt>
      <trkpt lat="50.05212" lon="1.90878">
        <ele>7.8</ele>
        <time>2022-04-17T13:21:46Z</time>
      </trkpt>
      <trkpt lat="50.05212" lon="1.90876">
        <ele>7.8</ele>
        <time>2022-04-17T13:21:48Z</time>
      </trkpt>
      <trkpt lat="50.05213" lon="1.90874">
        <ele>7.8</ele>
        <time>2022-04-17T13:21:49Z</time>
      </trkpt>
      <trkpt lat="50.05213" lon="1.90873">
        <ele>7.8</ele>
        <time>2022-04-17T13:21:50Z</time>
      </trkpt>
      <trkpt lat="50.05213" lon="1.90871">
        <ele>7.8</ele>
        <time>2022-04-17T13:21:51Z</time>
      </trkpt>
      <trkpt lat="50.05213" lon="1.90869">
        <ele>7.8</ele>
        <time>2022-04-17T13:21:52Z</time>
      </trkpt>
      <trkpt lat="50.05213" lon="1.90868">
        <ele>7.8</ele>
        <time>2022-04-17T13:21:53Z</time>
      </trkpt>
      <trkpt lat="50.05214" lon="1.90866">
        <ele>7.8</ele>
        <time>2022-04-17T13:21:54Z</time>
      </trkpt>
      <trkpt lat="50.05214" lon="1.90864">
        <ele>7.8</ele>
        <time>2022-04-17T13:21:55Z</time>
      </trkpt>
      <trkpt lat="50.05214" lon="1.90863">
        <ele>7.8</ele>
        <time>2022-04-17T13:21:56Z</time>
      </trkpt>
      <trkpt lat="50.05214" lon="1.90862">
        <ele>7.8</ele>
        <time>2022-04-17T13:21:57Z</time>
      </trkpt>
      <trkpt lat="50.05214" lon="1.9086">
        <ele>7.8</ele>
        <time>2022-04-17T13:21:58Z</time>
      </trkpt>
      <trkpt lat="50.05215" lon="1.90858">
        <ele>7.8</ele>
        <time>2022-04-17T13:22:00Z</time>
      </trkpt>
      <trkpt lat="50.05216" lon="1.90855">
        <ele>7.8</ele>
        <time>2022-04-17T13:22:01Z</time>
      </trkpt>
      <trkpt lat="50.05216" lon="1.90854">
        <ele>7.8</ele>
        <time>2022-04-17T13:22:02Z</time>
      </trkpt>
      <trkpt lat="50.05218" lon="1.90851">
        <ele>7.8</ele>
        <time>2022-04-17T13:22:04Z</time>
      </trkpt>
      <trkpt lat="50.05218" lon="1.9085">
        <ele>7.9</ele>
        <time>2022-04-17T13:22:05Z</time>
      </trkpt>
      <trkpt lat="50.05218" lon="1.90849">
        <ele>7.9</ele>
        <time>2022-04-17T13:22:06Z</time>
      </trkpt>
      <trkpt lat="50.0522" lon="1.90846">
        <ele>7.9</ele>
        <time>2022-04-17T13:22:07Z</time>
      </trkpt>
      <trkpt lat="50.0522" lon="1.90844">
        <ele>7.9</ele>
        <time>2022-04-17T13:22:08Z</time>
      </trkpt>
      <trkpt lat="50.05221" lon="1.90843">
        <ele>7.9</ele>
        <time>2022-04-17T13:22:09Z</time>
      </trkpt>
      <trkpt lat="50.05221" lon="1.90841">
        <ele>7.9</ele>
        <time>2022-04-17T13:22:10Z</time>
      </trkpt>
      <trkpt lat="50.05221" lon="1.9084">
        <ele>7.9</ele>
        <time>2022-04-17T13:22:12Z</time>
      </trkpt>
      <trkpt lat="50.05222" lon="1.90839">
        <ele>7.9</ele>
        <time>2022-04-17T13:22:13Z</time>
      </trkpt>
      <trkpt lat="50.05222" lon="1.90837">
        <ele>7.9</ele>
        <time>2022-04-17T13:22:14Z</time>
      </trkpt>
      <trkpt lat="50.05223" lon="1.90836">
        <ele>7.9</ele>
        <time>2022-04-17T13:22:15Z</time>
      </trkpt>
      <trkpt lat="50.05223" lon="1.90834">
        <ele>7.9</ele>
        <time>2022-04-17T13:22:16Z</time>
      </trkpt>
      <trkpt lat="50.05224" lon="1.90833">
        <ele>7.9</ele>
        <time>2022-04-17T13:22:17Z</time>
      </trkpt>
      <trkpt lat="50.05225" lon="1.9083">
        <ele>7.9</ele>
        <time>2022-04-17T13:22:18Z</time>
      </trkpt>
      <trkpt lat="50.05225" lon="1.90829">
        <ele>7.9</ele>
        <time>2022-04-17T13:22:20Z</time>
      </trkpt>
      <trkpt lat="50.05226" lon="1.90828">
        <ele>7.9</ele>
        <time>2022-04-17T13:22:21Z</time>
      </trkpt>
      <trkpt lat="50.05226" lon="1.90826">
        <ele>7.9</ele>
        <time>2022-04-17T13:22:22Z</time>
      </trkpt>
      <trkpt lat="50.05227" lon="1.90825">
        <ele>7.9</ele>
        <time>2022-04-17T13:22:23Z</time>
      </trkpt>
      <trkpt lat="50.05227" lon="1.90823">
        <ele>7.9</ele>
        <time>2022-04-17T13:22:24Z</time>
      </trkpt>
      <trkpt lat="50.05228" lon="1.90822">
        <ele>7.9</ele>
        <time>2022-04-17T13:22:25Z</time>
      </trkpt>
      <trkpt lat="50.05229" lon="1.9082">
        <ele>7.9</ele>
        <time>2022-04-17T13:22:26Z</time>
      </trkpt>
      <trkpt lat="50.05229" lon="1.90819">
        <ele>7.9</ele>
        <time>2022-04-17T13:22:27Z</time>
      </trkpt>
      <trkpt lat="50.0523" lon="1.90818">
        <ele>7.9</ele>
        <time>2022-04-17T13:22:28Z</time>
      </trkpt>
      <trkpt lat="50.0523" lon="1.90816">
        <ele>7.9</ele>
        <time>2022-04-17T13:22:30Z</time>
      </trkpt>
      <trkpt lat="50.05231" lon="1.90814">
        <ele>7.9</ele>
        <time>2022-04-17T13:22:31Z</time>
      </trkpt>
      <trkpt lat="50.05231" lon="1.90813">
        <ele>7.9</ele>
        <time>2022-04-17T13:22:32Z</time>
      </trkpt>
      <trkpt lat="50.05232" lon="1.90812">
        <ele>7.9</ele>
        <time>2022-04-17T13:22:33Z</time>
      </trkpt>
      <trkpt lat="50.05233" lon="1.9081">
        <ele>7.9</ele>
        <time>2022-04-17T13:22:34Z</time>
      </trkpt>
      <trkpt lat="50.05233" lon="1.90808">
        <ele>7.9</ele>
        <time>2022-04-17T13:22:35Z</time>
      </trkpt>
      <trkpt lat="50.05234" lon="1.90807">
        <ele>7.9</ele>
        <time>2022-04-17T13:22:36Z</time>
      </trkpt>
      <trkpt lat="50.05234" lon="1.90805">
        <ele>7.9</ele>
        <time>2022-04-17T13:22:37Z</time>
      </trkpt>
      <trkpt lat="50.05235" lon="1.90804">
        <ele>7.9</ele>
        <time>2022-04-17T13:22:38Z</time>
      </trkpt>
      <trkpt lat="50.05235" lon="1.90802">
        <ele>7.9</ele>
        <time>2022-04-17T13:22:39Z</time>
      </trkpt>
      <trkpt lat="50.05235" lon="1.90801">
        <ele>7.9</ele>
        <time>2022-04-17T13:22:40Z</time>
      </trkpt>
      <trkpt lat="50.05236" lon="1.90798">
        <ele>7.9</ele>
        <time>2022-04-17T13:22:42Z</time>
      </trkpt>
      <trkpt lat="50.05236" lon="1.90796">
        <ele>7.9</ele>
        <time>2022-04-17T13:22:43Z</time>
      </trkpt>
      <trkpt lat="50.05236" lon="1.90795">
        <ele>7.9</ele>
        <time>2022-04-17T13:22:44Z</time>
      </trkpt>
      <trkpt lat="50.05237" lon="1.90794">
        <ele>7.9</ele>
        <time>2022-04-17T13:22:45Z</time>
      </trkpt>
      <trkpt lat="50.05238" lon="1.90791">
        <ele>7.9</ele>
        <time>2022-04-17T13:22:47Z</time>
      </trkpt>
      <trkpt lat="50.05239" lon="1.90789">
        <ele>7.9</ele>
        <time>2022-04-17T13:22:49Z</time>
      </trkpt>
      <trkpt lat="50.05239" lon="1.90788">
        <ele>7.9</ele>
        <time>2022-04-17T13:22:50Z</time>
      </trkpt>
      <trkpt lat="50.0524" lon="1.90786">
        <ele>7.9</ele>
        <time>2022-04-17T13:22:51Z</time>
      </trkpt>
      <trkpt lat="50.05241" lon="1.90784">
        <ele>7.9</ele>
        <time>2022-04-17T13:22:52Z</time>
      </trkpt>
      <trkpt lat="50.05242" lon="1.90783">
        <ele>7.9</ele>
        <time>2022-04-17T13:22:53Z</time>
      </trkpt>
      <trkpt lat="50.05243" lon="1.90781">
        <ele>7.9</ele>
        <time>2022-04-17T13:22:55Z</time>
      </trkpt>
      <trkpt lat="50.05244" lon="1.90779">
        <ele>7.9</ele>
        <time>2022-04-17T13:22:56Z</time>
      </trkpt>
      <trkpt lat="50.05245" lon="1.90777">
        <ele>7.9</ele>
        <time>2022-04-17T13:22:58Z</time>
      </trkpt>
      <trkpt lat="50.05246" lon="1.90775">
        <ele>7.9</ele>
        <time>2022-04-17T13:22:59Z</time>
      </trkpt>
      <trkpt lat="50.05247" lon="1.90774">
        <ele>7.9</ele>
        <time>2022-04-17T13:23:01Z</time>
      </trkpt>
      <trkpt lat="50.05248" lon="1.90772">
        <ele>7.8</ele>
        <time>2022-04-17T13:23:02Z</time>
      </trkpt>
      <trkpt lat="50.0525" lon="1.90771">
        <ele>7.8</ele>
        <time>2022-04-17T13:23:03Z</time>
      </trkpt>
      <trkpt lat="50.05251" lon="1.90769">
        <ele>7.8</ele>
        <time>2022-04-17T13:23:04Z</time>
      </trkpt>
      <trkpt lat="50.05252" lon="1.90769">
        <ele>7.8</ele>
        <time>2022-04-17T13:23:05Z</time>
      </trkpt>
      <trkpt lat="50.05253" lon="1.90768">
        <ele>7.8</ele>
        <time>2022-04-17T13:23:06Z</time>
      </trkpt>
      <trkpt lat="50.05253" lon="1.90767">
        <ele>7.8</ele>
        <time>2022-04-17T13:23:07Z</time>
      </trkpt>
      <trkpt lat="50.05254" lon="1.90765">
        <ele>7.8</ele>
        <time>2022-04-17T13:23:08Z</time>
      </trkpt>
      <trkpt lat="50.05255" lon="1.90764">
        <ele>7.8</ele>
        <time>2022-04-17T13:23:10Z</time>
      </trkpt>
      <trkpt lat="50.05256" lon="1.90763">
        <ele>7.8</ele>
        <time>2022-04-17T13:23:11Z</time>
      </trkpt>
      <trkpt lat="50.05257" lon="1.90762">
        <ele>7.8</ele>
        <time>2022-04-17T13:23:12Z</time>
      </trkpt>
      <trkpt lat="50.05258" lon="1.9076">
        <ele>7.8</ele>
        <time>2022-04-17T13:23:13Z</time>
      </trkpt>
      <trkpt lat="50.0526" lon="1.90758">
        <ele>7.8</ele>
        <time>2022-04-17T13:23:14Z</time>
      </trkpt>
      <trkpt lat="50.05261" lon="1.90757">
        <ele>7.8</ele>
        <time>2022-04-17T13:23:15Z</time>
      </trkpt>
      <trkpt lat="50.05262" lon="1.90756">
        <ele>7.8</ele>
        <time>2022-04-17T13:23:16Z</time>
      </trkpt>
      <trkpt lat="50.05262" lon="1.90755">
        <ele>7.8</ele>
        <time>2022-04-17T13:23:18Z</time>
      </trkpt>
      <trkpt lat="50.05263" lon="1.90754">
        <ele>7.8</ele>
        <time>2022-04-17T13:23:19Z</time>
      </trkpt>
      <trkpt lat="50.05264" lon="1.90752">
        <ele>7.8</ele>
        <time>2022-04-17T13:23:20Z</time>
      </trkpt>
      <trkpt lat="50.05264" lon="1.90751">
        <ele>7.8</ele>
        <time>2022-04-17T13:23:21Z</time>
      </trkpt>
      <trkpt lat="50.05264" lon="1.90749">
        <ele>7.8</ele>
        <time>2022-04-17T13:23:22Z</time>
      </trkpt>
      <trkpt lat="50.05264" lon="1.90747">
        <ele>7.8</ele>
        <time>2022-04-17T13:23:23Z</time>
      </trkpt>
      <trkpt lat="50.05264" lon="1.90745">
        <ele>7.8</ele>
        <time>2022-04-17T13:23:24Z</time>
      </trkpt>
      <trkpt lat="50.05264" lon="1.90744">
        <ele>7.8</ele>
        <time>2022-04-17T13:23:25Z</time>
      </trkpt>
      <trkpt lat="50.05264" lon="1.90742">
        <ele>7.8</ele>
        <time>2022-04-17T13:23:26Z</time>
      </trkpt>
      <trkpt lat="50.05264" lon="1.90741">
        <ele>7.8</ele>
        <time>2022-04-17T13:23:27Z</time>
      </trkpt>
      <trkpt lat="50.05264" lon="1.9074">
        <ele>7.8</ele>
        <time>2022-04-17T13:23:28Z</time>
      </trkpt>
      <trkpt lat="50.05264" lon="1.90739">
        <ele>7.8</ele>
        <time>2022-04-17T13:23:30Z</time>
      </trkpt>
      <trkpt lat="50.05264" lon="1.90738">
        <ele>7.8</ele>
        <time>2022-04-17T13:23:31Z</time>
      </trkpt>
      <trkpt lat="50.05265" lon="1.90737">
        <ele>7.8</ele>
        <time>2022-04-17T13:23:32Z</time>
      </trkpt>
      <trkpt lat="50.05266" lon="1.90736">
        <ele>7.8</ele>
        <time>2022-04-17T13:23:33Z</time>
      </trkpt>
      <trkpt lat="50.05267" lon="1.90735">
        <ele>7.8</ele>
        <time>2022-04-17T13:23:34Z</time>
      </trkpt>
      <trkpt lat="50.05268" lon="1.90734">
        <ele>7.8</ele>
        <time>2022-04-17T13:23:35Z</time>
      </trkpt>
      <trkpt lat="50.0527" lon="1.90732">
        <ele>7.8</ele>
        <time>2022-04-17T13:23:36Z</time>
      </trkpt>
      <trkpt lat="50.0527" lon="1.90732">
        <ele>7.8</ele>
        <time>2022-04-17T13:23:37Z</time>
      </trkpt>
      <trkpt lat="50.05271" lon="1.90732">
        <ele>7.8</ele>
        <time>2022-04-17T13:23:38Z</time>
      </trkpt>
      <trkpt lat="50.05272" lon="1.90731">
        <ele>7.8</ele>
        <time>2022-04-17T13:23:39Z</time>
      </trkpt>
      <trkpt lat="50.05273" lon="1.9073">
        <ele>7.8</ele>
        <time>2022-04-17T13:23:41Z</time>
      </trkpt>
      <trkpt lat="50.05274" lon="1.90729">
        <ele>7.8</ele>
        <time>2022-04-17T13:23:42Z</time>
      </trkpt>
      <trkpt lat="50.05276" lon="1.90727">
        <ele>7.8</ele>
        <time>2022-04-17T13:23:43Z</time>
      </trkpt>
      <trkpt lat="50.05277" lon="1.90726">
        <ele>7.8</ele>
        <time>2022-04-17T13:23:44Z</time>
      </trkpt>
      <trkpt lat="50.05278" lon="1.90725">
        <ele>7.8</ele>
        <time>2022-04-17T13:23:45Z</time>
      </trkpt>
      <trkpt lat="50.05279" lon="1.90724">
        <ele>7.8</ele>
        <time>2022-04-17T13:23:46Z</time>
      </trkpt>
      <trkpt lat="50.0528" lon="1.90723">
        <ele>7.8</ele>
        <time>2022-04-17T13:23:48Z</time>
      </trkpt>
      <trkpt lat="50.05281" lon="1.90722">
        <ele>7.8</ele>
        <time>2022-04-17T13:23:49Z</time>
      </trkpt>
      <trkpt lat="50.05281" lon="1.90721">
        <ele>7.8</ele>
        <time>2022-04-17T13:23:50Z</time>
      </trkpt>
      <trkpt lat="50.05282" lon="1.90719">
        <ele>7.8</ele>
        <time>2022-04-17T13:23:51Z</time>
      </trkpt>
      <trkpt lat="50.05283" lon="1.90718">
        <ele>7.8</ele>
        <time>2022-04-17T13:23:53Z</time>
      </trkpt>
      <trkpt lat="50.05284" lon="1.90716">
        <ele>7.8</ele>
        <time>2022-04-17T13:23:54Z</time>
      </trkpt>
      <trkpt lat="50.05284" lon="1.90715">
        <ele>7.8</ele>
        <time>2022-04-17T13:23:55Z</time>
      </trkpt>
      <trkpt lat="50.05285" lon="1.90714">
        <ele>7.8</ele>
        <time>2022-04-17T13:23:56Z</time>
      </trkpt>
      <trkpt lat="50.05286" lon="1.90712">
        <ele>7.8</ele>
        <time>2022-04-17T13:23:57Z</time>
      </trkpt>
      <trkpt lat="50.05286" lon="1.90711">
        <ele>7.8</ele>
        <time>2022-04-17T13:23:58Z</time>
      </trkpt>
      <trkpt lat="50.05287" lon="1.90709">
        <ele>7.8</ele>
        <time>2022-04-17T13:23:59Z</time>
      </trkpt>
      <trkpt lat="50.05288" lon="1.90707">
        <ele>7.8</ele>
        <time>2022-04-17T13:24:00Z</time>
      </trkpt>
      <trkpt lat="50.05288" lon="1.90705">
        <ele>7.8</ele>
        <time>2022-04-17T13:24:02Z</time>
      </trkpt>
      <trkpt lat="50.05289" lon="1.90704">
        <ele>7.8</ele>
        <time>2022-04-17T13:24:03Z</time>
      </trkpt>
      <trkpt lat="50.0529" lon="1.90702">
        <ele>7.8</ele>
        <time>2022-04-17T13:24:04Z</time>
      </trkpt>
      <trkpt lat="50.05291" lon="1.90701">
        <ele>7.8</ele>
        <time>2022-04-17T13:24:05Z</time>
      </trkpt>
      <trkpt lat="50.05292" lon="1.90699">
        <ele>7.8</ele>
        <time>2022-04-17T13:24:06Z</time>
      </trkpt>
      <trkpt lat="50.05292" lon="1.90698">
        <ele>7.8</ele>
        <time>2022-04-17T13:24:07Z</time>
      </trkpt>
      <trkpt lat="50.05293" lon="1.90697">
        <ele>7.8</ele>
        <time>2022-04-17T13:24:09Z</time>
      </trkpt>
      <trkpt lat="50.05294" lon="1.90695">
        <ele>7.8</ele>
        <time>2022-04-17T13:24:10Z</time>
      </trkpt>
      <trkpt lat="50.05294" lon="1.90694">
        <ele>7.8</ele>
        <time>2022-04-17T13:24:11Z</time>
      </trkpt>
      <trkpt lat="50.05295" lon="1.90692">
        <ele>7.8</ele>
        <time>2022-04-17T13:24:12Z</time>
      </trkpt>
      <trkpt lat="50.05296" lon="1.90691">
        <ele>7.8</ele>
        <time>2022-04-17T13:24:13Z</time>
      </trkpt>
      <trkpt lat="50.05297" lon="1.9069">
        <ele>7.8</ele>
        <time>2022-04-17T13:24:14Z</time>
      </trkpt>
      <trkpt lat="50.05297" lon="1.90689">
        <ele>7.8</ele>
        <time>2022-04-17T13:24:15Z</time>
      </trkpt>
      <trkpt lat="50.05298" lon="1.90688">
        <ele>7.8</ele>
        <time>2022-04-17T13:24:16Z</time>
      </trkpt>
      <trkpt lat="50.05298" lon="1.90686">
        <ele>7.8</ele>
        <time>2022-04-17T13:24:18Z</time>
      </trkpt>
      <trkpt lat="50.05299" lon="1.90684">
        <ele>7.8</ele>
        <time>2022-04-17T13:24:19Z</time>
      </trkpt>
      <trkpt lat="50.053" lon="1.90683">
        <ele>7.8</ele>
        <time>2022-04-17T13:24:20Z</time>
      </trkpt>
      <trkpt lat="50.053" lon="1.90681">
        <ele>7.8</ele>
        <time>2022-04-17T13:24:21Z</time>
      </trkpt>
      <trkpt lat="50.05301" lon="1.9068">
        <ele>7.8</ele>
        <time>2022-04-17T13:24:22Z</time>
      </trkpt>
      <trkpt lat="50.05302" lon="1.90678">
        <ele>7.8</ele>
        <time>2022-04-17T13:24:23Z</time>
      </trkpt>
      <trkpt lat="50.05302" lon="1.90677">
        <ele>7.8</ele>
        <time>2022-04-17T13:24:24Z</time>
      </trkpt>
      <trkpt lat="50.05303" lon="1.90677">
        <ele>7.8</ele>
        <time>2022-04-17T13:24:26Z</time>
      </trkpt>
      <trkpt lat="50.05304" lon="1.90676">
        <ele>7.8</ele>
        <time>2022-04-17T13:24:27Z</time>
      </trkpt>
      <trkpt lat="50.05304" lon="1.90676">
        <ele>7.8</ele>
        <time>2022-04-17T13:24:29Z</time>
      </trkpt>
      <trkpt lat="50.05305" lon="1.90676">
        <ele>7.8</ele>
        <time>2022-04-17T13:24:30Z</time>
      </trkpt>
      <trkpt lat="50.05306" lon="1.90675">
        <ele>7.8</ele>
        <time>2022-04-17T13:24:31Z</time>
      </trkpt>
      <trkpt lat="50.05306" lon="1.90674">
        <ele>7.8</ele>
        <time>2022-04-17T13:24:32Z</time>
      </trkpt>
      <trkpt lat="50.05306" lon="1.90672">
        <ele>7.8</ele>
        <time>2022-04-17T13:24:33Z</time>
      </trkpt>
      <trkpt lat="50.05306" lon="1.90669">
        <ele>7.8</ele>
        <time>2022-04-17T13:24:35Z</time>
      </trkpt>
      <trkpt lat="50.05305" lon="1.90668">
        <ele>7.8</ele>
        <time>2022-04-17T13:24:36Z</time>
      </trkpt>
      <trkpt lat="50.05305" lon="1.90667">
        <ele>7.8</ele>
        <time>2022-04-17T13:24:37Z</time>
      </trkpt>
      <trkpt lat="50.05305" lon="1.90666">
        <ele>7.8</ele>
        <time>2022-04-17T13:24:38Z</time>
      </trkpt>
      <trkpt lat="50.05306" lon="1.90666">
        <ele>7.8</ele>
        <time>2022-04-17T13:24:39Z</time>
      </trkpt>
      <trkpt lat="50.05306" lon="1.90665">
        <ele>7.8</ele>
        <time>2022-04-17T13:24:41Z</time>
      </trkpt>
      <trkpt lat="50.05305" lon="1.90666">
        <ele>7.8</ele>
        <time>2022-04-17T13:24:42Z</time>
      </trkpt>
      <trkpt lat="50.05305" lon="1.90666">
        <ele>7.8</ele>
        <time>2022-04-17T13:24:43Z</time>
      </trkpt>
      <trkpt lat="50.05305" lon="1.90666">
        <ele>7.8</ele>
        <time>2022-04-17T13:24:44Z</time>
      </trkpt>
      <trkpt lat="50.05305" lon="1.90666">
        <ele>7.8</ele>
        <time>2022-04-17T13:24:45Z</time>
      </trkpt>
      <trkpt lat="50.05305" lon="1.90667">
        <ele>7.8</ele>
        <time>2022-04-17T13:24:46Z</time>
      </trkpt>
      <trkpt lat="50.05305" lon="1.90667">
        <ele>7.8</ele>
        <time>2022-04-17T13:24:48Z</time>
      </trkpt>
      <trkpt lat="50.05305" lon="1.90667">
        <ele>7.8</ele>
        <time>2022-04-17T13:24:49Z</time>
      </trkpt>
      <trkpt lat="50.05305" lon="1.90667">
        <ele>7.8</ele>
        <time>2022-04-17T13:24:51Z</time>
      </trkpt>
      <trkpt lat="50.05305" lon="1.90667">
        <ele>7.8</ele>
        <time>2022-04-17T13:24:52Z</time>
      </trkpt>
      <trkpt lat="50.05305" lon="1.90668">
        <ele>7.8</ele>
        <time>2022-04-17T13:24:53Z</time>
      </trkpt>
      <trkpt lat="50.05305" lon="1.90668">
        <ele>7.8</ele>
        <time>2022-04-17T13:24:54Z</time>
      </trkpt>
      <trkpt lat="50.05305" lon="1.90668">
        <ele>7.8</ele>
        <time>2022-04-17T13:24:55Z</time>
      </trkpt>
      <trkpt lat="50.05305" lon="1.90668">
        <ele>7.8</ele>
        <time>2022-04-17T13:24:56Z</time>
      </trkpt>
      <trkpt lat="50.05305" lon="1.90668">
        <ele>7.8</ele>
        <time>2022-04-17T13:24:57Z</time>
      </trkpt>
      <trkpt lat="50.05305" lon="1.90668">
        <ele>7.8</ele>
        <time>2022-04-17T13:24:58Z</time>
      </trkpt>
      <trkpt lat="50.05305" lon="1.90668">
        <ele>7.8</ele>
        <time>2022-04-17T13:24:59Z</time>
      </trkpt>
      <trkpt lat="50.05305" lon="1.90668">
        <ele>7.8</ele>
        <time>2022-04-17T13:25:00Z</time>
      </trkpt>
      <trkpt lat="50.05305" lon="1.90668">
        <ele>7.8</ele>
        <time>2022-04-17T13:25:01Z</time>
      </trkpt>
      <trkpt lat="50.05305" lon="1.90668">
        <ele>7.8</ele>
        <time>2022-04-17T13:25:02Z</time>
      </trkpt>
      <trkpt lat="50.05305" lon="1.90667">
        <ele>7.8</ele>
        <time>2022-04-17T13:25:03Z</time>
      </trkpt>
      <trkpt lat="50.05306" lon="1.90667">
        <ele>7.8</ele>
        <time>2022-04-17T13:25:04Z</time>
      </trkpt>
      <trkpt lat="50.05306" lon="1.90667">
        <ele>7.8</ele>
        <time>2022-04-17T13:25:05Z</time>
      </trkpt>
      <trkpt lat="50.05306" lon="1.90667">
        <ele>7.8</ele>
        <time>2022-04-17T13:25:07Z</time>
      </trkpt>
      <trkpt lat="50.05307" lon="1.90667">
        <ele>7.8</ele>
        <time>2022-04-17T13:25:08Z</time>
      </trkpt>
      <trkpt lat="50.05308" lon="1.90667">
        <ele>7.9</ele>
        <time>2022-04-17T13:25:09Z</time>
      </trkpt>
      <trkpt lat="50.05308" lon="1.90667">
        <ele>7.9</ele>
        <time>2022-04-17T13:25:10Z</time>
      </trkpt>
      <trkpt lat="50.05309" lon="1.90667">
        <ele>7.9</ele>
        <time>2022-04-17T13:25:11Z</time>
      </trkpt>
      <trkpt lat="50.0531" lon="1.90665">
        <ele>7.9</ele>
        <time>2022-04-17T13:25:12Z</time>
      </trkpt>
      <trkpt lat="50.0531" lon="1.90664">
        <ele>7.9</ele>
        <time>2022-04-17T13:25:14Z</time>
      </trkpt>
      <trkpt lat="50.05311" lon="1.90663">
        <ele>7.9</ele>
        <time>2022-04-17T13:25:15Z</time>
      </trkpt>
      <trkpt lat="50.05311" lon="1.90661">
        <ele>7.9</ele>
        <time>2022-04-17T13:25:16Z</time>
      </trkpt>
      <trkpt lat="50.05312" lon="1.9066">
        <ele>7.9</ele>
        <time>2022-04-17T13:25:18Z</time>
      </trkpt>
      <trkpt lat="50.05312" lon="1.90659">
        <ele>7.9</ele>
        <time>2022-04-17T13:25:19Z</time>
      </trkpt>
      <trkpt lat="50.05312" lon="1.90658">
        <ele>7.9</ele>
        <time>2022-04-17T13:25:20Z</time>
      </trkpt>
      <trkpt lat="50.05312" lon="1.90657">
        <ele>7.9</ele>
        <time>2022-04-17T13:25:22Z</time>
      </trkpt>
      <trkpt lat="50.05312" lon="1.90656">
        <ele>7.9</ele>
        <time>2022-04-17T13:25:23Z</time>
      </trkpt>
      <trkpt lat="50.05313" lon="1.90655">
        <ele>7.9</ele>
        <time>2022-04-17T13:25:24Z</time>
      </trkpt>
      <trkpt lat="50.05313" lon="1.90654">
        <ele>7.9</ele>
        <time>2022-04-17T13:25:25Z</time>
      </trkpt>
      <trkpt lat="50.05314" lon="1.90653">
        <ele>7.9</ele>
        <time>2022-04-17T13:25:26Z</time>
      </trkpt>
      <trkpt lat="50.05314" lon="1.90653">
        <ele>7.9</ele>
        <time>2022-04-17T13:25:28Z</time>
      </trkpt>
      <trkpt lat="50.05316" lon="1.90651">
        <ele>7.9</ele>
        <time>2022-04-17T13:25:29Z</time>
      </trkpt>
      <trkpt lat="50.05316" lon="1.9065">
        <ele>7.9</ele>
        <time>2022-04-17T13:25:30Z</time>
      </trkpt>
      <trkpt lat="50.05317" lon="1.90649">
        <ele>7.9</ele>
        <time>2022-04-17T13:25:31Z</time>
      </trkpt>
      <trkpt lat="50.05317" lon="1.90648">
        <ele>7.9</ele>
        <time>2022-04-17T13:25:32Z</time>
      </trkpt>
      <trkpt lat="50.05318" lon="1.90647">
        <ele>7.9</ele>
        <time>2022-04-17T13:25:33Z</time>
      </trkpt>
      <trkpt lat="50.05318" lon="1.90645">
        <ele>7.9</ele>
        <time>2022-04-17T13:25:35Z</time>
      </trkpt>
      <trkpt lat="50.05319" lon="1.90643">
        <ele>8</ele>
        <time>2022-04-17T13:25:36Z</time>
      </trkpt>
      <trkpt lat="50.05319" lon="1.90641">
        <ele>8</ele>
        <time>2022-04-17T13:25:37Z</time>
      </trkpt>
      <trkpt lat="50.0532" lon="1.90638">
        <ele>8</ele>
        <time>2022-04-17T13:25:39Z</time>
      </trkpt>
      <trkpt lat="50.05321" lon="1.90638">
        <ele>8</ele>
        <time>2022-04-17T13:25:41Z</time>
      </trkpt>
      <trkpt lat="50.05322" lon="1.90636">
        <ele>8</ele>
        <time>2022-04-17T13:25:42Z</time>
      </trkpt>
      <trkpt lat="50.05322" lon="1.90635">
        <ele>8</ele>
        <time>2022-04-17T13:25:43Z</time>
      </trkpt>
      <trkpt lat="50.05324" lon="1.90633">
        <ele>8</ele>
        <time>2022-04-17T13:25:44Z</time>
      </trkpt>
      <trkpt lat="50.05324" lon="1.90632">
        <ele>8</ele>
        <time>2022-04-17T13:25:45Z</time>
      </trkpt>
      <trkpt lat="50.05325" lon="1.90629">
        <ele>8</ele>
        <time>2022-04-17T13:25:46Z</time>
      </trkpt>
      <trkpt lat="50.05325" lon="1.90628">
        <ele>8</ele>
        <time>2022-04-17T13:25:47Z</time>
      </trkpt>
      <trkpt lat="50.05325" lon="1.90627">
        <ele>8</ele>
        <time>2022-04-17T13:25:48Z</time>
      </trkpt>
      <trkpt lat="50.05325" lon="1.90626">
        <ele>8</ele>
        <time>2022-04-17T13:25:49Z</time>
      </trkpt>
      <trkpt lat="50.05326" lon="1.90624">
        <ele>8</ele>
        <time>2022-04-17T13:25:50Z</time>
      </trkpt>
      <trkpt lat="50.05326" lon="1.90622">
        <ele>8</ele>
        <time>2022-04-17T13:25:51Z</time>
      </trkpt>
      <trkpt lat="50.05327" lon="1.90621">
        <ele>8</ele>
        <time>2022-04-17T13:25:53Z</time>
      </trkpt>
      <trkpt lat="50.05328" lon="1.9062">
        <ele>8</ele>
        <time>2022-04-17T13:25:54Z</time>
      </trkpt>
      <trkpt lat="50.05328" lon="1.90618">
        <ele>8</ele>
        <time>2022-04-17T13:25:55Z</time>
      </trkpt>
      <trkpt lat="50.05329" lon="1.90617">
        <ele>8</ele>
        <time>2022-04-17T13:25:56Z</time>
      </trkpt>
      <trkpt lat="50.0533" lon="1.90616">
        <ele>8</ele>
        <time>2022-04-17T13:25:58Z</time>
      </trkpt>
      <trkpt lat="50.05331" lon="1.90613">
        <ele>8</ele>
        <time>2022-04-17T13:25:59Z</time>
      </trkpt>
      <trkpt lat="50.05332" lon="1.90613">
        <ele>8.1</ele>
        <time>2022-04-17T13:26:00Z</time>
      </trkpt>
      <trkpt lat="50.05332" lon="1.90612">
        <ele>8.1</ele>
        <time>2022-04-17T13:26:01Z</time>
      </trkpt>
      <trkpt lat="50.05333" lon="1.9061">
        <ele>8.1</ele>
        <time>2022-04-17T13:26:02Z</time>
      </trkpt>
      <trkpt lat="50.05334" lon="1.90608">
        <ele>8.1</ele>
        <time>2022-04-17T13:26:03Z</time>
      </trkpt>
      <trkpt lat="50.05335" lon="1.90606">
        <ele>8.1</ele>
        <time>2022-04-17T13:26:05Z</time>
      </trkpt>
      <trkpt lat="50.05336" lon="1.90605">
        <ele>8.1</ele>
        <time>2022-04-17T13:26:06Z</time>
      </trkpt>
      <trkpt lat="50.05336" lon="1.90604">
        <ele>8.1</ele>
        <time>2022-04-17T13:26:07Z</time>
      </trkpt>
      <trkpt lat="50.05336" lon="1.90603">
        <ele>8.1</ele>
        <time>2022-04-17T13:26:08Z</time>
      </trkpt>
      <trkpt lat="50.05337" lon="1.90601">
        <ele>8.1</ele>
        <time>2022-04-17T13:26:09Z</time>
      </trkpt>
      <trkpt lat="50.05338" lon="1.906">
        <ele>8.1</ele>
        <time>2022-04-17T13:26:10Z</time>
      </trkpt>
      <trkpt lat="50.05338" lon="1.90599">
        <ele>8.1</ele>
        <time>2022-04-17T13:26:11Z</time>
      </trkpt>
      <trkpt lat="50.05339" lon="1.90598">
        <ele>8.1</ele>
        <time>2022-04-17T13:26:12Z</time>
      </trkpt>
      <trkpt lat="50.05339" lon="1.90597">
        <ele>8.1</ele>
        <time>2022-04-17T13:26:13Z</time>
      </trkpt>
      <trkpt lat="50.05339" lon="1.90596">
        <ele>8.1</ele>
        <time>2022-04-17T13:26:14Z</time>
      </trkpt>
      <trkpt lat="50.05339" lon="1.90595">
        <ele>8.1</ele>
        <time>2022-04-17T13:26:15Z</time>
      </trkpt>
      <trkpt lat="50.0534" lon="1.90593">
        <ele>8.1</ele>
        <time>2022-04-17T13:26:16Z</time>
      </trkpt>
      <trkpt lat="50.0534" lon="1.90592">
        <ele>8.1</ele>
        <time>2022-04-17T13:26:17Z</time>
      </trkpt>
      <trkpt lat="50.0534" lon="1.90591">
        <ele>8.1</ele>
        <time>2022-04-17T13:26:18Z</time>
      </trkpt>
      <trkpt lat="50.05341" lon="1.9059">
        <ele>8.1</ele>
        <time>2022-04-17T13:26:19Z</time>
      </trkpt>
      <trkpt lat="50.05341" lon="1.90589">
        <ele>8.1</ele>
        <time>2022-04-17T13:26:20Z</time>
      </trkpt>
      <trkpt lat="50.05341" lon="1.90587">
        <ele>8.1</ele>
        <time>2022-04-17T13:26:21Z</time>
      </trkpt>
      <trkpt lat="50.05341" lon="1.90586">
        <ele>8.1</ele>
        <time>2022-04-17T13:26:22Z</time>
      </trkpt>
      <trkpt lat="50.05342" lon="1.90585">
        <ele>8.1</ele>
        <time>2022-04-17T13:26:23Z</time>
      </trkpt>
      <trkpt lat="50.05342" lon="1.90583">
        <ele>8.1</ele>
        <time>2022-04-17T13:26:24Z</time>
      </trkpt>
      <trkpt lat="50.05343" lon="1.90582">
        <ele>8.1</ele>
        <time>2022-04-17T13:26:25Z</time>
      </trkpt>
      <trkpt lat="50.05344" lon="1.90579">
        <ele>8.2</ele>
        <time>2022-04-17T13:26:26Z</time>
      </trkpt>
      <trkpt lat="50.05345" lon="1.90577">
        <ele>8.2</ele>
        <time>2022-04-17T13:26:28Z</time>
      </trkpt>
      <trkpt lat="50.05346" lon="1.90576">
        <ele>8.2</ele>
        <time>2022-04-17T13:26:29Z</time>
      </trkpt>
      <trkpt lat="50.05347" lon="1.90575">
        <ele>8.2</ele>
        <time>2022-04-17T13:26:30Z</time>
      </trkpt>
      <trkpt lat="50.05348" lon="1.90573">
        <ele>8.2</ele>
        <time>2022-04-17T13:26:31Z</time>
      </trkpt>
      <trkpt lat="50.05348" lon="1.90572">
        <ele>8.2</ele>
        <time>2022-04-17T13:26:32Z</time>
      </trkpt>
      <trkpt lat="50.05349" lon="1.90571">
        <ele>8.2</ele>
        <time>2022-04-17T13:26:33Z</time>
      </trkpt>
      <trkpt lat="50.0535" lon="1.9057">
        <ele>8.2</ele>
        <time>2022-04-17T13:26:34Z</time>
      </trkpt>
      <trkpt lat="50.05351" lon="1.90567">
        <ele>8.2</ele>
        <time>2022-04-17T13:26:36Z</time>
      </trkpt>
      <trkpt lat="50.05352" lon="1.90566">
        <ele>8.2</ele>
        <time>2022-04-17T13:26:37Z</time>
      </trkpt>
      <trkpt lat="50.05352" lon="1.90565">
        <ele>8.2</ele>
        <time>2022-04-17T13:26:39Z</time>
      </trkpt>
      <trkpt lat="50.05353" lon="1.90564">
        <ele>8.2</ele>
        <time>2022-04-17T13:26:40Z</time>
      </trkpt>
      <trkpt lat="50.05354" lon="1.90562">
        <ele>8.2</ele>
        <time>2022-04-17T13:26:41Z</time>
      </trkpt>
      <trkpt lat="50.05353" lon="1.90562">
        <ele>8.2</ele>
        <time>2022-04-17T13:26:42Z</time>
      </trkpt>
      <trkpt lat="50.05353" lon="1.90561">
        <ele>8.2</ele>
        <time>2022-04-17T13:26:43Z</time>
      </trkpt>
      <trkpt lat="50.05351" lon="1.9056">
        <ele>8.2</ele>
        <time>2022-04-17T13:26:45Z</time>
      </trkpt>
      <trkpt lat="50.05349" lon="1.9056">
        <ele>8.2</ele>
        <time>2022-04-17T13:26:47Z</time>
      </trkpt>
      <trkpt lat="50.05349" lon="1.90559">
        <ele>8.2</ele>
        <time>2022-04-17T13:26:48Z</time>
      </trkpt>
      <trkpt lat="50.05348" lon="1.90559">
        <ele>8.2</ele>
        <time>2022-04-17T13:26:49Z</time>
      </trkpt>
      <trkpt lat="50.05348" lon="1.90559">
        <ele>8.2</ele>
        <time>2022-04-17T13:26:51Z</time>
      </trkpt>
      <trkpt lat="50.05348" lon="1.9056">
        <ele>8.2</ele>
        <time>2022-04-17T13:26:52Z</time>
      </trkpt>
      <trkpt lat="50.05348" lon="1.90561">
        <ele>8.3</ele>
        <time>2022-04-17T13:26:53Z</time>
      </trkpt>
      <trkpt lat="50.05348" lon="1.90562">
        <ele>8.3</ele>
        <time>2022-04-17T13:26:54Z</time>
      </trkpt>
      <trkpt lat="50.05348" lon="1.90562">
        <ele>8.3</ele>
        <time>2022-04-17T13:26:56Z</time>
      </trkpt>
      <trkpt lat="50.05348" lon="1.90563">
        <ele>8.3</ele>
        <time>2022-04-17T13:26:57Z</time>
      </trkpt>
      <trkpt lat="50.05348" lon="1.90563">
        <ele>8.3</ele>
        <time>2022-04-17T13:26:58Z</time>
      </trkpt>
      <trkpt lat="50.05348" lon="1.90564">
        <ele>8.3</ele>
        <time>2022-04-17T13:26:59Z</time>
      </trkpt>
      <trkpt lat="50.05348" lon="1.90564">
        <ele>8.3</ele>
        <time>2022-04-17T13:27:00Z</time>
      </trkpt>
      <trkpt lat="50.05348" lon="1.90565">
        <ele>8.3</ele>
        <time>2022-04-17T13:27:01Z</time>
      </trkpt>
      <trkpt lat="50.05348" lon="1.90565">
        <ele>8.3</ele>
        <time>2022-04-17T13:27:03Z</time>
      </trkpt>
      <trkpt lat="50.05348" lon="1.90566">
        <ele>8.3</ele>
        <time>2022-04-17T13:27:04Z</time>
      </trkpt>
      <trkpt lat="50.05348" lon="1.90566">
        <ele>8.3</ele>
        <time>2022-04-17T13:27:05Z</time>
      </trkpt>
      <trkpt lat="50.05349" lon="1.90566">
        <ele>8.3</ele>
        <time>2022-04-17T13:27:06Z</time>
      </trkpt>
      <trkpt lat="50.05349" lon="1.90566">
        <ele>8.3</ele>
        <time>2022-04-17T13:27:08Z</time>
      </trkpt>
      <trkpt lat="50.05349" lon="1.90565">
        <ele>8.3</ele>
        <time>2022-04-17T13:27:09Z</time>
      </trkpt>
      <trkpt lat="50.05349" lon="1.90565">
        <ele>8.3</ele>
        <time>2022-04-17T13:27:10Z</time>
      </trkpt>
      <trkpt lat="50.05349" lon="1.90565">
        <ele>8.3</ele>
        <time>2022-04-17T13:27:11Z</time>
      </trkpt>
      <trkpt lat="50.05349" lon="1.90564">
        <ele>8.3</ele>
        <time>2022-04-17T13:27:12Z</time>
      </trkpt>
      <trkpt lat="50.0535" lon="1.90564">
        <ele>8.3</ele>
        <time>2022-04-17T13:27:13Z</time>
      </trkpt>
      <trkpt lat="50.05351" lon="1.90562">
        <ele>8.3</ele>
        <time>2022-04-17T13:27:14Z</time>
      </trkpt>
      <trkpt lat="50.05353" lon="1.90562">
        <ele>8.3</ele>
        <time>2022-04-17T13:27:16Z</time>
      </trkpt>
      <trkpt lat="50.05354" lon="1.90561">
        <ele>8.3</ele>
        <time>2022-04-17T13:27:17Z</time>
      </trkpt>
      <trkpt lat="50.05356" lon="1.9056">
        <ele>8.3</ele>
        <time>2022-04-17T13:27:18Z</time>
      </trkpt>
      <trkpt lat="50.05357" lon="1.90559">
        <ele>8.3</ele>
        <time>2022-04-17T13:27:19Z</time>
      </trkpt>
      <trkpt lat="50.05357" lon="1.90559">
        <ele>8.3</ele>
        <time>2022-04-17T13:27:20Z</time>
      </trkpt>
      <trkpt lat="50.05358" lon="1.90558">
        <ele>8.3</ele>
        <time>2022-04-17T13:27:21Z</time>
      </trkpt>
      <trkpt lat="50.05359" lon="1.90557">
        <ele>8.3</ele>
        <time>2022-04-17T13:27:22Z</time>
      </trkpt>
      <trkpt lat="50.05361" lon="1.90554">
        <ele>8.4</ele>
        <time>2022-04-17T13:27:24Z</time>
      </trkpt>
      <trkpt lat="50.05362" lon="1.90553">
        <ele>8.4</ele>
        <time>2022-04-17T13:27:25Z</time>
      </trkpt>
      <trkpt lat="50.05363" lon="1.90552">
        <ele>8.4</ele>
        <time>2022-04-17T13:27:26Z</time>
      </trkpt>
      <trkpt lat="50.05364" lon="1.90551">
        <ele>8.4</ele>
        <time>2022-04-17T13:27:27Z</time>
      </trkpt>
      <trkpt lat="50.05365" lon="1.9055">
        <ele>8.4</ele>
        <time>2022-04-17T13:27:28Z</time>
      </trkpt>
      <trkpt lat="50.05366" lon="1.90549">
        <ele>8.4</ele>
        <time>2022-04-17T13:27:29Z</time>
      </trkpt>
      <trkpt lat="50.05367" lon="1.90546">
        <ele>8.4</ele>
        <time>2022-04-17T13:27:31Z</time>
      </trkpt>
      <trkpt lat="50.05368" lon="1.90545">
        <ele>8.4</ele>
        <time>2022-04-17T13:27:32Z</time>
      </trkpt>
      <trkpt lat="50.05369" lon="1.90544">
        <ele>8.4</ele>
        <time>2022-04-17T13:27:34Z</time>
      </trkpt>
      <trkpt lat="50.05371" lon="1.90542">
        <ele>8.4</ele>
        <time>2022-04-17T13:27:35Z</time>
      </trkpt>
      <trkpt lat="50.05372" lon="1.9054">
        <ele>8.4</ele>
        <time>2022-04-17T13:27:36Z</time>
      </trkpt>
      <trkpt lat="50.05373" lon="1.90538">
        <ele>8.4</ele>
        <time>2022-04-17T13:27:37Z</time>
      </trkpt>
      <trkpt lat="50.05373" lon="1.90537">
        <ele>8.5</ele>
        <time>2022-04-17T13:27:38Z</time>
      </trkpt>
      <trkpt lat="50.05373" lon="1.90536">
        <ele>8.5</ele>
        <time>2022-04-17T13:27:39Z</time>
      </trkpt>
      <trkpt lat="50.05374" lon="1.90535">
        <ele>8.5</ele>
        <time>2022-04-17T13:27:40Z</time>
      </trkpt>
      <trkpt lat="50.05375" lon="1.90532">
        <ele>8.5</ele>
        <time>2022-04-17T13:27:41Z</time>
      </trkpt>
      <trkpt lat="50.05376" lon="1.9053">
        <ele>8.5</ele>
        <time>2022-04-17T13:27:43Z</time>
      </trkpt>
      <trkpt lat="50.05377" lon="1.90528">
        <ele>8.5</ele>
        <time>2022-04-17T13:27:44Z</time>
      </trkpt>
      <trkpt lat="50.05378" lon="1.90527">
        <ele>8.5</ele>
        <time>2022-04-17T13:27:45Z</time>
      </trkpt>
      <trkpt lat="50.05378" lon="1.90526">
        <ele>8.5</ele>
        <time>2022-04-17T13:27:46Z</time>
      </trkpt>
      <trkpt lat="50.05378" lon="1.90525">
        <ele>8.5</ele>
        <time>2022-04-17T13:27:47Z</time>
      </trkpt>
      <trkpt lat="50.05379" lon="1.90524">
        <ele>8.5</ele>
        <time>2022-04-17T13:27:49Z</time>
      </trkpt>
      <trkpt lat="50.05381" lon="1.90521">
        <ele>8.5</ele>
        <time>2022-04-17T13:27:50Z</time>
      </trkpt>
      <trkpt lat="50.05382" lon="1.90519">
        <ele>8.5</ele>
        <time>2022-04-17T13:27:51Z</time>
      </trkpt>
      <trkpt lat="50.05383" lon="1.90518">
        <ele>8.5</ele>
        <time>2022-04-17T13:27:52Z</time>
      </trkpt>
      <trkpt lat="50.05384" lon="1.90517">
        <ele>8.5</ele>
        <time>2022-04-17T13:27:53Z</time>
      </trkpt>
      <trkpt lat="50.05385" lon="1.90515">
        <ele>8.5</ele>
        <time>2022-04-17T13:27:54Z</time>
      </trkpt>
      <trkpt lat="50.05386" lon="1.90514">
        <ele>8.5</ele>
        <time>2022-04-17T13:27:55Z</time>
      </trkpt>
      <trkpt lat="50.05388" lon="1.90512">
        <ele>8.6</ele>
        <time>2022-04-17T13:27:56Z</time>
      </trkpt>
      <trkpt lat="50.05388" lon="1.90511">
        <ele>8.6</ele>
        <time>2022-04-17T13:27:57Z</time>
      </trkpt>
      <trkpt lat="50.05389" lon="1.9051">
        <ele>8.6</ele>
        <time>2022-04-17T13:27:58Z</time>
      </trkpt>
      <trkpt lat="50.0539" lon="1.90508">
        <ele>8.6</ele>
        <time>2022-04-17T13:27:59Z</time>
      </trkpt>
      <trkpt lat="50.05391" lon="1.90506">
        <ele>8.6</ele>
        <time>2022-04-17T13:28:01Z</time>
      </trkpt>
      <trkpt lat="50.05392" lon="1.90504">
        <ele>8.6</ele>
        <time>2022-04-17T13:28:02Z</time>
      </trkpt>
      <trkpt lat="50.05393" lon="1.90501">
        <ele>8.6</ele>
        <time>2022-04-17T13:28:04Z</time>
      </trkpt>
      <trkpt lat="50.05394" lon="1.905">
        <ele>8.6</ele>
        <time>2022-04-17T13:28:05Z</time>
      </trkpt>
      <trkpt lat="50.05395" lon="1.90498">
        <ele>8.6</ele>
        <time>2022-04-17T13:28:06Z</time>
      </trkpt>
      <trkpt lat="50.05396" lon="1.90495">
        <ele>8.6</ele>
        <time>2022-04-17T13:28:07Z</time>
      </trkpt>
      <trkpt lat="50.05397" lon="1.90494">
        <ele>8.6</ele>
        <time>2022-04-17T13:28:08Z</time>
      </trkpt>
      <trkpt lat="50.05398" lon="1.90492">
        <ele>8.6</ele>
        <time>2022-04-17T13:28:09Z</time>
      </trkpt>
      <trkpt lat="50.05398" lon="1.90492">
        <ele>8.6</ele>
        <time>2022-04-17T13:28:10Z</time>
      </trkpt>
      <trkpt lat="50.05399" lon="1.90491">
        <ele>8.6</ele>
        <time>2022-04-17T13:28:11Z</time>
      </trkpt>
      <trkpt lat="50.05399" lon="1.9049">
        <ele>8.6</ele>
        <time>2022-04-17T13:28:12Z</time>
      </trkpt>
      <trkpt lat="50.054" lon="1.90488">
        <ele>8.6</ele>
        <time>2022-04-17T13:28:14Z</time>
      </trkpt>
      <trkpt lat="50.05402" lon="1.90486">
        <ele>8.6</ele>
        <time>2022-04-17T13:28:15Z</time>
      </trkpt>
      <trkpt lat="50.05402" lon="1.90485">
        <ele>8.6</ele>
        <time>2022-04-17T13:28:16Z</time>
      </trkpt>
      <trkpt lat="50.05404" lon="1.90483">
        <ele>8.6</ele>
        <time>2022-04-17T13:28:18Z</time>
      </trkpt>
      <trkpt lat="50.05404" lon="1.90482">
        <ele>8.6</ele>
        <time>2022-04-17T13:28:19Z</time>
      </trkpt>
      <trkpt lat="50.05405" lon="1.90482">
        <ele>8.6</ele>
        <time>2022-04-17T13:28:20Z</time>
      </trkpt>
      <trkpt lat="50.05406" lon="1.9048">
        <ele>8.6</ele>
        <time>2022-04-17T13:28:21Z</time>
      </trkpt>
      <trkpt lat="50.05407" lon="1.90479">
        <ele>8.6</ele>
        <time>2022-04-17T13:28:22Z</time>
      </trkpt>
      <trkpt lat="50.05408" lon="1.90477">
        <ele>8.6</ele>
        <time>2022-04-17T13:28:24Z</time>
      </trkpt>
      <trkpt lat="50.05409" lon="1.90475">
        <ele>8.6</ele>
        <time>2022-04-17T13:28:25Z</time>
      </trkpt>
      <trkpt lat="50.0541" lon="1.90474">
        <ele>8.6</ele>
        <time>2022-04-17T13:28:26Z</time>
      </trkpt>
      <trkpt lat="50.05411" lon="1.90473">
        <ele>8.6</ele>
        <time>2022-04-17T13:28:27Z</time>
      </trkpt>
      <trkpt lat="50.05411" lon="1.90471">
        <ele>8.6</ele>
        <time>2022-04-17T13:28:29Z</time>
      </trkpt>
      <trkpt lat="50.05413" lon="1.90468">
        <ele>8.6</ele>
        <time>2022-04-17T13:28:31Z</time>
      </trkpt>
      <trkpt lat="50.05414" lon="1.90466">
        <ele>8.6</ele>
        <time>2022-04-17T13:28:33Z</time>
      </trkpt>
      <trkpt lat="50.05414" lon="1.90465">
        <ele>8.6</ele>
        <time>2022-04-17T13:28:34Z</time>
      </trkpt>
      <trkpt lat="50.05416" lon="1.90462">
        <ele>8.6</ele>
        <time>2022-04-17T13:28:35Z</time>
      </trkpt>
      <trkpt lat="50.05416" lon="1.90461">
        <ele>8.6</ele>
        <time>2022-04-17T13:28:36Z</time>
      </trkpt>
      <trkpt lat="50.05417" lon="1.9046">
        <ele>8.6</ele>
        <time>2022-04-17T13:28:37Z</time>
      </trkpt>
      <trkpt lat="50.05417" lon="1.90459">
        <ele>8.6</ele>
        <time>2022-04-17T13:28:38Z</time>
      </trkpt>
      <trkpt lat="50.05418" lon="1.90458">
        <ele>8.6</ele>
        <time>2022-04-17T13:28:39Z</time>
      </trkpt>
      <trkpt lat="50.05419" lon="1.90456">
        <ele>8.6</ele>
        <time>2022-04-17T13:28:40Z</time>
      </trkpt>
      <trkpt lat="50.05419" lon="1.90455">
        <ele>8.6</ele>
        <time>2022-04-17T13:28:41Z</time>
      </trkpt>
      <trkpt lat="50.0542" lon="1.90454">
        <ele>8.6</ele>
        <time>2022-04-17T13:28:42Z</time>
      </trkpt>
      <trkpt lat="50.05421" lon="1.90453">
        <ele>8.6</ele>
        <time>2022-04-17T13:28:44Z</time>
      </trkpt>
      <trkpt lat="50.05421" lon="1.90451">
        <ele>8.6</ele>
        <time>2022-04-17T13:28:45Z</time>
      </trkpt>
      <trkpt lat="50.05422" lon="1.9045">
        <ele>8.6</ele>
        <time>2022-04-17T13:28:46Z</time>
      </trkpt>
      <trkpt lat="50.05423" lon="1.90449">
        <ele>8.6</ele>
        <time>2022-04-17T13:28:47Z</time>
      </trkpt>
      <trkpt lat="50.05423" lon="1.90448">
        <ele>8.6</ele>
        <time>2022-04-17T13:28:48Z</time>
      </trkpt>
      <trkpt lat="50.05424" lon="1.90448">
        <ele>8.6</ele>
        <time>2022-04-17T13:28:49Z</time>
      </trkpt>
      <trkpt lat="50.05425" lon="1.90449">
        <ele>8.6</ele>
        <time>2022-04-17T13:28:51Z</time>
      </trkpt>
      <trkpt lat="50.05426" lon="1.90449">
        <ele>8.6</ele>
        <time>2022-04-17T13:28:52Z</time>
      </trkpt>
      <trkpt lat="50.05427" lon="1.90449">
        <ele>8.6</ele>
        <time>2022-04-17T13:28:54Z</time>
      </trkpt>
      <trkpt lat="50.05427" lon="1.90449">
        <ele>8.6</ele>
        <time>2022-04-17T13:28:55Z</time>
      </trkpt>
      <trkpt lat="50.05427" lon="1.90449">
        <ele>8.6</ele>
        <time>2022-04-17T13:28:56Z</time>
      </trkpt>
      <trkpt lat="50.05427" lon="1.90449">
        <ele>8.6</ele>
        <time>2022-04-17T13:28:57Z</time>
      </trkpt>
      <trkpt lat="50.05427" lon="1.90449">
        <ele>8.6</ele>
        <time>2022-04-17T13:28:58Z</time>
      </trkpt>
      <trkpt lat="50.05427" lon="1.90449">
        <ele>8.6</ele>
        <time>2022-04-17T13:28:59Z</time>
      </trkpt>
      <trkpt lat="50.05427" lon="1.90449">
        <ele>8.6</ele>
        <time>2022-04-17T13:29:00Z</time>
      </trkpt>
      <trkpt lat="50.05427" lon="1.90449">
        <ele>8.6</ele>
        <time>2022-04-17T13:29:01Z</time>
      </trkpt>
      <trkpt lat="50.05427" lon="1.90449">
        <ele>8.6</ele>
        <time>2022-04-17T13:29:02Z</time>
      </trkpt>
      <trkpt lat="50.05427" lon="1.90449">
        <ele>8.6</ele>
        <time>2022-04-17T13:29:03Z</time>
      </trkpt>
      <trkpt lat="50.05427" lon="1.90449">
        <ele>8.6</ele>
        <time>2022-04-17T13:29:04Z</time>
      </trkpt>
      <trkpt lat="50.05427" lon="1.90449">
        <ele>8.6</ele>
        <time>2022-04-17T13:29:05Z</time>
      </trkpt>
      <trkpt lat="50.05427" lon="1.90449">
        <ele>8.6</ele>
        <time>2022-04-17T13:29:06Z</time>
      </trkpt>
      <trkpt lat="50.05427" lon="1.90449">
        <ele>8.6</ele>
        <time>2022-04-17T13:29:07Z</time>
      </trkpt>
      <trkpt lat="50.05427" lon="1.90449">
        <ele>8.6</ele>
        <time>2022-04-17T13:29:08Z</time>
      </trkpt>
      <trkpt lat="50.05427" lon="1.90449">
        <ele>8.6</ele>
        <time>2022-04-17T13:29:09Z</time>
      </trkpt>
      <trkpt lat="50.05427" lon="1.90449">
        <ele>8.6</ele>
        <time>2022-04-17T13:29:10Z</time>
      </trkpt>
      <trkpt lat="50.05426" lon="1.90449">
        <ele>8.6</ele>
        <time>2022-04-17T13:29:11Z</time>
      </trkpt>
      <trkpt lat="50.05426" lon="1.90449">
        <ele>8.6</ele>
        <time>2022-04-17T13:29:12Z</time>
      </trkpt>
      <trkpt lat="50.05426" lon="1.90449">
        <ele>8.6</ele>
        <time>2022-04-17T13:29:13Z</time>
      </trkpt>
      <trkpt lat="50.05426" lon="1.90449">
        <ele>8.6</ele>
        <time>2022-04-17T13:29:14Z</time>
      </trkpt>
      <trkpt lat="50.05426" lon="1.90449">
        <ele>8.6</ele>
        <time>2022-04-17T13:29:15Z</time>
      </trkpt>
      <trkpt lat="50.05426" lon="1.90449">
        <ele>8.6</ele>
        <time>2022-04-17T13:29:16Z</time>
      </trkpt>
      <trkpt lat="50.05426" lon="1.90449">
        <ele>8.6</ele>
        <time>2022-04-17T13:29:17Z</time>
      </trkpt>
      <trkpt lat="50.05426" lon="1.90449">
        <ele>8.6</ele>
        <time>2022-04-17T13:29:18Z</time>
      </trkpt>
      <trkpt lat="50.05426" lon="1.90449">
        <ele>8.6</ele>
        <time>2022-04-17T13:29:19Z</time>
      </trkpt>
      <trkpt lat="50.05426" lon="1.90449">
        <ele>8.6</ele>
        <time>2022-04-17T13:29:20Z</time>
      </trkpt>
      <trkpt lat="50.05426" lon="1.90449">
        <ele>8.6</ele>
        <time>2022-04-17T13:29:21Z</time>
      </trkpt>
      <trkpt lat="50.05426" lon="1.90449">
        <ele>8.6</ele>
        <time>2022-04-17T13:29:22Z</time>
      </trkpt>
      <trkpt lat="50.05426" lon="1.90449">
        <ele>8.6</ele>
        <time>2022-04-17T13:29:23Z</time>
      </trkpt>
      <trkpt lat="50.05426" lon="1.90449">
        <ele>8.6</ele>
        <time>2022-04-17T13:29:24Z</time>
      </trkpt>
      <trkpt lat="50.05426" lon="1.90449">
        <ele>8.6</ele>
        <time>2022-04-17T13:29:25Z</time>
      </trkpt>
      <trkpt lat="50.05426" lon="1.90449">
        <ele>8.6</ele>
        <time>2022-04-17T13:29:26Z</time>
      </trkpt>
      <trkpt lat="50.05426" lon="1.90449">
        <ele>8.6</ele>
        <time>2022-04-17T13:29:27Z</time>
      </trkpt>
      <trkpt lat="50.05426" lon="1.90449">
        <ele>8.6</ele>
        <time>2022-04-17T13:29:28Z</time>
      </trkpt>
      <trkpt lat="50.05426" lon="1.90449">
        <ele>8.6</ele>
        <time>2022-04-17T13:29:29Z</time>
      </trkpt>
      <trkpt lat="50.05426" lon="1.90449">
        <ele>8.6</ele>
        <time>2022-04-17T13:29:30Z</time>
      </trkpt>
      <trkpt lat="50.05426" lon="1.90449">
        <ele>8.6</ele>
        <time>2022-04-17T13:29:31Z</time>
      </trkpt>
      <trkpt lat="50.05426" lon="1.90449">
        <ele>8.6</ele>
        <time>2022-04-17T13:29:32Z</time>
      </trkpt>
      <trkpt lat="50.05426" lon="1.90449">
        <ele>8.6</ele>
        <time>2022-04-17T13:29:33Z</time>
      </trkpt>
      <trkpt lat="50.05426" lon="1.90449">
        <ele>8.6</ele>
        <time>2022-04-17T13:29:34Z</time>
      </trkpt>
      <trkpt lat="50.05426" lon="1.90449">
        <ele>8.6</ele>
        <time>2022-04-17T13:29:35Z</time>
      </trkpt>
      <trkpt lat="50.05426" lon="1.90449">
        <ele>8.6</ele>
        <time>2022-04-17T13:29:36Z</time>
      </trkpt>
      <trkpt lat="50.05426" lon="1.90449">
        <ele>8.6</ele>
        <time>2022-04-17T13:29:37Z</time>
      </trkpt>
      <trkpt lat="50.05426" lon="1.90449">
        <ele>8.6</ele>
        <time>2022-04-17T13:29:38Z</time>
      </trkpt>
      <trkpt lat="50.05426" lon="1.90449">
        <ele>8.6</ele>
        <time>2022-04-17T13:29:39Z</time>
      </trkpt>
      <trkpt lat="50.05426" lon="1.90449">
        <ele>8.6</ele>
        <time>2022-04-17T13:29:40Z</time>
      </trkpt>
      <trkpt lat="50.05426" lon="1.90449">
        <ele>8.6</ele>
        <time>2022-04-17T13:29:41Z</time>
      </trkpt>
      <trkpt lat="50.05426" lon="1.90449">
        <ele>8.6</ele>
        <time>2022-04-17T13:29:42Z</time>
      </trkpt>
      <trkpt lat="50.05426" lon="1.90449">
        <ele>8.6</ele>
        <time>2022-04-17T13:29:43Z</time>
      </trkpt>
      <trkpt lat="50.05426" lon="1.90449">
        <ele>8.6</ele>
        <time>2022-04-17T13:29:44Z</time>
      </trkpt>
      <trkpt lat="50.05426" lon="1.90449">
        <ele>8.6</ele>
        <time>2022-04-17T13:29:45Z</time>
      </trkpt>
      <trkpt lat="50.05426" lon="1.90449">
        <ele>8.6</ele>
        <time>2022-04-17T13:29:47Z</time>
      </trkpt>
      <trkpt lat="50.05426" lon="1.90449">
        <ele>8.6</ele>
        <time>2022-04-17T13:29:48Z</time>
      </trkpt>
      <trkpt lat="50.05426" lon="1.90449">
        <ele>8.6</ele>
        <time>2022-04-17T13:29:49Z</time>
      </trkpt>
      <trkpt lat="50.05426" lon="1.90449">
        <ele>8.6</ele>
        <time>2022-04-17T13:29:50Z</time>
      </trkpt>
      <trkpt lat="50.05426" lon="1.90449">
        <ele>8.6</ele>
        <time>2022-04-17T13:29:51Z</time>
      </trkpt>
      <trkpt lat="50.05426" lon="1.90449">
        <ele>8.6</ele>
        <time>2022-04-17T13:29:52Z</time>
      </trkpt>
      <trkpt lat="50.05426" lon="1.90449">
        <ele>8.6</ele>
        <time>2022-04-17T13:29:53Z</time>
      </trkpt>
      <trkpt lat="50.05426" lon="1.90449">
        <ele>8.6</ele>
        <time>2022-04-17T13:29:54Z</time>
      </trkpt>
      <trkpt lat="50.05426" lon="1.90449">
        <ele>8.6</ele>
        <time>2022-04-17T13:29:55Z</time>
      </trkpt>
      <trkpt lat="50.05426" lon="1.90449">
        <ele>8.6</ele>
        <time>2022-04-17T13:29:56Z</time>
      </trkpt>
      <trkpt lat="50.05426" lon="1.90449">
        <ele>8.6</ele>
        <time>2022-04-17T13:29:57Z</time>
      </trkpt>
      <trkpt lat="50.05426" lon="1.90449">
        <ele>8.6</ele>
        <time>2022-04-17T13:29:58Z</time>
      </trkpt>
      <trkpt lat="50.05426" lon="1.90449">
        <ele>8.6</ele>
        <time>2022-04-17T13:29:59Z</time>
      </trkpt>
      <trkpt lat="50.05426" lon="1.90449">
        <ele>8.6</ele>
        <time>2022-04-17T13:30:00Z</time>
      </trkpt>
      <trkpt lat="50.05426" lon="1.90449">
        <ele>8.6</ele>
        <time>2022-04-17T13:30:01Z</time>
      </trkpt>
      <trkpt lat="50.05426" lon="1.90449">
        <ele>8.6</ele>
        <time>2022-04-17T13:30:02Z</time>
      </trkpt>
      <trkpt lat="50.05426" lon="1.90449">
        <ele>8.6</ele>
        <time>2022-04-17T13:30:03Z</time>
      </trkpt>
      <trkpt lat="50.05426" lon="1.90449">
        <ele>8.6</ele>
        <time>2022-04-17T13:30:04Z</time>
      </trkpt>
      <trkpt lat="50.05426" lon="1.90449">
        <ele>8.6</ele>
        <time>2022-04-17T13:30:05Z</time>
      </trkpt>
      <trkpt lat="50.05426" lon="1.90449">
        <ele>8.6</ele>
        <time>2022-04-17T13:30:06Z</time>
      </trkpt>
      <trkpt lat="50.05426" lon="1.90449">
        <ele>8.6</ele>
        <time>2022-04-17T13:30:07Z</time>
      </trkpt>
      <trkpt lat="50.05426" lon="1.90449">
        <ele>8.6</ele>
        <time>2022-04-17T13:30:09Z</time>
      </trkpt>
      <trkpt lat="50.05426" lon="1.90449">
        <ele>8.6</ele>
        <time>2022-04-17T13:30:10Z</time>
      </trkpt>
      <trkpt lat="50.05426" lon="1.90449">
        <ele>8.6</ele>
        <time>2022-04-17T13:30:11Z</time>
      </trkpt>
      <trkpt lat="50.05426" lon="1.90449">
        <ele>8.6</ele>
        <time>2022-04-17T13:30:12Z</time>
      </trkpt>
      <trkpt lat="50.05426" lon="1.90449">
        <ele>8.6</ele>
        <time>2022-04-17T13:30:13Z</time>
      </trkpt>
      <trkpt lat="50.05426" lon="1.90449">
        <ele>8.6</ele>
        <time>2022-04-17T13:30:14Z</time>
      </trkpt>
      <trkpt lat="50.05426" lon="1.90449">
        <ele>8.6</ele>
        <time>2022-04-17T13:30:15Z</time>
      </trkpt>
      <trkpt lat="50.05426" lon="1.90449">
        <ele>8.6</ele>
        <time>2022-04-17T13:30:16Z</time>
      </trkpt>
      <trkpt lat="50.05426" lon="1.90449">
        <ele>8.6</ele>
        <time>2022-04-17T13:30:17Z</time>
      </trkpt>
      <trkpt lat="50.05426" lon="1.90449">
        <ele>8.6</ele>
        <time>2022-04-17T13:30:18Z</time>
      </trkpt>
      <trkpt lat="50.05426" lon="1.90449">
        <ele>8.6</ele>
        <time>2022-04-17T13:30:19Z</time>
      </trkpt>
      <trkpt lat="50.05426" lon="1.90449">
        <ele>8.6</ele>
        <time>2022-04-17T13:30:20Z</time>
      </trkpt>
      <trkpt lat="50.05426" lon="1.90449">
        <ele>8.6</ele>
        <time>2022-04-17T13:30:21Z</time>
      </trkpt>
      <trkpt lat="50.05426" lon="1.90449">
        <ele>8.6</ele>
        <time>2022-04-17T13:30:22Z</time>
      </trkpt>
      <trkpt lat="50.05426" lon="1.90449">
        <ele>8.6</ele>
        <time>2022-04-17T13:30:23Z</time>
      </trkpt>
      <trkpt lat="50.05426" lon="1.90449">
        <ele>8.6</ele>
        <time>2022-04-17T13:30:24Z</time>
      </trkpt>
      <trkpt lat="50.05426" lon="1.90449">
        <ele>8.6</ele>
        <time>2022-04-17T13:30:25Z</time>
      </trkpt>
      <trkpt lat="50.05426" lon="1.90449">
        <ele>8.6</ele>
        <time>2022-04-17T13:30:26Z</time>
      </trkpt>
      <trkpt lat="50.05426" lon="1.90449">
        <ele>8.6</ele>
        <time>2022-04-17T13:30:27Z</time>
      </trkpt>
      <trkpt lat="50.05426" lon="1.90449">
        <ele>8.6</ele>
        <time>2022-04-17T13:30:28Z</time>
      </trkpt>
      <trkpt lat="50.05426" lon="1.90449">
        <ele>8.6</ele>
        <time>2022-04-17T13:30:29Z</time>
      </trkpt>
      <trkpt lat="50.05426" lon="1.90449">
        <ele>8.6</ele>
        <time>2022-04-17T13:30:30Z</time>
      </trkpt>
      <trkpt lat="50.05426" lon="1.90449">
        <ele>8.6</ele>
        <time>2022-04-17T13:30:32Z</time>
      </trkpt>
      <trkpt lat="50.05426" lon="1.90449">
        <ele>8.6</ele>
        <time>2022-04-17T13:30:33Z</time>
      </trkpt>
      <trkpt lat="50.05426" lon="1.90449">
        <ele>8.6</ele>
        <time>2022-04-17T13:30:34Z</time>
      </trkpt>
      <trkpt lat="50.05426" lon="1.9045">
        <ele>8.6</ele>
        <time>2022-04-17T13:30:35Z</time>
      </trkpt>
      <trkpt lat="50.05426" lon="1.9045">
        <ele>8.6</ele>
        <time>2022-04-17T13:30:36Z</time>
      </trkpt>
      <trkpt lat="50.05426" lon="1.9045">
        <ele>8.6</ele>
        <time>2022-04-17T13:30:37Z</time>
      </trkpt>
      <trkpt lat="50.05426" lon="1.9045">
        <ele>8.6</ele>
        <time>2022-04-17T13:30:38Z</time>
      </trkpt>
      <trkpt lat="50.05426" lon="1.9045">
        <ele>8.6</ele>
        <time>2022-04-17T13:30:39Z</time>
      </trkpt>
      <trkpt lat="50.05426" lon="1.9045">
        <ele>8.6</ele>
        <time>2022-04-17T13:30:40Z</time>
      </trkpt>
      <trkpt lat="50.05426" lon="1.9045">
        <ele>8.6</ele>
        <time>2022-04-17T13:30:41Z</time>
      </trkpt>
      <trkpt lat="50.05426" lon="1.9045">
        <ele>8.6</ele>
        <time>2022-04-17T13:30:43Z</time>
      </trkpt>
      <trkpt lat="50.05426" lon="1.9045">
        <ele>8.6</ele>
        <time>2022-04-17T13:30:44Z</time>
      </trkpt>
      <trkpt lat="50.05426" lon="1.9045">
        <ele>8.6</ele>
        <time>2022-04-17T13:30:45Z</time>
      </trkpt>
      <trkpt lat="50.05426" lon="1.9045">
        <ele>8.6</ele>
        <time>2022-04-17T13:30:46Z</time>
      </trkpt>
      <trkpt lat="50.05426" lon="1.9045">
        <ele>8.6</ele>
        <time>2022-04-17T13:30:47Z</time>
      </trkpt>
      <trkpt lat="50.05426" lon="1.9045">
        <ele>8.6</ele>
        <time>2022-04-17T13:30:48Z</time>
      </trkpt>
      <trkpt lat="50.05426" lon="1.9045">
        <ele>8.6</ele>
        <time>2022-04-17T13:30:49Z</time>
      </trkpt>
      <trkpt lat="50.05426" lon="1.9045">
        <ele>8.6</ele>
        <time>2022-04-17T13:30:50Z</time>
      </trkpt>
      <trkpt lat="50.05426" lon="1.9045">
        <ele>8.6</ele>
        <time>2022-04-17T13:30:51Z</time>
      </trkpt>
      <trkpt lat="50.05426" lon="1.9045">
        <ele>8.6</ele>
        <time>2022-04-17T13:30:52Z</time>
      </trkpt>
      <trkpt lat="50.05426" lon="1.9045">
        <ele>8.6</ele>
        <time>2022-04-17T13:30:53Z</time>
      </trkpt>
      <trkpt lat="50.05426" lon="1.9045">
        <ele>8.6</ele>
        <time>2022-04-17T13:30:54Z</time>
      </trkpt>
      <trkpt lat="50.05426" lon="1.9045">
        <ele>8.6</ele>
        <time>2022-04-17T13:30:55Z</time>
      </trkpt>
      <trkpt lat="50.05426" lon="1.9045">
        <ele>8.6</ele>
        <time>2022-04-17T13:30:56Z</time>
      </trkpt>
      <trkpt lat="50.05426" lon="1.9045">
        <ele>8.6</ele>
        <time>2022-04-17T13:30:57Z</time>
      </trkpt>
      <trkpt lat="50.05426" lon="1.9045">
        <ele>8.6</ele>
        <time>2022-04-17T13:30:58Z</time>
      </trkpt>
      <trkpt lat="50.05426" lon="1.9045">
        <ele>8.6</ele>
        <time>2022-04-17T13:30:59Z</time>
      </trkpt>
      <trkpt lat="50.05426" lon="1.9045">
        <ele>8.6</ele>
        <time>2022-04-17T13:31:00Z</time>
      </trkpt>
      <trkpt lat="50.05426" lon="1.9045">
        <ele>8.6</ele>
        <time>2022-04-17T13:31:01Z</time>
      </trkpt>
      <trkpt lat="50.05426" lon="1.9045">
        <ele>8.6</ele>
        <time>2022-04-17T13:31:02Z</time>
      </trkpt>
      <trkpt lat="50.05425" lon="1.9045">
        <ele>8.6</ele>
        <time>2022-04-17T13:31:03Z</time>
      </trkpt>
      <trkpt lat="50.05425" lon="1.9045">
        <ele>8.6</ele>
        <time>2022-04-17T13:31:04Z</time>
      </trkpt>
      <trkpt lat="50.05425" lon="1.9045">
        <ele>8.6</ele>
        <time>2022-04-17T13:31:05Z</time>
      </trkpt>
      <trkpt lat="50.05425" lon="1.9045">
        <ele>8.6</ele>
        <time>2022-04-17T13:31:06Z</time>
      </trkpt>
      <trkpt lat="50.05425" lon="1.9045">
        <ele>8.6</ele>
        <time>2022-04-17T13:31:07Z</time>
      </trkpt>
      <trkpt lat="50.05425" lon="1.9045">
        <ele>8.6</ele>
        <time>2022-04-17T13:31:08Z</time>
      </trkpt>
      <trkpt lat="50.05425" lon="1.9045">
        <ele>8.6</ele>
        <time>2022-04-17T13:31:09Z</time>
      </trkpt>
      <trkpt lat="50.05425" lon="1.9045">
        <ele>8.6</ele>
        <time>2022-04-17T13:31:10Z</time>
      </trkpt>
      <trkpt lat="50.05425" lon="1.9045">
        <ele>8.6</ele>
        <time>2022-04-17T13:31:11Z</time>
      </trkpt>
      <trkpt lat="50.05425" lon="1.9045">
        <ele>8.6</ele>
        <time>2022-04-17T13:31:12Z</time>
      </trkpt>
      <trkpt lat="50.05425" lon="1.9045">
        <ele>8.6</ele>
        <time>2022-04-17T13:31:13Z</time>
      </trkpt>
      <trkpt lat="50.05425" lon="1.9045">
        <ele>8.6</ele>
        <time>2022-04-17T13:31:14Z</time>
      </trkpt>
      <trkpt lat="50.05425" lon="1.9045">
        <ele>8.6</ele>
        <time>2022-04-17T13:31:15Z</time>
      </trkpt>
      <trkpt lat="50.05425" lon="1.9045">
        <ele>8.6</ele>
        <time>2022-04-17T13:31:16Z</time>
      </trkpt>
      <trkpt lat="50.05425" lon="1.9045">
        <ele>8.6</ele>
        <time>2022-04-17T13:31:17Z</time>
      </trkpt>
      <trkpt lat="50.05425" lon="1.9045">
        <ele>8.6</ele>
        <time>2022-04-17T13:31:18Z</time>
      </trkpt>
      <trkpt lat="50.05425" lon="1.9045">
        <ele>8.6</ele>
        <time>2022-04-17T13:31:19Z</time>
      </trkpt>
      <trkpt lat="50.05425" lon="1.9045">
        <ele>8.6</ele>
        <time>2022-04-17T13:31:20Z</time>
      </trkpt>
      <trkpt lat="50.05425" lon="1.9045">
        <ele>8.6</ele>
        <time>2022-04-17T13:31:21Z</time>
      </trkpt>
      <trkpt lat="50.05425" lon="1.9045">
        <ele>8.6</ele>
        <time>2022-04-17T13:31:22Z</time>
      </trkpt>
      <trkpt lat="50.05425" lon="1.9045">
        <ele>8.6</ele>
        <time>2022-04-17T13:31:23Z</time>
      </trkpt>
      <trkpt lat="50.05425" lon="1.9045">
        <ele>8.6</ele>
        <time>2022-04-17T13:31:24Z</time>
      </trkpt>
      <trkpt lat="50.05425" lon="1.9045">
        <ele>8.6</ele>
        <time>2022-04-17T13:31:25Z</time>
      </trkpt>
      <trkpt lat="50.05425" lon="1.9045">
        <ele>8.6</ele>
        <time>2022-04-17T13:31:27Z</time>
      </trkpt>
      <trkpt lat="50.05425" lon="1.9045">
        <ele>8.6</ele>
        <time>2022-04-17T13:31:28Z</time>
      </trkpt>
      <trkpt lat="50.05425" lon="1.9045">
        <ele>8.6</ele>
        <time>2022-04-17T13:31:29Z</time>
      </trkpt>
      <trkpt lat="50.05425" lon="1.9045">
        <ele>8.6</ele>
        <time>2022-04-17T13:31:30Z</time>
      </trkpt>
      <trkpt lat="50.05425" lon="1.9045">
        <ele>8.6</ele>
        <time>2022-04-17T13:31:31Z</time>
      </trkpt>
      <trkpt lat="50.05425" lon="1.9045">
        <ele>8.6</ele>
        <time>2022-04-17T13:31:32Z</time>
      </trkpt>
      <trkpt lat="50.05425" lon="1.9045">
        <ele>8.6</ele>
        <time>2022-04-17T13:31:33Z</time>
      </trkpt>
      <trkpt lat="50.05425" lon="1.9045">
        <ele>8.6</ele>
        <time>2022-04-17T13:31:34Z</time>
      </trkpt>
      <trkpt lat="50.05425" lon="1.9045">
        <ele>8.6</ele>
        <time>2022-04-17T13:31:35Z</time>
      </trkpt>
      <trkpt lat="50.05425" lon="1.9045">
        <ele>8.6</ele>
        <time>2022-04-17T13:31:36Z</time>
      </trkpt>
      <trkpt lat="50.05425" lon="1.9045">
        <ele>8.6</ele>
        <time>2022-04-17T13:31:37Z</time>
      </trkpt>
      <trkpt lat="50.05425" lon="1.9045">
        <ele>8.6</ele>
        <time>2022-04-17T13:31:38Z</time>
      </trkpt>
      <trkpt lat="50.05425" lon="1.9045">
        <ele>8.6</ele>
        <time>2022-04-17T13:31:39Z</time>
      </trkpt>
      <trkpt lat="50.05425" lon="1.9045">
        <ele>8.6</ele>
        <time>2022-04-17T13:31:40Z</time>
      </trkpt>
      <trkpt lat="50.05425" lon="1.9045">
        <ele>8.6</ele>
        <time>2022-04-17T13:31:41Z</time>
      </trkpt>
      <trkpt lat="50.05425" lon="1.9045">
        <ele>8.6</ele>
        <time>2022-04-17T13:31:42Z</time>
      </trkpt>
      <trkpt lat="50.05425" lon="1.9045">
        <ele>8.6</ele>
        <time>2022-04-17T13:31:43Z</time>
      </trkpt>
      <trkpt lat="50.05425" lon="1.9045">
        <ele>8.6</ele>
        <time>2022-04-17T13:31:44Z</time>
      </trkpt>
      <trkpt lat="50.05425" lon="1.9045">
        <ele>8.6</ele>
        <time>2022-04-17T13:31:45Z</time>
      </trkpt>
      <trkpt lat="50.05425" lon="1.9045">
        <ele>8.6</ele>
        <time>2022-04-17T13:31:46Z</time>
      </trkpt>
      <trkpt lat="50.05425" lon="1.9045">
        <ele>8.6</ele>
        <time>2022-04-17T13:31:47Z</time>
      </trkpt>
      <trkpt lat="50.05425" lon="1.9045">
        <ele>8.6</ele>
        <time>2022-04-17T13:31:48Z</time>
      </trkpt>
      <trkpt lat="50.05425" lon="1.9045">
        <ele>8.6</ele>
        <time>2022-04-17T13:31:50Z</time>
      </trkpt>
      <trkpt lat="50.05425" lon="1.9045">
        <ele>8.6</ele>
        <time>2022-04-17T13:31:51Z</time>
      </trkpt>
      <trkpt lat="50.05425" lon="1.9045">
        <ele>8.6</ele>
        <time>2022-04-17T13:31:52Z</time>
      </trkpt>
      <trkpt lat="50.05425" lon="1.9045">
        <ele>8.6</ele>
        <time>2022-04-17T13:31:53Z</time>
      </trkpt>
      <trkpt lat="50.05425" lon="1.9045">
        <ele>8.6</ele>
        <time>2022-04-17T13:31:54Z</time>
      </trkpt>
      <trkpt lat="50.05425" lon="1.9045">
        <ele>8.6</ele>
        <time>2022-04-17T13:31:55Z</time>
      </trkpt>
      <trkpt lat="50.05425" lon="1.9045">
        <ele>8.6</ele>
        <time>2022-04-17T13:31:56Z</time>
      </trkpt>
      <trkpt lat="50.05425" lon="1.9045">
        <ele>8.6</ele>
        <time>2022-04-17T13:31:58Z</time>
      </trkpt>
      <trkpt lat="50.05425" lon="1.9045">
        <ele>8.6</ele>
        <time>2022-04-17T13:31:59Z</time>
      </trkpt>
      <trkpt lat="50.05425" lon="1.9045">
        <ele>8.6</ele>
        <time>2022-04-17T13:32:00Z</time>
      </trkpt>
      <trkpt lat="50.05425" lon="1.9045">
        <ele>8.6</ele>
        <time>2022-04-17T13:32:01Z</time>
      </trkpt>
      <trkpt lat="50.05425" lon="1.9045">
        <ele>8.6</ele>
        <time>2022-04-17T13:32:02Z</time>
      </trkpt>
      <trkpt lat="50.05425" lon="1.9045">
        <ele>8.6</ele>
        <time>2022-04-17T13:32:03Z</time>
      </trkpt>
      <trkpt lat="50.05425" lon="1.9045">
        <ele>8.6</ele>
        <time>2022-04-17T13:32:05Z</time>
      </trkpt>
      <trkpt lat="50.05425" lon="1.9045">
        <ele>8.6</ele>
        <time>2022-04-17T13:32:06Z</time>
      </trkpt>
      <trkpt lat="50.05425" lon="1.9045">
        <ele>8.6</ele>
        <time>2022-04-17T13:32:07Z</time>
      </trkpt>
      <trkpt lat="50.05425" lon="1.9045">
        <ele>8.6</ele>
        <time>2022-04-17T13:32:08Z</time>
      </trkpt>
      <trkpt lat="50.05425" lon="1.9045">
        <ele>8.6</ele>
        <time>2022-04-17T13:32:09Z</time>
      </trkpt>
      <trkpt lat="50.05425" lon="1.9045">
        <ele>8.6</ele>
        <time>2022-04-17T13:32:10Z</time>
      </trkpt>
      <trkpt lat="50.05425" lon="1.9045">
        <ele>8.6</ele>
        <time>2022-04-17T13:32:12Z</time>
      </trkpt>
      <trkpt lat="50.05425" lon="1.9045">
        <ele>8.6</ele>
        <time>2022-04-17T13:32:13Z</time>
      </trkpt>
      <trkpt lat="50.05425" lon="1.9045">
        <ele>8.6</ele>
        <time>2022-04-17T13:32:14Z</time>
      </trkpt>
      <trkpt lat="50.05425" lon="1.9045">
        <ele>8.6</ele>
        <time>2022-04-17T13:32:15Z</time>
      </trkpt>
      <trkpt lat="50.05425" lon="1.9045">
        <ele>8.6</ele>
        <time>2022-04-17T13:32:16Z</time>
      </trkpt>
      <trkpt lat="50.05425" lon="1.9045">
        <ele>8.6</ele>
        <time>2022-04-17T13:32:17Z</time>
      </trkpt>
      <trkpt lat="50.05425" lon="1.9045">
        <ele>8.6</ele>
        <time>2022-04-17T13:32:19Z</time>
      </trkpt>
      <trkpt lat="50.05425" lon="1.9045">
        <ele>8.6</ele>
        <time>2022-04-17T13:32:20Z</time>
      </trkpt>
      <trkpt lat="50.05425" lon="1.9045">
        <ele>8.6</ele>
        <time>2022-04-17T13:32:21Z</time>
      </trkpt>
      <trkpt lat="50.05425" lon="1.9045">
        <ele>8.6</ele>
        <time>2022-04-17T13:32:22Z</time>
      </trkpt>
      <trkpt lat="50.05425" lon="1.9045">
        <ele>8.6</ele>
        <time>2022-04-17T13:32:23Z</time>
      </trkpt>
      <trkpt lat="50.05425" lon="1.9045">
        <ele>8.6</ele>
        <time>2022-04-17T13:32:24Z</time>
      </trkpt>
      <trkpt lat="50.05425" lon="1.9045">
        <ele>8.6</ele>
        <time>2022-04-17T13:32:25Z</time>
      </trkpt>
      <trkpt lat="50.05425" lon="1.9045">
        <ele>8.6</ele>
        <time>2022-04-17T13:32:26Z</time>
      </trkpt>
      <trkpt lat="50.05425" lon="1.9045">
        <ele>8.6</ele>
        <time>2022-04-17T13:32:27Z</time>
      </trkpt>
      <trkpt lat="50.05425" lon="1.9045">
        <ele>8.6</ele>
        <time>2022-04-17T13:32:28Z</time>
      </trkpt>
      <trkpt lat="50.05425" lon="1.9045">
        <ele>8.6</ele>
        <time>2022-04-17T13:32:29Z</time>
      </trkpt>
      <trkpt lat="50.05425" lon="1.9045">
        <ele>8.6</ele>
        <time>2022-04-17T13:32:30Z</time>
      </trkpt>
      <trkpt lat="50.05425" lon="1.9045">
        <ele>8.6</ele>
        <time>2022-04-17T13:32:31Z</time>
      </trkpt>
      <trkpt lat="50.05425" lon="1.9045">
        <ele>8.6</ele>
        <time>2022-04-17T13:32:32Z</time>
      </trkpt>
      <trkpt lat="50.05425" lon="1.9045">
        <ele>8.6</ele>
        <time>2022-04-17T13:32:34Z</time>
      </trkpt>
      <trkpt lat="50.05425" lon="1.9045">
        <ele>8.6</ele>
        <time>2022-04-17T13:32:35Z</time>
      </trkpt>
      <trkpt lat="50.05425" lon="1.9045">
        <ele>8.6</ele>
        <time>2022-04-17T13:32:36Z</time>
      </trkpt>
      <trkpt lat="50.05425" lon="1.9045">
        <ele>8.6</ele>
        <time>2022-04-17T13:32:37Z</time>
      </trkpt>
      <trkpt lat="50.05425" lon="1.9045">
        <ele>8.6</ele>
        <time>2022-04-17T13:32:38Z</time>
      </trkpt>
      <trkpt lat="50.05425" lon="1.9045">
        <ele>8.6</ele>
        <time>2022-04-17T13:32:40Z</time>
      </trkpt>
      <trkpt lat="50.05425" lon="1.9045">
        <ele>8.6</ele>
        <time>2022-04-17T13:32:41Z</time>
      </trkpt>
      <trkpt lat="50.05425" lon="1.9045">
        <ele>8.6</ele>
        <time>2022-04-17T13:32:42Z</time>
      </trkpt>
      <trkpt lat="50.05425" lon="1.9045">
        <ele>8.6</ele>
        <time>2022-04-17T13:32:43Z</time>
      </trkpt>
      <trkpt lat="50.05425" lon="1.9045">
        <ele>8.6</ele>
        <time>2022-04-17T13:32:45Z</time>
      </trkpt>
      <trkpt lat="50.05425" lon="1.9045">
        <ele>8.6</ele>
        <time>2022-04-17T13:32:46Z</time>
      </trkpt>
      <trkpt lat="50.05425" lon="1.9045">
        <ele>8.6</ele>
        <time>2022-04-17T13:32:47Z</time>
      </trkpt>
      <trkpt lat="50.05425" lon="1.9045">
        <ele>8.6</ele>
        <time>2022-04-17T13:32:48Z</time>
      </trkpt>
      <trkpt lat="50.05425" lon="1.9045">
        <ele>8.6</ele>
        <time>2022-04-17T13:32:49Z</time>
      </trkpt>
      <trkpt lat="50.05425" lon="1.9045">
        <ele>8.6</ele>
        <time>2022-04-17T13:32:50Z</time>
      </trkpt>
      <trkpt lat="50.05425" lon="1.9045">
        <ele>8.6</ele>
        <time>2022-04-17T13:32:51Z</time>
      </trkpt>
      <trkpt lat="50.05425" lon="1.9045">
        <ele>8.6</ele>
        <time>2022-04-17T13:32:52Z</time>
      </trkpt>
      <trkpt lat="50.05425" lon="1.9045">
        <ele>8.6</ele>
        <time>2022-04-17T13:32:53Z</time>
      </trkpt>
      <trkpt lat="50.05425" lon="1.9045">
        <ele>8.6</ele>
        <time>2022-04-17T13:32:54Z</time>
      </trkpt>
      <trkpt lat="50.05425" lon="1.9045">
        <ele>8.6</ele>
        <time>2022-04-17T13:32:56Z</time>
      </trkpt>
      <trkpt lat="50.05425" lon="1.9045">
        <ele>8.6</ele>
        <time>2022-04-17T13:32:57Z</time>
      </trkpt>
      <trkpt lat="50.05425" lon="1.9045">
        <ele>8.6</ele>
        <time>2022-04-17T13:32:58Z</time>
      </trkpt>
      <trkpt lat="50.05425" lon="1.9045">
        <ele>8.6</ele>
        <time>2022-04-17T13:32:59Z</time>
      </trkpt>
      <trkpt lat="50.05424" lon="1.9045">
        <ele>8.6</ele>
        <time>2022-04-17T13:33:00Z</time>
      </trkpt>
      <trkpt lat="50.05424" lon="1.9045">
        <ele>8.6</ele>
        <time>2022-04-17T13:33:01Z</time>
      </trkpt>
      <trkpt lat="50.05424" lon="1.9045">
        <ele>8.6</ele>
        <time>2022-04-17T13:33:02Z</time>
      </trkpt>
      <trkpt lat="50.05424" lon="1.9045">
        <ele>8.6</ele>
        <time>2022-04-17T13:33:03Z</time>
      </trkpt>
      <trkpt lat="50.05424" lon="1.9045">
        <ele>8.6</ele>
        <time>2022-04-17T13:33:04Z</time>
      </trkpt>
      <trkpt lat="50.05424" lon="1.9045">
        <ele>8.6</ele>
        <time>2022-04-17T13:33:05Z</time>
      </trkpt>
      <trkpt lat="50.05424" lon="1.9045">
        <ele>8.6</ele>
        <time>2022-04-17T13:33:06Z</time>
      </trkpt>
      <trkpt lat="50.05424" lon="1.9045">
        <ele>8.6</ele>
        <time>2022-04-17T13:33:07Z</time>
      </trkpt>
      <trkpt lat="50.05424" lon="1.9045">
        <ele>8.6</ele>
        <time>2022-04-17T13:33:08Z</time>
      </trkpt>
      <trkpt lat="50.05424" lon="1.9045">
        <ele>8.6</ele>
        <time>2022-04-17T13:33:09Z</time>
      </trkpt>
      <trkpt lat="50.05424" lon="1.9045">
        <ele>8.6</ele>
        <time>2022-04-17T13:33:10Z</time>
      </trkpt>
      <trkpt lat="50.05424" lon="1.9045">
        <ele>8.6</ele>
        <time>2022-04-17T13:33:11Z</time>
      </trkpt>
      <trkpt lat="50.05424" lon="1.9045">
        <ele>8.6</ele>
        <time>2022-04-17T13:33:12Z</time>
      </trkpt>
      <trkpt lat="50.05424" lon="1.9045">
        <ele>8.6</ele>
        <time>2022-04-17T13:33:13Z</time>
      </trkpt>
      <trkpt lat="50.05424" lon="1.9045">
        <ele>8.6</ele>
        <time>2022-04-17T13:33:14Z</time>
      </trkpt>
      <trkpt lat="50.05424" lon="1.9045">
        <ele>8.6</ele>
        <time>2022-04-17T13:33:15Z</time>
      </trkpt>
      <trkpt lat="50.05424" lon="1.9045">
        <ele>8.6</ele>
        <time>2022-04-17T13:33:16Z</time>
      </trkpt>
      <trkpt lat="50.05424" lon="1.9045">
        <ele>8.6</ele>
        <time>2022-04-17T13:33:17Z</time>
      </trkpt>
      <trkpt lat="50.05424" lon="1.9045">
        <ele>8.6</ele>
        <time>2022-04-17T13:33:18Z</time>
      </trkpt>
      <trkpt lat="50.05424" lon="1.9045">
        <ele>8.6</ele>
        <time>2022-04-17T13:33:19Z</time>
      </trkpt>
      <trkpt lat="50.05424" lon="1.9045">
        <ele>8.6</ele>
        <time>2022-04-17T13:33:20Z</time>
      </trkpt>
      <trkpt lat="50.05424" lon="1.9045">
        <ele>8.6</ele>
        <time>2022-04-17T13:33:21Z</time>
      </trkpt>
      <trkpt lat="50.05424" lon="1.9045">
        <ele>8.6</ele>
        <time>2022-04-17T13:33:22Z</time>
      </trkpt>
      <trkpt lat="50.05424" lon="1.9045">
        <ele>8.6</ele>
        <time>2022-04-17T13:33:23Z</time>
      </trkpt>
      <trkpt lat="50.05424" lon="1.9045">
        <ele>8.6</ele>
        <time>2022-04-17T13:33:24Z</time>
      </trkpt>
      <trkpt lat="50.05424" lon="1.9045">
        <ele>8.6</ele>
        <time>2022-04-17T13:33:25Z</time>
      </trkpt>
      <trkpt lat="50.05424" lon="1.9045">
        <ele>8.6</ele>
        <time>2022-04-17T13:33:26Z</time>
      </trkpt>
      <trkpt lat="50.05424" lon="1.9045">
        <ele>8.6</ele>
        <time>2022-04-17T13:33:27Z</time>
      </trkpt>
      <trkpt lat="50.05424" lon="1.9045">
        <ele>8.6</ele>
        <time>2022-04-17T13:33:28Z</time>
      </trkpt>
      <trkpt lat="50.05424" lon="1.9045">
        <ele>8.6</ele>
        <time>2022-04-17T13:33:29Z</time>
      </trkpt>
      <trkpt lat="50.05424" lon="1.9045">
        <ele>8.6</ele>
        <time>2022-04-17T13:33:30Z</time>
      </trkpt>
      <trkpt lat="50.05424" lon="1.9045">
        <ele>8.6</ele>
        <time>2022-04-17T13:33:31Z</time>
      </trkpt>
      <trkpt lat="50.05424" lon="1.9045">
        <ele>8.6</ele>
        <time>2022-04-17T13:33:32Z</time>
      </trkpt>
      <trkpt lat="50.05424" lon="1.9045">
        <ele>8.6</ele>
        <time>2022-04-17T13:33:33Z</time>
      </trkpt>
      <trkpt lat="50.05424" lon="1.9045">
        <ele>8.6</ele>
        <time>2022-04-17T13:33:35Z</time>
      </trkpt>
      <trkpt lat="50.05424" lon="1.9045">
        <ele>8.6</ele>
        <time>2022-04-17T13:33:36Z</time>
      </trkpt>
      <trkpt lat="50.05424" lon="1.9045">
        <ele>8.6</ele>
        <time>2022-04-17T13:33:37Z</time>
      </trkpt>
      <trkpt lat="50.05424" lon="1.9045">
        <ele>8.6</ele>
        <time>2022-04-17T13:33:38Z</time>
      </trkpt>
      <trkpt lat="50.05424" lon="1.9045">
        <ele>8.6</ele>
        <time>2022-04-17T13:33:39Z</time>
      </trkpt>
      <trkpt lat="50.05424" lon="1.9045">
        <ele>8.6</ele>
        <time>2022-04-17T13:33:40Z</time>
      </trkpt>
      <trkpt lat="50.05424" lon="1.9045">
        <ele>8.6</ele>
        <time>2022-04-17T13:33:41Z</time>
      </trkpt>
      <trkpt lat="50.05424" lon="1.9045">
        <ele>8.6</ele>
        <time>2022-04-17T13:33:42Z</time>
      </trkpt>
      <trkpt lat="50.05424" lon="1.9045">
        <ele>8.6</ele>
        <time>2022-04-17T13:33:43Z</time>
      </trkpt>
      <trkpt lat="50.05424" lon="1.9045">
        <ele>8.6</ele>
        <time>2022-04-17T13:33:44Z</time>
      </trkpt>
      <trkpt lat="50.05424" lon="1.9045">
        <ele>8.6</ele>
        <time>2022-04-17T13:33:45Z</time>
      </trkpt>
      <trkpt lat="50.05424" lon="1.9045">
        <ele>8.6</ele>
        <time>2022-04-17T13:33:46Z</time>
      </trkpt>
      <trkpt lat="50.05424" lon="1.9045">
        <ele>8.6</ele>
        <time>2022-04-17T13:33:47Z</time>
      </trkpt>
      <trkpt lat="50.05424" lon="1.9045">
        <ele>8.6</ele>
        <time>2022-04-17T13:33:48Z</time>
      </trkpt>
      <trkpt lat="50.05424" lon="1.9045">
        <ele>8.6</ele>
        <time>2022-04-17T13:33:49Z</time>
      </trkpt>
      <trkpt lat="50.05424" lon="1.90451">
        <ele>8.6</ele>
        <time>2022-04-17T13:33:50Z</time>
      </trkpt>
      <trkpt lat="50.05424" lon="1.90451">
        <ele>8.6</ele>
        <time>2022-04-17T13:33:52Z</time>
      </trkpt>
      <trkpt lat="50.05424" lon="1.90451">
        <ele>8.6</ele>
        <time>2022-04-17T13:33:53Z</time>
      </trkpt>
      <trkpt lat="50.05424" lon="1.90451">
        <ele>8.6</ele>
        <time>2022-04-17T13:33:54Z</time>
      </trkpt>
      <trkpt lat="50.05424" lon="1.90451">
        <ele>8.6</ele>
        <time>2022-04-17T13:33:55Z</time>
      </trkpt>
      <trkpt lat="50.05424" lon="1.90451">
        <ele>8.6</ele>
        <time>2022-04-17T13:33:56Z</time>
      </trkpt>
      <trkpt lat="50.05424" lon="1.90451">
        <ele>8.6</ele>
        <time>2022-04-17T13:33:57Z</time>
      </trkpt>
      <trkpt lat="50.05424" lon="1.90451">
        <ele>8.6</ele>
        <time>2022-04-17T13:33:58Z</time>
      </trkpt>
      <trkpt lat="50.05424" lon="1.90451">
        <ele>8.6</ele>
        <time>2022-04-17T13:33:59Z</time>
      </trkpt>
      <trkpt lat="50.05424" lon="1.90451">
        <ele>8.6</ele>
        <time>2022-04-17T13:34:00Z</time>
      </trkpt>
      <trkpt lat="50.05424" lon="1.90451">
        <ele>8.6</ele>
        <time>2022-04-17T13:34:01Z</time>
      </trkpt>
      <trkpt lat="50.05424" lon="1.90451">
        <ele>8.6</ele>
        <time>2022-04-17T13:34:02Z</time>
      </trkpt>
      <trkpt lat="50.05424" lon="1.90451">
        <ele>8.6</ele>
        <time>2022-04-17T13:34:03Z</time>
      </trkpt>
      <trkpt lat="50.05424" lon="1.90451">
        <ele>8.6</ele>
        <time>2022-04-17T13:34:04Z</time>
      </trkpt>
      <trkpt lat="50.05424" lon="1.90451">
        <ele>8.6</ele>
        <time>2022-04-17T13:34:05Z</time>
      </trkpt>
      <trkpt lat="50.05424" lon="1.90451">
        <ele>8.6</ele>
        <time>2022-04-17T13:34:06Z</time>
      </trkpt>
      <trkpt lat="50.05424" lon="1.90451">
        <ele>8.6</ele>
        <time>2022-04-17T13:34:07Z</time>
      </trkpt>
      <trkpt lat="50.05424" lon="1.90451">
        <ele>8.6</ele>
        <time>2022-04-17T13:34:08Z</time>
      </trkpt>
      <trkpt lat="50.05424" lon="1.90451">
        <ele>8.6</ele>
        <time>2022-04-17T13:34:09Z</time>
      </trkpt>
      <trkpt lat="50.05424" lon="1.90451">
        <ele>8.6</ele>
        <time>2022-04-17T13:34:11Z</time>
      </trkpt>
      <trkpt lat="50.05424" lon="1.90451">
        <ele>8.6</ele>
        <time>2022-04-17T13:34:12Z</time>
      </trkpt>
      <trkpt lat="50.05424" lon="1.90451">
        <ele>8.6</ele>
        <time>2022-04-17T13:34:13Z</time>
      </trkpt>
      <trkpt lat="50.05424" lon="1.90451">
        <ele>8.6</ele>
        <time>2022-04-17T13:34:14Z</time>
      </trkpt>
      <trkpt lat="50.05424" lon="1.90451">
        <ele>8.6</ele>
        <time>2022-04-17T13:34:15Z</time>
      </trkpt>
      <trkpt lat="50.05424" lon="1.90451">
        <ele>8.6</ele>
        <time>2022-04-17T13:34:16Z</time>
      </trkpt>
      <trkpt lat="50.05424" lon="1.90451">
        <ele>8.6</ele>
        <time>2022-04-17T13:34:17Z</time>
      </trkpt>
      <trkpt lat="50.05424" lon="1.90451">
        <ele>8.6</ele>
        <time>2022-04-17T13:34:18Z</time>
      </trkpt>
      <trkpt lat="50.05424" lon="1.90451">
        <ele>8.6</ele>
        <time>2022-04-17T13:34:19Z</time>
      </trkpt>
      <trkpt lat="50.05424" lon="1.90451">
        <ele>8.6</ele>
        <time>2022-04-17T13:34:20Z</time>
      </trkpt>
      <trkpt lat="50.05424" lon="1.90451">
        <ele>8.6</ele>
        <time>2022-04-17T13:34:21Z</time>
      </trkpt>
      <trkpt lat="50.05424" lon="1.90451">
        <ele>8.6</ele>
        <time>2022-04-17T13:34:22Z</time>
      </trkpt>
      <trkpt lat="50.05424" lon="1.90451">
        <ele>8.6</ele>
        <time>2022-04-17T13:34:23Z</time>
      </trkpt>
      <trkpt lat="50.05424" lon="1.90451">
        <ele>8.6</ele>
        <time>2022-04-17T13:34:25Z</time>
      </trkpt>
      <trkpt lat="50.05424" lon="1.90451">
        <ele>8.6</ele>
        <time>2022-04-17T13:34:26Z</time>
      </trkpt>
      <trkpt lat="50.05424" lon="1.90451">
        <ele>8.6</ele>
        <time>2022-04-17T13:34:27Z</time>
      </trkpt>
      <trkpt lat="50.05424" lon="1.90451">
        <ele>8.6</ele>
        <time>2022-04-17T13:34:28Z</time>
      </trkpt>
      <trkpt lat="50.05424" lon="1.90451">
        <ele>8.6</ele>
        <time>2022-04-17T13:34:29Z</time>
      </trkpt>
      <trkpt lat="50.05424" lon="1.90451">
        <ele>8.6</ele>
        <time>2022-04-17T13:34:30Z</time>
      </trkpt>
      <trkpt lat="50.05424" lon="1.90451">
        <ele>8.6</ele>
        <time>2022-04-17T13:34:31Z</time>
      </trkpt>
      <trkpt lat="50.05424" lon="1.90451">
        <ele>8.6</ele>
        <time>2022-04-17T13:34:32Z</time>
      </trkpt>
      <trkpt lat="50.05424" lon="1.90451">
        <ele>8.6</ele>
        <time>2022-04-17T13:34:33Z</time>
      </trkpt>
      <trkpt lat="50.05424" lon="1.90451">
        <ele>8.6</ele>
        <time>2022-04-17T13:34:34Z</time>
      </trkpt>
      <trkpt lat="50.05424" lon="1.90451">
        <ele>8.6</ele>
        <time>2022-04-17T13:34:35Z</time>
      </trkpt>
      <trkpt lat="50.05424" lon="1.90451">
        <ele>8.6</ele>
        <time>2022-04-17T13:34:36Z</time>
      </trkpt>
      <trkpt lat="50.05424" lon="1.90451">
        <ele>8.6</ele>
        <time>2022-04-17T13:34:37Z</time>
      </trkpt>
      <trkpt lat="50.05424" lon="1.90451">
        <ele>8.6</ele>
        <time>2022-04-17T13:34:39Z</time>
      </trkpt>
      <trkpt lat="50.05424" lon="1.90451">
        <ele>8.6</ele>
        <time>2022-04-17T13:34:40Z</time>
      </trkpt>
      <trkpt lat="50.05424" lon="1.90451">
        <ele>8.6</ele>
        <time>2022-04-17T13:34:41Z</time>
      </trkpt>
      <trkpt lat="50.05424" lon="1.90451">
        <ele>8.6</ele>
        <time>2022-04-17T13:34:42Z</time>
      </trkpt>
      <trkpt lat="50.05424" lon="1.90451">
        <ele>8.6</ele>
        <time>2022-04-17T13:34:43Z</time>
      </trkpt>
      <trkpt lat="50.05424" lon="1.90451">
        <ele>8.6</ele>
        <time>2022-04-17T13:34:44Z</time>
      </trkpt>
      <trkpt lat="50.05424" lon="1.90451">
        <ele>8.6</ele>
        <time>2022-04-17T13:34:45Z</time>
      </trkpt>
      <trkpt lat="50.05424" lon="1.90451">
        <ele>8.6</ele>
        <time>2022-04-17T13:34:46Z</time>
      </trkpt>
      <trkpt lat="50.05424" lon="1.90451">
        <ele>8.6</ele>
        <time>2022-04-17T13:34:47Z</time>
      </trkpt>
      <trkpt lat="50.05424" lon="1.90451">
        <ele>8.6</ele>
        <time>2022-04-17T13:34:48Z</time>
      </trkpt>
      <trkpt lat="50.05424" lon="1.90451">
        <ele>8.6</ele>
        <time>2022-04-17T13:34:49Z</time>
      </trkpt>
      <trkpt lat="50.05424" lon="1.90451">
        <ele>8.6</ele>
        <time>2022-04-17T13:34:50Z</time>
      </trkpt>
      <trkpt lat="50.05424" lon="1.90451">
        <ele>8.6</ele>
        <time>2022-04-17T13:34:52Z</time>
      </trkpt>
      <trkpt lat="50.05424" lon="1.90451">
        <ele>8.6</ele>
        <time>2022-04-17T13:34:53Z</time>
      </trkpt>
      <trkpt lat="50.05423" lon="1.90451">
        <ele>8.6</ele>
        <time>2022-04-17T13:34:54Z</time>
      </trkpt>
      <trkpt lat="50.05423" lon="1.90451">
        <ele>8.6</ele>
        <time>2022-04-17T13:34:55Z</time>
      </trkpt>
      <trkpt lat="50.05423" lon="1.90451">
        <ele>8.6</ele>
        <time>2022-04-17T13:34:56Z</time>
      </trkpt>
      <trkpt lat="50.05423" lon="1.90451">
        <ele>8.6</ele>
        <time>2022-04-17T13:34:57Z</time>
      </trkpt>
      <trkpt lat="50.05423" lon="1.90451">
        <ele>8.6</ele>
        <time>2022-04-17T13:34:58Z</time>
      </trkpt>
      <trkpt lat="50.05423" lon="1.90451">
        <ele>8.6</ele>
        <time>2022-04-17T13:34:59Z</time>
      </trkpt>
      <trkpt lat="50.05423" lon="1.90451">
        <ele>8.6</ele>
        <time>2022-04-17T13:35:00Z</time>
      </trkpt>
      <trkpt lat="50.05423" lon="1.90451">
        <ele>8.6</ele>
        <time>2022-04-17T13:35:01Z</time>
      </trkpt>
      <trkpt lat="50.05423" lon="1.90451">
        <ele>8.6</ele>
        <time>2022-04-17T13:35:02Z</time>
      </trkpt>
      <trkpt lat="50.05423" lon="1.90451">
        <ele>8.6</ele>
        <time>2022-04-17T13:35:03Z</time>
      </trkpt>
      <trkpt lat="50.05423" lon="1.90451">
        <ele>8.6</ele>
        <time>2022-04-17T13:35:04Z</time>
      </trkpt>
      <trkpt lat="50.05423" lon="1.90451">
        <ele>8.6</ele>
        <time>2022-04-17T13:35:05Z</time>
      </trkpt>
      <trkpt lat="50.05423" lon="1.90451">
        <ele>8.6</ele>
        <time>2022-04-17T13:35:06Z</time>
      </trkpt>
      <trkpt lat="50.05423" lon="1.90451">
        <ele>8.6</ele>
        <time>2022-04-17T13:35:07Z</time>
      </trkpt>
      <trkpt lat="50.05423" lon="1.90451">
        <ele>8.6</ele>
        <time>2022-04-17T13:35:08Z</time>
      </trkpt>
      <trkpt lat="50.05423" lon="1.90451">
        <ele>8.6</ele>
        <time>2022-04-17T13:35:09Z</time>
      </trkpt>
      <trkpt lat="50.05423" lon="1.90451">
        <ele>8.6</ele>
        <time>2022-04-17T13:35:10Z</time>
      </trkpt>
      <trkpt lat="50.05423" lon="1.90451">
        <ele>8.6</ele>
        <time>2022-04-17T13:35:11Z</time>
      </trkpt>
      <trkpt lat="50.05423" lon="1.90451">
        <ele>8.6</ele>
        <time>2022-04-17T13:35:12Z</time>
      </trkpt>
      <trkpt lat="50.05423" lon="1.90451">
        <ele>8.6</ele>
        <time>2022-04-17T13:35:13Z</time>
      </trkpt>
      <trkpt lat="50.05423" lon="1.90451">
        <ele>8.6</ele>
        <time>2022-04-17T13:35:14Z</time>
      </trkpt>
      <trkpt lat="50.05423" lon="1.90451">
        <ele>8.6</ele>
        <time>2022-04-17T13:35:15Z</time>
      </trkpt>
      <trkpt lat="50.05423" lon="1.90451">
        <ele>8.6</ele>
        <time>2022-04-17T13:35:16Z</time>
      </trkpt>
      <trkpt lat="50.05423" lon="1.90451">
        <ele>8.6</ele>
        <time>2022-04-17T13:35:17Z</time>
      </trkpt>
      <trkpt lat="50.05423" lon="1.90451">
        <ele>8.6</ele>
        <time>2022-04-17T13:35:18Z</time>
      </trkpt>
      <trkpt lat="50.05423" lon="1.90451">
        <ele>8.6</ele>
        <time>2022-04-17T13:35:20Z</time>
      </trkpt>
      <trkpt lat="50.05423" lon="1.90451">
        <ele>8.6</ele>
        <time>2022-04-17T13:35:21Z</time>
      </trkpt>
      <trkpt lat="50.05423" lon="1.90451">
        <ele>8.6</ele>
        <time>2022-04-17T13:35:22Z</time>
      </trkpt>
      <trkpt lat="50.05423" lon="1.90451">
        <ele>8.6</ele>
        <time>2022-04-17T13:35:23Z</time>
      </trkpt>
      <trkpt lat="50.05423" lon="1.90451">
        <ele>8.6</ele>
        <time>2022-04-17T13:35:24Z</time>
      </trkpt>
      <trkpt lat="50.05423" lon="1.90451">
        <ele>8.6</ele>
        <time>2022-04-17T13:35:25Z</time>
      </trkpt>
      <trkpt lat="50.05423" lon="1.90451">
        <ele>8.6</ele>
        <time>2022-04-17T13:35:26Z</time>
      </trkpt>
      <trkpt lat="50.05423" lon="1.90451">
        <ele>8.6</ele>
        <time>2022-04-17T13:35:27Z</time>
      </trkpt>
      <trkpt lat="50.05423" lon="1.90451">
        <ele>8.6</ele>
        <time>2022-04-17T13:35:28Z</time>
      </trkpt>
      <trkpt lat="50.05423" lon="1.90451">
        <ele>8.6</ele>
        <time>2022-04-17T13:35:29Z</time>
      </trkpt>
      <trkpt lat="50.05423" lon="1.90451">
        <ele>8.6</ele>
        <time>2022-04-17T13:35:30Z</time>
      </trkpt>
      <trkpt lat="50.05423" lon="1.90451">
        <ele>8.6</ele>
        <time>2022-04-17T13:35:32Z</time>
      </trkpt>
      <trkpt lat="50.05423" lon="1.90451">
        <ele>8.6</ele>
        <time>2022-04-17T13:35:33Z</time>
      </trkpt>
      <trkpt lat="50.05423" lon="1.90451">
        <ele>8.6</ele>
        <time>2022-04-17T13:35:34Z</time>
      </trkpt>
      <trkpt lat="50.05423" lon="1.90451">
        <ele>8.6</ele>
        <time>2022-04-17T13:35:35Z</time>
      </trkpt>
      <trkpt lat="50.05423" lon="1.90451">
        <ele>8.6</ele>
        <time>2022-04-17T13:35:36Z</time>
      </trkpt>
      <trkpt lat="50.05423" lon="1.90451">
        <ele>8.6</ele>
        <time>2022-04-17T13:35:37Z</time>
      </trkpt>
      <trkpt lat="50.05423" lon="1.90451">
        <ele>8.6</ele>
        <time>2022-04-17T13:35:38Z</time>
      </trkpt>
      <trkpt lat="50.05423" lon="1.90451">
        <ele>8.6</ele>
        <time>2022-04-17T13:35:39Z</time>
      </trkpt>
      <trkpt lat="50.05423" lon="1.90451">
        <ele>8.6</ele>
        <time>2022-04-17T13:35:41Z</time>
      </trkpt>
      <trkpt lat="50.05423" lon="1.90451">
        <ele>8.6</ele>
        <time>2022-04-17T13:35:42Z</time>
      </trkpt>
      <trkpt lat="50.05423" lon="1.90451">
        <ele>8.6</ele>
        <time>2022-04-17T13:35:43Z</time>
      </trkpt>
      <trkpt lat="50.05423" lon="1.90451">
        <ele>8.6</ele>
        <time>2022-04-17T13:35:44Z</time>
      </trkpt>
      <trkpt lat="50.05423" lon="1.90451">
        <ele>8.6</ele>
        <time>2022-04-17T13:35:45Z</time>
      </trkpt>
      <trkpt lat="50.05423" lon="1.90451">
        <ele>8.6</ele>
        <time>2022-04-17T13:35:46Z</time>
      </trkpt>
      <trkpt lat="50.05423" lon="1.90451">
        <ele>8.6</ele>
        <time>2022-04-17T13:35:47Z</time>
      </trkpt>
      <trkpt lat="50.05423" lon="1.90451">
        <ele>8.6</ele>
        <time>2022-04-17T13:35:48Z</time>
      </trkpt>
      <trkpt lat="50.05423" lon="1.90451">
        <ele>8.6</ele>
        <time>2022-04-17T13:35:49Z</time>
      </trkpt>
      <trkpt lat="50.05423" lon="1.90451">
        <ele>8.6</ele>
        <time>2022-04-17T13:35:50Z</time>
      </trkpt>
      <trkpt lat="50.05423" lon="1.90451">
        <ele>8.6</ele>
        <time>2022-04-17T13:35:51Z</time>
      </trkpt>
      <trkpt lat="50.05423" lon="1.90451">
        <ele>8.6</ele>
        <time>2022-04-17T13:35:52Z</time>
      </trkpt>
      <trkpt lat="50.05423" lon="1.90451">
        <ele>8.6</ele>
        <time>2022-04-17T13:35:53Z</time>
      </trkpt>
      <trkpt lat="50.05423" lon="1.90451">
        <ele>8.6</ele>
        <time>2022-04-17T13:35:54Z</time>
      </trkpt>
      <trkpt lat="50.05423" lon="1.90451">
        <ele>8.6</ele>
        <time>2022-04-17T13:35:55Z</time>
      </trkpt>
      <trkpt lat="50.05423" lon="1.90451">
        <ele>8.6</ele>
        <time>2022-04-17T13:35:56Z</time>
      </trkpt>
      <trkpt lat="50.05423" lon="1.90451">
        <ele>8.6</ele>
        <time>2022-04-17T13:35:57Z</time>
      </trkpt>
      <trkpt lat="50.05423" lon="1.90451">
        <ele>8.6</ele>
        <time>2022-04-17T13:35:58Z</time>
      </trkpt>
      <trkpt lat="50.05423" lon="1.90451">
        <ele>8.6</ele>
        <time>2022-04-17T13:35:59Z</time>
      </trkpt>
      <trkpt lat="50.05423" lon="1.90451">
        <ele>8.6</ele>
        <time>2022-04-17T13:36:00Z</time>
      </trkpt>
      <trkpt lat="50.05423" lon="1.90451">
        <ele>8.6</ele>
        <time>2022-04-17T13:36:01Z</time>
      </trkpt>
      <trkpt lat="50.05423" lon="1.90451">
        <ele>8.6</ele>
        <time>2022-04-17T13:36:02Z</time>
      </trkpt>
      <trkpt lat="50.05423" lon="1.90451">
        <ele>8.6</ele>
        <time>2022-04-17T13:36:03Z</time>
      </trkpt>
      <trkpt lat="50.05423" lon="1.90451">
        <ele>8.6</ele>
        <time>2022-04-17T13:36:05Z</time>
      </trkpt>
      <trkpt lat="50.05423" lon="1.90451">
        <ele>8.6</ele>
        <time>2022-04-17T13:36:06Z</time>
      </trkpt>
      <trkpt lat="50.05423" lon="1.90451">
        <ele>8.6</ele>
        <time>2022-04-17T13:36:07Z</time>
      </trkpt>
      <trkpt lat="50.05423" lon="1.90451">
        <ele>8.6</ele>
        <time>2022-04-17T13:36:08Z</time>
      </trkpt>
      <trkpt lat="50.05423" lon="1.90451">
        <ele>8.6</ele>
        <time>2022-04-17T13:36:09Z</time>
      </trkpt>
      <trkpt lat="50.05423" lon="1.90451">
        <ele>8.6</ele>
        <time>2022-04-17T13:36:10Z</time>
      </trkpt>
      <trkpt lat="50.05423" lon="1.90451">
        <ele>8.6</ele>
        <time>2022-04-17T13:36:11Z</time>
      </trkpt>
      <trkpt lat="50.05423" lon="1.90451">
        <ele>8.6</ele>
        <time>2022-04-17T13:36:12Z</time>
      </trkpt>
      <trkpt lat="50.05423" lon="1.90451">
        <ele>8.6</ele>
        <time>2022-04-17T13:36:13Z</time>
      </trkpt>
      <trkpt lat="50.05423" lon="1.90451">
        <ele>8.6</ele>
        <time>2022-04-17T13:36:15Z</time>
      </trkpt>
      <trkpt lat="50.05423" lon="1.90451">
        <ele>8.6</ele>
        <time>2022-04-17T13:36:16Z</time>
      </trkpt>
      <trkpt lat="50.05423" lon="1.90451">
        <ele>8.6</ele>
        <time>2022-04-17T13:36:17Z</time>
      </trkpt>
      <trkpt lat="50.05423" lon="1.90451">
        <ele>8.6</ele>
        <time>2022-04-17T13:36:18Z</time>
      </trkpt>
      <trkpt lat="50.05423" lon="1.90451">
        <ele>8.6</ele>
        <time>2022-04-17T13:36:19Z</time>
      </trkpt>
      <trkpt lat="50.05423" lon="1.90451">
        <ele>8.6</ele>
        <time>2022-04-17T13:36:20Z</time>
      </trkpt>
      <trkpt lat="50.05423" lon="1.90451">
        <ele>8.6</ele>
        <time>2022-04-17T13:36:21Z</time>
      </trkpt>
      <trkpt lat="50.05423" lon="1.90451">
        <ele>8.6</ele>
        <time>2022-04-17T13:36:22Z</time>
      </trkpt>
      <trkpt lat="50.05423" lon="1.90451">
        <ele>8.6</ele>
        <time>2022-04-17T13:36:24Z</time>
      </trkpt>
      <trkpt lat="50.05423" lon="1.90451">
        <ele>8.6</ele>
        <time>2022-04-17T13:36:25Z</time>
      </trkpt>
      <trkpt lat="50.05423" lon="1.90451">
        <ele>8.6</ele>
        <time>2022-04-17T13:36:26Z</time>
      </trkpt>
      <trkpt lat="50.05423" lon="1.90451">
        <ele>8.6</ele>
        <time>2022-04-17T13:36:27Z</time>
      </trkpt>
      <trkpt lat="50.05423" lon="1.90451">
        <ele>8.6</ele>
        <time>2022-04-17T13:36:28Z</time>
      </trkpt>
      <trkpt lat="50.05423" lon="1.90451">
        <ele>8.6</ele>
        <time>2022-04-17T13:36:29Z</time>
      </trkpt>
      <trkpt lat="50.05423" lon="1.90451">
        <ele>8.6</ele>
        <time>2022-04-17T13:36:30Z</time>
      </trkpt>
      <trkpt lat="50.05423" lon="1.90451">
        <ele>8.6</ele>
        <time>2022-04-17T13:36:31Z</time>
      </trkpt>
      <trkpt lat="50.05423" lon="1.90451">
        <ele>8.6</ele>
        <time>2022-04-17T13:36:32Z</time>
      </trkpt>
      <trkpt lat="50.05423" lon="1.90451">
        <ele>8.6</ele>
        <time>2022-04-17T13:36:33Z</time>
      </trkpt>
      <trkpt lat="50.05423" lon="1.90451">
        <ele>8.6</ele>
        <time>2022-04-17T13:36:34Z</time>
      </trkpt>
      <trkpt lat="50.05423" lon="1.90451">
        <ele>8.6</ele>
        <time>2022-04-17T13:36:35Z</time>
      </trkpt>
      <trkpt lat="50.05423" lon="1.90451">
        <ele>8.6</ele>
        <time>2022-04-17T13:36:36Z</time>
      </trkpt>
      <trkpt lat="50.05423" lon="1.90451">
        <ele>8.6</ele>
        <time>2022-04-17T13:36:37Z</time>
      </trkpt>
      <trkpt lat="50.05423" lon="1.90451">
        <ele>8.6</ele>
        <time>2022-04-17T13:36:38Z</time>
      </trkpt>
      <trkpt lat="50.05423" lon="1.90451">
        <ele>8.6</ele>
        <time>2022-04-17T13:36:39Z</time>
      </trkpt>
      <trkpt lat="50.05423" lon="1.90451">
        <ele>8.6</ele>
        <time>2022-04-17T13:36:40Z</time>
      </trkpt>
      <trkpt lat="50.05423" lon="1.90451">
        <ele>8.6</ele>
        <time>2022-04-17T13:36:41Z</time>
      </trkpt>
      <trkpt lat="50.05423" lon="1.90451">
        <ele>8.6</ele>
        <time>2022-04-17T13:36:42Z</time>
      </trkpt>
      <trkpt lat="50.05423" lon="1.90451">
        <ele>8.6</ele>
        <time>2022-04-17T13:36:43Z</time>
      </trkpt>
      <trkpt lat="50.05423" lon="1.90451">
        <ele>8.6</ele>
        <time>2022-04-17T13:36:44Z</time>
      </trkpt>
      <trkpt lat="50.05423" lon="1.90451">
        <ele>8.6</ele>
        <time>2022-04-17T13:36:46Z</time>
      </trkpt>
      <trkpt lat="50.05423" lon="1.90451">
        <ele>8.6</ele>
        <time>2022-04-17T13:36:48Z</time>
      </trkpt>
      <trkpt lat="50.05423" lon="1.90451">
        <ele>8.6</ele>
        <time>2022-04-17T13:36:49Z</time>
      </trkpt>
      <trkpt lat="50.05422" lon="1.90451">
        <ele>8.6</ele>
        <time>2022-04-17T13:36:50Z</time>
      </trkpt>
      <trkpt lat="50.05422" lon="1.90451">
        <ele>8.6</ele>
        <time>2022-04-17T13:36:51Z</time>
      </trkpt>
      <trkpt lat="50.05422" lon="1.90451">
        <ele>8.6</ele>
        <time>2022-04-17T13:36:52Z</time>
      </trkpt>
      <trkpt lat="50.05422" lon="1.90451">
        <ele>8.6</ele>
        <time>2022-04-17T13:36:53Z</time>
      </trkpt>
      <trkpt lat="50.05422" lon="1.90451">
        <ele>8.6</ele>
        <time>2022-04-17T13:36:54Z</time>
      </trkpt>
      <trkpt lat="50.05422" lon="1.90451">
        <ele>8.6</ele>
        <time>2022-04-17T13:36:55Z</time>
      </trkpt>
      <trkpt lat="50.05422" lon="1.90451">
        <ele>8.6</ele>
        <time>2022-04-17T13:36:56Z</time>
      </trkpt>
      <trkpt lat="50.05422" lon="1.90451">
        <ele>8.6</ele>
        <time>2022-04-17T13:36:57Z</time>
      </trkpt>
      <trkpt lat="50.05422" lon="1.90451">
        <ele>8.6</ele>
        <time>2022-04-17T13:36:58Z</time>
      </trkpt>
      <trkpt lat="50.05422" lon="1.90451">
        <ele>8.6</ele>
        <time>2022-04-17T13:36:59Z</time>
      </trkpt>
      <trkpt lat="50.05422" lon="1.90451">
        <ele>8.6</ele>
        <time>2022-04-17T13:37:00Z</time>
      </trkpt>
      <trkpt lat="50.05421" lon="1.90452">
        <ele>8.6</ele>
        <time>2022-04-17T13:37:01Z</time>
      </trkpt>
      <trkpt lat="50.0542" lon="1.90452">
        <ele>8.6</ele>
        <time>2022-04-17T13:37:02Z</time>
      </trkpt>
      <trkpt lat="50.0542" lon="1.90452">
        <ele>8.6</ele>
        <time>2022-04-17T13:37:03Z</time>
      </trkpt>
      <trkpt lat="50.0542" lon="1.90452">
        <ele>8.6</ele>
        <time>2022-04-17T13:37:04Z</time>
      </trkpt>
      <trkpt lat="50.0542" lon="1.90452">
        <ele>8.6</ele>
        <time>2022-04-17T13:37:05Z</time>
      </trkpt>
      <trkpt lat="50.0542" lon="1.90452">
        <ele>8.6</ele>
        <time>2022-04-17T13:37:06Z</time>
      </trkpt>
      <trkpt lat="50.0542" lon="1.90453">
        <ele>8.6</ele>
        <time>2022-04-17T13:37:07Z</time>
      </trkpt>
      <trkpt lat="50.0542" lon="1.90453">
        <ele>8.6</ele>
        <time>2022-04-17T13:37:08Z</time>
      </trkpt>
      <trkpt lat="50.0542" lon="1.90453">
        <ele>8.6</ele>
        <time>2022-04-17T13:37:09Z</time>
      </trkpt>
      <trkpt lat="50.0542" lon="1.90453">
        <ele>8.6</ele>
        <time>2022-04-17T13:37:10Z</time>
      </trkpt>
      <trkpt lat="50.0542" lon="1.90453">
        <ele>8.6</ele>
        <time>2022-04-17T13:37:11Z</time>
      </trkpt>
      <trkpt lat="50.0542" lon="1.90453">
        <ele>8.6</ele>
        <time>2022-04-17T13:37:12Z</time>
      </trkpt>
      <trkpt lat="50.0542" lon="1.90453">
        <ele>8.6</ele>
        <time>2022-04-17T13:37:13Z</time>
      </trkpt>
      <trkpt lat="50.0542" lon="1.90453">
        <ele>8.6</ele>
        <time>2022-04-17T13:37:14Z</time>
      </trkpt>
      <trkpt lat="50.0542" lon="1.90453">
        <ele>8.6</ele>
        <time>2022-04-17T13:37:15Z</time>
      </trkpt>
      <trkpt lat="50.0542" lon="1.90453">
        <ele>8.6</ele>
        <time>2022-04-17T13:37:16Z</time>
      </trkpt>
      <trkpt lat="50.0542" lon="1.90453">
        <ele>8.6</ele>
        <time>2022-04-17T13:37:17Z</time>
      </trkpt>
      <trkpt lat="50.0542" lon="1.90453">
        <ele>8.6</ele>
        <time>2022-04-17T13:37:19Z</time>
      </trkpt>
      <trkpt lat="50.0542" lon="1.90453">
        <ele>8.6</ele>
        <time>2022-04-17T13:37:20Z</time>
      </trkpt>
      <trkpt lat="50.0542" lon="1.90453">
        <ele>8.6</ele>
        <time>2022-04-17T13:37:21Z</time>
      </trkpt>
      <trkpt lat="50.0542" lon="1.90453">
        <ele>8.6</ele>
        <time>2022-04-17T13:37:22Z</time>
      </trkpt>
      <trkpt lat="50.0542" lon="1.90453">
        <ele>8.6</ele>
        <time>2022-04-17T13:37:23Z</time>
      </trkpt>
      <trkpt lat="50.0542" lon="1.90453">
        <ele>8.6</ele>
        <time>2022-04-17T13:37:24Z</time>
      </trkpt>
      <trkpt lat="50.0542" lon="1.90453">
        <ele>8.6</ele>
        <time>2022-04-17T13:37:25Z</time>
      </trkpt>
      <trkpt lat="50.0542" lon="1.90453">
        <ele>8.6</ele>
        <time>2022-04-17T13:37:26Z</time>
      </trkpt>
      <trkpt lat="50.0542" lon="1.90453">
        <ele>8.6</ele>
        <time>2022-04-17T13:37:27Z</time>
      </trkpt>
      <trkpt lat="50.0542" lon="1.90453">
        <ele>8.6</ele>
        <time>2022-04-17T13:37:28Z</time>
      </trkpt>
      <trkpt lat="50.0542" lon="1.90453">
        <ele>8.6</ele>
        <time>2022-04-17T13:37:29Z</time>
      </trkpt>
      <trkpt lat="50.0542" lon="1.90453">
        <ele>8.6</ele>
        <time>2022-04-17T13:37:30Z</time>
      </trkpt>
      <trkpt lat="50.0542" lon="1.90453">
        <ele>8.6</ele>
        <time>2022-04-17T13:37:31Z</time>
      </trkpt>
      <trkpt lat="50.0542" lon="1.90453">
        <ele>8.6</ele>
        <time>2022-04-17T13:37:32Z</time>
      </trkpt>
      <trkpt lat="50.0542" lon="1.90453">
        <ele>8.6</ele>
        <time>2022-04-17T13:37:33Z</time>
      </trkpt>
      <trkpt lat="50.0542" lon="1.90453">
        <ele>8.6</ele>
        <time>2022-04-17T13:37:34Z</time>
      </trkpt>
      <trkpt lat="50.0542" lon="1.90453">
        <ele>8.6</ele>
        <time>2022-04-17T13:37:35Z</time>
      </trkpt>
      <trkpt lat="50.0542" lon="1.90453">
        <ele>8.6</ele>
        <time>2022-04-17T13:37:36Z</time>
      </trkpt>
      <trkpt lat="50.0542" lon="1.90453">
        <ele>8.6</ele>
        <time>2022-04-17T13:37:37Z</time>
      </trkpt>
      <trkpt lat="50.0542" lon="1.90453">
        <ele>8.6</ele>
        <time>2022-04-17T13:37:38Z</time>
      </trkpt>
      <trkpt lat="50.0542" lon="1.90453">
        <ele>8.6</ele>
        <time>2022-04-17T13:37:39Z</time>
      </trkpt>
      <trkpt lat="50.0542" lon="1.90453">
        <ele>8.6</ele>
        <time>2022-04-17T13:37:40Z</time>
      </trkpt>
      <trkpt lat="50.0542" lon="1.90453">
        <ele>8.6</ele>
        <time>2022-04-17T13:37:41Z</time>
      </trkpt>
      <trkpt lat="50.0542" lon="1.90453">
        <ele>8.6</ele>
        <time>2022-04-17T13:37:43Z</time>
      </trkpt>
      <trkpt lat="50.0542" lon="1.90453">
        <ele>8.6</ele>
        <time>2022-04-17T13:37:44Z</time>
      </trkpt>
      <trkpt lat="50.0542" lon="1.90453">
        <ele>8.6</ele>
        <time>2022-04-17T13:37:45Z</time>
      </trkpt>
      <trkpt lat="50.0542" lon="1.90453">
        <ele>8.6</ele>
        <time>2022-04-17T13:37:46Z</time>
      </trkpt>
      <trkpt lat="50.0542" lon="1.90453">
        <ele>8.6</ele>
        <time>2022-04-17T13:37:47Z</time>
      </trkpt>
      <trkpt lat="50.0542" lon="1.90453">
        <ele>8.6</ele>
        <time>2022-04-17T13:37:48Z</time>
      </trkpt>
      <trkpt lat="50.0542" lon="1.90453">
        <ele>8.6</ele>
        <time>2022-04-17T13:37:49Z</time>
      </trkpt>
      <trkpt lat="50.0542" lon="1.90453">
        <ele>8.6</ele>
        <time>2022-04-17T13:37:50Z</time>
      </trkpt>
      <trkpt lat="50.0542" lon="1.90453">
        <ele>8.6</ele>
        <time>2022-04-17T13:37:51Z</time>
      </trkpt>
      <trkpt lat="50.0542" lon="1.90453">
        <ele>8.6</ele>
        <time>2022-04-17T13:37:52Z</time>
      </trkpt>
      <trkpt lat="50.0542" lon="1.90453">
        <ele>8.6</ele>
        <time>2022-04-17T13:37:53Z</time>
      </trkpt>
      <trkpt lat="50.0542" lon="1.90453">
        <ele>8.6</ele>
        <time>2022-04-17T13:37:54Z</time>
      </trkpt>
      <trkpt lat="50.0542" lon="1.90453">
        <ele>8.6</ele>
        <time>2022-04-17T13:37:55Z</time>
      </trkpt>
      <trkpt lat="50.0542" lon="1.90453">
        <ele>8.6</ele>
        <time>2022-04-17T13:37:56Z</time>
      </trkpt>
      <trkpt lat="50.0542" lon="1.90453">
        <ele>8.6</ele>
        <time>2022-04-17T13:37:57Z</time>
      </trkpt>
      <trkpt lat="50.0542" lon="1.90453">
        <ele>8.6</ele>
        <time>2022-04-17T13:37:58Z</time>
      </trkpt>
      <trkpt lat="50.0542" lon="1.90453">
        <ele>8.6</ele>
        <time>2022-04-17T13:38:00Z</time>
      </trkpt>
      <trkpt lat="50.0542" lon="1.90453">
        <ele>8.6</ele>
        <time>2022-04-17T13:38:01Z</time>
      </trkpt>
      <trkpt lat="50.0542" lon="1.90453">
        <ele>8.6</ele>
        <time>2022-04-17T13:38:02Z</time>
      </trkpt>
      <trkpt lat="50.0542" lon="1.90453">
        <ele>8.6</ele>
        <time>2022-04-17T13:38:03Z</time>
      </trkpt>
      <trkpt lat="50.0542" lon="1.90453">
        <ele>8.6</ele>
        <time>2022-04-17T13:38:04Z</time>
      </trkpt>
      <trkpt lat="50.0542" lon="1.90453">
        <ele>8.6</ele>
        <time>2022-04-17T13:38:05Z</time>
      </trkpt>
      <trkpt lat="50.0542" lon="1.90453">
        <ele>8.6</ele>
        <time>2022-04-17T13:38:06Z</time>
      </trkpt>
      <trkpt lat="50.0542" lon="1.90453">
        <ele>8.6</ele>
        <time>2022-04-17T13:38:07Z</time>
      </trkpt>
      <trkpt lat="50.0542" lon="1.90453">
        <ele>8.6</ele>
        <time>2022-04-17T13:38:08Z</time>
      </trkpt>
      <trkpt lat="50.0542" lon="1.90453">
        <ele>8.6</ele>
        <time>2022-04-17T13:38:09Z</time>
      </trkpt>
      <trkpt lat="50.0542" lon="1.90453">
        <ele>8.6</ele>
        <time>2022-04-17T13:38:11Z</time>
      </trkpt>
      <trkpt lat="50.0542" lon="1.90453">
        <ele>8.6</ele>
        <time>2022-04-17T13:38:12Z</time>
      </trkpt>
      <trkpt lat="50.0542" lon="1.90453">
        <ele>8.6</ele>
        <time>2022-04-17T13:38:13Z</time>
      </trkpt>
      <trkpt lat="50.0542" lon="1.90453">
        <ele>8.6</ele>
        <time>2022-04-17T13:38:14Z</time>
      </trkpt>
      <trkpt lat="50.0542" lon="1.90453">
        <ele>8.6</ele>
        <time>2022-04-17T13:38:15Z</time>
      </trkpt>
      <trkpt lat="50.0542" lon="1.90453">
        <ele>8.6</ele>
        <time>2022-04-17T13:38:16Z</time>
      </trkpt>
      <trkpt lat="50.0542" lon="1.90453">
        <ele>8.6</ele>
        <time>2022-04-17T13:38:17Z</time>
      </trkpt>
      <trkpt lat="50.0542" lon="1.90453">
        <ele>8.6</ele>
        <time>2022-04-17T13:38:18Z</time>
      </trkpt>
      <trkpt lat="50.0542" lon="1.90453">
        <ele>8.6</ele>
        <time>2022-04-17T13:38:19Z</time>
      </trkpt>
      <trkpt lat="50.0542" lon="1.90453">
        <ele>8.6</ele>
        <time>2022-04-17T13:38:20Z</time>
      </trkpt>
      <trkpt lat="50.0542" lon="1.90453">
        <ele>8.6</ele>
        <time>2022-04-17T13:38:21Z</time>
      </trkpt>
      <trkpt lat="50.0542" lon="1.90453">
        <ele>8.6</ele>
        <time>2022-04-17T13:38:22Z</time>
      </trkpt>
      <trkpt lat="50.0542" lon="1.90453">
        <ele>8.6</ele>
        <time>2022-04-17T13:38:23Z</time>
      </trkpt>
      <trkpt lat="50.0542" lon="1.90453">
        <ele>8.6</ele>
        <time>2022-04-17T13:38:25Z</time>
      </trkpt>
      <trkpt lat="50.0542" lon="1.90453">
        <ele>8.6</ele>
        <time>2022-04-17T13:38:26Z</time>
      </trkpt>
      <trkpt lat="50.0542" lon="1.90453">
        <ele>8.6</ele>
        <time>2022-04-17T13:38:27Z</time>
      </trkpt>
      <trkpt lat="50.0542" lon="1.90453">
        <ele>8.6</ele>
        <time>2022-04-17T13:38:28Z</time>
      </trkpt>
      <trkpt lat="50.0542" lon="1.90453">
        <ele>8.6</ele>
        <time>2022-04-17T13:38:29Z</time>
      </trkpt>
      <trkpt lat="50.0542" lon="1.90453">
        <ele>8.6</ele>
        <time>2022-04-17T13:38:30Z</time>
      </trkpt>
      <trkpt lat="50.0542" lon="1.90453">
        <ele>8.6</ele>
        <time>2022-04-17T13:38:31Z</time>
      </trkpt>
      <trkpt lat="50.0542" lon="1.90453">
        <ele>8.6</ele>
        <time>2022-04-17T13:38:32Z</time>
      </trkpt>
      <trkpt lat="50.0542" lon="1.90453">
        <ele>8.6</ele>
        <time>2022-04-17T13:38:33Z</time>
      </trkpt>
      <trkpt lat="50.0542" lon="1.90453">
        <ele>8.6</ele>
        <time>2022-04-17T13:38:34Z</time>
      </trkpt>
      <trkpt lat="50.0542" lon="1.90453">
        <ele>8.6</ele>
        <time>2022-04-17T13:38:35Z</time>
      </trkpt>
      <trkpt lat="50.0542" lon="1.90453">
        <ele>8.6</ele>
        <time>2022-04-17T13:38:36Z</time>
      </trkpt>
      <trkpt lat="50.0542" lon="1.90453">
        <ele>8.6</ele>
        <time>2022-04-17T13:38:37Z</time>
      </trkpt>
      <trkpt lat="50.0542" lon="1.90453">
        <ele>8.6</ele>
        <time>2022-04-17T13:38:38Z</time>
      </trkpt>
      <trkpt lat="50.0542" lon="1.90453">
        <ele>8.6</ele>
        <time>2022-04-17T13:38:40Z</time>
      </trkpt>
      <trkpt lat="50.0542" lon="1.90453">
        <ele>8.6</ele>
        <time>2022-04-17T13:38:41Z</time>
      </trkpt>
      <trkpt lat="50.0542" lon="1.90453">
        <ele>8.6</ele>
        <time>2022-04-17T13:38:42Z</time>
      </trkpt>
      <trkpt lat="50.0542" lon="1.90453">
        <ele>8.6</ele>
        <time>2022-04-17T13:38:43Z</time>
      </trkpt>
      <trkpt lat="50.0542" lon="1.90453">
        <ele>8.6</ele>
        <time>2022-04-17T13:38:44Z</time>
      </trkpt>
      <trkpt lat="50.0542" lon="1.90453">
        <ele>8.6</ele>
        <time>2022-04-17T13:38:45Z</time>
      </trkpt>
      <trkpt lat="50.0542" lon="1.90453">
        <ele>8.6</ele>
        <time>2022-04-17T13:38:46Z</time>
      </trkpt>
      <trkpt lat="50.0542" lon="1.90453">
        <ele>8.6</ele>
        <time>2022-04-17T13:38:47Z</time>
      </trkpt>
      <trkpt lat="50.0542" lon="1.90453">
        <ele>8.6</ele>
        <time>2022-04-17T13:38:48Z</time>
      </trkpt>
      <trkpt lat="50.0542" lon="1.90453">
        <ele>8.6</ele>
        <time>2022-04-17T13:38:49Z</time>
      </trkpt>
      <trkpt lat="50.0542" lon="1.90453">
        <ele>8.6</ele>
        <time>2022-04-17T13:38:50Z</time>
      </trkpt>
      <trkpt lat="50.0542" lon="1.90453">
        <ele>8.6</ele>
        <time>2022-04-17T13:38:51Z</time>
      </trkpt>
      <trkpt lat="50.0542" lon="1.90453">
        <ele>8.6</ele>
        <time>2022-04-17T13:38:52Z</time>
      </trkpt>
      <trkpt lat="50.0542" lon="1.90453">
        <ele>8.6</ele>
        <time>2022-04-17T13:38:53Z</time>
      </trkpt>
      <trkpt lat="50.0542" lon="1.90453">
        <ele>8.6</ele>
        <time>2022-04-17T13:38:54Z</time>
      </trkpt>
      <trkpt lat="50.0542" lon="1.90453">
        <ele>8.6</ele>
        <time>2022-04-17T13:38:55Z</time>
      </trkpt>
      <trkpt lat="50.0542" lon="1.90453">
        <ele>8.6</ele>
        <time>2022-04-17T13:38:56Z</time>
      </trkpt>
      <trkpt lat="50.0542" lon="1.90453">
        <ele>8.6</ele>
        <time>2022-04-17T13:38:57Z</time>
      </trkpt>
      <trkpt lat="50.0542" lon="1.90453">
        <ele>8.6</ele>
        <time>2022-04-17T13:38:58Z</time>
      </trkpt>
      <trkpt lat="50.0542" lon="1.90453">
        <ele>8.6</ele>
        <time>2022-04-17T13:38:59Z</time>
      </trkpt>
      <trkpt lat="50.0542" lon="1.90453">
        <ele>8.6</ele>
        <time>2022-04-17T13:39:00Z</time>
      </trkpt>
      <trkpt lat="50.0542" lon="1.90453">
        <ele>8.6</ele>
        <time>2022-04-17T13:39:01Z</time>
      </trkpt>
      <trkpt lat="50.0542" lon="1.90453">
        <ele>8.6</ele>
        <time>2022-04-17T13:39:02Z</time>
      </trkpt>
      <trkpt lat="50.0542" lon="1.90453">
        <ele>8.6</ele>
        <time>2022-04-17T13:39:03Z</time>
      </trkpt>
      <trkpt lat="50.0542" lon="1.90453">
        <ele>8.6</ele>
        <time>2022-04-17T13:39:05Z</time>
      </trkpt>
      <trkpt lat="50.0542" lon="1.90453">
        <ele>8.6</ele>
        <time>2022-04-17T13:39:06Z</time>
      </trkpt>
      <trkpt lat="50.0542" lon="1.90453">
        <ele>8.6</ele>
        <time>2022-04-17T13:39:07Z</time>
      </trkpt>
      <trkpt lat="50.0542" lon="1.90453">
        <ele>8.6</ele>
        <time>2022-04-17T13:39:08Z</time>
      </trkpt>
      <trkpt lat="50.0542" lon="1.90453">
        <ele>8.6</ele>
        <time>2022-04-17T13:39:10Z</time>
      </trkpt>
      <trkpt lat="50.0542" lon="1.90453">
        <ele>8.6</ele>
        <time>2022-04-17T13:39:11Z</time>
      </trkpt>
      <trkpt lat="50.0542" lon="1.90453">
        <ele>8.6</ele>
        <time>2022-04-17T13:39:12Z</time>
      </trkpt>
      <trkpt lat="50.0542" lon="1.90453">
        <ele>8.6</ele>
        <time>2022-04-17T13:39:13Z</time>
      </trkpt>
      <trkpt lat="50.0542" lon="1.90453">
        <ele>8.6</ele>
        <time>2022-04-17T13:39:14Z</time>
      </trkpt>
      <trkpt lat="50.0542" lon="1.90453">
        <ele>8.6</ele>
        <time>2022-04-17T13:39:15Z</time>
      </trkpt>
      <trkpt lat="50.0542" lon="1.90453">
        <ele>8.6</ele>
        <time>2022-04-17T13:39:16Z</time>
      </trkpt>
      <trkpt lat="50.0542" lon="1.90453">
        <ele>8.6</ele>
        <time>2022-04-17T13:39:17Z</time>
      </trkpt>
      <trkpt lat="50.0542" lon="1.90453">
        <ele>8.6</ele>
        <time>2022-04-17T13:39:18Z</time>
      </trkpt>
      <trkpt lat="50.0542" lon="1.90453">
        <ele>8.6</ele>
        <time>2022-04-17T13:39:19Z</time>
      </trkpt>
      <trkpt lat="50.0542" lon="1.90453">
        <ele>8.6</ele>
        <time>2022-04-17T13:39:20Z</time>
      </trkpt>
      <trkpt lat="50.0542" lon="1.90453">
        <ele>8.6</ele>
        <time>2022-04-17T13:39:21Z</time>
      </trkpt>
      <trkpt lat="50.0542" lon="1.90453">
        <ele>8.6</ele>
        <time>2022-04-17T13:39:22Z</time>
      </trkpt>
      <trkpt lat="50.0542" lon="1.90453">
        <ele>8.6</ele>
        <time>2022-04-17T13:39:23Z</time>
      </trkpt>
      <trkpt lat="50.0542" lon="1.90453">
        <ele>8.6</ele>
        <time>2022-04-17T13:39:24Z</time>
      </trkpt>
      <trkpt lat="50.0542" lon="1.90453">
        <ele>8.6</ele>
        <time>2022-04-17T13:39:25Z</time>
      </trkpt>
      <trkpt lat="50.0542" lon="1.90453">
        <ele>8.6</ele>
        <time>2022-04-17T13:39:26Z</time>
      </trkpt>
      <trkpt lat="50.0542" lon="1.90453">
        <ele>8.6</ele>
        <time>2022-04-17T13:39:27Z</time>
      </trkpt>
      <trkpt lat="50.0542" lon="1.90453">
        <ele>8.6</ele>
        <time>2022-04-17T13:39:28Z</time>
      </trkpt>
      <trkpt lat="50.0542" lon="1.90453">
        <ele>8.6</ele>
        <time>2022-04-17T13:39:29Z</time>
      </trkpt>
      <trkpt lat="50.0542" lon="1.90453">
        <ele>8.6</ele>
        <time>2022-04-17T13:39:30Z</time>
      </trkpt>
      <trkpt lat="50.0542" lon="1.90453">
        <ele>8.6</ele>
        <time>2022-04-17T13:39:31Z</time>
      </trkpt>
      <trkpt lat="50.0542" lon="1.90453">
        <ele>8.6</ele>
        <time>2022-04-17T13:39:32Z</time>
      </trkpt>
      <trkpt lat="50.0542" lon="1.90453">
        <ele>8.6</ele>
        <time>2022-04-17T13:39:33Z</time>
      </trkpt>
      <trkpt lat="50.0542" lon="1.90453">
        <ele>8.6</ele>
        <time>2022-04-17T13:39:34Z</time>
      </trkpt>
      <trkpt lat="50.0542" lon="1.90453">
        <ele>8.6</ele>
        <time>2022-04-17T13:39:35Z</time>
      </trkpt>
      <trkpt lat="50.0542" lon="1.90453">
        <ele>8.6</ele>
        <time>2022-04-17T13:39:36Z</time>
      </trkpt>
      <trkpt lat="50.0542" lon="1.90453">
        <ele>8.6</ele>
        <time>2022-04-17T13:39:37Z</time>
      </trkpt>
      <trkpt lat="50.0542" lon="1.90453">
        <ele>8.6</ele>
        <time>2022-04-17T13:39:38Z</time>
      </trkpt>
      <trkpt lat="50.0542" lon="1.90453">
        <ele>8.6</ele>
        <time>2022-04-17T13:39:39Z</time>
      </trkpt>
      <trkpt lat="50.0542" lon="1.90453">
        <ele>8.6</ele>
        <time>2022-04-17T13:39:40Z</time>
      </trkpt>
      <trkpt lat="50.0542" lon="1.90453">
        <ele>8.6</ele>
        <time>2022-04-17T13:39:41Z</time>
      </trkpt>
      <trkpt lat="50.0542" lon="1.90453">
        <ele>8.6</ele>
        <time>2022-04-17T13:39:42Z</time>
      </trkpt>
      <trkpt lat="50.0542" lon="1.90453">
        <ele>8.6</ele>
        <time>2022-04-17T13:39:43Z</time>
      </trkpt>
      <trkpt lat="50.0542" lon="1.90453">
        <ele>8.6</ele>
        <time>2022-04-17T13:39:44Z</time>
      </trkpt>
      <trkpt lat="50.0542" lon="1.90453">
        <ele>8.6</ele>
        <time>2022-04-17T13:39:45Z</time>
      </trkpt>
      <trkpt lat="50.0542" lon="1.90453">
        <ele>8.6</ele>
        <time>2022-04-17T13:39:46Z</time>
      </trkpt>
      <trkpt lat="50.0542" lon="1.90453">
        <ele>8.6</ele>
        <time>2022-04-17T13:39:47Z</time>
      </trkpt>
      <trkpt lat="50.0542" lon="1.90453">
        <ele>8.6</ele>
        <time>2022-04-17T13:39:48Z</time>
      </trkpt>
      <trkpt lat="50.0542" lon="1.90453">
        <ele>8.6</ele>
        <time>2022-04-17T13:39:49Z</time>
      </trkpt>
      <trkpt lat="50.0542" lon="1.90453">
        <ele>8.6</ele>
        <time>2022-04-17T13:39:50Z</time>
      </trkpt>
      <trkpt lat="50.0542" lon="1.90453">
        <ele>8.6</ele>
        <time>2022-04-17T13:39:51Z</time>
      </trkpt>
      <trkpt lat="50.0542" lon="1.90453">
        <ele>8.6</ele>
        <time>2022-04-17T13:39:52Z</time>
      </trkpt>
      <trkpt lat="50.0542" lon="1.90453">
        <ele>8.6</ele>
        <time>2022-04-17T13:39:53Z</time>
      </trkpt>
      <trkpt lat="50.0542" lon="1.90453">
        <ele>8.6</ele>
        <time>2022-04-17T13:39:54Z</time>
      </trkpt>
      <trkpt lat="50.0542" lon="1.90453">
        <ele>8.6</ele>
        <time>2022-04-17T13:39:55Z</time>
      </trkpt>
      <trkpt lat="50.0542" lon="1.90453">
        <ele>8.6</ele>
        <time>2022-04-17T13:39:56Z</time>
      </trkpt>
      <trkpt lat="50.0542" lon="1.90453">
        <ele>8.6</ele>
        <time>2022-04-17T13:39:57Z</time>
      </trkpt>
      <trkpt lat="50.0542" lon="1.90453">
        <ele>8.6</ele>
        <time>2022-04-17T13:39:58Z</time>
      </trkpt>
      <trkpt lat="50.0542" lon="1.90453">
        <ele>8.6</ele>
        <time>2022-04-17T13:39:59Z</time>
      </trkpt>
      <trkpt lat="50.0542" lon="1.90453">
        <ele>8.6</ele>
        <time>2022-04-17T13:40:00Z</time>
      </trkpt>
      <trkpt lat="50.0542" lon="1.90453">
        <ele>8.6</ele>
        <time>2022-04-17T13:40:01Z</time>
      </trkpt>
      <trkpt lat="50.0542" lon="1.90453">
        <ele>8.6</ele>
        <time>2022-04-17T13:40:02Z</time>
      </trkpt>
      <trkpt lat="50.0542" lon="1.90453">
        <ele>8.6</ele>
        <time>2022-04-17T13:40:03Z</time>
      </trkpt>
      <trkpt lat="50.0542" lon="1.90453">
        <ele>8.6</ele>
        <time>2022-04-17T13:40:04Z</time>
      </trkpt>
      <trkpt lat="50.0542" lon="1.90453">
        <ele>8.6</ele>
        <time>2022-04-17T13:40:05Z</time>
      </trkpt>
      <trkpt lat="50.0542" lon="1.90453">
        <ele>8.6</ele>
        <time>2022-04-17T13:40:06Z</time>
      </trkpt>
      <trkpt lat="50.0542" lon="1.90453">
        <ele>8.6</ele>
        <time>2022-04-17T13:40:07Z</time>
      </trkpt>
      <trkpt lat="50.0542" lon="1.90453">
        <ele>8.6</ele>
        <time>2022-04-17T13:40:08Z</time>
      </trkpt>
      <trkpt lat="50.0542" lon="1.90453">
        <ele>8.6</ele>
        <time>2022-04-17T13:40:09Z</time>
      </trkpt>
      <trkpt lat="50.0542" lon="1.90453">
        <ele>8.6</ele>
        <time>2022-04-17T13:40:10Z</time>
      </trkpt>
      <trkpt lat="50.0542" lon="1.90453">
        <ele>8.6</ele>
        <time>2022-04-17T13:40:11Z</time>
      </trkpt>
      <trkpt lat="50.0542" lon="1.90453">
        <ele>8.6</ele>
        <time>2022-04-17T13:40:12Z</time>
      </trkpt>
      <trkpt lat="50.0542" lon="1.90453">
        <ele>8.6</ele>
        <time>2022-04-17T13:40:13Z</time>
      </trkpt>
      <trkpt lat="50.0542" lon="1.90453">
        <ele>8.6</ele>
        <time>2022-04-17T13:40:14Z</time>
      </trkpt>
      <trkpt lat="50.0542" lon="1.90453">
        <ele>8.6</ele>
        <time>2022-04-17T13:40:15Z</time>
      </trkpt>
      <trkpt lat="50.0542" lon="1.90453">
        <ele>8.6</ele>
        <time>2022-04-17T13:40:16Z</time>
      </trkpt>
      <trkpt lat="50.0542" lon="1.90453">
        <ele>8.6</ele>
        <time>2022-04-17T13:40:17Z</time>
      </trkpt>
      <trkpt lat="50.0542" lon="1.90453">
        <ele>8.6</ele>
        <time>2022-04-17T13:40:18Z</time>
      </trkpt>
      <trkpt lat="50.0542" lon="1.90453">
        <ele>8.6</ele>
        <time>2022-04-17T13:40:19Z</time>
      </trkpt>
      <trkpt lat="50.0542" lon="1.90453">
        <ele>8.6</ele>
        <time>2022-04-17T13:40:20Z</time>
      </trkpt>
      <trkpt lat="50.0542" lon="1.90453">
        <ele>8.6</ele>
        <time>2022-04-17T13:40:21Z</time>
      </trkpt>
      <trkpt lat="50.0542" lon="1.90453">
        <ele>8.6</ele>
        <time>2022-04-17T13:40:22Z</time>
      </trkpt>
      <trkpt lat="50.0542" lon="1.90453">
        <ele>8.6</ele>
        <time>2022-04-17T13:40:23Z</time>
      </trkpt>
      <trkpt lat="50.0542" lon="1.90453">
        <ele>8.6</ele>
        <time>2022-04-17T13:40:24Z</time>
      </trkpt>
      <trkpt lat="50.0542" lon="1.90453">
        <ele>8.6</ele>
        <time>2022-04-17T13:40:25Z</time>
      </trkpt>
      <trkpt lat="50.0542" lon="1.90453">
        <ele>8.6</ele>
        <time>2022-04-17T13:40:26Z</time>
      </trkpt>
      <trkpt lat="50.0542" lon="1.90453">
        <ele>8.6</ele>
        <time>2022-04-17T13:40:27Z</time>
      </trkpt>
      <trkpt lat="50.0542" lon="1.90453">
        <ele>8.6</ele>
        <time>2022-04-17T13:40:28Z</time>
      </trkpt>
      <trkpt lat="50.0542" lon="1.90453">
        <ele>8.6</ele>
        <time>2022-04-17T13:40:29Z</time>
      </trkpt>
      <trkpt lat="50.0542" lon="1.90453">
        <ele>8.6</ele>
        <time>2022-04-17T13:40:30Z</time>
      </trkpt>
      <trkpt lat="50.0542" lon="1.90453">
        <ele>8.6</ele>
        <time>2022-04-17T13:40:31Z</time>
      </trkpt>
      <trkpt lat="50.0542" lon="1.90453">
        <ele>8.6</ele>
        <time>2022-04-17T13:40:32Z</time>
      </trkpt>
      <trkpt lat="50.0542" lon="1.90453">
        <ele>8.6</ele>
        <time>2022-04-17T13:40:33Z</time>
      </trkpt>
      <trkpt lat="50.0542" lon="1.90453">
        <ele>8.6</ele>
        <time>2022-04-17T13:40:34Z</time>
      </trkpt>
      <trkpt lat="50.0542" lon="1.90453">
        <ele>8.6</ele>
        <time>2022-04-17T13:40:35Z</time>
      </trkpt>
      <trkpt lat="50.0542" lon="1.90453">
        <ele>8.6</ele>
        <time>2022-04-17T13:40:36Z</time>
      </trkpt>
      <trkpt lat="50.0542" lon="1.90453">
        <ele>8.6</ele>
        <time>2022-04-17T13:40:37Z</time>
      </trkpt>
      <trkpt lat="50.0542" lon="1.90453">
        <ele>8.6</ele>
        <time>2022-04-17T13:40:38Z</time>
      </trkpt>
      <trkpt lat="50.0542" lon="1.90453">
        <ele>8.6</ele>
        <time>2022-04-17T13:40:39Z</time>
      </trkpt>
      <trkpt lat="50.0542" lon="1.90453">
        <ele>8.6</ele>
        <time>2022-04-17T13:40:40Z</time>
      </trkpt>
      <trkpt lat="50.0542" lon="1.90453">
        <ele>8.6</ele>
        <time>2022-04-17T13:40:41Z</time>
      </trkpt>
      <trkpt lat="50.0542" lon="1.90453">
        <ele>8.6</ele>
        <time>2022-04-17T13:40:42Z</time>
      </trkpt>
      <trkpt lat="50.0542" lon="1.90453">
        <ele>8.6</ele>
        <time>2022-04-17T13:40:43Z</time>
      </trkpt>
      <trkpt lat="50.0542" lon="1.90453">
        <ele>8.6</ele>
        <time>2022-04-17T13:40:44Z</time>
      </trkpt>
      <trkpt lat="50.0542" lon="1.90453">
        <ele>8.6</ele>
        <time>2022-04-17T13:40:45Z</time>
      </trkpt>
      <trkpt lat="50.0542" lon="1.90453">
        <ele>8.6</ele>
        <time>2022-04-17T13:40:46Z</time>
      </trkpt>
      <trkpt lat="50.0542" lon="1.90453">
        <ele>8.6</ele>
        <time>2022-04-17T13:40:48Z</time>
      </trkpt>
      <trkpt lat="50.0542" lon="1.90453">
        <ele>8.6</ele>
        <time>2022-04-17T13:40:49Z</time>
      </trkpt>
      <trkpt lat="50.0542" lon="1.90453">
        <ele>8.6</ele>
        <time>2022-04-17T13:40:50Z</time>
      </trkpt>
      <trkpt lat="50.0542" lon="1.90452">
        <ele>8.6</ele>
        <time>2022-04-17T13:40:51Z</time>
      </trkpt>
      <trkpt lat="50.0542" lon="1.90452">
        <ele>8.6</ele>
        <time>2022-04-17T13:40:52Z</time>
      </trkpt>
      <trkpt lat="50.0542" lon="1.90452">
        <ele>8.6</ele>
        <time>2022-04-17T13:40:53Z</time>
      </trkpt>
      <trkpt lat="50.0542" lon="1.90452">
        <ele>8.6</ele>
        <time>2022-04-17T13:40:54Z</time>
      </trkpt>
      <trkpt lat="50.0542" lon="1.90452">
        <ele>8.6</ele>
        <time>2022-04-17T13:40:55Z</time>
      </trkpt>
      <trkpt lat="50.0542" lon="1.90452">
        <ele>8.6</ele>
        <time>2022-04-17T13:40:56Z</time>
      </trkpt>
      <trkpt lat="50.0542" lon="1.90453">
        <ele>8.6</ele>
        <time>2022-04-17T13:40:57Z</time>
      </trkpt>
      <trkpt lat="50.0542" lon="1.90453">
        <ele>8.6</ele>
        <time>2022-04-17T13:40:59Z</time>
      </trkpt>
      <trkpt lat="50.0542" lon="1.90453">
        <ele>8.6</ele>
        <time>2022-04-17T13:41:00Z</time>
      </trkpt>
      <trkpt lat="50.0542" lon="1.90453">
        <ele>8.6</ele>
        <time>2022-04-17T13:41:01Z</time>
      </trkpt>
      <trkpt lat="50.0542" lon="1.90453">
        <ele>8.6</ele>
        <time>2022-04-17T13:41:02Z</time>
      </trkpt>
      <trkpt lat="50.0542" lon="1.90453">
        <ele>8.6</ele>
        <time>2022-04-17T13:41:03Z</time>
      </trkpt>
      <trkpt lat="50.0542" lon="1.90453">
        <ele>8.6</ele>
        <time>2022-04-17T13:41:04Z</time>
      </trkpt>
      <trkpt lat="50.0542" lon="1.90453">
        <ele>8.6</ele>
        <time>2022-04-17T13:41:05Z</time>
      </trkpt>
      <trkpt lat="50.0542" lon="1.90453">
        <ele>8.6</ele>
        <time>2022-04-17T13:41:06Z</time>
      </trkpt>
      <trkpt lat="50.0542" lon="1.90453">
        <ele>8.6</ele>
        <time>2022-04-17T13:41:07Z</time>
      </trkpt>
      <trkpt lat="50.0542" lon="1.90453">
        <ele>8.6</ele>
        <time>2022-04-17T13:41:08Z</time>
      </trkpt>
      <trkpt lat="50.0542" lon="1.90453">
        <ele>8.6</ele>
        <time>2022-04-17T13:41:10Z</time>
      </trkpt>
      <trkpt lat="50.0542" lon="1.90453">
        <ele>8.6</ele>
        <time>2022-04-17T13:41:11Z</time>
      </trkpt>
      <trkpt lat="50.05421" lon="1.90453">
        <ele>8.6</ele>
        <time>2022-04-17T13:41:12Z</time>
      </trkpt>
      <trkpt lat="50.05421" lon="1.90454">
        <ele>8.6</ele>
        <time>2022-04-17T13:41:13Z</time>
      </trkpt>
      <trkpt lat="50.05422" lon="1.90454">
        <ele>8.6</ele>
        <time>2022-04-17T13:41:15Z</time>
      </trkpt>
      <trkpt lat="50.05422" lon="1.90454">
        <ele>8.6</ele>
        <time>2022-04-17T13:41:16Z</time>
      </trkpt>
      <trkpt lat="50.05424" lon="1.90454">
        <ele>8.6</ele>
        <time>2022-04-17T13:41:17Z</time>
      </trkpt>
      <trkpt lat="50.05425" lon="1.90454">
        <ele>8.6</ele>
        <time>2022-04-17T13:41:18Z</time>
      </trkpt>
      <trkpt lat="50.05426" lon="1.90453">
        <ele>8.6</ele>
        <time>2022-04-17T13:41:19Z</time>
      </trkpt>
      <trkpt lat="50.05427" lon="1.90452">
        <ele>8.6</ele>
        <time>2022-04-17T13:41:20Z</time>
      </trkpt>
      <trkpt lat="50.0543" lon="1.90448">
        <ele>8.6</ele>
        <time>2022-04-17T13:41:22Z</time>
      </trkpt>
      <trkpt lat="50.05431" lon="1.90448">
        <ele>8.6</ele>
        <time>2022-04-17T13:41:23Z</time>
      </trkpt>
      <trkpt lat="50.05431" lon="1.90446">
        <ele>8.6</ele>
        <time>2022-04-17T13:41:24Z</time>
      </trkpt>
      <trkpt lat="50.05431" lon="1.90445">
        <ele>8.6</ele>
        <time>2022-04-17T13:41:25Z</time>
      </trkpt>
      <trkpt lat="50.05432" lon="1.90443">
        <ele>8.6</ele>
        <time>2022-04-17T13:41:27Z</time>
      </trkpt>
      <trkpt lat="50.05434" lon="1.90438">
        <ele>8.7</ele>
        <time>2022-04-17T13:41:28Z</time>
      </trkpt>
      <trkpt lat="50.05434" lon="1.90437">
        <ele>8.7</ele>
        <time>2022-04-17T13:41:29Z</time>
      </trkpt>
      <trkpt lat="50.05434" lon="1.90436">
        <ele>8.7</ele>
        <time>2022-04-17T13:41:30Z</time>
      </trkpt>
      <trkpt lat="50.05434" lon="1.90435">
        <ele>8.7</ele>
        <time>2022-04-17T13:41:31Z</time>
      </trkpt>
      <trkpt lat="50.05434" lon="1.90434">
        <ele>8.7</ele>
        <time>2022-04-17T13:41:32Z</time>
      </trkpt>
      <trkpt lat="50.05433" lon="1.90435">
        <ele>8.7</ele>
        <time>2022-04-17T13:41:33Z</time>
      </trkpt>
      <trkpt lat="50.05433" lon="1.90435">
        <ele>8.7</ele>
        <time>2022-04-17T13:41:34Z</time>
      </trkpt>
      <trkpt lat="50.05432" lon="1.90435">
        <ele>8.7</ele>
        <time>2022-04-17T13:41:35Z</time>
      </trkpt>
      <trkpt lat="50.05432" lon="1.90435">
        <ele>8.7</ele>
        <time>2022-04-17T13:41:37Z</time>
      </trkpt>
      <trkpt lat="50.05432" lon="1.90434">
        <ele>8.7</ele>
        <time>2022-04-17T13:41:38Z</time>
      </trkpt>
      <trkpt lat="50.05432" lon="1.90433">
        <ele>8.7</ele>
        <time>2022-04-17T13:41:39Z</time>
      </trkpt>
      <trkpt lat="50.05432" lon="1.90433">
        <ele>8.7</ele>
        <time>2022-04-17T13:41:40Z</time>
      </trkpt>
      <trkpt lat="50.05432" lon="1.90431">
        <ele>8.8</ele>
        <time>2022-04-17T13:41:42Z</time>
      </trkpt>
      <trkpt lat="50.05433" lon="1.90431">
        <ele>8.8</ele>
        <time>2022-04-17T13:41:43Z</time>
      </trkpt>
      <trkpt lat="50.05435" lon="1.90428">
        <ele>8.8</ele>
        <time>2022-04-17T13:41:44Z</time>
      </trkpt>
      <trkpt lat="50.05435" lon="1.90428">
        <ele>8.8</ele>
        <time>2022-04-17T13:41:45Z</time>
      </trkpt>
      <trkpt lat="50.05436" lon="1.90427">
        <ele>8.8</ele>
        <time>2022-04-17T13:41:46Z</time>
      </trkpt>
      <trkpt lat="50.05438" lon="1.90425">
        <ele>8.9</ele>
        <time>2022-04-17T13:41:47Z</time>
      </trkpt>
      <trkpt lat="50.05438" lon="1.90425">
        <ele>8.9</ele>
        <time>2022-04-17T13:41:48Z</time>
      </trkpt>
      <trkpt lat="50.05439" lon="1.90424">
        <ele>8.9</ele>
        <time>2022-04-17T13:41:49Z</time>
      </trkpt>
      <trkpt lat="50.05441" lon="1.90422">
        <ele>8.9</ele>
        <time>2022-04-17T13:41:50Z</time>
      </trkpt>
      <trkpt lat="50.05442" lon="1.90421">
        <ele>8.9</ele>
        <time>2022-04-17T13:41:51Z</time>
      </trkpt>
      <trkpt lat="50.05443" lon="1.9042">
        <ele>9</ele>
        <time>2022-04-17T13:41:52Z</time>
      </trkpt>
      <trkpt lat="50.05445" lon="1.9042">
        <ele>9</ele>
        <time>2022-04-17T13:41:53Z</time>
      </trkpt>
      <trkpt lat="50.05446" lon="1.90419">
        <ele>9</ele>
        <time>2022-04-17T13:41:55Z</time>
      </trkpt>
      <trkpt lat="50.05446" lon="1.90419">
        <ele>9</ele>
        <time>2022-04-17T13:41:56Z</time>
      </trkpt>
      <trkpt lat="50.05449" lon="1.90418">
        <ele>9.1</ele>
        <time>2022-04-17T13:41:57Z</time>
      </trkpt>
      <trkpt lat="50.05451" lon="1.9042">
        <ele>9.1</ele>
        <time>2022-04-17T13:41:58Z</time>
      </trkpt>
      <trkpt lat="50.05452" lon="1.90419">
        <ele>9.1</ele>
        <time>2022-04-17T13:41:59Z</time>
      </trkpt>
      <trkpt lat="50.05453" lon="1.90418">
        <ele>9.2</ele>
        <time>2022-04-17T13:42:00Z</time>
      </trkpt>
      <trkpt lat="50.05454" lon="1.90417">
        <ele>9.2</ele>
        <time>2022-04-17T13:42:01Z</time>
      </trkpt>
      <trkpt lat="50.05455" lon="1.90416">
        <ele>9.2</ele>
        <time>2022-04-17T13:42:03Z</time>
      </trkpt>
      <trkpt lat="50.05456" lon="1.90415">
        <ele>9.3</ele>
        <time>2022-04-17T13:42:04Z</time>
      </trkpt>
      <trkpt lat="50.05457" lon="1.90412">
        <ele>9.3</ele>
        <time>2022-04-17T13:42:05Z</time>
      </trkpt>
      <trkpt lat="50.05457" lon="1.90411">
        <ele>9.3</ele>
        <time>2022-04-17T13:42:06Z</time>
      </trkpt>
      <trkpt lat="50.05457" lon="1.90409">
        <ele>9.4</ele>
        <time>2022-04-17T13:42:07Z</time>
      </trkpt>
      <trkpt lat="50.05458" lon="1.90408">
        <ele>9.4</ele>
        <time>2022-04-17T13:42:08Z</time>
      </trkpt>
      <trkpt lat="50.05459" lon="1.90407">
        <ele>9.4</ele>
        <time>2022-04-17T13:42:09Z</time>
      </trkpt>
      <trkpt lat="50.0546" lon="1.90406">
        <ele>9.5</ele>
        <time>2022-04-17T13:42:11Z</time>
      </trkpt>
      <trkpt lat="50.0546" lon="1.90405">
        <ele>9.5</ele>
        <time>2022-04-17T13:42:12Z</time>
      </trkpt>
      <trkpt lat="50.0546" lon="1.904">
        <ele>9.6</ele>
        <time>2022-04-17T13:42:14Z</time>
      </trkpt>
      <trkpt lat="50.05459" lon="1.90398">
        <ele>9.6</ele>
        <time>2022-04-17T13:42:15Z</time>
      </trkpt>
      <trkpt lat="50.05459" lon="1.90395">
        <ele>9.7</ele>
        <time>2022-04-17T13:42:16Z</time>
      </trkpt>
      <trkpt lat="50.05458" lon="1.9039">
        <ele>9.8</ele>
        <time>2022-04-17T13:42:18Z</time>
      </trkpt>
      <trkpt lat="50.05458" lon="1.90388">
        <ele>9.8</ele>
        <time>2022-04-17T13:42:19Z</time>
      </trkpt>
      <trkpt lat="50.05457" lon="1.90386">
        <ele>9.9</ele>
        <time>2022-04-17T13:42:20Z</time>
      </trkpt>
      <trkpt lat="50.05457" lon="1.90384">
        <ele>9.9</ele>
        <time>2022-04-17T13:42:21Z</time>
      </trkpt>
      <trkpt lat="50.05457" lon="1.9038">
        <ele>10</ele>
        <time>2022-04-17T13:42:23Z</time>
      </trkpt>
      <trkpt lat="50.05457" lon="1.90379">
        <ele>10</ele>
        <time>2022-04-17T13:42:25Z</time>
      </trkpt>
      <trkpt lat="50.05458" lon="1.90377">
        <ele>10.1</ele>
        <time>2022-04-17T13:42:26Z</time>
      </trkpt>
      <trkpt lat="50.05458" lon="1.90374">
        <ele>10.1</ele>
        <time>2022-04-17T13:42:28Z</time>
      </trkpt>
      <trkpt lat="50.05458" lon="1.90373">
        <ele>10.2</ele>
        <time>2022-04-17T13:42:29Z</time>
      </trkpt>
      <trkpt lat="50.05459" lon="1.90371">
        <ele>10.2</ele>
        <time>2022-04-17T13:42:30Z</time>
      </trkpt>
      <trkpt lat="50.05459" lon="1.9037">
        <ele>10.2</ele>
        <time>2022-04-17T13:42:32Z</time>
      </trkpt>
      <trkpt lat="50.05459" lon="1.90368">
        <ele>10.3</ele>
        <time>2022-04-17T13:42:33Z</time>
      </trkpt>
      <trkpt lat="50.0546" lon="1.90367">
        <ele>10.3</ele>
        <time>2022-04-17T13:42:34Z</time>
      </trkpt>
      <trkpt lat="50.0546" lon="1.90366">
        <ele>10.3</ele>
        <time>2022-04-17T13:42:35Z</time>
      </trkpt>
      <trkpt lat="50.05461" lon="1.90365">
        <ele>10.4</ele>
        <time>2022-04-17T13:42:36Z</time>
      </trkpt>
      <trkpt lat="50.05461" lon="1.90364">
        <ele>10.4</ele>
        <time>2022-04-17T13:42:37Z</time>
      </trkpt>
      <trkpt lat="50.05461" lon="1.90363">
        <ele>10.4</ele>
        <time>2022-04-17T13:42:38Z</time>
      </trkpt>
      <trkpt lat="50.05462" lon="1.90362">
        <ele>10.5</ele>
        <time>2022-04-17T13:42:39Z</time>
      </trkpt>
      <trkpt lat="50.05464" lon="1.9036">
        <ele>10.5</ele>
        <time>2022-04-17T13:42:40Z</time>
      </trkpt>
      <trkpt lat="50.05465" lon="1.90359">
        <ele>10.6</ele>
        <time>2022-04-17T13:42:41Z</time>
      </trkpt>
      <trkpt lat="50.05465" lon="1.90358">
        <ele>10.9</ele>
        <time>2022-04-17T13:42:42Z</time>
      </trkpt>
      <trkpt lat="50.05466" lon="1.90358">
        <ele>10.9</ele>
        <time>2022-04-17T13:42:44Z</time>
      </trkpt>
      <trkpt lat="50.05467" lon="1.90357">
        <ele>10.9</ele>
        <time>2022-04-17T13:42:45Z</time>
      </trkpt>
      <trkpt lat="50.05468" lon="1.90357">
        <ele>10.9</ele>
        <time>2022-04-17T13:42:46Z</time>
      </trkpt>
      <trkpt lat="50.05469" lon="1.90358">
        <ele>10.9</ele>
        <time>2022-04-17T13:42:48Z</time>
      </trkpt>
      <trkpt lat="50.0547" lon="1.90358">
        <ele>10.9</ele>
        <time>2022-04-17T13:42:49Z</time>
      </trkpt>
      <trkpt lat="50.05471" lon="1.90358">
        <ele>10.9</ele>
        <time>2022-04-17T13:42:50Z</time>
      </trkpt>
      <trkpt lat="50.05472" lon="1.90358">
        <ele>10.9</ele>
        <time>2022-04-17T13:42:51Z</time>
      </trkpt>
      <trkpt lat="50.05473" lon="1.90359">
        <ele>10.9</ele>
        <time>2022-04-17T13:42:52Z</time>
      </trkpt>
      <trkpt lat="50.05474" lon="1.90359">
        <ele>10.9</ele>
        <time>2022-04-17T13:42:54Z</time>
      </trkpt>
      <trkpt lat="50.05474" lon="1.9036">
        <ele>10.9</ele>
        <time>2022-04-17T13:42:55Z</time>
      </trkpt>
      <trkpt lat="50.05475" lon="1.90361">
        <ele>10.9</ele>
        <time>2022-04-17T13:42:56Z</time>
      </trkpt>
      <trkpt lat="50.05476" lon="1.90362">
        <ele>10.9</ele>
        <time>2022-04-17T13:42:58Z</time>
      </trkpt>
      <trkpt lat="50.05477" lon="1.90363">
        <ele>10.9</ele>
        <time>2022-04-17T13:42:59Z</time>
      </trkpt>
      <trkpt lat="50.05479" lon="1.90364">
        <ele>10.8</ele>
        <time>2022-04-17T13:43:00Z</time>
      </trkpt>
      <trkpt lat="50.0548" lon="1.90364">
        <ele>10.8</ele>
        <time>2022-04-17T13:43:02Z</time>
      </trkpt>
      <trkpt lat="50.05481" lon="1.90364">
        <ele>10.8</ele>
        <time>2022-04-17T13:43:03Z</time>
      </trkpt>
      <trkpt lat="50.05483" lon="1.90364">
        <ele>10.8</ele>
        <time>2022-04-17T13:43:04Z</time>
      </trkpt>
      <trkpt lat="50.05483" lon="1.90365">
        <ele>10.8</ele>
        <time>2022-04-17T13:43:05Z</time>
      </trkpt>
      <trkpt lat="50.05484" lon="1.90365">
        <ele>10.8</ele>
        <time>2022-04-17T13:43:06Z</time>
      </trkpt>
      <trkpt lat="50.05485" lon="1.90366">
        <ele>10.8</ele>
        <time>2022-04-17T13:43:07Z</time>
      </trkpt>
      <trkpt lat="50.05485" lon="1.90367">
        <ele>10.8</ele>
        <time>2022-04-17T13:43:09Z</time>
      </trkpt>
      <trkpt lat="50.05486" lon="1.90368">
        <ele>10.9</ele>
        <time>2022-04-17T13:43:10Z</time>
      </trkpt>
      <trkpt lat="50.05486" lon="1.9037">
        <ele>10.9</ele>
        <time>2022-04-17T13:43:11Z</time>
      </trkpt>
      <trkpt lat="50.05487" lon="1.90372">
        <ele>10.9</ele>
        <time>2022-04-17T13:43:12Z</time>
      </trkpt>
      <trkpt lat="50.05488" lon="1.90373">
        <ele>10.9</ele>
        <time>2022-04-17T13:43:13Z</time>
      </trkpt>
      <trkpt lat="50.05488" lon="1.90374">
        <ele>10.9</ele>
        <time>2022-04-17T13:43:14Z</time>
      </trkpt>
      <trkpt lat="50.0549" lon="1.90377">
        <ele>11</ele>
        <time>2022-04-17T13:43:15Z</time>
      </trkpt>
      <trkpt lat="50.0549" lon="1.90378">
        <ele>11</ele>
        <time>2022-04-17T13:43:17Z</time>
      </trkpt>
      <trkpt lat="50.05491" lon="1.90379">
        <ele>11</ele>
        <time>2022-04-17T13:43:18Z</time>
      </trkpt>
      <trkpt lat="50.05492" lon="1.9038">
        <ele>11</ele>
        <time>2022-04-17T13:43:19Z</time>
      </trkpt>
      <trkpt lat="50.05493" lon="1.9038">
        <ele>11.1</ele>
        <time>2022-04-17T13:43:20Z</time>
      </trkpt>
      <trkpt lat="50.05494" lon="1.90381">
        <ele>11.1</ele>
        <time>2022-04-17T13:43:21Z</time>
      </trkpt>
      <trkpt lat="50.05495" lon="1.90381">
        <ele>11.1</ele>
        <time>2022-04-17T13:43:22Z</time>
      </trkpt>
      <trkpt lat="50.05496" lon="1.90382">
        <ele>11.2</ele>
        <time>2022-04-17T13:43:23Z</time>
      </trkpt>
      <trkpt lat="50.05497" lon="1.90383">
        <ele>11.2</ele>
        <time>2022-04-17T13:43:24Z</time>
      </trkpt>
      <trkpt lat="50.05497" lon="1.90383">
        <ele>11.2</ele>
        <time>2022-04-17T13:43:25Z</time>
      </trkpt>
      <trkpt lat="50.05498" lon="1.90384">
        <ele>11.2</ele>
        <time>2022-04-17T13:43:26Z</time>
      </trkpt>
      <trkpt lat="50.05499" lon="1.90385">
        <ele>11.3</ele>
        <time>2022-04-17T13:43:28Z</time>
      </trkpt>
      <trkpt lat="50.055" lon="1.90386">
        <ele>11.3</ele>
        <time>2022-04-17T13:43:29Z</time>
      </trkpt>
      <trkpt lat="50.05502" lon="1.90387">
        <ele>11.4</ele>
        <time>2022-04-17T13:43:30Z</time>
      </trkpt>
      <trkpt lat="50.05502" lon="1.90388">
        <ele>11.4</ele>
        <time>2022-04-17T13:43:31Z</time>
      </trkpt>
      <trkpt lat="50.05503" lon="1.90389">
        <ele>11.4</ele>
        <time>2022-04-17T13:43:32Z</time>
      </trkpt>
      <trkpt lat="50.05505" lon="1.90391">
        <ele>11.5</ele>
        <time>2022-04-17T13:43:33Z</time>
      </trkpt>
      <trkpt lat="50.05505" lon="1.90391">
        <ele>11.5</ele>
        <time>2022-04-17T13:43:34Z</time>
      </trkpt>
      <trkpt lat="50.05506" lon="1.90392">
        <ele>11.6</ele>
        <time>2022-04-17T13:43:36Z</time>
      </trkpt>
      <trkpt lat="50.05507" lon="1.90394">
        <ele>11.6</ele>
        <time>2022-04-17T13:43:37Z</time>
      </trkpt>
      <trkpt lat="50.05508" lon="1.90395">
        <ele>11.7</ele>
        <time>2022-04-17T13:43:38Z</time>
      </trkpt>
      <trkpt lat="50.05509" lon="1.90396">
        <ele>11.7</ele>
        <time>2022-04-17T13:43:39Z</time>
      </trkpt>
      <trkpt lat="50.0551" lon="1.90397">
        <ele>11.8</ele>
        <time>2022-04-17T13:43:40Z</time>
      </trkpt>
      <trkpt lat="50.05511" lon="1.90397">
        <ele>11.9</ele>
        <time>2022-04-17T13:43:41Z</time>
      </trkpt>
      <trkpt lat="50.05512" lon="1.90398">
        <ele>11.9</ele>
        <time>2022-04-17T13:43:42Z</time>
      </trkpt>
      <trkpt lat="50.05513" lon="1.90399">
        <ele>12</ele>
        <time>2022-04-17T13:43:43Z</time>
      </trkpt>
      <trkpt lat="50.05514" lon="1.90399">
        <ele>12.1</ele>
        <time>2022-04-17T13:43:45Z</time>
      </trkpt>
      <trkpt lat="50.05516" lon="1.904">
        <ele>12.2</ele>
        <time>2022-04-17T13:43:46Z</time>
      </trkpt>
      <trkpt lat="50.05517" lon="1.90401">
        <ele>12.3</ele>
        <time>2022-04-17T13:43:47Z</time>
      </trkpt>
      <trkpt lat="50.05519" lon="1.90401">
        <ele>12.3</ele>
        <time>2022-04-17T13:43:48Z</time>
      </trkpt>
      <trkpt lat="50.0552" lon="1.90399">
        <ele>12.4</ele>
        <time>2022-04-17T13:43:50Z</time>
      </trkpt>
      <trkpt lat="50.05521" lon="1.90399">
        <ele>12.5</ele>
        <time>2022-04-17T13:43:51Z</time>
      </trkpt>
      <trkpt lat="50.05522" lon="1.90399">
        <ele>12.6</ele>
        <time>2022-04-17T13:43:52Z</time>
      </trkpt>
      <trkpt lat="50.05523" lon="1.904">
        <ele>12.6</ele>
        <time>2022-04-17T13:43:53Z</time>
      </trkpt>
      <trkpt lat="50.05524" lon="1.904">
        <ele>12.7</ele>
        <time>2022-04-17T13:43:55Z</time>
      </trkpt>
      <trkpt lat="50.05525" lon="1.90401">
        <ele>12.8</ele>
        <time>2022-04-17T13:43:56Z</time>
      </trkpt>
      <trkpt lat="50.05526" lon="1.90401">
        <ele>12.8</ele>
        <time>2022-04-17T13:43:57Z</time>
      </trkpt>
      <trkpt lat="50.05527" lon="1.90401">
        <ele>12.9</ele>
        <time>2022-04-17T13:43:58Z</time>
      </trkpt>
      <trkpt lat="50.05528" lon="1.90402">
        <ele>13</ele>
        <time>2022-04-17T13:44:00Z</time>
      </trkpt>
      <trkpt lat="50.05529" lon="1.90403">
        <ele>13</ele>
        <time>2022-04-17T13:44:01Z</time>
      </trkpt>
      <trkpt lat="50.0553" lon="1.90403">
        <ele>13.1</ele>
        <time>2022-04-17T13:44:02Z</time>
      </trkpt>
      <trkpt lat="50.05531" lon="1.90404">
        <ele>13.2</ele>
        <time>2022-04-17T13:44:03Z</time>
      </trkpt>
      <trkpt lat="50.05531" lon="1.90405">
        <ele>13.2</ele>
        <time>2022-04-17T13:44:04Z</time>
      </trkpt>
      <trkpt lat="50.05532" lon="1.90405">
        <ele>13.3</ele>
        <time>2022-04-17T13:44:06Z</time>
      </trkpt>
      <trkpt lat="50.05533" lon="1.90406">
        <ele>13.4</ele>
        <time>2022-04-17T13:44:07Z</time>
      </trkpt>
      <trkpt lat="50.05534" lon="1.90407">
        <ele>13.4</ele>
        <time>2022-04-17T13:44:08Z</time>
      </trkpt>
      <trkpt lat="50.05535" lon="1.90408">
        <ele>13.5</ele>
        <time>2022-04-17T13:44:10Z</time>
      </trkpt>
      <trkpt lat="50.05536" lon="1.90409">
        <ele>13.6</ele>
        <time>2022-04-17T13:44:11Z</time>
      </trkpt>
      <trkpt lat="50.05537" lon="1.90411">
        <ele>13.7</ele>
        <time>2022-04-17T13:44:12Z</time>
      </trkpt>
      <trkpt lat="50.05537" lon="1.90412">
        <ele>13.7</ele>
        <time>2022-04-17T13:44:14Z</time>
      </trkpt>
      <trkpt lat="50.05538" lon="1.90414">
        <ele>13.8</ele>
        <time>2022-04-17T13:44:15Z</time>
      </trkpt>
      <trkpt lat="50.05538" lon="1.90415">
        <ele>13.9</ele>
        <time>2022-04-17T13:44:16Z</time>
      </trkpt>
      <trkpt lat="50.05539" lon="1.90416">
        <ele>13.9</ele>
        <time>2022-04-17T13:44:17Z</time>
      </trkpt>
      <trkpt lat="50.0554" lon="1.90416">
        <ele>14</ele>
        <time>2022-04-17T13:44:18Z</time>
      </trkpt>
      <trkpt lat="50.05541" lon="1.90417">
        <ele>14.1</ele>
        <time>2022-04-17T13:44:20Z</time>
      </trkpt>
      <trkpt lat="50.05542" lon="1.90418">
        <ele>14.2</ele>
        <time>2022-04-17T13:44:21Z</time>
      </trkpt>
      <trkpt lat="50.05544" lon="1.90419">
        <ele>14.3</ele>
        <time>2022-04-17T13:44:22Z</time>
      </trkpt>
      <trkpt lat="50.05545" lon="1.9042">
        <ele>14.3</ele>
        <time>2022-04-17T13:44:23Z</time>
      </trkpt>
      <trkpt lat="50.05546" lon="1.9042">
        <ele>14.4</ele>
        <time>2022-04-17T13:44:24Z</time>
      </trkpt>
      <trkpt lat="50.05546" lon="1.90421">
        <ele>14.4</ele>
        <time>2022-04-17T13:44:25Z</time>
      </trkpt>
      <trkpt lat="50.05547" lon="1.90421">
        <ele>14.5</ele>
        <time>2022-04-17T13:44:27Z</time>
      </trkpt>
      <trkpt lat="50.05548" lon="1.90422">
        <ele>14.6</ele>
        <time>2022-04-17T13:44:28Z</time>
      </trkpt>
      <trkpt lat="50.0555" lon="1.90423">
        <ele>14.7</ele>
        <time>2022-04-17T13:44:29Z</time>
      </trkpt>
      <trkpt lat="50.05551" lon="1.90423">
        <ele>14.7</ele>
        <time>2022-04-17T13:44:30Z</time>
      </trkpt>
      <trkpt lat="50.05552" lon="1.90424">
        <ele>14.8</ele>
        <time>2022-04-17T13:44:31Z</time>
      </trkpt>
      <trkpt lat="50.05553" lon="1.90425">
        <ele>14.9</ele>
        <time>2022-04-17T13:44:33Z</time>
      </trkpt>
      <trkpt lat="50.05555" lon="1.90426">
        <ele>15</ele>
        <time>2022-04-17T13:44:34Z</time>
      </trkpt>
      <trkpt lat="50.05556" lon="1.90426">
        <ele>15.1</ele>
        <time>2022-04-17T13:44:35Z</time>
      </trkpt>
      <trkpt lat="50.05557" lon="1.90427">
        <ele>15.1</ele>
        <time>2022-04-17T13:44:36Z</time>
      </trkpt>
      <trkpt lat="50.05558" lon="1.90428">
        <ele>15.2</ele>
        <time>2022-04-17T13:44:37Z</time>
      </trkpt>
      <trkpt lat="50.05559" lon="1.90429">
        <ele>15.2</ele>
        <time>2022-04-17T13:44:38Z</time>
      </trkpt>
      <trkpt lat="50.0556" lon="1.9043">
        <ele>15.3</ele>
        <time>2022-04-17T13:44:39Z</time>
      </trkpt>
      <trkpt lat="50.05561" lon="1.90431">
        <ele>15.4</ele>
        <time>2022-04-17T13:44:41Z</time>
      </trkpt>
      <trkpt lat="50.05562" lon="1.90432">
        <ele>15.5</ele>
        <time>2022-04-17T13:44:42Z</time>
      </trkpt>
      <trkpt lat="50.05563" lon="1.90433">
        <ele>15.6</ele>
        <time>2022-04-17T13:44:43Z</time>
      </trkpt>
      <trkpt lat="50.05565" lon="1.90434">
        <ele>15.6</ele>
        <time>2022-04-17T13:44:44Z</time>
      </trkpt>
      <trkpt lat="50.05566" lon="1.90434">
        <ele>15.7</ele>
        <time>2022-04-17T13:44:45Z</time>
      </trkpt>
      <trkpt lat="50.05567" lon="1.90435">
        <ele>15.8</ele>
        <time>2022-04-17T13:44:46Z</time>
      </trkpt>
      <trkpt lat="50.05568" lon="1.90436">
        <ele>15.9</ele>
        <time>2022-04-17T13:44:47Z</time>
      </trkpt>
      <trkpt lat="50.05571" lon="1.90437">
        <ele>16</ele>
        <time>2022-04-17T13:44:48Z</time>
      </trkpt>
      <trkpt lat="50.05572" lon="1.90438">
        <ele>16.1</ele>
        <time>2022-04-17T13:44:50Z</time>
      </trkpt>
      <trkpt lat="50.05572" lon="1.90438">
        <ele>16.1</ele>
        <time>2022-04-17T13:44:51Z</time>
      </trkpt>
      <trkpt lat="50.05574" lon="1.90439">
        <ele>16.2</ele>
        <time>2022-04-17T13:44:52Z</time>
      </trkpt>
      <trkpt lat="50.05575" lon="1.9044">
        <ele>16.3</ele>
        <time>2022-04-17T13:44:53Z</time>
      </trkpt>
      <trkpt lat="50.05575" lon="1.90442">
        <ele>16.3</ele>
        <time>2022-04-17T13:44:55Z</time>
      </trkpt>
      <trkpt lat="50.05575" lon="1.90443">
        <ele>16.4</ele>
        <time>2022-04-17T13:44:56Z</time>
      </trkpt>
      <trkpt lat="50.05576" lon="1.90444">
        <ele>16.4</ele>
        <time>2022-04-17T13:44:57Z</time>
      </trkpt>
      <trkpt lat="50.05576" lon="1.90445">
        <ele>16.4</ele>
        <time>2022-04-17T13:44:58Z</time>
      </trkpt>
      <trkpt lat="50.05576" lon="1.90446">
        <ele>16.5</ele>
        <time>2022-04-17T13:44:59Z</time>
      </trkpt>
      <trkpt lat="50.05577" lon="1.90447">
        <ele>16.5</ele>
        <time>2022-04-17T13:45:00Z</time>
      </trkpt>
      <trkpt lat="50.05577" lon="1.90448">
        <ele>16.6</ele>
        <time>2022-04-17T13:45:02Z</time>
      </trkpt>
      <trkpt lat="50.05578" lon="1.90449">
        <ele>16.6</ele>
        <time>2022-04-17T13:45:03Z</time>
      </trkpt>
      <trkpt lat="50.05579" lon="1.9045">
        <ele>16.7</ele>
        <time>2022-04-17T13:45:04Z</time>
      </trkpt>
      <trkpt lat="50.05581" lon="1.90451">
        <ele>16.8</ele>
        <time>2022-04-17T13:45:05Z</time>
      </trkpt>
      <trkpt lat="50.05581" lon="1.90452">
        <ele>16.8</ele>
        <time>2022-04-17T13:45:06Z</time>
      </trkpt>
      <trkpt lat="50.05583" lon="1.90452">
        <ele>16.9</ele>
        <time>2022-04-17T13:45:08Z</time>
      </trkpt>
      <trkpt lat="50.05584" lon="1.90453">
        <ele>16.9</ele>
        <time>2022-04-17T13:45:09Z</time>
      </trkpt>
      <trkpt lat="50.05586" lon="1.90455">
        <ele>17.1</ele>
        <time>2022-04-17T13:45:10Z</time>
      </trkpt>
      <trkpt lat="50.05586" lon="1.90454">
        <ele>17.1</ele>
        <time>2022-04-17T13:45:11Z</time>
      </trkpt>
      <trkpt lat="50.05587" lon="1.90455">
        <ele>17.1</ele>
        <time>2022-04-17T13:45:13Z</time>
      </trkpt>
      <trkpt lat="50.05587" lon="1.90455">
        <ele>17.2</ele>
        <time>2022-04-17T13:45:14Z</time>
      </trkpt>
      <trkpt lat="50.05587" lon="1.90456">
        <ele>17.2</ele>
        <time>2022-04-17T13:45:16Z</time>
      </trkpt>
      <trkpt lat="50.05588" lon="1.90456">
        <ele>17.2</ele>
        <time>2022-04-17T13:45:17Z</time>
      </trkpt>
      <trkpt lat="50.05589" lon="1.90457">
        <ele>17.3</ele>
        <time>2022-04-17T13:45:18Z</time>
      </trkpt>
      <trkpt lat="50.05591" lon="1.90458">
        <ele>17.4</ele>
        <time>2022-04-17T13:45:19Z</time>
      </trkpt>
      <trkpt lat="50.05591" lon="1.90458">
        <ele>17.4</ele>
        <time>2022-04-17T13:45:20Z</time>
      </trkpt>
      <trkpt lat="50.05592" lon="1.90459">
        <ele>17.5</ele>
        <time>2022-04-17T13:45:21Z</time>
      </trkpt>
      <trkpt lat="50.05592" lon="1.90459">
        <ele>17.5</ele>
        <time>2022-04-17T13:45:22Z</time>
      </trkpt>
      <trkpt lat="50.05593" lon="1.9046">
        <ele>17.6</ele>
        <time>2022-04-17T13:45:24Z</time>
      </trkpt>
      <trkpt lat="50.05595" lon="1.90462">
        <ele>17.7</ele>
        <time>2022-04-17T13:45:25Z</time>
      </trkpt>
      <trkpt lat="50.05596" lon="1.90463">
        <ele>17.7</ele>
        <time>2022-04-17T13:45:26Z</time>
      </trkpt>
      <trkpt lat="50.05596" lon="1.90463">
        <ele>17.8</ele>
        <time>2022-04-17T13:45:27Z</time>
      </trkpt>
      <trkpt lat="50.05597" lon="1.90464">
        <ele>17.8</ele>
        <time>2022-04-17T13:45:29Z</time>
      </trkpt>
      <trkpt lat="50.05598" lon="1.90464">
        <ele>17.9</ele>
        <time>2022-04-17T13:45:30Z</time>
      </trkpt>
      <trkpt lat="50.05599" lon="1.90465">
        <ele>17.9</ele>
        <time>2022-04-17T13:45:31Z</time>
      </trkpt>
      <trkpt lat="50.056" lon="1.90465">
        <ele>18</ele>
        <time>2022-04-17T13:45:32Z</time>
      </trkpt>
      <trkpt lat="50.05601" lon="1.90465">
        <ele>18</ele>
        <time>2022-04-17T13:45:33Z</time>
      </trkpt>
      <trkpt lat="50.05602" lon="1.90466">
        <ele>18.1</ele>
        <time>2022-04-17T13:45:35Z</time>
      </trkpt>
      <trkpt lat="50.05603" lon="1.90467">
        <ele>18.1</ele>
        <time>2022-04-17T13:45:36Z</time>
      </trkpt>
      <trkpt lat="50.05603" lon="1.90468">
        <ele>18.2</ele>
        <time>2022-04-17T13:45:37Z</time>
      </trkpt>
      <trkpt lat="50.05604" lon="1.90469">
        <ele>18.3</ele>
        <time>2022-04-17T13:45:39Z</time>
      </trkpt>
      <trkpt lat="50.05606" lon="1.9047">
        <ele>18.3</ele>
        <time>2022-04-17T13:45:40Z</time>
      </trkpt>
      <trkpt lat="50.05607" lon="1.9047">
        <ele>18.4</ele>
        <time>2022-04-17T13:45:41Z</time>
      </trkpt>
      <trkpt lat="50.05608" lon="1.90471">
        <ele>18.5</ele>
        <time>2022-04-17T13:45:42Z</time>
      </trkpt>
      <trkpt lat="50.05609" lon="1.90472">
        <ele>18.6</ele>
        <time>2022-04-17T13:45:44Z</time>
      </trkpt>
      <trkpt lat="50.0561" lon="1.90472">
        <ele>18.6</ele>
        <time>2022-04-17T13:45:45Z</time>
      </trkpt>
      <trkpt lat="50.05611" lon="1.90473">
        <ele>18.7</ele>
        <time>2022-04-17T13:45:46Z</time>
      </trkpt>
      <trkpt lat="50.05612" lon="1.90473">
        <ele>18.8</ele>
        <time>2022-04-17T13:45:47Z</time>
      </trkpt>
      <trkpt lat="50.05613" lon="1.90473">
        <ele>18.8</ele>
        <time>2022-04-17T13:45:49Z</time>
      </trkpt>
      <trkpt lat="50.05614" lon="1.90474">
        <ele>18.9</ele>
        <time>2022-04-17T13:45:50Z</time>
      </trkpt>
      <trkpt lat="50.05615" lon="1.90475">
        <ele>19</ele>
        <time>2022-04-17T13:45:51Z</time>
      </trkpt>
      <trkpt lat="50.05615" lon="1.90477">
        <ele>19.1</ele>
        <time>2022-04-17T13:45:53Z</time>
      </trkpt>
      <trkpt lat="50.05616" lon="1.90478">
        <ele>19.1</ele>
        <time>2022-04-17T13:45:54Z</time>
      </trkpt>
      <trkpt lat="50.05617" lon="1.90478">
        <ele>19.2</ele>
        <time>2022-04-17T13:45:55Z</time>
      </trkpt>
      <trkpt lat="50.05617" lon="1.90479">
        <ele>19.2</ele>
        <time>2022-04-17T13:45:56Z</time>
      </trkpt>
      <trkpt lat="50.05617" lon="1.90479">
        <ele>19.1</ele>
        <time>2022-04-17T13:45:57Z</time>
      </trkpt>
      <trkpt lat="50.05616" lon="1.90479">
        <ele>19.1</ele>
        <time>2022-04-17T13:45:59Z</time>
      </trkpt>
      <trkpt lat="50.05616" lon="1.9048">
        <ele>19.1</ele>
        <time>2022-04-17T13:46:00Z</time>
      </trkpt>
      <trkpt lat="50.05616" lon="1.90481">
        <ele>19.1</ele>
        <time>2022-04-17T13:46:01Z</time>
      </trkpt>
      <trkpt lat="50.05616" lon="1.90482">
        <ele>19.1</ele>
        <time>2022-04-17T13:46:02Z</time>
      </trkpt>
      <trkpt lat="50.05615" lon="1.90484">
        <ele>19.1</ele>
        <time>2022-04-17T13:46:04Z</time>
      </trkpt>
      <trkpt lat="50.05615" lon="1.90485">
        <ele>19.1</ele>
        <time>2022-04-17T13:46:05Z</time>
      </trkpt>
      <trkpt lat="50.05614" lon="1.90486">
        <ele>19.1</ele>
        <time>2022-04-17T13:46:06Z</time>
      </trkpt>
      <trkpt lat="50.05614" lon="1.90487">
        <ele>19.1</ele>
        <time>2022-04-17T13:46:07Z</time>
      </trkpt>
      <trkpt lat="50.05614" lon="1.90488">
        <ele>19</ele>
        <time>2022-04-17T13:46:08Z</time>
      </trkpt>
      <trkpt lat="50.05613" lon="1.90489">
        <ele>19</ele>
        <time>2022-04-17T13:46:09Z</time>
      </trkpt>
      <trkpt lat="50.05612" lon="1.90491">
        <ele>19</ele>
        <time>2022-04-17T13:46:11Z</time>
      </trkpt>
      <trkpt lat="50.0561" lon="1.90494">
        <ele>19</ele>
        <time>2022-04-17T13:46:12Z</time>
      </trkpt>
      <trkpt lat="50.05609" lon="1.90497">
        <ele>19</ele>
        <time>2022-04-17T13:46:14Z</time>
      </trkpt>
      <trkpt lat="50.05608" lon="1.90499">
        <ele>19</ele>
        <time>2022-04-17T13:46:15Z</time>
      </trkpt>
      <trkpt lat="50.05607" lon="1.90501">
        <ele>18.9</ele>
        <time>2022-04-17T13:46:16Z</time>
      </trkpt>
      <trkpt lat="50.05604" lon="1.90506">
        <ele>18.9</ele>
        <time>2022-04-17T13:46:17Z</time>
      </trkpt>
      <trkpt lat="50.05604" lon="1.90507">
        <ele>18.9</ele>
        <time>2022-04-17T13:46:18Z</time>
      </trkpt>
      <trkpt lat="50.05603" lon="1.90509">
        <ele>18.9</ele>
        <time>2022-04-17T13:46:19Z</time>
      </trkpt>
      <trkpt lat="50.05602" lon="1.9051">
        <ele>18.9</ele>
        <time>2022-04-17T13:46:20Z</time>
      </trkpt>
      <trkpt lat="50.05602" lon="1.90512">
        <ele>18.9</ele>
        <time>2022-04-17T13:46:21Z</time>
      </trkpt>
      <trkpt lat="50.05601" lon="1.90513">
        <ele>18.9</ele>
        <time>2022-04-17T13:46:22Z</time>
      </trkpt>
      <trkpt lat="50.05601" lon="1.90514">
        <ele>18.9</ele>
        <time>2022-04-17T13:46:23Z</time>
      </trkpt>
      <trkpt lat="50.05601" lon="1.90514">
        <ele>18.9</ele>
        <time>2022-04-17T13:46:24Z</time>
      </trkpt>
      <trkpt lat="50.05603" lon="1.90513">
        <ele>18.9</ele>
        <time>2022-04-17T13:46:26Z</time>
      </trkpt>
      <trkpt lat="50.05604" lon="1.90512">
        <ele>18.9</ele>
        <time>2022-04-17T13:46:27Z</time>
      </trkpt>
      <trkpt lat="50.05605" lon="1.90513">
        <ele>18.8</ele>
        <time>2022-04-17T13:46:28Z</time>
      </trkpt>
      <trkpt lat="50.05606" lon="1.90513">
        <ele>18.8</ele>
        <time>2022-04-17T13:46:29Z</time>
      </trkpt>
      <trkpt lat="50.05606" lon="1.90513">
        <ele>18.8</ele>
        <time>2022-04-17T13:46:30Z</time>
      </trkpt>
      <trkpt lat="50.05607" lon="1.90513">
        <ele>18.8</ele>
        <time>2022-04-17T13:46:31Z</time>
      </trkpt>
      <trkpt lat="50.05607" lon="1.90513">
        <ele>18.8</ele>
        <time>2022-04-17T13:46:33Z</time>
      </trkpt>
      <trkpt lat="50.05607" lon="1.90513">
        <ele>18.8</ele>
        <time>2022-04-17T13:46:34Z</time>
      </trkpt>
      <trkpt lat="50.05607" lon="1.90512">
        <ele>18.8</ele>
        <time>2022-04-17T13:46:35Z</time>
      </trkpt>
      <trkpt lat="50.05607" lon="1.90512">
        <ele>18.8</ele>
        <time>2022-04-17T13:46:36Z</time>
      </trkpt>
      <trkpt lat="50.05607" lon="1.90512">
        <ele>18.8</ele>
        <time>2022-04-17T13:46:37Z</time>
      </trkpt>
      <trkpt lat="50.05607" lon="1.90511">
        <ele>18.8</ele>
        <time>2022-04-17T13:46:38Z</time>
      </trkpt>
      <trkpt lat="50.05607" lon="1.90511">
        <ele>18.8</ele>
        <time>2022-04-17T13:46:39Z</time>
      </trkpt>
      <trkpt lat="50.05608" lon="1.90511">
        <ele>18.8</ele>
        <time>2022-04-17T13:46:40Z</time>
      </trkpt>
      <trkpt lat="50.05608" lon="1.90511">
        <ele>18.8</ele>
        <time>2022-04-17T13:46:41Z</time>
      </trkpt>
      <trkpt lat="50.05608" lon="1.9051">
        <ele>18.8</ele>
        <time>2022-04-17T13:46:42Z</time>
      </trkpt>
      <trkpt lat="50.05608" lon="1.90509">
        <ele>18.8</ele>
        <time>2022-04-17T13:46:43Z</time>
      </trkpt>
      <trkpt lat="50.05609" lon="1.90508">
        <ele>18.8</ele>
        <time>2022-04-17T13:46:44Z</time>
      </trkpt>
      <trkpt lat="50.05609" lon="1.90505">
        <ele>18.8</ele>
        <time>2022-04-17T13:46:45Z</time>
      </trkpt>
      <trkpt lat="50.05609" lon="1.90503">
        <ele>18.8</ele>
        <time>2022-04-17T13:46:46Z</time>
      </trkpt>
      <trkpt lat="50.05609" lon="1.90503">
        <ele>18.8</ele>
        <time>2022-04-17T13:46:47Z</time>
      </trkpt>
      <trkpt lat="50.05608" lon="1.90502">
        <ele>18.8</ele>
        <time>2022-04-17T13:46:49Z</time>
      </trkpt>
      <trkpt lat="50.05607" lon="1.90503">
        <ele>18.8</ele>
        <time>2022-04-17T13:46:50Z</time>
      </trkpt>
      <trkpt lat="50.05606" lon="1.90504">
        <ele>18.8</ele>
        <time>2022-04-17T13:46:51Z</time>
      </trkpt>
      <trkpt lat="50.05608" lon="1.90509">
        <ele>18.8</ele>
        <time>2022-04-17T13:46:52Z</time>
      </trkpt>
      <trkpt lat="50.05608" lon="1.90509">
        <ele>18.8</ele>
        <time>2022-04-17T13:46:53Z</time>
      </trkpt>
      <trkpt lat="50.05607" lon="1.90509">
        <ele>18.8</ele>
        <time>2022-04-17T13:46:54Z</time>
      </trkpt>
      <trkpt lat="50.05607" lon="1.90509">
        <ele>18.8</ele>
        <time>2022-04-17T13:46:55Z</time>
      </trkpt>
      <trkpt lat="50.05607" lon="1.90509">
        <ele>18.8</ele>
        <time>2022-04-17T13:46:56Z</time>
      </trkpt>
      <trkpt lat="50.05606" lon="1.90509">
        <ele>18.8</ele>
        <time>2022-04-17T13:46:57Z</time>
      </trkpt>
      <trkpt lat="50.05606" lon="1.90509">
        <ele>18.8</ele>
        <time>2022-04-17T13:46:58Z</time>
      </trkpt>
      <trkpt lat="50.05606" lon="1.9051">
        <ele>18.8</ele>
        <time>2022-04-17T13:46:59Z</time>
      </trkpt>
      <trkpt lat="50.05605" lon="1.90511">
        <ele>18.8</ele>
        <time>2022-04-17T13:47:00Z</time>
      </trkpt>
      <trkpt lat="50.05605" lon="1.90511">
        <ele>18.8</ele>
        <time>2022-04-17T13:47:01Z</time>
      </trkpt>
      <trkpt lat="50.05604" lon="1.90513">
        <ele>18.8</ele>
        <time>2022-04-17T13:47:02Z</time>
      </trkpt>
      <trkpt lat="50.05604" lon="1.90514">
        <ele>18.8</ele>
        <time>2022-04-17T13:47:03Z</time>
      </trkpt>
      <trkpt lat="50.05603" lon="1.90515">
        <ele>18.8</ele>
        <time>2022-04-17T13:47:05Z</time>
      </trkpt>
      <trkpt lat="50.05602" lon="1.90517">
        <ele>18.8</ele>
        <time>2022-04-17T13:47:06Z</time>
      </trkpt>
      <trkpt lat="50.05601" lon="1.90518">
        <ele>18.8</ele>
        <time>2022-04-17T13:47:07Z</time>
      </trkpt>
      <trkpt lat="50.056" lon="1.90519">
        <ele>18.8</ele>
        <time>2022-04-17T13:47:08Z</time>
      </trkpt>
      <trkpt lat="50.05599" lon="1.9052">
        <ele>18.8</ele>
        <time>2022-04-17T13:47:09Z</time>
      </trkpt>
      <trkpt lat="50.05598" lon="1.90522">
        <ele>18.8</ele>
        <time>2022-04-17T13:47:10Z</time>
      </trkpt>
      <trkpt lat="50.05597" lon="1.90524">
        <ele>18.8</ele>
        <time>2022-04-17T13:47:11Z</time>
      </trkpt>
      <trkpt lat="50.05597" lon="1.90525">
        <ele>18.8</ele>
        <time>2022-04-17T13:47:12Z</time>
      </trkpt>
      <trkpt lat="50.05596" lon="1.90526">
        <ele>18.8</ele>
        <time>2022-04-17T13:47:13Z</time>
      </trkpt>
      <trkpt lat="50.05595" lon="1.9053">
        <ele>18.8</ele>
        <time>2022-04-17T13:47:14Z</time>
      </trkpt>
      <trkpt lat="50.05594" lon="1.90531">
        <ele>18.8</ele>
        <time>2022-04-17T13:47:15Z</time>
      </trkpt>
      <trkpt lat="50.05593" lon="1.90533">
        <ele>18.8</ele>
        <time>2022-04-17T13:47:16Z</time>
      </trkpt>
      <trkpt lat="50.05593" lon="1.90534">
        <ele>18.8</ele>
        <time>2022-04-17T13:47:18Z</time>
      </trkpt>
      <trkpt lat="50.05592" lon="1.90535">
        <ele>18.8</ele>
        <time>2022-04-17T13:47:19Z</time>
      </trkpt>
      <trkpt lat="50.05592" lon="1.90536">
        <ele>18.8</ele>
        <time>2022-04-17T13:47:20Z</time>
      </trkpt>
      <trkpt lat="50.05591" lon="1.90536">
        <ele>18.8</ele>
        <time>2022-04-17T13:47:21Z</time>
      </trkpt>
      <trkpt lat="50.0559" lon="1.90538">
        <ele>18.8</ele>
        <time>2022-04-17T13:47:22Z</time>
      </trkpt>
      <trkpt lat="50.0559" lon="1.90539">
        <ele>18.8</ele>
        <time>2022-04-17T13:47:23Z</time>
      </trkpt>
      <trkpt lat="50.05589" lon="1.9054">
        <ele>18.8</ele>
        <time>2022-04-17T13:47:25Z</time>
      </trkpt>
      <trkpt lat="50.05588" lon="1.90543">
        <ele>18.9</ele>
        <time>2022-04-17T13:47:26Z</time>
      </trkpt>
      <trkpt lat="50.05588" lon="1.90544">
        <ele>18.9</ele>
        <time>2022-04-17T13:47:27Z</time>
      </trkpt>
      <trkpt lat="50.05587" lon="1.90547">
        <ele>18.9</ele>
        <time>2022-04-17T13:47:28Z</time>
      </trkpt>
      <trkpt lat="50.05586" lon="1.90548">
        <ele>18.9</ele>
        <time>2022-04-17T13:47:30Z</time>
      </trkpt>
      <trkpt lat="50.05585" lon="1.90552">
        <ele>18.9</ele>
        <time>2022-04-17T13:47:31Z</time>
      </trkpt>
      <trkpt lat="50.05585" lon="1.90552">
        <ele>18.9</ele>
        <time>2022-04-17T13:47:32Z</time>
      </trkpt>
      <trkpt lat="50.05584" lon="1.90553">
        <ele>18.9</ele>
        <time>2022-04-17T13:47:33Z</time>
      </trkpt>
      <trkpt lat="50.05583" lon="1.90555">
        <ele>18.9</ele>
        <time>2022-04-17T13:47:34Z</time>
      </trkpt>
      <trkpt lat="50.05582" lon="1.90556">
        <ele>18.9</ele>
        <time>2022-04-17T13:47:35Z</time>
      </trkpt>
      <trkpt lat="50.05581" lon="1.90557">
        <ele>18.9</ele>
        <time>2022-04-17T13:47:36Z</time>
      </trkpt>
      <trkpt lat="50.0558" lon="1.90559">
        <ele>18.9</ele>
        <time>2022-04-17T13:47:37Z</time>
      </trkpt>
      <trkpt lat="50.0558" lon="1.9056">
        <ele>18.9</ele>
        <time>2022-04-17T13:47:38Z</time>
      </trkpt>
      <trkpt lat="50.05579" lon="1.90562">
        <ele>18.9</ele>
        <time>2022-04-17T13:47:39Z</time>
      </trkpt>
      <trkpt lat="50.05579" lon="1.90563">
        <ele>18.9</ele>
        <time>2022-04-17T13:47:40Z</time>
      </trkpt>
      <trkpt lat="50.0558" lon="1.90563">
        <ele>18.9</ele>
        <time>2022-04-17T13:47:42Z</time>
      </trkpt>
      <trkpt lat="50.0558" lon="1.90565">
        <ele>18.9</ele>
        <time>2022-04-17T13:47:43Z</time>
      </trkpt>
      <trkpt lat="50.05581" lon="1.90566">
        <ele>18.8</ele>
        <time>2022-04-17T13:47:45Z</time>
      </trkpt>
      <trkpt lat="50.05581" lon="1.90567">
        <ele>18.8</ele>
        <time>2022-04-17T13:47:46Z</time>
      </trkpt>
      <trkpt lat="50.05582" lon="1.90568">
        <ele>18.8</ele>
        <time>2022-04-17T13:47:47Z</time>
      </trkpt>
      <trkpt lat="50.05582" lon="1.90569">
        <ele>18.8</ele>
        <time>2022-04-17T13:47:48Z</time>
      </trkpt>
      <trkpt lat="50.05582" lon="1.9057">
        <ele>18.8</ele>
        <time>2022-04-17T13:47:49Z</time>
      </trkpt>
      <trkpt lat="50.05581" lon="1.90572">
        <ele>18.8</ele>
        <time>2022-04-17T13:47:50Z</time>
      </trkpt>
      <trkpt lat="50.0558" lon="1.90575">
        <ele>18.8</ele>
        <time>2022-04-17T13:47:52Z</time>
      </trkpt>
      <trkpt lat="50.0558" lon="1.90576">
        <ele>18.8</ele>
        <time>2022-04-17T13:47:53Z</time>
      </trkpt>
      <trkpt lat="50.0558" lon="1.90577">
        <ele>18.8</ele>
        <time>2022-04-17T13:47:54Z</time>
      </trkpt>
      <trkpt lat="50.05581" lon="1.90576">
        <ele>18.8</ele>
        <time>2022-04-17T13:47:55Z</time>
      </trkpt>
      <trkpt lat="50.0558" lon="1.90576">
        <ele>18.8</ele>
        <time>2022-04-17T13:47:57Z</time>
      </trkpt>
      <trkpt lat="50.05579" lon="1.90576">
        <ele>18.8</ele>
        <time>2022-04-17T13:47:58Z</time>
      </trkpt>
      <trkpt lat="50.05579" lon="1.90576">
        <ele>18.8</ele>
        <time>2022-04-17T13:47:59Z</time>
      </trkpt>
      <trkpt lat="50.05578" lon="1.90575">
        <ele>18.8</ele>
        <time>2022-04-17T13:48:00Z</time>
      </trkpt>
      <trkpt lat="50.05578" lon="1.90575">
        <ele>18.8</ele>
        <time>2022-04-17T13:48:01Z</time>
      </trkpt>
      <trkpt lat="50.05578" lon="1.90575">
        <ele>18.8</ele>
        <time>2022-04-17T13:48:02Z</time>
      </trkpt>
      <trkpt lat="50.05578" lon="1.90575">
        <ele>18.8</ele>
        <time>2022-04-17T13:48:03Z</time>
      </trkpt>
      <trkpt lat="50.05577" lon="1.90574">
        <ele>18.8</ele>
        <time>2022-04-17T13:48:04Z</time>
      </trkpt>
      <trkpt lat="50.05577" lon="1.90574">
        <ele>18.8</ele>
        <time>2022-04-17T13:48:05Z</time>
      </trkpt>
      <trkpt lat="50.05577" lon="1.90575">
        <ele>18.8</ele>
        <time>2022-04-17T13:48:06Z</time>
      </trkpt>
      <trkpt lat="50.05577" lon="1.90575">
        <ele>18.8</ele>
        <time>2022-04-17T13:48:07Z</time>
      </trkpt>
      <trkpt lat="50.05577" lon="1.90575">
        <ele>18.8</ele>
        <time>2022-04-17T13:48:08Z</time>
      </trkpt>
      <trkpt lat="50.05577" lon="1.90576">
        <ele>18.8</ele>
        <time>2022-04-17T13:48:09Z</time>
      </trkpt>
      <trkpt lat="50.05577" lon="1.90576">
        <ele>18.8</ele>
        <time>2022-04-17T13:48:10Z</time>
      </trkpt>
      <trkpt lat="50.05576" lon="1.90576">
        <ele>18.8</ele>
        <time>2022-04-17T13:48:11Z</time>
      </trkpt>
      <trkpt lat="50.05576" lon="1.90577">
        <ele>18.8</ele>
        <time>2022-04-17T13:48:12Z</time>
      </trkpt>
      <trkpt lat="50.05576" lon="1.90577">
        <ele>18.8</ele>
        <time>2022-04-17T13:48:13Z</time>
      </trkpt>
      <trkpt lat="50.05576" lon="1.90577">
        <ele>18.8</ele>
        <time>2022-04-17T13:48:14Z</time>
      </trkpt>
      <trkpt lat="50.05576" lon="1.90577">
        <ele>18.8</ele>
        <time>2022-04-17T13:48:15Z</time>
      </trkpt>
      <trkpt lat="50.05576" lon="1.90578">
        <ele>18.8</ele>
        <time>2022-04-17T13:48:16Z</time>
      </trkpt>
      <trkpt lat="50.05576" lon="1.90578">
        <ele>18.8</ele>
        <time>2022-04-17T13:48:17Z</time>
      </trkpt>
      <trkpt lat="50.05576" lon="1.90578">
        <ele>18.8</ele>
        <time>2022-04-17T13:48:18Z</time>
      </trkpt>
      <trkpt lat="50.05575" lon="1.90579">
        <ele>18.8</ele>
        <time>2022-04-17T13:48:19Z</time>
      </trkpt>
      <trkpt lat="50.05575" lon="1.90579">
        <ele>18.8</ele>
        <time>2022-04-17T13:48:20Z</time>
      </trkpt>
      <trkpt lat="50.05575" lon="1.90579">
        <ele>18.8</ele>
        <time>2022-04-17T13:48:22Z</time>
      </trkpt>
      <trkpt lat="50.05575" lon="1.9058">
        <ele>18.8</ele>
        <time>2022-04-17T13:48:23Z</time>
      </trkpt>
      <trkpt lat="50.05575" lon="1.9058">
        <ele>18.8</ele>
        <time>2022-04-17T13:48:25Z</time>
      </trkpt>
      <trkpt lat="50.05575" lon="1.9058">
        <ele>18.8</ele>
        <time>2022-04-17T13:48:26Z</time>
      </trkpt>
      <trkpt lat="50.05574" lon="1.90583">
        <ele>18.7</ele>
        <time>2022-04-17T13:48:27Z</time>
      </trkpt>
      <trkpt lat="50.05574" lon="1.90583">
        <ele>18.7</ele>
        <time>2022-04-17T13:48:28Z</time>
      </trkpt>
      <trkpt lat="50.05574" lon="1.90583">
        <ele>18.7</ele>
        <time>2022-04-17T13:48:29Z</time>
      </trkpt>
      <trkpt lat="50.05573" lon="1.90583">
        <ele>18.7</ele>
        <time>2022-04-17T13:48:30Z</time>
      </trkpt>
      <trkpt lat="50.05573" lon="1.90584">
        <ele>18.7</ele>
        <time>2022-04-17T13:48:31Z</time>
      </trkpt>
      <trkpt lat="50.05573" lon="1.90585">
        <ele>18.7</ele>
        <time>2022-04-17T13:48:32Z</time>
      </trkpt>
      <trkpt lat="50.05572" lon="1.90587">
        <ele>18.7</ele>
        <time>2022-04-17T13:48:33Z</time>
      </trkpt>
      <trkpt lat="50.05571" lon="1.90589">
        <ele>18.7</ele>
        <time>2022-04-17T13:48:34Z</time>
      </trkpt>
      <trkpt lat="50.0557" lon="1.90592">
        <ele>18.7</ele>
        <time>2022-04-17T13:48:35Z</time>
      </trkpt>
      <trkpt lat="50.0557" lon="1.90593">
        <ele>18.7</ele>
        <time>2022-04-17T13:48:36Z</time>
      </trkpt>
      <trkpt lat="50.0557" lon="1.90594">
        <ele>18.6</ele>
        <time>2022-04-17T13:48:37Z</time>
      </trkpt>
      <trkpt lat="50.05569" lon="1.90597">
        <ele>18.6</ele>
        <time>2022-04-17T13:48:38Z</time>
      </trkpt>
      <trkpt lat="50.05568" lon="1.90598">
        <ele>18.6</ele>
        <time>2022-04-17T13:48:40Z</time>
      </trkpt>
      <trkpt lat="50.05568" lon="1.906">
        <ele>18.6</ele>
        <time>2022-04-17T13:48:41Z</time>
      </trkpt>
      <trkpt lat="50.05567" lon="1.90602">
        <ele>18.6</ele>
        <time>2022-04-17T13:48:42Z</time>
      </trkpt>
      <trkpt lat="50.05567" lon="1.90605">
        <ele>18.5</ele>
        <time>2022-04-17T13:48:44Z</time>
      </trkpt>
      <trkpt lat="50.05566" lon="1.90607">
        <ele>18.5</ele>
        <time>2022-04-17T13:48:45Z</time>
      </trkpt>
      <trkpt lat="50.05566" lon="1.90608">
        <ele>18.5</ele>
        <time>2022-04-17T13:48:48Z</time>
      </trkpt>
      <trkpt lat="50.05566" lon="1.90609">
        <ele>18.5</ele>
        <time>2022-04-17T13:48:48Z</time>
      </trkpt>
      <trkpt lat="50.05567" lon="1.90609">
        <ele>18.5</ele>
        <time>2022-04-17T13:48:49Z</time>
      </trkpt>
      <trkpt lat="50.05567" lon="1.9061">
        <ele>18.5</ele>
        <time>2022-04-17T13:48:50Z</time>
      </trkpt>
      <trkpt lat="50.05567" lon="1.9061">
        <ele>18.5</ele>
        <time>2022-04-17T13:48:51Z</time>
      </trkpt>
      <trkpt lat="50.05567" lon="1.90611">
        <ele>18.5</ele>
        <time>2022-04-17T13:48:52Z</time>
      </trkpt>
      <trkpt lat="50.05567" lon="1.90611">
        <ele>18.5</ele>
        <time>2022-04-17T13:48:53Z</time>
      </trkpt>
      <trkpt lat="50.05567" lon="1.90611">
        <ele>18.5</ele>
        <time>2022-04-17T13:48:55Z</time>
      </trkpt>
      <trkpt lat="50.05567" lon="1.90612">
        <ele>18.4</ele>
        <time>2022-04-17T13:48:56Z</time>
      </trkpt>
      <trkpt lat="50.05567" lon="1.90612">
        <ele>18.4</ele>
        <time>2022-04-17T13:48:57Z</time>
      </trkpt>
      <trkpt lat="50.05566" lon="1.90613">
        <ele>18.4</ele>
        <time>2022-04-17T13:48:58Z</time>
      </trkpt>
      <trkpt lat="50.05566" lon="1.90613">
        <ele>18.4</ele>
        <time>2022-04-17T13:48:59Z</time>
      </trkpt>
      <trkpt lat="50.05566" lon="1.90614">
        <ele>18.4</ele>
        <time>2022-04-17T13:49:00Z</time>
      </trkpt>
      <trkpt lat="50.05566" lon="1.90614">
        <ele>18.4</ele>
        <time>2022-04-17T13:49:01Z</time>
      </trkpt>
      <trkpt lat="50.05566" lon="1.90618">
        <ele>18.4</ele>
        <time>2022-04-17T13:49:03Z</time>
      </trkpt>
      <trkpt lat="50.05566" lon="1.90619">
        <ele>18.4</ele>
        <time>2022-04-17T13:49:04Z</time>
      </trkpt>
      <trkpt lat="50.05566" lon="1.9062">
        <ele>18.3</ele>
        <time>2022-04-17T13:49:05Z</time>
      </trkpt>
      <trkpt lat="50.05565" lon="1.90623">
        <ele>18.3</ele>
        <time>2022-04-17T13:49:06Z</time>
      </trkpt>
      <trkpt lat="50.05564" lon="1.90625">
        <ele>18.3</ele>
        <time>2022-04-17T13:49:07Z</time>
      </trkpt>
      <trkpt lat="50.05563" lon="1.90627">
        <ele>18.2</ele>
        <time>2022-04-17T13:49:09Z</time>
      </trkpt>
      <trkpt lat="50.05562" lon="1.90629">
        <ele>18.2</ele>
        <time>2022-04-17T13:49:10Z</time>
      </trkpt>
      <trkpt lat="50.05561" lon="1.90631">
        <ele>18.2</ele>
        <time>2022-04-17T13:49:11Z</time>
      </trkpt>
      <trkpt lat="50.0556" lon="1.90633">
        <ele>18.1</ele>
        <time>2022-04-17T13:49:12Z</time>
      </trkpt>
      <trkpt lat="50.05559" lon="1.90634">
        <ele>18.1</ele>
        <time>2022-04-17T13:49:13Z</time>
      </trkpt>
      <trkpt lat="50.05559" lon="1.90636">
        <ele>18.1</ele>
        <time>2022-04-17T13:49:14Z</time>
      </trkpt>
      <trkpt lat="50.05558" lon="1.90637">
        <ele>18.1</ele>
        <time>2022-04-17T13:49:15Z</time>
      </trkpt>
      <trkpt lat="50.05557" lon="1.9064">
        <ele>18</ele>
        <time>2022-04-17T13:49:16Z</time>
      </trkpt>
      <trkpt lat="50.05556" lon="1.90641">
        <ele>18</ele>
        <time>2022-04-17T13:49:18Z</time>
      </trkpt>
      <trkpt lat="50.05555" lon="1.90642">
        <ele>18</ele>
        <time>2022-04-17T13:49:19Z</time>
      </trkpt>
      <trkpt lat="50.05554" lon="1.90643">
        <ele>18</ele>
        <time>2022-04-17T13:49:20Z</time>
      </trkpt>
      <trkpt lat="50.05554" lon="1.90645">
        <ele>17.9</ele>
        <time>2022-04-17T13:49:21Z</time>
      </trkpt>
      <trkpt lat="50.05552" lon="1.90648">
        <ele>17.9</ele>
        <time>2022-04-17T13:49:22Z</time>
      </trkpt>
      <trkpt lat="50.05552" lon="1.90648">
        <ele>17.9</ele>
        <time>2022-04-17T13:49:23Z</time>
      </trkpt>
      <trkpt lat="50.05552" lon="1.90649">
        <ele>17.9</ele>
        <time>2022-04-17T13:49:24Z</time>
      </trkpt>
      <trkpt lat="50.05552" lon="1.90651">
        <ele>17.8</ele>
        <time>2022-04-17T13:49:25Z</time>
      </trkpt>
      <trkpt lat="50.05552" lon="1.90653">
        <ele>17.8</ele>
        <time>2022-04-17T13:49:27Z</time>
      </trkpt>
      <trkpt lat="50.05554" lon="1.90655">
        <ele>17.7</ele>
        <time>2022-04-17T13:49:28Z</time>
      </trkpt>
      <trkpt lat="50.05554" lon="1.90655">
        <ele>17.7</ele>
        <time>2022-04-17T13:49:29Z</time>
      </trkpt>
      <trkpt lat="50.05554" lon="1.90657">
        <ele>17.7</ele>
        <time>2022-04-17T13:49:30Z</time>
      </trkpt>
      <trkpt lat="50.05554" lon="1.90659">
        <ele>17.7</ele>
        <time>2022-04-17T13:49:31Z</time>
      </trkpt>
      <trkpt lat="50.05554" lon="1.90661">
        <ele>17.7</ele>
        <time>2022-04-17T13:49:32Z</time>
      </trkpt>
      <trkpt lat="50.05554" lon="1.90662">
        <ele>17.6</ele>
        <time>2022-04-17T13:49:33Z</time>
      </trkpt>
      <trkpt lat="50.05553" lon="1.90661">
        <ele>17.6</ele>
        <time>2022-04-17T13:49:34Z</time>
      </trkpt>
      <trkpt lat="50.05553" lon="1.90661">
        <ele>17.6</ele>
        <time>2022-04-17T13:49:36Z</time>
      </trkpt>
      <trkpt lat="50.05553" lon="1.90664">
        <ele>17.6</ele>
        <time>2022-04-17T13:49:37Z</time>
      </trkpt>
      <trkpt lat="50.05552" lon="1.90666">
        <ele>17.5</ele>
        <time>2022-04-17T13:49:38Z</time>
      </trkpt>
      <trkpt lat="50.05551" lon="1.9067">
        <ele>17.5</ele>
        <time>2022-04-17T13:49:39Z</time>
      </trkpt>
      <trkpt lat="50.05549" lon="1.90675">
        <ele>17.4</ele>
        <time>2022-04-17T13:49:41Z</time>
      </trkpt>
      <trkpt lat="50.05548" lon="1.90677">
        <ele>17.3</ele>
        <time>2022-04-17T13:49:42Z</time>
      </trkpt>
      <trkpt lat="50.05547" lon="1.90679">
        <ele>17.3</ele>
        <time>2022-04-17T13:49:43Z</time>
      </trkpt>
      <trkpt lat="50.05546" lon="1.9068">
        <ele>17.2</ele>
        <time>2022-04-17T13:49:44Z</time>
      </trkpt>
      <trkpt lat="50.05544" lon="1.90682">
        <ele>17.2</ele>
        <time>2022-04-17T13:49:45Z</time>
      </trkpt>
      <trkpt lat="50.05543" lon="1.90685">
        <ele>17.1</ele>
        <time>2022-04-17T13:49:47Z</time>
      </trkpt>
      <trkpt lat="50.05542" lon="1.90687">
        <ele>17.1</ele>
        <time>2022-04-17T13:49:48Z</time>
      </trkpt>
      <trkpt lat="50.05541" lon="1.90689">
        <ele>17</ele>
        <time>2022-04-17T13:49:49Z</time>
      </trkpt>
      <trkpt lat="50.0554" lon="1.90691">
        <ele>17</ele>
        <time>2022-04-17T13:49:51Z</time>
      </trkpt>
      <trkpt lat="50.05539" lon="1.90693">
        <ele>16.9</ele>
        <time>2022-04-17T13:49:52Z</time>
      </trkpt>
      <trkpt lat="50.05538" lon="1.90695">
        <ele>16.9</ele>
        <time>2022-04-17T13:49:53Z</time>
      </trkpt>
      <trkpt lat="50.05537" lon="1.90696">
        <ele>16.9</ele>
        <time>2022-04-17T13:49:54Z</time>
      </trkpt>
      <trkpt lat="50.05536" lon="1.90697">
        <ele>16.8</ele>
        <time>2022-04-17T13:49:55Z</time>
      </trkpt>
      <trkpt lat="50.05535" lon="1.90698">
        <ele>16.8</ele>
        <time>2022-04-17T13:49:56Z</time>
      </trkpt>
      <trkpt lat="50.05534" lon="1.907">
        <ele>16.8</ele>
        <time>2022-04-17T13:49:58Z</time>
      </trkpt>
      <trkpt lat="50.05534" lon="1.90701">
        <ele>16.7</ele>
        <time>2022-04-17T13:50:00Z</time>
      </trkpt>
      <trkpt lat="50.05533" lon="1.90703">
        <ele>16.7</ele>
        <time>2022-04-17T13:50:01Z</time>
      </trkpt>
      <trkpt lat="50.05532" lon="1.90704">
        <ele>16.7</ele>
        <time>2022-04-17T13:50:03Z</time>
      </trkpt>
      <trkpt lat="50.05532" lon="1.90706">
        <ele>16.7</ele>
        <time>2022-04-17T13:50:04Z</time>
      </trkpt>
      <trkpt lat="50.0553" lon="1.90708">
        <ele>16.6</ele>
        <time>2022-04-17T13:50:05Z</time>
      </trkpt>
      <trkpt lat="50.05529" lon="1.90709">
        <ele>16.6</ele>
        <time>2022-04-17T13:50:06Z</time>
      </trkpt>
      <trkpt lat="50.05529" lon="1.9071">
        <ele>16.6</ele>
        <time>2022-04-17T13:50:07Z</time>
      </trkpt>
      <trkpt lat="50.05528" lon="1.90712">
        <ele>16.5</ele>
        <time>2022-04-17T13:50:08Z</time>
      </trkpt>
      <trkpt lat="50.05526" lon="1.90715">
        <ele>16.4</ele>
        <time>2022-04-17T13:50:10Z</time>
      </trkpt>
      <trkpt lat="50.05525" lon="1.90716">
        <ele>16.4</ele>
        <time>2022-04-17T13:50:11Z</time>
      </trkpt>
      <trkpt lat="50.05524" lon="1.90717">
        <ele>16.4</ele>
        <time>2022-04-17T13:50:12Z</time>
      </trkpt>
      <trkpt lat="50.05524" lon="1.90718">
        <ele>16.4</ele>
        <time>2022-04-17T13:50:13Z</time>
      </trkpt>
      <trkpt lat="50.05523" lon="1.9072">
        <ele>16.3</ele>
        <time>2022-04-17T13:50:14Z</time>
      </trkpt>
      <trkpt lat="50.05521" lon="1.90723">
        <ele>16.3</ele>
        <time>2022-04-17T13:50:16Z</time>
      </trkpt>
      <trkpt lat="50.05521" lon="1.90724">
        <ele>16.2</ele>
        <time>2022-04-17T13:50:17Z</time>
      </trkpt>
      <trkpt lat="50.0552" lon="1.90725">
        <ele>16.2</ele>
        <time>2022-04-17T13:50:18Z</time>
      </trkpt>
      <trkpt lat="50.05519" lon="1.90726">
        <ele>16.2</ele>
        <time>2022-04-17T13:50:19Z</time>
      </trkpt>
      <trkpt lat="50.05518" lon="1.90729">
        <ele>16.2</ele>
        <time>2022-04-17T13:50:20Z</time>
      </trkpt>
      <trkpt lat="50.05518" lon="1.90729">
        <ele>16.1</ele>
        <time>2022-04-17T13:50:21Z</time>
      </trkpt>
      <trkpt lat="50.05517" lon="1.90731">
        <ele>16.1</ele>
        <time>2022-04-17T13:50:23Z</time>
      </trkpt>
      <trkpt lat="50.05516" lon="1.90732">
        <ele>16.1</ele>
        <time>2022-04-17T13:50:24Z</time>
      </trkpt>
      <trkpt lat="50.05515" lon="1.90735">
        <ele>16</ele>
        <time>2022-04-17T13:50:25Z</time>
      </trkpt>
      <trkpt lat="50.05514" lon="1.90737">
        <ele>16</ele>
        <time>2022-04-17T13:50:26Z</time>
      </trkpt>
      <trkpt lat="50.05514" lon="1.90738">
        <ele>15.9</ele>
        <time>2022-04-17T13:50:27Z</time>
      </trkpt>
      <trkpt lat="50.05513" lon="1.90739">
        <ele>15.9</ele>
        <time>2022-04-17T13:50:28Z</time>
      </trkpt>
      <trkpt lat="50.05513" lon="1.9074">
        <ele>15.9</ele>
        <time>2022-04-17T13:50:29Z</time>
      </trkpt>
      <trkpt lat="50.05511" lon="1.90743">
        <ele>15.8</ele>
        <time>2022-04-17T13:50:30Z</time>
      </trkpt>
      <trkpt lat="50.05511" lon="1.90743">
        <ele>15.8</ele>
        <time>2022-04-17T13:50:31Z</time>
      </trkpt>
      <trkpt lat="50.0551" lon="1.90744">
        <ele>15.8</ele>
        <time>2022-04-17T13:50:32Z</time>
      </trkpt>
      <trkpt lat="50.0551" lon="1.90746">
        <ele>15.8</ele>
        <time>2022-04-17T13:50:33Z</time>
      </trkpt>
      <trkpt lat="50.05508" lon="1.90751">
        <ele>15.7</ele>
        <time>2022-04-17T13:50:35Z</time>
      </trkpt>
      <trkpt lat="50.05508" lon="1.90751">
        <ele>15.6</ele>
        <time>2022-04-17T13:50:36Z</time>
      </trkpt>
      <trkpt lat="50.05508" lon="1.90753">
        <ele>15.6</ele>
        <time>2022-04-17T13:50:37Z</time>
      </trkpt>
      <trkpt lat="50.05507" lon="1.90754">
        <ele>15.6</ele>
        <time>2022-04-17T13:50:38Z</time>
      </trkpt>
      <trkpt lat="50.05507" lon="1.90756">
        <ele>15.6</ele>
        <time>2022-04-17T13:50:39Z</time>
      </trkpt>
      <trkpt lat="50.05507" lon="1.90759">
        <ele>15.5</ele>
        <time>2022-04-17T13:50:41Z</time>
      </trkpt>
      <trkpt lat="50.05507" lon="1.9076">
        <ele>15.5</ele>
        <time>2022-04-17T13:50:42Z</time>
      </trkpt>
      <trkpt lat="50.05507" lon="1.90764">
        <ele>15.4</ele>
        <time>2022-04-17T13:50:43Z</time>
      </trkpt>
      <trkpt lat="50.05506" lon="1.90766">
        <ele>15.4</ele>
        <time>2022-04-17T13:50:44Z</time>
      </trkpt>
      <trkpt lat="50.05506" lon="1.90768">
        <ele>15.4</ele>
        <time>2022-04-17T13:50:45Z</time>
      </trkpt>
      <trkpt lat="50.05506" lon="1.90769">
        <ele>15.4</ele>
        <time>2022-04-17T13:50:46Z</time>
      </trkpt>
      <trkpt lat="50.05506" lon="1.9077">
        <ele>15.4</ele>
        <time>2022-04-17T13:50:47Z</time>
      </trkpt>
      <trkpt lat="50.05506" lon="1.90772">
        <ele>15.3</ele>
        <time>2022-04-17T13:50:48Z</time>
      </trkpt>
      <trkpt lat="50.05506" lon="1.90773">
        <ele>15.3</ele>
        <time>2022-04-17T13:50:49Z</time>
      </trkpt>
      <trkpt lat="50.05506" lon="1.90775">
        <ele>15.3</ele>
        <time>2022-04-17T13:50:50Z</time>
      </trkpt>
      <trkpt lat="50.05505" lon="1.90776">
        <ele>15.3</ele>
        <time>2022-04-17T13:50:51Z</time>
      </trkpt>
      <trkpt lat="50.05505" lon="1.90778">
        <ele>15.3</ele>
        <time>2022-04-17T13:50:52Z</time>
      </trkpt>
      <trkpt lat="50.05505" lon="1.90779">
        <ele>15.2</ele>
        <time>2022-04-17T13:50:53Z</time>
      </trkpt>
      <trkpt lat="50.05505" lon="1.9078">
        <ele>15.2</ele>
        <time>2022-04-17T13:50:54Z</time>
      </trkpt>
      <trkpt lat="50.05504" lon="1.90781">
        <ele>15.2</ele>
        <time>2022-04-17T13:50:55Z</time>
      </trkpt>
      <trkpt lat="50.05504" lon="1.90781">
        <ele>15.2</ele>
        <time>2022-04-17T13:50:57Z</time>
      </trkpt>
    </trkseg>
  </trk>
</gpx>